<?xml version="1.0" encoding="UTF-8" standalone="no" ?>
<gpx xmlns="http://www.topografix.com/GPX/1/1" xmlns:xsi="http://www.w3.org/2001/XMLSchema-instance" xsi:schemaLocation="http://www.topografix.com/GPX/1/1 http://www.topografix.com/GPX/1/1/gpx.xsd" version="1.1" creator="VisuGPX - https://www.visugpx.com">
  <metadata>
    <name>2018-09-20 Bike ride-Ambérieux-Rancé O v36k</name>
    <desc><![CDATA[2018-09-20 Bike ride-Ambérieux-Rancé O v36k]]></desc>
  </metadata>
  <wpt lat="45.92453" lon="4.73719">
    <ele>174</ele>
    <name><![CDATA[2018-09-20 10:41 (Start)]]></name>
  </wpt>
  <wpt lat="45.92468" lon="4.73712">
    <ele>174</ele>
    <name><![CDATA[2018-09-20 10:41 (End)]]></name>
  </wpt>
  <trk>
    <name><![CDATA[2018-09-20 10:41]]></name>
    <trkseg>
      <trkpt lat="45.92453" lon="4.73719">
        <ele>174</ele>
        <time>2018-09-20T08:41:35.458Z</time>
      </trkpt>
      <trkpt lat="45.92459" lon="4.73716">
        <ele>174</ele>
        <time>2018-09-20T08:41:47Z</time>
      </trkpt>
      <trkpt lat="45.92459" lon="4.73715">
        <ele>174</ele>
        <time>2018-09-20T08:41:48Z</time>
      </trkpt>
      <trkpt lat="45.92459" lon="4.73716">
        <ele>174</ele>
        <time>2018-09-20T08:41:49Z</time>
      </trkpt>
      <trkpt lat="45.92466" lon="4.73708">
        <ele>174</ele>
        <time>2018-09-20T08:41:58Z</time>
      </trkpt>
      <trkpt lat="45.92466" lon="4.73706">
        <ele>174</ele>
        <time>2018-09-20T08:41:59Z</time>
      </trkpt>
      <trkpt lat="45.92468" lon="4.73695">
        <ele>174</ele>
        <time>2018-09-20T08:42:02Z</time>
      </trkpt>
      <trkpt lat="45.92468" lon="4.73691">
        <ele>174</ele>
        <time>2018-09-20T08:42:03Z</time>
      </trkpt>
      <trkpt lat="45.92469" lon="4.73687">
        <ele>174</ele>
        <time>2018-09-20T08:42:04Z</time>
      </trkpt>
      <trkpt lat="45.92471" lon="4.73673">
        <ele>174</ele>
        <time>2018-09-20T08:42:05Z</time>
      </trkpt>
      <trkpt lat="45.92472" lon="4.7366">
        <ele>174</ele>
        <time>2018-09-20T08:42:09Z</time>
      </trkpt>
      <trkpt lat="45.92473" lon="4.73657">
        <ele>174</ele>
        <time>2018-09-20T08:42:10Z</time>
      </trkpt>
      <trkpt lat="45.92478" lon="4.73648">
        <ele>174</ele>
        <time>2018-09-20T08:42:13Z</time>
      </trkpt>
      <trkpt lat="45.92481" lon="4.73646">
        <ele>174</ele>
        <time>2018-09-20T08:42:14Z</time>
      </trkpt>
      <trkpt lat="45.92487" lon="4.73645">
        <ele>174</ele>
        <time>2018-09-20T08:42:16Z</time>
      </trkpt>
      <trkpt lat="45.92497" lon="4.73646">
        <ele>174</ele>
        <time>2018-09-20T08:42:17Z</time>
      </trkpt>
      <trkpt lat="45.92506" lon="4.73647">
        <ele>174</ele>
        <time>2018-09-20T08:42:19Z</time>
      </trkpt>
      <trkpt lat="45.9251" lon="4.73647">
        <ele>174</ele>
        <time>2018-09-20T08:42:20Z</time>
      </trkpt>
      <trkpt lat="45.92519" lon="4.73647">
        <ele>174</ele>
        <time>2018-09-20T08:42:22Z</time>
      </trkpt>
      <trkpt lat="45.92523" lon="4.73647">
        <ele>173</ele>
        <time>2018-09-20T08:42:23Z</time>
      </trkpt>
      <trkpt lat="45.92531" lon="4.73646">
        <ele>173</ele>
        <time>2018-09-20T08:42:25Z</time>
      </trkpt>
      <trkpt lat="45.92533" lon="4.73646">
        <ele>173</ele>
        <time>2018-09-20T08:42:26Z</time>
      </trkpt>
      <trkpt lat="45.92539" lon="4.73645">
        <ele>173</ele>
        <time>2018-09-20T08:42:27Z</time>
      </trkpt>
      <trkpt lat="45.92543" lon="4.73643">
        <ele>173</ele>
        <time>2018-09-20T08:42:28Z</time>
      </trkpt>
      <trkpt lat="45.92551" lon="4.7364">
        <ele>173</ele>
        <time>2018-09-20T08:42:30Z</time>
      </trkpt>
      <trkpt lat="45.92556" lon="4.73639">
        <ele>173</ele>
        <time>2018-09-20T08:42:31Z</time>
      </trkpt>
      <trkpt lat="45.9256" lon="4.73638">
        <ele>173</ele>
        <time>2018-09-20T08:42:32Z</time>
      </trkpt>
      <trkpt lat="45.92565" lon="4.73636">
        <ele>173</ele>
        <time>2018-09-20T08:42:33Z</time>
      </trkpt>
      <trkpt lat="45.92573" lon="4.73634">
        <ele>173</ele>
        <time>2018-09-20T08:42:35Z</time>
      </trkpt>
      <trkpt lat="45.92577" lon="4.73632">
        <ele>173</ele>
        <time>2018-09-20T08:42:36Z</time>
      </trkpt>
      <trkpt lat="45.92586" lon="4.73631">
        <ele>172</ele>
        <time>2018-09-20T08:42:38Z</time>
      </trkpt>
      <trkpt lat="45.92591" lon="4.7363">
        <ele>172</ele>
        <time>2018-09-20T08:42:39Z</time>
      </trkpt>
      <trkpt lat="45.92595" lon="4.73629">
        <ele>172</ele>
        <time>2018-09-20T08:42:40Z</time>
      </trkpt>
      <trkpt lat="45.926" lon="4.7363">
        <ele>172</ele>
        <time>2018-09-20T08:42:41Z</time>
      </trkpt>
      <trkpt lat="45.92605" lon="4.7363">
        <ele>173</ele>
        <time>2018-09-20T08:42:42Z</time>
      </trkpt>
      <trkpt lat="45.9261" lon="4.73631">
        <ele>173</ele>
        <time>2018-09-20T08:42:43Z</time>
      </trkpt>
      <trkpt lat="45.92615" lon="4.73635">
        <ele>173</ele>
        <time>2018-09-20T08:42:44Z</time>
      </trkpt>
      <trkpt lat="45.92619" lon="4.7364">
        <ele>173</ele>
        <time>2018-09-20T08:42:45Z</time>
      </trkpt>
      <trkpt lat="45.92622" lon="4.73646">
        <ele>173</ele>
        <time>2018-09-20T08:42:46Z</time>
      </trkpt>
      <trkpt lat="45.92624" lon="4.7365">
        <ele>173</ele>
        <time>2018-09-20T08:42:47Z</time>
      </trkpt>
      <trkpt lat="45.92627" lon="4.73657">
        <ele>173</ele>
        <time>2018-09-20T08:42:48Z</time>
      </trkpt>
      <trkpt lat="45.92629" lon="4.73662">
        <ele>173</ele>
        <time>2018-09-20T08:42:49Z</time>
      </trkpt>
      <trkpt lat="45.92632" lon="4.73668">
        <ele>173</ele>
        <time>2018-09-20T08:42:50Z</time>
      </trkpt>
      <trkpt lat="45.92634" lon="4.73673">
        <ele>173</ele>
        <time>2018-09-20T08:42:51Z</time>
      </trkpt>
      <trkpt lat="45.92637" lon="4.73678">
        <ele>173</ele>
        <time>2018-09-20T08:42:52Z</time>
      </trkpt>
      <trkpt lat="45.9264" lon="4.73683">
        <ele>173</ele>
        <time>2018-09-20T08:42:53Z</time>
      </trkpt>
      <trkpt lat="45.92643" lon="4.73688">
        <ele>173</ele>
        <time>2018-09-20T08:42:54Z</time>
      </trkpt>
      <trkpt lat="45.92646" lon="4.73693">
        <ele>173</ele>
        <time>2018-09-20T08:42:55Z</time>
      </trkpt>
      <trkpt lat="45.9265" lon="4.73697">
        <ele>173</ele>
        <time>2018-09-20T08:42:56Z</time>
      </trkpt>
      <trkpt lat="45.92654" lon="4.73702">
        <ele>173</ele>
        <time>2018-09-20T08:42:57Z</time>
      </trkpt>
      <trkpt lat="45.92659" lon="4.73705">
        <ele>173</ele>
        <time>2018-09-20T08:42:58Z</time>
      </trkpt>
      <trkpt lat="45.92664" lon="4.73708">
        <ele>173</ele>
        <time>2018-09-20T08:42:59Z</time>
      </trkpt>
      <trkpt lat="45.92669" lon="4.73711">
        <ele>174</ele>
        <time>2018-09-20T08:43:00Z</time>
      </trkpt>
      <trkpt lat="45.92674" lon="4.73713">
        <ele>174</ele>
        <time>2018-09-20T08:43:01Z</time>
      </trkpt>
      <trkpt lat="45.92679" lon="4.73714">
        <ele>173</ele>
        <time>2018-09-20T08:43:02Z</time>
      </trkpt>
      <trkpt lat="45.92684" lon="4.73715">
        <ele>173</ele>
        <time>2018-09-20T08:43:03Z</time>
      </trkpt>
      <trkpt lat="45.9269" lon="4.73716">
        <ele>173</ele>
        <time>2018-09-20T08:43:04Z</time>
      </trkpt>
      <trkpt lat="45.92695" lon="4.73717">
        <ele>173</ele>
        <time>2018-09-20T08:43:05Z</time>
      </trkpt>
      <trkpt lat="45.927" lon="4.73719">
        <ele>173</ele>
        <time>2018-09-20T08:43:06Z</time>
      </trkpt>
      <trkpt lat="45.92706" lon="4.7372">
        <ele>173</ele>
        <time>2018-09-20T08:43:07Z</time>
      </trkpt>
      <trkpt lat="45.92712" lon="4.7372">
        <ele>173</ele>
        <time>2018-09-20T08:43:08Z</time>
      </trkpt>
      <trkpt lat="45.92716" lon="4.73721">
        <ele>173</ele>
        <time>2018-09-20T08:43:09Z</time>
      </trkpt>
      <trkpt lat="45.92722" lon="4.73722">
        <ele>173</ele>
        <time>2018-09-20T08:43:10Z</time>
      </trkpt>
      <trkpt lat="45.92727" lon="4.73723">
        <ele>173</ele>
        <time>2018-09-20T08:43:11Z</time>
      </trkpt>
      <trkpt lat="45.92731" lon="4.73724">
        <ele>173</ele>
        <time>2018-09-20T08:43:12Z</time>
      </trkpt>
      <trkpt lat="45.92736" lon="4.73726">
        <ele>173</ele>
        <time>2018-09-20T08:43:13Z</time>
      </trkpt>
      <trkpt lat="45.92744" lon="4.73728">
        <ele>173</ele>
        <time>2018-09-20T08:43:15Z</time>
      </trkpt>
      <trkpt lat="45.92747" lon="4.7373">
        <ele>173</ele>
        <time>2018-09-20T08:43:16Z</time>
      </trkpt>
      <trkpt lat="45.92755" lon="4.73731">
        <ele>172</ele>
        <time>2018-09-20T08:43:18Z</time>
      </trkpt>
      <trkpt lat="45.92759" lon="4.73733">
        <ele>172</ele>
        <time>2018-09-20T08:43:19Z</time>
      </trkpt>
      <trkpt lat="45.92766" lon="4.73736">
        <ele>172</ele>
        <time>2018-09-20T08:43:21Z</time>
      </trkpt>
      <trkpt lat="45.92772" lon="4.73738">
        <ele>172</ele>
        <time>2018-09-20T08:43:22Z</time>
      </trkpt>
      <trkpt lat="45.92778" lon="4.73745">
        <ele>172</ele>
        <time>2018-09-20T08:43:25Z</time>
      </trkpt>
      <trkpt lat="45.92779" lon="4.73748">
        <ele>172</ele>
        <time>2018-09-20T08:43:26Z</time>
      </trkpt>
      <trkpt lat="45.92783" lon="4.73755">
        <ele>173</ele>
        <time>2018-09-20T08:43:27Z</time>
      </trkpt>
      <trkpt lat="45.92786" lon="4.73759">
        <ele>173</ele>
        <time>2018-09-20T08:43:28Z</time>
      </trkpt>
      <trkpt lat="45.92793" lon="4.73765">
        <ele>173</ele>
        <time>2018-09-20T08:43:30Z</time>
      </trkpt>
      <trkpt lat="45.92797" lon="4.73766">
        <ele>173</ele>
        <time>2018-09-20T08:43:31Z</time>
      </trkpt>
      <trkpt lat="45.92802" lon="4.73769">
        <ele>173</ele>
        <time>2018-09-20T08:43:32Z</time>
      </trkpt>
      <trkpt lat="45.92806" lon="4.73771">
        <ele>173</ele>
        <time>2018-09-20T08:43:33Z</time>
      </trkpt>
      <trkpt lat="45.92811" lon="4.73773">
        <ele>173</ele>
        <time>2018-09-20T08:43:34Z</time>
      </trkpt>
      <trkpt lat="45.92816" lon="4.73775">
        <ele>173</ele>
        <time>2018-09-20T08:43:35Z</time>
      </trkpt>
      <trkpt lat="45.92821" lon="4.73779">
        <ele>173</ele>
        <time>2018-09-20T08:43:36Z</time>
      </trkpt>
      <trkpt lat="45.92826" lon="4.73782">
        <ele>173</ele>
        <time>2018-09-20T08:43:37Z</time>
      </trkpt>
      <trkpt lat="45.92831" lon="4.73787">
        <ele>173</ele>
        <time>2018-09-20T08:43:38Z</time>
      </trkpt>
      <trkpt lat="45.92837" lon="4.7379">
        <ele>173</ele>
        <time>2018-09-20T08:43:39Z</time>
      </trkpt>
      <trkpt lat="45.92841" lon="4.73794">
        <ele>173</ele>
        <time>2018-09-20T08:43:40Z</time>
      </trkpt>
      <trkpt lat="45.92845" lon="4.73798">
        <ele>173</ele>
        <time>2018-09-20T08:43:41Z</time>
      </trkpt>
      <trkpt lat="45.92848" lon="4.73804">
        <ele>173</ele>
        <time>2018-09-20T08:43:42Z</time>
      </trkpt>
      <trkpt lat="45.92851" lon="4.7381">
        <ele>173</ele>
        <time>2018-09-20T08:43:43Z</time>
      </trkpt>
      <trkpt lat="45.92854" lon="4.73816">
        <ele>173</ele>
        <time>2018-09-20T08:43:44Z</time>
      </trkpt>
      <trkpt lat="45.92856" lon="4.73823">
        <ele>173</ele>
        <time>2018-09-20T08:43:45Z</time>
      </trkpt>
      <trkpt lat="45.92858" lon="4.7383">
        <ele>173</ele>
        <time>2018-09-20T08:43:46Z</time>
      </trkpt>
      <trkpt lat="45.92859" lon="4.73836">
        <ele>173</ele>
        <time>2018-09-20T08:43:47Z</time>
      </trkpt>
      <trkpt lat="45.92862" lon="4.73843">
        <ele>173</ele>
        <time>2018-09-20T08:43:48Z</time>
      </trkpt>
      <trkpt lat="45.92864" lon="4.7385">
        <ele>173</ele>
        <time>2018-09-20T08:43:49Z</time>
      </trkpt>
      <trkpt lat="45.92866" lon="4.73857">
        <ele>173</ele>
        <time>2018-09-20T08:43:50Z</time>
      </trkpt>
      <trkpt lat="45.92868" lon="4.73863">
        <ele>173</ele>
        <time>2018-09-20T08:43:51Z</time>
      </trkpt>
      <trkpt lat="45.9287" lon="4.73869">
        <ele>173</ele>
        <time>2018-09-20T08:43:52Z</time>
      </trkpt>
      <trkpt lat="45.92871" lon="4.73876">
        <ele>173</ele>
        <time>2018-09-20T08:43:53Z</time>
      </trkpt>
      <trkpt lat="45.92873" lon="4.73884">
        <ele>173</ele>
        <time>2018-09-20T08:43:54Z</time>
      </trkpt>
      <trkpt lat="45.92876" lon="4.73892">
        <ele>173</ele>
        <time>2018-09-20T08:43:55Z</time>
      </trkpt>
      <trkpt lat="45.92877" lon="4.73899">
        <ele>173</ele>
        <time>2018-09-20T08:43:56Z</time>
      </trkpt>
      <trkpt lat="45.92878" lon="4.73906">
        <ele>173</ele>
        <time>2018-09-20T08:43:57Z</time>
      </trkpt>
      <trkpt lat="45.92878" lon="4.73914">
        <ele>173</ele>
        <time>2018-09-20T08:43:58Z</time>
      </trkpt>
      <trkpt lat="45.92879" lon="4.73921">
        <ele>172</ele>
        <time>2018-09-20T08:43:59Z</time>
      </trkpt>
      <trkpt lat="45.92879" lon="4.73928">
        <ele>172</ele>
        <time>2018-09-20T08:44:00Z</time>
      </trkpt>
      <trkpt lat="45.9288" lon="4.73936">
        <ele>172</ele>
        <time>2018-09-20T08:44:01Z</time>
      </trkpt>
      <trkpt lat="45.92881" lon="4.73943">
        <ele>172</ele>
        <time>2018-09-20T08:44:02Z</time>
      </trkpt>
      <trkpt lat="45.92881" lon="4.7395">
        <ele>172</ele>
        <time>2018-09-20T08:44:03Z</time>
      </trkpt>
      <trkpt lat="45.92881" lon="4.73956">
        <ele>172</ele>
        <time>2018-09-20T08:44:04Z</time>
      </trkpt>
      <trkpt lat="45.92882" lon="4.73964">
        <ele>172</ele>
        <time>2018-09-20T08:44:05Z</time>
      </trkpt>
      <trkpt lat="45.92882" lon="4.73976">
        <ele>172</ele>
        <time>2018-09-20T08:44:07Z</time>
      </trkpt>
      <trkpt lat="45.92882" lon="4.73982">
        <ele>172</ele>
        <time>2018-09-20T08:44:08Z</time>
      </trkpt>
      <trkpt lat="45.92879" lon="4.73993">
        <ele>172</ele>
        <time>2018-09-20T08:44:10Z</time>
      </trkpt>
      <trkpt lat="45.92878" lon="4.73999">
        <ele>172</ele>
        <time>2018-09-20T08:44:11Z</time>
      </trkpt>
      <trkpt lat="45.92877" lon="4.74005">
        <ele>172</ele>
        <time>2018-09-20T08:44:12Z</time>
      </trkpt>
      <trkpt lat="45.92875" lon="4.74012">
        <ele>172</ele>
        <time>2018-09-20T08:44:13Z</time>
      </trkpt>
      <trkpt lat="45.92875" lon="4.74019">
        <ele>172</ele>
        <time>2018-09-20T08:44:14Z</time>
      </trkpt>
      <trkpt lat="45.92874" lon="4.74025">
        <ele>172</ele>
        <time>2018-09-20T08:44:15Z</time>
      </trkpt>
      <trkpt lat="45.92873" lon="4.74033">
        <ele>172</ele>
        <time>2018-09-20T08:44:16Z</time>
      </trkpt>
      <trkpt lat="45.92871" lon="4.7404">
        <ele>172</ele>
        <time>2018-09-20T08:44:17Z</time>
      </trkpt>
      <trkpt lat="45.92869" lon="4.74046">
        <ele>172</ele>
        <time>2018-09-20T08:44:18Z</time>
      </trkpt>
      <trkpt lat="45.92865" lon="4.74052">
        <ele>172</ele>
        <time>2018-09-20T08:44:19Z</time>
      </trkpt>
      <trkpt lat="45.92862" lon="4.74058">
        <ele>172</ele>
        <time>2018-09-20T08:44:20Z</time>
      </trkpt>
      <trkpt lat="45.92858" lon="4.74063">
        <ele>172</ele>
        <time>2018-09-20T08:44:21Z</time>
      </trkpt>
      <trkpt lat="45.92853" lon="4.74068">
        <ele>172</ele>
        <time>2018-09-20T08:44:22Z</time>
      </trkpt>
      <trkpt lat="45.92849" lon="4.74072">
        <ele>172</ele>
        <time>2018-09-20T08:44:23Z</time>
      </trkpt>
      <trkpt lat="45.92845" lon="4.74077">
        <ele>172</ele>
        <time>2018-09-20T08:44:24Z</time>
      </trkpt>
      <trkpt lat="45.92841" lon="4.74082">
        <ele>171</ele>
        <time>2018-09-20T08:44:25Z</time>
      </trkpt>
      <trkpt lat="45.92838" lon="4.74087">
        <ele>171</ele>
        <time>2018-09-20T08:44:26Z</time>
      </trkpt>
      <trkpt lat="45.92834" lon="4.74093">
        <ele>171</ele>
        <time>2018-09-20T08:44:27Z</time>
      </trkpt>
      <trkpt lat="45.9283" lon="4.74098">
        <ele>171</ele>
        <time>2018-09-20T08:44:28Z</time>
      </trkpt>
      <trkpt lat="45.92826" lon="4.74102">
        <ele>171</ele>
        <time>2018-09-20T08:44:29Z</time>
      </trkpt>
      <trkpt lat="45.92821" lon="4.74107">
        <ele>171</ele>
        <time>2018-09-20T08:44:30Z</time>
      </trkpt>
      <trkpt lat="45.92817" lon="4.74112">
        <ele>172</ele>
        <time>2018-09-20T08:44:31Z</time>
      </trkpt>
      <trkpt lat="45.92812" lon="4.74117">
        <ele>172</ele>
        <time>2018-09-20T08:44:32Z</time>
      </trkpt>
      <trkpt lat="45.92808" lon="4.74123">
        <ele>172</ele>
        <time>2018-09-20T08:44:33Z</time>
      </trkpt>
      <trkpt lat="45.92803" lon="4.74127">
        <ele>172</ele>
        <time>2018-09-20T08:44:34Z</time>
      </trkpt>
      <trkpt lat="45.92799" lon="4.74132">
        <ele>172</ele>
        <time>2018-09-20T08:44:35Z</time>
      </trkpt>
      <trkpt lat="45.92795" lon="4.74137">
        <ele>172</ele>
        <time>2018-09-20T08:44:36Z</time>
      </trkpt>
      <trkpt lat="45.9279" lon="4.74141">
        <ele>172</ele>
        <time>2018-09-20T08:44:37Z</time>
      </trkpt>
      <trkpt lat="45.92786" lon="4.74145">
        <ele>172</ele>
        <time>2018-09-20T08:44:38Z</time>
      </trkpt>
      <trkpt lat="45.92782" lon="4.74148">
        <ele>172</ele>
        <time>2018-09-20T08:44:39Z</time>
      </trkpt>
      <trkpt lat="45.92778" lon="4.74152">
        <ele>172</ele>
        <time>2018-09-20T08:44:40Z</time>
      </trkpt>
      <trkpt lat="45.92773" lon="4.74156">
        <ele>172</ele>
        <time>2018-09-20T08:44:41Z</time>
      </trkpt>
      <trkpt lat="45.92769" lon="4.7416">
        <ele>172</ele>
        <time>2018-09-20T08:44:42Z</time>
      </trkpt>
      <trkpt lat="45.92765" lon="4.74164">
        <ele>172</ele>
        <time>2018-09-20T08:44:43Z</time>
      </trkpt>
      <trkpt lat="45.92761" lon="4.74168">
        <ele>172</ele>
        <time>2018-09-20T08:44:44Z</time>
      </trkpt>
      <trkpt lat="45.92757" lon="4.74173">
        <ele>172</ele>
        <time>2018-09-20T08:44:45Z</time>
      </trkpt>
      <trkpt lat="45.92753" lon="4.74177">
        <ele>172</ele>
        <time>2018-09-20T08:44:46Z</time>
      </trkpt>
      <trkpt lat="45.92748" lon="4.74182">
        <ele>172</ele>
        <time>2018-09-20T08:44:47Z</time>
      </trkpt>
      <trkpt lat="45.92744" lon="4.74188">
        <ele>172</ele>
        <time>2018-09-20T08:44:48Z</time>
      </trkpt>
      <trkpt lat="45.9274" lon="4.74193">
        <ele>171</ele>
        <time>2018-09-20T08:44:49Z</time>
      </trkpt>
      <trkpt lat="45.92736" lon="4.74199">
        <ele>171</ele>
        <time>2018-09-20T08:44:50Z</time>
      </trkpt>
      <trkpt lat="45.92732" lon="4.74204">
        <ele>171</ele>
        <time>2018-09-20T08:44:51Z</time>
      </trkpt>
      <trkpt lat="45.92728" lon="4.74209">
        <ele>171</ele>
        <time>2018-09-20T08:44:52Z</time>
      </trkpt>
      <trkpt lat="45.92724" lon="4.74214">
        <ele>171</ele>
        <time>2018-09-20T08:44:53Z</time>
      </trkpt>
      <trkpt lat="45.9272" lon="4.7422">
        <ele>171</ele>
        <time>2018-09-20T08:44:54Z</time>
      </trkpt>
      <trkpt lat="45.92716" lon="4.74226">
        <ele>171</ele>
        <time>2018-09-20T08:44:55Z</time>
      </trkpt>
      <trkpt lat="45.92712" lon="4.74232">
        <ele>171</ele>
        <time>2018-09-20T08:44:56Z</time>
      </trkpt>
      <trkpt lat="45.92708" lon="4.74239">
        <ele>171</ele>
        <time>2018-09-20T08:44:57Z</time>
      </trkpt>
      <trkpt lat="45.92705" lon="4.74246">
        <ele>171</ele>
        <time>2018-09-20T08:44:58Z</time>
      </trkpt>
      <trkpt lat="45.92701" lon="4.74252">
        <ele>171</ele>
        <time>2018-09-20T08:44:59Z</time>
      </trkpt>
      <trkpt lat="45.92697" lon="4.74259">
        <ele>171</ele>
        <time>2018-09-20T08:45:00Z</time>
      </trkpt>
      <trkpt lat="45.92693" lon="4.74265">
        <ele>171</ele>
        <time>2018-09-20T08:45:01Z</time>
      </trkpt>
      <trkpt lat="45.92689" lon="4.74273">
        <ele>171</ele>
        <time>2018-09-20T08:45:02Z</time>
      </trkpt>
      <trkpt lat="45.92685" lon="4.7428">
        <ele>171</ele>
        <time>2018-09-20T08:45:03Z</time>
      </trkpt>
      <trkpt lat="45.92681" lon="4.74287">
        <ele>171</ele>
        <time>2018-09-20T08:45:04Z</time>
      </trkpt>
      <trkpt lat="45.92677" lon="4.74295">
        <ele>171</ele>
        <time>2018-09-20T08:45:05Z</time>
      </trkpt>
      <trkpt lat="45.92673" lon="4.743">
        <ele>171</ele>
        <time>2018-09-20T08:45:06Z</time>
      </trkpt>
      <trkpt lat="45.9267" lon="4.74307">
        <ele>171</ele>
        <time>2018-09-20T08:45:07Z</time>
      </trkpt>
      <trkpt lat="45.92666" lon="4.74314">
        <ele>171</ele>
        <time>2018-09-20T08:45:08Z</time>
      </trkpt>
      <trkpt lat="45.92662" lon="4.7432">
        <ele>171</ele>
        <time>2018-09-20T08:45:09Z</time>
      </trkpt>
      <trkpt lat="45.92659" lon="4.74327">
        <ele>171</ele>
        <time>2018-09-20T08:45:10Z</time>
      </trkpt>
      <trkpt lat="45.92655" lon="4.74333">
        <ele>171</ele>
        <time>2018-09-20T08:45:11Z</time>
      </trkpt>
      <trkpt lat="45.92652" lon="4.74341">
        <ele>171</ele>
        <time>2018-09-20T08:45:12Z</time>
      </trkpt>
      <trkpt lat="45.92649" lon="4.74348">
        <ele>171</ele>
        <time>2018-09-20T08:45:13Z</time>
      </trkpt>
      <trkpt lat="45.92645" lon="4.74356">
        <ele>171</ele>
        <time>2018-09-20T08:45:14Z</time>
      </trkpt>
      <trkpt lat="45.92641" lon="4.74361">
        <ele>171</ele>
        <time>2018-09-20T08:45:15Z</time>
      </trkpt>
      <trkpt lat="45.92637" lon="4.74368">
        <ele>171</ele>
        <time>2018-09-20T08:45:16Z</time>
      </trkpt>
      <trkpt lat="45.92633" lon="4.74373">
        <ele>171</ele>
        <time>2018-09-20T08:45:17Z</time>
      </trkpt>
      <trkpt lat="45.92629" lon="4.7438">
        <ele>170</ele>
        <time>2018-09-20T08:45:18Z</time>
      </trkpt>
      <trkpt lat="45.92626" lon="4.74386">
        <ele>170</ele>
        <time>2018-09-20T08:45:19Z</time>
      </trkpt>
      <trkpt lat="45.92622" lon="4.74392">
        <ele>170</ele>
        <time>2018-09-20T08:45:20Z</time>
      </trkpt>
      <trkpt lat="45.92619" lon="4.74399">
        <ele>170</ele>
        <time>2018-09-20T08:45:21Z</time>
      </trkpt>
      <trkpt lat="45.92616" lon="4.74405">
        <ele>170</ele>
        <time>2018-09-20T08:45:22Z</time>
      </trkpt>
      <trkpt lat="45.92612" lon="4.74411">
        <ele>170</ele>
        <time>2018-09-20T08:45:23Z</time>
      </trkpt>
      <trkpt lat="45.92609" lon="4.74418">
        <ele>170</ele>
        <time>2018-09-20T08:45:24Z</time>
      </trkpt>
      <trkpt lat="45.92606" lon="4.74424">
        <ele>170</ele>
        <time>2018-09-20T08:45:25Z</time>
      </trkpt>
      <trkpt lat="45.92602" lon="4.74431">
        <ele>170</ele>
        <time>2018-09-20T08:45:26Z</time>
      </trkpt>
      <trkpt lat="45.92598" lon="4.74437">
        <ele>170</ele>
        <time>2018-09-20T08:45:27Z</time>
      </trkpt>
      <trkpt lat="45.92595" lon="4.74445">
        <ele>170</ele>
        <time>2018-09-20T08:45:28Z</time>
      </trkpt>
      <trkpt lat="45.92591" lon="4.74451">
        <ele>170</ele>
        <time>2018-09-20T08:45:29Z</time>
      </trkpt>
      <trkpt lat="45.92588" lon="4.74458">
        <ele>170</ele>
        <time>2018-09-20T08:45:30Z</time>
      </trkpt>
      <trkpt lat="45.92584" lon="4.74464">
        <ele>170</ele>
        <time>2018-09-20T08:45:31Z</time>
      </trkpt>
      <trkpt lat="45.9258" lon="4.74471">
        <ele>170</ele>
        <time>2018-09-20T08:45:32Z</time>
      </trkpt>
      <trkpt lat="45.92577" lon="4.74477">
        <ele>170</ele>
        <time>2018-09-20T08:45:33Z</time>
      </trkpt>
      <trkpt lat="45.92573" lon="4.74483">
        <ele>170</ele>
        <time>2018-09-20T08:45:34Z</time>
      </trkpt>
      <trkpt lat="45.9257" lon="4.74488">
        <ele>170</ele>
        <time>2018-09-20T08:45:35Z</time>
      </trkpt>
      <trkpt lat="45.92566" lon="4.74495">
        <ele>170</ele>
        <time>2018-09-20T08:45:36Z</time>
      </trkpt>
      <trkpt lat="45.92563" lon="4.74501">
        <ele>170</ele>
        <time>2018-09-20T08:45:37Z</time>
      </trkpt>
      <trkpt lat="45.9256" lon="4.74507">
        <ele>170</ele>
        <time>2018-09-20T08:45:38Z</time>
      </trkpt>
      <trkpt lat="45.92556" lon="4.74514">
        <ele>170</ele>
        <time>2018-09-20T08:45:39Z</time>
      </trkpt>
      <trkpt lat="45.92552" lon="4.7452">
        <ele>170</ele>
        <time>2018-09-20T08:45:40Z</time>
      </trkpt>
      <trkpt lat="45.92548" lon="4.74527">
        <ele>170</ele>
        <time>2018-09-20T08:45:41Z</time>
      </trkpt>
      <trkpt lat="45.92544" lon="4.74533">
        <ele>170</ele>
        <time>2018-09-20T08:45:42Z</time>
      </trkpt>
      <trkpt lat="45.9254" lon="4.74541">
        <ele>171</ele>
        <time>2018-09-20T08:45:43Z</time>
      </trkpt>
      <trkpt lat="45.92536" lon="4.74547">
        <ele>171</ele>
        <time>2018-09-20T08:45:44Z</time>
      </trkpt>
      <trkpt lat="45.92532" lon="4.74553">
        <ele>171</ele>
        <time>2018-09-20T08:45:45Z</time>
      </trkpt>
      <trkpt lat="45.92528" lon="4.74558">
        <ele>171</ele>
        <time>2018-09-20T08:45:46Z</time>
      </trkpt>
      <trkpt lat="45.92524" lon="4.74563">
        <ele>171</ele>
        <time>2018-09-20T08:45:47Z</time>
      </trkpt>
      <trkpt lat="45.9252" lon="4.74569">
        <ele>171</ele>
        <time>2018-09-20T08:45:48Z</time>
      </trkpt>
      <trkpt lat="45.92516" lon="4.74574">
        <ele>171</ele>
        <time>2018-09-20T08:45:49Z</time>
      </trkpt>
      <trkpt lat="45.92512" lon="4.74578">
        <ele>171</ele>
        <time>2018-09-20T08:45:50Z</time>
      </trkpt>
      <trkpt lat="45.92508" lon="4.74583">
        <ele>171</ele>
        <time>2018-09-20T08:45:51Z</time>
      </trkpt>
      <trkpt lat="45.92505" lon="4.74587">
        <ele>171</ele>
        <time>2018-09-20T08:45:52Z</time>
      </trkpt>
      <trkpt lat="45.925" lon="4.74591">
        <ele>171</ele>
        <time>2018-09-20T08:45:53Z</time>
      </trkpt>
      <trkpt lat="45.92496" lon="4.74596">
        <ele>171</ele>
        <time>2018-09-20T08:45:54Z</time>
      </trkpt>
      <trkpt lat="45.92492" lon="4.74601">
        <ele>171</ele>
        <time>2018-09-20T08:45:55Z</time>
      </trkpt>
      <trkpt lat="45.92488" lon="4.74606">
        <ele>171</ele>
        <time>2018-09-20T08:45:56Z</time>
      </trkpt>
      <trkpt lat="45.92484" lon="4.74611">
        <ele>171</ele>
        <time>2018-09-20T08:45:57Z</time>
      </trkpt>
      <trkpt lat="45.9248" lon="4.74616">
        <ele>171</ele>
        <time>2018-09-20T08:45:58Z</time>
      </trkpt>
      <trkpt lat="45.92476" lon="4.74622">
        <ele>171</ele>
        <time>2018-09-20T08:45:59Z</time>
      </trkpt>
      <trkpt lat="45.92472" lon="4.74627">
        <ele>171</ele>
        <time>2018-09-20T08:46:00Z</time>
      </trkpt>
      <trkpt lat="45.92468" lon="4.74633">
        <ele>171</ele>
        <time>2018-09-20T08:46:01Z</time>
      </trkpt>
      <trkpt lat="45.92464" lon="4.74639">
        <ele>171</ele>
        <time>2018-09-20T08:46:02Z</time>
      </trkpt>
      <trkpt lat="45.92461" lon="4.74645">
        <ele>171</ele>
        <time>2018-09-20T08:46:03Z</time>
      </trkpt>
      <trkpt lat="45.92458" lon="4.74651">
        <ele>171</ele>
        <time>2018-09-20T08:46:04Z</time>
      </trkpt>
      <trkpt lat="45.92455" lon="4.74657">
        <ele>171</ele>
        <time>2018-09-20T08:46:05Z</time>
      </trkpt>
      <trkpt lat="45.92452" lon="4.74662">
        <ele>171</ele>
        <time>2018-09-20T08:46:06Z</time>
      </trkpt>
      <trkpt lat="45.92448" lon="4.74671">
        <ele>171</ele>
        <time>2018-09-20T08:46:07Z</time>
      </trkpt>
      <trkpt lat="45.92445" lon="4.74677">
        <ele>171</ele>
        <time>2018-09-20T08:46:08Z</time>
      </trkpt>
      <trkpt lat="45.92442" lon="4.74684">
        <ele>171</ele>
        <time>2018-09-20T08:46:09Z</time>
      </trkpt>
      <trkpt lat="45.92438" lon="4.7469">
        <ele>171</ele>
        <time>2018-09-20T08:46:10Z</time>
      </trkpt>
      <trkpt lat="45.92435" lon="4.74697">
        <ele>171</ele>
        <time>2018-09-20T08:46:11Z</time>
      </trkpt>
      <trkpt lat="45.92432" lon="4.74706">
        <ele>171</ele>
        <time>2018-09-20T08:46:12Z</time>
      </trkpt>
      <trkpt lat="45.9243" lon="4.74713">
        <ele>171</ele>
        <time>2018-09-20T08:46:13Z</time>
      </trkpt>
      <trkpt lat="45.92428" lon="4.74721">
        <ele>171</ele>
        <time>2018-09-20T08:46:14Z</time>
      </trkpt>
      <trkpt lat="45.92425" lon="4.74729">
        <ele>171</ele>
        <time>2018-09-20T08:46:15Z</time>
      </trkpt>
      <trkpt lat="45.92422" lon="4.74737">
        <ele>171</ele>
        <time>2018-09-20T08:46:16Z</time>
      </trkpt>
      <trkpt lat="45.92419" lon="4.74746">
        <ele>172</ele>
        <time>2018-09-20T08:46:17Z</time>
      </trkpt>
      <trkpt lat="45.92418" lon="4.74754">
        <ele>172</ele>
        <time>2018-09-20T08:46:18Z</time>
      </trkpt>
      <trkpt lat="45.92416" lon="4.74763">
        <ele>172</ele>
        <time>2018-09-20T08:46:19Z</time>
      </trkpt>
      <trkpt lat="45.92414" lon="4.7477">
        <ele>172</ele>
        <time>2018-09-20T08:46:20Z</time>
      </trkpt>
      <trkpt lat="45.92412" lon="4.74778">
        <ele>171</ele>
        <time>2018-09-20T08:46:21Z</time>
      </trkpt>
      <trkpt lat="45.9241" lon="4.74786">
        <ele>171</ele>
        <time>2018-09-20T08:46:22Z</time>
      </trkpt>
      <trkpt lat="45.92408" lon="4.74794">
        <ele>171</ele>
        <time>2018-09-20T08:46:23Z</time>
      </trkpt>
      <trkpt lat="45.92406" lon="4.74802">
        <ele>171</ele>
        <time>2018-09-20T08:46:24Z</time>
      </trkpt>
      <trkpt lat="45.92405" lon="4.74811">
        <ele>171</ele>
        <time>2018-09-20T08:46:25Z</time>
      </trkpt>
      <trkpt lat="45.92403" lon="4.7482">
        <ele>171</ele>
        <time>2018-09-20T08:46:26Z</time>
      </trkpt>
      <trkpt lat="45.92401" lon="4.74829">
        <ele>171</ele>
        <time>2018-09-20T08:46:27Z</time>
      </trkpt>
      <trkpt lat="45.92399" lon="4.74837">
        <ele>171</ele>
        <time>2018-09-20T08:46:28Z</time>
      </trkpt>
      <trkpt lat="45.92396" lon="4.74846">
        <ele>171</ele>
        <time>2018-09-20T08:46:29Z</time>
      </trkpt>
      <trkpt lat="45.92394" lon="4.74855">
        <ele>171</ele>
        <time>2018-09-20T08:46:30Z</time>
      </trkpt>
      <trkpt lat="45.92391" lon="4.74863">
        <ele>171</ele>
        <time>2018-09-20T08:46:31Z</time>
      </trkpt>
      <trkpt lat="45.92389" lon="4.74871">
        <ele>171</ele>
        <time>2018-09-20T08:46:32Z</time>
      </trkpt>
      <trkpt lat="45.92385" lon="4.74879">
        <ele>171</ele>
        <time>2018-09-20T08:46:33Z</time>
      </trkpt>
      <trkpt lat="45.92382" lon="4.74887">
        <ele>171</ele>
        <time>2018-09-20T08:46:34Z</time>
      </trkpt>
      <trkpt lat="45.92378" lon="4.74893">
        <ele>171</ele>
        <time>2018-09-20T08:46:35Z</time>
      </trkpt>
      <trkpt lat="45.92376" lon="4.749">
        <ele>171</ele>
        <time>2018-09-20T08:46:36Z</time>
      </trkpt>
      <trkpt lat="45.92372" lon="4.74907">
        <ele>171</ele>
        <time>2018-09-20T08:46:37Z</time>
      </trkpt>
      <trkpt lat="45.92369" lon="4.74916">
        <ele>171</ele>
        <time>2018-09-20T08:46:38Z</time>
      </trkpt>
      <trkpt lat="45.92366" lon="4.74924">
        <ele>170</ele>
        <time>2018-09-20T08:46:39Z</time>
      </trkpt>
      <trkpt lat="45.92361" lon="4.74932">
        <ele>170</ele>
        <time>2018-09-20T08:46:40Z</time>
      </trkpt>
      <trkpt lat="45.92358" lon="4.74941">
        <ele>170</ele>
        <time>2018-09-20T08:46:41Z</time>
      </trkpt>
      <trkpt lat="45.92355" lon="4.7495">
        <ele>170</ele>
        <time>2018-09-20T08:46:42Z</time>
      </trkpt>
      <trkpt lat="45.92352" lon="4.74958">
        <ele>170</ele>
        <time>2018-09-20T08:46:43Z</time>
      </trkpt>
      <trkpt lat="45.92349" lon="4.74966">
        <ele>170</ele>
        <time>2018-09-20T08:46:44Z</time>
      </trkpt>
      <trkpt lat="45.92346" lon="4.74973">
        <ele>170</ele>
        <time>2018-09-20T08:46:45Z</time>
      </trkpt>
      <trkpt lat="45.92343" lon="4.74981">
        <ele>170</ele>
        <time>2018-09-20T08:46:46Z</time>
      </trkpt>
      <trkpt lat="45.92341" lon="4.74987">
        <ele>170</ele>
        <time>2018-09-20T08:46:47Z</time>
      </trkpt>
      <trkpt lat="45.92338" lon="4.74995">
        <ele>170</ele>
        <time>2018-09-20T08:46:48Z</time>
      </trkpt>
      <trkpt lat="45.92335" lon="4.75003">
        <ele>170</ele>
        <time>2018-09-20T08:46:49Z</time>
      </trkpt>
      <trkpt lat="45.92333" lon="4.75011">
        <ele>171</ele>
        <time>2018-09-20T08:46:50Z</time>
      </trkpt>
      <trkpt lat="45.92329" lon="4.75017">
        <ele>171</ele>
        <time>2018-09-20T08:46:51Z</time>
      </trkpt>
      <trkpt lat="45.92326" lon="4.75024">
        <ele>171</ele>
        <time>2018-09-20T08:46:52Z</time>
      </trkpt>
      <trkpt lat="45.92322" lon="4.75032">
        <ele>171</ele>
        <time>2018-09-20T08:46:53Z</time>
      </trkpt>
      <trkpt lat="45.92318" lon="4.75039">
        <ele>171</ele>
        <time>2018-09-20T08:46:54Z</time>
      </trkpt>
      <trkpt lat="45.92315" lon="4.75047">
        <ele>172</ele>
        <time>2018-09-20T08:46:55Z</time>
      </trkpt>
      <trkpt lat="45.92311" lon="4.75053">
        <ele>172</ele>
        <time>2018-09-20T08:46:56Z</time>
      </trkpt>
      <trkpt lat="45.92307" lon="4.75059">
        <ele>172</ele>
        <time>2018-09-20T08:46:57Z</time>
      </trkpt>
      <trkpt lat="45.92303" lon="4.75064">
        <ele>172</ele>
        <time>2018-09-20T08:46:58Z</time>
      </trkpt>
      <trkpt lat="45.92298" lon="4.75071">
        <ele>172</ele>
        <time>2018-09-20T08:46:59Z</time>
      </trkpt>
      <trkpt lat="45.92293" lon="4.75077">
        <ele>172</ele>
        <time>2018-09-20T08:47:00Z</time>
      </trkpt>
      <trkpt lat="45.92288" lon="4.75084">
        <ele>173</ele>
        <time>2018-09-20T08:47:01Z</time>
      </trkpt>
      <trkpt lat="45.92284" lon="4.75089">
        <ele>173</ele>
        <time>2018-09-20T08:47:02Z</time>
      </trkpt>
      <trkpt lat="45.92279" lon="4.75095">
        <ele>173</ele>
        <time>2018-09-20T08:47:03Z</time>
      </trkpt>
      <trkpt lat="45.92274" lon="4.75101">
        <ele>173</ele>
        <time>2018-09-20T08:47:04Z</time>
      </trkpt>
      <trkpt lat="45.92269" lon="4.75106">
        <ele>174</ele>
        <time>2018-09-20T08:47:05Z</time>
      </trkpt>
      <trkpt lat="45.92264" lon="4.75111">
        <ele>174</ele>
        <time>2018-09-20T08:47:06Z</time>
      </trkpt>
      <trkpt lat="45.92259" lon="4.75115">
        <ele>174</ele>
        <time>2018-09-20T08:47:07Z</time>
      </trkpt>
      <trkpt lat="45.92255" lon="4.7512">
        <ele>174</ele>
        <time>2018-09-20T08:47:08Z</time>
      </trkpt>
      <trkpt lat="45.92251" lon="4.75125">
        <ele>174</ele>
        <time>2018-09-20T08:47:09Z</time>
      </trkpt>
      <trkpt lat="45.92247" lon="4.7513">
        <ele>174</ele>
        <time>2018-09-20T08:47:10Z</time>
      </trkpt>
      <trkpt lat="45.92243" lon="4.75135">
        <ele>174</ele>
        <time>2018-09-20T08:47:11Z</time>
      </trkpt>
      <trkpt lat="45.92239" lon="4.7514">
        <ele>174</ele>
        <time>2018-09-20T08:47:12Z</time>
      </trkpt>
      <trkpt lat="45.92235" lon="4.75146">
        <ele>174</ele>
        <time>2018-09-20T08:47:13Z</time>
      </trkpt>
      <trkpt lat="45.92232" lon="4.75151">
        <ele>174</ele>
        <time>2018-09-20T08:47:14Z</time>
      </trkpt>
      <trkpt lat="45.92229" lon="4.75157">
        <ele>174</ele>
        <time>2018-09-20T08:47:15Z</time>
      </trkpt>
      <trkpt lat="45.92226" lon="4.75162">
        <ele>174</ele>
        <time>2018-09-20T08:47:16Z</time>
      </trkpt>
      <trkpt lat="45.92224" lon="4.7517">
        <ele>175</ele>
        <time>2018-09-20T08:47:17Z</time>
      </trkpt>
      <trkpt lat="45.92221" lon="4.75176">
        <ele>175</ele>
        <time>2018-09-20T08:47:18Z</time>
      </trkpt>
      <trkpt lat="45.92219" lon="4.75182">
        <ele>175</ele>
        <time>2018-09-20T08:47:19Z</time>
      </trkpt>
      <trkpt lat="45.92217" lon="4.75189">
        <ele>175</ele>
        <time>2018-09-20T08:47:20Z</time>
      </trkpt>
      <trkpt lat="45.92215" lon="4.75195">
        <ele>175</ele>
        <time>2018-09-20T08:47:21Z</time>
      </trkpt>
      <trkpt lat="45.92213" lon="4.75201">
        <ele>175</ele>
        <time>2018-09-20T08:47:22Z</time>
      </trkpt>
      <trkpt lat="45.92212" lon="4.75209">
        <ele>175</ele>
        <time>2018-09-20T08:47:23Z</time>
      </trkpt>
      <trkpt lat="45.92212" lon="4.75215">
        <ele>175</ele>
        <time>2018-09-20T08:47:24Z</time>
      </trkpt>
      <trkpt lat="45.92212" lon="4.75222">
        <ele>175</ele>
        <time>2018-09-20T08:47:25Z</time>
      </trkpt>
      <trkpt lat="45.92212" lon="4.7523">
        <ele>175</ele>
        <time>2018-09-20T08:47:26Z</time>
      </trkpt>
      <trkpt lat="45.92211" lon="4.75237">
        <ele>175</ele>
        <time>2018-09-20T08:47:27Z</time>
      </trkpt>
      <trkpt lat="45.92211" lon="4.75244">
        <ele>175</ele>
        <time>2018-09-20T08:47:28Z</time>
      </trkpt>
      <trkpt lat="45.92211" lon="4.75252">
        <ele>175</ele>
        <time>2018-09-20T08:47:29Z</time>
      </trkpt>
      <trkpt lat="45.92211" lon="4.75259">
        <ele>175</ele>
        <time>2018-09-20T08:47:30Z</time>
      </trkpt>
      <trkpt lat="45.92211" lon="4.75266">
        <ele>176</ele>
        <time>2018-09-20T08:47:31Z</time>
      </trkpt>
      <trkpt lat="45.92211" lon="4.75273">
        <ele>176</ele>
        <time>2018-09-20T08:47:32Z</time>
      </trkpt>
      <trkpt lat="45.92211" lon="4.7528">
        <ele>176</ele>
        <time>2018-09-20T08:47:33Z</time>
      </trkpt>
      <trkpt lat="45.92211" lon="4.75287">
        <ele>176</ele>
        <time>2018-09-20T08:47:34Z</time>
      </trkpt>
      <trkpt lat="45.92211" lon="4.75295">
        <ele>176</ele>
        <time>2018-09-20T08:47:35Z</time>
      </trkpt>
      <trkpt lat="45.92209" lon="4.75307">
        <ele>176</ele>
        <time>2018-09-20T08:47:37Z</time>
      </trkpt>
      <trkpt lat="45.92209" lon="4.75314">
        <ele>176</ele>
        <time>2018-09-20T08:47:38Z</time>
      </trkpt>
      <trkpt lat="45.92208" lon="4.75325">
        <ele>176</ele>
        <time>2018-09-20T08:47:40Z</time>
      </trkpt>
      <trkpt lat="45.92207" lon="4.75331">
        <ele>176</ele>
        <time>2018-09-20T08:47:41Z</time>
      </trkpt>
      <trkpt lat="45.92206" lon="4.7534">
        <ele>177</ele>
        <time>2018-09-20T08:47:43Z</time>
      </trkpt>
      <trkpt lat="45.92204" lon="4.75346">
        <ele>177</ele>
        <time>2018-09-20T08:47:44Z</time>
      </trkpt>
      <trkpt lat="45.92202" lon="4.75357">
        <ele>177</ele>
        <time>2018-09-20T08:47:46Z</time>
      </trkpt>
      <trkpt lat="45.922" lon="4.75362">
        <ele>177</ele>
        <time>2018-09-20T08:47:47Z</time>
      </trkpt>
      <trkpt lat="45.92197" lon="4.75368">
        <ele>177</ele>
        <time>2018-09-20T08:47:48Z</time>
      </trkpt>
      <trkpt lat="45.92194" lon="4.75374">
        <ele>177</ele>
        <time>2018-09-20T08:47:49Z</time>
      </trkpt>
      <trkpt lat="45.92191" lon="4.75381">
        <ele>177</ele>
        <time>2018-09-20T08:47:50Z</time>
      </trkpt>
      <trkpt lat="45.92188" lon="4.75388">
        <ele>177</ele>
        <time>2018-09-20T08:47:51Z</time>
      </trkpt>
      <trkpt lat="45.92186" lon="4.75391">
        <ele>177</ele>
        <time>2018-09-20T08:47:52Z</time>
      </trkpt>
      <trkpt lat="45.92182" lon="4.754">
        <ele>177</ele>
        <time>2018-09-20T08:47:53Z</time>
      </trkpt>
      <trkpt lat="45.9218" lon="4.75406">
        <ele>177</ele>
        <time>2018-09-20T08:47:54Z</time>
      </trkpt>
      <trkpt lat="45.92178" lon="4.75414">
        <ele>178</ele>
        <time>2018-09-20T08:47:55Z</time>
      </trkpt>
      <trkpt lat="45.92175" lon="4.75421">
        <ele>177</ele>
        <time>2018-09-20T08:47:56Z</time>
      </trkpt>
      <trkpt lat="45.92172" lon="4.75428">
        <ele>177</ele>
        <time>2018-09-20T08:47:57Z</time>
      </trkpt>
      <trkpt lat="45.92168" lon="4.75434">
        <ele>177</ele>
        <time>2018-09-20T08:47:58Z</time>
      </trkpt>
      <trkpt lat="45.92164" lon="4.75441">
        <ele>177</ele>
        <time>2018-09-20T08:47:59Z</time>
      </trkpt>
      <trkpt lat="45.92161" lon="4.75448">
        <ele>176</ele>
        <time>2018-09-20T08:48:00Z</time>
      </trkpt>
      <trkpt lat="45.9216" lon="4.75458">
        <ele>176</ele>
        <time>2018-09-20T08:48:01Z</time>
      </trkpt>
      <trkpt lat="45.92158" lon="4.75466">
        <ele>176</ele>
        <time>2018-09-20T08:48:02Z</time>
      </trkpt>
      <trkpt lat="45.92156" lon="4.75473">
        <ele>176</ele>
        <time>2018-09-20T08:48:03Z</time>
      </trkpt>
      <trkpt lat="45.92152" lon="4.75481">
        <ele>176</ele>
        <time>2018-09-20T08:48:04Z</time>
      </trkpt>
      <trkpt lat="45.92149" lon="4.75487">
        <ele>176</ele>
        <time>2018-09-20T08:48:05Z</time>
      </trkpt>
      <trkpt lat="45.92145" lon="4.75495">
        <ele>175</ele>
        <time>2018-09-20T08:48:06Z</time>
      </trkpt>
      <trkpt lat="45.92142" lon="4.75503">
        <ele>175</ele>
        <time>2018-09-20T08:48:07Z</time>
      </trkpt>
      <trkpt lat="45.92138" lon="4.75511">
        <ele>174</ele>
        <time>2018-09-20T08:48:08Z</time>
      </trkpt>
      <trkpt lat="45.92135" lon="4.7552">
        <ele>174</ele>
        <time>2018-09-20T08:48:09Z</time>
      </trkpt>
      <trkpt lat="45.92132" lon="4.75527">
        <ele>174</ele>
        <time>2018-09-20T08:48:10Z</time>
      </trkpt>
      <trkpt lat="45.92128" lon="4.75534">
        <ele>174</ele>
        <time>2018-09-20T08:48:11Z</time>
      </trkpt>
      <trkpt lat="45.92125" lon="4.75541">
        <ele>174</ele>
        <time>2018-09-20T08:48:12Z</time>
      </trkpt>
      <trkpt lat="45.92121" lon="4.75549">
        <ele>174</ele>
        <time>2018-09-20T08:48:13Z</time>
      </trkpt>
      <trkpt lat="45.92117" lon="4.75556">
        <ele>174</ele>
        <time>2018-09-20T08:48:14Z</time>
      </trkpt>
      <trkpt lat="45.92115" lon="4.75564">
        <ele>174</ele>
        <time>2018-09-20T08:48:15Z</time>
      </trkpt>
      <trkpt lat="45.92113" lon="4.75571">
        <ele>174</ele>
        <time>2018-09-20T08:48:16Z</time>
      </trkpt>
      <trkpt lat="45.92112" lon="4.75578">
        <ele>174</ele>
        <time>2018-09-20T08:48:17Z</time>
      </trkpt>
      <trkpt lat="45.92113" lon="4.75587">
        <ele>174</ele>
        <time>2018-09-20T08:48:18Z</time>
      </trkpt>
      <trkpt lat="45.92115" lon="4.75593">
        <ele>174</ele>
        <time>2018-09-20T08:48:19Z</time>
      </trkpt>
      <trkpt lat="45.92118" lon="4.75599">
        <ele>174</ele>
        <time>2018-09-20T08:48:20Z</time>
      </trkpt>
      <trkpt lat="45.92124" lon="4.75602">
        <ele>174</ele>
        <time>2018-09-20T08:48:21Z</time>
      </trkpt>
      <trkpt lat="45.92128" lon="4.75607">
        <ele>174</ele>
        <time>2018-09-20T08:48:22Z</time>
      </trkpt>
      <trkpt lat="45.92132" lon="4.75612">
        <ele>174</ele>
        <time>2018-09-20T08:48:23Z</time>
      </trkpt>
      <trkpt lat="45.92137" lon="4.75615">
        <ele>174</ele>
        <time>2018-09-20T08:48:24Z</time>
      </trkpt>
      <trkpt lat="45.92141" lon="4.7562">
        <ele>174</ele>
        <time>2018-09-20T08:48:25Z</time>
      </trkpt>
      <trkpt lat="45.92144" lon="4.75625">
        <ele>174</ele>
        <time>2018-09-20T08:48:26Z</time>
      </trkpt>
      <trkpt lat="45.9215" lon="4.75628">
        <ele>174</ele>
        <time>2018-09-20T08:48:27Z</time>
      </trkpt>
      <trkpt lat="45.92153" lon="4.75633">
        <ele>174</ele>
        <time>2018-09-20T08:48:28Z</time>
      </trkpt>
      <trkpt lat="45.92158" lon="4.75638">
        <ele>174</ele>
        <time>2018-09-20T08:48:29Z</time>
      </trkpt>
      <trkpt lat="45.92163" lon="4.7564">
        <ele>174</ele>
        <time>2018-09-20T08:48:30Z</time>
      </trkpt>
      <trkpt lat="45.92168" lon="4.75644">
        <ele>174</ele>
        <time>2018-09-20T08:48:31Z</time>
      </trkpt>
      <trkpt lat="45.92173" lon="4.75649">
        <ele>174</ele>
        <time>2018-09-20T08:48:32Z</time>
      </trkpt>
      <trkpt lat="45.92179" lon="4.75654">
        <ele>174</ele>
        <time>2018-09-20T08:48:33Z</time>
      </trkpt>
      <trkpt lat="45.92183" lon="4.7566">
        <ele>174</ele>
        <time>2018-09-20T08:48:34Z</time>
      </trkpt>
      <trkpt lat="45.92188" lon="4.75666">
        <ele>174</ele>
        <time>2018-09-20T08:48:35Z</time>
      </trkpt>
      <trkpt lat="45.92193" lon="4.75671">
        <ele>174</ele>
        <time>2018-09-20T08:48:36Z</time>
      </trkpt>
      <trkpt lat="45.92197" lon="4.75677">
        <ele>174</ele>
        <time>2018-09-20T08:48:37Z</time>
      </trkpt>
      <trkpt lat="45.92205" lon="4.75681">
        <ele>174</ele>
        <time>2018-09-20T08:48:39Z</time>
      </trkpt>
      <trkpt lat="45.92208" lon="4.75684">
        <ele>174</ele>
        <time>2018-09-20T08:48:40Z</time>
      </trkpt>
      <trkpt lat="45.92216" lon="4.75687">
        <ele>174</ele>
        <time>2018-09-20T08:48:42Z</time>
      </trkpt>
      <trkpt lat="45.9222" lon="4.75692">
        <ele>174</ele>
        <time>2018-09-20T08:48:43Z</time>
      </trkpt>
      <trkpt lat="45.92224" lon="4.75695">
        <ele>174</ele>
        <time>2018-09-20T08:48:44Z</time>
      </trkpt>
      <trkpt lat="45.92228" lon="4.757">
        <ele>174</ele>
        <time>2018-09-20T08:48:45Z</time>
      </trkpt>
      <trkpt lat="45.92234" lon="4.75709">
        <ele>174</ele>
        <time>2018-09-20T08:48:47Z</time>
      </trkpt>
      <trkpt lat="45.92237" lon="4.75713">
        <ele>174</ele>
        <time>2018-09-20T08:48:48Z</time>
      </trkpt>
      <trkpt lat="45.9224" lon="4.75718">
        <ele>174</ele>
        <time>2018-09-20T08:48:49Z</time>
      </trkpt>
      <trkpt lat="45.92243" lon="4.75722">
        <ele>174</ele>
        <time>2018-09-20T08:48:50Z</time>
      </trkpt>
      <trkpt lat="45.92245" lon="4.75734">
        <ele>174</ele>
        <time>2018-09-20T08:48:52Z</time>
      </trkpt>
      <trkpt lat="45.92246" lon="4.75739">
        <ele>174</ele>
        <time>2018-09-20T08:48:53Z</time>
      </trkpt>
      <trkpt lat="45.92248" lon="4.75746">
        <ele>174</ele>
        <time>2018-09-20T08:48:54Z</time>
      </trkpt>
      <trkpt lat="45.92248" lon="4.75753">
        <ele>174</ele>
        <time>2018-09-20T08:48:55Z</time>
      </trkpt>
      <trkpt lat="45.9225" lon="4.75765">
        <ele>174</ele>
        <time>2018-09-20T08:48:57Z</time>
      </trkpt>
      <trkpt lat="45.9225" lon="4.75772">
        <ele>174</ele>
        <time>2018-09-20T08:48:58Z</time>
      </trkpt>
      <trkpt lat="45.92251" lon="4.75779">
        <ele>174</ele>
        <time>2018-09-20T08:48:59Z</time>
      </trkpt>
      <trkpt lat="45.92253" lon="4.75785">
        <ele>174</ele>
        <time>2018-09-20T08:49:00Z</time>
      </trkpt>
      <trkpt lat="45.92255" lon="4.75791">
        <ele>174</ele>
        <time>2018-09-20T08:49:01Z</time>
      </trkpt>
      <trkpt lat="45.92256" lon="4.75798">
        <ele>174</ele>
        <time>2018-09-20T08:49:02Z</time>
      </trkpt>
      <trkpt lat="45.92258" lon="4.75803">
        <ele>174</ele>
        <time>2018-09-20T08:49:03Z</time>
      </trkpt>
      <trkpt lat="45.9226" lon="4.7581">
        <ele>174</ele>
        <time>2018-09-20T08:49:04Z</time>
      </trkpt>
      <trkpt lat="45.92263" lon="4.75815">
        <ele>174</ele>
        <time>2018-09-20T08:49:05Z</time>
      </trkpt>
      <trkpt lat="45.92267" lon="4.75821">
        <ele>174</ele>
        <time>2018-09-20T08:49:06Z</time>
      </trkpt>
      <trkpt lat="45.9227" lon="4.75826">
        <ele>174</ele>
        <time>2018-09-20T08:49:07Z</time>
      </trkpt>
      <trkpt lat="45.92273" lon="4.75831">
        <ele>174</ele>
        <time>2018-09-20T08:49:08Z</time>
      </trkpt>
      <trkpt lat="45.92277" lon="4.75834">
        <ele>173</ele>
        <time>2018-09-20T08:49:09Z</time>
      </trkpt>
      <trkpt lat="45.92281" lon="4.75836">
        <ele>173</ele>
        <time>2018-09-20T08:49:10Z</time>
      </trkpt>
      <trkpt lat="45.92286" lon="4.75839">
        <ele>173</ele>
        <time>2018-09-20T08:49:11Z</time>
      </trkpt>
      <trkpt lat="45.92292" lon="4.75843">
        <ele>173</ele>
        <time>2018-09-20T08:49:12Z</time>
      </trkpt>
      <trkpt lat="45.92297" lon="4.75846">
        <ele>173</ele>
        <time>2018-09-20T08:49:13Z</time>
      </trkpt>
      <trkpt lat="45.92301" lon="4.75848">
        <ele>173</ele>
        <time>2018-09-20T08:49:14Z</time>
      </trkpt>
      <trkpt lat="45.92306" lon="4.7585">
        <ele>173</ele>
        <time>2018-09-20T08:49:15Z</time>
      </trkpt>
      <trkpt lat="45.92312" lon="4.75853">
        <ele>173</ele>
        <time>2018-09-20T08:49:16Z</time>
      </trkpt>
      <trkpt lat="45.92316" lon="4.75857">
        <ele>173</ele>
        <time>2018-09-20T08:49:17Z</time>
      </trkpt>
      <trkpt lat="45.92322" lon="4.7586">
        <ele>173</ele>
        <time>2018-09-20T08:49:18Z</time>
      </trkpt>
      <trkpt lat="45.92328" lon="4.75864">
        <ele>173</ele>
        <time>2018-09-20T08:49:19Z</time>
      </trkpt>
      <trkpt lat="45.92333" lon="4.75867">
        <ele>173</ele>
        <time>2018-09-20T08:49:20Z</time>
      </trkpt>
      <trkpt lat="45.92339" lon="4.75872">
        <ele>173</ele>
        <time>2018-09-20T08:49:21Z</time>
      </trkpt>
      <trkpt lat="45.92345" lon="4.75874">
        <ele>173</ele>
        <time>2018-09-20T08:49:22Z</time>
      </trkpt>
      <trkpt lat="45.92351" lon="4.75877">
        <ele>173</ele>
        <time>2018-09-20T08:49:23Z</time>
      </trkpt>
      <trkpt lat="45.92356" lon="4.75881">
        <ele>173</ele>
        <time>2018-09-20T08:49:24Z</time>
      </trkpt>
      <trkpt lat="45.92363" lon="4.75885">
        <ele>173</ele>
        <time>2018-09-20T08:49:25Z</time>
      </trkpt>
      <trkpt lat="45.92368" lon="4.75888">
        <ele>173</ele>
        <time>2018-09-20T08:49:26Z</time>
      </trkpt>
      <trkpt lat="45.92372" lon="4.75893">
        <ele>173</ele>
        <time>2018-09-20T08:49:27Z</time>
      </trkpt>
      <trkpt lat="45.92377" lon="4.75896">
        <ele>173</ele>
        <time>2018-09-20T08:49:28Z</time>
      </trkpt>
      <trkpt lat="45.92381" lon="4.75899">
        <ele>173</ele>
        <time>2018-09-20T08:49:29Z</time>
      </trkpt>
      <trkpt lat="45.92385" lon="4.75902">
        <ele>173</ele>
        <time>2018-09-20T08:49:30Z</time>
      </trkpt>
      <trkpt lat="45.9239" lon="4.75904">
        <ele>173</ele>
        <time>2018-09-20T08:49:31Z</time>
      </trkpt>
      <trkpt lat="45.92395" lon="4.75906">
        <ele>173</ele>
        <time>2018-09-20T08:49:32Z</time>
      </trkpt>
      <trkpt lat="45.92399" lon="4.75909">
        <ele>173</ele>
        <time>2018-09-20T08:49:33Z</time>
      </trkpt>
      <trkpt lat="45.92404" lon="4.75911">
        <ele>172</ele>
        <time>2018-09-20T08:49:34Z</time>
      </trkpt>
      <trkpt lat="45.92408" lon="4.75915">
        <ele>172</ele>
        <time>2018-09-20T08:49:35Z</time>
      </trkpt>
      <trkpt lat="45.92412" lon="4.7592">
        <ele>172</ele>
        <time>2018-09-20T08:49:36Z</time>
      </trkpt>
      <trkpt lat="45.92417" lon="4.75923">
        <ele>172</ele>
        <time>2018-09-20T08:49:37Z</time>
      </trkpt>
      <trkpt lat="45.92422" lon="4.75927">
        <ele>172</ele>
        <time>2018-09-20T08:49:38Z</time>
      </trkpt>
      <trkpt lat="45.92426" lon="4.7593">
        <ele>172</ele>
        <time>2018-09-20T08:49:39Z</time>
      </trkpt>
      <trkpt lat="45.9243" lon="4.75934">
        <ele>172</ele>
        <time>2018-09-20T08:49:40Z</time>
      </trkpt>
      <trkpt lat="45.92435" lon="4.75936">
        <ele>172</ele>
        <time>2018-09-20T08:49:41Z</time>
      </trkpt>
      <trkpt lat="45.92439" lon="4.7594">
        <ele>172</ele>
        <time>2018-09-20T08:49:42Z</time>
      </trkpt>
      <trkpt lat="45.92446" lon="4.75947">
        <ele>172</ele>
        <time>2018-09-20T08:49:44Z</time>
      </trkpt>
      <trkpt lat="45.9245" lon="4.7595">
        <ele>172</ele>
        <time>2018-09-20T08:49:45Z</time>
      </trkpt>
      <trkpt lat="45.92455" lon="4.75954">
        <ele>172</ele>
        <time>2018-09-20T08:49:46Z</time>
      </trkpt>
      <trkpt lat="45.92459" lon="4.75957">
        <ele>172</ele>
        <time>2018-09-20T08:49:47Z</time>
      </trkpt>
      <trkpt lat="45.92466" lon="4.75964">
        <ele>172</ele>
        <time>2018-09-20T08:49:49Z</time>
      </trkpt>
      <trkpt lat="45.9247" lon="4.75966">
        <ele>172</ele>
        <time>2018-09-20T08:49:50Z</time>
      </trkpt>
      <trkpt lat="45.92477" lon="4.75972">
        <ele>172</ele>
        <time>2018-09-20T08:49:52Z</time>
      </trkpt>
      <trkpt lat="45.92481" lon="4.75975">
        <ele>172</ele>
        <time>2018-09-20T08:49:53Z</time>
      </trkpt>
      <trkpt lat="45.92485" lon="4.75978">
        <ele>172</ele>
        <time>2018-09-20T08:49:54Z</time>
      </trkpt>
      <trkpt lat="45.92489" lon="4.75981">
        <ele>172</ele>
        <time>2018-09-20T08:49:55Z</time>
      </trkpt>
      <trkpt lat="45.92493" lon="4.75984">
        <ele>172</ele>
        <time>2018-09-20T08:49:56Z</time>
      </trkpt>
      <trkpt lat="45.92499" lon="4.75987">
        <ele>172</ele>
        <time>2018-09-20T08:49:57Z</time>
      </trkpt>
      <trkpt lat="45.92503" lon="4.75991">
        <ele>172</ele>
        <time>2018-09-20T08:49:58Z</time>
      </trkpt>
      <trkpt lat="45.92507" lon="4.75993">
        <ele>172</ele>
        <time>2018-09-20T08:49:59Z</time>
      </trkpt>
      <trkpt lat="45.92512" lon="4.75996">
        <ele>172</ele>
        <time>2018-09-20T08:50:00Z</time>
      </trkpt>
      <trkpt lat="45.92516" lon="4.75999">
        <ele>172</ele>
        <time>2018-09-20T08:50:01Z</time>
      </trkpt>
      <trkpt lat="45.9252" lon="4.76002">
        <ele>172</ele>
        <time>2018-09-20T08:50:02Z</time>
      </trkpt>
      <trkpt lat="45.92524" lon="4.76005">
        <ele>172</ele>
        <time>2018-09-20T08:50:03Z</time>
      </trkpt>
      <trkpt lat="45.92533" lon="4.76008">
        <ele>172</ele>
        <time>2018-09-20T08:50:05Z</time>
      </trkpt>
      <trkpt lat="45.92537" lon="4.7601">
        <ele>172</ele>
        <time>2018-09-20T08:50:06Z</time>
      </trkpt>
      <trkpt lat="45.92544" lon="4.76016">
        <ele>172</ele>
        <time>2018-09-20T08:50:08Z</time>
      </trkpt>
      <trkpt lat="45.92548" lon="4.76019">
        <ele>172</ele>
        <time>2018-09-20T08:50:09Z</time>
      </trkpt>
      <trkpt lat="45.92553" lon="4.76022">
        <ele>172</ele>
        <time>2018-09-20T08:50:10Z</time>
      </trkpt>
      <trkpt lat="45.92558" lon="4.76025">
        <ele>172</ele>
        <time>2018-09-20T08:50:11Z</time>
      </trkpt>
      <trkpt lat="45.92562" lon="4.76028">
        <ele>172</ele>
        <time>2018-09-20T08:50:12Z</time>
      </trkpt>
      <trkpt lat="45.92566" lon="4.76032">
        <ele>172</ele>
        <time>2018-09-20T08:50:13Z</time>
      </trkpt>
      <trkpt lat="45.92571" lon="4.76036">
        <ele>172</ele>
        <time>2018-09-20T08:50:14Z</time>
      </trkpt>
      <trkpt lat="45.92576" lon="4.76038">
        <ele>172</ele>
        <time>2018-09-20T08:50:15Z</time>
      </trkpt>
      <trkpt lat="45.92581" lon="4.76043">
        <ele>171</ele>
        <time>2018-09-20T08:50:16Z</time>
      </trkpt>
      <trkpt lat="45.92586" lon="4.76046">
        <ele>171</ele>
        <time>2018-09-20T08:50:17Z</time>
      </trkpt>
      <trkpt lat="45.9259" lon="4.76049">
        <ele>171</ele>
        <time>2018-09-20T08:50:18Z</time>
      </trkpt>
      <trkpt lat="45.92595" lon="4.76052">
        <ele>171</ele>
        <time>2018-09-20T08:50:19Z</time>
      </trkpt>
      <trkpt lat="45.926" lon="4.76055">
        <ele>171</ele>
        <time>2018-09-20T08:50:20Z</time>
      </trkpt>
      <trkpt lat="45.92605" lon="4.76058">
        <ele>171</ele>
        <time>2018-09-20T08:50:21Z</time>
      </trkpt>
      <trkpt lat="45.92609" lon="4.76062">
        <ele>171</ele>
        <time>2018-09-20T08:50:22Z</time>
      </trkpt>
      <trkpt lat="45.92613" lon="4.76066">
        <ele>171</ele>
        <time>2018-09-20T08:50:23Z</time>
      </trkpt>
      <trkpt lat="45.92619" lon="4.76069">
        <ele>171</ele>
        <time>2018-09-20T08:50:24Z</time>
      </trkpt>
      <trkpt lat="45.92624" lon="4.76072">
        <ele>171</ele>
        <time>2018-09-20T08:50:25Z</time>
      </trkpt>
      <trkpt lat="45.92629" lon="4.76078">
        <ele>170</ele>
        <time>2018-09-20T08:50:26Z</time>
      </trkpt>
      <trkpt lat="45.92635" lon="4.76081">
        <ele>170</ele>
        <time>2018-09-20T08:50:27Z</time>
      </trkpt>
      <trkpt lat="45.9264" lon="4.76087">
        <ele>170</ele>
        <time>2018-09-20T08:50:28Z</time>
      </trkpt>
      <trkpt lat="45.92645" lon="4.76092">
        <ele>170</ele>
        <time>2018-09-20T08:50:29Z</time>
      </trkpt>
      <trkpt lat="45.92651" lon="4.76095">
        <ele>170</ele>
        <time>2018-09-20T08:50:30Z</time>
      </trkpt>
      <trkpt lat="45.92656" lon="4.76099">
        <ele>170</ele>
        <time>2018-09-20T08:50:31Z</time>
      </trkpt>
      <trkpt lat="45.92662" lon="4.76103">
        <ele>170</ele>
        <time>2018-09-20T08:50:32Z</time>
      </trkpt>
      <trkpt lat="45.92669" lon="4.76107">
        <ele>169</ele>
        <time>2018-09-20T08:50:33Z</time>
      </trkpt>
      <trkpt lat="45.92675" lon="4.76111">
        <ele>169</ele>
        <time>2018-09-20T08:50:34Z</time>
      </trkpt>
      <trkpt lat="45.92682" lon="4.76115">
        <ele>169</ele>
        <time>2018-09-20T08:50:35Z</time>
      </trkpt>
      <trkpt lat="45.92688" lon="4.76118">
        <ele>169</ele>
        <time>2018-09-20T08:50:36Z</time>
      </trkpt>
      <trkpt lat="45.92695" lon="4.76122">
        <ele>169</ele>
        <time>2018-09-20T08:50:37Z</time>
      </trkpt>
      <trkpt lat="45.92702" lon="4.76125">
        <ele>169</ele>
        <time>2018-09-20T08:50:38Z</time>
      </trkpt>
      <trkpt lat="45.92709" lon="4.76129">
        <ele>168</ele>
        <time>2018-09-20T08:50:39Z</time>
      </trkpt>
      <trkpt lat="45.92716" lon="4.76134">
        <ele>168</ele>
        <time>2018-09-20T08:50:40Z</time>
      </trkpt>
      <trkpt lat="45.92722" lon="4.76139">
        <ele>168</ele>
        <time>2018-09-20T08:50:41Z</time>
      </trkpt>
      <trkpt lat="45.92729" lon="4.76144">
        <ele>168</ele>
        <time>2018-09-20T08:50:42Z</time>
      </trkpt>
      <trkpt lat="45.92734" lon="4.76149">
        <ele>168</ele>
        <time>2018-09-20T08:50:43Z</time>
      </trkpt>
      <trkpt lat="45.9274" lon="4.76154">
        <ele>168</ele>
        <time>2018-09-20T08:50:44Z</time>
      </trkpt>
      <trkpt lat="45.92746" lon="4.76158">
        <ele>167</ele>
        <time>2018-09-20T08:50:45Z</time>
      </trkpt>
      <trkpt lat="45.92752" lon="4.76163">
        <ele>167</ele>
        <time>2018-09-20T08:50:46Z</time>
      </trkpt>
      <trkpt lat="45.92757" lon="4.76169">
        <ele>167</ele>
        <time>2018-09-20T08:50:47Z</time>
      </trkpt>
      <trkpt lat="45.92762" lon="4.76174">
        <ele>167</ele>
        <time>2018-09-20T08:50:48Z</time>
      </trkpt>
      <trkpt lat="45.92767" lon="4.76179">
        <ele>167</ele>
        <time>2018-09-20T08:50:49Z</time>
      </trkpt>
      <trkpt lat="45.92773" lon="4.76181">
        <ele>167</ele>
        <time>2018-09-20T08:50:50Z</time>
      </trkpt>
      <trkpt lat="45.92777" lon="4.76185">
        <ele>168</ele>
        <time>2018-09-20T08:50:51Z</time>
      </trkpt>
      <trkpt lat="45.92783" lon="4.7619">
        <ele>168</ele>
        <time>2018-09-20T08:50:52Z</time>
      </trkpt>
      <trkpt lat="45.92788" lon="4.76196">
        <ele>168</ele>
        <time>2018-09-20T08:50:53Z</time>
      </trkpt>
      <trkpt lat="45.92793" lon="4.76201">
        <ele>168</ele>
        <time>2018-09-20T08:50:54Z</time>
      </trkpt>
      <trkpt lat="45.92796" lon="4.76206">
        <ele>168</ele>
        <time>2018-09-20T08:50:55Z</time>
      </trkpt>
      <trkpt lat="45.92801" lon="4.76211">
        <ele>168</ele>
        <time>2018-09-20T08:50:56Z</time>
      </trkpt>
      <trkpt lat="45.92806" lon="4.76215">
        <ele>168</ele>
        <time>2018-09-20T08:50:57Z</time>
      </trkpt>
      <trkpt lat="45.9281" lon="4.76219">
        <ele>168</ele>
        <time>2018-09-20T08:50:58Z</time>
      </trkpt>
      <trkpt lat="45.92815" lon="4.76225">
        <ele>168</ele>
        <time>2018-09-20T08:50:59Z</time>
      </trkpt>
      <trkpt lat="45.9282" lon="4.76229">
        <ele>168</ele>
        <time>2018-09-20T08:51:00Z</time>
      </trkpt>
      <trkpt lat="45.92824" lon="4.76233">
        <ele>168</ele>
        <time>2018-09-20T08:51:01Z</time>
      </trkpt>
      <trkpt lat="45.92828" lon="4.76237">
        <ele>168</ele>
        <time>2018-09-20T08:51:02Z</time>
      </trkpt>
      <trkpt lat="45.92832" lon="4.76241">
        <ele>169</ele>
        <time>2018-09-20T08:51:03Z</time>
      </trkpt>
      <trkpt lat="45.92836" lon="4.76246">
        <ele>169</ele>
        <time>2018-09-20T08:51:04Z</time>
      </trkpt>
      <trkpt lat="45.92841" lon="4.76249">
        <ele>169</ele>
        <time>2018-09-20T08:51:05Z</time>
      </trkpt>
      <trkpt lat="45.92845" lon="4.7625">
        <ele>169</ele>
        <time>2018-09-20T08:51:06Z</time>
      </trkpt>
      <trkpt lat="45.92849" lon="4.76253">
        <ele>169</ele>
        <time>2018-09-20T08:51:07Z</time>
      </trkpt>
      <trkpt lat="45.92852" lon="4.76257">
        <ele>169</ele>
        <time>2018-09-20T08:51:08Z</time>
      </trkpt>
      <trkpt lat="45.92859" lon="4.76268">
        <ele>169</ele>
        <time>2018-09-20T08:51:09Z</time>
      </trkpt>
      <trkpt lat="45.92863" lon="4.76272">
        <ele>169</ele>
        <time>2018-09-20T08:51:10Z</time>
      </trkpt>
      <trkpt lat="45.92867" lon="4.76275">
        <ele>169</ele>
        <time>2018-09-20T08:51:11Z</time>
      </trkpt>
      <trkpt lat="45.92872" lon="4.76281">
        <ele>169</ele>
        <time>2018-09-20T08:51:12Z</time>
      </trkpt>
      <trkpt lat="45.92877" lon="4.76286">
        <ele>169</ele>
        <time>2018-09-20T08:51:13Z</time>
      </trkpt>
      <trkpt lat="45.9288" lon="4.7629">
        <ele>169</ele>
        <time>2018-09-20T08:51:14Z</time>
      </trkpt>
      <trkpt lat="45.92885" lon="4.76296">
        <ele>169</ele>
        <time>2018-09-20T08:51:15Z</time>
      </trkpt>
      <trkpt lat="45.92889" lon="4.76301">
        <ele>169</ele>
        <time>2018-09-20T08:51:16Z</time>
      </trkpt>
      <trkpt lat="45.92893" lon="4.76306">
        <ele>169</ele>
        <time>2018-09-20T08:51:17Z</time>
      </trkpt>
      <trkpt lat="45.92898" lon="4.7631">
        <ele>169</ele>
        <time>2018-09-20T08:51:18Z</time>
      </trkpt>
      <trkpt lat="45.92902" lon="4.76315">
        <ele>169</ele>
        <time>2018-09-20T08:51:19Z</time>
      </trkpt>
      <trkpt lat="45.92907" lon="4.76318">
        <ele>169</ele>
        <time>2018-09-20T08:51:20Z</time>
      </trkpt>
      <trkpt lat="45.92911" lon="4.76322">
        <ele>169</ele>
        <time>2018-09-20T08:51:21Z</time>
      </trkpt>
      <trkpt lat="45.92916" lon="4.76326">
        <ele>169</ele>
        <time>2018-09-20T08:51:22Z</time>
      </trkpt>
      <trkpt lat="45.92921" lon="4.76331">
        <ele>169</ele>
        <time>2018-09-20T08:51:23Z</time>
      </trkpt>
      <trkpt lat="45.92926" lon="4.76336">
        <ele>169</ele>
        <time>2018-09-20T08:51:24Z</time>
      </trkpt>
      <trkpt lat="45.92931" lon="4.76342">
        <ele>169</ele>
        <time>2018-09-20T08:51:25Z</time>
      </trkpt>
      <trkpt lat="45.92936" lon="4.76347">
        <ele>169</ele>
        <time>2018-09-20T08:51:26Z</time>
      </trkpt>
      <trkpt lat="45.9294" lon="4.76352">
        <ele>169</ele>
        <time>2018-09-20T08:51:27Z</time>
      </trkpt>
      <trkpt lat="45.92945" lon="4.76357">
        <ele>169</ele>
        <time>2018-09-20T08:51:28Z</time>
      </trkpt>
      <trkpt lat="45.92949" lon="4.76363">
        <ele>169</ele>
        <time>2018-09-20T08:51:29Z</time>
      </trkpt>
      <trkpt lat="45.92952" lon="4.76367">
        <ele>169</ele>
        <time>2018-09-20T08:51:30Z</time>
      </trkpt>
      <trkpt lat="45.92957" lon="4.76371">
        <ele>169</ele>
        <time>2018-09-20T08:51:31Z</time>
      </trkpt>
      <trkpt lat="45.92961" lon="4.76376">
        <ele>169</ele>
        <time>2018-09-20T08:51:32Z</time>
      </trkpt>
      <trkpt lat="45.92965" lon="4.7638">
        <ele>169</ele>
        <time>2018-09-20T08:51:33Z</time>
      </trkpt>
      <trkpt lat="45.9297" lon="4.76385">
        <ele>169</ele>
        <time>2018-09-20T08:51:34Z</time>
      </trkpt>
      <trkpt lat="45.92975" lon="4.76389">
        <ele>169</ele>
        <time>2018-09-20T08:51:35Z</time>
      </trkpt>
      <trkpt lat="45.9298" lon="4.76394">
        <ele>169</ele>
        <time>2018-09-20T08:51:36Z</time>
      </trkpt>
      <trkpt lat="45.92984" lon="4.76398">
        <ele>169</ele>
        <time>2018-09-20T08:51:37Z</time>
      </trkpt>
      <trkpt lat="45.92989" lon="4.76402">
        <ele>169</ele>
        <time>2018-09-20T08:51:38Z</time>
      </trkpt>
      <trkpt lat="45.92994" lon="4.76406">
        <ele>169</ele>
        <time>2018-09-20T08:51:39Z</time>
      </trkpt>
      <trkpt lat="45.92998" lon="4.76409">
        <ele>169</ele>
        <time>2018-09-20T08:51:40Z</time>
      </trkpt>
      <trkpt lat="45.93002" lon="4.76414">
        <ele>169</ele>
        <time>2018-09-20T08:51:41Z</time>
      </trkpt>
      <trkpt lat="45.93005" lon="4.76417">
        <ele>169</ele>
        <time>2018-09-20T08:51:42Z</time>
      </trkpt>
      <trkpt lat="45.9301" lon="4.76421">
        <ele>169</ele>
        <time>2018-09-20T08:51:43Z</time>
      </trkpt>
      <trkpt lat="45.93017" lon="4.76428">
        <ele>169</ele>
        <time>2018-09-20T08:51:45Z</time>
      </trkpt>
      <trkpt lat="45.93021" lon="4.7643">
        <ele>169</ele>
        <time>2018-09-20T08:51:46Z</time>
      </trkpt>
      <trkpt lat="45.93026" lon="4.76435">
        <ele>169</ele>
        <time>2018-09-20T08:51:47Z</time>
      </trkpt>
      <trkpt lat="45.9303" lon="4.76441">
        <ele>169</ele>
        <time>2018-09-20T08:51:48Z</time>
      </trkpt>
      <trkpt lat="45.93034" lon="4.76446">
        <ele>169</ele>
        <time>2018-09-20T08:51:49Z</time>
      </trkpt>
      <trkpt lat="45.9304" lon="4.76449">
        <ele>169</ele>
        <time>2018-09-20T08:51:50Z</time>
      </trkpt>
      <trkpt lat="45.93044" lon="4.76453">
        <ele>169</ele>
        <time>2018-09-20T08:51:51Z</time>
      </trkpt>
      <trkpt lat="45.93049" lon="4.76458">
        <ele>169</ele>
        <time>2018-09-20T08:51:52Z</time>
      </trkpt>
      <trkpt lat="45.93053" lon="4.76462">
        <ele>169</ele>
        <time>2018-09-20T08:51:53Z</time>
      </trkpt>
      <trkpt lat="45.93057" lon="4.76465">
        <ele>169</ele>
        <time>2018-09-20T08:51:54Z</time>
      </trkpt>
      <trkpt lat="45.93061" lon="4.76471">
        <ele>169</ele>
        <time>2018-09-20T08:51:55Z</time>
      </trkpt>
      <trkpt lat="45.93066" lon="4.76475">
        <ele>169</ele>
        <time>2018-09-20T08:51:56Z</time>
      </trkpt>
      <trkpt lat="45.93071" lon="4.76479">
        <ele>169</ele>
        <time>2018-09-20T08:51:57Z</time>
      </trkpt>
      <trkpt lat="45.93075" lon="4.76484">
        <ele>169</ele>
        <time>2018-09-20T08:51:58Z</time>
      </trkpt>
      <trkpt lat="45.93081" lon="4.76488">
        <ele>170</ele>
        <time>2018-09-20T08:51:59Z</time>
      </trkpt>
      <trkpt lat="45.93085" lon="4.76493">
        <ele>170</ele>
        <time>2018-09-20T08:52:00Z</time>
      </trkpt>
      <trkpt lat="45.9309" lon="4.76497">
        <ele>170</ele>
        <time>2018-09-20T08:52:01Z</time>
      </trkpt>
      <trkpt lat="45.93095" lon="4.765">
        <ele>170</ele>
        <time>2018-09-20T08:52:02Z</time>
      </trkpt>
      <trkpt lat="45.931" lon="4.76503">
        <ele>170</ele>
        <time>2018-09-20T08:52:03Z</time>
      </trkpt>
      <trkpt lat="45.93104" lon="4.7651">
        <ele>170</ele>
        <time>2018-09-20T08:52:04Z</time>
      </trkpt>
      <trkpt lat="45.93109" lon="4.76512">
        <ele>170</ele>
        <time>2018-09-20T08:52:05Z</time>
      </trkpt>
      <trkpt lat="45.93113" lon="4.76518">
        <ele>170</ele>
        <time>2018-09-20T08:52:06Z</time>
      </trkpt>
      <trkpt lat="45.93118" lon="4.76522">
        <ele>170</ele>
        <time>2018-09-20T08:52:07Z</time>
      </trkpt>
      <trkpt lat="45.93121" lon="4.76526">
        <ele>170</ele>
        <time>2018-09-20T08:52:08Z</time>
      </trkpt>
      <trkpt lat="45.93125" lon="4.7653">
        <ele>170</ele>
        <time>2018-09-20T08:52:09Z</time>
      </trkpt>
      <trkpt lat="45.93128" lon="4.76535">
        <ele>170</ele>
        <time>2018-09-20T08:52:10Z</time>
      </trkpt>
      <trkpt lat="45.93132" lon="4.76537">
        <ele>170</ele>
        <time>2018-09-20T08:52:11Z</time>
      </trkpt>
      <trkpt lat="45.93137" lon="4.76545">
        <ele>170</ele>
        <time>2018-09-20T08:52:12Z</time>
      </trkpt>
      <trkpt lat="45.93141" lon="4.76549">
        <ele>170</ele>
        <time>2018-09-20T08:52:13Z</time>
      </trkpt>
      <trkpt lat="45.93146" lon="4.76554">
        <ele>170</ele>
        <time>2018-09-20T08:52:14Z</time>
      </trkpt>
      <trkpt lat="45.9315" lon="4.7656">
        <ele>170</ele>
        <time>2018-09-20T08:52:15Z</time>
      </trkpt>
      <trkpt lat="45.93156" lon="4.76564">
        <ele>170</ele>
        <time>2018-09-20T08:52:16Z</time>
      </trkpt>
      <trkpt lat="45.9316" lon="4.76568">
        <ele>170</ele>
        <time>2018-09-20T08:52:17Z</time>
      </trkpt>
      <trkpt lat="45.93163" lon="4.76573">
        <ele>171</ele>
        <time>2018-09-20T08:52:18Z</time>
      </trkpt>
      <trkpt lat="45.93168" lon="4.76577">
        <ele>170</ele>
        <time>2018-09-20T08:52:19Z</time>
      </trkpt>
      <trkpt lat="45.93172" lon="4.76583">
        <ele>171</ele>
        <time>2018-09-20T08:52:20Z</time>
      </trkpt>
      <trkpt lat="45.93178" lon="4.76588">
        <ele>171</ele>
        <time>2018-09-20T08:52:21Z</time>
      </trkpt>
      <trkpt lat="45.93181" lon="4.76593">
        <ele>171</ele>
        <time>2018-09-20T08:52:22Z</time>
      </trkpt>
      <trkpt lat="45.93186" lon="4.76597">
        <ele>171</ele>
        <time>2018-09-20T08:52:23Z</time>
      </trkpt>
      <trkpt lat="45.93191" lon="4.76601">
        <ele>170</ele>
        <time>2018-09-20T08:52:24Z</time>
      </trkpt>
      <trkpt lat="45.93195" lon="4.76606">
        <ele>170</ele>
        <time>2018-09-20T08:52:25Z</time>
      </trkpt>
      <trkpt lat="45.93199" lon="4.7661">
        <ele>170</ele>
        <time>2018-09-20T08:52:26Z</time>
      </trkpt>
      <trkpt lat="45.93206" lon="4.76616">
        <ele>170</ele>
        <time>2018-09-20T08:52:28Z</time>
      </trkpt>
      <trkpt lat="45.93209" lon="4.76619">
        <ele>170</ele>
        <time>2018-09-20T08:52:29Z</time>
      </trkpt>
      <trkpt lat="45.93213" lon="4.76622">
        <ele>170</ele>
        <time>2018-09-20T08:52:30Z</time>
      </trkpt>
      <trkpt lat="45.93217" lon="4.76626">
        <ele>170</ele>
        <time>2018-09-20T08:52:31Z</time>
      </trkpt>
      <trkpt lat="45.93221" lon="4.76628">
        <ele>170</ele>
        <time>2018-09-20T08:52:32Z</time>
      </trkpt>
      <trkpt lat="45.93225" lon="4.76632">
        <ele>170</ele>
        <time>2018-09-20T08:52:33Z</time>
      </trkpt>
      <trkpt lat="45.93229" lon="4.76638">
        <ele>171</ele>
        <time>2018-09-20T08:52:34Z</time>
      </trkpt>
      <trkpt lat="45.93234" lon="4.76642">
        <ele>171</ele>
        <time>2018-09-20T08:52:35Z</time>
      </trkpt>
      <trkpt lat="45.93239" lon="4.76645">
        <ele>171</ele>
        <time>2018-09-20T08:52:36Z</time>
      </trkpt>
      <trkpt lat="45.93243" lon="4.76651">
        <ele>171</ele>
        <time>2018-09-20T08:52:37Z</time>
      </trkpt>
      <trkpt lat="45.93248" lon="4.76654">
        <ele>171</ele>
        <time>2018-09-20T08:52:38Z</time>
      </trkpt>
      <trkpt lat="45.93253" lon="4.76659">
        <ele>171</ele>
        <time>2018-09-20T08:52:39Z</time>
      </trkpt>
      <trkpt lat="45.93258" lon="4.76669">
        <ele>172</ele>
        <time>2018-09-20T08:52:41Z</time>
      </trkpt>
      <trkpt lat="45.93261" lon="4.76672">
        <ele>172</ele>
        <time>2018-09-20T08:52:42Z</time>
      </trkpt>
      <trkpt lat="45.93265" lon="4.76677">
        <ele>172</ele>
        <time>2018-09-20T08:52:43Z</time>
      </trkpt>
      <trkpt lat="45.93268" lon="4.76681">
        <ele>172</ele>
        <time>2018-09-20T08:52:44Z</time>
      </trkpt>
      <trkpt lat="45.93272" lon="4.76686">
        <ele>172</ele>
        <time>2018-09-20T08:52:45Z</time>
      </trkpt>
      <trkpt lat="45.93276" lon="4.76689">
        <ele>172</ele>
        <time>2018-09-20T08:52:46Z</time>
      </trkpt>
      <trkpt lat="45.9328" lon="4.76693">
        <ele>172</ele>
        <time>2018-09-20T08:52:47Z</time>
      </trkpt>
      <trkpt lat="45.93284" lon="4.76697">
        <ele>172</ele>
        <time>2018-09-20T08:52:48Z</time>
      </trkpt>
      <trkpt lat="45.93288" lon="4.767">
        <ele>172</ele>
        <time>2018-09-20T08:52:49Z</time>
      </trkpt>
      <trkpt lat="45.93293" lon="4.76704">
        <ele>172</ele>
        <time>2018-09-20T08:52:50Z</time>
      </trkpt>
      <trkpt lat="45.93297" lon="4.76709">
        <ele>172</ele>
        <time>2018-09-20T08:52:51Z</time>
      </trkpt>
      <trkpt lat="45.93302" lon="4.76714">
        <ele>172</ele>
        <time>2018-09-20T08:52:52Z</time>
      </trkpt>
      <trkpt lat="45.93306" lon="4.76718">
        <ele>172</ele>
        <time>2018-09-20T08:52:53Z</time>
      </trkpt>
      <trkpt lat="45.9331" lon="4.76724">
        <ele>172</ele>
        <time>2018-09-20T08:52:54Z</time>
      </trkpt>
      <trkpt lat="45.93314" lon="4.76728">
        <ele>172</ele>
        <time>2018-09-20T08:52:55Z</time>
      </trkpt>
      <trkpt lat="45.9332" lon="4.76731">
        <ele>172</ele>
        <time>2018-09-20T08:52:56Z</time>
      </trkpt>
      <trkpt lat="45.93324" lon="4.76735">
        <ele>172</ele>
        <time>2018-09-20T08:52:57Z</time>
      </trkpt>
      <trkpt lat="45.93328" lon="4.76739">
        <ele>172</ele>
        <time>2018-09-20T08:52:58Z</time>
      </trkpt>
      <trkpt lat="45.93332" lon="4.76743">
        <ele>173</ele>
        <time>2018-09-20T08:52:59Z</time>
      </trkpt>
      <trkpt lat="45.93336" lon="4.76747">
        <ele>173</ele>
        <time>2018-09-20T08:53:00Z</time>
      </trkpt>
      <trkpt lat="45.9334" lon="4.76751">
        <ele>173</ele>
        <time>2018-09-20T08:53:01Z</time>
      </trkpt>
      <trkpt lat="45.93345" lon="4.76756">
        <ele>172</ele>
        <time>2018-09-20T08:53:02Z</time>
      </trkpt>
      <trkpt lat="45.9335" lon="4.7676">
        <ele>172</ele>
        <time>2018-09-20T08:53:03Z</time>
      </trkpt>
      <trkpt lat="45.93354" lon="4.76765">
        <ele>172</ele>
        <time>2018-09-20T08:53:04Z</time>
      </trkpt>
      <trkpt lat="45.93359" lon="4.76769">
        <ele>172</ele>
        <time>2018-09-20T08:53:05Z</time>
      </trkpt>
      <trkpt lat="45.93363" lon="4.76772">
        <ele>172</ele>
        <time>2018-09-20T08:53:06Z</time>
      </trkpt>
      <trkpt lat="45.93368" lon="4.76777">
        <ele>172</ele>
        <time>2018-09-20T08:53:07Z</time>
      </trkpt>
      <trkpt lat="45.93372" lon="4.76781">
        <ele>172</ele>
        <time>2018-09-20T08:53:08Z</time>
      </trkpt>
      <trkpt lat="45.93377" lon="4.76786">
        <ele>172</ele>
        <time>2018-09-20T08:53:09Z</time>
      </trkpt>
      <trkpt lat="45.93382" lon="4.7679">
        <ele>172</ele>
        <time>2018-09-20T08:53:10Z</time>
      </trkpt>
      <trkpt lat="45.93386" lon="4.76795">
        <ele>172</ele>
        <time>2018-09-20T08:53:11Z</time>
      </trkpt>
      <trkpt lat="45.9339" lon="4.768">
        <ele>172</ele>
        <time>2018-09-20T08:53:12Z</time>
      </trkpt>
      <trkpt lat="45.93394" lon="4.76805">
        <ele>172</ele>
        <time>2018-09-20T08:53:13Z</time>
      </trkpt>
      <trkpt lat="45.93398" lon="4.7681">
        <ele>172</ele>
        <time>2018-09-20T08:53:14Z</time>
      </trkpt>
      <trkpt lat="45.93402" lon="4.76815">
        <ele>172</ele>
        <time>2018-09-20T08:53:15Z</time>
      </trkpt>
      <trkpt lat="45.93405" lon="4.76821">
        <ele>172</ele>
        <time>2018-09-20T08:53:16Z</time>
      </trkpt>
      <trkpt lat="45.93409" lon="4.76827">
        <ele>172</ele>
        <time>2018-09-20T08:53:17Z</time>
      </trkpt>
      <trkpt lat="45.93412" lon="4.76833">
        <ele>172</ele>
        <time>2018-09-20T08:53:18Z</time>
      </trkpt>
      <trkpt lat="45.93416" lon="4.7684">
        <ele>172</ele>
        <time>2018-09-20T08:53:19Z</time>
      </trkpt>
      <trkpt lat="45.93419" lon="4.76847">
        <ele>171</ele>
        <time>2018-09-20T08:53:20Z</time>
      </trkpt>
      <trkpt lat="45.93422" lon="4.76854">
        <ele>171</ele>
        <time>2018-09-20T08:53:21Z</time>
      </trkpt>
      <trkpt lat="45.93425" lon="4.76861">
        <ele>171</ele>
        <time>2018-09-20T08:53:22Z</time>
      </trkpt>
      <trkpt lat="45.93428" lon="4.76868">
        <ele>171</ele>
        <time>2018-09-20T08:53:23Z</time>
      </trkpt>
      <trkpt lat="45.93431" lon="4.76875">
        <ele>171</ele>
        <time>2018-09-20T08:53:24Z</time>
      </trkpt>
      <trkpt lat="45.93434" lon="4.76882">
        <ele>171</ele>
        <time>2018-09-20T08:53:25Z</time>
      </trkpt>
      <trkpt lat="45.93436" lon="4.76888">
        <ele>171</ele>
        <time>2018-09-20T08:53:26Z</time>
      </trkpt>
      <trkpt lat="45.93438" lon="4.76895">
        <ele>170</ele>
        <time>2018-09-20T08:53:27Z</time>
      </trkpt>
      <trkpt lat="45.9344" lon="4.76902">
        <ele>170</ele>
        <time>2018-09-20T08:53:28Z</time>
      </trkpt>
      <trkpt lat="45.93442" lon="4.76909">
        <ele>170</ele>
        <time>2018-09-20T08:53:29Z</time>
      </trkpt>
      <trkpt lat="45.93444" lon="4.76915">
        <ele>170</ele>
        <time>2018-09-20T08:53:30Z</time>
      </trkpt>
      <trkpt lat="45.93444" lon="4.76921">
        <ele>170</ele>
        <time>2018-09-20T08:53:31Z</time>
      </trkpt>
      <trkpt lat="45.93446" lon="4.76928">
        <ele>170</ele>
        <time>2018-09-20T08:53:32Z</time>
      </trkpt>
      <trkpt lat="45.93447" lon="4.76935">
        <ele>170</ele>
        <time>2018-09-20T08:53:33Z</time>
      </trkpt>
      <trkpt lat="45.93448" lon="4.76942">
        <ele>170</ele>
        <time>2018-09-20T08:53:34Z</time>
      </trkpt>
      <trkpt lat="45.93449" lon="4.76949">
        <ele>170</ele>
        <time>2018-09-20T08:53:35Z</time>
      </trkpt>
      <trkpt lat="45.9345" lon="4.76956">
        <ele>170</ele>
        <time>2018-09-20T08:53:36Z</time>
      </trkpt>
      <trkpt lat="45.93452" lon="4.76964">
        <ele>170</ele>
        <time>2018-09-20T08:53:37Z</time>
      </trkpt>
      <trkpt lat="45.93453" lon="4.76971">
        <ele>170</ele>
        <time>2018-09-20T08:53:38Z</time>
      </trkpt>
      <trkpt lat="45.93455" lon="4.76978">
        <ele>170</ele>
        <time>2018-09-20T08:53:39Z</time>
      </trkpt>
      <trkpt lat="45.93456" lon="4.76984">
        <ele>170</ele>
        <time>2018-09-20T08:53:40Z</time>
      </trkpt>
      <trkpt lat="45.93456" lon="4.76991">
        <ele>170</ele>
        <time>2018-09-20T08:53:41Z</time>
      </trkpt>
      <trkpt lat="45.93457" lon="4.76999">
        <ele>170</ele>
        <time>2018-09-20T08:53:42Z</time>
      </trkpt>
      <trkpt lat="45.93457" lon="4.77005">
        <ele>170</ele>
        <time>2018-09-20T08:53:43Z</time>
      </trkpt>
      <trkpt lat="45.93459" lon="4.77012">
        <ele>170</ele>
        <time>2018-09-20T08:53:44Z</time>
      </trkpt>
      <trkpt lat="45.93461" lon="4.77018">
        <ele>170</ele>
        <time>2018-09-20T08:53:45Z</time>
      </trkpt>
      <trkpt lat="45.93461" lon="4.77027">
        <ele>170</ele>
        <time>2018-09-20T08:53:46Z</time>
      </trkpt>
      <trkpt lat="45.93462" lon="4.77033">
        <ele>170</ele>
        <time>2018-09-20T08:53:47Z</time>
      </trkpt>
      <trkpt lat="45.93464" lon="4.7704">
        <ele>170</ele>
        <time>2018-09-20T08:53:48Z</time>
      </trkpt>
      <trkpt lat="45.93465" lon="4.77048">
        <ele>170</ele>
        <time>2018-09-20T08:53:49Z</time>
      </trkpt>
      <trkpt lat="45.93466" lon="4.77055">
        <ele>170</ele>
        <time>2018-09-20T08:53:50Z</time>
      </trkpt>
      <trkpt lat="45.93467" lon="4.77063">
        <ele>170</ele>
        <time>2018-09-20T08:53:51Z</time>
      </trkpt>
      <trkpt lat="45.93469" lon="4.7707">
        <ele>170</ele>
        <time>2018-09-20T08:53:52Z</time>
      </trkpt>
      <trkpt lat="45.9347" lon="4.77077">
        <ele>170</ele>
        <time>2018-09-20T08:53:53Z</time>
      </trkpt>
      <trkpt lat="45.93471" lon="4.77083">
        <ele>170</ele>
        <time>2018-09-20T08:53:54Z</time>
      </trkpt>
      <trkpt lat="45.93473" lon="4.77095">
        <ele>169</ele>
        <time>2018-09-20T08:53:56Z</time>
      </trkpt>
      <trkpt lat="45.93474" lon="4.77098">
        <ele>169</ele>
        <time>2018-09-20T08:53:57Z</time>
      </trkpt>
      <trkpt lat="45.93474" lon="4.7711">
        <ele>169</ele>
        <time>2018-09-20T08:54:21Z</time>
      </trkpt>
      <trkpt lat="45.93474" lon="4.77111">
        <ele>169</ele>
        <time>2018-09-20T08:54:22Z</time>
      </trkpt>
      <trkpt lat="45.93476" lon="4.77123">
        <ele>169</ele>
        <time>2018-09-20T08:54:28Z</time>
      </trkpt>
      <trkpt lat="45.93477" lon="4.77126">
        <ele>169</ele>
        <time>2018-09-20T08:54:29Z</time>
      </trkpt>
      <trkpt lat="45.93479" lon="4.77136">
        <ele>169</ele>
        <time>2018-09-20T08:54:32Z</time>
      </trkpt>
      <trkpt lat="45.93479" lon="4.7714">
        <ele>169</ele>
        <time>2018-09-20T08:54:33Z</time>
      </trkpt>
      <trkpt lat="45.93482" lon="4.77152">
        <ele>169</ele>
        <time>2018-09-20T08:54:36Z</time>
      </trkpt>
      <trkpt lat="45.93483" lon="4.77157">
        <ele>169</ele>
        <time>2018-09-20T08:54:37Z</time>
      </trkpt>
      <trkpt lat="45.93486" lon="4.7717">
        <ele>169</ele>
        <time>2018-09-20T08:54:38Z</time>
      </trkpt>
      <trkpt lat="45.93487" lon="4.77176">
        <ele>169</ele>
        <time>2018-09-20T08:54:39Z</time>
      </trkpt>
      <trkpt lat="45.93489" lon="4.77182">
        <ele>169</ele>
        <time>2018-09-20T08:54:40Z</time>
      </trkpt>
      <trkpt lat="45.93491" lon="4.77194">
        <ele>169</ele>
        <time>2018-09-20T08:54:42Z</time>
      </trkpt>
      <trkpt lat="45.93492" lon="4.772">
        <ele>169</ele>
        <time>2018-09-20T08:54:43Z</time>
      </trkpt>
      <trkpt lat="45.93494" lon="4.77212">
        <ele>169</ele>
        <time>2018-09-20T08:54:45Z</time>
      </trkpt>
      <trkpt lat="45.93495" lon="4.77218">
        <ele>169</ele>
        <time>2018-09-20T08:54:46Z</time>
      </trkpt>
      <trkpt lat="45.93496" lon="4.77225">
        <ele>169</ele>
        <time>2018-09-20T08:54:47Z</time>
      </trkpt>
      <trkpt lat="45.93498" lon="4.77231">
        <ele>170</ele>
        <time>2018-09-20T08:54:48Z</time>
      </trkpt>
      <trkpt lat="45.935" lon="4.77238">
        <ele>170</ele>
        <time>2018-09-20T08:54:49Z</time>
      </trkpt>
      <trkpt lat="45.93501" lon="4.77245">
        <ele>170</ele>
        <time>2018-09-20T08:54:50Z</time>
      </trkpt>
      <trkpt lat="45.93503" lon="4.77251">
        <ele>170</ele>
        <time>2018-09-20T08:54:51Z</time>
      </trkpt>
      <trkpt lat="45.93505" lon="4.77257">
        <ele>170</ele>
        <time>2018-09-20T08:54:52Z</time>
      </trkpt>
      <trkpt lat="45.93508" lon="4.77268">
        <ele>170</ele>
        <time>2018-09-20T08:54:54Z</time>
      </trkpt>
      <trkpt lat="45.93509" lon="4.77272">
        <ele>170</ele>
        <time>2018-09-20T08:54:55Z</time>
      </trkpt>
      <trkpt lat="45.93512" lon="4.77284">
        <ele>170</ele>
        <time>2018-09-20T08:54:57Z</time>
      </trkpt>
      <trkpt lat="45.93513" lon="4.77289">
        <ele>170</ele>
        <time>2018-09-20T08:54:58Z</time>
      </trkpt>
      <trkpt lat="45.93514" lon="4.77295">
        <ele>170</ele>
        <time>2018-09-20T08:54:59Z</time>
      </trkpt>
      <trkpt lat="45.93516" lon="4.77302">
        <ele>170</ele>
        <time>2018-09-20T08:55:00Z</time>
      </trkpt>
      <trkpt lat="45.93517" lon="4.77309">
        <ele>170</ele>
        <time>2018-09-20T08:55:01Z</time>
      </trkpt>
      <trkpt lat="45.93519" lon="4.77315">
        <ele>170</ele>
        <time>2018-09-20T08:55:02Z</time>
      </trkpt>
      <trkpt lat="45.9352" lon="4.77323">
        <ele>170</ele>
        <time>2018-09-20T08:55:03Z</time>
      </trkpt>
      <trkpt lat="45.93523" lon="4.77331">
        <ele>170</ele>
        <time>2018-09-20T08:55:04Z</time>
      </trkpt>
      <trkpt lat="45.93524" lon="4.77338">
        <ele>170</ele>
        <time>2018-09-20T08:55:05Z</time>
      </trkpt>
      <trkpt lat="45.93526" lon="4.77345">
        <ele>170</ele>
        <time>2018-09-20T08:55:06Z</time>
      </trkpt>
      <trkpt lat="45.93528" lon="4.77353">
        <ele>170</ele>
        <time>2018-09-20T08:55:07Z</time>
      </trkpt>
      <trkpt lat="45.9353" lon="4.77361">
        <ele>170</ele>
        <time>2018-09-20T08:55:08Z</time>
      </trkpt>
      <trkpt lat="45.93531" lon="4.7737">
        <ele>170</ele>
        <time>2018-09-20T08:55:09Z</time>
      </trkpt>
      <trkpt lat="45.93533" lon="4.77377">
        <ele>170</ele>
        <time>2018-09-20T08:55:10Z</time>
      </trkpt>
      <trkpt lat="45.93534" lon="4.77384">
        <ele>170</ele>
        <time>2018-09-20T08:55:11Z</time>
      </trkpt>
      <trkpt lat="45.93536" lon="4.77392">
        <ele>170</ele>
        <time>2018-09-20T08:55:12Z</time>
      </trkpt>
      <trkpt lat="45.93537" lon="4.77399">
        <ele>170</ele>
        <time>2018-09-20T08:55:13Z</time>
      </trkpt>
      <trkpt lat="45.93539" lon="4.77407">
        <ele>170</ele>
        <time>2018-09-20T08:55:14Z</time>
      </trkpt>
      <trkpt lat="45.93541" lon="4.77414">
        <ele>170</ele>
        <time>2018-09-20T08:55:15Z</time>
      </trkpt>
      <trkpt lat="45.93542" lon="4.77421">
        <ele>170</ele>
        <time>2018-09-20T08:55:16Z</time>
      </trkpt>
      <trkpt lat="45.93543" lon="4.77426">
        <ele>169</ele>
        <time>2018-09-20T08:55:17Z</time>
      </trkpt>
      <trkpt lat="45.93546" lon="4.77435">
        <ele>169</ele>
        <time>2018-09-20T08:55:18Z</time>
      </trkpt>
      <trkpt lat="45.93547" lon="4.77443">
        <ele>169</ele>
        <time>2018-09-20T08:55:20Z</time>
      </trkpt>
      <trkpt lat="45.93548" lon="4.7745">
        <ele>169</ele>
        <time>2018-09-20T08:55:21Z</time>
      </trkpt>
      <trkpt lat="45.93549" lon="4.77457">
        <ele>169</ele>
        <time>2018-09-20T08:55:22Z</time>
      </trkpt>
      <trkpt lat="45.93551" lon="4.77464">
        <ele>169</ele>
        <time>2018-09-20T08:55:23Z</time>
      </trkpt>
      <trkpt lat="45.93556" lon="4.77471">
        <ele>169</ele>
        <time>2018-09-20T08:55:24Z</time>
      </trkpt>
      <trkpt lat="45.93558" lon="4.77478">
        <ele>169</ele>
        <time>2018-09-20T08:55:25Z</time>
      </trkpt>
      <trkpt lat="45.93559" lon="4.77483">
        <ele>169</ele>
        <time>2018-09-20T08:55:26Z</time>
      </trkpt>
      <trkpt lat="45.93561" lon="4.77494">
        <ele>169</ele>
        <time>2018-09-20T08:55:27Z</time>
      </trkpt>
      <trkpt lat="45.93563" lon="4.77501">
        <ele>169</ele>
        <time>2018-09-20T08:55:28Z</time>
      </trkpt>
      <trkpt lat="45.93564" lon="4.77508">
        <ele>169</ele>
        <time>2018-09-20T08:55:29Z</time>
      </trkpt>
      <trkpt lat="45.93566" lon="4.7752">
        <ele>169</ele>
        <time>2018-09-20T08:55:31Z</time>
      </trkpt>
      <trkpt lat="45.93568" lon="4.77527">
        <ele>169</ele>
        <time>2018-09-20T08:55:32Z</time>
      </trkpt>
      <trkpt lat="45.9357" lon="4.77534">
        <ele>169</ele>
        <time>2018-09-20T08:55:33Z</time>
      </trkpt>
      <trkpt lat="45.93571" lon="4.7754">
        <ele>169</ele>
        <time>2018-09-20T08:55:34Z</time>
      </trkpt>
      <trkpt lat="45.93573" lon="4.77547">
        <ele>169</ele>
        <time>2018-09-20T08:55:35Z</time>
      </trkpt>
      <trkpt lat="45.93575" lon="4.77554">
        <ele>169</ele>
        <time>2018-09-20T08:55:36Z</time>
      </trkpt>
      <trkpt lat="45.93577" lon="4.77566">
        <ele>169</ele>
        <time>2018-09-20T08:55:38Z</time>
      </trkpt>
      <trkpt lat="45.93579" lon="4.77571">
        <ele>170</ele>
        <time>2018-09-20T08:55:39Z</time>
      </trkpt>
      <trkpt lat="45.9358" lon="4.77578">
        <ele>170</ele>
        <time>2018-09-20T08:55:40Z</time>
      </trkpt>
      <trkpt lat="45.93582" lon="4.77586">
        <ele>170</ele>
        <time>2018-09-20T08:55:41Z</time>
      </trkpt>
      <trkpt lat="45.93584" lon="4.77593">
        <ele>170</ele>
        <time>2018-09-20T08:55:42Z</time>
      </trkpt>
      <trkpt lat="45.93586" lon="4.776">
        <ele>170</ele>
        <time>2018-09-20T08:55:43Z</time>
      </trkpt>
      <trkpt lat="45.93588" lon="4.77607">
        <ele>170</ele>
        <time>2018-09-20T08:55:44Z</time>
      </trkpt>
      <trkpt lat="45.93591" lon="4.77613">
        <ele>170</ele>
        <time>2018-09-20T08:55:45Z</time>
      </trkpt>
      <trkpt lat="45.93593" lon="4.7762">
        <ele>170</ele>
        <time>2018-09-20T08:55:46Z</time>
      </trkpt>
      <trkpt lat="45.93596" lon="4.77626">
        <ele>169</ele>
        <time>2018-09-20T08:55:47Z</time>
      </trkpt>
      <trkpt lat="45.93598" lon="4.77633">
        <ele>169</ele>
        <time>2018-09-20T08:55:48Z</time>
      </trkpt>
      <trkpt lat="45.936" lon="4.77639">
        <ele>169</ele>
        <time>2018-09-20T08:55:49Z</time>
      </trkpt>
      <trkpt lat="45.93602" lon="4.77646">
        <ele>169</ele>
        <time>2018-09-20T08:55:50Z</time>
      </trkpt>
      <trkpt lat="45.93605" lon="4.77651">
        <ele>169</ele>
        <time>2018-09-20T08:55:51Z</time>
      </trkpt>
      <trkpt lat="45.93607" lon="4.77657">
        <ele>169</ele>
        <time>2018-09-20T08:55:52Z</time>
      </trkpt>
      <trkpt lat="45.93609" lon="4.77663">
        <ele>169</ele>
        <time>2018-09-20T08:55:53Z</time>
      </trkpt>
      <trkpt lat="45.93612" lon="4.77669">
        <ele>169</ele>
        <time>2018-09-20T08:55:54Z</time>
      </trkpt>
      <trkpt lat="45.93614" lon="4.77675">
        <ele>169</ele>
        <time>2018-09-20T08:55:55Z</time>
      </trkpt>
      <trkpt lat="45.93617" lon="4.77682">
        <ele>169</ele>
        <time>2018-09-20T08:55:56Z</time>
      </trkpt>
      <trkpt lat="45.9362" lon="4.77687">
        <ele>169</ele>
        <time>2018-09-20T08:55:57Z</time>
      </trkpt>
      <trkpt lat="45.93626" lon="4.77696">
        <ele>169</ele>
        <time>2018-09-20T08:55:59Z</time>
      </trkpt>
      <trkpt lat="45.93628" lon="4.77702">
        <ele>169</ele>
        <time>2018-09-20T08:56:00Z</time>
      </trkpt>
      <trkpt lat="45.93634" lon="4.77711">
        <ele>170</ele>
        <time>2018-09-20T08:56:02Z</time>
      </trkpt>
      <trkpt lat="45.93637" lon="4.77716">
        <ele>170</ele>
        <time>2018-09-20T08:56:03Z</time>
      </trkpt>
      <trkpt lat="45.93642" lon="4.77725">
        <ele>170</ele>
        <time>2018-09-20T08:56:05Z</time>
      </trkpt>
      <trkpt lat="45.93644" lon="4.77731">
        <ele>170</ele>
        <time>2018-09-20T08:56:06Z</time>
      </trkpt>
      <trkpt lat="45.9365" lon="4.77739">
        <ele>170</ele>
        <time>2018-09-20T08:56:08Z</time>
      </trkpt>
      <trkpt lat="45.93651" lon="4.77741">
        <ele>170</ele>
        <time>2018-09-20T08:56:09Z</time>
      </trkpt>
      <trkpt lat="45.93656" lon="4.77748">
        <ele>170</ele>
        <time>2018-09-20T08:56:12Z</time>
      </trkpt>
      <trkpt lat="45.93658" lon="4.77751">
        <ele>171</ele>
        <time>2018-09-20T08:56:13Z</time>
      </trkpt>
      <trkpt lat="45.93664" lon="4.77758">
        <ele>171</ele>
        <time>2018-09-20T08:56:14Z</time>
      </trkpt>
      <trkpt lat="45.93666" lon="4.7776">
        <ele>171</ele>
        <time>2018-09-20T08:56:15Z</time>
      </trkpt>
      <trkpt lat="45.93671" lon="4.7777">
        <ele>170</ele>
        <time>2018-09-20T08:56:17Z</time>
      </trkpt>
      <trkpt lat="45.93674" lon="4.77773">
        <ele>170</ele>
        <time>2018-09-20T08:56:18Z</time>
      </trkpt>
      <trkpt lat="45.93678" lon="4.77781">
        <ele>170</ele>
        <time>2018-09-20T08:56:20Z</time>
      </trkpt>
      <trkpt lat="45.9368" lon="4.77783">
        <ele>170</ele>
        <time>2018-09-20T08:56:21Z</time>
      </trkpt>
      <trkpt lat="45.93684" lon="4.77788">
        <ele>170</ele>
        <time>2018-09-20T08:56:22Z</time>
      </trkpt>
      <trkpt lat="45.93686" lon="4.77792">
        <ele>170</ele>
        <time>2018-09-20T08:56:23Z</time>
      </trkpt>
      <trkpt lat="45.93692" lon="4.778">
        <ele>169</ele>
        <time>2018-09-20T08:56:25Z</time>
      </trkpt>
      <trkpt lat="45.93695" lon="4.77804">
        <ele>169</ele>
        <time>2018-09-20T08:56:26Z</time>
      </trkpt>
      <trkpt lat="45.93701" lon="4.7781">
        <ele>169</ele>
        <time>2018-09-20T08:56:28Z</time>
      </trkpt>
      <trkpt lat="45.93704" lon="4.77814">
        <ele>169</ele>
        <time>2018-09-20T08:56:29Z</time>
      </trkpt>
      <trkpt lat="45.9371" lon="4.7782">
        <ele>169</ele>
        <time>2018-09-20T08:56:31Z</time>
      </trkpt>
      <trkpt lat="45.93711" lon="4.77822">
        <ele>169</ele>
        <time>2018-09-20T08:56:32Z</time>
      </trkpt>
      <trkpt lat="45.93715" lon="4.77828">
        <ele>169</ele>
        <time>2018-09-20T08:56:33Z</time>
      </trkpt>
      <trkpt lat="45.93718" lon="4.77831">
        <ele>168</ele>
        <time>2018-09-20T08:56:34Z</time>
      </trkpt>
      <trkpt lat="45.93724" lon="4.7784">
        <ele>167</ele>
        <time>2018-09-20T08:56:36Z</time>
      </trkpt>
      <trkpt lat="45.93727" lon="4.77844">
        <ele>167</ele>
        <time>2018-09-20T08:56:37Z</time>
      </trkpt>
      <trkpt lat="45.93734" lon="4.77852">
        <ele>167</ele>
        <time>2018-09-20T08:56:39Z</time>
      </trkpt>
      <trkpt lat="45.93737" lon="4.77857">
        <ele>167</ele>
        <time>2018-09-20T08:56:40Z</time>
      </trkpt>
      <trkpt lat="45.93741" lon="4.77861">
        <ele>167</ele>
        <time>2018-09-20T08:56:41Z</time>
      </trkpt>
      <trkpt lat="45.93744" lon="4.77866">
        <ele>167</ele>
        <time>2018-09-20T08:56:42Z</time>
      </trkpt>
      <trkpt lat="45.93748" lon="4.7787">
        <ele>167</ele>
        <time>2018-09-20T08:56:43Z</time>
      </trkpt>
      <trkpt lat="45.93752" lon="4.77875">
        <ele>166</ele>
        <time>2018-09-20T08:56:44Z</time>
      </trkpt>
      <trkpt lat="45.93755" lon="4.77881">
        <ele>166</ele>
        <time>2018-09-20T08:56:45Z</time>
      </trkpt>
      <trkpt lat="45.93759" lon="4.77885">
        <ele>166</ele>
        <time>2018-09-20T08:56:46Z</time>
      </trkpt>
      <trkpt lat="45.93763" lon="4.7789">
        <ele>166</ele>
        <time>2018-09-20T08:56:47Z</time>
      </trkpt>
      <trkpt lat="45.93766" lon="4.77894">
        <ele>166</ele>
        <time>2018-09-20T08:56:48Z</time>
      </trkpt>
      <trkpt lat="45.93772" lon="4.77902">
        <ele>166</ele>
        <time>2018-09-20T08:56:50Z</time>
      </trkpt>
      <trkpt lat="45.93775" lon="4.77905">
        <ele>166</ele>
        <time>2018-09-20T08:56:51Z</time>
      </trkpt>
      <trkpt lat="45.93779" lon="4.7791">
        <ele>166</ele>
        <time>2018-09-20T08:56:52Z</time>
      </trkpt>
      <trkpt lat="45.93782" lon="4.77914">
        <ele>166</ele>
        <time>2018-09-20T08:56:53Z</time>
      </trkpt>
      <trkpt lat="45.93788" lon="4.77923">
        <ele>168</ele>
        <time>2018-09-20T08:56:55Z</time>
      </trkpt>
      <trkpt lat="45.93792" lon="4.77928">
        <ele>168</ele>
        <time>2018-09-20T08:56:56Z</time>
      </trkpt>
      <trkpt lat="45.93798" lon="4.77937">
        <ele>169</ele>
        <time>2018-09-20T08:56:58Z</time>
      </trkpt>
      <trkpt lat="45.93803" lon="4.77942">
        <ele>169</ele>
        <time>2018-09-20T08:56:59Z</time>
      </trkpt>
      <trkpt lat="45.93806" lon="4.77947">
        <ele>169</ele>
        <time>2018-09-20T08:57:00Z</time>
      </trkpt>
      <trkpt lat="45.9381" lon="4.77951">
        <ele>169</ele>
        <time>2018-09-20T08:57:01Z</time>
      </trkpt>
      <trkpt lat="45.93815" lon="4.77957">
        <ele>170</ele>
        <time>2018-09-20T08:57:02Z</time>
      </trkpt>
      <trkpt lat="45.93819" lon="4.77962">
        <ele>171</ele>
        <time>2018-09-20T08:57:03Z</time>
      </trkpt>
      <trkpt lat="45.93823" lon="4.77969">
        <ele>171</ele>
        <time>2018-09-20T08:57:04Z</time>
      </trkpt>
      <trkpt lat="45.93828" lon="4.77974">
        <ele>172</ele>
        <time>2018-09-20T08:57:05Z</time>
      </trkpt>
      <trkpt lat="45.93832" lon="4.7798">
        <ele>173</ele>
        <time>2018-09-20T08:57:06Z</time>
      </trkpt>
      <trkpt lat="45.93836" lon="4.77987">
        <ele>179</ele>
        <time>2018-09-20T08:57:07Z</time>
      </trkpt>
      <trkpt lat="45.93839" lon="4.77995">
        <ele>179</ele>
        <time>2018-09-20T08:57:08Z</time>
      </trkpt>
      <trkpt lat="45.93841" lon="4.78002">
        <ele>180</ele>
        <time>2018-09-20T08:57:09Z</time>
      </trkpt>
      <trkpt lat="45.93843" lon="4.78012">
        <ele>181</ele>
        <time>2018-09-20T08:57:10Z</time>
      </trkpt>
      <trkpt lat="45.93843" lon="4.78023">
        <ele>182</ele>
        <time>2018-09-20T08:57:11Z</time>
      </trkpt>
      <trkpt lat="45.93845" lon="4.7803">
        <ele>182</ele>
        <time>2018-09-20T08:57:12Z</time>
      </trkpt>
      <trkpt lat="45.93846" lon="4.78039">
        <ele>182</ele>
        <time>2018-09-20T08:57:13Z</time>
      </trkpt>
      <trkpt lat="45.93848" lon="4.78046">
        <ele>183</ele>
        <time>2018-09-20T08:57:14Z</time>
      </trkpt>
      <trkpt lat="45.93847" lon="4.78052">
        <ele>182</ele>
        <time>2018-09-20T08:57:15Z</time>
      </trkpt>
      <trkpt lat="45.93846" lon="4.7806">
        <ele>182</ele>
        <time>2018-09-20T08:57:16Z</time>
      </trkpt>
      <trkpt lat="45.93845" lon="4.78066">
        <ele>182</ele>
        <time>2018-09-20T08:57:17Z</time>
      </trkpt>
      <trkpt lat="45.93842" lon="4.78072">
        <ele>182</ele>
        <time>2018-09-20T08:57:18Z</time>
      </trkpt>
      <trkpt lat="45.93841" lon="4.78079">
        <ele>181</ele>
        <time>2018-09-20T08:57:19Z</time>
      </trkpt>
      <trkpt lat="45.93838" lon="4.78089">
        <ele>182</ele>
        <time>2018-09-20T08:57:21Z</time>
      </trkpt>
      <trkpt lat="45.93838" lon="4.78095">
        <ele>182</ele>
        <time>2018-09-20T08:57:22Z</time>
      </trkpt>
      <trkpt lat="45.93836" lon="4.78107">
        <ele>183</ele>
        <time>2018-09-20T08:57:24Z</time>
      </trkpt>
      <trkpt lat="45.93834" lon="4.78112">
        <ele>184</ele>
        <time>2018-09-20T08:57:25Z</time>
      </trkpt>
      <trkpt lat="45.93832" lon="4.78124">
        <ele>180</ele>
        <time>2018-09-20T08:57:27Z</time>
      </trkpt>
      <trkpt lat="45.93831" lon="4.7813">
        <ele>180</ele>
        <time>2018-09-20T08:57:28Z</time>
      </trkpt>
      <trkpt lat="45.93828" lon="4.78141">
        <ele>180</ele>
        <time>2018-09-20T08:57:30Z</time>
      </trkpt>
      <trkpt lat="45.93826" lon="4.78148">
        <ele>180</ele>
        <time>2018-09-20T08:57:31Z</time>
      </trkpt>
      <trkpt lat="45.93824" lon="4.78154">
        <ele>181</ele>
        <time>2018-09-20T08:57:32Z</time>
      </trkpt>
      <trkpt lat="45.93823" lon="4.78161">
        <ele>181</ele>
        <time>2018-09-20T08:57:33Z</time>
      </trkpt>
      <trkpt lat="45.9382" lon="4.78167">
        <ele>182</ele>
        <time>2018-09-20T08:57:34Z</time>
      </trkpt>
      <trkpt lat="45.93818" lon="4.78174">
        <ele>182</ele>
        <time>2018-09-20T08:57:35Z</time>
      </trkpt>
      <trkpt lat="45.93815" lon="4.78185">
        <ele>182</ele>
        <time>2018-09-20T08:57:37Z</time>
      </trkpt>
      <trkpt lat="45.93813" lon="4.78192">
        <ele>182</ele>
        <time>2018-09-20T08:57:38Z</time>
      </trkpt>
      <trkpt lat="45.93811" lon="4.78197">
        <ele>182</ele>
        <time>2018-09-20T08:57:39Z</time>
      </trkpt>
      <trkpt lat="45.93811" lon="4.78205">
        <ele>182</ele>
        <time>2018-09-20T08:57:40Z</time>
      </trkpt>
      <trkpt lat="45.93808" lon="4.78216">
        <ele>182</ele>
        <time>2018-09-20T08:57:42Z</time>
      </trkpt>
      <trkpt lat="45.93807" lon="4.78219">
        <ele>182</ele>
        <time>2018-09-20T08:57:43Z</time>
      </trkpt>
      <trkpt lat="45.93806" lon="4.78221">
        <ele>182</ele>
        <time>2018-09-20T08:57:44Z</time>
      </trkpt>
      <trkpt lat="45.93802" lon="4.7823">
        <ele>182</ele>
        <time>2018-09-20T08:57:45Z</time>
      </trkpt>
      <trkpt lat="45.93799" lon="4.78236">
        <ele>182</ele>
        <time>2018-09-20T08:57:46Z</time>
      </trkpt>
      <trkpt lat="45.93796" lon="4.78243">
        <ele>182</ele>
        <time>2018-09-20T08:57:47Z</time>
      </trkpt>
      <trkpt lat="45.93793" lon="4.78248">
        <ele>182</ele>
        <time>2018-09-20T08:57:48Z</time>
      </trkpt>
      <trkpt lat="45.93792" lon="4.78255">
        <ele>183</ele>
        <time>2018-09-20T08:57:49Z</time>
      </trkpt>
      <trkpt lat="45.93791" lon="4.78262">
        <ele>183</ele>
        <time>2018-09-20T08:57:50Z</time>
      </trkpt>
      <trkpt lat="45.93791" lon="4.78269">
        <ele>183</ele>
        <time>2018-09-20T08:57:51Z</time>
      </trkpt>
      <trkpt lat="45.93788" lon="4.78281">
        <ele>183</ele>
        <time>2018-09-20T08:57:53Z</time>
      </trkpt>
      <trkpt lat="45.93787" lon="4.78286">
        <ele>183</ele>
        <time>2018-09-20T08:57:54Z</time>
      </trkpt>
      <trkpt lat="45.93784" lon="4.78292">
        <ele>183</ele>
        <time>2018-09-20T08:57:55Z</time>
      </trkpt>
      <trkpt lat="45.93781" lon="4.78299">
        <ele>183</ele>
        <time>2018-09-20T08:57:56Z</time>
      </trkpt>
      <trkpt lat="45.93779" lon="4.78305">
        <ele>183</ele>
        <time>2018-09-20T08:57:57Z</time>
      </trkpt>
      <trkpt lat="45.93777" lon="4.78312">
        <ele>183</ele>
        <time>2018-09-20T08:57:58Z</time>
      </trkpt>
      <trkpt lat="45.93775" lon="4.78319">
        <ele>183</ele>
        <time>2018-09-20T08:57:59Z</time>
      </trkpt>
      <trkpt lat="45.93773" lon="4.78326">
        <ele>183</ele>
        <time>2018-09-20T08:58:00Z</time>
      </trkpt>
      <trkpt lat="45.9377" lon="4.78333">
        <ele>183</ele>
        <time>2018-09-20T08:58:01Z</time>
      </trkpt>
      <trkpt lat="45.93769" lon="4.78341">
        <ele>183</ele>
        <time>2018-09-20T08:58:02Z</time>
      </trkpt>
      <trkpt lat="45.93766" lon="4.78347">
        <ele>183</ele>
        <time>2018-09-20T08:58:03Z</time>
      </trkpt>
      <trkpt lat="45.93764" lon="4.78354">
        <ele>183</ele>
        <time>2018-09-20T08:58:04Z</time>
      </trkpt>
      <trkpt lat="45.93762" lon="4.78362">
        <ele>183</ele>
        <time>2018-09-20T08:58:05Z</time>
      </trkpt>
      <trkpt lat="45.93761" lon="4.78371">
        <ele>183</ele>
        <time>2018-09-20T08:58:06Z</time>
      </trkpt>
      <trkpt lat="45.9376" lon="4.78377">
        <ele>183</ele>
        <time>2018-09-20T08:58:07Z</time>
      </trkpt>
      <trkpt lat="45.93758" lon="4.78384">
        <ele>183</ele>
        <time>2018-09-20T08:58:08Z</time>
      </trkpt>
      <trkpt lat="45.93757" lon="4.78391">
        <ele>183</ele>
        <time>2018-09-20T08:58:09Z</time>
      </trkpt>
      <trkpt lat="45.93755" lon="4.78398">
        <ele>183</ele>
        <time>2018-09-20T08:58:10Z</time>
      </trkpt>
      <trkpt lat="45.93752" lon="4.7841">
        <ele>182</ele>
        <time>2018-09-20T08:58:12Z</time>
      </trkpt>
      <trkpt lat="45.9375" lon="4.78416">
        <ele>181</ele>
        <time>2018-09-20T08:58:13Z</time>
      </trkpt>
      <trkpt lat="45.93749" lon="4.78424">
        <ele>181</ele>
        <time>2018-09-20T08:58:14Z</time>
      </trkpt>
      <trkpt lat="45.93748" lon="4.78431">
        <ele>180</ele>
        <time>2018-09-20T08:58:15Z</time>
      </trkpt>
      <trkpt lat="45.93745" lon="4.78439">
        <ele>180</ele>
        <time>2018-09-20T08:58:16Z</time>
      </trkpt>
      <trkpt lat="45.93744" lon="4.78449">
        <ele>180</ele>
        <time>2018-09-20T08:58:17Z</time>
      </trkpt>
      <trkpt lat="45.93742" lon="4.78457">
        <ele>180</ele>
        <time>2018-09-20T08:58:18Z</time>
      </trkpt>
      <trkpt lat="45.93739" lon="4.78465">
        <ele>180</ele>
        <time>2018-09-20T08:58:19Z</time>
      </trkpt>
      <trkpt lat="45.93736" lon="4.78473">
        <ele>180</ele>
        <time>2018-09-20T08:58:20Z</time>
      </trkpt>
      <trkpt lat="45.93734" lon="4.78482">
        <ele>180</ele>
        <time>2018-09-20T08:58:21Z</time>
      </trkpt>
      <trkpt lat="45.93731" lon="4.7849">
        <ele>180</ele>
        <time>2018-09-20T08:58:22Z</time>
      </trkpt>
      <trkpt lat="45.93729" lon="4.78498">
        <ele>180</ele>
        <time>2018-09-20T08:58:23Z</time>
      </trkpt>
      <trkpt lat="45.93726" lon="4.78507">
        <ele>179</ele>
        <time>2018-09-20T08:58:24Z</time>
      </trkpt>
      <trkpt lat="45.93724" lon="4.78517">
        <ele>179</ele>
        <time>2018-09-20T08:58:25Z</time>
      </trkpt>
      <trkpt lat="45.93722" lon="4.78526">
        <ele>178</ele>
        <time>2018-09-20T08:58:26Z</time>
      </trkpt>
      <trkpt lat="45.93719" lon="4.78535">
        <ele>178</ele>
        <time>2018-09-20T08:58:27Z</time>
      </trkpt>
      <trkpt lat="45.93717" lon="4.78546">
        <ele>178</ele>
        <time>2018-09-20T08:58:28Z</time>
      </trkpt>
      <trkpt lat="45.93715" lon="4.78556">
        <ele>178</ele>
        <time>2018-09-20T08:58:29Z</time>
      </trkpt>
      <trkpt lat="45.93712" lon="4.78565">
        <ele>178</ele>
        <time>2018-09-20T08:58:30Z</time>
      </trkpt>
      <trkpt lat="45.9371" lon="4.78574">
        <ele>177</ele>
        <time>2018-09-20T08:58:31Z</time>
      </trkpt>
      <trkpt lat="45.93708" lon="4.78583">
        <ele>176</ele>
        <time>2018-09-20T08:58:32Z</time>
      </trkpt>
      <trkpt lat="45.93706" lon="4.78592">
        <ele>176</ele>
        <time>2018-09-20T08:58:33Z</time>
      </trkpt>
      <trkpt lat="45.93704" lon="4.78601">
        <ele>176</ele>
        <time>2018-09-20T08:58:34Z</time>
      </trkpt>
      <trkpt lat="45.93701" lon="4.78608">
        <ele>176</ele>
        <time>2018-09-20T08:58:35Z</time>
      </trkpt>
      <trkpt lat="45.93699" lon="4.7862">
        <ele>176</ele>
        <time>2018-09-20T08:58:37Z</time>
      </trkpt>
      <trkpt lat="45.93701" lon="4.78627">
        <ele>176</ele>
        <time>2018-09-20T08:58:38Z</time>
      </trkpt>
      <trkpt lat="45.93709" lon="4.78631">
        <ele>176</ele>
        <time>2018-09-20T08:58:40Z</time>
      </trkpt>
      <trkpt lat="45.93714" lon="4.78632">
        <ele>176</ele>
        <time>2018-09-20T08:58:41Z</time>
      </trkpt>
      <trkpt lat="45.9372" lon="4.78635">
        <ele>177</ele>
        <time>2018-09-20T08:58:42Z</time>
      </trkpt>
      <trkpt lat="45.93723" lon="4.7863">
        <ele>177</ele>
        <time>2018-09-20T08:58:43Z</time>
      </trkpt>
      <trkpt lat="45.93728" lon="4.78626">
        <ele>177</ele>
        <time>2018-09-20T08:58:45Z</time>
      </trkpt>
      <trkpt lat="45.93733" lon="4.78626">
        <ele>177</ele>
        <time>2018-09-20T08:58:46Z</time>
      </trkpt>
      <trkpt lat="45.93739" lon="4.78625">
        <ele>177</ele>
        <time>2018-09-20T08:58:49Z</time>
      </trkpt>
      <trkpt lat="45.93742" lon="4.78625">
        <ele>177</ele>
        <time>2018-09-20T08:58:50Z</time>
      </trkpt>
      <trkpt lat="45.93748" lon="4.78622">
        <ele>177</ele>
        <time>2018-09-20T08:58:52Z</time>
      </trkpt>
      <trkpt lat="45.93751" lon="4.78621">
        <ele>181</ele>
        <time>2018-09-20T08:58:53Z</time>
      </trkpt>
      <trkpt lat="45.93757" lon="4.7862">
        <ele>181</ele>
        <time>2018-09-20T08:58:55Z</time>
      </trkpt>
      <trkpt lat="45.9376" lon="4.78619">
        <ele>181</ele>
        <time>2018-09-20T08:58:56Z</time>
      </trkpt>
      <trkpt lat="45.93767" lon="4.78618">
        <ele>181</ele>
        <time>2018-09-20T08:58:58Z</time>
      </trkpt>
      <trkpt lat="45.9377" lon="4.78617">
        <ele>181</ele>
        <time>2018-09-20T08:58:59Z</time>
      </trkpt>
      <trkpt lat="45.93777" lon="4.78615">
        <ele>181</ele>
        <time>2018-09-20T08:59:01Z</time>
      </trkpt>
      <trkpt lat="45.9378" lon="4.78614">
        <ele>181</ele>
        <time>2018-09-20T08:59:02Z</time>
      </trkpt>
      <trkpt lat="45.9379" lon="4.78612">
        <ele>182</ele>
        <time>2018-09-20T08:59:03Z</time>
      </trkpt>
      <trkpt lat="45.93796" lon="4.78609">
        <ele>182</ele>
        <time>2018-09-20T08:59:05Z</time>
      </trkpt>
      <trkpt lat="45.938" lon="4.78608">
        <ele>182</ele>
        <time>2018-09-20T08:59:06Z</time>
      </trkpt>
      <trkpt lat="45.93807" lon="4.78605">
        <ele>183</ele>
        <time>2018-09-20T08:59:08Z</time>
      </trkpt>
      <trkpt lat="45.93809" lon="4.78605">
        <ele>183</ele>
        <time>2018-09-20T08:59:09Z</time>
      </trkpt>
      <trkpt lat="45.93816" lon="4.78603">
        <ele>184</ele>
        <time>2018-09-20T08:59:12Z</time>
      </trkpt>
      <trkpt lat="45.93819" lon="4.78603">
        <ele>184</ele>
        <time>2018-09-20T08:59:13Z</time>
      </trkpt>
      <trkpt lat="45.93827" lon="4.786">
        <ele>184</ele>
        <time>2018-09-20T08:59:16Z</time>
      </trkpt>
      <trkpt lat="45.9383" lon="4.78599">
        <ele>185</ele>
        <time>2018-09-20T08:59:17Z</time>
      </trkpt>
      <trkpt lat="45.93837" lon="4.78597">
        <ele>187</ele>
        <time>2018-09-20T08:59:20Z</time>
      </trkpt>
      <trkpt lat="45.93839" lon="4.78597">
        <ele>187</ele>
        <time>2018-09-20T08:59:21Z</time>
      </trkpt>
      <trkpt lat="45.93846" lon="4.78596">
        <ele>188</ele>
        <time>2018-09-20T08:59:24Z</time>
      </trkpt>
      <trkpt lat="45.93848" lon="4.78596">
        <ele>188</ele>
        <time>2018-09-20T08:59:25Z</time>
      </trkpt>
      <trkpt lat="45.93855" lon="4.78595">
        <ele>188</ele>
        <time>2018-09-20T08:59:28Z</time>
      </trkpt>
      <trkpt lat="45.93858" lon="4.78594">
        <ele>188</ele>
        <time>2018-09-20T08:59:29Z</time>
      </trkpt>
      <trkpt lat="45.93866" lon="4.78592">
        <ele>188</ele>
        <time>2018-09-20T08:59:33Z</time>
      </trkpt>
      <trkpt lat="45.93869" lon="4.78592">
        <ele>189</ele>
        <time>2018-09-20T08:59:34Z</time>
      </trkpt>
      <trkpt lat="45.93875" lon="4.78591">
        <ele>189</ele>
        <time>2018-09-20T08:59:37Z</time>
      </trkpt>
      <trkpt lat="45.93878" lon="4.78591">
        <ele>189</ele>
        <time>2018-09-20T08:59:38Z</time>
      </trkpt>
      <trkpt lat="45.93886" lon="4.78589">
        <ele>190</ele>
        <time>2018-09-20T08:59:42Z</time>
      </trkpt>
      <trkpt lat="45.93888" lon="4.78588">
        <ele>190</ele>
        <time>2018-09-20T08:59:43Z</time>
      </trkpt>
      <trkpt lat="45.93896" lon="4.78586">
        <ele>190</ele>
        <time>2018-09-20T08:59:47Z</time>
      </trkpt>
      <trkpt lat="45.93898" lon="4.78585">
        <ele>191</ele>
        <time>2018-09-20T08:59:48Z</time>
      </trkpt>
      <trkpt lat="45.93906" lon="4.78583">
        <ele>192</ele>
        <time>2018-09-20T08:59:52Z</time>
      </trkpt>
      <trkpt lat="45.93908" lon="4.78582">
        <ele>192</ele>
        <time>2018-09-20T08:59:53Z</time>
      </trkpt>
      <trkpt lat="45.93915" lon="4.78578">
        <ele>193</ele>
        <time>2018-09-20T08:59:57Z</time>
      </trkpt>
      <trkpt lat="45.93917" lon="4.78577">
        <ele>194</ele>
        <time>2018-09-20T08:59:58Z</time>
      </trkpt>
      <trkpt lat="45.93925" lon="4.7857">
        <ele>195</ele>
        <time>2018-09-20T09:00:02Z</time>
      </trkpt>
      <trkpt lat="45.93927" lon="4.78569">
        <ele>196</ele>
        <time>2018-09-20T09:00:03Z</time>
      </trkpt>
      <trkpt lat="45.93932" lon="4.78574">
        <ele>196</ele>
        <time>2018-09-20T09:00:06Z</time>
      </trkpt>
      <trkpt lat="45.93934" lon="4.78584">
        <ele>195</ele>
        <time>2018-09-20T09:00:07Z</time>
      </trkpt>
      <trkpt lat="45.93934" lon="4.78593">
        <ele>195</ele>
        <time>2018-09-20T09:00:09Z</time>
      </trkpt>
      <trkpt lat="45.93934" lon="4.78601">
        <ele>195</ele>
        <time>2018-09-20T09:00:10Z</time>
      </trkpt>
      <trkpt lat="45.93934" lon="4.7861">
        <ele>195</ele>
        <time>2018-09-20T09:00:13Z</time>
      </trkpt>
      <trkpt lat="45.93935" lon="4.78621">
        <ele>195</ele>
        <time>2018-09-20T09:00:14Z</time>
      </trkpt>
      <trkpt lat="45.93935" lon="4.78631">
        <ele>195</ele>
        <time>2018-09-20T09:00:17Z</time>
      </trkpt>
      <trkpt lat="45.93936" lon="4.78642">
        <ele>195</ele>
        <time>2018-09-20T09:00:18Z</time>
      </trkpt>
      <trkpt lat="45.93936" lon="4.78649">
        <ele>194</ele>
        <time>2018-09-20T09:00:19Z</time>
      </trkpt>
      <trkpt lat="45.93936" lon="4.78656">
        <ele>194</ele>
        <time>2018-09-20T09:00:20Z</time>
      </trkpt>
      <trkpt lat="45.93937" lon="4.78665">
        <ele>194</ele>
        <time>2018-09-20T09:00:22Z</time>
      </trkpt>
      <trkpt lat="45.93937" lon="4.78673">
        <ele>193</ele>
        <time>2018-09-20T09:00:23Z</time>
      </trkpt>
      <trkpt lat="45.93938" lon="4.78685">
        <ele>194</ele>
        <time>2018-09-20T09:00:25Z</time>
      </trkpt>
      <trkpt lat="45.93938" lon="4.78692">
        <ele>194</ele>
        <time>2018-09-20T09:00:26Z</time>
      </trkpt>
      <trkpt lat="45.93937" lon="4.78698">
        <ele>194</ele>
        <time>2018-09-20T09:00:27Z</time>
      </trkpt>
      <trkpt lat="45.93936" lon="4.78706">
        <ele>194</ele>
        <time>2018-09-20T09:00:28Z</time>
      </trkpt>
      <trkpt lat="45.93938" lon="4.78715">
        <ele>194</ele>
        <time>2018-09-20T09:00:29Z</time>
      </trkpt>
      <trkpt lat="45.93937" lon="4.78722">
        <ele>194</ele>
        <time>2018-09-20T09:00:30Z</time>
      </trkpt>
      <trkpt lat="45.93938" lon="4.78731">
        <ele>194</ele>
        <time>2018-09-20T09:00:31Z</time>
      </trkpt>
      <trkpt lat="45.93937" lon="4.78736">
        <ele>193</ele>
        <time>2018-09-20T09:00:32Z</time>
      </trkpt>
      <trkpt lat="45.93937" lon="4.78744">
        <ele>193</ele>
        <time>2018-09-20T09:00:33Z</time>
      </trkpt>
      <trkpt lat="45.93935" lon="4.7875">
        <ele>193</ele>
        <time>2018-09-20T09:00:34Z</time>
      </trkpt>
      <trkpt lat="45.93937" lon="4.78756">
        <ele>193</ele>
        <time>2018-09-20T09:00:35Z</time>
      </trkpt>
      <trkpt lat="45.93938" lon="4.78765">
        <ele>193</ele>
        <time>2018-09-20T09:00:36Z</time>
      </trkpt>
      <trkpt lat="45.93936" lon="4.78775">
        <ele>194</ele>
        <time>2018-09-20T09:00:38Z</time>
      </trkpt>
      <trkpt lat="45.93937" lon="4.78783">
        <ele>194</ele>
        <time>2018-09-20T09:00:39Z</time>
      </trkpt>
      <trkpt lat="45.93937" lon="4.7879">
        <ele>194</ele>
        <time>2018-09-20T09:00:40Z</time>
      </trkpt>
      <trkpt lat="45.93937" lon="4.78797">
        <ele>194</ele>
        <time>2018-09-20T09:00:41Z</time>
      </trkpt>
      <trkpt lat="45.93936" lon="4.78803">
        <ele>194</ele>
        <time>2018-09-20T09:00:42Z</time>
      </trkpt>
      <trkpt lat="45.93937" lon="4.78811">
        <ele>194</ele>
        <time>2018-09-20T09:00:43Z</time>
      </trkpt>
      <trkpt lat="45.93937" lon="4.78818">
        <ele>194</ele>
        <time>2018-09-20T09:00:44Z</time>
      </trkpt>
      <trkpt lat="45.93937" lon="4.78825">
        <ele>193</ele>
        <time>2018-09-20T09:00:45Z</time>
      </trkpt>
      <trkpt lat="45.93939" lon="4.78834">
        <ele>193</ele>
        <time>2018-09-20T09:00:46Z</time>
      </trkpt>
      <trkpt lat="45.9394" lon="4.7884">
        <ele>193</ele>
        <time>2018-09-20T09:00:47Z</time>
      </trkpt>
      <trkpt lat="45.9394" lon="4.78848">
        <ele>193</ele>
        <time>2018-09-20T09:00:48Z</time>
      </trkpt>
      <trkpt lat="45.9394" lon="4.78854">
        <ele>194</ele>
        <time>2018-09-20T09:00:49Z</time>
      </trkpt>
      <trkpt lat="45.93941" lon="4.78866">
        <ele>194</ele>
        <time>2018-09-20T09:00:51Z</time>
      </trkpt>
      <trkpt lat="45.93941" lon="4.78873">
        <ele>194</ele>
        <time>2018-09-20T09:00:52Z</time>
      </trkpt>
      <trkpt lat="45.93941" lon="4.78879">
        <ele>194</ele>
        <time>2018-09-20T09:00:53Z</time>
      </trkpt>
      <trkpt lat="45.93941" lon="4.78886">
        <ele>194</ele>
        <time>2018-09-20T09:00:54Z</time>
      </trkpt>
      <trkpt lat="45.93942" lon="4.78894">
        <ele>193</ele>
        <time>2018-09-20T09:00:55Z</time>
      </trkpt>
      <trkpt lat="45.93942" lon="4.78899">
        <ele>193</ele>
        <time>2018-09-20T09:00:56Z</time>
      </trkpt>
      <trkpt lat="45.93942" lon="4.78909">
        <ele>193</ele>
        <time>2018-09-20T09:00:58Z</time>
      </trkpt>
      <trkpt lat="45.93941" lon="4.78916">
        <ele>193</ele>
        <time>2018-09-20T09:00:59Z</time>
      </trkpt>
      <trkpt lat="45.93942" lon="4.78929">
        <ele>193</ele>
        <time>2018-09-20T09:01:01Z</time>
      </trkpt>
      <trkpt lat="45.93942" lon="4.78935">
        <ele>193</ele>
        <time>2018-09-20T09:01:02Z</time>
      </trkpt>
      <trkpt lat="45.93943" lon="4.78946">
        <ele>194</ele>
        <time>2018-09-20T09:01:04Z</time>
      </trkpt>
      <trkpt lat="45.93943" lon="4.78953">
        <ele>194</ele>
        <time>2018-09-20T09:01:05Z</time>
      </trkpt>
      <trkpt lat="45.93944" lon="4.7896">
        <ele>194</ele>
        <time>2018-09-20T09:01:06Z</time>
      </trkpt>
      <trkpt lat="45.93945" lon="4.78967">
        <ele>194</ele>
        <time>2018-09-20T09:01:07Z</time>
      </trkpt>
      <trkpt lat="45.93945" lon="4.78973">
        <ele>194</ele>
        <time>2018-09-20T09:01:08Z</time>
      </trkpt>
      <trkpt lat="45.93945" lon="4.7898">
        <ele>194</ele>
        <time>2018-09-20T09:01:09Z</time>
      </trkpt>
      <trkpt lat="45.93945" lon="4.78992">
        <ele>194</ele>
        <time>2018-09-20T09:01:11Z</time>
      </trkpt>
      <trkpt lat="45.93945" lon="4.78998">
        <ele>194</ele>
        <time>2018-09-20T09:01:12Z</time>
      </trkpt>
      <trkpt lat="45.93945" lon="4.79006">
        <ele>195</ele>
        <time>2018-09-20T09:01:15Z</time>
      </trkpt>
      <trkpt lat="45.93944" lon="4.79015">
        <ele>195</ele>
        <time>2018-09-20T09:01:16Z</time>
      </trkpt>
      <trkpt lat="45.93944" lon="4.79024">
        <ele>195</ele>
        <time>2018-09-20T09:01:18Z</time>
      </trkpt>
      <trkpt lat="45.93945" lon="4.79031">
        <ele>195</ele>
        <time>2018-09-20T09:01:19Z</time>
      </trkpt>
      <trkpt lat="45.93946" lon="4.79042">
        <ele>195</ele>
        <time>2018-09-20T09:01:21Z</time>
      </trkpt>
      <trkpt lat="45.93946" lon="4.79048">
        <ele>196</ele>
        <time>2018-09-20T09:01:22Z</time>
      </trkpt>
      <trkpt lat="45.93945" lon="4.79059">
        <ele>195</ele>
        <time>2018-09-20T09:01:24Z</time>
      </trkpt>
      <trkpt lat="45.93944" lon="4.79065">
        <ele>195</ele>
        <time>2018-09-20T09:01:25Z</time>
      </trkpt>
      <trkpt lat="45.93943" lon="4.79077">
        <ele>195</ele>
        <time>2018-09-20T09:01:27Z</time>
      </trkpt>
      <trkpt lat="45.93944" lon="4.79083">
        <ele>195</ele>
        <time>2018-09-20T09:01:28Z</time>
      </trkpt>
      <trkpt lat="45.93943" lon="4.7909">
        <ele>196</ele>
        <time>2018-09-20T09:01:29Z</time>
      </trkpt>
      <trkpt lat="45.93943" lon="4.79097">
        <ele>196</ele>
        <time>2018-09-20T09:01:30Z</time>
      </trkpt>
      <trkpt lat="45.93945" lon="4.79105">
        <ele>196</ele>
        <time>2018-09-20T09:01:31Z</time>
      </trkpt>
      <trkpt lat="45.93945" lon="4.7911">
        <ele>196</ele>
        <time>2018-09-20T09:01:32Z</time>
      </trkpt>
      <trkpt lat="45.93945" lon="4.79122">
        <ele>196</ele>
        <time>2018-09-20T09:01:34Z</time>
      </trkpt>
      <trkpt lat="45.93945" lon="4.79129">
        <ele>196</ele>
        <time>2018-09-20T09:01:35Z</time>
      </trkpt>
      <trkpt lat="45.93946" lon="4.79135">
        <ele>196</ele>
        <time>2018-09-20T09:01:36Z</time>
      </trkpt>
      <trkpt lat="45.93946" lon="4.79142">
        <ele>196</ele>
        <time>2018-09-20T09:01:37Z</time>
      </trkpt>
      <trkpt lat="45.93947" lon="4.7915">
        <ele>196</ele>
        <time>2018-09-20T09:01:38Z</time>
      </trkpt>
      <trkpt lat="45.93947" lon="4.79155">
        <ele>196</ele>
        <time>2018-09-20T09:01:39Z</time>
      </trkpt>
      <trkpt lat="45.93947" lon="4.79168">
        <ele>196</ele>
        <time>2018-09-20T09:01:41Z</time>
      </trkpt>
      <trkpt lat="45.93948" lon="4.79174">
        <ele>196</ele>
        <time>2018-09-20T09:01:42Z</time>
      </trkpt>
      <trkpt lat="45.93948" lon="4.79185">
        <ele>197</ele>
        <time>2018-09-20T09:01:44Z</time>
      </trkpt>
      <trkpt lat="45.93949" lon="4.79191">
        <ele>197</ele>
        <time>2018-09-20T09:01:45Z</time>
      </trkpt>
      <trkpt lat="45.93949" lon="4.79198">
        <ele>197</ele>
        <time>2018-09-20T09:01:47Z</time>
      </trkpt>
      <trkpt lat="45.93949" lon="4.79207">
        <ele>197</ele>
        <time>2018-09-20T09:01:48Z</time>
      </trkpt>
      <trkpt lat="45.93949" lon="4.7922">
        <ele>197</ele>
        <time>2018-09-20T09:01:50Z</time>
      </trkpt>
      <trkpt lat="45.93949" lon="4.79225">
        <ele>197</ele>
        <time>2018-09-20T09:01:51Z</time>
      </trkpt>
      <trkpt lat="45.93949" lon="4.79237">
        <ele>197</ele>
        <time>2018-09-20T09:01:53Z</time>
      </trkpt>
      <trkpt lat="45.93949" lon="4.79245">
        <ele>197</ele>
        <time>2018-09-20T09:01:54Z</time>
      </trkpt>
      <trkpt lat="45.93951" lon="4.79252">
        <ele>198</ele>
        <time>2018-09-20T09:01:55Z</time>
      </trkpt>
      <trkpt lat="45.93951" lon="4.79258">
        <ele>198</ele>
        <time>2018-09-20T09:01:56Z</time>
      </trkpt>
      <trkpt lat="45.93951" lon="4.79265">
        <ele>198</ele>
        <time>2018-09-20T09:01:57Z</time>
      </trkpt>
      <trkpt lat="45.93951" lon="4.79272">
        <ele>198</ele>
        <time>2018-09-20T09:01:58Z</time>
      </trkpt>
      <trkpt lat="45.93951" lon="4.79279">
        <ele>198</ele>
        <time>2018-09-20T09:01:59Z</time>
      </trkpt>
      <trkpt lat="45.93951" lon="4.79285">
        <ele>198</ele>
        <time>2018-09-20T09:02:00Z</time>
      </trkpt>
      <trkpt lat="45.93952" lon="4.79295">
        <ele>198</ele>
        <time>2018-09-20T09:02:02Z</time>
      </trkpt>
      <trkpt lat="45.93952" lon="4.79298">
        <ele>198</ele>
        <time>2018-09-20T09:02:03Z</time>
      </trkpt>
      <trkpt lat="45.93953" lon="4.79307">
        <ele>199</ele>
        <time>2018-09-20T09:02:04Z</time>
      </trkpt>
      <trkpt lat="45.93954" lon="4.79312">
        <ele>199</ele>
        <time>2018-09-20T09:02:05Z</time>
      </trkpt>
      <trkpt lat="45.93954" lon="4.79322">
        <ele>199</ele>
        <time>2018-09-20T09:02:07Z</time>
      </trkpt>
      <trkpt lat="45.93953" lon="4.79329">
        <ele>199</ele>
        <time>2018-09-20T09:02:08Z</time>
      </trkpt>
      <trkpt lat="45.93954" lon="4.79341">
        <ele>200</ele>
        <time>2018-09-20T09:02:10Z</time>
      </trkpt>
      <trkpt lat="45.93954" lon="4.79346">
        <ele>200</ele>
        <time>2018-09-20T09:02:11Z</time>
      </trkpt>
      <trkpt lat="45.93953" lon="4.79356">
        <ele>201</ele>
        <time>2018-09-20T09:02:13Z</time>
      </trkpt>
      <trkpt lat="45.93952" lon="4.79361">
        <ele>201</ele>
        <time>2018-09-20T09:02:14Z</time>
      </trkpt>
      <trkpt lat="45.93951" lon="4.79372">
        <ele>201</ele>
        <time>2018-09-20T09:02:16Z</time>
      </trkpt>
      <trkpt lat="45.93951" lon="4.79377">
        <ele>201</ele>
        <time>2018-09-20T09:02:17Z</time>
      </trkpt>
      <trkpt lat="45.93951" lon="4.79389">
        <ele>201</ele>
        <time>2018-09-20T09:02:20Z</time>
      </trkpt>
      <trkpt lat="45.9395" lon="4.79398">
        <ele>201</ele>
        <time>2018-09-20T09:02:21Z</time>
      </trkpt>
      <trkpt lat="45.9395" lon="4.79409">
        <ele>201</ele>
        <time>2018-09-20T09:02:25Z</time>
      </trkpt>
      <trkpt lat="45.9395" lon="4.79419">
        <ele>202</ele>
        <time>2018-09-20T09:02:26Z</time>
      </trkpt>
      <trkpt lat="45.9395" lon="4.79424">
        <ele>202</ele>
        <time>2018-09-20T09:02:28Z</time>
      </trkpt>
      <trkpt lat="45.9395" lon="4.79432">
        <ele>202</ele>
        <time>2018-09-20T09:02:29Z</time>
      </trkpt>
      <trkpt lat="45.93949" lon="4.79443">
        <ele>202</ele>
        <time>2018-09-20T09:02:32Z</time>
      </trkpt>
      <trkpt lat="45.93948" lon="4.79446">
        <ele>202</ele>
        <time>2018-09-20T09:02:33Z</time>
      </trkpt>
      <trkpt lat="45.93948" lon="4.79457">
        <ele>202</ele>
        <time>2018-09-20T09:02:34Z</time>
      </trkpt>
      <trkpt lat="45.93948" lon="4.79463">
        <ele>202</ele>
        <time>2018-09-20T09:02:35Z</time>
      </trkpt>
      <trkpt lat="45.93948" lon="4.79476">
        <ele>202</ele>
        <time>2018-09-20T09:02:38Z</time>
      </trkpt>
      <trkpt lat="45.93949" lon="4.7948">
        <ele>202</ele>
        <time>2018-09-20T09:02:39Z</time>
      </trkpt>
      <trkpt lat="45.9395" lon="4.79492">
        <ele>202</ele>
        <time>2018-09-20T09:02:42Z</time>
      </trkpt>
      <trkpt lat="45.9395" lon="4.79496">
        <ele>202</ele>
        <time>2018-09-20T09:02:43Z</time>
      </trkpt>
      <trkpt lat="45.93951" lon="4.79505">
        <ele>204</ele>
        <time>2018-09-20T09:02:45Z</time>
      </trkpt>
      <trkpt lat="45.93951" lon="4.79509">
        <ele>204</ele>
        <time>2018-09-20T09:02:46Z</time>
      </trkpt>
      <trkpt lat="45.93952" lon="4.79522">
        <ele>204</ele>
        <time>2018-09-20T09:02:49Z</time>
      </trkpt>
      <trkpt lat="45.93953" lon="4.79526">
        <ele>204</ele>
        <time>2018-09-20T09:02:50Z</time>
      </trkpt>
      <trkpt lat="45.93954" lon="4.79536">
        <ele>205</ele>
        <time>2018-09-20T09:02:52Z</time>
      </trkpt>
      <trkpt lat="45.93954" lon="4.79541">
        <ele>205</ele>
        <time>2018-09-20T09:02:53Z</time>
      </trkpt>
      <trkpt lat="45.93955" lon="4.79545">
        <ele>205</ele>
        <time>2018-09-20T09:02:54Z</time>
      </trkpt>
      <trkpt lat="45.93956" lon="4.79559">
        <ele>205</ele>
        <time>2018-09-20T09:02:55Z</time>
      </trkpt>
      <trkpt lat="45.93957" lon="4.79566">
        <ele>205</ele>
        <time>2018-09-20T09:02:57Z</time>
      </trkpt>
      <trkpt lat="45.93957" lon="4.79574">
        <ele>205</ele>
        <time>2018-09-20T09:02:58Z</time>
      </trkpt>
      <trkpt lat="45.93957" lon="4.79584">
        <ele>207</ele>
        <time>2018-09-20T09:03:01Z</time>
      </trkpt>
      <trkpt lat="45.93959" lon="4.79594">
        <ele>207</ele>
        <time>2018-09-20T09:03:02Z</time>
      </trkpt>
      <trkpt lat="45.93961" lon="4.79605">
        <ele>207</ele>
        <time>2018-09-20T09:03:04Z</time>
      </trkpt>
      <trkpt lat="45.93961" lon="4.79611">
        <ele>207</ele>
        <time>2018-09-20T09:03:05Z</time>
      </trkpt>
      <trkpt lat="45.93962" lon="4.79622">
        <ele>207</ele>
        <time>2018-09-20T09:03:07Z</time>
      </trkpt>
      <trkpt lat="45.93963" lon="4.79628">
        <ele>207</ele>
        <time>2018-09-20T09:03:08Z</time>
      </trkpt>
      <trkpt lat="45.93964" lon="4.79639">
        <ele>207</ele>
        <time>2018-09-20T09:03:10Z</time>
      </trkpt>
      <trkpt lat="45.93964" lon="4.79642">
        <ele>207</ele>
        <time>2018-09-20T09:03:11Z</time>
      </trkpt>
      <trkpt lat="45.93965" lon="4.79655">
        <ele>207</ele>
        <time>2018-09-20T09:03:14Z</time>
      </trkpt>
      <trkpt lat="45.93965" lon="4.79658">
        <ele>207</ele>
        <time>2018-09-20T09:03:15Z</time>
      </trkpt>
      <trkpt lat="45.93966" lon="4.79668">
        <ele>207</ele>
        <time>2018-09-20T09:03:16Z</time>
      </trkpt>
      <trkpt lat="45.93966" lon="4.79673">
        <ele>207</ele>
        <time>2018-09-20T09:03:17Z</time>
      </trkpt>
      <trkpt lat="45.93967" lon="4.79682">
        <ele>207</ele>
        <time>2018-09-20T09:03:20Z</time>
      </trkpt>
      <trkpt lat="45.93967" lon="4.79692">
        <ele>207</ele>
        <time>2018-09-20T09:03:21Z</time>
      </trkpt>
      <trkpt lat="45.93968" lon="4.79705">
        <ele>207</ele>
        <time>2018-09-20T09:03:23Z</time>
      </trkpt>
      <trkpt lat="45.93969" lon="4.79711">
        <ele>207</ele>
        <time>2018-09-20T09:03:24Z</time>
      </trkpt>
      <trkpt lat="45.93969" lon="4.79717">
        <ele>207</ele>
        <time>2018-09-20T09:03:25Z</time>
      </trkpt>
      <trkpt lat="45.9397" lon="4.79724">
        <ele>207</ele>
        <time>2018-09-20T09:03:26Z</time>
      </trkpt>
      <trkpt lat="45.9397" lon="4.7973">
        <ele>207</ele>
        <time>2018-09-20T09:03:27Z</time>
      </trkpt>
      <trkpt lat="45.93971" lon="4.79738">
        <ele>207</ele>
        <time>2018-09-20T09:03:28Z</time>
      </trkpt>
      <trkpt lat="45.93972" lon="4.79746">
        <ele>207</ele>
        <time>2018-09-20T09:03:29Z</time>
      </trkpt>
      <trkpt lat="45.93973" lon="4.79753">
        <ele>206</ele>
        <time>2018-09-20T09:03:30Z</time>
      </trkpt>
      <trkpt lat="45.93973" lon="4.79759">
        <ele>206</ele>
        <time>2018-09-20T09:03:31Z</time>
      </trkpt>
      <trkpt lat="45.93973" lon="4.79767">
        <ele>206</ele>
        <time>2018-09-20T09:03:32Z</time>
      </trkpt>
      <trkpt lat="45.93974" lon="4.79779">
        <ele>206</ele>
        <time>2018-09-20T09:03:34Z</time>
      </trkpt>
      <trkpt lat="45.93974" lon="4.79787">
        <ele>206</ele>
        <time>2018-09-20T09:03:35Z</time>
      </trkpt>
      <trkpt lat="45.93973" lon="4.79794">
        <ele>206</ele>
        <time>2018-09-20T09:03:36Z</time>
      </trkpt>
      <trkpt lat="45.93973" lon="4.798">
        <ele>207</ele>
        <time>2018-09-20T09:03:37Z</time>
      </trkpt>
      <trkpt lat="45.93972" lon="4.79812">
        <ele>207</ele>
        <time>2018-09-20T09:03:39Z</time>
      </trkpt>
      <trkpt lat="45.93971" lon="4.79817">
        <ele>207</ele>
        <time>2018-09-20T09:03:40Z</time>
      </trkpt>
      <trkpt lat="45.93971" lon="4.79825">
        <ele>207</ele>
        <time>2018-09-20T09:03:41Z</time>
      </trkpt>
      <trkpt lat="45.9397" lon="4.79832">
        <ele>207</ele>
        <time>2018-09-20T09:03:42Z</time>
      </trkpt>
      <trkpt lat="45.93969" lon="4.79838">
        <ele>207</ele>
        <time>2018-09-20T09:03:43Z</time>
      </trkpt>
      <trkpt lat="45.93967" lon="4.79845">
        <ele>206</ele>
        <time>2018-09-20T09:03:44Z</time>
      </trkpt>
      <trkpt lat="45.93965" lon="4.79851">
        <ele>206</ele>
        <time>2018-09-20T09:03:45Z</time>
      </trkpt>
      <trkpt lat="45.93963" lon="4.79858">
        <ele>206</ele>
        <time>2018-09-20T09:03:46Z</time>
      </trkpt>
      <trkpt lat="45.93962" lon="4.79866">
        <ele>206</ele>
        <time>2018-09-20T09:03:47Z</time>
      </trkpt>
      <trkpt lat="45.9396" lon="4.79874">
        <ele>206</ele>
        <time>2018-09-20T09:03:48Z</time>
      </trkpt>
      <trkpt lat="45.93959" lon="4.79881">
        <ele>206</ele>
        <time>2018-09-20T09:03:49Z</time>
      </trkpt>
      <trkpt lat="45.93957" lon="4.79886">
        <ele>206</ele>
        <time>2018-09-20T09:03:50Z</time>
      </trkpt>
      <trkpt lat="45.93956" lon="4.79892">
        <ele>205</ele>
        <time>2018-09-20T09:03:51Z</time>
      </trkpt>
      <trkpt lat="45.93954" lon="4.79899">
        <ele>205</ele>
        <time>2018-09-20T09:03:52Z</time>
      </trkpt>
      <trkpt lat="45.93953" lon="4.79907">
        <ele>205</ele>
        <time>2018-09-20T09:03:53Z</time>
      </trkpt>
      <trkpt lat="45.93951" lon="4.79915">
        <ele>205</ele>
        <time>2018-09-20T09:03:54Z</time>
      </trkpt>
      <trkpt lat="45.93951" lon="4.79925">
        <ele>205</ele>
        <time>2018-09-20T09:03:55Z</time>
      </trkpt>
      <trkpt lat="45.93949" lon="4.79931">
        <ele>205</ele>
        <time>2018-09-20T09:03:56Z</time>
      </trkpt>
      <trkpt lat="45.93947" lon="4.79944">
        <ele>205</ele>
        <time>2018-09-20T09:03:58Z</time>
      </trkpt>
      <trkpt lat="45.93945" lon="4.79954">
        <ele>205</ele>
        <time>2018-09-20T09:03:59Z</time>
      </trkpt>
      <trkpt lat="45.93944" lon="4.79967">
        <ele>205</ele>
        <time>2018-09-20T09:04:01Z</time>
      </trkpt>
      <trkpt lat="45.93943" lon="4.79974">
        <ele>205</ele>
        <time>2018-09-20T09:04:02Z</time>
      </trkpt>
      <trkpt lat="45.93939" lon="4.79983">
        <ele>204</ele>
        <time>2018-09-20T09:04:04Z</time>
      </trkpt>
      <trkpt lat="45.93939" lon="4.79992">
        <ele>204</ele>
        <time>2018-09-20T09:04:05Z</time>
      </trkpt>
      <trkpt lat="45.93937" lon="4.79998">
        <ele>204</ele>
        <time>2018-09-20T09:04:06Z</time>
      </trkpt>
      <trkpt lat="45.93937" lon="4.80006">
        <ele>205</ele>
        <time>2018-09-20T09:04:07Z</time>
      </trkpt>
      <trkpt lat="45.93938" lon="4.8001">
        <ele>205</ele>
        <time>2018-09-20T09:04:08Z</time>
      </trkpt>
      <trkpt lat="45.93936" lon="4.80019">
        <ele>206</ele>
        <time>2018-09-20T09:04:09Z</time>
      </trkpt>
      <trkpt lat="45.93935" lon="4.80027">
        <ele>206</ele>
        <time>2018-09-20T09:04:10Z</time>
      </trkpt>
      <trkpt lat="45.93935" lon="4.80034">
        <ele>207</ele>
        <time>2018-09-20T09:04:11Z</time>
      </trkpt>
      <trkpt lat="45.93934" lon="4.80046">
        <ele>207</ele>
        <time>2018-09-20T09:04:13Z</time>
      </trkpt>
      <trkpt lat="45.93933" lon="4.80051">
        <ele>207</ele>
        <time>2018-09-20T09:04:14Z</time>
      </trkpt>
      <trkpt lat="45.93933" lon="4.80064">
        <ele>207</ele>
        <time>2018-09-20T09:04:16Z</time>
      </trkpt>
      <trkpt lat="45.93932" lon="4.8007">
        <ele>207</ele>
        <time>2018-09-20T09:04:17Z</time>
      </trkpt>
      <trkpt lat="45.93932" lon="4.80077">
        <ele>207</ele>
        <time>2018-09-20T09:04:18Z</time>
      </trkpt>
      <trkpt lat="45.93931" lon="4.80083">
        <ele>207</ele>
        <time>2018-09-20T09:04:19Z</time>
      </trkpt>
      <trkpt lat="45.93931" lon="4.8009">
        <ele>207</ele>
        <time>2018-09-20T09:04:20Z</time>
      </trkpt>
      <trkpt lat="45.93932" lon="4.80097">
        <ele>208</ele>
        <time>2018-09-20T09:04:21Z</time>
      </trkpt>
      <trkpt lat="45.93934" lon="4.80104">
        <ele>208</ele>
        <time>2018-09-20T09:04:22Z</time>
      </trkpt>
      <trkpt lat="45.93935" lon="4.8011">
        <ele>208</ele>
        <time>2018-09-20T09:04:23Z</time>
      </trkpt>
      <trkpt lat="45.93936" lon="4.80117">
        <ele>208</ele>
        <time>2018-09-20T09:04:24Z</time>
      </trkpt>
      <trkpt lat="45.93937" lon="4.80123">
        <ele>208</ele>
        <time>2018-09-20T09:04:25Z</time>
      </trkpt>
      <trkpt lat="45.93939" lon="4.8013">
        <ele>208</ele>
        <time>2018-09-20T09:04:26Z</time>
      </trkpt>
      <trkpt lat="45.93938" lon="4.80137">
        <ele>208</ele>
        <time>2018-09-20T09:04:27Z</time>
      </trkpt>
      <trkpt lat="45.9394" lon="4.80143">
        <ele>208</ele>
        <time>2018-09-20T09:04:28Z</time>
      </trkpt>
      <trkpt lat="45.9394" lon="4.8015">
        <ele>208</ele>
        <time>2018-09-20T09:04:29Z</time>
      </trkpt>
      <trkpt lat="45.93942" lon="4.80156">
        <ele>208</ele>
        <time>2018-09-20T09:04:30Z</time>
      </trkpt>
      <trkpt lat="45.93943" lon="4.80164">
        <ele>208</ele>
        <time>2018-09-20T09:04:31Z</time>
      </trkpt>
      <trkpt lat="45.93945" lon="4.80171">
        <ele>206</ele>
        <time>2018-09-20T09:04:32Z</time>
      </trkpt>
      <trkpt lat="45.93947" lon="4.80178">
        <ele>206</ele>
        <time>2018-09-20T09:04:33Z</time>
      </trkpt>
      <trkpt lat="45.93948" lon="4.80185">
        <ele>206</ele>
        <time>2018-09-20T09:04:34Z</time>
      </trkpt>
      <trkpt lat="45.9395" lon="4.80193">
        <ele>205</ele>
        <time>2018-09-20T09:04:35Z</time>
      </trkpt>
      <trkpt lat="45.93951" lon="4.802">
        <ele>205</ele>
        <time>2018-09-20T09:04:36Z</time>
      </trkpt>
      <trkpt lat="45.93953" lon="4.80206">
        <ele>205</ele>
        <time>2018-09-20T09:04:37Z</time>
      </trkpt>
      <trkpt lat="45.93954" lon="4.80214">
        <ele>205</ele>
        <time>2018-09-20T09:04:38Z</time>
      </trkpt>
      <trkpt lat="45.93955" lon="4.80221">
        <ele>205</ele>
        <time>2018-09-20T09:04:39Z</time>
      </trkpt>
      <trkpt lat="45.93957" lon="4.80227">
        <ele>205</ele>
        <time>2018-09-20T09:04:40Z</time>
      </trkpt>
      <trkpt lat="45.93959" lon="4.80232">
        <ele>204</ele>
        <time>2018-09-20T09:04:41Z</time>
      </trkpt>
      <trkpt lat="45.93961" lon="4.80238">
        <ele>204</ele>
        <time>2018-09-20T09:04:42Z</time>
      </trkpt>
      <trkpt lat="45.93963" lon="4.80245">
        <ele>204</ele>
        <time>2018-09-20T09:04:43Z</time>
      </trkpt>
      <trkpt lat="45.93965" lon="4.80252">
        <ele>202</ele>
        <time>2018-09-20T09:04:44Z</time>
      </trkpt>
      <trkpt lat="45.93967" lon="4.80257">
        <ele>202</ele>
        <time>2018-09-20T09:04:45Z</time>
      </trkpt>
      <trkpt lat="45.93969" lon="4.80264">
        <ele>202</ele>
        <time>2018-09-20T09:04:46Z</time>
      </trkpt>
      <trkpt lat="45.9397" lon="4.8027">
        <ele>202</ele>
        <time>2018-09-20T09:04:47Z</time>
      </trkpt>
      <trkpt lat="45.93973" lon="4.8028">
        <ele>202</ele>
        <time>2018-09-20T09:04:49Z</time>
      </trkpt>
      <trkpt lat="45.93975" lon="4.80285">
        <ele>203</ele>
        <time>2018-09-20T09:04:50Z</time>
      </trkpt>
      <trkpt lat="45.93978" lon="4.80296">
        <ele>203</ele>
        <time>2018-09-20T09:04:52Z</time>
      </trkpt>
      <trkpt lat="45.9398" lon="4.80301">
        <ele>203</ele>
        <time>2018-09-20T09:04:53Z</time>
      </trkpt>
      <trkpt lat="45.93983" lon="4.80309">
        <ele>203</ele>
        <time>2018-09-20T09:04:56Z</time>
      </trkpt>
      <trkpt lat="45.93985" lon="4.80313">
        <ele>203</ele>
        <time>2018-09-20T09:04:57Z</time>
      </trkpt>
      <trkpt lat="45.93987" lon="4.80324">
        <ele>204</ele>
        <time>2018-09-20T09:05:00Z</time>
      </trkpt>
      <trkpt lat="45.93988" lon="4.80328">
        <ele>204</ele>
        <time>2018-09-20T09:05:01Z</time>
      </trkpt>
      <trkpt lat="45.93991" lon="4.8034">
        <ele>206</ele>
        <time>2018-09-20T09:05:04Z</time>
      </trkpt>
      <trkpt lat="45.93992" lon="4.80344">
        <ele>206</ele>
        <time>2018-09-20T09:05:05Z</time>
      </trkpt>
      <trkpt lat="45.93994" lon="4.80352">
        <ele>206</ele>
        <time>2018-09-20T09:05:07Z</time>
      </trkpt>
      <trkpt lat="45.93995" lon="4.80357">
        <ele>206</ele>
        <time>2018-09-20T09:05:08Z</time>
      </trkpt>
      <trkpt lat="45.93998" lon="4.80365">
        <ele>207</ele>
        <time>2018-09-20T09:05:10Z</time>
      </trkpt>
      <trkpt lat="45.93999" lon="4.8037">
        <ele>207</ele>
        <time>2018-09-20T09:05:11Z</time>
      </trkpt>
      <trkpt lat="45.94002" lon="4.80377">
        <ele>216</ele>
        <time>2018-09-20T09:05:13Z</time>
      </trkpt>
      <trkpt lat="45.94003" lon="4.80381">
        <ele>216</ele>
        <time>2018-09-20T09:05:14Z</time>
      </trkpt>
      <trkpt lat="45.94005" lon="4.80389">
        <ele>217</ele>
        <time>2018-09-20T09:05:16Z</time>
      </trkpt>
      <trkpt lat="45.94006" lon="4.80393">
        <ele>217</ele>
        <time>2018-09-20T09:05:17Z</time>
      </trkpt>
      <trkpt lat="45.94009" lon="4.80405">
        <ele>217</ele>
        <time>2018-09-20T09:05:20Z</time>
      </trkpt>
      <trkpt lat="45.9401" lon="4.80408">
        <ele>217</ele>
        <time>2018-09-20T09:05:21Z</time>
      </trkpt>
      <trkpt lat="45.94013" lon="4.8042">
        <ele>220</ele>
        <time>2018-09-20T09:05:24Z</time>
      </trkpt>
      <trkpt lat="45.94014" lon="4.80423">
        <ele>220</ele>
        <time>2018-09-20T09:05:25Z</time>
      </trkpt>
      <trkpt lat="45.94016" lon="4.80435">
        <ele>222</ele>
        <time>2018-09-20T09:05:28Z</time>
      </trkpt>
      <trkpt lat="45.94017" lon="4.80439">
        <ele>222</ele>
        <time>2018-09-20T09:05:29Z</time>
      </trkpt>
      <trkpt lat="45.94019" lon="4.80447">
        <ele>223</ele>
        <time>2018-09-20T09:05:31Z</time>
      </trkpt>
      <trkpt lat="45.94019" lon="4.80451">
        <ele>223</ele>
        <time>2018-09-20T09:05:32Z</time>
      </trkpt>
      <trkpt lat="45.94021" lon="4.80464">
        <ele>223</ele>
        <time>2018-09-20T09:05:35Z</time>
      </trkpt>
      <trkpt lat="45.94021" lon="4.80468">
        <ele>223</ele>
        <time>2018-09-20T09:05:36Z</time>
      </trkpt>
      <trkpt lat="45.94022" lon="4.80477">
        <ele>223</ele>
        <time>2018-09-20T09:05:38Z</time>
      </trkpt>
      <trkpt lat="45.94022" lon="4.80482">
        <ele>223</ele>
        <time>2018-09-20T09:05:39Z</time>
      </trkpt>
      <trkpt lat="45.94022" lon="4.80493">
        <ele>223</ele>
        <time>2018-09-20T09:05:42Z</time>
      </trkpt>
      <trkpt lat="45.94022" lon="4.80496">
        <ele>223</ele>
        <time>2018-09-20T09:05:43Z</time>
      </trkpt>
      <trkpt lat="45.94022" lon="4.80509">
        <ele>224</ele>
        <time>2018-09-20T09:05:47Z</time>
      </trkpt>
      <trkpt lat="45.94022" lon="4.80512">
        <ele>224</ele>
        <time>2018-09-20T09:05:48Z</time>
      </trkpt>
      <trkpt lat="45.94022" lon="4.80523">
        <ele>224</ele>
        <time>2018-09-20T09:05:51Z</time>
      </trkpt>
      <trkpt lat="45.94022" lon="4.80527">
        <ele>225</ele>
        <time>2018-09-20T09:05:52Z</time>
      </trkpt>
      <trkpt lat="45.94022" lon="4.80539">
        <ele>225</ele>
        <time>2018-09-20T09:05:55Z</time>
      </trkpt>
      <trkpt lat="45.94022" lon="4.80543">
        <ele>225</ele>
        <time>2018-09-20T09:05:56Z</time>
      </trkpt>
      <trkpt lat="45.94023" lon="4.80555">
        <ele>225</ele>
        <time>2018-09-20T09:05:59Z</time>
      </trkpt>
      <trkpt lat="45.94023" lon="4.80559">
        <ele>225</ele>
        <time>2018-09-20T09:06:00Z</time>
      </trkpt>
      <trkpt lat="45.94023" lon="4.80571">
        <ele>224</ele>
        <time>2018-09-20T09:06:03Z</time>
      </trkpt>
      <trkpt lat="45.94023" lon="4.80574">
        <ele>224</ele>
        <time>2018-09-20T09:06:04Z</time>
      </trkpt>
      <trkpt lat="45.94023" lon="4.80587">
        <ele>223</ele>
        <time>2018-09-20T09:06:08Z</time>
      </trkpt>
      <trkpt lat="45.94023" lon="4.8059">
        <ele>224</ele>
        <time>2018-09-20T09:06:09Z</time>
      </trkpt>
      <trkpt lat="45.94025" lon="4.80602">
        <ele>224</ele>
        <time>2018-09-20T09:06:13Z</time>
      </trkpt>
      <trkpt lat="45.94025" lon="4.80606">
        <ele>225</ele>
        <time>2018-09-20T09:06:14Z</time>
      </trkpt>
      <trkpt lat="45.94025" lon="4.80616">
        <ele>225</ele>
        <time>2018-09-20T09:06:17Z</time>
      </trkpt>
      <trkpt lat="45.94026" lon="4.80619">
        <ele>225</ele>
        <time>2018-09-20T09:06:18Z</time>
      </trkpt>
      <trkpt lat="45.94027" lon="4.80632">
        <ele>225</ele>
        <time>2018-09-20T09:06:22Z</time>
      </trkpt>
      <trkpt lat="45.94027" lon="4.80635">
        <ele>225</ele>
        <time>2018-09-20T09:06:23Z</time>
      </trkpt>
      <trkpt lat="45.94028" lon="4.80647">
        <ele>225</ele>
        <time>2018-09-20T09:06:26Z</time>
      </trkpt>
      <trkpt lat="45.94029" lon="4.8065">
        <ele>224</ele>
        <time>2018-09-20T09:06:27Z</time>
      </trkpt>
      <trkpt lat="45.9403" lon="4.80662">
        <ele>224</ele>
        <time>2018-09-20T09:06:30Z</time>
      </trkpt>
      <trkpt lat="45.9403" lon="4.80665">
        <ele>224</ele>
        <time>2018-09-20T09:06:31Z</time>
      </trkpt>
      <trkpt lat="45.94031" lon="4.80676">
        <ele>225</ele>
        <time>2018-09-20T09:06:34Z</time>
      </trkpt>
      <trkpt lat="45.94032" lon="4.8068">
        <ele>225</ele>
        <time>2018-09-20T09:06:35Z</time>
      </trkpt>
      <trkpt lat="45.94034" lon="4.80691">
        <ele>226</ele>
        <time>2018-09-20T09:06:38Z</time>
      </trkpt>
      <trkpt lat="45.94035" lon="4.80694">
        <ele>226</ele>
        <time>2018-09-20T09:06:39Z</time>
      </trkpt>
      <trkpt lat="45.94037" lon="4.80706">
        <ele>226</ele>
        <time>2018-09-20T09:06:43Z</time>
      </trkpt>
      <trkpt lat="45.94037" lon="4.8071">
        <ele>226</ele>
        <time>2018-09-20T09:06:44Z</time>
      </trkpt>
      <trkpt lat="45.94038" lon="4.8072">
        <ele>226</ele>
        <time>2018-09-20T09:06:47Z</time>
      </trkpt>
      <trkpt lat="45.94038" lon="4.80724">
        <ele>226</ele>
        <time>2018-09-20T09:06:48Z</time>
      </trkpt>
      <trkpt lat="45.94039" lon="4.80735">
        <ele>227</ele>
        <time>2018-09-20T09:06:51Z</time>
      </trkpt>
      <trkpt lat="45.94039" lon="4.80739">
        <ele>227</ele>
        <time>2018-09-20T09:06:52Z</time>
      </trkpt>
      <trkpt lat="45.9404" lon="4.80749">
        <ele>227</ele>
        <time>2018-09-20T09:06:55Z</time>
      </trkpt>
      <trkpt lat="45.9404" lon="4.80752">
        <ele>228</ele>
        <time>2018-09-20T09:06:56Z</time>
      </trkpt>
      <trkpt lat="45.94042" lon="4.80763">
        <ele>228</ele>
        <time>2018-09-20T09:07:00Z</time>
      </trkpt>
      <trkpt lat="45.94043" lon="4.80767">
        <ele>228</ele>
        <time>2018-09-20T09:07:01Z</time>
      </trkpt>
      <trkpt lat="45.94045" lon="4.80779">
        <ele>228</ele>
        <time>2018-09-20T09:07:04Z</time>
      </trkpt>
      <trkpt lat="45.94046" lon="4.80783">
        <ele>228</ele>
        <time>2018-09-20T09:07:05Z</time>
      </trkpt>
      <trkpt lat="45.94047" lon="4.80794">
        <ele>229</ele>
        <time>2018-09-20T09:07:08Z</time>
      </trkpt>
      <trkpt lat="45.94047" lon="4.80798">
        <ele>229</ele>
        <time>2018-09-20T09:07:09Z</time>
      </trkpt>
      <trkpt lat="45.94049" lon="4.80809">
        <ele>229</ele>
        <time>2018-09-20T09:07:12Z</time>
      </trkpt>
      <trkpt lat="45.94049" lon="4.80813">
        <ele>229</ele>
        <time>2018-09-20T09:07:13Z</time>
      </trkpt>
      <trkpt lat="45.9405" lon="4.80824">
        <ele>230</ele>
        <time>2018-09-20T09:07:16Z</time>
      </trkpt>
      <trkpt lat="45.94051" lon="4.80828">
        <ele>230</ele>
        <time>2018-09-20T09:07:17Z</time>
      </trkpt>
      <trkpt lat="45.94052" lon="4.80838">
        <ele>231</ele>
        <time>2018-09-20T09:07:20Z</time>
      </trkpt>
      <trkpt lat="45.94052" lon="4.80842">
        <ele>231</ele>
        <time>2018-09-20T09:07:21Z</time>
      </trkpt>
      <trkpt lat="45.94053" lon="4.80853">
        <ele>230</ele>
        <time>2018-09-20T09:07:24Z</time>
      </trkpt>
      <trkpt lat="45.94053" lon="4.80856">
        <ele>230</ele>
        <time>2018-09-20T09:07:25Z</time>
      </trkpt>
      <trkpt lat="45.94054" lon="4.80867">
        <ele>230</ele>
        <time>2018-09-20T09:07:28Z</time>
      </trkpt>
      <trkpt lat="45.94054" lon="4.8087">
        <ele>230</ele>
        <time>2018-09-20T09:07:29Z</time>
      </trkpt>
      <trkpt lat="45.94056" lon="4.8088">
        <ele>230</ele>
        <time>2018-09-20T09:07:32Z</time>
      </trkpt>
      <trkpt lat="45.94057" lon="4.80884">
        <ele>231</ele>
        <time>2018-09-20T09:07:33Z</time>
      </trkpt>
      <trkpt lat="45.94059" lon="4.80894">
        <ele>231</ele>
        <time>2018-09-20T09:07:36Z</time>
      </trkpt>
      <trkpt lat="45.9406" lon="4.80897">
        <ele>231</ele>
        <time>2018-09-20T09:07:37Z</time>
      </trkpt>
      <trkpt lat="45.94061" lon="4.80909">
        <ele>232</ele>
        <time>2018-09-20T09:07:41Z</time>
      </trkpt>
      <trkpt lat="45.94062" lon="4.80912">
        <ele>232</ele>
        <time>2018-09-20T09:07:42Z</time>
      </trkpt>
      <trkpt lat="45.94064" lon="4.80925">
        <ele>233</ele>
        <time>2018-09-20T09:07:46Z</time>
      </trkpt>
      <trkpt lat="45.94064" lon="4.80927">
        <ele>233</ele>
        <time>2018-09-20T09:07:47Z</time>
      </trkpt>
      <trkpt lat="45.94065" lon="4.80937">
        <ele>233</ele>
        <time>2018-09-20T09:07:50Z</time>
      </trkpt>
      <trkpt lat="45.94065" lon="4.80941">
        <ele>232</ele>
        <time>2018-09-20T09:07:51Z</time>
      </trkpt>
      <trkpt lat="45.94066" lon="4.8095">
        <ele>232</ele>
        <time>2018-09-20T09:07:54Z</time>
      </trkpt>
      <trkpt lat="45.94067" lon="4.80953">
        <ele>232</ele>
        <time>2018-09-20T09:07:55Z</time>
      </trkpt>
      <trkpt lat="45.94068" lon="4.80965">
        <ele>233</ele>
        <time>2018-09-20T09:07:59Z</time>
      </trkpt>
      <trkpt lat="45.94069" lon="4.80968">
        <ele>233</ele>
        <time>2018-09-20T09:08:00Z</time>
      </trkpt>
      <trkpt lat="45.9407" lon="4.80979">
        <ele>234</ele>
        <time>2018-09-20T09:08:04Z</time>
      </trkpt>
      <trkpt lat="45.94071" lon="4.80982">
        <ele>234</ele>
        <time>2018-09-20T09:08:05Z</time>
      </trkpt>
      <trkpt lat="45.94072" lon="4.80995">
        <ele>236</ele>
        <time>2018-09-20T09:08:09Z</time>
      </trkpt>
      <trkpt lat="45.94072" lon="4.80998">
        <ele>236</ele>
        <time>2018-09-20T09:08:10Z</time>
      </trkpt>
      <trkpt lat="45.94074" lon="4.8101">
        <ele>236</ele>
        <time>2018-09-20T09:08:14Z</time>
      </trkpt>
      <trkpt lat="45.94075" lon="4.81013">
        <ele>236</ele>
        <time>2018-09-20T09:08:15Z</time>
      </trkpt>
      <trkpt lat="45.94077" lon="4.81023">
        <ele>234</ele>
        <time>2018-09-20T09:08:18Z</time>
      </trkpt>
      <trkpt lat="45.94078" lon="4.81026">
        <ele>234</ele>
        <time>2018-09-20T09:08:19Z</time>
      </trkpt>
      <trkpt lat="45.94081" lon="4.81036">
        <ele>234</ele>
        <time>2018-09-20T09:08:22Z</time>
      </trkpt>
      <trkpt lat="45.94082" lon="4.81039">
        <ele>234</ele>
        <time>2018-09-20T09:08:23Z</time>
      </trkpt>
      <trkpt lat="45.94084" lon="4.81048">
        <ele>243</ele>
        <time>2018-09-20T09:08:26Z</time>
      </trkpt>
      <trkpt lat="45.94085" lon="4.81051">
        <ele>243</ele>
        <time>2018-09-20T09:08:27Z</time>
      </trkpt>
      <trkpt lat="45.94088" lon="4.8106">
        <ele>242</ele>
        <time>2018-09-20T09:08:30Z</time>
      </trkpt>
      <trkpt lat="45.94089" lon="4.81063">
        <ele>242</ele>
        <time>2018-09-20T09:08:31Z</time>
      </trkpt>
      <trkpt lat="45.94093" lon="4.81071">
        <ele>241</ele>
        <time>2018-09-20T09:08:34Z</time>
      </trkpt>
      <trkpt lat="45.94094" lon="4.81074">
        <ele>241</ele>
        <time>2018-09-20T09:08:35Z</time>
      </trkpt>
      <trkpt lat="45.94098" lon="4.81082">
        <ele>241</ele>
        <time>2018-09-20T09:08:38Z</time>
      </trkpt>
      <trkpt lat="45.94099" lon="4.81085">
        <ele>240</ele>
        <time>2018-09-20T09:08:39Z</time>
      </trkpt>
      <trkpt lat="45.94105" lon="4.81094">
        <ele>241</ele>
        <time>2018-09-20T09:08:43Z</time>
      </trkpt>
      <trkpt lat="45.94106" lon="4.81096">
        <ele>241</ele>
        <time>2018-09-20T09:08:44Z</time>
      </trkpt>
      <trkpt lat="45.94111" lon="4.81103">
        <ele>242</ele>
        <time>2018-09-20T09:08:47Z</time>
      </trkpt>
      <trkpt lat="45.94113" lon="4.81106">
        <ele>242</ele>
        <time>2018-09-20T09:08:48Z</time>
      </trkpt>
      <trkpt lat="45.94118" lon="4.81114">
        <ele>243</ele>
        <time>2018-09-20T09:08:51Z</time>
      </trkpt>
      <trkpt lat="45.94119" lon="4.81117">
        <ele>243</ele>
        <time>2018-09-20T09:08:52Z</time>
      </trkpt>
      <trkpt lat="45.94123" lon="4.81125">
        <ele>243</ele>
        <time>2018-09-20T09:08:55Z</time>
      </trkpt>
      <trkpt lat="45.94124" lon="4.81127">
        <ele>243</ele>
        <time>2018-09-20T09:08:56Z</time>
      </trkpt>
      <trkpt lat="45.94129" lon="4.81135">
        <ele>243</ele>
        <time>2018-09-20T09:08:59Z</time>
      </trkpt>
      <trkpt lat="45.94131" lon="4.81137">
        <ele>244</ele>
        <time>2018-09-20T09:09:00Z</time>
      </trkpt>
      <trkpt lat="45.94135" lon="4.81147">
        <ele>244</ele>
        <time>2018-09-20T09:09:03Z</time>
      </trkpt>
      <trkpt lat="45.94136" lon="4.8115">
        <ele>244</ele>
        <time>2018-09-20T09:09:04Z</time>
      </trkpt>
      <trkpt lat="45.94139" lon="4.81159">
        <ele>244</ele>
        <time>2018-09-20T09:09:07Z</time>
      </trkpt>
      <trkpt lat="45.9414" lon="4.81162">
        <ele>244</ele>
        <time>2018-09-20T09:09:08Z</time>
      </trkpt>
      <trkpt lat="45.94144" lon="4.81171">
        <ele>244</ele>
        <time>2018-09-20T09:09:11Z</time>
      </trkpt>
      <trkpt lat="45.94145" lon="4.81174">
        <ele>244</ele>
        <time>2018-09-20T09:09:12Z</time>
      </trkpt>
      <trkpt lat="45.94148" lon="4.81183">
        <ele>244</ele>
        <time>2018-09-20T09:09:15Z</time>
      </trkpt>
      <trkpt lat="45.94149" lon="4.81186">
        <ele>244</ele>
        <time>2018-09-20T09:09:16Z</time>
      </trkpt>
      <trkpt lat="45.94153" lon="4.81197">
        <ele>244</ele>
        <time>2018-09-20T09:09:20Z</time>
      </trkpt>
      <trkpt lat="45.94154" lon="4.812">
        <ele>244</ele>
        <time>2018-09-20T09:09:21Z</time>
      </trkpt>
      <trkpt lat="45.94156" lon="4.8121">
        <ele>245</ele>
        <time>2018-09-20T09:09:24Z</time>
      </trkpt>
      <trkpt lat="45.94156" lon="4.81213">
        <ele>245</ele>
        <time>2018-09-20T09:09:25Z</time>
      </trkpt>
      <trkpt lat="45.94159" lon="4.81225">
        <ele>245</ele>
        <time>2018-09-20T09:09:29Z</time>
      </trkpt>
      <trkpt lat="45.94159" lon="4.81228">
        <ele>246</ele>
        <time>2018-09-20T09:09:30Z</time>
      </trkpt>
      <trkpt lat="45.94161" lon="4.81239">
        <ele>247</ele>
        <time>2018-09-20T09:09:35Z</time>
      </trkpt>
      <trkpt lat="45.94161" lon="4.81242">
        <ele>248</ele>
        <time>2018-09-20T09:09:36Z</time>
      </trkpt>
      <trkpt lat="45.94163" lon="4.81252">
        <ele>249</ele>
        <time>2018-09-20T09:09:39Z</time>
      </trkpt>
      <trkpt lat="45.94163" lon="4.81256">
        <ele>249</ele>
        <time>2018-09-20T09:09:40Z</time>
      </trkpt>
      <trkpt lat="45.94164" lon="4.81259">
        <ele>248</ele>
        <time>2018-09-20T09:09:41Z</time>
      </trkpt>
      <trkpt lat="45.94165" lon="4.8127">
        <ele>248</ele>
        <time>2018-09-20T09:09:42Z</time>
      </trkpt>
      <trkpt lat="45.94165" lon="4.81281">
        <ele>247</ele>
        <time>2018-09-20T09:09:46Z</time>
      </trkpt>
      <trkpt lat="45.94165" lon="4.81284">
        <ele>247</ele>
        <time>2018-09-20T09:09:47Z</time>
      </trkpt>
      <trkpt lat="45.94164" lon="4.81297">
        <ele>247</ele>
        <time>2018-09-20T09:09:51Z</time>
      </trkpt>
      <trkpt lat="45.94164" lon="4.81299">
        <ele>247</ele>
        <time>2018-09-20T09:09:52Z</time>
      </trkpt>
      <trkpt lat="45.94164" lon="4.81312">
        <ele>248</ele>
        <time>2018-09-20T09:09:56Z</time>
      </trkpt>
      <trkpt lat="45.94164" lon="4.81315">
        <ele>249</ele>
        <time>2018-09-20T09:09:57Z</time>
      </trkpt>
      <trkpt lat="45.94164" lon="4.81327">
        <ele>250</ele>
        <time>2018-09-20T09:10:01Z</time>
      </trkpt>
      <trkpt lat="45.94164" lon="4.8133">
        <ele>251</ele>
        <time>2018-09-20T09:10:02Z</time>
      </trkpt>
      <trkpt lat="45.94164" lon="4.81342">
        <ele>251</ele>
        <time>2018-09-20T09:10:07Z</time>
      </trkpt>
      <trkpt lat="45.94164" lon="4.81345">
        <ele>251</ele>
        <time>2018-09-20T09:10:08Z</time>
      </trkpt>
      <trkpt lat="45.94163" lon="4.81357">
        <ele>251</ele>
        <time>2018-09-20T09:10:13Z</time>
      </trkpt>
      <trkpt lat="45.94162" lon="4.81359">
        <ele>251</ele>
        <time>2018-09-20T09:10:14Z</time>
      </trkpt>
      <trkpt lat="45.9416" lon="4.8137">
        <ele>251</ele>
        <time>2018-09-20T09:10:18Z</time>
      </trkpt>
      <trkpt lat="45.94159" lon="4.81373">
        <ele>251</ele>
        <time>2018-09-20T09:10:19Z</time>
      </trkpt>
      <trkpt lat="45.94158" lon="4.81385">
        <ele>251</ele>
        <time>2018-09-20T09:10:23Z</time>
      </trkpt>
      <trkpt lat="45.94158" lon="4.81388">
        <ele>251</ele>
        <time>2018-09-20T09:10:24Z</time>
      </trkpt>
      <trkpt lat="45.94158" lon="4.81398">
        <ele>252</ele>
        <time>2018-09-20T09:10:27Z</time>
      </trkpt>
      <trkpt lat="45.94158" lon="4.81401">
        <ele>253</ele>
        <time>2018-09-20T09:10:28Z</time>
      </trkpt>
      <trkpt lat="45.94156" lon="4.81413">
        <ele>253</ele>
        <time>2018-09-20T09:10:33Z</time>
      </trkpt>
      <trkpt lat="45.94155" lon="4.81416">
        <ele>253</ele>
        <time>2018-09-20T09:10:34Z</time>
      </trkpt>
      <trkpt lat="45.94154" lon="4.81427">
        <ele>256</ele>
        <time>2018-09-20T09:10:37Z</time>
      </trkpt>
      <trkpt lat="45.94154" lon="4.81431">
        <ele>256</ele>
        <time>2018-09-20T09:10:38Z</time>
      </trkpt>
      <trkpt lat="45.94153" lon="4.81441">
        <ele>256</ele>
        <time>2018-09-20T09:10:41Z</time>
      </trkpt>
      <trkpt lat="45.94153" lon="4.81444">
        <ele>256</ele>
        <time>2018-09-20T09:10:42Z</time>
      </trkpt>
      <trkpt lat="45.94151" lon="4.81456">
        <ele>257</ele>
        <time>2018-09-20T09:10:46Z</time>
      </trkpt>
      <trkpt lat="45.94151" lon="4.81459">
        <ele>257</ele>
        <time>2018-09-20T09:10:47Z</time>
      </trkpt>
      <trkpt lat="45.94149" lon="4.81471">
        <ele>258</ele>
        <time>2018-09-20T09:10:51Z</time>
      </trkpt>
      <trkpt lat="45.94149" lon="4.81473">
        <ele>258</ele>
        <time>2018-09-20T09:10:52Z</time>
      </trkpt>
      <trkpt lat="45.94147" lon="4.81483">
        <ele>259</ele>
        <time>2018-09-20T09:10:55Z</time>
      </trkpt>
      <trkpt lat="45.94147" lon="4.81486">
        <ele>259</ele>
        <time>2018-09-20T09:10:56Z</time>
      </trkpt>
      <trkpt lat="45.94147" lon="4.81498">
        <ele>259</ele>
        <time>2018-09-20T09:11:00Z</time>
      </trkpt>
      <trkpt lat="45.94147" lon="4.81501">
        <ele>263</ele>
        <time>2018-09-20T09:11:01Z</time>
      </trkpt>
      <trkpt lat="45.94148" lon="4.81511">
        <ele>263</ele>
        <time>2018-09-20T09:11:04Z</time>
      </trkpt>
      <trkpt lat="45.94148" lon="4.81514">
        <ele>263</ele>
        <time>2018-09-20T09:11:05Z</time>
      </trkpt>
      <trkpt lat="45.94148" lon="4.81524">
        <ele>263</ele>
        <time>2018-09-20T09:11:08Z</time>
      </trkpt>
      <trkpt lat="45.94148" lon="4.81528">
        <ele>263</ele>
        <time>2018-09-20T09:11:09Z</time>
      </trkpt>
      <trkpt lat="45.94148" lon="4.81537">
        <ele>264</ele>
        <time>2018-09-20T09:11:11Z</time>
      </trkpt>
      <trkpt lat="45.94148" lon="4.81541">
        <ele>264</ele>
        <time>2018-09-20T09:11:12Z</time>
      </trkpt>
      <trkpt lat="45.94149" lon="4.81553">
        <ele>264</ele>
        <time>2018-09-20T09:11:15Z</time>
      </trkpt>
      <trkpt lat="45.9415" lon="4.81557">
        <ele>265</ele>
        <time>2018-09-20T09:11:16Z</time>
      </trkpt>
      <trkpt lat="45.94151" lon="4.81569">
        <ele>265</ele>
        <time>2018-09-20T09:11:19Z</time>
      </trkpt>
      <trkpt lat="45.94152" lon="4.81573">
        <ele>265</ele>
        <time>2018-09-20T09:11:20Z</time>
      </trkpt>
      <trkpt lat="45.94154" lon="4.81585">
        <ele>267</ele>
        <time>2018-09-20T09:11:23Z</time>
      </trkpt>
      <trkpt lat="45.94155" lon="4.81589">
        <ele>267</ele>
        <time>2018-09-20T09:11:24Z</time>
      </trkpt>
      <trkpt lat="45.94157" lon="4.816">
        <ele>267</ele>
        <time>2018-09-20T09:11:27Z</time>
      </trkpt>
      <trkpt lat="45.94158" lon="4.81604">
        <ele>267</ele>
        <time>2018-09-20T09:11:28Z</time>
      </trkpt>
      <trkpt lat="45.9416" lon="4.81612">
        <ele>267</ele>
        <time>2018-09-20T09:11:30Z</time>
      </trkpt>
      <trkpt lat="45.94163" lon="4.81625">
        <ele>268</ele>
        <time>2018-09-20T09:11:31Z</time>
      </trkpt>
      <trkpt lat="45.94165" lon="4.81634">
        <ele>268</ele>
        <time>2018-09-20T09:11:35Z</time>
      </trkpt>
      <trkpt lat="45.94166" lon="4.81637">
        <ele>268</ele>
        <time>2018-09-20T09:11:36Z</time>
      </trkpt>
      <trkpt lat="45.94168" lon="4.81648">
        <ele>268</ele>
        <time>2018-09-20T09:11:40Z</time>
      </trkpt>
      <trkpt lat="45.94168" lon="4.81651">
        <ele>268</ele>
        <time>2018-09-20T09:11:41Z</time>
      </trkpt>
      <trkpt lat="45.9417" lon="4.81661">
        <ele>269</ele>
        <time>2018-09-20T09:11:44Z</time>
      </trkpt>
      <trkpt lat="45.94171" lon="4.81665">
        <ele>269</ele>
        <time>2018-09-20T09:11:45Z</time>
      </trkpt>
      <trkpt lat="45.94172" lon="4.81675">
        <ele>268</ele>
        <time>2018-09-20T09:11:48Z</time>
      </trkpt>
      <trkpt lat="45.94173" lon="4.81679">
        <ele>268</ele>
        <time>2018-09-20T09:11:49Z</time>
      </trkpt>
      <trkpt lat="45.94176" lon="4.81691">
        <ele>267</ele>
        <time>2018-09-20T09:11:52Z</time>
      </trkpt>
      <trkpt lat="45.94177" lon="4.81695">
        <ele>267</ele>
        <time>2018-09-20T09:11:53Z</time>
      </trkpt>
      <trkpt lat="45.9418" lon="4.81703">
        <ele>267</ele>
        <time>2018-09-20T09:11:55Z</time>
      </trkpt>
      <trkpt lat="45.94181" lon="4.81706">
        <ele>267</ele>
        <time>2018-09-20T09:11:56Z</time>
      </trkpt>
      <trkpt lat="45.94182" lon="4.81719">
        <ele>267</ele>
        <time>2018-09-20T09:11:59Z</time>
      </trkpt>
      <trkpt lat="45.94182" lon="4.81723">
        <ele>267</ele>
        <time>2018-09-20T09:12:00Z</time>
      </trkpt>
      <trkpt lat="45.94182" lon="4.81732">
        <ele>267</ele>
        <time>2018-09-20T09:12:02Z</time>
      </trkpt>
      <trkpt lat="45.94183" lon="4.81736">
        <ele>267</ele>
        <time>2018-09-20T09:12:03Z</time>
      </trkpt>
      <trkpt lat="45.94185" lon="4.81745">
        <ele>267</ele>
        <time>2018-09-20T09:12:05Z</time>
      </trkpt>
      <trkpt lat="45.94186" lon="4.81749">
        <ele>267</ele>
        <time>2018-09-20T09:12:06Z</time>
      </trkpt>
      <trkpt lat="45.94188" lon="4.81756">
        <ele>266</ele>
        <time>2018-09-20T09:12:08Z</time>
      </trkpt>
      <trkpt lat="45.9419" lon="4.8176">
        <ele>266</ele>
        <time>2018-09-20T09:12:09Z</time>
      </trkpt>
      <trkpt lat="45.94191" lon="4.81765">
        <ele>266</ele>
        <time>2018-09-20T09:12:10Z</time>
      </trkpt>
      <trkpt lat="45.94195" lon="4.81778">
        <ele>266</ele>
        <time>2018-09-20T09:12:11Z</time>
      </trkpt>
      <trkpt lat="45.94195" lon="4.81791">
        <ele>266</ele>
        <time>2018-09-20T09:12:14Z</time>
      </trkpt>
      <trkpt lat="45.94195" lon="4.81794">
        <ele>266</ele>
        <time>2018-09-20T09:12:15Z</time>
      </trkpt>
      <trkpt lat="45.94195" lon="4.81802">
        <ele>266</ele>
        <time>2018-09-20T09:12:17Z</time>
      </trkpt>
      <trkpt lat="45.94195" lon="4.81814">
        <ele>266</ele>
        <time>2018-09-20T09:12:18Z</time>
      </trkpt>
      <trkpt lat="45.94198" lon="4.81824">
        <ele>266</ele>
        <time>2018-09-20T09:12:20Z</time>
      </trkpt>
      <trkpt lat="45.94199" lon="4.81827">
        <ele>266</ele>
        <time>2018-09-20T09:12:21Z</time>
      </trkpt>
      <trkpt lat="45.94201" lon="4.81833">
        <ele>266</ele>
        <time>2018-09-20T09:12:23Z</time>
      </trkpt>
      <trkpt lat="45.94203" lon="4.81843">
        <ele>266</ele>
        <time>2018-09-20T09:12:24Z</time>
      </trkpt>
      <trkpt lat="45.94205" lon="4.81853">
        <ele>266</ele>
        <time>2018-09-20T09:12:27Z</time>
      </trkpt>
      <trkpt lat="45.94206" lon="4.81856">
        <ele>266</ele>
        <time>2018-09-20T09:12:28Z</time>
      </trkpt>
      <trkpt lat="45.94208" lon="4.81868">
        <ele>265</ele>
        <time>2018-09-20T09:12:31Z</time>
      </trkpt>
      <trkpt lat="45.94209" lon="4.81872">
        <ele>265</ele>
        <time>2018-09-20T09:12:32Z</time>
      </trkpt>
      <trkpt lat="45.94211" lon="4.81884">
        <ele>265</ele>
        <time>2018-09-20T09:12:33Z</time>
      </trkpt>
      <trkpt lat="45.94212" lon="4.81887">
        <ele>265</ele>
        <time>2018-09-20T09:12:34Z</time>
      </trkpt>
      <trkpt lat="45.94213" lon="4.81895">
        <ele>265</ele>
        <time>2018-09-20T09:12:35Z</time>
      </trkpt>
      <trkpt lat="45.94215" lon="4.81901">
        <ele>265</ele>
        <time>2018-09-20T09:12:36Z</time>
      </trkpt>
      <trkpt lat="45.94216" lon="4.81906">
        <ele>265</ele>
        <time>2018-09-20T09:12:37Z</time>
      </trkpt>
      <trkpt lat="45.94217" lon="4.81914">
        <ele>265</ele>
        <time>2018-09-20T09:12:38Z</time>
      </trkpt>
      <trkpt lat="45.94219" lon="4.81921">
        <ele>264</ele>
        <time>2018-09-20T09:12:39Z</time>
      </trkpt>
      <trkpt lat="45.9422" lon="4.81928">
        <ele>264</ele>
        <time>2018-09-20T09:12:40Z</time>
      </trkpt>
      <trkpt lat="45.94221" lon="4.81934">
        <ele>264</ele>
        <time>2018-09-20T09:12:41Z</time>
      </trkpt>
      <trkpt lat="45.94223" lon="4.81941">
        <ele>264</ele>
        <time>2018-09-20T09:12:42Z</time>
      </trkpt>
      <trkpt lat="45.94224" lon="4.81947">
        <ele>264</ele>
        <time>2018-09-20T09:12:43Z</time>
      </trkpt>
      <trkpt lat="45.94225" lon="4.81954">
        <ele>264</ele>
        <time>2018-09-20T09:12:44Z</time>
      </trkpt>
      <trkpt lat="45.94227" lon="4.8196">
        <ele>264</ele>
        <time>2018-09-20T09:12:45Z</time>
      </trkpt>
      <trkpt lat="45.94228" lon="4.81966">
        <ele>264</ele>
        <time>2018-09-20T09:12:46Z</time>
      </trkpt>
      <trkpt lat="45.94229" lon="4.81972">
        <ele>264</ele>
        <time>2018-09-20T09:12:47Z</time>
      </trkpt>
      <trkpt lat="45.94229" lon="4.8198">
        <ele>264</ele>
        <time>2018-09-20T09:12:48Z</time>
      </trkpt>
      <trkpt lat="45.94231" lon="4.81992">
        <ele>263</ele>
        <time>2018-09-20T09:12:50Z</time>
      </trkpt>
      <trkpt lat="45.94232" lon="4.81998">
        <ele>263</ele>
        <time>2018-09-20T09:12:51Z</time>
      </trkpt>
      <trkpt lat="45.94234" lon="4.82007">
        <ele>263</ele>
        <time>2018-09-20T09:12:53Z</time>
      </trkpt>
      <trkpt lat="45.94236" lon="4.82011">
        <ele>263</ele>
        <time>2018-09-20T09:12:54Z</time>
      </trkpt>
      <trkpt lat="45.94238" lon="4.82023">
        <ele>263</ele>
        <time>2018-09-20T09:12:56Z</time>
      </trkpt>
      <trkpt lat="45.94239" lon="4.82029">
        <ele>263</ele>
        <time>2018-09-20T09:12:57Z</time>
      </trkpt>
      <trkpt lat="45.94241" lon="4.8204">
        <ele>263</ele>
        <time>2018-09-20T09:12:59Z</time>
      </trkpt>
      <trkpt lat="45.94241" lon="4.82045">
        <ele>263</ele>
        <time>2018-09-20T09:13:00Z</time>
      </trkpt>
      <trkpt lat="45.94243" lon="4.82057">
        <ele>263</ele>
        <time>2018-09-20T09:13:02Z</time>
      </trkpt>
      <trkpt lat="45.94243" lon="4.8206">
        <ele>263</ele>
        <time>2018-09-20T09:13:03Z</time>
      </trkpt>
      <trkpt lat="45.94242" lon="4.82072">
        <ele>263</ele>
        <time>2018-09-20T09:13:05Z</time>
      </trkpt>
      <trkpt lat="45.94242" lon="4.82081">
        <ele>263</ele>
        <time>2018-09-20T09:13:06Z</time>
      </trkpt>
      <trkpt lat="45.94241" lon="4.82089">
        <ele>263</ele>
        <time>2018-09-20T09:13:08Z</time>
      </trkpt>
      <trkpt lat="45.94241" lon="4.82096">
        <ele>263</ele>
        <time>2018-09-20T09:13:09Z</time>
      </trkpt>
      <trkpt lat="45.94244" lon="4.82107">
        <ele>263</ele>
        <time>2018-09-20T09:13:11Z</time>
      </trkpt>
      <trkpt lat="45.94244" lon="4.82114">
        <ele>263</ele>
        <time>2018-09-20T09:13:12Z</time>
      </trkpt>
      <trkpt lat="45.94245" lon="4.8212">
        <ele>264</ele>
        <time>2018-09-20T09:13:13Z</time>
      </trkpt>
      <trkpt lat="45.9425" lon="4.82127">
        <ele>264</ele>
        <time>2018-09-20T09:13:14Z</time>
      </trkpt>
      <trkpt lat="45.94252" lon="4.82133">
        <ele>263</ele>
        <time>2018-09-20T09:13:15Z</time>
      </trkpt>
      <trkpt lat="45.94255" lon="4.8214">
        <ele>263</ele>
        <time>2018-09-20T09:13:16Z</time>
      </trkpt>
      <trkpt lat="45.94256" lon="4.82146">
        <ele>263</ele>
        <time>2018-09-20T09:13:17Z</time>
      </trkpt>
      <trkpt lat="45.94258" lon="4.82153">
        <ele>263</ele>
        <time>2018-09-20T09:13:18Z</time>
      </trkpt>
      <trkpt lat="45.9426" lon="4.8216">
        <ele>263</ele>
        <time>2018-09-20T09:13:19Z</time>
      </trkpt>
      <trkpt lat="45.94261" lon="4.82167">
        <ele>263</ele>
        <time>2018-09-20T09:13:20Z</time>
      </trkpt>
      <trkpt lat="45.94264" lon="4.82175">
        <ele>263</ele>
        <time>2018-09-20T09:13:21Z</time>
      </trkpt>
      <trkpt lat="45.94265" lon="4.82181">
        <ele>264</ele>
        <time>2018-09-20T09:13:22Z</time>
      </trkpt>
      <trkpt lat="45.94267" lon="4.82193">
        <ele>264</ele>
        <time>2018-09-20T09:13:27Z</time>
      </trkpt>
      <trkpt lat="45.94267" lon="4.82194">
        <ele>264</ele>
        <time>2018-09-20T09:13:28Z</time>
      </trkpt>
      <trkpt lat="45.94269" lon="4.82195">
        <ele>264</ele>
        <time>2018-09-20T09:13:36Z</time>
      </trkpt>
      <trkpt lat="45.94269" lon="4.82195">
        <ele>264</ele>
        <time>2018-09-20T09:13:37Z</time>
      </trkpt>
      <trkpt lat="45.9427" lon="4.82191">
        <ele>264</ele>
        <time>2018-09-20T09:14:00Z</time>
      </trkpt>
      <trkpt lat="45.9427" lon="4.82191">
        <ele>264</ele>
        <time>2018-09-20T09:14:01Z</time>
      </trkpt>
      <trkpt lat="45.94273" lon="4.82202">
        <ele>264</ele>
        <time>2018-09-20T09:14:08Z</time>
      </trkpt>
      <trkpt lat="45.94274" lon="4.82204">
        <ele>264</ele>
        <time>2018-09-20T09:14:09Z</time>
      </trkpt>
      <trkpt lat="45.94275" lon="4.82211">
        <ele>264</ele>
        <time>2018-09-20T09:14:11Z</time>
      </trkpt>
      <trkpt lat="45.94276" lon="4.82223">
        <ele>264</ele>
        <time>2018-09-20T09:14:12Z</time>
      </trkpt>
      <trkpt lat="45.94277" lon="4.82234">
        <ele>264</ele>
        <time>2018-09-20T09:14:14Z</time>
      </trkpt>
      <trkpt lat="45.94278" lon="4.8224">
        <ele>264</ele>
        <time>2018-09-20T09:14:15Z</time>
      </trkpt>
      <trkpt lat="45.94279" lon="4.82253">
        <ele>265</ele>
        <time>2018-09-20T09:14:17Z</time>
      </trkpt>
      <trkpt lat="45.94279" lon="4.82259">
        <ele>265</ele>
        <time>2018-09-20T09:14:18Z</time>
      </trkpt>
      <trkpt lat="45.9428" lon="4.82272">
        <ele>265</ele>
        <time>2018-09-20T09:14:20Z</time>
      </trkpt>
      <trkpt lat="45.9428" lon="4.82278">
        <ele>265</ele>
        <time>2018-09-20T09:14:21Z</time>
      </trkpt>
      <trkpt lat="45.94281" lon="4.82285">
        <ele>265</ele>
        <time>2018-09-20T09:14:22Z</time>
      </trkpt>
      <trkpt lat="45.94282" lon="4.82291">
        <ele>265</ele>
        <time>2018-09-20T09:14:23Z</time>
      </trkpt>
      <trkpt lat="45.94282" lon="4.82298">
        <ele>265</ele>
        <time>2018-09-20T09:14:24Z</time>
      </trkpt>
      <trkpt lat="45.94283" lon="4.82305">
        <ele>265</ele>
        <time>2018-09-20T09:14:25Z</time>
      </trkpt>
      <trkpt lat="45.94283" lon="4.82312">
        <ele>265</ele>
        <time>2018-09-20T09:14:26Z</time>
      </trkpt>
      <trkpt lat="45.94283" lon="4.82318">
        <ele>265</ele>
        <time>2018-09-20T09:14:27Z</time>
      </trkpt>
      <trkpt lat="45.94284" lon="4.8233">
        <ele>265</ele>
        <time>2018-09-20T09:14:29Z</time>
      </trkpt>
      <trkpt lat="45.94284" lon="4.82333">
        <ele>265</ele>
        <time>2018-09-20T09:14:30Z</time>
      </trkpt>
      <trkpt lat="45.94284" lon="4.8234">
        <ele>264</ele>
        <time>2018-09-20T09:14:32Z</time>
      </trkpt>
      <trkpt lat="45.94285" lon="4.82351">
        <ele>264</ele>
        <time>2018-09-20T09:14:33Z</time>
      </trkpt>
      <trkpt lat="45.94285" lon="4.82362">
        <ele>264</ele>
        <time>2018-09-20T09:14:35Z</time>
      </trkpt>
      <trkpt lat="45.94285" lon="4.82368">
        <ele>264</ele>
        <time>2018-09-20T09:14:36Z</time>
      </trkpt>
      <trkpt lat="45.94285" lon="4.82374">
        <ele>264</ele>
        <time>2018-09-20T09:14:37Z</time>
      </trkpt>
      <trkpt lat="45.94285" lon="4.82381">
        <ele>264</ele>
        <time>2018-09-20T09:14:38Z</time>
      </trkpt>
      <trkpt lat="45.94285" lon="4.82388">
        <ele>264</ele>
        <time>2018-09-20T09:14:39Z</time>
      </trkpt>
      <trkpt lat="45.94286" lon="4.82395">
        <ele>264</ele>
        <time>2018-09-20T09:14:40Z</time>
      </trkpt>
      <trkpt lat="45.94286" lon="4.82402">
        <ele>264</ele>
        <time>2018-09-20T09:14:41Z</time>
      </trkpt>
      <trkpt lat="45.94287" lon="4.82409">
        <ele>264</ele>
        <time>2018-09-20T09:14:42Z</time>
      </trkpt>
      <trkpt lat="45.94288" lon="4.82415">
        <ele>264</ele>
        <time>2018-09-20T09:14:43Z</time>
      </trkpt>
      <trkpt lat="45.94288" lon="4.82422">
        <ele>264</ele>
        <time>2018-09-20T09:14:44Z</time>
      </trkpt>
      <trkpt lat="45.9429" lon="4.82429">
        <ele>264</ele>
        <time>2018-09-20T09:14:45Z</time>
      </trkpt>
      <trkpt lat="45.9429" lon="4.82435">
        <ele>264</ele>
        <time>2018-09-20T09:14:46Z</time>
      </trkpt>
      <trkpt lat="45.9429" lon="4.82447">
        <ele>264</ele>
        <time>2018-09-20T09:14:48Z</time>
      </trkpt>
      <trkpt lat="45.94291" lon="4.82453">
        <ele>264</ele>
        <time>2018-09-20T09:14:49Z</time>
      </trkpt>
      <trkpt lat="45.94292" lon="4.82466">
        <ele>264</ele>
        <time>2018-09-20T09:14:51Z</time>
      </trkpt>
      <trkpt lat="45.94292" lon="4.82473">
        <ele>264</ele>
        <time>2018-09-20T09:14:52Z</time>
      </trkpt>
      <trkpt lat="45.94293" lon="4.82485">
        <ele>264</ele>
        <time>2018-09-20T09:14:54Z</time>
      </trkpt>
      <trkpt lat="45.94293" lon="4.82491">
        <ele>264</ele>
        <time>2018-09-20T09:14:55Z</time>
      </trkpt>
      <trkpt lat="45.94293" lon="4.82501">
        <ele>264</ele>
        <time>2018-09-20T09:14:57Z</time>
      </trkpt>
      <trkpt lat="45.94293" lon="4.82508">
        <ele>264</ele>
        <time>2018-09-20T09:14:58Z</time>
      </trkpt>
      <trkpt lat="45.94293" lon="4.82514">
        <ele>264</ele>
        <time>2018-09-20T09:14:59Z</time>
      </trkpt>
      <trkpt lat="45.94294" lon="4.82521">
        <ele>264</ele>
        <time>2018-09-20T09:15:00Z</time>
      </trkpt>
      <trkpt lat="45.94293" lon="4.82527">
        <ele>264</ele>
        <time>2018-09-20T09:15:01Z</time>
      </trkpt>
      <trkpt lat="45.94293" lon="4.82535">
        <ele>264</ele>
        <time>2018-09-20T09:15:02Z</time>
      </trkpt>
      <trkpt lat="45.94294" lon="4.82547">
        <ele>264</ele>
        <time>2018-09-20T09:15:04Z</time>
      </trkpt>
      <trkpt lat="45.94294" lon="4.82554">
        <ele>264</ele>
        <time>2018-09-20T09:15:05Z</time>
      </trkpt>
      <trkpt lat="45.94294" lon="4.82565">
        <ele>264</ele>
        <time>2018-09-20T09:15:07Z</time>
      </trkpt>
      <trkpt lat="45.94294" lon="4.82571">
        <ele>264</ele>
        <time>2018-09-20T09:15:08Z</time>
      </trkpt>
      <trkpt lat="45.94293" lon="4.82577">
        <ele>264</ele>
        <time>2018-09-20T09:15:09Z</time>
      </trkpt>
      <trkpt lat="45.94293" lon="4.82584">
        <ele>265</ele>
        <time>2018-09-20T09:15:10Z</time>
      </trkpt>
      <trkpt lat="45.94293" lon="4.82591">
        <ele>265</ele>
        <time>2018-09-20T09:15:11Z</time>
      </trkpt>
      <trkpt lat="45.94293" lon="4.82597">
        <ele>265</ele>
        <time>2018-09-20T09:15:12Z</time>
      </trkpt>
      <trkpt lat="45.94293" lon="4.82604">
        <ele>265</ele>
        <time>2018-09-20T09:15:13Z</time>
      </trkpt>
      <trkpt lat="45.94293" lon="4.82611">
        <ele>265</ele>
        <time>2018-09-20T09:15:14Z</time>
      </trkpt>
      <trkpt lat="45.94293" lon="4.82624">
        <ele>265</ele>
        <time>2018-09-20T09:15:16Z</time>
      </trkpt>
      <trkpt lat="45.94293" lon="4.82629">
        <ele>265</ele>
        <time>2018-09-20T09:15:17Z</time>
      </trkpt>
      <trkpt lat="45.94292" lon="4.8264">
        <ele>265</ele>
        <time>2018-09-20T09:15:19Z</time>
      </trkpt>
      <trkpt lat="45.94293" lon="4.82647">
        <ele>265</ele>
        <time>2018-09-20T09:15:20Z</time>
      </trkpt>
      <trkpt lat="45.94293" lon="4.82654">
        <ele>265</ele>
        <time>2018-09-20T09:15:21Z</time>
      </trkpt>
      <trkpt lat="45.94293" lon="4.82661">
        <ele>265</ele>
        <time>2018-09-20T09:15:22Z</time>
      </trkpt>
      <trkpt lat="45.94293" lon="4.8267">
        <ele>265</ele>
        <time>2018-09-20T09:15:23Z</time>
      </trkpt>
      <trkpt lat="45.94293" lon="4.82678">
        <ele>265</ele>
        <time>2018-09-20T09:15:24Z</time>
      </trkpt>
      <trkpt lat="45.94293" lon="4.82686">
        <ele>265</ele>
        <time>2018-09-20T09:15:25Z</time>
      </trkpt>
      <trkpt lat="45.94293" lon="4.82693">
        <ele>265</ele>
        <time>2018-09-20T09:15:26Z</time>
      </trkpt>
      <trkpt lat="45.94292" lon="4.82702">
        <ele>265</ele>
        <time>2018-09-20T09:15:27Z</time>
      </trkpt>
      <trkpt lat="45.94292" lon="4.82709">
        <ele>265</ele>
        <time>2018-09-20T09:15:28Z</time>
      </trkpt>
      <trkpt lat="45.94292" lon="4.82716">
        <ele>265</ele>
        <time>2018-09-20T09:15:29Z</time>
      </trkpt>
      <trkpt lat="45.94292" lon="4.82722">
        <ele>265</ele>
        <time>2018-09-20T09:15:30Z</time>
      </trkpt>
      <trkpt lat="45.94292" lon="4.82728">
        <ele>265</ele>
        <time>2018-09-20T09:15:31Z</time>
      </trkpt>
      <trkpt lat="45.94292" lon="4.82735">
        <ele>265</ele>
        <time>2018-09-20T09:15:32Z</time>
      </trkpt>
      <trkpt lat="45.94292" lon="4.82745">
        <ele>265</ele>
        <time>2018-09-20T09:15:34Z</time>
      </trkpt>
      <trkpt lat="45.94292" lon="4.8275">
        <ele>265</ele>
        <time>2018-09-20T09:15:35Z</time>
      </trkpt>
      <trkpt lat="45.94292" lon="4.82763">
        <ele>265</ele>
        <time>2018-09-20T09:15:37Z</time>
      </trkpt>
      <trkpt lat="45.94292" lon="4.8277">
        <ele>265</ele>
        <time>2018-09-20T09:15:38Z</time>
      </trkpt>
      <trkpt lat="45.94293" lon="4.82776">
        <ele>265</ele>
        <time>2018-09-20T09:15:39Z</time>
      </trkpt>
      <trkpt lat="45.94292" lon="4.82783">
        <ele>265</ele>
        <time>2018-09-20T09:15:40Z</time>
      </trkpt>
      <trkpt lat="45.94292" lon="4.8279">
        <ele>265</ele>
        <time>2018-09-20T09:15:41Z</time>
      </trkpt>
      <trkpt lat="45.94292" lon="4.82796">
        <ele>265</ele>
        <time>2018-09-20T09:15:42Z</time>
      </trkpt>
      <trkpt lat="45.94293" lon="4.82802">
        <ele>265</ele>
        <time>2018-09-20T09:15:43Z</time>
      </trkpt>
      <trkpt lat="45.94293" lon="4.8281">
        <ele>265</ele>
        <time>2018-09-20T09:15:44Z</time>
      </trkpt>
      <trkpt lat="45.94293" lon="4.82818">
        <ele>265</ele>
        <time>2018-09-20T09:15:45Z</time>
      </trkpt>
      <trkpt lat="45.94293" lon="4.82827">
        <ele>265</ele>
        <time>2018-09-20T09:15:46Z</time>
      </trkpt>
      <trkpt lat="45.94293" lon="4.82834">
        <ele>265</ele>
        <time>2018-09-20T09:15:47Z</time>
      </trkpt>
      <trkpt lat="45.94293" lon="4.82842">
        <ele>265</ele>
        <time>2018-09-20T09:15:48Z</time>
      </trkpt>
      <trkpt lat="45.94293" lon="4.82851">
        <ele>265</ele>
        <time>2018-09-20T09:15:49Z</time>
      </trkpt>
      <trkpt lat="45.94293" lon="4.82861">
        <ele>265</ele>
        <time>2018-09-20T09:15:50Z</time>
      </trkpt>
      <trkpt lat="45.94294" lon="4.82869">
        <ele>265</ele>
        <time>2018-09-20T09:15:51Z</time>
      </trkpt>
      <trkpt lat="45.94293" lon="4.82876">
        <ele>265</ele>
        <time>2018-09-20T09:15:52Z</time>
      </trkpt>
      <trkpt lat="45.94293" lon="4.82883">
        <ele>265</ele>
        <time>2018-09-20T09:15:53Z</time>
      </trkpt>
      <trkpt lat="45.94293" lon="4.8289">
        <ele>265</ele>
        <time>2018-09-20T09:15:54Z</time>
      </trkpt>
      <trkpt lat="45.94293" lon="4.82897">
        <ele>265</ele>
        <time>2018-09-20T09:15:55Z</time>
      </trkpt>
      <trkpt lat="45.94293" lon="4.82904">
        <ele>265</ele>
        <time>2018-09-20T09:15:56Z</time>
      </trkpt>
      <trkpt lat="45.94292" lon="4.82912">
        <ele>265</ele>
        <time>2018-09-20T09:15:57Z</time>
      </trkpt>
      <trkpt lat="45.94291" lon="4.82919">
        <ele>265</ele>
        <time>2018-09-20T09:15:58Z</time>
      </trkpt>
      <trkpt lat="45.9429" lon="4.82927">
        <ele>265</ele>
        <time>2018-09-20T09:15:59Z</time>
      </trkpt>
      <trkpt lat="45.94289" lon="4.82935">
        <ele>265</ele>
        <time>2018-09-20T09:16:00Z</time>
      </trkpt>
      <trkpt lat="45.94287" lon="4.82941">
        <ele>265</ele>
        <time>2018-09-20T09:16:01Z</time>
      </trkpt>
      <trkpt lat="45.94285" lon="4.82948">
        <ele>265</ele>
        <time>2018-09-20T09:16:02Z</time>
      </trkpt>
      <trkpt lat="45.94285" lon="4.82957">
        <ele>265</ele>
        <time>2018-09-20T09:16:03Z</time>
      </trkpt>
      <trkpt lat="45.94284" lon="4.82965">
        <ele>265</ele>
        <time>2018-09-20T09:16:04Z</time>
      </trkpt>
      <trkpt lat="45.94284" lon="4.82972">
        <ele>265</ele>
        <time>2018-09-20T09:16:05Z</time>
      </trkpt>
      <trkpt lat="45.94286" lon="4.82978">
        <ele>265</ele>
        <time>2018-09-20T09:16:06Z</time>
      </trkpt>
      <trkpt lat="45.94289" lon="4.82983">
        <ele>265</ele>
        <time>2018-09-20T09:16:07Z</time>
      </trkpt>
      <trkpt lat="45.94291" lon="4.8299">
        <ele>265</ele>
        <time>2018-09-20T09:16:08Z</time>
      </trkpt>
      <trkpt lat="45.94294" lon="4.82996">
        <ele>265</ele>
        <time>2018-09-20T09:16:09Z</time>
      </trkpt>
      <trkpt lat="45.94295" lon="4.83003">
        <ele>266</ele>
        <time>2018-09-20T09:16:10Z</time>
      </trkpt>
      <trkpt lat="45.94298" lon="4.83015">
        <ele>266</ele>
        <time>2018-09-20T09:16:12Z</time>
      </trkpt>
      <trkpt lat="45.94299" lon="4.8302">
        <ele>266</ele>
        <time>2018-09-20T09:16:13Z</time>
      </trkpt>
      <trkpt lat="45.94302" lon="4.83029">
        <ele>266</ele>
        <time>2018-09-20T09:16:15Z</time>
      </trkpt>
      <trkpt lat="45.94302" lon="4.83036">
        <ele>266</ele>
        <time>2018-09-20T09:16:16Z</time>
      </trkpt>
      <trkpt lat="45.94305" lon="4.83044">
        <ele>266</ele>
        <time>2018-09-20T09:16:17Z</time>
      </trkpt>
      <trkpt lat="45.94307" lon="4.83051">
        <ele>266</ele>
        <time>2018-09-20T09:16:18Z</time>
      </trkpt>
      <trkpt lat="45.94308" lon="4.83058">
        <ele>266</ele>
        <time>2018-09-20T09:16:19Z</time>
      </trkpt>
      <trkpt lat="45.9431" lon="4.83066">
        <ele>266</ele>
        <time>2018-09-20T09:16:20Z</time>
      </trkpt>
      <trkpt lat="45.94312" lon="4.83073">
        <ele>266</ele>
        <time>2018-09-20T09:16:21Z</time>
      </trkpt>
      <trkpt lat="45.94314" lon="4.8308">
        <ele>266</ele>
        <time>2018-09-20T09:16:22Z</time>
      </trkpt>
      <trkpt lat="45.94315" lon="4.83086">
        <ele>266</ele>
        <time>2018-09-20T09:16:23Z</time>
      </trkpt>
      <trkpt lat="45.94317" lon="4.83094">
        <ele>266</ele>
        <time>2018-09-20T09:16:24Z</time>
      </trkpt>
      <trkpt lat="45.94318" lon="4.83101">
        <ele>266</ele>
        <time>2018-09-20T09:16:25Z</time>
      </trkpt>
      <trkpt lat="45.9432" lon="4.83108">
        <ele>266</ele>
        <time>2018-09-20T09:16:26Z</time>
      </trkpt>
      <trkpt lat="45.94322" lon="4.83114">
        <ele>266</ele>
        <time>2018-09-20T09:16:27Z</time>
      </trkpt>
      <trkpt lat="45.94324" lon="4.8312">
        <ele>266</ele>
        <time>2018-09-20T09:16:28Z</time>
      </trkpt>
      <trkpt lat="45.94327" lon="4.8313">
        <ele>266</ele>
        <time>2018-09-20T09:16:30Z</time>
      </trkpt>
      <trkpt lat="45.94329" lon="4.83137">
        <ele>266</ele>
        <time>2018-09-20T09:16:31Z</time>
      </trkpt>
      <trkpt lat="45.94332" lon="4.83143">
        <ele>266</ele>
        <time>2018-09-20T09:16:32Z</time>
      </trkpt>
      <trkpt lat="45.94335" lon="4.8315">
        <ele>266</ele>
        <time>2018-09-20T09:16:33Z</time>
      </trkpt>
      <trkpt lat="45.94339" lon="4.83162">
        <ele>266</ele>
        <time>2018-09-20T09:16:35Z</time>
      </trkpt>
      <trkpt lat="45.94342" lon="4.83168">
        <ele>266</ele>
        <time>2018-09-20T09:16:36Z</time>
      </trkpt>
      <trkpt lat="45.94344" lon="4.83174">
        <ele>266</ele>
        <time>2018-09-20T09:16:37Z</time>
      </trkpt>
      <trkpt lat="45.94346" lon="4.8318">
        <ele>266</ele>
        <time>2018-09-20T09:16:38Z</time>
      </trkpt>
      <trkpt lat="45.94348" lon="4.83187">
        <ele>266</ele>
        <time>2018-09-20T09:16:39Z</time>
      </trkpt>
      <trkpt lat="45.9435" lon="4.83194">
        <ele>266</ele>
        <time>2018-09-20T09:16:40Z</time>
      </trkpt>
      <trkpt lat="45.94351" lon="4.832">
        <ele>266</ele>
        <time>2018-09-20T09:16:41Z</time>
      </trkpt>
      <trkpt lat="45.94354" lon="4.83207">
        <ele>266</ele>
        <time>2018-09-20T09:16:42Z</time>
      </trkpt>
      <trkpt lat="45.94355" lon="4.83213">
        <ele>266</ele>
        <time>2018-09-20T09:16:43Z</time>
      </trkpt>
      <trkpt lat="45.94358" lon="4.8322">
        <ele>266</ele>
        <time>2018-09-20T09:16:44Z</time>
      </trkpt>
      <trkpt lat="45.94361" lon="4.83226">
        <ele>266</ele>
        <time>2018-09-20T09:16:45Z</time>
      </trkpt>
      <trkpt lat="45.94363" lon="4.8323">
        <ele>266</ele>
        <time>2018-09-20T09:16:46Z</time>
      </trkpt>
      <trkpt lat="45.94368" lon="4.83241">
        <ele>265</ele>
        <time>2018-09-20T09:16:48Z</time>
      </trkpt>
      <trkpt lat="45.9437" lon="4.83245">
        <ele>265</ele>
        <time>2018-09-20T09:16:49Z</time>
      </trkpt>
      <trkpt lat="45.94373" lon="4.83252">
        <ele>265</ele>
        <time>2018-09-20T09:16:50Z</time>
      </trkpt>
      <trkpt lat="45.94375" lon="4.83257">
        <ele>265</ele>
        <time>2018-09-20T09:16:51Z</time>
      </trkpt>
      <trkpt lat="45.94379" lon="4.83269">
        <ele>264</ele>
        <time>2018-09-20T09:16:53Z</time>
      </trkpt>
      <trkpt lat="45.94381" lon="4.83277">
        <ele>264</ele>
        <time>2018-09-20T09:16:54Z</time>
      </trkpt>
      <trkpt lat="45.94383" lon="4.83283">
        <ele>264</ele>
        <time>2018-09-20T09:16:55Z</time>
      </trkpt>
      <trkpt lat="45.94386" lon="4.83291">
        <ele>264</ele>
        <time>2018-09-20T09:16:56Z</time>
      </trkpt>
      <trkpt lat="45.94388" lon="4.83299">
        <ele>264</ele>
        <time>2018-09-20T09:16:57Z</time>
      </trkpt>
      <trkpt lat="45.94391" lon="4.83305">
        <ele>264</ele>
        <time>2018-09-20T09:16:58Z</time>
      </trkpt>
      <trkpt lat="45.94393" lon="4.83312">
        <ele>264</ele>
        <time>2018-09-20T09:16:59Z</time>
      </trkpt>
      <trkpt lat="45.94396" lon="4.83318">
        <ele>264</ele>
        <time>2018-09-20T09:17:00Z</time>
      </trkpt>
      <trkpt lat="45.94398" lon="4.83324">
        <ele>264</ele>
        <time>2018-09-20T09:17:01Z</time>
      </trkpt>
      <trkpt lat="45.94401" lon="4.83332">
        <ele>264</ele>
        <time>2018-09-20T09:17:02Z</time>
      </trkpt>
      <trkpt lat="45.94403" lon="4.83339">
        <ele>263</ele>
        <time>2018-09-20T09:17:03Z</time>
      </trkpt>
      <trkpt lat="45.94405" lon="4.83347">
        <ele>263</ele>
        <time>2018-09-20T09:17:04Z</time>
      </trkpt>
      <trkpt lat="45.94408" lon="4.83353">
        <ele>263</ele>
        <time>2018-09-20T09:17:05Z</time>
      </trkpt>
      <trkpt lat="45.94411" lon="4.8336">
        <ele>264</ele>
        <time>2018-09-20T09:17:06Z</time>
      </trkpt>
      <trkpt lat="45.94414" lon="4.83367">
        <ele>264</ele>
        <time>2018-09-20T09:17:07Z</time>
      </trkpt>
      <trkpt lat="45.94417" lon="4.83374">
        <ele>264</ele>
        <time>2018-09-20T09:17:08Z</time>
      </trkpt>
      <trkpt lat="45.9442" lon="4.83381">
        <ele>264</ele>
        <time>2018-09-20T09:17:09Z</time>
      </trkpt>
      <trkpt lat="45.94423" lon="4.83389">
        <ele>264</ele>
        <time>2018-09-20T09:17:10Z</time>
      </trkpt>
      <trkpt lat="45.94426" lon="4.83394">
        <ele>264</ele>
        <time>2018-09-20T09:17:11Z</time>
      </trkpt>
      <trkpt lat="45.94429" lon="4.834">
        <ele>264</ele>
        <time>2018-09-20T09:17:12Z</time>
      </trkpt>
      <trkpt lat="45.94432" lon="4.83407">
        <ele>264</ele>
        <time>2018-09-20T09:17:13Z</time>
      </trkpt>
      <trkpt lat="45.94435" lon="4.83413">
        <ele>264</ele>
        <time>2018-09-20T09:17:14Z</time>
      </trkpt>
      <trkpt lat="45.9444" lon="4.83423">
        <ele>264</ele>
        <time>2018-09-20T09:17:16Z</time>
      </trkpt>
      <trkpt lat="45.94443" lon="4.83427">
        <ele>264</ele>
        <time>2018-09-20T09:17:17Z</time>
      </trkpt>
      <trkpt lat="45.94445" lon="4.83433">
        <ele>263</ele>
        <time>2018-09-20T09:17:18Z</time>
      </trkpt>
      <trkpt lat="45.94448" lon="4.8344">
        <ele>263</ele>
        <time>2018-09-20T09:17:19Z</time>
      </trkpt>
      <trkpt lat="45.94451" lon="4.83446">
        <ele>263</ele>
        <time>2018-09-20T09:17:20Z</time>
      </trkpt>
      <trkpt lat="45.94455" lon="4.83452">
        <ele>263</ele>
        <time>2018-09-20T09:17:21Z</time>
      </trkpt>
      <trkpt lat="45.9446" lon="4.8346">
        <ele>263</ele>
        <time>2018-09-20T09:17:22Z</time>
      </trkpt>
      <trkpt lat="45.94464" lon="4.83466">
        <ele>263</ele>
        <time>2018-09-20T09:17:23Z</time>
      </trkpt>
      <trkpt lat="45.94468" lon="4.83469">
        <ele>263</ele>
        <time>2018-09-20T09:17:24Z</time>
      </trkpt>
      <trkpt lat="45.94473" lon="4.83476">
        <ele>263</ele>
        <time>2018-09-20T09:17:25Z</time>
      </trkpt>
      <trkpt lat="45.94476" lon="4.83483">
        <ele>263</ele>
        <time>2018-09-20T09:17:26Z</time>
      </trkpt>
      <trkpt lat="45.9448" lon="4.8349">
        <ele>263</ele>
        <time>2018-09-20T09:17:27Z</time>
      </trkpt>
      <trkpt lat="45.94485" lon="4.83498">
        <ele>263</ele>
        <time>2018-09-20T09:17:28Z</time>
      </trkpt>
      <trkpt lat="45.94489" lon="4.83504">
        <ele>262</ele>
        <time>2018-09-20T09:17:29Z</time>
      </trkpt>
      <trkpt lat="45.94492" lon="4.8351">
        <ele>262</ele>
        <time>2018-09-20T09:17:30Z</time>
      </trkpt>
      <trkpt lat="45.94495" lon="4.83516">
        <ele>262</ele>
        <time>2018-09-20T09:17:31Z</time>
      </trkpt>
      <trkpt lat="45.94499" lon="4.83521">
        <ele>262</ele>
        <time>2018-09-20T09:17:32Z</time>
      </trkpt>
      <trkpt lat="45.94503" lon="4.83526">
        <ele>262</ele>
        <time>2018-09-20T09:17:33Z</time>
      </trkpt>
      <trkpt lat="45.94508" lon="4.83536">
        <ele>262</ele>
        <time>2018-09-20T09:17:35Z</time>
      </trkpt>
      <trkpt lat="45.94513" lon="4.8354">
        <ele>262</ele>
        <time>2018-09-20T09:17:36Z</time>
      </trkpt>
      <trkpt lat="45.94516" lon="4.83548">
        <ele>261</ele>
        <time>2018-09-20T09:17:37Z</time>
      </trkpt>
      <trkpt lat="45.94519" lon="4.83555">
        <ele>261</ele>
        <time>2018-09-20T09:17:38Z</time>
      </trkpt>
      <trkpt lat="45.94521" lon="4.83561">
        <ele>261</ele>
        <time>2018-09-20T09:17:39Z</time>
      </trkpt>
      <trkpt lat="45.94524" lon="4.83568">
        <ele>261</ele>
        <time>2018-09-20T09:17:40Z</time>
      </trkpt>
      <trkpt lat="45.94526" lon="4.83575">
        <ele>261</ele>
        <time>2018-09-20T09:17:41Z</time>
      </trkpt>
      <trkpt lat="45.94528" lon="4.83583">
        <ele>261</ele>
        <time>2018-09-20T09:17:42Z</time>
      </trkpt>
      <trkpt lat="45.94531" lon="4.8359">
        <ele>261</ele>
        <time>2018-09-20T09:17:43Z</time>
      </trkpt>
      <trkpt lat="45.94532" lon="4.83598">
        <ele>261</ele>
        <time>2018-09-20T09:17:44Z</time>
      </trkpt>
      <trkpt lat="45.94534" lon="4.83607">
        <ele>261</ele>
        <time>2018-09-20T09:17:45Z</time>
      </trkpt>
      <trkpt lat="45.94535" lon="4.83616">
        <ele>261</ele>
        <time>2018-09-20T09:17:46Z</time>
      </trkpt>
      <trkpt lat="45.94537" lon="4.83623">
        <ele>261</ele>
        <time>2018-09-20T09:17:47Z</time>
      </trkpt>
      <trkpt lat="45.94537" lon="4.83631">
        <ele>261</ele>
        <time>2018-09-20T09:17:48Z</time>
      </trkpt>
      <trkpt lat="45.94539" lon="4.83639">
        <ele>261</ele>
        <time>2018-09-20T09:17:49Z</time>
      </trkpt>
      <trkpt lat="45.9454" lon="4.83646">
        <ele>261</ele>
        <time>2018-09-20T09:17:50Z</time>
      </trkpt>
      <trkpt lat="45.94541" lon="4.83653">
        <ele>261</ele>
        <time>2018-09-20T09:17:51Z</time>
      </trkpt>
      <trkpt lat="45.94542" lon="4.8366">
        <ele>261</ele>
        <time>2018-09-20T09:17:52Z</time>
      </trkpt>
      <trkpt lat="45.94543" lon="4.83667">
        <ele>262</ele>
        <time>2018-09-20T09:17:53Z</time>
      </trkpt>
      <trkpt lat="45.94544" lon="4.83675">
        <ele>262</ele>
        <time>2018-09-20T09:17:54Z</time>
      </trkpt>
      <trkpt lat="45.94545" lon="4.83682">
        <ele>262</ele>
        <time>2018-09-20T09:17:55Z</time>
      </trkpt>
      <trkpt lat="45.94547" lon="4.83689">
        <ele>262</ele>
        <time>2018-09-20T09:17:56Z</time>
      </trkpt>
      <trkpt lat="45.94548" lon="4.83696">
        <ele>262</ele>
        <time>2018-09-20T09:17:57Z</time>
      </trkpt>
      <trkpt lat="45.94549" lon="4.83703">
        <ele>262</ele>
        <time>2018-09-20T09:17:58Z</time>
      </trkpt>
      <trkpt lat="45.9455" lon="4.83711">
        <ele>262</ele>
        <time>2018-09-20T09:17:59Z</time>
      </trkpt>
      <trkpt lat="45.94551" lon="4.8372">
        <ele>262</ele>
        <time>2018-09-20T09:18:00Z</time>
      </trkpt>
      <trkpt lat="45.94551" lon="4.83729">
        <ele>262</ele>
        <time>2018-09-20T09:18:01Z</time>
      </trkpt>
      <trkpt lat="45.94552" lon="4.83738">
        <ele>262</ele>
        <time>2018-09-20T09:18:02Z</time>
      </trkpt>
      <trkpt lat="45.94553" lon="4.83745">
        <ele>262</ele>
        <time>2018-09-20T09:18:03Z</time>
      </trkpt>
      <trkpt lat="45.94554" lon="4.83752">
        <ele>263</ele>
        <time>2018-09-20T09:18:04Z</time>
      </trkpt>
      <trkpt lat="45.94558" lon="4.83763">
        <ele>263</ele>
        <time>2018-09-20T09:18:06Z</time>
      </trkpt>
      <trkpt lat="45.94559" lon="4.8377">
        <ele>263</ele>
        <time>2018-09-20T09:18:07Z</time>
      </trkpt>
      <trkpt lat="45.94561" lon="4.83781">
        <ele>264</ele>
        <time>2018-09-20T09:18:09Z</time>
      </trkpt>
      <trkpt lat="45.94563" lon="4.83787">
        <ele>264</ele>
        <time>2018-09-20T09:18:10Z</time>
      </trkpt>
      <trkpt lat="45.94564" lon="4.83793">
        <ele>264</ele>
        <time>2018-09-20T09:18:11Z</time>
      </trkpt>
      <trkpt lat="45.94565" lon="4.838">
        <ele>264</ele>
        <time>2018-09-20T09:18:12Z</time>
      </trkpt>
      <trkpt lat="45.94566" lon="4.83807">
        <ele>264</ele>
        <time>2018-09-20T09:18:13Z</time>
      </trkpt>
      <trkpt lat="45.94567" lon="4.83813">
        <ele>264</ele>
        <time>2018-09-20T09:18:14Z</time>
      </trkpt>
      <trkpt lat="45.94567" lon="4.83825">
        <ele>265</ele>
        <time>2018-09-20T09:18:16Z</time>
      </trkpt>
      <trkpt lat="45.94568" lon="4.83832">
        <ele>265</ele>
        <time>2018-09-20T09:18:17Z</time>
      </trkpt>
      <trkpt lat="45.94569" lon="4.83844">
        <ele>266</ele>
        <time>2018-09-20T09:18:19Z</time>
      </trkpt>
      <trkpt lat="45.9457" lon="4.8385">
        <ele>266</ele>
        <time>2018-09-20T09:18:20Z</time>
      </trkpt>
      <trkpt lat="45.94571" lon="4.83856">
        <ele>266</ele>
        <time>2018-09-20T09:18:21Z</time>
      </trkpt>
      <trkpt lat="45.94574" lon="4.83864">
        <ele>267</ele>
        <time>2018-09-20T09:18:22Z</time>
      </trkpt>
      <trkpt lat="45.94575" lon="4.83876">
        <ele>267</ele>
        <time>2018-09-20T09:18:24Z</time>
      </trkpt>
      <trkpt lat="45.94575" lon="4.83883">
        <ele>267</ele>
        <time>2018-09-20T09:18:25Z</time>
      </trkpt>
      <trkpt lat="45.94576" lon="4.83895">
        <ele>267</ele>
        <time>2018-09-20T09:18:27Z</time>
      </trkpt>
      <trkpt lat="45.94577" lon="4.83901">
        <ele>268</ele>
        <time>2018-09-20T09:18:28Z</time>
      </trkpt>
      <trkpt lat="45.9458" lon="4.83913">
        <ele>268</ele>
        <time>2018-09-20T09:18:30Z</time>
      </trkpt>
      <trkpt lat="45.9458" lon="4.83919">
        <ele>268</ele>
        <time>2018-09-20T09:18:31Z</time>
      </trkpt>
      <trkpt lat="45.94581" lon="4.83925">
        <ele>268</ele>
        <time>2018-09-20T09:18:32Z</time>
      </trkpt>
      <trkpt lat="45.94583" lon="4.83933">
        <ele>268</ele>
        <time>2018-09-20T09:18:33Z</time>
      </trkpt>
      <trkpt lat="45.94585" lon="4.83944">
        <ele>268</ele>
        <time>2018-09-20T09:18:35Z</time>
      </trkpt>
      <trkpt lat="45.94585" lon="4.83949">
        <ele>268</ele>
        <time>2018-09-20T09:18:36Z</time>
      </trkpt>
      <trkpt lat="45.94587" lon="4.83959">
        <ele>268</ele>
        <time>2018-09-20T09:18:38Z</time>
      </trkpt>
      <trkpt lat="45.94588" lon="4.83964">
        <ele>268</ele>
        <time>2018-09-20T09:18:39Z</time>
      </trkpt>
      <trkpt lat="45.9459" lon="4.83975">
        <ele>268</ele>
        <time>2018-09-20T09:18:41Z</time>
      </trkpt>
      <trkpt lat="45.94591" lon="4.83982">
        <ele>268</ele>
        <time>2018-09-20T09:18:42Z</time>
      </trkpt>
      <trkpt lat="45.94593" lon="4.83992">
        <ele>269</ele>
        <time>2018-09-20T09:18:44Z</time>
      </trkpt>
      <trkpt lat="45.94594" lon="4.83995">
        <ele>269</ele>
        <time>2018-09-20T09:18:45Z</time>
      </trkpt>
      <trkpt lat="45.94595" lon="4.84005">
        <ele>269</ele>
        <time>2018-09-20T09:18:48Z</time>
      </trkpt>
      <trkpt lat="45.94596" lon="4.84009">
        <ele>269</ele>
        <time>2018-09-20T09:18:49Z</time>
      </trkpt>
      <trkpt lat="45.94597" lon="4.84013">
        <ele>269</ele>
        <time>2018-09-20T09:18:50Z</time>
      </trkpt>
      <trkpt lat="45.94599" lon="4.84025">
        <ele>269</ele>
        <time>2018-09-20T09:18:51Z</time>
      </trkpt>
      <trkpt lat="45.94602" lon="4.84036">
        <ele>269</ele>
        <time>2018-09-20T09:18:53Z</time>
      </trkpt>
      <trkpt lat="45.94603" lon="4.84042">
        <ele>269</ele>
        <time>2018-09-20T09:18:54Z</time>
      </trkpt>
      <trkpt lat="45.94604" lon="4.84048">
        <ele>269</ele>
        <time>2018-09-20T09:18:55Z</time>
      </trkpt>
      <trkpt lat="45.94605" lon="4.84056">
        <ele>269</ele>
        <time>2018-09-20T09:18:56Z</time>
      </trkpt>
      <trkpt lat="45.94606" lon="4.84067">
        <ele>269</ele>
        <time>2018-09-20T09:18:58Z</time>
      </trkpt>
      <trkpt lat="45.94606" lon="4.84073">
        <ele>269</ele>
        <time>2018-09-20T09:18:59Z</time>
      </trkpt>
      <trkpt lat="45.94607" lon="4.84083">
        <ele>269</ele>
        <time>2018-09-20T09:19:01Z</time>
      </trkpt>
      <trkpt lat="45.94608" lon="4.84091">
        <ele>269</ele>
        <time>2018-09-20T09:19:02Z</time>
      </trkpt>
      <trkpt lat="45.9461" lon="4.84101">
        <ele>269</ele>
        <time>2018-09-20T09:19:04Z</time>
      </trkpt>
      <trkpt lat="45.94611" lon="4.84106">
        <ele>269</ele>
        <time>2018-09-20T09:19:05Z</time>
      </trkpt>
      <trkpt lat="45.94612" lon="4.84117">
        <ele>269</ele>
        <time>2018-09-20T09:19:07Z</time>
      </trkpt>
      <trkpt lat="45.94613" lon="4.84124">
        <ele>269</ele>
        <time>2018-09-20T09:19:08Z</time>
      </trkpt>
      <trkpt lat="45.94614" lon="4.84131">
        <ele>269</ele>
        <time>2018-09-20T09:19:09Z</time>
      </trkpt>
      <trkpt lat="45.94615" lon="4.84138">
        <ele>269</ele>
        <time>2018-09-20T09:19:10Z</time>
      </trkpt>
      <trkpt lat="45.94615" lon="4.84145">
        <ele>269</ele>
        <time>2018-09-20T09:19:11Z</time>
      </trkpt>
      <trkpt lat="45.94617" lon="4.84151">
        <ele>269</ele>
        <time>2018-09-20T09:19:12Z</time>
      </trkpt>
      <trkpt lat="45.94617" lon="4.84158">
        <ele>269</ele>
        <time>2018-09-20T09:19:13Z</time>
      </trkpt>
      <trkpt lat="45.94618" lon="4.84164">
        <ele>269</ele>
        <time>2018-09-20T09:19:14Z</time>
      </trkpt>
      <trkpt lat="45.9462" lon="4.8417">
        <ele>269</ele>
        <time>2018-09-20T09:19:15Z</time>
      </trkpt>
      <trkpt lat="45.94622" lon="4.84176">
        <ele>269</ele>
        <time>2018-09-20T09:19:16Z</time>
      </trkpt>
      <trkpt lat="45.94624" lon="4.84188">
        <ele>269</ele>
        <time>2018-09-20T09:19:18Z</time>
      </trkpt>
      <trkpt lat="45.94625" lon="4.84195">
        <ele>269</ele>
        <time>2018-09-20T09:19:19Z</time>
      </trkpt>
      <trkpt lat="45.94626" lon="4.84201">
        <ele>269</ele>
        <time>2018-09-20T09:19:20Z</time>
      </trkpt>
      <trkpt lat="45.94627" lon="4.84208">
        <ele>269</ele>
        <time>2018-09-20T09:19:21Z</time>
      </trkpt>
      <trkpt lat="45.94628" lon="4.84215">
        <ele>269</ele>
        <time>2018-09-20T09:19:22Z</time>
      </trkpt>
      <trkpt lat="45.94629" lon="4.84222">
        <ele>269</ele>
        <time>2018-09-20T09:19:23Z</time>
      </trkpt>
      <trkpt lat="45.9463" lon="4.84233">
        <ele>269</ele>
        <time>2018-09-20T09:19:25Z</time>
      </trkpt>
      <trkpt lat="45.94631" lon="4.84237">
        <ele>269</ele>
        <time>2018-09-20T09:19:26Z</time>
      </trkpt>
      <trkpt lat="45.94632" lon="4.84246">
        <ele>269</ele>
        <time>2018-09-20T09:19:28Z</time>
      </trkpt>
      <trkpt lat="45.94632" lon="4.84253">
        <ele>269</ele>
        <time>2018-09-20T09:19:29Z</time>
      </trkpt>
      <trkpt lat="45.94635" lon="4.84264">
        <ele>269</ele>
        <time>2018-09-20T09:19:31Z</time>
      </trkpt>
      <trkpt lat="45.94636" lon="4.8427">
        <ele>269</ele>
        <time>2018-09-20T09:19:32Z</time>
      </trkpt>
      <trkpt lat="45.94637" lon="4.84277">
        <ele>269</ele>
        <time>2018-09-20T09:19:33Z</time>
      </trkpt>
      <trkpt lat="45.94638" lon="4.84284">
        <ele>269</ele>
        <time>2018-09-20T09:19:34Z</time>
      </trkpt>
      <trkpt lat="45.9464" lon="4.84296">
        <ele>269</ele>
        <time>2018-09-20T09:19:36Z</time>
      </trkpt>
      <trkpt lat="45.94642" lon="4.84302">
        <ele>269</ele>
        <time>2018-09-20T09:19:37Z</time>
      </trkpt>
      <trkpt lat="45.94643" lon="4.84315">
        <ele>269</ele>
        <time>2018-09-20T09:19:39Z</time>
      </trkpt>
      <trkpt lat="45.94644" lon="4.84321">
        <ele>268</ele>
        <time>2018-09-20T09:19:40Z</time>
      </trkpt>
      <trkpt lat="45.94645" lon="4.84331">
        <ele>268</ele>
        <time>2018-09-20T09:19:42Z</time>
      </trkpt>
      <trkpt lat="45.94645" lon="4.84335">
        <ele>268</ele>
        <time>2018-09-20T09:19:43Z</time>
      </trkpt>
      <trkpt lat="45.94645" lon="4.84342">
        <ele>268</ele>
        <time>2018-09-20T09:19:45Z</time>
      </trkpt>
      <trkpt lat="45.94646" lon="4.84352">
        <ele>268</ele>
        <time>2018-09-20T09:19:46Z</time>
      </trkpt>
      <trkpt lat="45.94647" lon="4.8436">
        <ele>268</ele>
        <time>2018-09-20T09:19:47Z</time>
      </trkpt>
      <trkpt lat="45.94648" lon="4.84366">
        <ele>268</ele>
        <time>2018-09-20T09:19:48Z</time>
      </trkpt>
      <trkpt lat="45.94649" lon="4.84378">
        <ele>268</ele>
        <time>2018-09-20T09:19:50Z</time>
      </trkpt>
      <trkpt lat="45.9465" lon="4.84384">
        <ele>268</ele>
        <time>2018-09-20T09:19:51Z</time>
      </trkpt>
      <trkpt lat="45.94652" lon="4.84396">
        <ele>268</ele>
        <time>2018-09-20T09:19:53Z</time>
      </trkpt>
      <trkpt lat="45.94652" lon="4.84403">
        <ele>268</ele>
        <time>2018-09-20T09:19:54Z</time>
      </trkpt>
      <trkpt lat="45.94654" lon="4.84413">
        <ele>268</ele>
        <time>2018-09-20T09:19:56Z</time>
      </trkpt>
      <trkpt lat="45.94654" lon="4.84419">
        <ele>268</ele>
        <time>2018-09-20T09:19:57Z</time>
      </trkpt>
      <trkpt lat="45.94656" lon="4.84431">
        <ele>268</ele>
        <time>2018-09-20T09:19:59Z</time>
      </trkpt>
      <trkpt lat="45.94657" lon="4.84437">
        <ele>268</ele>
        <time>2018-09-20T09:20:00Z</time>
      </trkpt>
      <trkpt lat="45.94657" lon="4.84443">
        <ele>268</ele>
        <time>2018-09-20T09:20:01Z</time>
      </trkpt>
      <trkpt lat="45.94658" lon="4.8445">
        <ele>268</ele>
        <time>2018-09-20T09:20:02Z</time>
      </trkpt>
      <trkpt lat="45.94659" lon="4.84457">
        <ele>268</ele>
        <time>2018-09-20T09:20:03Z</time>
      </trkpt>
      <trkpt lat="45.94659" lon="4.84466">
        <ele>268</ele>
        <time>2018-09-20T09:20:04Z</time>
      </trkpt>
      <trkpt lat="45.94659" lon="4.84473">
        <ele>268</ele>
        <time>2018-09-20T09:20:05Z</time>
      </trkpt>
      <trkpt lat="45.94661" lon="4.84482">
        <ele>268</ele>
        <time>2018-09-20T09:20:06Z</time>
      </trkpt>
      <trkpt lat="45.94661" lon="4.8449">
        <ele>268</ele>
        <time>2018-09-20T09:20:07Z</time>
      </trkpt>
      <trkpt lat="45.94662" lon="4.84499">
        <ele>268</ele>
        <time>2018-09-20T09:20:08Z</time>
      </trkpt>
      <trkpt lat="45.94664" lon="4.84506">
        <ele>268</ele>
        <time>2018-09-20T09:20:09Z</time>
      </trkpt>
      <trkpt lat="45.94664" lon="4.84515">
        <ele>268</ele>
        <time>2018-09-20T09:20:10Z</time>
      </trkpt>
      <trkpt lat="45.94665" lon="4.84522">
        <ele>268</ele>
        <time>2018-09-20T09:20:11Z</time>
      </trkpt>
      <trkpt lat="45.94666" lon="4.8453">
        <ele>268</ele>
        <time>2018-09-20T09:20:12Z</time>
      </trkpt>
      <trkpt lat="45.94666" lon="4.84536">
        <ele>268</ele>
        <time>2018-09-20T09:20:13Z</time>
      </trkpt>
      <trkpt lat="45.94668" lon="4.84544">
        <ele>268</ele>
        <time>2018-09-20T09:20:14Z</time>
      </trkpt>
      <trkpt lat="45.94668" lon="4.84556">
        <ele>268</ele>
        <time>2018-09-20T09:20:16Z</time>
      </trkpt>
      <trkpt lat="45.94669" lon="4.84563">
        <ele>268</ele>
        <time>2018-09-20T09:20:17Z</time>
      </trkpt>
      <trkpt lat="45.9467" lon="4.84575">
        <ele>268</ele>
        <time>2018-09-20T09:20:19Z</time>
      </trkpt>
      <trkpt lat="45.9467" lon="4.84583">
        <ele>268</ele>
        <time>2018-09-20T09:20:20Z</time>
      </trkpt>
      <trkpt lat="45.9467" lon="4.8459">
        <ele>268</ele>
        <time>2018-09-20T09:20:21Z</time>
      </trkpt>
      <trkpt lat="45.94671" lon="4.84598">
        <ele>268</ele>
        <time>2018-09-20T09:20:22Z</time>
      </trkpt>
      <trkpt lat="45.94671" lon="4.84606">
        <ele>268</ele>
        <time>2018-09-20T09:20:23Z</time>
      </trkpt>
      <trkpt lat="45.94671" lon="4.84613">
        <ele>268</ele>
        <time>2018-09-20T09:20:24Z</time>
      </trkpt>
      <trkpt lat="45.9467" lon="4.84621">
        <ele>268</ele>
        <time>2018-09-20T09:20:25Z</time>
      </trkpt>
      <trkpt lat="45.94671" lon="4.84628">
        <ele>268</ele>
        <time>2018-09-20T09:20:26Z</time>
      </trkpt>
      <trkpt lat="45.94672" lon="4.84636">
        <ele>268</ele>
        <time>2018-09-20T09:20:27Z</time>
      </trkpt>
      <trkpt lat="45.94672" lon="4.84644">
        <ele>268</ele>
        <time>2018-09-20T09:20:28Z</time>
      </trkpt>
      <trkpt lat="45.94672" lon="4.84651">
        <ele>268</ele>
        <time>2018-09-20T09:20:29Z</time>
      </trkpt>
      <trkpt lat="45.94672" lon="4.84657">
        <ele>268</ele>
        <time>2018-09-20T09:20:30Z</time>
      </trkpt>
      <trkpt lat="45.94672" lon="4.84665">
        <ele>269</ele>
        <time>2018-09-20T09:20:31Z</time>
      </trkpt>
      <trkpt lat="45.94673" lon="4.84671">
        <ele>269</ele>
        <time>2018-09-20T09:20:32Z</time>
      </trkpt>
      <trkpt lat="45.94672" lon="4.84677">
        <ele>269</ele>
        <time>2018-09-20T09:20:33Z</time>
      </trkpt>
      <trkpt lat="45.94673" lon="4.84684">
        <ele>269</ele>
        <time>2018-09-20T09:20:34Z</time>
      </trkpt>
      <trkpt lat="45.94673" lon="4.84691">
        <ele>269</ele>
        <time>2018-09-20T09:20:35Z</time>
      </trkpt>
      <trkpt lat="45.94673" lon="4.84698">
        <ele>269</ele>
        <time>2018-09-20T09:20:36Z</time>
      </trkpt>
      <trkpt lat="45.94673" lon="4.84706">
        <ele>269</ele>
        <time>2018-09-20T09:20:37Z</time>
      </trkpt>
      <trkpt lat="45.94673" lon="4.84714">
        <ele>269</ele>
        <time>2018-09-20T09:20:38Z</time>
      </trkpt>
      <trkpt lat="45.94674" lon="4.84721">
        <ele>269</ele>
        <time>2018-09-20T09:20:39Z</time>
      </trkpt>
      <trkpt lat="45.94674" lon="4.84728">
        <ele>269</ele>
        <time>2018-09-20T09:20:40Z</time>
      </trkpt>
      <trkpt lat="45.94674" lon="4.84735">
        <ele>269</ele>
        <time>2018-09-20T09:20:41Z</time>
      </trkpt>
      <trkpt lat="45.94675" lon="4.84741">
        <ele>269</ele>
        <time>2018-09-20T09:20:42Z</time>
      </trkpt>
      <trkpt lat="45.94676" lon="4.8475">
        <ele>269</ele>
        <time>2018-09-20T09:20:43Z</time>
      </trkpt>
      <trkpt lat="45.94676" lon="4.84758">
        <ele>269</ele>
        <time>2018-09-20T09:20:44Z</time>
      </trkpt>
      <trkpt lat="45.94676" lon="4.84765">
        <ele>269</ele>
        <time>2018-09-20T09:20:45Z</time>
      </trkpt>
      <trkpt lat="45.94677" lon="4.84772">
        <ele>269</ele>
        <time>2018-09-20T09:20:46Z</time>
      </trkpt>
      <trkpt lat="45.94678" lon="4.84778">
        <ele>269</ele>
        <time>2018-09-20T09:20:47Z</time>
      </trkpt>
      <trkpt lat="45.94678" lon="4.84786">
        <ele>269</ele>
        <time>2018-09-20T09:20:48Z</time>
      </trkpt>
      <trkpt lat="45.94679" lon="4.84795">
        <ele>268</ele>
        <time>2018-09-20T09:20:49Z</time>
      </trkpt>
      <trkpt lat="45.9468" lon="4.84802">
        <ele>268</ele>
        <time>2018-09-20T09:20:50Z</time>
      </trkpt>
      <trkpt lat="45.9468" lon="4.8481">
        <ele>268</ele>
        <time>2018-09-20T09:20:51Z</time>
      </trkpt>
      <trkpt lat="45.94681" lon="4.84817">
        <ele>268</ele>
        <time>2018-09-20T09:20:52Z</time>
      </trkpt>
      <trkpt lat="45.94682" lon="4.84824">
        <ele>268</ele>
        <time>2018-09-20T09:20:53Z</time>
      </trkpt>
      <trkpt lat="45.94682" lon="4.84831">
        <ele>268</ele>
        <time>2018-09-20T09:20:54Z</time>
      </trkpt>
      <trkpt lat="45.94682" lon="4.84843">
        <ele>268</ele>
        <time>2018-09-20T09:20:56Z</time>
      </trkpt>
      <trkpt lat="45.94683" lon="4.8485">
        <ele>268</ele>
        <time>2018-09-20T09:20:57Z</time>
      </trkpt>
      <trkpt lat="45.94682" lon="4.84856">
        <ele>268</ele>
        <time>2018-09-20T09:20:58Z</time>
      </trkpt>
      <trkpt lat="45.94682" lon="4.84864">
        <ele>268</ele>
        <time>2018-09-20T09:20:59Z</time>
      </trkpt>
      <trkpt lat="45.94683" lon="4.84871">
        <ele>268</ele>
        <time>2018-09-20T09:21:00Z</time>
      </trkpt>
      <trkpt lat="45.94684" lon="4.84879">
        <ele>268</ele>
        <time>2018-09-20T09:21:01Z</time>
      </trkpt>
      <trkpt lat="45.94684" lon="4.84887">
        <ele>268</ele>
        <time>2018-09-20T09:21:02Z</time>
      </trkpt>
      <trkpt lat="45.94685" lon="4.84895">
        <ele>268</ele>
        <time>2018-09-20T09:21:03Z</time>
      </trkpt>
      <trkpt lat="45.94686" lon="4.84902">
        <ele>269</ele>
        <time>2018-09-20T09:21:04Z</time>
      </trkpt>
      <trkpt lat="45.94687" lon="4.84909">
        <ele>269</ele>
        <time>2018-09-20T09:21:05Z</time>
      </trkpt>
      <trkpt lat="45.94687" lon="4.84917">
        <ele>269</ele>
        <time>2018-09-20T09:21:06Z</time>
      </trkpt>
      <trkpt lat="45.94688" lon="4.84925">
        <ele>269</ele>
        <time>2018-09-20T09:21:07Z</time>
      </trkpt>
      <trkpt lat="45.94688" lon="4.84934">
        <ele>269</ele>
        <time>2018-09-20T09:21:08Z</time>
      </trkpt>
      <trkpt lat="45.9469" lon="4.84941">
        <ele>269</ele>
        <time>2018-09-20T09:21:09Z</time>
      </trkpt>
      <trkpt lat="45.94691" lon="4.84948">
        <ele>269</ele>
        <time>2018-09-20T09:21:10Z</time>
      </trkpt>
      <trkpt lat="45.94692" lon="4.84955">
        <ele>269</ele>
        <time>2018-09-20T09:21:11Z</time>
      </trkpt>
      <trkpt lat="45.94692" lon="4.84961">
        <ele>269</ele>
        <time>2018-09-20T09:21:12Z</time>
      </trkpt>
      <trkpt lat="45.94693" lon="4.84968">
        <ele>269</ele>
        <time>2018-09-20T09:21:13Z</time>
      </trkpt>
      <trkpt lat="45.94694" lon="4.84975">
        <ele>269</ele>
        <time>2018-09-20T09:21:14Z</time>
      </trkpt>
      <trkpt lat="45.94694" lon="4.84982">
        <ele>269</ele>
        <time>2018-09-20T09:21:15Z</time>
      </trkpt>
      <trkpt lat="45.94695" lon="4.84991">
        <ele>269</ele>
        <time>2018-09-20T09:21:16Z</time>
      </trkpt>
      <trkpt lat="45.94696" lon="4.84997">
        <ele>269</ele>
        <time>2018-09-20T09:21:17Z</time>
      </trkpt>
      <trkpt lat="45.94696" lon="4.85005">
        <ele>269</ele>
        <time>2018-09-20T09:21:18Z</time>
      </trkpt>
      <trkpt lat="45.94697" lon="4.85013">
        <ele>269</ele>
        <time>2018-09-20T09:21:19Z</time>
      </trkpt>
      <trkpt lat="45.94698" lon="4.85022">
        <ele>269</ele>
        <time>2018-09-20T09:21:20Z</time>
      </trkpt>
      <trkpt lat="45.947" lon="4.8503">
        <ele>269</ele>
        <time>2018-09-20T09:21:21Z</time>
      </trkpt>
      <trkpt lat="45.94701" lon="4.85037">
        <ele>269</ele>
        <time>2018-09-20T09:21:22Z</time>
      </trkpt>
      <trkpt lat="45.94702" lon="4.85044">
        <ele>269</ele>
        <time>2018-09-20T09:21:23Z</time>
      </trkpt>
      <trkpt lat="45.94703" lon="4.85051">
        <ele>269</ele>
        <time>2018-09-20T09:21:24Z</time>
      </trkpt>
      <trkpt lat="45.94704" lon="4.85058">
        <ele>269</ele>
        <time>2018-09-20T09:21:25Z</time>
      </trkpt>
      <trkpt lat="45.94706" lon="4.85069">
        <ele>269</ele>
        <time>2018-09-20T09:21:27Z</time>
      </trkpt>
      <trkpt lat="45.94706" lon="4.85075">
        <ele>269</ele>
        <time>2018-09-20T09:21:28Z</time>
      </trkpt>
      <trkpt lat="45.94707" lon="4.85087">
        <ele>269</ele>
        <time>2018-09-20T09:21:30Z</time>
      </trkpt>
      <trkpt lat="45.94709" lon="4.85091">
        <ele>269</ele>
        <time>2018-09-20T09:21:31Z</time>
      </trkpt>
      <trkpt lat="45.9471" lon="4.85103">
        <ele>269</ele>
        <time>2018-09-20T09:21:33Z</time>
      </trkpt>
      <trkpt lat="45.9471" lon="4.85109">
        <ele>269</ele>
        <time>2018-09-20T09:21:34Z</time>
      </trkpt>
      <trkpt lat="45.9471" lon="4.85117">
        <ele>269</ele>
        <time>2018-09-20T09:21:35Z</time>
      </trkpt>
      <trkpt lat="45.94712" lon="4.85123">
        <ele>269</ele>
        <time>2018-09-20T09:21:36Z</time>
      </trkpt>
      <trkpt lat="45.94712" lon="4.8513">
        <ele>269</ele>
        <time>2018-09-20T09:21:37Z</time>
      </trkpt>
      <trkpt lat="45.94714" lon="4.85138">
        <ele>269</ele>
        <time>2018-09-20T09:21:38Z</time>
      </trkpt>
      <trkpt lat="45.94714" lon="4.85151">
        <ele>269</ele>
        <time>2018-09-20T09:21:40Z</time>
      </trkpt>
      <trkpt lat="45.94716" lon="4.8516">
        <ele>269</ele>
        <time>2018-09-20T09:21:41Z</time>
      </trkpt>
      <trkpt lat="45.94717" lon="4.85167">
        <ele>269</ele>
        <time>2018-09-20T09:21:42Z</time>
      </trkpt>
      <trkpt lat="45.94718" lon="4.85174">
        <ele>269</ele>
        <time>2018-09-20T09:21:43Z</time>
      </trkpt>
      <trkpt lat="45.94718" lon="4.85181">
        <ele>269</ele>
        <time>2018-09-20T09:21:44Z</time>
      </trkpt>
      <trkpt lat="45.94719" lon="4.85188">
        <ele>269</ele>
        <time>2018-09-20T09:21:45Z</time>
      </trkpt>
      <trkpt lat="45.94719" lon="4.85196">
        <ele>269</ele>
        <time>2018-09-20T09:21:46Z</time>
      </trkpt>
      <trkpt lat="45.9472" lon="4.85203">
        <ele>269</ele>
        <time>2018-09-20T09:21:47Z</time>
      </trkpt>
      <trkpt lat="45.94721" lon="4.85212">
        <ele>269</ele>
        <time>2018-09-20T09:21:48Z</time>
      </trkpt>
      <trkpt lat="45.94722" lon="4.85219">
        <ele>269</ele>
        <time>2018-09-20T09:21:49Z</time>
      </trkpt>
      <trkpt lat="45.94722" lon="4.85227">
        <ele>269</ele>
        <time>2018-09-20T09:21:50Z</time>
      </trkpt>
      <trkpt lat="45.94723" lon="4.85234">
        <ele>269</ele>
        <time>2018-09-20T09:21:51Z</time>
      </trkpt>
      <trkpt lat="45.94724" lon="4.85241">
        <ele>269</ele>
        <time>2018-09-20T09:21:52Z</time>
      </trkpt>
      <trkpt lat="45.94724" lon="4.85247">
        <ele>269</ele>
        <time>2018-09-20T09:21:53Z</time>
      </trkpt>
      <trkpt lat="45.94725" lon="4.8526">
        <ele>269</ele>
        <time>2018-09-20T09:21:55Z</time>
      </trkpt>
      <trkpt lat="45.94726" lon="4.85266">
        <ele>269</ele>
        <time>2018-09-20T09:21:56Z</time>
      </trkpt>
      <trkpt lat="45.94727" lon="4.85278">
        <ele>269</ele>
        <time>2018-09-20T09:21:58Z</time>
      </trkpt>
      <trkpt lat="45.94728" lon="4.85283">
        <ele>269</ele>
        <time>2018-09-20T09:21:59Z</time>
      </trkpt>
      <trkpt lat="45.94729" lon="4.85294">
        <ele>270</ele>
        <time>2018-09-20T09:22:01Z</time>
      </trkpt>
      <trkpt lat="45.9473" lon="4.853">
        <ele>270</ele>
        <time>2018-09-20T09:22:02Z</time>
      </trkpt>
      <trkpt lat="45.94731" lon="4.85311">
        <ele>270</ele>
        <time>2018-09-20T09:22:04Z</time>
      </trkpt>
      <trkpt lat="45.94731" lon="4.85317">
        <ele>270</ele>
        <time>2018-09-20T09:22:05Z</time>
      </trkpt>
      <trkpt lat="45.94731" lon="4.85329">
        <ele>270</ele>
        <time>2018-09-20T09:22:07Z</time>
      </trkpt>
      <trkpt lat="45.94732" lon="4.85336">
        <ele>271</ele>
        <time>2018-09-20T09:22:08Z</time>
      </trkpt>
      <trkpt lat="45.94733" lon="4.85343">
        <ele>271</ele>
        <time>2018-09-20T09:22:09Z</time>
      </trkpt>
      <trkpt lat="45.94734" lon="4.85349">
        <ele>271</ele>
        <time>2018-09-20T09:22:10Z</time>
      </trkpt>
      <trkpt lat="45.94736" lon="4.85361">
        <ele>271</ele>
        <time>2018-09-20T09:22:12Z</time>
      </trkpt>
      <trkpt lat="45.94737" lon="4.85368">
        <ele>271</ele>
        <time>2018-09-20T09:22:13Z</time>
      </trkpt>
      <trkpt lat="45.94737" lon="4.85375">
        <ele>271</ele>
        <time>2018-09-20T09:22:14Z</time>
      </trkpt>
      <trkpt lat="45.94738" lon="4.85382">
        <ele>271</ele>
        <time>2018-09-20T09:22:15Z</time>
      </trkpt>
      <trkpt lat="45.94739" lon="4.85388">
        <ele>272</ele>
        <time>2018-09-20T09:22:16Z</time>
      </trkpt>
      <trkpt lat="45.94739" lon="4.85395">
        <ele>272</ele>
        <time>2018-09-20T09:22:17Z</time>
      </trkpt>
      <trkpt lat="45.9474" lon="4.85403">
        <ele>272</ele>
        <time>2018-09-20T09:22:18Z</time>
      </trkpt>
      <trkpt lat="45.9474" lon="4.8541">
        <ele>272</ele>
        <time>2018-09-20T09:22:19Z</time>
      </trkpt>
      <trkpt lat="45.94742" lon="4.85416">
        <ele>273</ele>
        <time>2018-09-20T09:22:20Z</time>
      </trkpt>
      <trkpt lat="45.94743" lon="4.85424">
        <ele>273</ele>
        <time>2018-09-20T09:22:21Z</time>
      </trkpt>
      <trkpt lat="45.94744" lon="4.8543">
        <ele>273</ele>
        <time>2018-09-20T09:22:22Z</time>
      </trkpt>
      <trkpt lat="45.94746" lon="4.85438">
        <ele>274</ele>
        <time>2018-09-20T09:22:23Z</time>
      </trkpt>
      <trkpt lat="45.94747" lon="4.85449">
        <ele>274</ele>
        <time>2018-09-20T09:22:25Z</time>
      </trkpt>
      <trkpt lat="45.94747" lon="4.85455">
        <ele>274</ele>
        <time>2018-09-20T09:22:26Z</time>
      </trkpt>
      <trkpt lat="45.94748" lon="4.85466">
        <ele>274</ele>
        <time>2018-09-20T09:22:28Z</time>
      </trkpt>
      <trkpt lat="45.94748" lon="4.85473">
        <ele>274</ele>
        <time>2018-09-20T09:22:29Z</time>
      </trkpt>
      <trkpt lat="45.94749" lon="4.85485">
        <ele>275</ele>
        <time>2018-09-20T09:22:31Z</time>
      </trkpt>
      <trkpt lat="45.9475" lon="4.8549">
        <ele>276</ele>
        <time>2018-09-20T09:22:32Z</time>
      </trkpt>
      <trkpt lat="45.94751" lon="4.85501">
        <ele>276</ele>
        <time>2018-09-20T09:22:34Z</time>
      </trkpt>
      <trkpt lat="45.94752" lon="4.85507">
        <ele>277</ele>
        <time>2018-09-20T09:22:35Z</time>
      </trkpt>
      <trkpt lat="45.94753" lon="4.85518">
        <ele>277</ele>
        <time>2018-09-20T09:22:37Z</time>
      </trkpt>
      <trkpt lat="45.94754" lon="4.85523">
        <ele>277</ele>
        <time>2018-09-20T09:22:38Z</time>
      </trkpt>
      <trkpt lat="45.94755" lon="4.85534">
        <ele>278</ele>
        <time>2018-09-20T09:22:40Z</time>
      </trkpt>
      <trkpt lat="45.94755" lon="4.85539">
        <ele>278</ele>
        <time>2018-09-20T09:22:41Z</time>
      </trkpt>
      <trkpt lat="45.94757" lon="4.8555">
        <ele>278</ele>
        <time>2018-09-20T09:22:43Z</time>
      </trkpt>
      <trkpt lat="45.94757" lon="4.85555">
        <ele>278</ele>
        <time>2018-09-20T09:22:44Z</time>
      </trkpt>
      <trkpt lat="45.94759" lon="4.85565">
        <ele>279</ele>
        <time>2018-09-20T09:22:46Z</time>
      </trkpt>
      <trkpt lat="45.9476" lon="4.8557">
        <ele>279</ele>
        <time>2018-09-20T09:22:47Z</time>
      </trkpt>
      <trkpt lat="45.94762" lon="4.8558">
        <ele>279</ele>
        <time>2018-09-20T09:22:49Z</time>
      </trkpt>
      <trkpt lat="45.94763" lon="4.85586">
        <ele>280</ele>
        <time>2018-09-20T09:22:50Z</time>
      </trkpt>
      <trkpt lat="45.94765" lon="4.85595">
        <ele>280</ele>
        <time>2018-09-20T09:22:52Z</time>
      </trkpt>
      <trkpt lat="45.94766" lon="4.85601">
        <ele>280</ele>
        <time>2018-09-20T09:22:53Z</time>
      </trkpt>
      <trkpt lat="45.94768" lon="4.85612">
        <ele>280</ele>
        <time>2018-09-20T09:22:55Z</time>
      </trkpt>
      <trkpt lat="45.9477" lon="4.85616">
        <ele>280</ele>
        <time>2018-09-20T09:22:56Z</time>
      </trkpt>
      <trkpt lat="45.94773" lon="4.85627">
        <ele>280</ele>
        <time>2018-09-20T09:22:58Z</time>
      </trkpt>
      <trkpt lat="45.94774" lon="4.85632">
        <ele>280</ele>
        <time>2018-09-20T09:22:59Z</time>
      </trkpt>
      <trkpt lat="45.94777" lon="4.85643">
        <ele>281</ele>
        <time>2018-09-20T09:23:01Z</time>
      </trkpt>
      <trkpt lat="45.94778" lon="4.85648">
        <ele>281</ele>
        <time>2018-09-20T09:23:02Z</time>
      </trkpt>
      <trkpt lat="45.94781" lon="4.85658">
        <ele>281</ele>
        <time>2018-09-20T09:23:04Z</time>
      </trkpt>
      <trkpt lat="45.94783" lon="4.85663">
        <ele>281</ele>
        <time>2018-09-20T09:23:05Z</time>
      </trkpt>
      <trkpt lat="45.94785" lon="4.85673">
        <ele>280</ele>
        <time>2018-09-20T09:23:07Z</time>
      </trkpt>
      <trkpt lat="45.94787" lon="4.85678">
        <ele>280</ele>
        <time>2018-09-20T09:23:08Z</time>
      </trkpt>
      <trkpt lat="45.9479" lon="4.85689">
        <ele>280</ele>
        <time>2018-09-20T09:23:10Z</time>
      </trkpt>
      <trkpt lat="45.94791" lon="4.85694">
        <ele>280</ele>
        <time>2018-09-20T09:23:11Z</time>
      </trkpt>
      <trkpt lat="45.94793" lon="4.85701">
        <ele>280</ele>
        <time>2018-09-20T09:23:12Z</time>
      </trkpt>
      <trkpt lat="45.94794" lon="4.85707">
        <ele>280</ele>
        <time>2018-09-20T09:23:13Z</time>
      </trkpt>
      <trkpt lat="45.94796" lon="4.85713">
        <ele>280</ele>
        <time>2018-09-20T09:23:14Z</time>
      </trkpt>
      <trkpt lat="45.94798" lon="4.85719">
        <ele>280</ele>
        <time>2018-09-20T09:23:15Z</time>
      </trkpt>
      <trkpt lat="45.948" lon="4.85726">
        <ele>280</ele>
        <time>2018-09-20T09:23:16Z</time>
      </trkpt>
      <trkpt lat="45.94802" lon="4.85732">
        <ele>280</ele>
        <time>2018-09-20T09:23:17Z</time>
      </trkpt>
      <trkpt lat="45.94804" lon="4.85738">
        <ele>279</ele>
        <time>2018-09-20T09:23:18Z</time>
      </trkpt>
      <trkpt lat="45.94805" lon="4.85745">
        <ele>279</ele>
        <time>2018-09-20T09:23:19Z</time>
      </trkpt>
      <trkpt lat="45.94807" lon="4.85751">
        <ele>278</ele>
        <time>2018-09-20T09:23:20Z</time>
      </trkpt>
      <trkpt lat="45.94809" lon="4.85757">
        <ele>278</ele>
        <time>2018-09-20T09:23:21Z</time>
      </trkpt>
      <trkpt lat="45.9481" lon="4.85764">
        <ele>278</ele>
        <time>2018-09-20T09:23:22Z</time>
      </trkpt>
      <trkpt lat="45.94812" lon="4.85771">
        <ele>278</ele>
        <time>2018-09-20T09:23:23Z</time>
      </trkpt>
      <trkpt lat="45.94813" lon="4.85777">
        <ele>278</ele>
        <time>2018-09-20T09:23:24Z</time>
      </trkpt>
      <trkpt lat="45.94815" lon="4.85784">
        <ele>278</ele>
        <time>2018-09-20T09:23:25Z</time>
      </trkpt>
      <trkpt lat="45.94817" lon="4.85791">
        <ele>278</ele>
        <time>2018-09-20T09:23:26Z</time>
      </trkpt>
      <trkpt lat="45.94819" lon="4.85797">
        <ele>278</ele>
        <time>2018-09-20T09:23:27Z</time>
      </trkpt>
      <trkpt lat="45.94821" lon="4.85803">
        <ele>278</ele>
        <time>2018-09-20T09:23:28Z</time>
      </trkpt>
      <trkpt lat="45.94821" lon="4.8581">
        <ele>278</ele>
        <time>2018-09-20T09:23:29Z</time>
      </trkpt>
      <trkpt lat="45.94823" lon="4.85817">
        <ele>278</ele>
        <time>2018-09-20T09:23:30Z</time>
      </trkpt>
      <trkpt lat="45.94825" lon="4.85823">
        <ele>277</ele>
        <time>2018-09-20T09:23:31Z</time>
      </trkpt>
      <trkpt lat="45.94827" lon="4.8583">
        <ele>277</ele>
        <time>2018-09-20T09:23:32Z</time>
      </trkpt>
      <trkpt lat="45.94828" lon="4.85836">
        <ele>277</ele>
        <time>2018-09-20T09:23:33Z</time>
      </trkpt>
      <trkpt lat="45.9483" lon="4.85842">
        <ele>277</ele>
        <time>2018-09-20T09:23:34Z</time>
      </trkpt>
      <trkpt lat="45.94833" lon="4.8585">
        <ele>277</ele>
        <time>2018-09-20T09:23:35Z</time>
      </trkpt>
      <trkpt lat="45.94834" lon="4.85857">
        <ele>276</ele>
        <time>2018-09-20T09:23:36Z</time>
      </trkpt>
      <trkpt lat="45.94837" lon="4.85865">
        <ele>276</ele>
        <time>2018-09-20T09:23:37Z</time>
      </trkpt>
      <trkpt lat="45.94839" lon="4.85873">
        <ele>276</ele>
        <time>2018-09-20T09:23:38Z</time>
      </trkpt>
      <trkpt lat="45.9484" lon="4.85879">
        <ele>276</ele>
        <time>2018-09-20T09:23:39Z</time>
      </trkpt>
      <trkpt lat="45.94842" lon="4.85887">
        <ele>276</ele>
        <time>2018-09-20T09:23:40Z</time>
      </trkpt>
      <trkpt lat="45.94844" lon="4.85895">
        <ele>276</ele>
        <time>2018-09-20T09:23:41Z</time>
      </trkpt>
      <trkpt lat="45.94847" lon="4.85902">
        <ele>276</ele>
        <time>2018-09-20T09:23:42Z</time>
      </trkpt>
      <trkpt lat="45.94848" lon="4.85909">
        <ele>275</ele>
        <time>2018-09-20T09:23:43Z</time>
      </trkpt>
      <trkpt lat="45.9485" lon="4.85916">
        <ele>275</ele>
        <time>2018-09-20T09:23:44Z</time>
      </trkpt>
      <trkpt lat="45.94852" lon="4.85923">
        <ele>275</ele>
        <time>2018-09-20T09:23:45Z</time>
      </trkpt>
      <trkpt lat="45.94854" lon="4.85931">
        <ele>275</ele>
        <time>2018-09-20T09:23:46Z</time>
      </trkpt>
      <trkpt lat="45.94856" lon="4.85937">
        <ele>275</ele>
        <time>2018-09-20T09:23:47Z</time>
      </trkpt>
      <trkpt lat="45.94858" lon="4.85944">
        <ele>275</ele>
        <time>2018-09-20T09:23:48Z</time>
      </trkpt>
      <trkpt lat="45.94859" lon="4.85951">
        <ele>275</ele>
        <time>2018-09-20T09:23:49Z</time>
      </trkpt>
      <trkpt lat="45.94861" lon="4.85958">
        <ele>275</ele>
        <time>2018-09-20T09:23:50Z</time>
      </trkpt>
      <trkpt lat="45.94863" lon="4.85965">
        <ele>275</ele>
        <time>2018-09-20T09:23:51Z</time>
      </trkpt>
      <trkpt lat="45.94864" lon="4.85972">
        <ele>275</ele>
        <time>2018-09-20T09:23:52Z</time>
      </trkpt>
      <trkpt lat="45.94866" lon="4.85979">
        <ele>275</ele>
        <time>2018-09-20T09:23:53Z</time>
      </trkpt>
      <trkpt lat="45.94867" lon="4.85986">
        <ele>275</ele>
        <time>2018-09-20T09:23:54Z</time>
      </trkpt>
      <trkpt lat="45.94869" lon="4.85992">
        <ele>275</ele>
        <time>2018-09-20T09:23:55Z</time>
      </trkpt>
      <trkpt lat="45.9487" lon="4.85998">
        <ele>275</ele>
        <time>2018-09-20T09:23:56Z</time>
      </trkpt>
      <trkpt lat="45.94871" lon="4.86005">
        <ele>274</ele>
        <time>2018-09-20T09:23:57Z</time>
      </trkpt>
      <trkpt lat="45.94873" lon="4.86012">
        <ele>274</ele>
        <time>2018-09-20T09:23:58Z</time>
      </trkpt>
      <trkpt lat="45.94875" lon="4.86018">
        <ele>274</ele>
        <time>2018-09-20T09:23:59Z</time>
      </trkpt>
      <trkpt lat="45.94877" lon="4.86025">
        <ele>274</ele>
        <time>2018-09-20T09:24:00Z</time>
      </trkpt>
      <trkpt lat="45.94879" lon="4.86031">
        <ele>274</ele>
        <time>2018-09-20T09:24:01Z</time>
      </trkpt>
      <trkpt lat="45.94881" lon="4.86038">
        <ele>274</ele>
        <time>2018-09-20T09:24:02Z</time>
      </trkpt>
      <trkpt lat="45.94883" lon="4.86045">
        <ele>274</ele>
        <time>2018-09-20T09:24:03Z</time>
      </trkpt>
      <trkpt lat="45.94885" lon="4.86051">
        <ele>274</ele>
        <time>2018-09-20T09:24:04Z</time>
      </trkpt>
      <trkpt lat="45.94886" lon="4.86058">
        <ele>274</ele>
        <time>2018-09-20T09:24:05Z</time>
      </trkpt>
      <trkpt lat="45.9489" lon="4.86069">
        <ele>274</ele>
        <time>2018-09-20T09:24:07Z</time>
      </trkpt>
      <trkpt lat="45.94892" lon="4.86074">
        <ele>274</ele>
        <time>2018-09-20T09:24:08Z</time>
      </trkpt>
      <trkpt lat="45.94895" lon="4.8608">
        <ele>274</ele>
        <time>2018-09-20T09:24:09Z</time>
      </trkpt>
      <trkpt lat="45.94896" lon="4.86086">
        <ele>274</ele>
        <time>2018-09-20T09:24:10Z</time>
      </trkpt>
      <trkpt lat="45.94898" lon="4.86093">
        <ele>274</ele>
        <time>2018-09-20T09:24:11Z</time>
      </trkpt>
      <trkpt lat="45.94899" lon="4.86099">
        <ele>274</ele>
        <time>2018-09-20T09:24:12Z</time>
      </trkpt>
      <trkpt lat="45.94902" lon="4.86106">
        <ele>274</ele>
        <time>2018-09-20T09:24:13Z</time>
      </trkpt>
      <trkpt lat="45.94905" lon="4.86112">
        <ele>274</ele>
        <time>2018-09-20T09:24:14Z</time>
      </trkpt>
      <trkpt lat="45.9491" lon="4.86119">
        <ele>274</ele>
        <time>2018-09-20T09:24:15Z</time>
      </trkpt>
      <trkpt lat="45.94912" lon="4.86124">
        <ele>274</ele>
        <time>2018-09-20T09:24:16Z</time>
      </trkpt>
      <trkpt lat="45.94916" lon="4.86129">
        <ele>274</ele>
        <time>2018-09-20T09:24:17Z</time>
      </trkpt>
      <trkpt lat="45.94919" lon="4.86135">
        <ele>273</ele>
        <time>2018-09-20T09:24:18Z</time>
      </trkpt>
      <trkpt lat="45.94922" lon="4.86141">
        <ele>273</ele>
        <time>2018-09-20T09:24:19Z</time>
      </trkpt>
      <trkpt lat="45.94927" lon="4.86147">
        <ele>273</ele>
        <time>2018-09-20T09:24:20Z</time>
      </trkpt>
      <trkpt lat="45.94931" lon="4.86152">
        <ele>273</ele>
        <time>2018-09-20T09:24:21Z</time>
      </trkpt>
      <trkpt lat="45.94935" lon="4.86157">
        <ele>273</ele>
        <time>2018-09-20T09:24:22Z</time>
      </trkpt>
      <trkpt lat="45.94939" lon="4.86162">
        <ele>273</ele>
        <time>2018-09-20T09:24:23Z</time>
      </trkpt>
      <trkpt lat="45.94943" lon="4.86167">
        <ele>273</ele>
        <time>2018-09-20T09:24:24Z</time>
      </trkpt>
      <trkpt lat="45.94947" lon="4.86173">
        <ele>273</ele>
        <time>2018-09-20T09:24:25Z</time>
      </trkpt>
      <trkpt lat="45.9495" lon="4.86178">
        <ele>273</ele>
        <time>2018-09-20T09:24:26Z</time>
      </trkpt>
      <trkpt lat="45.94954" lon="4.86183">
        <ele>273</ele>
        <time>2018-09-20T09:24:27Z</time>
      </trkpt>
      <trkpt lat="45.94959" lon="4.86187">
        <ele>272</ele>
        <time>2018-09-20T09:24:28Z</time>
      </trkpt>
      <trkpt lat="45.94962" lon="4.86192">
        <ele>272</ele>
        <time>2018-09-20T09:24:29Z</time>
      </trkpt>
      <trkpt lat="45.94966" lon="4.86197">
        <ele>272</ele>
        <time>2018-09-20T09:24:30Z</time>
      </trkpt>
      <trkpt lat="45.94969" lon="4.86202">
        <ele>272</ele>
        <time>2018-09-20T09:24:31Z</time>
      </trkpt>
      <trkpt lat="45.94973" lon="4.86206">
        <ele>272</ele>
        <time>2018-09-20T09:24:32Z</time>
      </trkpt>
      <trkpt lat="45.94976" lon="4.86211">
        <ele>272</ele>
        <time>2018-09-20T09:24:33Z</time>
      </trkpt>
      <trkpt lat="45.94981" lon="4.86216">
        <ele>272</ele>
        <time>2018-09-20T09:24:34Z</time>
      </trkpt>
      <trkpt lat="45.94985" lon="4.86221">
        <ele>272</ele>
        <time>2018-09-20T09:24:35Z</time>
      </trkpt>
      <trkpt lat="45.94989" lon="4.86225">
        <ele>272</ele>
        <time>2018-09-20T09:24:36Z</time>
      </trkpt>
      <trkpt lat="45.94993" lon="4.86231">
        <ele>272</ele>
        <time>2018-09-20T09:24:37Z</time>
      </trkpt>
      <trkpt lat="45.94996" lon="4.86237">
        <ele>272</ele>
        <time>2018-09-20T09:24:38Z</time>
      </trkpt>
      <trkpt lat="45.95001" lon="4.86242">
        <ele>272</ele>
        <time>2018-09-20T09:24:39Z</time>
      </trkpt>
      <trkpt lat="45.95005" lon="4.86249">
        <ele>272</ele>
        <time>2018-09-20T09:24:40Z</time>
      </trkpt>
      <trkpt lat="45.95011" lon="4.86255">
        <ele>272</ele>
        <time>2018-09-20T09:24:41Z</time>
      </trkpt>
      <trkpt lat="45.95016" lon="4.86261">
        <ele>271</ele>
        <time>2018-09-20T09:24:42Z</time>
      </trkpt>
      <trkpt lat="45.9502" lon="4.86265">
        <ele>271</ele>
        <time>2018-09-20T09:24:43Z</time>
      </trkpt>
      <trkpt lat="45.95026" lon="4.8627">
        <ele>271</ele>
        <time>2018-09-20T09:24:44Z</time>
      </trkpt>
      <trkpt lat="45.95031" lon="4.86276">
        <ele>271</ele>
        <time>2018-09-20T09:24:45Z</time>
      </trkpt>
      <trkpt lat="45.95036" lon="4.86281">
        <ele>271</ele>
        <time>2018-09-20T09:24:46Z</time>
      </trkpt>
      <trkpt lat="45.95042" lon="4.86287">
        <ele>271</ele>
        <time>2018-09-20T09:24:47Z</time>
      </trkpt>
      <trkpt lat="45.95048" lon="4.86293">
        <ele>271</ele>
        <time>2018-09-20T09:24:48Z</time>
      </trkpt>
      <trkpt lat="45.95052" lon="4.86299">
        <ele>271</ele>
        <time>2018-09-20T09:24:49Z</time>
      </trkpt>
      <trkpt lat="45.95057" lon="4.86307">
        <ele>271</ele>
        <time>2018-09-20T09:24:50Z</time>
      </trkpt>
      <trkpt lat="45.95062" lon="4.86313">
        <ele>270</ele>
        <time>2018-09-20T09:24:51Z</time>
      </trkpt>
      <trkpt lat="45.95066" lon="4.8632">
        <ele>270</ele>
        <time>2018-09-20T09:24:52Z</time>
      </trkpt>
      <trkpt lat="45.9507" lon="4.86326">
        <ele>270</ele>
        <time>2018-09-20T09:24:53Z</time>
      </trkpt>
      <trkpt lat="45.95076" lon="4.86333">
        <ele>270</ele>
        <time>2018-09-20T09:24:54Z</time>
      </trkpt>
      <trkpt lat="45.9508" lon="4.86339">
        <ele>270</ele>
        <time>2018-09-20T09:24:55Z</time>
      </trkpt>
      <trkpt lat="45.95084" lon="4.86345">
        <ele>269</ele>
        <time>2018-09-20T09:24:56Z</time>
      </trkpt>
      <trkpt lat="45.95089" lon="4.8635">
        <ele>269</ele>
        <time>2018-09-20T09:24:57Z</time>
      </trkpt>
      <trkpt lat="45.95094" lon="4.86356">
        <ele>269</ele>
        <time>2018-09-20T09:24:58Z</time>
      </trkpt>
      <trkpt lat="45.95098" lon="4.86361">
        <ele>269</ele>
        <time>2018-09-20T09:24:59Z</time>
      </trkpt>
      <trkpt lat="45.95102" lon="4.86366">
        <ele>269</ele>
        <time>2018-09-20T09:25:00Z</time>
      </trkpt>
      <trkpt lat="45.95107" lon="4.86372">
        <ele>269</ele>
        <time>2018-09-20T09:25:01Z</time>
      </trkpt>
      <trkpt lat="45.95112" lon="4.86378">
        <ele>269</ele>
        <time>2018-09-20T09:25:02Z</time>
      </trkpt>
      <trkpt lat="45.95116" lon="4.86384">
        <ele>269</ele>
        <time>2018-09-20T09:25:03Z</time>
      </trkpt>
      <trkpt lat="45.95122" lon="4.86389">
        <ele>269</ele>
        <time>2018-09-20T09:25:04Z</time>
      </trkpt>
      <trkpt lat="45.95126" lon="4.86395">
        <ele>268</ele>
        <time>2018-09-20T09:25:05Z</time>
      </trkpt>
      <trkpt lat="45.9513" lon="4.86401">
        <ele>268</ele>
        <time>2018-09-20T09:25:06Z</time>
      </trkpt>
      <trkpt lat="45.95134" lon="4.86406">
        <ele>268</ele>
        <time>2018-09-20T09:25:07Z</time>
      </trkpt>
      <trkpt lat="45.95138" lon="4.86412">
        <ele>268</ele>
        <time>2018-09-20T09:25:08Z</time>
      </trkpt>
      <trkpt lat="45.95143" lon="4.86418">
        <ele>268</ele>
        <time>2018-09-20T09:25:09Z</time>
      </trkpt>
      <trkpt lat="45.95148" lon="4.86423">
        <ele>268</ele>
        <time>2018-09-20T09:25:10Z</time>
      </trkpt>
      <trkpt lat="45.95152" lon="4.86428">
        <ele>268</ele>
        <time>2018-09-20T09:25:11Z</time>
      </trkpt>
      <trkpt lat="45.95156" lon="4.86433">
        <ele>268</ele>
        <time>2018-09-20T09:25:12Z</time>
      </trkpt>
      <trkpt lat="45.95159" lon="4.86438">
        <ele>268</ele>
        <time>2018-09-20T09:25:13Z</time>
      </trkpt>
      <trkpt lat="45.95163" lon="4.86443">
        <ele>268</ele>
        <time>2018-09-20T09:25:14Z</time>
      </trkpt>
      <trkpt lat="45.95167" lon="4.86448">
        <ele>268</ele>
        <time>2018-09-20T09:25:15Z</time>
      </trkpt>
      <trkpt lat="45.95171" lon="4.86453">
        <ele>268</ele>
        <time>2018-09-20T09:25:16Z</time>
      </trkpt>
      <trkpt lat="45.95175" lon="4.86459">
        <ele>268</ele>
        <time>2018-09-20T09:25:17Z</time>
      </trkpt>
      <trkpt lat="45.95179" lon="4.86464">
        <ele>268</ele>
        <time>2018-09-20T09:25:18Z</time>
      </trkpt>
      <trkpt lat="45.95184" lon="4.8647">
        <ele>268</ele>
        <time>2018-09-20T09:25:19Z</time>
      </trkpt>
      <trkpt lat="45.95189" lon="4.86476">
        <ele>268</ele>
        <time>2018-09-20T09:25:20Z</time>
      </trkpt>
      <trkpt lat="45.95194" lon="4.86481">
        <ele>268</ele>
        <time>2018-09-20T09:25:21Z</time>
      </trkpt>
      <trkpt lat="45.95199" lon="4.86487">
        <ele>268</ele>
        <time>2018-09-20T09:25:22Z</time>
      </trkpt>
      <trkpt lat="45.95204" lon="4.86492">
        <ele>268</ele>
        <time>2018-09-20T09:25:23Z</time>
      </trkpt>
      <trkpt lat="45.95209" lon="4.86498">
        <ele>268</ele>
        <time>2018-09-20T09:25:24Z</time>
      </trkpt>
      <trkpt lat="45.95214" lon="4.86504">
        <ele>268</ele>
        <time>2018-09-20T09:25:25Z</time>
      </trkpt>
      <trkpt lat="45.95219" lon="4.86511">
        <ele>268</ele>
        <time>2018-09-20T09:25:26Z</time>
      </trkpt>
      <trkpt lat="45.95225" lon="4.86516">
        <ele>268</ele>
        <time>2018-09-20T09:25:27Z</time>
      </trkpt>
      <trkpt lat="45.9523" lon="4.86522">
        <ele>268</ele>
        <time>2018-09-20T09:25:28Z</time>
      </trkpt>
      <trkpt lat="45.95235" lon="4.86529">
        <ele>268</ele>
        <time>2018-09-20T09:25:29Z</time>
      </trkpt>
      <trkpt lat="45.95239" lon="4.86534">
        <ele>268</ele>
        <time>2018-09-20T09:25:30Z</time>
      </trkpt>
      <trkpt lat="45.95244" lon="4.8654">
        <ele>268</ele>
        <time>2018-09-20T09:25:31Z</time>
      </trkpt>
      <trkpt lat="45.95248" lon="4.86547">
        <ele>268</ele>
        <time>2018-09-20T09:25:32Z</time>
      </trkpt>
      <trkpt lat="45.95253" lon="4.86552">
        <ele>267</ele>
        <time>2018-09-20T09:25:33Z</time>
      </trkpt>
      <trkpt lat="45.95257" lon="4.86557">
        <ele>267</ele>
        <time>2018-09-20T09:25:34Z</time>
      </trkpt>
      <trkpt lat="45.95259" lon="4.86564">
        <ele>267</ele>
        <time>2018-09-20T09:25:35Z</time>
      </trkpt>
      <trkpt lat="45.95258" lon="4.86573">
        <ele>267</ele>
        <time>2018-09-20T09:25:36Z</time>
      </trkpt>
      <trkpt lat="45.95253" lon="4.86581">
        <ele>268</ele>
        <time>2018-09-20T09:25:38Z</time>
      </trkpt>
      <trkpt lat="45.95251" lon="4.86583">
        <ele>268</ele>
        <time>2018-09-20T09:25:39Z</time>
      </trkpt>
      <trkpt lat="45.95243" lon="4.86585">
        <ele>268</ele>
        <time>2018-09-20T09:25:41Z</time>
      </trkpt>
      <trkpt lat="45.95238" lon="4.86585">
        <ele>268</ele>
        <time>2018-09-20T09:25:42Z</time>
      </trkpt>
      <trkpt lat="45.9523" lon="4.86582">
        <ele>268</ele>
        <time>2018-09-20T09:25:44Z</time>
      </trkpt>
      <trkpt lat="45.95228" lon="4.86582">
        <ele>268</ele>
        <time>2018-09-20T09:25:45Z</time>
      </trkpt>
      <trkpt lat="45.95221" lon="4.8658">
        <ele>268</ele>
        <time>2018-09-20T09:25:47Z</time>
      </trkpt>
      <trkpt lat="45.95219" lon="4.8658">
        <ele>268</ele>
        <time>2018-09-20T09:25:48Z</time>
      </trkpt>
      <trkpt lat="45.95212" lon="4.86581">
        <ele>268</ele>
        <time>2018-09-20T09:25:51Z</time>
      </trkpt>
      <trkpt lat="45.95209" lon="4.86581">
        <ele>268</ele>
        <time>2018-09-20T09:25:52Z</time>
      </trkpt>
      <trkpt lat="45.95203" lon="4.86581">
        <ele>268</ele>
        <time>2018-09-20T09:25:54Z</time>
      </trkpt>
      <trkpt lat="45.95193" lon="4.8658">
        <ele>269</ele>
        <time>2018-09-20T09:25:55Z</time>
      </trkpt>
      <trkpt lat="45.95185" lon="4.8658">
        <ele>269</ele>
        <time>2018-09-20T09:25:58Z</time>
      </trkpt>
      <trkpt lat="45.95178" lon="4.8658">
        <ele>269</ele>
        <time>2018-09-20T09:25:59Z</time>
      </trkpt>
      <trkpt lat="45.9517" lon="4.8658">
        <ele>269</ele>
        <time>2018-09-20T09:26:01Z</time>
      </trkpt>
      <trkpt lat="45.95166" lon="4.8658">
        <ele>269</ele>
        <time>2018-09-20T09:26:02Z</time>
      </trkpt>
      <trkpt lat="45.95157" lon="4.8658">
        <ele>269</ele>
        <time>2018-09-20T09:26:06Z</time>
      </trkpt>
      <trkpt lat="45.95155" lon="4.8658">
        <ele>269</ele>
        <time>2018-09-20T09:26:07Z</time>
      </trkpt>
      <trkpt lat="45.95146" lon="4.86581">
        <ele>270</ele>
        <time>2018-09-20T09:26:08Z</time>
      </trkpt>
      <trkpt lat="45.95144" lon="4.86582">
        <ele>270</ele>
        <time>2018-09-20T09:26:09Z</time>
      </trkpt>
      <trkpt lat="45.95136" lon="4.86583">
        <ele>270</ele>
        <time>2018-09-20T09:26:11Z</time>
      </trkpt>
      <trkpt lat="45.95132" lon="4.86584">
        <ele>270</ele>
        <time>2018-09-20T09:26:12Z</time>
      </trkpt>
      <trkpt lat="45.95128" lon="4.86584">
        <ele>270</ele>
        <time>2018-09-20T09:26:14Z</time>
      </trkpt>
      <trkpt lat="45.95121" lon="4.86583">
        <ele>270</ele>
        <time>2018-09-20T09:26:15Z</time>
      </trkpt>
      <trkpt lat="45.95117" lon="4.86585">
        <ele>270</ele>
        <time>2018-09-20T09:26:17Z</time>
      </trkpt>
      <trkpt lat="45.95111" lon="4.86587">
        <ele>271</ele>
        <time>2018-09-20T09:26:18Z</time>
      </trkpt>
      <trkpt lat="45.95103" lon="4.86589">
        <ele>271</ele>
        <time>2018-09-20T09:26:20Z</time>
      </trkpt>
      <trkpt lat="45.95101" lon="4.8659">
        <ele>271</ele>
        <time>2018-09-20T09:26:21Z</time>
      </trkpt>
      <trkpt lat="45.95094" lon="4.86591">
        <ele>271</ele>
        <time>2018-09-20T09:26:23Z</time>
      </trkpt>
      <trkpt lat="45.95089" lon="4.86591">
        <ele>271</ele>
        <time>2018-09-20T09:26:24Z</time>
      </trkpt>
      <trkpt lat="45.95081" lon="4.86592">
        <ele>271</ele>
        <time>2018-09-20T09:26:27Z</time>
      </trkpt>
      <trkpt lat="45.95078" lon="4.86592">
        <ele>271</ele>
        <time>2018-09-20T09:26:28Z</time>
      </trkpt>
      <trkpt lat="45.9507" lon="4.86594">
        <ele>272</ele>
        <time>2018-09-20T09:26:31Z</time>
      </trkpt>
      <trkpt lat="45.95067" lon="4.86595">
        <ele>272</ele>
        <time>2018-09-20T09:26:32Z</time>
      </trkpt>
      <trkpt lat="45.95061" lon="4.86598">
        <ele>272</ele>
        <time>2018-09-20T09:26:34Z</time>
      </trkpt>
      <trkpt lat="45.95053" lon="4.86602">
        <ele>272</ele>
        <time>2018-09-20T09:26:35Z</time>
      </trkpt>
      <trkpt lat="45.95044" lon="4.86603">
        <ele>272</ele>
        <time>2018-09-20T09:26:39Z</time>
      </trkpt>
      <trkpt lat="45.95041" lon="4.86604">
        <ele>273</ele>
        <time>2018-09-20T09:26:40Z</time>
      </trkpt>
      <trkpt lat="45.95034" lon="4.86605">
        <ele>273</ele>
        <time>2018-09-20T09:26:42Z</time>
      </trkpt>
      <trkpt lat="45.95031" lon="4.86606">
        <ele>273</ele>
        <time>2018-09-20T09:26:43Z</time>
      </trkpt>
      <trkpt lat="45.95022" lon="4.86608">
        <ele>273</ele>
        <time>2018-09-20T09:26:44Z</time>
      </trkpt>
      <trkpt lat="45.95015" lon="4.86609">
        <ele>273</ele>
        <time>2018-09-20T09:26:47Z</time>
      </trkpt>
      <trkpt lat="45.95013" lon="4.86609">
        <ele>273</ele>
        <time>2018-09-20T09:26:48Z</time>
      </trkpt>
      <trkpt lat="45.95004" lon="4.86612">
        <ele>273</ele>
        <time>2018-09-20T09:26:51Z</time>
      </trkpt>
      <trkpt lat="45.95001" lon="4.86614">
        <ele>273</ele>
        <time>2018-09-20T09:26:52Z</time>
      </trkpt>
      <trkpt lat="45.94998" lon="4.86615">
        <ele>275</ele>
        <time>2018-09-20T09:26:53Z</time>
      </trkpt>
      <trkpt lat="45.94989" lon="4.86618">
        <ele>275</ele>
        <time>2018-09-20T09:26:54Z</time>
      </trkpt>
      <trkpt lat="45.94981" lon="4.86618">
        <ele>275</ele>
        <time>2018-09-20T09:26:57Z</time>
      </trkpt>
      <trkpt lat="45.94979" lon="4.86618">
        <ele>275</ele>
        <time>2018-09-20T09:26:58Z</time>
      </trkpt>
      <trkpt lat="45.94972" lon="4.8662">
        <ele>275</ele>
        <time>2018-09-20T09:27:01Z</time>
      </trkpt>
      <trkpt lat="45.94969" lon="4.86621">
        <ele>275</ele>
        <time>2018-09-20T09:27:02Z</time>
      </trkpt>
      <trkpt lat="45.94966" lon="4.86622">
        <ele>275</ele>
        <time>2018-09-20T09:27:03Z</time>
      </trkpt>
      <trkpt lat="45.94959" lon="4.86626">
        <ele>275</ele>
        <time>2018-09-20T09:27:04Z</time>
      </trkpt>
      <trkpt lat="45.94954" lon="4.86631">
        <ele>276</ele>
        <time>2018-09-20T09:27:06Z</time>
      </trkpt>
      <trkpt lat="45.9495" lon="4.86636">
        <ele>276</ele>
        <time>2018-09-20T09:27:07Z</time>
      </trkpt>
      <trkpt lat="45.94946" lon="4.86646">
        <ele>276</ele>
        <time>2018-09-20T09:27:09Z</time>
      </trkpt>
      <trkpt lat="45.94944" lon="4.86651">
        <ele>276</ele>
        <time>2018-09-20T09:27:10Z</time>
      </trkpt>
      <trkpt lat="45.94941" lon="4.86662">
        <ele>276</ele>
        <time>2018-09-20T09:27:12Z</time>
      </trkpt>
      <trkpt lat="45.9494" lon="4.86668">
        <ele>276</ele>
        <time>2018-09-20T09:27:13Z</time>
      </trkpt>
      <trkpt lat="45.94941" lon="4.86679">
        <ele>276</ele>
        <time>2018-09-20T09:27:15Z</time>
      </trkpt>
      <trkpt lat="45.94941" lon="4.86685">
        <ele>276</ele>
        <time>2018-09-20T09:27:16Z</time>
      </trkpt>
      <trkpt lat="45.94943" lon="4.86697">
        <ele>276</ele>
        <time>2018-09-20T09:27:18Z</time>
      </trkpt>
      <trkpt lat="45.94944" lon="4.86703">
        <ele>275</ele>
        <time>2018-09-20T09:27:19Z</time>
      </trkpt>
      <trkpt lat="45.94947" lon="4.86714">
        <ele>275</ele>
        <time>2018-09-20T09:27:21Z</time>
      </trkpt>
      <trkpt lat="45.94952" lon="4.8672">
        <ele>275</ele>
        <time>2018-09-20T09:27:22Z</time>
      </trkpt>
      <trkpt lat="45.94954" lon="4.86726">
        <ele>275</ele>
        <time>2018-09-20T09:27:23Z</time>
      </trkpt>
      <trkpt lat="45.94956" lon="4.86732">
        <ele>275</ele>
        <time>2018-09-20T09:27:24Z</time>
      </trkpt>
      <trkpt lat="45.94959" lon="4.86738">
        <ele>275</ele>
        <time>2018-09-20T09:27:25Z</time>
      </trkpt>
      <trkpt lat="45.94962" lon="4.86742">
        <ele>275</ele>
        <time>2018-09-20T09:27:26Z</time>
      </trkpt>
      <trkpt lat="45.94966" lon="4.86752">
        <ele>275</ele>
        <time>2018-09-20T09:27:28Z</time>
      </trkpt>
      <trkpt lat="45.94968" lon="4.86756">
        <ele>275</ele>
        <time>2018-09-20T09:27:29Z</time>
      </trkpt>
      <trkpt lat="45.94973" lon="4.86766">
        <ele>275</ele>
        <time>2018-09-20T09:27:31Z</time>
      </trkpt>
      <trkpt lat="45.94977" lon="4.8677">
        <ele>275</ele>
        <time>2018-09-20T09:27:32Z</time>
      </trkpt>
      <trkpt lat="45.9498" lon="4.86776">
        <ele>275</ele>
        <time>2018-09-20T09:27:33Z</time>
      </trkpt>
      <trkpt lat="45.94983" lon="4.86781">
        <ele>275</ele>
        <time>2018-09-20T09:27:34Z</time>
      </trkpt>
      <trkpt lat="45.94989" lon="4.8679">
        <ele>275</ele>
        <time>2018-09-20T09:27:36Z</time>
      </trkpt>
      <trkpt lat="45.94992" lon="4.86795">
        <ele>276</ele>
        <time>2018-09-20T09:27:37Z</time>
      </trkpt>
      <trkpt lat="45.94997" lon="4.86805">
        <ele>276</ele>
        <time>2018-09-20T09:27:39Z</time>
      </trkpt>
      <trkpt lat="45.95" lon="4.86811">
        <ele>276</ele>
        <time>2018-09-20T09:27:40Z</time>
      </trkpt>
      <trkpt lat="45.95002" lon="4.86817">
        <ele>275</ele>
        <time>2018-09-20T09:27:41Z</time>
      </trkpt>
      <trkpt lat="45.95003" lon="4.86823">
        <ele>275</ele>
        <time>2018-09-20T09:27:42Z</time>
      </trkpt>
      <trkpt lat="45.95006" lon="4.86829">
        <ele>276</ele>
        <time>2018-09-20T09:27:43Z</time>
      </trkpt>
      <trkpt lat="45.95008" lon="4.86835">
        <ele>276</ele>
        <time>2018-09-20T09:27:44Z</time>
      </trkpt>
      <trkpt lat="45.95012" lon="4.86845">
        <ele>275</ele>
        <time>2018-09-20T09:27:46Z</time>
      </trkpt>
      <trkpt lat="45.95014" lon="4.8685">
        <ele>275</ele>
        <time>2018-09-20T09:27:47Z</time>
      </trkpt>
      <trkpt lat="45.95015" lon="4.86856">
        <ele>275</ele>
        <time>2018-09-20T09:27:48Z</time>
      </trkpt>
      <trkpt lat="45.95017" lon="4.86863">
        <ele>275</ele>
        <time>2018-09-20T09:27:49Z</time>
      </trkpt>
      <trkpt lat="45.9502" lon="4.86874">
        <ele>275</ele>
        <time>2018-09-20T09:27:51Z</time>
      </trkpt>
      <trkpt lat="45.95022" lon="4.86881">
        <ele>275</ele>
        <time>2018-09-20T09:27:52Z</time>
      </trkpt>
      <trkpt lat="45.95025" lon="4.86887">
        <ele>275</ele>
        <time>2018-09-20T09:27:53Z</time>
      </trkpt>
      <trkpt lat="45.95027" lon="4.86892">
        <ele>275</ele>
        <time>2018-09-20T09:27:54Z</time>
      </trkpt>
      <trkpt lat="45.9503" lon="4.86898">
        <ele>275</ele>
        <time>2018-09-20T09:27:55Z</time>
      </trkpt>
      <trkpt lat="45.95032" lon="4.86905">
        <ele>275</ele>
        <time>2018-09-20T09:27:56Z</time>
      </trkpt>
      <trkpt lat="45.95034" lon="4.86912">
        <ele>275</ele>
        <time>2018-09-20T09:27:57Z</time>
      </trkpt>
      <trkpt lat="45.95036" lon="4.86919">
        <ele>276</ele>
        <time>2018-09-20T09:27:58Z</time>
      </trkpt>
      <trkpt lat="45.95038" lon="4.86926">
        <ele>276</ele>
        <time>2018-09-20T09:27:59Z</time>
      </trkpt>
      <trkpt lat="45.95039" lon="4.86931">
        <ele>276</ele>
        <time>2018-09-20T09:28:00Z</time>
      </trkpt>
      <trkpt lat="45.9504" lon="4.86938">
        <ele>276</ele>
        <time>2018-09-20T09:28:01Z</time>
      </trkpt>
      <trkpt lat="45.95041" lon="4.86944">
        <ele>276</ele>
        <time>2018-09-20T09:28:02Z</time>
      </trkpt>
      <trkpt lat="45.95045" lon="4.86955">
        <ele>276</ele>
        <time>2018-09-20T09:28:04Z</time>
      </trkpt>
      <trkpt lat="45.95047" lon="4.86962">
        <ele>276</ele>
        <time>2018-09-20T09:28:05Z</time>
      </trkpt>
      <trkpt lat="45.95047" lon="4.86968">
        <ele>276</ele>
        <time>2018-09-20T09:28:06Z</time>
      </trkpt>
      <trkpt lat="45.9505" lon="4.86976">
        <ele>276</ele>
        <time>2018-09-20T09:28:07Z</time>
      </trkpt>
      <trkpt lat="45.95052" lon="4.86982">
        <ele>276</ele>
        <time>2018-09-20T09:28:08Z</time>
      </trkpt>
      <trkpt lat="45.95055" lon="4.86987">
        <ele>276</ele>
        <time>2018-09-20T09:28:09Z</time>
      </trkpt>
      <trkpt lat="45.95058" lon="4.86993">
        <ele>276</ele>
        <time>2018-09-20T09:28:10Z</time>
      </trkpt>
      <trkpt lat="45.9506" lon="4.86998">
        <ele>276</ele>
        <time>2018-09-20T09:28:11Z</time>
      </trkpt>
      <trkpt lat="45.95065" lon="4.87008">
        <ele>277</ele>
        <time>2018-09-20T09:28:13Z</time>
      </trkpt>
      <trkpt lat="45.95068" lon="4.87014">
        <ele>277</ele>
        <time>2018-09-20T09:28:14Z</time>
      </trkpt>
      <trkpt lat="45.95072" lon="4.87024">
        <ele>277</ele>
        <time>2018-09-20T09:28:16Z</time>
      </trkpt>
      <trkpt lat="45.95075" lon="4.87029">
        <ele>277</ele>
        <time>2018-09-20T09:28:17Z</time>
      </trkpt>
      <trkpt lat="45.95078" lon="4.87038">
        <ele>277</ele>
        <time>2018-09-20T09:28:19Z</time>
      </trkpt>
      <trkpt lat="45.95081" lon="4.87043">
        <ele>277</ele>
        <time>2018-09-20T09:28:20Z</time>
      </trkpt>
      <trkpt lat="45.95086" lon="4.87052">
        <ele>277</ele>
        <time>2018-09-20T09:28:22Z</time>
      </trkpt>
      <trkpt lat="45.95089" lon="4.87058">
        <ele>277</ele>
        <time>2018-09-20T09:28:23Z</time>
      </trkpt>
      <trkpt lat="45.95092" lon="4.87067">
        <ele>277</ele>
        <time>2018-09-20T09:28:25Z</time>
      </trkpt>
      <trkpt lat="45.95093" lon="4.87071">
        <ele>277</ele>
        <time>2018-09-20T09:28:26Z</time>
      </trkpt>
      <trkpt lat="45.95094" lon="4.87074">
        <ele>277</ele>
        <time>2018-09-20T09:28:27Z</time>
      </trkpt>
      <trkpt lat="45.95098" lon="4.87085">
        <ele>277</ele>
        <time>2018-09-20T09:28:28Z</time>
      </trkpt>
      <trkpt lat="45.951" lon="4.8709">
        <ele>277</ele>
        <time>2018-09-20T09:28:29Z</time>
      </trkpt>
      <trkpt lat="45.95103" lon="4.87096">
        <ele>277</ele>
        <time>2018-09-20T09:28:30Z</time>
      </trkpt>
      <trkpt lat="45.95106" lon="4.87105">
        <ele>277</ele>
        <time>2018-09-20T09:28:32Z</time>
      </trkpt>
      <trkpt lat="45.95107" lon="4.87111">
        <ele>277</ele>
        <time>2018-09-20T09:28:33Z</time>
      </trkpt>
      <trkpt lat="45.9511" lon="4.87121">
        <ele>277</ele>
        <time>2018-09-20T09:28:35Z</time>
      </trkpt>
      <trkpt lat="45.95112" lon="4.87127">
        <ele>277</ele>
        <time>2018-09-20T09:28:36Z</time>
      </trkpt>
      <trkpt lat="45.95114" lon="4.87139">
        <ele>277</ele>
        <time>2018-09-20T09:28:38Z</time>
      </trkpt>
      <trkpt lat="45.95115" lon="4.87145">
        <ele>277</ele>
        <time>2018-09-20T09:28:39Z</time>
      </trkpt>
      <trkpt lat="45.95117" lon="4.87156">
        <ele>277</ele>
        <time>2018-09-20T09:28:41Z</time>
      </trkpt>
      <trkpt lat="45.95117" lon="4.87159">
        <ele>277</ele>
        <time>2018-09-20T09:28:42Z</time>
      </trkpt>
      <trkpt lat="45.95119" lon="4.87167">
        <ele>277</ele>
        <time>2018-09-20T09:28:43Z</time>
      </trkpt>
      <trkpt lat="45.95121" lon="4.87173">
        <ele>277</ele>
        <time>2018-09-20T09:28:44Z</time>
      </trkpt>
      <trkpt lat="45.95124" lon="4.8718">
        <ele>276</ele>
        <time>2018-09-20T09:28:45Z</time>
      </trkpt>
      <trkpt lat="45.95126" lon="4.87186">
        <ele>276</ele>
        <time>2018-09-20T09:28:46Z</time>
      </trkpt>
      <trkpt lat="45.95127" lon="4.87191">
        <ele>276</ele>
        <time>2018-09-20T09:28:47Z</time>
      </trkpt>
      <trkpt lat="45.95128" lon="4.87199">
        <ele>276</ele>
        <time>2018-09-20T09:28:48Z</time>
      </trkpt>
      <trkpt lat="45.9513" lon="4.87209">
        <ele>276</ele>
        <time>2018-09-20T09:28:49Z</time>
      </trkpt>
      <trkpt lat="45.95132" lon="4.87217">
        <ele>276</ele>
        <time>2018-09-20T09:28:50Z</time>
      </trkpt>
      <trkpt lat="45.95135" lon="4.87224">
        <ele>276</ele>
        <time>2018-09-20T09:28:51Z</time>
      </trkpt>
      <trkpt lat="45.95137" lon="4.87233">
        <ele>276</ele>
        <time>2018-09-20T09:28:52Z</time>
      </trkpt>
      <trkpt lat="45.95139" lon="4.8724">
        <ele>275</ele>
        <time>2018-09-20T09:28:53Z</time>
      </trkpt>
      <trkpt lat="45.95141" lon="4.87249">
        <ele>275</ele>
        <time>2018-09-20T09:28:54Z</time>
      </trkpt>
      <trkpt lat="45.95142" lon="4.87259">
        <ele>274</ele>
        <time>2018-09-20T09:28:55Z</time>
      </trkpt>
      <trkpt lat="45.95144" lon="4.87269">
        <ele>274</ele>
        <time>2018-09-20T09:28:56Z</time>
      </trkpt>
      <trkpt lat="45.95146" lon="4.87278">
        <ele>274</ele>
        <time>2018-09-20T09:28:57Z</time>
      </trkpt>
      <trkpt lat="45.95147" lon="4.87287">
        <ele>274</ele>
        <time>2018-09-20T09:28:58Z</time>
      </trkpt>
      <trkpt lat="45.95151" lon="4.87297">
        <ele>274</ele>
        <time>2018-09-20T09:28:59Z</time>
      </trkpt>
      <trkpt lat="45.95153" lon="4.87309">
        <ele>273</ele>
        <time>2018-09-20T09:29:00Z</time>
      </trkpt>
      <trkpt lat="45.95156" lon="4.87319">
        <ele>273</ele>
        <time>2018-09-20T09:29:01Z</time>
      </trkpt>
      <trkpt lat="45.95158" lon="4.87331">
        <ele>272</ele>
        <time>2018-09-20T09:29:02Z</time>
      </trkpt>
      <trkpt lat="45.95159" lon="4.87339">
        <ele>272</ele>
        <time>2018-09-20T09:29:03Z</time>
      </trkpt>
      <trkpt lat="45.95162" lon="4.8735">
        <ele>272</ele>
        <time>2018-09-20T09:29:04Z</time>
      </trkpt>
      <trkpt lat="45.95165" lon="4.87359">
        <ele>272</ele>
        <time>2018-09-20T09:29:05Z</time>
      </trkpt>
      <trkpt lat="45.95167" lon="4.87367">
        <ele>271</ele>
        <time>2018-09-20T09:29:06Z</time>
      </trkpt>
      <trkpt lat="45.95169" lon="4.87374">
        <ele>271</ele>
        <time>2018-09-20T09:29:07Z</time>
      </trkpt>
      <trkpt lat="45.95171" lon="4.87383">
        <ele>271</ele>
        <time>2018-09-20T09:29:08Z</time>
      </trkpt>
      <trkpt lat="45.95173" lon="4.87393">
        <ele>271</ele>
        <time>2018-09-20T09:29:09Z</time>
      </trkpt>
      <trkpt lat="45.95175" lon="4.87401">
        <ele>271</ele>
        <time>2018-09-20T09:29:10Z</time>
      </trkpt>
      <trkpt lat="45.95177" lon="4.87409">
        <ele>271</ele>
        <time>2018-09-20T09:29:11Z</time>
      </trkpt>
      <trkpt lat="45.95178" lon="4.87418">
        <ele>271</ele>
        <time>2018-09-20T09:29:12Z</time>
      </trkpt>
      <trkpt lat="45.9518" lon="4.87426">
        <ele>271</ele>
        <time>2018-09-20T09:29:13Z</time>
      </trkpt>
      <trkpt lat="45.95182" lon="4.87434">
        <ele>271</ele>
        <time>2018-09-20T09:29:14Z</time>
      </trkpt>
      <trkpt lat="45.95184" lon="4.87444">
        <ele>272</ele>
        <time>2018-09-20T09:29:15Z</time>
      </trkpt>
      <trkpt lat="45.95186" lon="4.87451">
        <ele>272</ele>
        <time>2018-09-20T09:29:16Z</time>
      </trkpt>
      <trkpt lat="45.95187" lon="4.87459">
        <ele>272</ele>
        <time>2018-09-20T09:29:17Z</time>
      </trkpt>
      <trkpt lat="45.95189" lon="4.87467">
        <ele>272</ele>
        <time>2018-09-20T09:29:18Z</time>
      </trkpt>
      <trkpt lat="45.95191" lon="4.87479">
        <ele>272</ele>
        <time>2018-09-20T09:29:20Z</time>
      </trkpt>
      <trkpt lat="45.95191" lon="4.87481">
        <ele>272</ele>
        <time>2018-09-20T09:29:21Z</time>
      </trkpt>
      <trkpt lat="45.95193" lon="4.87491">
        <ele>272</ele>
        <time>2018-09-20T09:29:22Z</time>
      </trkpt>
      <trkpt lat="45.95194" lon="4.87497">
        <ele>272</ele>
        <time>2018-09-20T09:29:23Z</time>
      </trkpt>
      <trkpt lat="45.95196" lon="4.87503">
        <ele>273</ele>
        <time>2018-09-20T09:29:24Z</time>
      </trkpt>
      <trkpt lat="45.95198" lon="4.87509">
        <ele>273</ele>
        <time>2018-09-20T09:29:25Z</time>
      </trkpt>
      <trkpt lat="45.95199" lon="4.87518">
        <ele>273</ele>
        <time>2018-09-20T09:29:26Z</time>
      </trkpt>
      <trkpt lat="45.95201" lon="4.87525">
        <ele>274</ele>
        <time>2018-09-20T09:29:27Z</time>
      </trkpt>
      <trkpt lat="45.95202" lon="4.87533">
        <ele>274</ele>
        <time>2018-09-20T09:29:28Z</time>
      </trkpt>
      <trkpt lat="45.95202" lon="4.87539">
        <ele>274</ele>
        <time>2018-09-20T09:29:29Z</time>
      </trkpt>
      <trkpt lat="45.95202" lon="4.87546">
        <ele>274</ele>
        <time>2018-09-20T09:29:30Z</time>
      </trkpt>
      <trkpt lat="45.95204" lon="4.87553">
        <ele>274</ele>
        <time>2018-09-20T09:29:31Z</time>
      </trkpt>
      <trkpt lat="45.95206" lon="4.87564">
        <ele>274</ele>
        <time>2018-09-20T09:29:33Z</time>
      </trkpt>
      <trkpt lat="45.95207" lon="4.87573">
        <ele>274</ele>
        <time>2018-09-20T09:29:34Z</time>
      </trkpt>
      <trkpt lat="45.95208" lon="4.87579">
        <ele>274</ele>
        <time>2018-09-20T09:29:35Z</time>
      </trkpt>
      <trkpt lat="45.95209" lon="4.87587">
        <ele>276</ele>
        <time>2018-09-20T09:29:36Z</time>
      </trkpt>
      <trkpt lat="45.95207" lon="4.87597">
        <ele>276</ele>
        <time>2018-09-20T09:29:38Z</time>
      </trkpt>
      <trkpt lat="45.95209" lon="4.87606">
        <ele>276</ele>
        <time>2018-09-20T09:29:39Z</time>
      </trkpt>
      <trkpt lat="45.9521" lon="4.87616">
        <ele>276</ele>
        <time>2018-09-20T09:29:41Z</time>
      </trkpt>
      <trkpt lat="45.9521" lon="4.87621">
        <ele>276</ele>
        <time>2018-09-20T09:29:42Z</time>
      </trkpt>
      <trkpt lat="45.95211" lon="4.87631">
        <ele>276</ele>
        <time>2018-09-20T09:29:44Z</time>
      </trkpt>
      <trkpt lat="45.95211" lon="4.87634">
        <ele>276</ele>
        <time>2018-09-20T09:29:45Z</time>
      </trkpt>
      <trkpt lat="45.95212" lon="4.87644">
        <ele>276</ele>
        <time>2018-09-20T09:29:47Z</time>
      </trkpt>
      <trkpt lat="45.95212" lon="4.8765">
        <ele>277</ele>
        <time>2018-09-20T09:29:48Z</time>
      </trkpt>
      <trkpt lat="45.95213" lon="4.87652">
        <ele>277</ele>
        <time>2018-09-20T09:29:49Z</time>
      </trkpt>
      <trkpt lat="45.95214" lon="4.87663">
        <ele>277</ele>
        <time>2018-09-20T09:29:50Z</time>
      </trkpt>
      <trkpt lat="45.95216" lon="4.87674">
        <ele>279</ele>
        <time>2018-09-20T09:29:52Z</time>
      </trkpt>
      <trkpt lat="45.95217" lon="4.87679">
        <ele>279</ele>
        <time>2018-09-20T09:29:53Z</time>
      </trkpt>
      <trkpt lat="45.95219" lon="4.87685">
        <ele>279</ele>
        <time>2018-09-20T09:29:54Z</time>
      </trkpt>
      <trkpt lat="45.95222" lon="4.87692">
        <ele>279</ele>
        <time>2018-09-20T09:29:55Z</time>
      </trkpt>
      <trkpt lat="45.95224" lon="4.87703">
        <ele>279</ele>
        <time>2018-09-20T09:29:57Z</time>
      </trkpt>
      <trkpt lat="45.95225" lon="4.87708">
        <ele>279</ele>
        <time>2018-09-20T09:29:58Z</time>
      </trkpt>
      <trkpt lat="45.95227" lon="4.87718">
        <ele>279</ele>
        <time>2018-09-20T09:30:00Z</time>
      </trkpt>
      <trkpt lat="45.95229" lon="4.87723">
        <ele>280</ele>
        <time>2018-09-20T09:30:01Z</time>
      </trkpt>
      <trkpt lat="45.95229" lon="4.87729">
        <ele>280</ele>
        <time>2018-09-20T09:30:03Z</time>
      </trkpt>
      <trkpt lat="45.95231" lon="4.87739">
        <ele>280</ele>
        <time>2018-09-20T09:30:04Z</time>
      </trkpt>
      <trkpt lat="45.95232" lon="4.8775">
        <ele>280</ele>
        <time>2018-09-20T09:30:06Z</time>
      </trkpt>
      <trkpt lat="45.95233" lon="4.87756">
        <ele>281</ele>
        <time>2018-09-20T09:30:07Z</time>
      </trkpt>
      <trkpt lat="45.95235" lon="4.87767">
        <ele>282</ele>
        <time>2018-09-20T09:30:10Z</time>
      </trkpt>
      <trkpt lat="45.95235" lon="4.8777">
        <ele>282</ele>
        <time>2018-09-20T09:30:11Z</time>
      </trkpt>
      <trkpt lat="45.95236" lon="4.87774">
        <ele>282</ele>
        <time>2018-09-20T09:30:12Z</time>
      </trkpt>
      <trkpt lat="45.95238" lon="4.87784">
        <ele>282</ele>
        <time>2018-09-20T09:30:13Z</time>
      </trkpt>
      <trkpt lat="45.9524" lon="4.87796">
        <ele>282</ele>
        <time>2018-09-20T09:30:16Z</time>
      </trkpt>
      <trkpt lat="45.95242" lon="4.87803">
        <ele>282</ele>
        <time>2018-09-20T09:30:17Z</time>
      </trkpt>
      <trkpt lat="45.95244" lon="4.87813">
        <ele>282</ele>
        <time>2018-09-20T09:30:19Z</time>
      </trkpt>
      <trkpt lat="45.95244" lon="4.87816">
        <ele>282</ele>
        <time>2018-09-20T09:30:20Z</time>
      </trkpt>
      <trkpt lat="45.95245" lon="4.87826">
        <ele>282</ele>
        <time>2018-09-20T09:30:22Z</time>
      </trkpt>
      <trkpt lat="45.95245" lon="4.8783">
        <ele>282</ele>
        <time>2018-09-20T09:30:23Z</time>
      </trkpt>
      <trkpt lat="45.95247" lon="4.87841">
        <ele>283</ele>
        <time>2018-09-20T09:30:26Z</time>
      </trkpt>
      <trkpt lat="45.95247" lon="4.87846">
        <ele>283</ele>
        <time>2018-09-20T09:30:27Z</time>
      </trkpt>
      <trkpt lat="45.95248" lon="4.87851">
        <ele>283</ele>
        <time>2018-09-20T09:30:29Z</time>
      </trkpt>
      <trkpt lat="45.95252" lon="4.87866">
        <ele>281</ele>
        <time>2018-09-20T09:30:30Z</time>
      </trkpt>
      <trkpt lat="45.95253" lon="4.87872">
        <ele>281</ele>
        <time>2018-09-20T09:30:31Z</time>
      </trkpt>
      <trkpt lat="45.95256" lon="4.87879">
        <ele>281</ele>
        <time>2018-09-20T09:30:32Z</time>
      </trkpt>
      <trkpt lat="45.95259" lon="4.8789">
        <ele>281</ele>
        <time>2018-09-20T09:30:34Z</time>
      </trkpt>
      <trkpt lat="45.9526" lon="4.87895">
        <ele>281</ele>
        <time>2018-09-20T09:30:35Z</time>
      </trkpt>
      <trkpt lat="45.95262" lon="4.87907">
        <ele>281</ele>
        <time>2018-09-20T09:30:38Z</time>
      </trkpt>
      <trkpt lat="45.95262" lon="4.87911">
        <ele>282</ele>
        <time>2018-09-20T09:30:39Z</time>
      </trkpt>
      <trkpt lat="45.95263" lon="4.87925">
        <ele>281</ele>
        <time>2018-09-20T09:30:40Z</time>
      </trkpt>
      <trkpt lat="45.95262" lon="4.87934">
        <ele>281</ele>
        <time>2018-09-20T09:30:42Z</time>
      </trkpt>
      <trkpt lat="45.95261" lon="4.87939">
        <ele>280</ele>
        <time>2018-09-20T09:30:43Z</time>
      </trkpt>
      <trkpt lat="45.95257" lon="4.87949">
        <ele>280</ele>
        <time>2018-09-20T09:30:45Z</time>
      </trkpt>
      <trkpt lat="45.95255" lon="4.87954">
        <ele>280</ele>
        <time>2018-09-20T09:30:46Z</time>
      </trkpt>
      <trkpt lat="45.9525" lon="4.87963">
        <ele>282</ele>
        <time>2018-09-20T09:30:48Z</time>
      </trkpt>
      <trkpt lat="45.95247" lon="4.87968">
        <ele>282</ele>
        <time>2018-09-20T09:30:49Z</time>
      </trkpt>
      <trkpt lat="45.95242" lon="4.87977">
        <ele>282</ele>
        <time>2018-09-20T09:30:51Z</time>
      </trkpt>
      <trkpt lat="45.95239" lon="4.87981">
        <ele>281</ele>
        <time>2018-09-20T09:30:52Z</time>
      </trkpt>
      <trkpt lat="45.95232" lon="4.87989">
        <ele>281</ele>
        <time>2018-09-20T09:30:54Z</time>
      </trkpt>
      <trkpt lat="45.95229" lon="4.87993">
        <ele>281</ele>
        <time>2018-09-20T09:30:55Z</time>
      </trkpt>
      <trkpt lat="45.95222" lon="4.88002">
        <ele>281</ele>
        <time>2018-09-20T09:30:57Z</time>
      </trkpt>
      <trkpt lat="45.95219" lon="4.88006">
        <ele>281</ele>
        <time>2018-09-20T09:30:58Z</time>
      </trkpt>
      <trkpt lat="45.95213" lon="4.88015">
        <ele>281</ele>
        <time>2018-09-20T09:31:00Z</time>
      </trkpt>
      <trkpt lat="45.9521" lon="4.88019">
        <ele>281</ele>
        <time>2018-09-20T09:31:01Z</time>
      </trkpt>
      <trkpt lat="45.95204" lon="4.88027">
        <ele>281</ele>
        <time>2018-09-20T09:31:03Z</time>
      </trkpt>
      <trkpt lat="45.95201" lon="4.88031">
        <ele>281</ele>
        <time>2018-09-20T09:31:04Z</time>
      </trkpt>
      <trkpt lat="45.95198" lon="4.88035">
        <ele>281</ele>
        <time>2018-09-20T09:31:05Z</time>
      </trkpt>
      <trkpt lat="45.95196" lon="4.88043">
        <ele>281</ele>
        <time>2018-09-20T09:31:06Z</time>
      </trkpt>
      <trkpt lat="45.95195" lon="4.88051">
        <ele>281</ele>
        <time>2018-09-20T09:31:07Z</time>
      </trkpt>
      <trkpt lat="45.95192" lon="4.88056">
        <ele>281</ele>
        <time>2018-09-20T09:31:08Z</time>
      </trkpt>
      <trkpt lat="45.9519" lon="4.88063">
        <ele>281</ele>
        <time>2018-09-20T09:31:09Z</time>
      </trkpt>
      <trkpt lat="45.95188" lon="4.88069">
        <ele>281</ele>
        <time>2018-09-20T09:31:10Z</time>
      </trkpt>
      <trkpt lat="45.95186" lon="4.88076">
        <ele>281</ele>
        <time>2018-09-20T09:31:11Z</time>
      </trkpt>
      <trkpt lat="45.95184" lon="4.88082">
        <ele>281</ele>
        <time>2018-09-20T09:31:12Z</time>
      </trkpt>
      <trkpt lat="45.95183" lon="4.88089">
        <ele>282</ele>
        <time>2018-09-20T09:31:13Z</time>
      </trkpt>
      <trkpt lat="45.95182" lon="4.88095">
        <ele>282</ele>
        <time>2018-09-20T09:31:14Z</time>
      </trkpt>
      <trkpt lat="45.9518" lon="4.88103">
        <ele>282</ele>
        <time>2018-09-20T09:31:16Z</time>
      </trkpt>
      <trkpt lat="45.95179" lon="4.88111">
        <ele>282</ele>
        <time>2018-09-20T09:31:17Z</time>
      </trkpt>
      <trkpt lat="45.95176" lon="4.88121">
        <ele>282</ele>
        <time>2018-09-20T09:31:19Z</time>
      </trkpt>
      <trkpt lat="45.95176" lon="4.88127">
        <ele>282</ele>
        <time>2018-09-20T09:31:20Z</time>
      </trkpt>
      <trkpt lat="45.95173" lon="4.88137">
        <ele>283</ele>
        <time>2018-09-20T09:31:22Z</time>
      </trkpt>
      <trkpt lat="45.95171" lon="4.88142">
        <ele>283</ele>
        <time>2018-09-20T09:31:23Z</time>
      </trkpt>
      <trkpt lat="45.95169" lon="4.88153">
        <ele>284</ele>
        <time>2018-09-20T09:31:27Z</time>
      </trkpt>
      <trkpt lat="45.95168" lon="4.88156">
        <ele>284</ele>
        <time>2018-09-20T09:31:28Z</time>
      </trkpt>
      <trkpt lat="45.95168" lon="4.88164">
        <ele>285</ele>
        <time>2018-09-20T09:31:30Z</time>
      </trkpt>
      <trkpt lat="45.95171" lon="4.88174">
        <ele>285</ele>
        <time>2018-09-20T09:31:31Z</time>
      </trkpt>
      <trkpt lat="45.95178" lon="4.88175">
        <ele>285</ele>
        <time>2018-09-20T09:31:34Z</time>
      </trkpt>
      <trkpt lat="45.95186" lon="4.88174">
        <ele>285</ele>
        <time>2018-09-20T09:31:35Z</time>
      </trkpt>
      <trkpt lat="45.95194" lon="4.88171">
        <ele>285</ele>
        <time>2018-09-20T09:31:37Z</time>
      </trkpt>
      <trkpt lat="45.952" lon="4.88169">
        <ele>285</ele>
        <time>2018-09-20T09:31:38Z</time>
      </trkpt>
      <trkpt lat="45.95205" lon="4.88168">
        <ele>285</ele>
        <time>2018-09-20T09:31:39Z</time>
      </trkpt>
      <trkpt lat="45.95211" lon="4.88167">
        <ele>284</ele>
        <time>2018-09-20T09:31:40Z</time>
      </trkpt>
      <trkpt lat="45.95215" lon="4.88168">
        <ele>284</ele>
        <time>2018-09-20T09:31:41Z</time>
      </trkpt>
      <trkpt lat="45.95221" lon="4.88167">
        <ele>284</ele>
        <time>2018-09-20T09:31:42Z</time>
      </trkpt>
      <trkpt lat="45.95227" lon="4.88167">
        <ele>284</ele>
        <time>2018-09-20T09:31:43Z</time>
      </trkpt>
      <trkpt lat="45.95233" lon="4.88168">
        <ele>283</ele>
        <time>2018-09-20T09:31:44Z</time>
      </trkpt>
      <trkpt lat="45.95239" lon="4.88165">
        <ele>281</ele>
        <time>2018-09-20T09:31:45Z</time>
      </trkpt>
      <trkpt lat="45.95245" lon="4.88167">
        <ele>282</ele>
        <time>2018-09-20T09:31:46Z</time>
      </trkpt>
      <trkpt lat="45.95251" lon="4.8817">
        <ele>281</ele>
        <time>2018-09-20T09:31:47Z</time>
      </trkpt>
      <trkpt lat="45.95258" lon="4.88168">
        <ele>281</ele>
        <time>2018-09-20T09:31:48Z</time>
      </trkpt>
      <trkpt lat="45.95263" lon="4.8817">
        <ele>281</ele>
        <time>2018-09-20T09:31:49Z</time>
      </trkpt>
      <trkpt lat="45.95269" lon="4.88171">
        <ele>281</ele>
        <time>2018-09-20T09:31:50Z</time>
      </trkpt>
      <trkpt lat="45.95277" lon="4.88171">
        <ele>281</ele>
        <time>2018-09-20T09:31:51Z</time>
      </trkpt>
      <trkpt lat="45.95284" lon="4.88169">
        <ele>281</ele>
        <time>2018-09-20T09:31:52Z</time>
      </trkpt>
      <trkpt lat="45.95291" lon="4.88173">
        <ele>281</ele>
        <time>2018-09-20T09:31:53Z</time>
      </trkpt>
      <trkpt lat="45.953" lon="4.88173">
        <ele>281</ele>
        <time>2018-09-20T09:31:54Z</time>
      </trkpt>
      <trkpt lat="45.95309" lon="4.88173">
        <ele>280</ele>
        <time>2018-09-20T09:31:55Z</time>
      </trkpt>
      <trkpt lat="45.95315" lon="4.88174">
        <ele>280</ele>
        <time>2018-09-20T09:31:56Z</time>
      </trkpt>
      <trkpt lat="45.95322" lon="4.88174">
        <ele>280</ele>
        <time>2018-09-20T09:31:57Z</time>
      </trkpt>
      <trkpt lat="45.95328" lon="4.88174">
        <ele>279</ele>
        <time>2018-09-20T09:31:58Z</time>
      </trkpt>
      <trkpt lat="45.95337" lon="4.88174">
        <ele>278</ele>
        <time>2018-09-20T09:31:59Z</time>
      </trkpt>
      <trkpt lat="45.95344" lon="4.88173">
        <ele>278</ele>
        <time>2018-09-20T09:32:00Z</time>
      </trkpt>
      <trkpt lat="45.95351" lon="4.88172">
        <ele>278</ele>
        <time>2018-09-20T09:32:01Z</time>
      </trkpt>
      <trkpt lat="45.95358" lon="4.88172">
        <ele>278</ele>
        <time>2018-09-20T09:32:02Z</time>
      </trkpt>
      <trkpt lat="45.95365" lon="4.88171">
        <ele>278</ele>
        <time>2018-09-20T09:32:03Z</time>
      </trkpt>
      <trkpt lat="45.95373" lon="4.88168">
        <ele>278</ele>
        <time>2018-09-20T09:32:04Z</time>
      </trkpt>
      <trkpt lat="45.9538" lon="4.88165">
        <ele>276</ele>
        <time>2018-09-20T09:32:05Z</time>
      </trkpt>
      <trkpt lat="45.95386" lon="4.88166">
        <ele>276</ele>
        <time>2018-09-20T09:32:06Z</time>
      </trkpt>
      <trkpt lat="45.95393" lon="4.88163">
        <ele>276</ele>
        <time>2018-09-20T09:32:07Z</time>
      </trkpt>
      <trkpt lat="45.95399" lon="4.88162">
        <ele>276</ele>
        <time>2018-09-20T09:32:08Z</time>
      </trkpt>
      <trkpt lat="45.95405" lon="4.88161">
        <ele>276</ele>
        <time>2018-09-20T09:32:09Z</time>
      </trkpt>
      <trkpt lat="45.95411" lon="4.88157">
        <ele>276</ele>
        <time>2018-09-20T09:32:10Z</time>
      </trkpt>
      <trkpt lat="45.95417" lon="4.88154">
        <ele>276</ele>
        <time>2018-09-20T09:32:11Z</time>
      </trkpt>
      <trkpt lat="45.95423" lon="4.8815">
        <ele>276</ele>
        <time>2018-09-20T09:32:12Z</time>
      </trkpt>
      <trkpt lat="45.95428" lon="4.88146">
        <ele>276</ele>
        <time>2018-09-20T09:32:13Z</time>
      </trkpt>
      <trkpt lat="45.95434" lon="4.88143">
        <ele>276</ele>
        <time>2018-09-20T09:32:14Z</time>
      </trkpt>
      <trkpt lat="45.9544" lon="4.88141">
        <ele>276</ele>
        <time>2018-09-20T09:32:15Z</time>
      </trkpt>
      <trkpt lat="45.95445" lon="4.88139">
        <ele>276</ele>
        <time>2018-09-20T09:32:16Z</time>
      </trkpt>
      <trkpt lat="45.95452" lon="4.88137">
        <ele>276</ele>
        <time>2018-09-20T09:32:18Z</time>
      </trkpt>
      <trkpt lat="45.95457" lon="4.88135">
        <ele>276</ele>
        <time>2018-09-20T09:32:19Z</time>
      </trkpt>
      <trkpt lat="45.95462" lon="4.88132">
        <ele>276</ele>
        <time>2018-09-20T09:32:20Z</time>
      </trkpt>
      <trkpt lat="45.95466" lon="4.88131">
        <ele>276</ele>
        <time>2018-09-20T09:32:21Z</time>
      </trkpt>
      <trkpt lat="45.95471" lon="4.88127">
        <ele>276</ele>
        <time>2018-09-20T09:32:22Z</time>
      </trkpt>
      <trkpt lat="45.95476" lon="4.88124">
        <ele>276</ele>
        <time>2018-09-20T09:32:23Z</time>
      </trkpt>
      <trkpt lat="45.95481" lon="4.88121">
        <ele>276</ele>
        <time>2018-09-20T09:32:24Z</time>
      </trkpt>
      <trkpt lat="45.95486" lon="4.88119">
        <ele>276</ele>
        <time>2018-09-20T09:32:25Z</time>
      </trkpt>
      <trkpt lat="45.95491" lon="4.88117">
        <ele>276</ele>
        <time>2018-09-20T09:32:26Z</time>
      </trkpt>
      <trkpt lat="45.95496" lon="4.88115">
        <ele>276</ele>
        <time>2018-09-20T09:32:27Z</time>
      </trkpt>
      <trkpt lat="45.95501" lon="4.88113">
        <ele>276</ele>
        <time>2018-09-20T09:32:28Z</time>
      </trkpt>
      <trkpt lat="45.95505" lon="4.88111">
        <ele>276</ele>
        <time>2018-09-20T09:32:29Z</time>
      </trkpt>
      <trkpt lat="45.95513" lon="4.88108">
        <ele>276</ele>
        <time>2018-09-20T09:32:31Z</time>
      </trkpt>
      <trkpt lat="45.95518" lon="4.88105">
        <ele>276</ele>
        <time>2018-09-20T09:32:32Z</time>
      </trkpt>
      <trkpt lat="45.95526" lon="4.881">
        <ele>277</ele>
        <time>2018-09-20T09:32:34Z</time>
      </trkpt>
      <trkpt lat="45.9553" lon="4.88099">
        <ele>277</ele>
        <time>2018-09-20T09:32:35Z</time>
      </trkpt>
      <trkpt lat="45.95538" lon="4.88096">
        <ele>277</ele>
        <time>2018-09-20T09:32:37Z</time>
      </trkpt>
      <trkpt lat="45.95541" lon="4.88096">
        <ele>277</ele>
        <time>2018-09-20T09:32:38Z</time>
      </trkpt>
      <trkpt lat="45.95549" lon="4.88091">
        <ele>277</ele>
        <time>2018-09-20T09:32:40Z</time>
      </trkpt>
      <trkpt lat="45.95553" lon="4.88089">
        <ele>277</ele>
        <time>2018-09-20T09:32:41Z</time>
      </trkpt>
      <trkpt lat="45.95557" lon="4.88088">
        <ele>277</ele>
        <time>2018-09-20T09:32:42Z</time>
      </trkpt>
      <trkpt lat="45.95562" lon="4.88085">
        <ele>277</ele>
        <time>2018-09-20T09:32:43Z</time>
      </trkpt>
      <trkpt lat="45.9557" lon="4.8808">
        <ele>276</ele>
        <time>2018-09-20T09:32:45Z</time>
      </trkpt>
      <trkpt lat="45.95574" lon="4.88077">
        <ele>277</ele>
        <time>2018-09-20T09:32:46Z</time>
      </trkpt>
      <trkpt lat="45.95581" lon="4.88071">
        <ele>277</ele>
        <time>2018-09-20T09:32:48Z</time>
      </trkpt>
      <trkpt lat="45.95585" lon="4.88067">
        <ele>278</ele>
        <time>2018-09-20T09:32:49Z</time>
      </trkpt>
      <trkpt lat="45.95589" lon="4.88065">
        <ele>278</ele>
        <time>2018-09-20T09:32:50Z</time>
      </trkpt>
      <trkpt lat="45.95594" lon="4.88062">
        <ele>278</ele>
        <time>2018-09-20T09:32:51Z</time>
      </trkpt>
      <trkpt lat="45.95598" lon="4.88059">
        <ele>278</ele>
        <time>2018-09-20T09:32:52Z</time>
      </trkpt>
      <trkpt lat="45.95602" lon="4.88054">
        <ele>278</ele>
        <time>2018-09-20T09:32:53Z</time>
      </trkpt>
      <trkpt lat="45.95609" lon="4.88047">
        <ele>278</ele>
        <time>2018-09-20T09:32:55Z</time>
      </trkpt>
      <trkpt lat="45.95613" lon="4.88044">
        <ele>278</ele>
        <time>2018-09-20T09:32:56Z</time>
      </trkpt>
      <trkpt lat="45.95617" lon="4.8804">
        <ele>278</ele>
        <time>2018-09-20T09:32:57Z</time>
      </trkpt>
      <trkpt lat="45.95621" lon="4.88036">
        <ele>278</ele>
        <time>2018-09-20T09:32:58Z</time>
      </trkpt>
      <trkpt lat="45.95627" lon="4.88029">
        <ele>279</ele>
        <time>2018-09-20T09:33:00Z</time>
      </trkpt>
      <trkpt lat="45.95631" lon="4.88025">
        <ele>279</ele>
        <time>2018-09-20T09:33:01Z</time>
      </trkpt>
      <trkpt lat="45.95636" lon="4.88021">
        <ele>279</ele>
        <time>2018-09-20T09:33:03Z</time>
      </trkpt>
      <trkpt lat="45.95641" lon="4.88017">
        <ele>279</ele>
        <time>2018-09-20T09:33:04Z</time>
      </trkpt>
      <trkpt lat="45.95648" lon="4.88012">
        <ele>279</ele>
        <time>2018-09-20T09:33:06Z</time>
      </trkpt>
      <trkpt lat="45.95649" lon="4.8801">
        <ele>280</ele>
        <time>2018-09-20T09:33:07Z</time>
      </trkpt>
      <trkpt lat="45.95657" lon="4.88004">
        <ele>280</ele>
        <time>2018-09-20T09:33:09Z</time>
      </trkpt>
      <trkpt lat="45.9566" lon="4.88001">
        <ele>280</ele>
        <time>2018-09-20T09:33:10Z</time>
      </trkpt>
      <trkpt lat="45.95665" lon="4.87995">
        <ele>280</ele>
        <time>2018-09-20T09:33:13Z</time>
      </trkpt>
      <trkpt lat="45.95667" lon="4.87993">
        <ele>281</ele>
        <time>2018-09-20T09:33:14Z</time>
      </trkpt>
      <trkpt lat="45.95675" lon="4.87986">
        <ele>282</ele>
        <time>2018-09-20T09:33:17Z</time>
      </trkpt>
      <trkpt lat="45.95677" lon="4.87984">
        <ele>282</ele>
        <time>2018-09-20T09:33:18Z</time>
      </trkpt>
      <trkpt lat="45.95685" lon="4.87978">
        <ele>282</ele>
        <time>2018-09-20T09:33:21Z</time>
      </trkpt>
      <trkpt lat="45.95688" lon="4.87976">
        <ele>282</ele>
        <time>2018-09-20T09:33:22Z</time>
      </trkpt>
      <trkpt lat="45.95695" lon="4.87969">
        <ele>282</ele>
        <time>2018-09-20T09:33:25Z</time>
      </trkpt>
      <trkpt lat="45.95697" lon="4.87967">
        <ele>282</ele>
        <time>2018-09-20T09:33:26Z</time>
      </trkpt>
      <trkpt lat="45.95704" lon="4.8796">
        <ele>283</ele>
        <time>2018-09-20T09:33:29Z</time>
      </trkpt>
      <trkpt lat="45.95706" lon="4.87958">
        <ele>283</ele>
        <time>2018-09-20T09:33:30Z</time>
      </trkpt>
      <trkpt lat="45.95712" lon="4.87954">
        <ele>283</ele>
        <time>2018-09-20T09:33:33Z</time>
      </trkpt>
      <trkpt lat="45.95714" lon="4.87953">
        <ele>283</ele>
        <time>2018-09-20T09:33:34Z</time>
      </trkpt>
      <trkpt lat="45.95721" lon="4.87947">
        <ele>283</ele>
        <time>2018-09-20T09:33:37Z</time>
      </trkpt>
      <trkpt lat="45.95723" lon="4.87945">
        <ele>283</ele>
        <time>2018-09-20T09:33:38Z</time>
      </trkpt>
      <trkpt lat="45.95731" lon="4.87939">
        <ele>283</ele>
        <time>2018-09-20T09:33:41Z</time>
      </trkpt>
      <trkpt lat="45.95733" lon="4.87938">
        <ele>284</ele>
        <time>2018-09-20T09:33:42Z</time>
      </trkpt>
      <trkpt lat="45.9574" lon="4.87933">
        <ele>284</ele>
        <time>2018-09-20T09:33:45Z</time>
      </trkpt>
      <trkpt lat="45.95742" lon="4.87931">
        <ele>284</ele>
        <time>2018-09-20T09:33:46Z</time>
      </trkpt>
      <trkpt lat="45.95749" lon="4.87925">
        <ele>284</ele>
        <time>2018-09-20T09:33:49Z</time>
      </trkpt>
      <trkpt lat="45.95752" lon="4.87923">
        <ele>286</ele>
        <time>2018-09-20T09:33:50Z</time>
      </trkpt>
      <trkpt lat="45.9576" lon="4.87919">
        <ele>286</ele>
        <time>2018-09-20T09:33:53Z</time>
      </trkpt>
      <trkpt lat="45.95762" lon="4.87917">
        <ele>286</ele>
        <time>2018-09-20T09:33:54Z</time>
      </trkpt>
      <trkpt lat="45.9577" lon="4.87912">
        <ele>286</ele>
        <time>2018-09-20T09:33:57Z</time>
      </trkpt>
      <trkpt lat="45.95772" lon="4.8791">
        <ele>286</ele>
        <time>2018-09-20T09:33:58Z</time>
      </trkpt>
      <trkpt lat="45.9578" lon="4.87905">
        <ele>286</ele>
        <time>2018-09-20T09:34:01Z</time>
      </trkpt>
      <trkpt lat="45.95783" lon="4.87903">
        <ele>286</ele>
        <time>2018-09-20T09:34:02Z</time>
      </trkpt>
      <trkpt lat="45.95789" lon="4.87899">
        <ele>286</ele>
        <time>2018-09-20T09:34:04Z</time>
      </trkpt>
      <trkpt lat="45.95797" lon="4.87893">
        <ele>287</ele>
        <time>2018-09-20T09:34:05Z</time>
      </trkpt>
      <trkpt lat="45.95806" lon="4.87888">
        <ele>287</ele>
        <time>2018-09-20T09:34:08Z</time>
      </trkpt>
      <trkpt lat="45.95808" lon="4.87888">
        <ele>287</ele>
        <time>2018-09-20T09:34:09Z</time>
      </trkpt>
      <trkpt lat="45.95815" lon="4.87884">
        <ele>287</ele>
        <time>2018-09-20T09:34:12Z</time>
      </trkpt>
      <trkpt lat="45.95818" lon="4.87883">
        <ele>287</ele>
        <time>2018-09-20T09:34:13Z</time>
      </trkpt>
      <trkpt lat="45.95825" lon="4.87881">
        <ele>287</ele>
        <time>2018-09-20T09:34:16Z</time>
      </trkpt>
      <trkpt lat="45.95828" lon="4.8788">
        <ele>287</ele>
        <time>2018-09-20T09:34:17Z</time>
      </trkpt>
      <trkpt lat="45.95833" lon="4.87879">
        <ele>287</ele>
        <time>2018-09-20T09:34:19Z</time>
      </trkpt>
      <trkpt lat="45.95841" lon="4.87873">
        <ele>289</ele>
        <time>2018-09-20T09:34:20Z</time>
      </trkpt>
      <trkpt lat="45.95847" lon="4.87865">
        <ele>289</ele>
        <time>2018-09-20T09:34:22Z</time>
      </trkpt>
      <trkpt lat="45.9585" lon="4.87861">
        <ele>289</ele>
        <time>2018-09-20T09:34:23Z</time>
      </trkpt>
      <trkpt lat="45.95855" lon="4.87856">
        <ele>289</ele>
        <time>2018-09-20T09:34:25Z</time>
      </trkpt>
      <trkpt lat="45.95859" lon="4.87852">
        <ele>289</ele>
        <time>2018-09-20T09:34:26Z</time>
      </trkpt>
      <trkpt lat="45.95863" lon="4.87848">
        <ele>289</ele>
        <time>2018-09-20T09:34:28Z</time>
      </trkpt>
      <trkpt lat="45.95868" lon="4.87843">
        <ele>289</ele>
        <time>2018-09-20T09:34:29Z</time>
      </trkpt>
      <trkpt lat="45.95875" lon="4.87837">
        <ele>289</ele>
        <time>2018-09-20T09:34:31Z</time>
      </trkpt>
      <trkpt lat="45.95878" lon="4.87833">
        <ele>289</ele>
        <time>2018-09-20T09:34:32Z</time>
      </trkpt>
      <trkpt lat="45.95882" lon="4.8783">
        <ele>288</ele>
        <time>2018-09-20T09:34:33Z</time>
      </trkpt>
      <trkpt lat="45.95885" lon="4.87823">
        <ele>288</ele>
        <time>2018-09-20T09:34:34Z</time>
      </trkpt>
      <trkpt lat="45.95889" lon="4.87819">
        <ele>288</ele>
        <time>2018-09-20T09:34:35Z</time>
      </trkpt>
      <trkpt lat="45.95892" lon="4.87814">
        <ele>288</ele>
        <time>2018-09-20T09:34:36Z</time>
      </trkpt>
      <trkpt lat="45.95896" lon="4.87809">
        <ele>288</ele>
        <time>2018-09-20T09:34:37Z</time>
      </trkpt>
      <trkpt lat="45.95899" lon="4.87804">
        <ele>288</ele>
        <time>2018-09-20T09:34:38Z</time>
      </trkpt>
      <trkpt lat="45.95905" lon="4.87795">
        <ele>288</ele>
        <time>2018-09-20T09:34:40Z</time>
      </trkpt>
      <trkpt lat="45.95908" lon="4.87791">
        <ele>288</ele>
        <time>2018-09-20T09:34:41Z</time>
      </trkpt>
      <trkpt lat="45.95913" lon="4.87781">
        <ele>288</ele>
        <time>2018-09-20T09:34:43Z</time>
      </trkpt>
      <trkpt lat="45.95916" lon="4.87775">
        <ele>288</ele>
        <time>2018-09-20T09:34:44Z</time>
      </trkpt>
      <trkpt lat="45.95921" lon="4.87767">
        <ele>288</ele>
        <time>2018-09-20T09:34:46Z</time>
      </trkpt>
      <trkpt lat="45.95924" lon="4.87763">
        <ele>288</ele>
        <time>2018-09-20T09:34:47Z</time>
      </trkpt>
      <trkpt lat="45.95927" lon="4.87758">
        <ele>288</ele>
        <time>2018-09-20T09:34:48Z</time>
      </trkpt>
      <trkpt lat="45.9593" lon="4.87753">
        <ele>288</ele>
        <time>2018-09-20T09:34:49Z</time>
      </trkpt>
      <trkpt lat="45.95935" lon="4.87743">
        <ele>288</ele>
        <time>2018-09-20T09:34:51Z</time>
      </trkpt>
      <trkpt lat="45.95937" lon="4.87738">
        <ele>288</ele>
        <time>2018-09-20T09:34:52Z</time>
      </trkpt>
      <trkpt lat="45.95943" lon="4.87729">
        <ele>289</ele>
        <time>2018-09-20T09:34:54Z</time>
      </trkpt>
      <trkpt lat="45.95946" lon="4.87724">
        <ele>289</ele>
        <time>2018-09-20T09:34:55Z</time>
      </trkpt>
      <trkpt lat="45.9595" lon="4.87719">
        <ele>289</ele>
        <time>2018-09-20T09:34:56Z</time>
      </trkpt>
      <trkpt lat="45.95953" lon="4.87716">
        <ele>289</ele>
        <time>2018-09-20T09:34:57Z</time>
      </trkpt>
      <trkpt lat="45.95957" lon="4.87711">
        <ele>289</ele>
        <time>2018-09-20T09:34:58Z</time>
      </trkpt>
      <trkpt lat="45.95961" lon="4.87707">
        <ele>289</ele>
        <time>2018-09-20T09:34:59Z</time>
      </trkpt>
      <trkpt lat="45.95967" lon="4.87698">
        <ele>289</ele>
        <time>2018-09-20T09:35:01Z</time>
      </trkpt>
      <trkpt lat="45.9597" lon="4.87694">
        <ele>289</ele>
        <time>2018-09-20T09:35:02Z</time>
      </trkpt>
      <trkpt lat="45.95974" lon="4.8769">
        <ele>289</ele>
        <time>2018-09-20T09:35:03Z</time>
      </trkpt>
      <trkpt lat="45.95978" lon="4.87685">
        <ele>289</ele>
        <time>2018-09-20T09:35:04Z</time>
      </trkpt>
      <trkpt lat="45.95985" lon="4.87678">
        <ele>289</ele>
        <time>2018-09-20T09:35:06Z</time>
      </trkpt>
      <trkpt lat="45.95988" lon="4.87674">
        <ele>289</ele>
        <time>2018-09-20T09:35:07Z</time>
      </trkpt>
      <trkpt lat="45.95995" lon="4.87667">
        <ele>290</ele>
        <time>2018-09-20T09:35:09Z</time>
      </trkpt>
      <trkpt lat="45.95999" lon="4.87664">
        <ele>290</ele>
        <time>2018-09-20T09:35:10Z</time>
      </trkpt>
      <trkpt lat="45.96003" lon="4.87659">
        <ele>290</ele>
        <time>2018-09-20T09:35:11Z</time>
      </trkpt>
      <trkpt lat="45.96006" lon="4.87653">
        <ele>289</ele>
        <time>2018-09-20T09:35:12Z</time>
      </trkpt>
      <trkpt lat="45.9601" lon="4.87649">
        <ele>289</ele>
        <time>2018-09-20T09:35:13Z</time>
      </trkpt>
      <trkpt lat="45.96013" lon="4.87645">
        <ele>289</ele>
        <time>2018-09-20T09:35:14Z</time>
      </trkpt>
      <trkpt lat="45.96017" lon="4.87642">
        <ele>289</ele>
        <time>2018-09-20T09:35:15Z</time>
      </trkpt>
      <trkpt lat="45.96021" lon="4.87638">
        <ele>289</ele>
        <time>2018-09-20T09:35:16Z</time>
      </trkpt>
      <trkpt lat="45.96024" lon="4.87634">
        <ele>289</ele>
        <time>2018-09-20T09:35:17Z</time>
      </trkpt>
      <trkpt lat="45.96028" lon="4.8763">
        <ele>289</ele>
        <time>2018-09-20T09:35:18Z</time>
      </trkpt>
      <trkpt lat="45.96033" lon="4.87625">
        <ele>289</ele>
        <time>2018-09-20T09:35:19Z</time>
      </trkpt>
      <trkpt lat="45.96037" lon="4.87621">
        <ele>289</ele>
        <time>2018-09-20T09:35:20Z</time>
      </trkpt>
      <trkpt lat="45.96044" lon="4.87615">
        <ele>289</ele>
        <time>2018-09-20T09:35:22Z</time>
      </trkpt>
      <trkpt lat="45.96047" lon="4.8761">
        <ele>289</ele>
        <time>2018-09-20T09:35:23Z</time>
      </trkpt>
      <trkpt lat="45.96051" lon="4.87606">
        <ele>289</ele>
        <time>2018-09-20T09:35:24Z</time>
      </trkpt>
      <trkpt lat="45.96055" lon="4.87601">
        <ele>289</ele>
        <time>2018-09-20T09:35:25Z</time>
      </trkpt>
      <trkpt lat="45.96059" lon="4.87597">
        <ele>288</ele>
        <time>2018-09-20T09:35:26Z</time>
      </trkpt>
      <trkpt lat="45.96063" lon="4.87592">
        <ele>288</ele>
        <time>2018-09-20T09:35:27Z</time>
      </trkpt>
      <trkpt lat="45.96066" lon="4.87589">
        <ele>288</ele>
        <time>2018-09-20T09:35:28Z</time>
      </trkpt>
      <trkpt lat="45.9607" lon="4.87584">
        <ele>288</ele>
        <time>2018-09-20T09:35:29Z</time>
      </trkpt>
      <trkpt lat="45.96077" lon="4.87576">
        <ele>288</ele>
        <time>2018-09-20T09:35:31Z</time>
      </trkpt>
      <trkpt lat="45.9608" lon="4.87571">
        <ele>288</ele>
        <time>2018-09-20T09:35:32Z</time>
      </trkpt>
      <trkpt lat="45.96084" lon="4.87566">
        <ele>287</ele>
        <time>2018-09-20T09:35:33Z</time>
      </trkpt>
      <trkpt lat="45.96088" lon="4.87561">
        <ele>287</ele>
        <time>2018-09-20T09:35:34Z</time>
      </trkpt>
      <trkpt lat="45.96091" lon="4.87556">
        <ele>287</ele>
        <time>2018-09-20T09:35:35Z</time>
      </trkpt>
      <trkpt lat="45.96095" lon="4.87552">
        <ele>287</ele>
        <time>2018-09-20T09:35:36Z</time>
      </trkpt>
      <trkpt lat="45.96099" lon="4.87546">
        <ele>287</ele>
        <time>2018-09-20T09:35:37Z</time>
      </trkpt>
      <trkpt lat="45.96104" lon="4.87541">
        <ele>287</ele>
        <time>2018-09-20T09:35:38Z</time>
      </trkpt>
      <trkpt lat="45.96109" lon="4.87536">
        <ele>287</ele>
        <time>2018-09-20T09:35:39Z</time>
      </trkpt>
      <trkpt lat="45.96114" lon="4.87531">
        <ele>287</ele>
        <time>2018-09-20T09:35:40Z</time>
      </trkpt>
      <trkpt lat="45.96118" lon="4.87526">
        <ele>286</ele>
        <time>2018-09-20T09:35:41Z</time>
      </trkpt>
      <trkpt lat="45.96123" lon="4.8752">
        <ele>286</ele>
        <time>2018-09-20T09:35:42Z</time>
      </trkpt>
      <trkpt lat="45.96128" lon="4.87515">
        <ele>286</ele>
        <time>2018-09-20T09:35:43Z</time>
      </trkpt>
      <trkpt lat="45.96133" lon="4.8751">
        <ele>286</ele>
        <time>2018-09-20T09:35:44Z</time>
      </trkpt>
      <trkpt lat="45.96138" lon="4.87505">
        <ele>286</ele>
        <time>2018-09-20T09:35:45Z</time>
      </trkpt>
      <trkpt lat="45.96143" lon="4.87499">
        <ele>285</ele>
        <time>2018-09-20T09:35:46Z</time>
      </trkpt>
      <trkpt lat="45.96147" lon="4.87494">
        <ele>285</ele>
        <time>2018-09-20T09:35:47Z</time>
      </trkpt>
      <trkpt lat="45.96153" lon="4.87489">
        <ele>285</ele>
        <time>2018-09-20T09:35:48Z</time>
      </trkpt>
      <trkpt lat="45.96157" lon="4.87483">
        <ele>285</ele>
        <time>2018-09-20T09:35:49Z</time>
      </trkpt>
      <trkpt lat="45.96162" lon="4.87478">
        <ele>285</ele>
        <time>2018-09-20T09:35:50Z</time>
      </trkpt>
      <trkpt lat="45.96166" lon="4.87472">
        <ele>285</ele>
        <time>2018-09-20T09:35:51Z</time>
      </trkpt>
      <trkpt lat="45.96171" lon="4.87467">
        <ele>284</ele>
        <time>2018-09-20T09:35:52Z</time>
      </trkpt>
      <trkpt lat="45.96176" lon="4.87462">
        <ele>284</ele>
        <time>2018-09-20T09:35:53Z</time>
      </trkpt>
      <trkpt lat="45.9618" lon="4.87456">
        <ele>284</ele>
        <time>2018-09-20T09:35:54Z</time>
      </trkpt>
      <trkpt lat="45.96185" lon="4.87451">
        <ele>284</ele>
        <time>2018-09-20T09:35:55Z</time>
      </trkpt>
      <trkpt lat="45.96191" lon="4.87445">
        <ele>284</ele>
        <time>2018-09-20T09:35:56Z</time>
      </trkpt>
      <trkpt lat="45.96196" lon="4.8744">
        <ele>284</ele>
        <time>2018-09-20T09:35:57Z</time>
      </trkpt>
      <trkpt lat="45.962" lon="4.87434">
        <ele>284</ele>
        <time>2018-09-20T09:35:58Z</time>
      </trkpt>
      <trkpt lat="45.96205" lon="4.87429">
        <ele>284</ele>
        <time>2018-09-20T09:35:59Z</time>
      </trkpt>
      <trkpt lat="45.96209" lon="4.87424">
        <ele>284</ele>
        <time>2018-09-20T09:36:00Z</time>
      </trkpt>
      <trkpt lat="45.96215" lon="4.87416">
        <ele>283</ele>
        <time>2018-09-20T09:36:01Z</time>
      </trkpt>
      <trkpt lat="45.96219" lon="4.8741">
        <ele>283</ele>
        <time>2018-09-20T09:36:02Z</time>
      </trkpt>
      <trkpt lat="45.96223" lon="4.87406">
        <ele>283</ele>
        <time>2018-09-20T09:36:03Z</time>
      </trkpt>
      <trkpt lat="45.96228" lon="4.874">
        <ele>283</ele>
        <time>2018-09-20T09:36:04Z</time>
      </trkpt>
      <trkpt lat="45.96233" lon="4.87395">
        <ele>283</ele>
        <time>2018-09-20T09:36:05Z</time>
      </trkpt>
      <trkpt lat="45.96237" lon="4.87387">
        <ele>283</ele>
        <time>2018-09-20T09:36:06Z</time>
      </trkpt>
      <trkpt lat="45.96241" lon="4.87382">
        <ele>283</ele>
        <time>2018-09-20T09:36:07Z</time>
      </trkpt>
      <trkpt lat="45.96245" lon="4.87376">
        <ele>283</ele>
        <time>2018-09-20T09:36:08Z</time>
      </trkpt>
      <trkpt lat="45.9625" lon="4.87371">
        <ele>283</ele>
        <time>2018-09-20T09:36:09Z</time>
      </trkpt>
      <trkpt lat="45.96254" lon="4.87366">
        <ele>283</ele>
        <time>2018-09-20T09:36:10Z</time>
      </trkpt>
      <trkpt lat="45.96258" lon="4.87361">
        <ele>283</ele>
        <time>2018-09-20T09:36:11Z</time>
      </trkpt>
      <trkpt lat="45.96262" lon="4.87356">
        <ele>283</ele>
        <time>2018-09-20T09:36:12Z</time>
      </trkpt>
      <trkpt lat="45.96267" lon="4.87352">
        <ele>283</ele>
        <time>2018-09-20T09:36:13Z</time>
      </trkpt>
      <trkpt lat="45.96272" lon="4.87346">
        <ele>283</ele>
        <time>2018-09-20T09:36:14Z</time>
      </trkpt>
      <trkpt lat="45.96276" lon="4.87342">
        <ele>283</ele>
        <time>2018-09-20T09:36:15Z</time>
      </trkpt>
      <trkpt lat="45.9628" lon="4.87337">
        <ele>284</ele>
        <time>2018-09-20T09:36:16Z</time>
      </trkpt>
      <trkpt lat="45.96284" lon="4.87332">
        <ele>283</ele>
        <time>2018-09-20T09:36:17Z</time>
      </trkpt>
      <trkpt lat="45.96288" lon="4.87327">
        <ele>283</ele>
        <time>2018-09-20T09:36:18Z</time>
      </trkpt>
      <trkpt lat="45.96292" lon="4.87322">
        <ele>283</ele>
        <time>2018-09-20T09:36:19Z</time>
      </trkpt>
      <trkpt lat="45.96295" lon="4.87317">
        <ele>283</ele>
        <time>2018-09-20T09:36:20Z</time>
      </trkpt>
      <trkpt lat="45.96298" lon="4.87311">
        <ele>283</ele>
        <time>2018-09-20T09:36:21Z</time>
      </trkpt>
      <trkpt lat="45.96301" lon="4.87307">
        <ele>283</ele>
        <time>2018-09-20T09:36:22Z</time>
      </trkpt>
      <trkpt lat="45.96307" lon="4.87298">
        <ele>283</ele>
        <time>2018-09-20T09:36:24Z</time>
      </trkpt>
      <trkpt lat="45.9631" lon="4.87292">
        <ele>283</ele>
        <time>2018-09-20T09:36:25Z</time>
      </trkpt>
      <trkpt lat="45.96314" lon="4.87286">
        <ele>283</ele>
        <time>2018-09-20T09:36:26Z</time>
      </trkpt>
      <trkpt lat="45.96317" lon="4.87281">
        <ele>283</ele>
        <time>2018-09-20T09:36:27Z</time>
      </trkpt>
      <trkpt lat="45.96322" lon="4.87276">
        <ele>283</ele>
        <time>2018-09-20T09:36:28Z</time>
      </trkpt>
      <trkpt lat="45.96327" lon="4.87271">
        <ele>283</ele>
        <time>2018-09-20T09:36:29Z</time>
      </trkpt>
      <trkpt lat="45.96331" lon="4.87266">
        <ele>283</ele>
        <time>2018-09-20T09:36:30Z</time>
      </trkpt>
      <trkpt lat="45.96335" lon="4.87259">
        <ele>283</ele>
        <time>2018-09-20T09:36:31Z</time>
      </trkpt>
      <trkpt lat="45.9634" lon="4.87253">
        <ele>283</ele>
        <time>2018-09-20T09:36:32Z</time>
      </trkpt>
      <trkpt lat="45.96344" lon="4.87248">
        <ele>283</ele>
        <time>2018-09-20T09:36:33Z</time>
      </trkpt>
      <trkpt lat="45.96349" lon="4.87242">
        <ele>283</ele>
        <time>2018-09-20T09:36:34Z</time>
      </trkpt>
      <trkpt lat="45.96353" lon="4.87238">
        <ele>282</ele>
        <time>2018-09-20T09:36:35Z</time>
      </trkpt>
      <trkpt lat="45.96357" lon="4.87233">
        <ele>282</ele>
        <time>2018-09-20T09:36:36Z</time>
      </trkpt>
      <trkpt lat="45.9636" lon="4.87229">
        <ele>282</ele>
        <time>2018-09-20T09:36:37Z</time>
      </trkpt>
      <trkpt lat="45.96365" lon="4.87223">
        <ele>282</ele>
        <time>2018-09-20T09:36:38Z</time>
      </trkpt>
      <trkpt lat="45.96368" lon="4.87218">
        <ele>282</ele>
        <time>2018-09-20T09:36:39Z</time>
      </trkpt>
      <trkpt lat="45.96372" lon="4.87213">
        <ele>282</ele>
        <time>2018-09-20T09:36:40Z</time>
      </trkpt>
      <trkpt lat="45.96375" lon="4.87209">
        <ele>282</ele>
        <time>2018-09-20T09:36:41Z</time>
      </trkpt>
      <trkpt lat="45.96379" lon="4.87205">
        <ele>282</ele>
        <time>2018-09-20T09:36:42Z</time>
      </trkpt>
      <trkpt lat="45.96383" lon="4.872">
        <ele>282</ele>
        <time>2018-09-20T09:36:43Z</time>
      </trkpt>
      <trkpt lat="45.96387" lon="4.87195">
        <ele>282</ele>
        <time>2018-09-20T09:36:44Z</time>
      </trkpt>
      <trkpt lat="45.96391" lon="4.8719">
        <ele>282</ele>
        <time>2018-09-20T09:36:45Z</time>
      </trkpt>
      <trkpt lat="45.96395" lon="4.87185">
        <ele>282</ele>
        <time>2018-09-20T09:36:46Z</time>
      </trkpt>
      <trkpt lat="45.96399" lon="4.87179">
        <ele>282</ele>
        <time>2018-09-20T09:36:47Z</time>
      </trkpt>
      <trkpt lat="45.96402" lon="4.87175">
        <ele>281</ele>
        <time>2018-09-20T09:36:48Z</time>
      </trkpt>
      <trkpt lat="45.96407" lon="4.87169">
        <ele>281</ele>
        <time>2018-09-20T09:36:49Z</time>
      </trkpt>
      <trkpt lat="45.96411" lon="4.87165">
        <ele>281</ele>
        <time>2018-09-20T09:36:50Z</time>
      </trkpt>
      <trkpt lat="45.96415" lon="4.87159">
        <ele>281</ele>
        <time>2018-09-20T09:36:51Z</time>
      </trkpt>
      <trkpt lat="45.96419" lon="4.87155">
        <ele>281</ele>
        <time>2018-09-20T09:36:52Z</time>
      </trkpt>
      <trkpt lat="45.96422" lon="4.87151">
        <ele>281</ele>
        <time>2018-09-20T09:36:53Z</time>
      </trkpt>
      <trkpt lat="45.96425" lon="4.87146">
        <ele>281</ele>
        <time>2018-09-20T09:36:54Z</time>
      </trkpt>
      <trkpt lat="45.96429" lon="4.87142">
        <ele>281</ele>
        <time>2018-09-20T09:36:55Z</time>
      </trkpt>
      <trkpt lat="45.96432" lon="4.87137">
        <ele>281</ele>
        <time>2018-09-20T09:36:56Z</time>
      </trkpt>
      <trkpt lat="45.96436" lon="4.87132">
        <ele>281</ele>
        <time>2018-09-20T09:36:57Z</time>
      </trkpt>
      <trkpt lat="45.96439" lon="4.87127">
        <ele>281</ele>
        <time>2018-09-20T09:36:58Z</time>
      </trkpt>
      <trkpt lat="45.96442" lon="4.87123">
        <ele>281</ele>
        <time>2018-09-20T09:36:59Z</time>
      </trkpt>
      <trkpt lat="45.96445" lon="4.87118">
        <ele>281</ele>
        <time>2018-09-20T09:37:00Z</time>
      </trkpt>
      <trkpt lat="45.96449" lon="4.87114">
        <ele>281</ele>
        <time>2018-09-20T09:37:01Z</time>
      </trkpt>
      <trkpt lat="45.96456" lon="4.87106">
        <ele>281</ele>
        <time>2018-09-20T09:37:03Z</time>
      </trkpt>
      <trkpt lat="45.96459" lon="4.87102">
        <ele>282</ele>
        <time>2018-09-20T09:37:04Z</time>
      </trkpt>
      <trkpt lat="45.96462" lon="4.87098">
        <ele>282</ele>
        <time>2018-09-20T09:37:05Z</time>
      </trkpt>
      <trkpt lat="45.96466" lon="4.87093">
        <ele>282</ele>
        <time>2018-09-20T09:37:06Z</time>
      </trkpt>
      <trkpt lat="45.9647" lon="4.8709">
        <ele>282</ele>
        <time>2018-09-20T09:37:07Z</time>
      </trkpt>
      <trkpt lat="45.96474" lon="4.87084">
        <ele>282</ele>
        <time>2018-09-20T09:37:08Z</time>
      </trkpt>
      <trkpt lat="45.96478" lon="4.8708">
        <ele>282</ele>
        <time>2018-09-20T09:37:09Z</time>
      </trkpt>
      <trkpt lat="45.96481" lon="4.87075">
        <ele>282</ele>
        <time>2018-09-20T09:37:10Z</time>
      </trkpt>
      <trkpt lat="45.96485" lon="4.87071">
        <ele>282</ele>
        <time>2018-09-20T09:37:11Z</time>
      </trkpt>
      <trkpt lat="45.96488" lon="4.87067">
        <ele>282</ele>
        <time>2018-09-20T09:37:12Z</time>
      </trkpt>
      <trkpt lat="45.96494" lon="4.87058">
        <ele>281</ele>
        <time>2018-09-20T09:37:14Z</time>
      </trkpt>
      <trkpt lat="45.96497" lon="4.87054">
        <ele>281</ele>
        <time>2018-09-20T09:37:15Z</time>
      </trkpt>
      <trkpt lat="45.96501" lon="4.87049">
        <ele>282</ele>
        <time>2018-09-20T09:37:17Z</time>
      </trkpt>
      <trkpt lat="45.96506" lon="4.87049">
        <ele>283</ele>
        <time>2018-09-20T09:37:18Z</time>
      </trkpt>
      <trkpt lat="45.96511" lon="4.87056">
        <ele>283</ele>
        <time>2018-09-20T09:37:22Z</time>
      </trkpt>
      <trkpt lat="45.96512" lon="4.87058">
        <ele>283</ele>
        <time>2018-09-20T09:37:23Z</time>
      </trkpt>
      <trkpt lat="45.96519" lon="4.87065">
        <ele>283</ele>
        <time>2018-09-20T09:37:26Z</time>
      </trkpt>
      <trkpt lat="45.96521" lon="4.87066">
        <ele>283</ele>
        <time>2018-09-20T09:37:27Z</time>
      </trkpt>
      <trkpt lat="45.96529" lon="4.87067">
        <ele>283</ele>
        <time>2018-09-20T09:37:30Z</time>
      </trkpt>
      <trkpt lat="45.96531" lon="4.87066">
        <ele>283</ele>
        <time>2018-09-20T09:37:31Z</time>
      </trkpt>
      <trkpt lat="45.96539" lon="4.87065">
        <ele>283</ele>
        <time>2018-09-20T09:37:35Z</time>
      </trkpt>
      <trkpt lat="45.9654" lon="4.87067">
        <ele>283</ele>
        <time>2018-09-20T09:37:36Z</time>
      </trkpt>
      <trkpt lat="45.96545" lon="4.87075">
        <ele>283</ele>
        <time>2018-09-20T09:37:41Z</time>
      </trkpt>
      <trkpt lat="45.96547" lon="4.87076">
        <ele>283</ele>
        <time>2018-09-20T09:37:42Z</time>
      </trkpt>
      <trkpt lat="45.96555" lon="4.87077">
        <ele>283</ele>
        <time>2018-09-20T09:37:46Z</time>
      </trkpt>
      <trkpt lat="45.96557" lon="4.87075">
        <ele>283</ele>
        <time>2018-09-20T09:37:47Z</time>
      </trkpt>
      <trkpt lat="45.96563" lon="4.87069">
        <ele>283</ele>
        <time>2018-09-20T09:37:48Z</time>
      </trkpt>
      <trkpt lat="45.96564" lon="4.87065">
        <ele>283</ele>
        <time>2018-09-20T09:37:49Z</time>
      </trkpt>
      <trkpt lat="45.96563" lon="4.87052">
        <ele>283</ele>
        <time>2018-09-20T09:37:52Z</time>
      </trkpt>
      <trkpt lat="45.96563" lon="4.87048">
        <ele>283</ele>
        <time>2018-09-20T09:37:53Z</time>
      </trkpt>
      <trkpt lat="45.96561" lon="4.87039">
        <ele>283</ele>
        <time>2018-09-20T09:37:55Z</time>
      </trkpt>
      <trkpt lat="45.9656" lon="4.87035">
        <ele>283</ele>
        <time>2018-09-20T09:37:56Z</time>
      </trkpt>
      <trkpt lat="45.96554" lon="4.87026">
        <ele>283</ele>
        <time>2018-09-20T09:37:59Z</time>
      </trkpt>
      <trkpt lat="45.96552" lon="4.87024">
        <ele>283</ele>
        <time>2018-09-20T09:38:00Z</time>
      </trkpt>
      <trkpt lat="45.9655" lon="4.87022">
        <ele>283</ele>
        <time>2018-09-20T09:38:01Z</time>
      </trkpt>
      <trkpt lat="45.96543" lon="4.87019">
        <ele>283</ele>
        <time>2018-09-20T09:38:02Z</time>
      </trkpt>
      <trkpt lat="45.96535" lon="4.87021">
        <ele>283</ele>
        <time>2018-09-20T09:38:07Z</time>
      </trkpt>
      <trkpt lat="45.96534" lon="4.87022">
        <ele>283</ele>
        <time>2018-09-20T09:38:08Z</time>
      </trkpt>
      <trkpt lat="45.96532" lon="4.87023">
        <ele>283</ele>
        <time>2018-09-20T09:38:14Z</time>
      </trkpt>
      <trkpt lat="45.96532" lon="4.87023">
        <ele>283</ele>
        <time>2018-09-20T09:38:15Z</time>
      </trkpt>
      <trkpt lat="45.96533" lon="4.87026">
        <ele>283</ele>
        <time>2018-09-20T09:38:35Z</time>
      </trkpt>
      <trkpt lat="45.96533" lon="4.87026">
        <ele>283</ele>
        <time>2018-09-20T09:38:36Z</time>
      </trkpt>
      <trkpt lat="45.96533" lon="4.87028">
        <ele>283</ele>
        <time>2018-09-20T09:38:55Z</time>
      </trkpt>
      <trkpt lat="45.96533" lon="4.87028">
        <ele>283</ele>
        <time>2018-09-20T09:38:56Z</time>
      </trkpt>
      <trkpt lat="45.96533" lon="4.87029">
        <ele>283</ele>
        <time>2018-09-20T09:38:58Z</time>
      </trkpt>
      <trkpt lat="45.96533" lon="4.87029">
        <ele>283</ele>
        <time>2018-09-20T09:38:59Z</time>
      </trkpt>
      <trkpt lat="45.96537" lon="4.8702">
        <ele>283</ele>
        <time>2018-09-20T09:48:44Z</time>
      </trkpt>
      <trkpt lat="45.96538" lon="4.87018">
        <ele>283</ele>
        <time>2018-09-20T09:48:45Z</time>
      </trkpt>
      <trkpt lat="45.96541" lon="4.87007">
        <ele>283</ele>
        <time>2018-09-20T09:48:49Z</time>
      </trkpt>
      <trkpt lat="45.96542" lon="4.87003">
        <ele>283</ele>
        <time>2018-09-20T09:48:50Z</time>
      </trkpt>
      <trkpt lat="45.96546" lon="4.86996">
        <ele>283</ele>
        <time>2018-09-20T09:48:52Z</time>
      </trkpt>
      <trkpt lat="45.96547" lon="4.86992">
        <ele>283</ele>
        <time>2018-09-20T09:48:53Z</time>
      </trkpt>
      <trkpt lat="45.96553" lon="4.86982">
        <ele>283</ele>
        <time>2018-09-20T09:48:56Z</time>
      </trkpt>
      <trkpt lat="45.96555" lon="4.86979">
        <ele>283</ele>
        <time>2018-09-20T09:48:57Z</time>
      </trkpt>
      <trkpt lat="45.96559" lon="4.86972">
        <ele>283</ele>
        <time>2018-09-20T09:48:59Z</time>
      </trkpt>
      <trkpt lat="45.96566" lon="4.86962">
        <ele>284</ele>
        <time>2018-09-20T09:49:00Z</time>
      </trkpt>
      <trkpt lat="45.96571" lon="4.86952">
        <ele>284</ele>
        <time>2018-09-20T09:49:04Z</time>
      </trkpt>
      <trkpt lat="45.96573" lon="4.86948">
        <ele>284</ele>
        <time>2018-09-20T09:49:05Z</time>
      </trkpt>
      <trkpt lat="45.96577" lon="4.86937">
        <ele>284</ele>
        <time>2018-09-20T09:49:08Z</time>
      </trkpt>
      <trkpt lat="45.96579" lon="4.86934">
        <ele>284</ele>
        <time>2018-09-20T09:49:09Z</time>
      </trkpt>
      <trkpt lat="45.96582" lon="4.86927">
        <ele>284</ele>
        <time>2018-09-20T09:49:11Z</time>
      </trkpt>
      <trkpt lat="45.96584" lon="4.86924">
        <ele>285</ele>
        <time>2018-09-20T09:49:12Z</time>
      </trkpt>
      <trkpt lat="45.96588" lon="4.86917">
        <ele>285</ele>
        <time>2018-09-20T09:49:14Z</time>
      </trkpt>
      <trkpt lat="45.96591" lon="4.86914">
        <ele>286</ele>
        <time>2018-09-20T09:49:15Z</time>
      </trkpt>
      <trkpt lat="45.96595" lon="4.86906">
        <ele>286</ele>
        <time>2018-09-20T09:49:17Z</time>
      </trkpt>
      <trkpt lat="45.96597" lon="4.86903">
        <ele>286</ele>
        <time>2018-09-20T09:49:18Z</time>
      </trkpt>
      <trkpt lat="45.96601" lon="4.86896">
        <ele>286</ele>
        <time>2018-09-20T09:49:20Z</time>
      </trkpt>
      <trkpt lat="45.96603" lon="4.86893">
        <ele>286</ele>
        <time>2018-09-20T09:49:21Z</time>
      </trkpt>
      <trkpt lat="45.96607" lon="4.86886">
        <ele>287</ele>
        <time>2018-09-20T09:49:23Z</time>
      </trkpt>
      <trkpt lat="45.96614" lon="4.86874">
        <ele>287</ele>
        <time>2018-09-20T09:49:24Z</time>
      </trkpt>
      <trkpt lat="45.96616" lon="4.86869">
        <ele>287</ele>
        <time>2018-09-20T09:49:26Z</time>
      </trkpt>
      <trkpt lat="45.96621" lon="4.86863">
        <ele>287</ele>
        <time>2018-09-20T09:49:27Z</time>
      </trkpt>
      <trkpt lat="45.96627" lon="4.86855">
        <ele>287</ele>
        <time>2018-09-20T09:49:29Z</time>
      </trkpt>
      <trkpt lat="45.9663" lon="4.8685">
        <ele>287</ele>
        <time>2018-09-20T09:49:30Z</time>
      </trkpt>
      <trkpt lat="45.96635" lon="4.86841">
        <ele>287</ele>
        <time>2018-09-20T09:49:32Z</time>
      </trkpt>
      <trkpt lat="45.96638" lon="4.86837">
        <ele>287</ele>
        <time>2018-09-20T09:49:33Z</time>
      </trkpt>
      <trkpt lat="45.96643" lon="4.86829">
        <ele>288</ele>
        <time>2018-09-20T09:49:36Z</time>
      </trkpt>
      <trkpt lat="45.96645" lon="4.86827">
        <ele>288</ele>
        <time>2018-09-20T09:49:37Z</time>
      </trkpt>
      <trkpt lat="45.96649" lon="4.86821">
        <ele>288</ele>
        <time>2018-09-20T09:49:39Z</time>
      </trkpt>
      <trkpt lat="45.96655" lon="4.86811">
        <ele>288</ele>
        <time>2018-09-20T09:49:40Z</time>
      </trkpt>
      <trkpt lat="45.9666" lon="4.86802">
        <ele>288</ele>
        <time>2018-09-20T09:49:42Z</time>
      </trkpt>
      <trkpt lat="45.96663" lon="4.86798">
        <ele>288</ele>
        <time>2018-09-20T09:49:43Z</time>
      </trkpt>
      <trkpt lat="45.96668" lon="4.86789">
        <ele>289</ele>
        <time>2018-09-20T09:49:45Z</time>
      </trkpt>
      <trkpt lat="45.96671" lon="4.86784">
        <ele>289</ele>
        <time>2018-09-20T09:49:46Z</time>
      </trkpt>
      <trkpt lat="45.96675" lon="4.86777">
        <ele>289</ele>
        <time>2018-09-20T09:49:48Z</time>
      </trkpt>
      <trkpt lat="45.96678" lon="4.86771">
        <ele>289</ele>
        <time>2018-09-20T09:49:49Z</time>
      </trkpt>
      <trkpt lat="45.96683" lon="4.86763">
        <ele>289</ele>
        <time>2018-09-20T09:49:51Z</time>
      </trkpt>
      <trkpt lat="45.96686" lon="4.86759">
        <ele>289</ele>
        <time>2018-09-20T09:49:52Z</time>
      </trkpt>
      <trkpt lat="45.96691" lon="4.86751">
        <ele>289</ele>
        <time>2018-09-20T09:49:54Z</time>
      </trkpt>
      <trkpt lat="45.96693" lon="4.86747">
        <ele>289</ele>
        <time>2018-09-20T09:49:55Z</time>
      </trkpt>
      <trkpt lat="45.96698" lon="4.86738">
        <ele>289</ele>
        <time>2018-09-20T09:49:57Z</time>
      </trkpt>
      <trkpt lat="45.96701" lon="4.86734">
        <ele>289</ele>
        <time>2018-09-20T09:49:58Z</time>
      </trkpt>
      <trkpt lat="45.96706" lon="4.86725">
        <ele>289</ele>
        <time>2018-09-20T09:50:00Z</time>
      </trkpt>
      <trkpt lat="45.96709" lon="4.86721">
        <ele>289</ele>
        <time>2018-09-20T09:50:01Z</time>
      </trkpt>
      <trkpt lat="45.96715" lon="4.86712">
        <ele>289</ele>
        <time>2018-09-20T09:50:03Z</time>
      </trkpt>
      <trkpt lat="45.96718" lon="4.86707">
        <ele>289</ele>
        <time>2018-09-20T09:50:04Z</time>
      </trkpt>
      <trkpt lat="45.96723" lon="4.86698">
        <ele>289</ele>
        <time>2018-09-20T09:50:06Z</time>
      </trkpt>
      <trkpt lat="45.96726" lon="4.86694">
        <ele>289</ele>
        <time>2018-09-20T09:50:07Z</time>
      </trkpt>
      <trkpt lat="45.96729" lon="4.8669">
        <ele>289</ele>
        <time>2018-09-20T09:50:09Z</time>
      </trkpt>
      <trkpt lat="45.96733" lon="4.86683">
        <ele>290</ele>
        <time>2018-09-20T09:50:10Z</time>
      </trkpt>
      <trkpt lat="45.96739" lon="4.86674">
        <ele>290</ele>
        <time>2018-09-20T09:50:12Z</time>
      </trkpt>
      <trkpt lat="45.96742" lon="4.86669">
        <ele>290</ele>
        <time>2018-09-20T09:50:13Z</time>
      </trkpt>
      <trkpt lat="45.96748" lon="4.8666">
        <ele>290</ele>
        <time>2018-09-20T09:50:15Z</time>
      </trkpt>
      <trkpt lat="45.96751" lon="4.86656">
        <ele>290</ele>
        <time>2018-09-20T09:50:16Z</time>
      </trkpt>
      <trkpt lat="45.96756" lon="4.86646">
        <ele>290</ele>
        <time>2018-09-20T09:50:18Z</time>
      </trkpt>
      <trkpt lat="45.96759" lon="4.86641">
        <ele>290</ele>
        <time>2018-09-20T09:50:19Z</time>
      </trkpt>
      <trkpt lat="45.96764" lon="4.86631">
        <ele>289</ele>
        <time>2018-09-20T09:50:21Z</time>
      </trkpt>
      <trkpt lat="45.96767" lon="4.86626">
        <ele>289</ele>
        <time>2018-09-20T09:50:22Z</time>
      </trkpt>
      <trkpt lat="45.96772" lon="4.86616">
        <ele>289</ele>
        <time>2018-09-20T09:50:24Z</time>
      </trkpt>
      <trkpt lat="45.96775" lon="4.86611">
        <ele>289</ele>
        <time>2018-09-20T09:50:25Z</time>
      </trkpt>
      <trkpt lat="45.9678" lon="4.86602">
        <ele>289</ele>
        <time>2018-09-20T09:50:27Z</time>
      </trkpt>
      <trkpt lat="45.96782" lon="4.86598">
        <ele>289</ele>
        <time>2018-09-20T09:50:28Z</time>
      </trkpt>
      <trkpt lat="45.96787" lon="4.8659">
        <ele>289</ele>
        <time>2018-09-20T09:50:31Z</time>
      </trkpt>
      <trkpt lat="45.9679" lon="4.86582">
        <ele>290</ele>
        <time>2018-09-20T09:50:32Z</time>
      </trkpt>
      <trkpt lat="45.96795" lon="4.86573">
        <ele>290</ele>
        <time>2018-09-20T09:50:34Z</time>
      </trkpt>
      <trkpt lat="45.96798" lon="4.8657">
        <ele>290</ele>
        <time>2018-09-20T09:50:35Z</time>
      </trkpt>
      <trkpt lat="45.96801" lon="4.86565">
        <ele>290</ele>
        <time>2018-09-20T09:50:36Z</time>
      </trkpt>
      <trkpt lat="45.96805" lon="4.8656">
        <ele>290</ele>
        <time>2018-09-20T09:50:37Z</time>
      </trkpt>
      <trkpt lat="45.96811" lon="4.86551">
        <ele>290</ele>
        <time>2018-09-20T09:50:39Z</time>
      </trkpt>
      <trkpt lat="45.96813" lon="4.86546">
        <ele>290</ele>
        <time>2018-09-20T09:50:40Z</time>
      </trkpt>
      <trkpt lat="45.96818" lon="4.86537">
        <ele>290</ele>
        <time>2018-09-20T09:50:42Z</time>
      </trkpt>
      <trkpt lat="45.96821" lon="4.86533">
        <ele>290</ele>
        <time>2018-09-20T09:50:43Z</time>
      </trkpt>
      <trkpt lat="45.96827" lon="4.86523">
        <ele>289</ele>
        <time>2018-09-20T09:50:45Z</time>
      </trkpt>
      <trkpt lat="45.96829" lon="4.86518">
        <ele>289</ele>
        <time>2018-09-20T09:50:46Z</time>
      </trkpt>
      <trkpt lat="45.96832" lon="4.86512">
        <ele>289</ele>
        <time>2018-09-20T09:50:47Z</time>
      </trkpt>
      <trkpt lat="45.96835" lon="4.86507">
        <ele>289</ele>
        <time>2018-09-20T09:50:48Z</time>
      </trkpt>
      <trkpt lat="45.9684" lon="4.86496">
        <ele>289</ele>
        <time>2018-09-20T09:50:50Z</time>
      </trkpt>
      <trkpt lat="45.96842" lon="4.86491">
        <ele>289</ele>
        <time>2018-09-20T09:50:51Z</time>
      </trkpt>
      <trkpt lat="45.96847" lon="4.86483">
        <ele>289</ele>
        <time>2018-09-20T09:50:53Z</time>
      </trkpt>
      <trkpt lat="45.96848" lon="4.86478">
        <ele>289</ele>
        <time>2018-09-20T09:50:54Z</time>
      </trkpt>
      <trkpt lat="45.96851" lon="4.86466">
        <ele>289</ele>
        <time>2018-09-20T09:50:56Z</time>
      </trkpt>
      <trkpt lat="45.96852" lon="4.8646">
        <ele>289</ele>
        <time>2018-09-20T09:50:57Z</time>
      </trkpt>
      <trkpt lat="45.96854" lon="4.86454">
        <ele>289</ele>
        <time>2018-09-20T09:50:58Z</time>
      </trkpt>
      <trkpt lat="45.96855" lon="4.86448">
        <ele>289</ele>
        <time>2018-09-20T09:50:59Z</time>
      </trkpt>
      <trkpt lat="45.96857" lon="4.8644">
        <ele>290</ele>
        <time>2018-09-20T09:51:00Z</time>
      </trkpt>
      <trkpt lat="45.96859" lon="4.86433">
        <ele>290</ele>
        <time>2018-09-20T09:51:01Z</time>
      </trkpt>
      <trkpt lat="45.9686" lon="4.86424">
        <ele>290</ele>
        <time>2018-09-20T09:51:02Z</time>
      </trkpt>
      <trkpt lat="45.96861" lon="4.86417">
        <ele>290</ele>
        <time>2018-09-20T09:51:03Z</time>
      </trkpt>
      <trkpt lat="45.96864" lon="4.86412">
        <ele>290</ele>
        <time>2018-09-20T09:51:04Z</time>
      </trkpt>
      <trkpt lat="45.96865" lon="4.86405">
        <ele>290</ele>
        <time>2018-09-20T09:51:05Z</time>
      </trkpt>
      <trkpt lat="45.96867" lon="4.86394">
        <ele>290</ele>
        <time>2018-09-20T09:51:07Z</time>
      </trkpt>
      <trkpt lat="45.96868" lon="4.86387">
        <ele>290</ele>
        <time>2018-09-20T09:51:08Z</time>
      </trkpt>
      <trkpt lat="45.96869" lon="4.86377">
        <ele>290</ele>
        <time>2018-09-20T09:51:10Z</time>
      </trkpt>
      <trkpt lat="45.96869" lon="4.86371">
        <ele>290</ele>
        <time>2018-09-20T09:51:11Z</time>
      </trkpt>
      <trkpt lat="45.96871" lon="4.86359">
        <ele>290</ele>
        <time>2018-09-20T09:51:13Z</time>
      </trkpt>
      <trkpt lat="45.96873" lon="4.86353">
        <ele>290</ele>
        <time>2018-09-20T09:51:14Z</time>
      </trkpt>
      <trkpt lat="45.96873" lon="4.86346">
        <ele>290</ele>
        <time>2018-09-20T09:51:15Z</time>
      </trkpt>
      <trkpt lat="45.96874" lon="4.86339">
        <ele>290</ele>
        <time>2018-09-20T09:51:16Z</time>
      </trkpt>
      <trkpt lat="45.96875" lon="4.86333">
        <ele>289</ele>
        <time>2018-09-20T09:51:17Z</time>
      </trkpt>
      <trkpt lat="45.96876" lon="4.86326">
        <ele>289</ele>
        <time>2018-09-20T09:51:18Z</time>
      </trkpt>
      <trkpt lat="45.96877" lon="4.86314">
        <ele>289</ele>
        <time>2018-09-20T09:51:20Z</time>
      </trkpt>
      <trkpt lat="45.96878" lon="4.86308">
        <ele>289</ele>
        <time>2018-09-20T09:51:21Z</time>
      </trkpt>
      <trkpt lat="45.96878" lon="4.86296">
        <ele>289</ele>
        <time>2018-09-20T09:51:23Z</time>
      </trkpt>
      <trkpt lat="45.96879" lon="4.8629">
        <ele>289</ele>
        <time>2018-09-20T09:51:24Z</time>
      </trkpt>
      <trkpt lat="45.9688" lon="4.86278">
        <ele>289</ele>
        <time>2018-09-20T09:51:26Z</time>
      </trkpt>
      <trkpt lat="45.96881" lon="4.86272">
        <ele>288</ele>
        <time>2018-09-20T09:51:27Z</time>
      </trkpt>
      <trkpt lat="45.96882" lon="4.86261">
        <ele>288</ele>
        <time>2018-09-20T09:51:29Z</time>
      </trkpt>
      <trkpt lat="45.96882" lon="4.86255">
        <ele>288</ele>
        <time>2018-09-20T09:51:30Z</time>
      </trkpt>
      <trkpt lat="45.96884" lon="4.86245">
        <ele>288</ele>
        <time>2018-09-20T09:51:32Z</time>
      </trkpt>
      <trkpt lat="45.96885" lon="4.86239">
        <ele>288</ele>
        <time>2018-09-20T09:51:33Z</time>
      </trkpt>
      <trkpt lat="45.96886" lon="4.86231">
        <ele>289</ele>
        <time>2018-09-20T09:51:34Z</time>
      </trkpt>
      <trkpt lat="45.96887" lon="4.86224">
        <ele>289</ele>
        <time>2018-09-20T09:51:35Z</time>
      </trkpt>
      <trkpt lat="45.96888" lon="4.86216">
        <ele>289</ele>
        <time>2018-09-20T09:51:36Z</time>
      </trkpt>
      <trkpt lat="45.96889" lon="4.86208">
        <ele>289</ele>
        <time>2018-09-20T09:51:37Z</time>
      </trkpt>
      <trkpt lat="45.9689" lon="4.862">
        <ele>289</ele>
        <time>2018-09-20T09:51:38Z</time>
      </trkpt>
      <trkpt lat="45.96891" lon="4.86192">
        <ele>289</ele>
        <time>2018-09-20T09:51:39Z</time>
      </trkpt>
      <trkpt lat="45.96892" lon="4.86184">
        <ele>289</ele>
        <time>2018-09-20T09:51:40Z</time>
      </trkpt>
      <trkpt lat="45.96893" lon="4.86177">
        <ele>289</ele>
        <time>2018-09-20T09:51:41Z</time>
      </trkpt>
      <trkpt lat="45.96894" lon="4.8617">
        <ele>288</ele>
        <time>2018-09-20T09:51:42Z</time>
      </trkpt>
      <trkpt lat="45.96895" lon="4.86162">
        <ele>289</ele>
        <time>2018-09-20T09:51:43Z</time>
      </trkpt>
      <trkpt lat="45.96895" lon="4.86154">
        <ele>289</ele>
        <time>2018-09-20T09:51:44Z</time>
      </trkpt>
      <trkpt lat="45.96896" lon="4.86146">
        <ele>289</ele>
        <time>2018-09-20T09:51:45Z</time>
      </trkpt>
      <trkpt lat="45.96897" lon="4.86138">
        <ele>289</ele>
        <time>2018-09-20T09:51:46Z</time>
      </trkpt>
      <trkpt lat="45.96898" lon="4.86129">
        <ele>289</ele>
        <time>2018-09-20T09:51:47Z</time>
      </trkpt>
      <trkpt lat="45.96899" lon="4.8612">
        <ele>289</ele>
        <time>2018-09-20T09:51:48Z</time>
      </trkpt>
      <trkpt lat="45.96901" lon="4.8611">
        <ele>289</ele>
        <time>2018-09-20T09:51:49Z</time>
      </trkpt>
      <trkpt lat="45.96902" lon="4.86102">
        <ele>288</ele>
        <time>2018-09-20T09:51:50Z</time>
      </trkpt>
      <trkpt lat="45.96904" lon="4.86093">
        <ele>288</ele>
        <time>2018-09-20T09:51:51Z</time>
      </trkpt>
      <trkpt lat="45.96904" lon="4.86086">
        <ele>288</ele>
        <time>2018-09-20T09:51:52Z</time>
      </trkpt>
      <trkpt lat="45.96905" lon="4.86078">
        <ele>288</ele>
        <time>2018-09-20T09:51:53Z</time>
      </trkpt>
      <trkpt lat="45.96906" lon="4.86069">
        <ele>288</ele>
        <time>2018-09-20T09:51:54Z</time>
      </trkpt>
      <trkpt lat="45.96907" lon="4.86062">
        <ele>288</ele>
        <time>2018-09-20T09:51:55Z</time>
      </trkpt>
      <trkpt lat="45.9691" lon="4.86053">
        <ele>288</ele>
        <time>2018-09-20T09:51:56Z</time>
      </trkpt>
      <trkpt lat="45.96911" lon="4.86045">
        <ele>289</ele>
        <time>2018-09-20T09:51:57Z</time>
      </trkpt>
      <trkpt lat="45.96912" lon="4.86037">
        <ele>289</ele>
        <time>2018-09-20T09:51:58Z</time>
      </trkpt>
      <trkpt lat="45.96914" lon="4.86028">
        <ele>289</ele>
        <time>2018-09-20T09:51:59Z</time>
      </trkpt>
      <trkpt lat="45.96917" lon="4.8602">
        <ele>288</ele>
        <time>2018-09-20T09:52:00Z</time>
      </trkpt>
      <trkpt lat="45.96917" lon="4.86012">
        <ele>288</ele>
        <time>2018-09-20T09:52:01Z</time>
      </trkpt>
      <trkpt lat="45.96918" lon="4.86005">
        <ele>288</ele>
        <time>2018-09-20T09:52:02Z</time>
      </trkpt>
      <trkpt lat="45.96918" lon="4.85997">
        <ele>288</ele>
        <time>2018-09-20T09:52:03Z</time>
      </trkpt>
      <trkpt lat="45.96919" lon="4.85988">
        <ele>287</ele>
        <time>2018-09-20T09:52:04Z</time>
      </trkpt>
      <trkpt lat="45.9692" lon="4.8598">
        <ele>287</ele>
        <time>2018-09-20T09:52:05Z</time>
      </trkpt>
      <trkpt lat="45.96921" lon="4.85972">
        <ele>287</ele>
        <time>2018-09-20T09:52:06Z</time>
      </trkpt>
      <trkpt lat="45.96923" lon="4.85965">
        <ele>287</ele>
        <time>2018-09-20T09:52:07Z</time>
      </trkpt>
      <trkpt lat="45.96926" lon="4.85958">
        <ele>287</ele>
        <time>2018-09-20T09:52:08Z</time>
      </trkpt>
      <trkpt lat="45.96927" lon="4.85951">
        <ele>287</ele>
        <time>2018-09-20T09:52:09Z</time>
      </trkpt>
      <trkpt lat="45.96929" lon="4.85942">
        <ele>286</ele>
        <time>2018-09-20T09:52:10Z</time>
      </trkpt>
      <trkpt lat="45.9693" lon="4.85933">
        <ele>286</ele>
        <time>2018-09-20T09:52:11Z</time>
      </trkpt>
      <trkpt lat="45.96932" lon="4.85924">
        <ele>286</ele>
        <time>2018-09-20T09:52:12Z</time>
      </trkpt>
      <trkpt lat="45.96932" lon="4.85915">
        <ele>286</ele>
        <time>2018-09-20T09:52:13Z</time>
      </trkpt>
      <trkpt lat="45.96935" lon="4.85908">
        <ele>286</ele>
        <time>2018-09-20T09:52:14Z</time>
      </trkpt>
      <trkpt lat="45.96938" lon="4.85897">
        <ele>285</ele>
        <time>2018-09-20T09:52:15Z</time>
      </trkpt>
      <trkpt lat="45.96941" lon="4.85888">
        <ele>285</ele>
        <time>2018-09-20T09:52:16Z</time>
      </trkpt>
      <trkpt lat="45.96943" lon="4.8588">
        <ele>285</ele>
        <time>2018-09-20T09:52:17Z</time>
      </trkpt>
      <trkpt lat="45.96945" lon="4.85871">
        <ele>285</ele>
        <time>2018-09-20T09:52:18Z</time>
      </trkpt>
      <trkpt lat="45.96947" lon="4.85862">
        <ele>285</ele>
        <time>2018-09-20T09:52:19Z</time>
      </trkpt>
      <trkpt lat="45.96949" lon="4.85855">
        <ele>285</ele>
        <time>2018-09-20T09:52:20Z</time>
      </trkpt>
      <trkpt lat="45.9695" lon="4.85847">
        <ele>285</ele>
        <time>2018-09-20T09:52:21Z</time>
      </trkpt>
      <trkpt lat="45.96952" lon="4.85838">
        <ele>285</ele>
        <time>2018-09-20T09:52:22Z</time>
      </trkpt>
      <trkpt lat="45.96954" lon="4.8583">
        <ele>285</ele>
        <time>2018-09-20T09:52:23Z</time>
      </trkpt>
      <trkpt lat="45.96956" lon="4.85821">
        <ele>285</ele>
        <time>2018-09-20T09:52:24Z</time>
      </trkpt>
      <trkpt lat="45.96956" lon="4.85813">
        <ele>285</ele>
        <time>2018-09-20T09:52:25Z</time>
      </trkpt>
      <trkpt lat="45.96958" lon="4.85805">
        <ele>285</ele>
        <time>2018-09-20T09:52:26Z</time>
      </trkpt>
      <trkpt lat="45.96961" lon="4.85798">
        <ele>285</ele>
        <time>2018-09-20T09:52:27Z</time>
      </trkpt>
      <trkpt lat="45.96963" lon="4.85791">
        <ele>285</ele>
        <time>2018-09-20T09:52:28Z</time>
      </trkpt>
      <trkpt lat="45.96966" lon="4.85783">
        <ele>285</ele>
        <time>2018-09-20T09:52:29Z</time>
      </trkpt>
      <trkpt lat="45.96968" lon="4.85775">
        <ele>285</ele>
        <time>2018-09-20T09:52:30Z</time>
      </trkpt>
      <trkpt lat="45.9697" lon="4.85768">
        <ele>285</ele>
        <time>2018-09-20T09:52:31Z</time>
      </trkpt>
      <trkpt lat="45.96972" lon="4.8576">
        <ele>285</ele>
        <time>2018-09-20T09:52:32Z</time>
      </trkpt>
      <trkpt lat="45.96975" lon="4.85751">
        <ele>285</ele>
        <time>2018-09-20T09:52:33Z</time>
      </trkpt>
      <trkpt lat="45.96978" lon="4.85744">
        <ele>285</ele>
        <time>2018-09-20T09:52:34Z</time>
      </trkpt>
      <trkpt lat="45.96981" lon="4.85735">
        <ele>285</ele>
        <time>2018-09-20T09:52:35Z</time>
      </trkpt>
      <trkpt lat="45.96985" lon="4.85726">
        <ele>285</ele>
        <time>2018-09-20T09:52:36Z</time>
      </trkpt>
      <trkpt lat="45.96987" lon="4.85718">
        <ele>285</ele>
        <time>2018-09-20T09:52:37Z</time>
      </trkpt>
      <trkpt lat="45.96989" lon="4.8571">
        <ele>285</ele>
        <time>2018-09-20T09:52:38Z</time>
      </trkpt>
      <trkpt lat="45.96992" lon="4.85702">
        <ele>285</ele>
        <time>2018-09-20T09:52:39Z</time>
      </trkpt>
      <trkpt lat="45.96994" lon="4.85693">
        <ele>285</ele>
        <time>2018-09-20T09:52:40Z</time>
      </trkpt>
      <trkpt lat="45.96997" lon="4.85687">
        <ele>285</ele>
        <time>2018-09-20T09:52:41Z</time>
      </trkpt>
      <trkpt lat="45.96998" lon="4.8568">
        <ele>286</ele>
        <time>2018-09-20T09:52:42Z</time>
      </trkpt>
      <trkpt lat="45.97" lon="4.85674">
        <ele>285</ele>
        <time>2018-09-20T09:52:43Z</time>
      </trkpt>
      <trkpt lat="45.97002" lon="4.85667">
        <ele>286</ele>
        <time>2018-09-20T09:52:44Z</time>
      </trkpt>
      <trkpt lat="45.97004" lon="4.85661">
        <ele>285</ele>
        <time>2018-09-20T09:52:45Z</time>
      </trkpt>
      <trkpt lat="45.97005" lon="4.85653">
        <ele>285</ele>
        <time>2018-09-20T09:52:46Z</time>
      </trkpt>
      <trkpt lat="45.97007" lon="4.85646">
        <ele>284</ele>
        <time>2018-09-20T09:52:47Z</time>
      </trkpt>
      <trkpt lat="45.97008" lon="4.85639">
        <ele>284</ele>
        <time>2018-09-20T09:52:48Z</time>
      </trkpt>
      <trkpt lat="45.9701" lon="4.85633">
        <ele>284</ele>
        <time>2018-09-20T09:52:49Z</time>
      </trkpt>
      <trkpt lat="45.97012" lon="4.85625">
        <ele>284</ele>
        <time>2018-09-20T09:52:50Z</time>
      </trkpt>
      <trkpt lat="45.97015" lon="4.8562">
        <ele>284</ele>
        <time>2018-09-20T09:52:51Z</time>
      </trkpt>
      <trkpt lat="45.97017" lon="4.85613">
        <ele>284</ele>
        <time>2018-09-20T09:52:52Z</time>
      </trkpt>
      <trkpt lat="45.9702" lon="4.85604">
        <ele>284</ele>
        <time>2018-09-20T09:52:53Z</time>
      </trkpt>
      <trkpt lat="45.97022" lon="4.85596">
        <ele>284</ele>
        <time>2018-09-20T09:52:54Z</time>
      </trkpt>
      <trkpt lat="45.97025" lon="4.85586">
        <ele>284</ele>
        <time>2018-09-20T09:52:55Z</time>
      </trkpt>
      <trkpt lat="45.97027" lon="4.85577">
        <ele>283</ele>
        <time>2018-09-20T09:52:56Z</time>
      </trkpt>
      <trkpt lat="45.97029" lon="4.85568">
        <ele>283</ele>
        <time>2018-09-20T09:52:57Z</time>
      </trkpt>
      <trkpt lat="45.97032" lon="4.85558">
        <ele>283</ele>
        <time>2018-09-20T09:52:58Z</time>
      </trkpt>
      <trkpt lat="45.97034" lon="4.85549">
        <ele>283</ele>
        <time>2018-09-20T09:52:59Z</time>
      </trkpt>
      <trkpt lat="45.97036" lon="4.85539">
        <ele>282</ele>
        <time>2018-09-20T09:53:00Z</time>
      </trkpt>
      <trkpt lat="45.97039" lon="4.8553">
        <ele>282</ele>
        <time>2018-09-20T09:53:01Z</time>
      </trkpt>
      <trkpt lat="45.97042" lon="4.85522">
        <ele>282</ele>
        <time>2018-09-20T09:53:02Z</time>
      </trkpt>
      <trkpt lat="45.97044" lon="4.85513">
        <ele>282</ele>
        <time>2018-09-20T09:53:03Z</time>
      </trkpt>
      <trkpt lat="45.97047" lon="4.85505">
        <ele>282</ele>
        <time>2018-09-20T09:53:04Z</time>
      </trkpt>
      <trkpt lat="45.97049" lon="4.85497">
        <ele>281</ele>
        <time>2018-09-20T09:53:05Z</time>
      </trkpt>
      <trkpt lat="45.97052" lon="4.85488">
        <ele>281</ele>
        <time>2018-09-20T09:53:06Z</time>
      </trkpt>
      <trkpt lat="45.97055" lon="4.85479">
        <ele>281</ele>
        <time>2018-09-20T09:53:07Z</time>
      </trkpt>
      <trkpt lat="45.97058" lon="4.85469">
        <ele>281</ele>
        <time>2018-09-20T09:53:08Z</time>
      </trkpt>
      <trkpt lat="45.97061" lon="4.85459">
        <ele>281</ele>
        <time>2018-09-20T09:53:09Z</time>
      </trkpt>
      <trkpt lat="45.97064" lon="4.85449">
        <ele>281</ele>
        <time>2018-09-20T09:53:10Z</time>
      </trkpt>
      <trkpt lat="45.97068" lon="4.8544">
        <ele>281</ele>
        <time>2018-09-20T09:53:11Z</time>
      </trkpt>
      <trkpt lat="45.97071" lon="4.8543">
        <ele>281</ele>
        <time>2018-09-20T09:53:12Z</time>
      </trkpt>
      <trkpt lat="45.97074" lon="4.85421">
        <ele>280</ele>
        <time>2018-09-20T09:53:13Z</time>
      </trkpt>
      <trkpt lat="45.97077" lon="4.85413">
        <ele>280</ele>
        <time>2018-09-20T09:53:14Z</time>
      </trkpt>
      <trkpt lat="45.97079" lon="4.85405">
        <ele>281</ele>
        <time>2018-09-20T09:53:15Z</time>
      </trkpt>
      <trkpt lat="45.97081" lon="4.85396">
        <ele>281</ele>
        <time>2018-09-20T09:53:16Z</time>
      </trkpt>
      <trkpt lat="45.97082" lon="4.85388">
        <ele>281</ele>
        <time>2018-09-20T09:53:17Z</time>
      </trkpt>
      <trkpt lat="45.97085" lon="4.8538">
        <ele>280</ele>
        <time>2018-09-20T09:53:18Z</time>
      </trkpt>
      <trkpt lat="45.97089" lon="4.85372">
        <ele>280</ele>
        <time>2018-09-20T09:53:19Z</time>
      </trkpt>
      <trkpt lat="45.97091" lon="4.85365">
        <ele>280</ele>
        <time>2018-09-20T09:53:20Z</time>
      </trkpt>
      <trkpt lat="45.97094" lon="4.85357">
        <ele>280</ele>
        <time>2018-09-20T09:53:21Z</time>
      </trkpt>
      <trkpt lat="45.97096" lon="4.8535">
        <ele>280</ele>
        <time>2018-09-20T09:53:22Z</time>
      </trkpt>
      <trkpt lat="45.97098" lon="4.85342">
        <ele>280</ele>
        <time>2018-09-20T09:53:23Z</time>
      </trkpt>
      <trkpt lat="45.97101" lon="4.85334">
        <ele>280</ele>
        <time>2018-09-20T09:53:24Z</time>
      </trkpt>
      <trkpt lat="45.97104" lon="4.85326">
        <ele>280</ele>
        <time>2018-09-20T09:53:25Z</time>
      </trkpt>
      <trkpt lat="45.97107" lon="4.85318">
        <ele>280</ele>
        <time>2018-09-20T09:53:26Z</time>
      </trkpt>
      <trkpt lat="45.9711" lon="4.8531">
        <ele>280</ele>
        <time>2018-09-20T09:53:27Z</time>
      </trkpt>
      <trkpt lat="45.97113" lon="4.85301">
        <ele>280</ele>
        <time>2018-09-20T09:53:28Z</time>
      </trkpt>
      <trkpt lat="45.97117" lon="4.85294">
        <ele>280</ele>
        <time>2018-09-20T09:53:29Z</time>
      </trkpt>
      <trkpt lat="45.9712" lon="4.85287">
        <ele>280</ele>
        <time>2018-09-20T09:53:30Z</time>
      </trkpt>
      <trkpt lat="45.97124" lon="4.85278">
        <ele>280</ele>
        <time>2018-09-20T09:53:31Z</time>
      </trkpt>
      <trkpt lat="45.97127" lon="4.85272">
        <ele>279</ele>
        <time>2018-09-20T09:53:32Z</time>
      </trkpt>
      <trkpt lat="45.97131" lon="4.85265">
        <ele>279</ele>
        <time>2018-09-20T09:53:33Z</time>
      </trkpt>
      <trkpt lat="45.97134" lon="4.85258">
        <ele>279</ele>
        <time>2018-09-20T09:53:34Z</time>
      </trkpt>
      <trkpt lat="45.97138" lon="4.8525">
        <ele>279</ele>
        <time>2018-09-20T09:53:35Z</time>
      </trkpt>
      <trkpt lat="45.97142" lon="4.85243">
        <ele>279</ele>
        <time>2018-09-20T09:53:36Z</time>
      </trkpt>
      <trkpt lat="45.97147" lon="4.85237">
        <ele>279</ele>
        <time>2018-09-20T09:53:37Z</time>
      </trkpt>
      <trkpt lat="45.97151" lon="4.8523">
        <ele>279</ele>
        <time>2018-09-20T09:53:38Z</time>
      </trkpt>
      <trkpt lat="45.97154" lon="4.85221">
        <ele>279</ele>
        <time>2018-09-20T09:53:39Z</time>
      </trkpt>
      <trkpt lat="45.97158" lon="4.85215">
        <ele>279</ele>
        <time>2018-09-20T09:53:40Z</time>
      </trkpt>
      <trkpt lat="45.97163" lon="4.85205">
        <ele>279</ele>
        <time>2018-09-20T09:53:41Z</time>
      </trkpt>
      <trkpt lat="45.97166" lon="4.85198">
        <ele>279</ele>
        <time>2018-09-20T09:53:42Z</time>
      </trkpt>
      <trkpt lat="45.9717" lon="4.85191">
        <ele>278</ele>
        <time>2018-09-20T09:53:43Z</time>
      </trkpt>
      <trkpt lat="45.97173" lon="4.85184">
        <ele>278</ele>
        <time>2018-09-20T09:53:44Z</time>
      </trkpt>
      <trkpt lat="45.97177" lon="4.85176">
        <ele>278</ele>
        <time>2018-09-20T09:53:45Z</time>
      </trkpt>
      <trkpt lat="45.97181" lon="4.85169">
        <ele>278</ele>
        <time>2018-09-20T09:53:46Z</time>
      </trkpt>
      <trkpt lat="45.97183" lon="4.85162">
        <ele>278</ele>
        <time>2018-09-20T09:53:47Z</time>
      </trkpt>
      <trkpt lat="45.97187" lon="4.85156">
        <ele>278</ele>
        <time>2018-09-20T09:53:48Z</time>
      </trkpt>
      <trkpt lat="45.9719" lon="4.85149">
        <ele>278</ele>
        <time>2018-09-20T09:53:49Z</time>
      </trkpt>
      <trkpt lat="45.97194" lon="4.85142">
        <ele>278</ele>
        <time>2018-09-20T09:53:50Z</time>
      </trkpt>
      <trkpt lat="45.97197" lon="4.85136">
        <ele>278</ele>
        <time>2018-09-20T09:53:51Z</time>
      </trkpt>
      <trkpt lat="45.97201" lon="4.85128">
        <ele>278</ele>
        <time>2018-09-20T09:53:52Z</time>
      </trkpt>
      <trkpt lat="45.97203" lon="4.85121">
        <ele>278</ele>
        <time>2018-09-20T09:53:53Z</time>
      </trkpt>
      <trkpt lat="45.97206" lon="4.85114">
        <ele>278</ele>
        <time>2018-09-20T09:53:54Z</time>
      </trkpt>
      <trkpt lat="45.97208" lon="4.85105">
        <ele>278</ele>
        <time>2018-09-20T09:53:55Z</time>
      </trkpt>
      <trkpt lat="45.97213" lon="4.85099">
        <ele>278</ele>
        <time>2018-09-20T09:53:56Z</time>
      </trkpt>
      <trkpt lat="45.97216" lon="4.85092">
        <ele>278</ele>
        <time>2018-09-20T09:53:57Z</time>
      </trkpt>
      <trkpt lat="45.97218" lon="4.85082">
        <ele>278</ele>
        <time>2018-09-20T09:53:58Z</time>
      </trkpt>
      <trkpt lat="45.97222" lon="4.85074">
        <ele>278</ele>
        <time>2018-09-20T09:53:59Z</time>
      </trkpt>
      <trkpt lat="45.97227" lon="4.85066">
        <ele>278</ele>
        <time>2018-09-20T09:54:00Z</time>
      </trkpt>
      <trkpt lat="45.97232" lon="4.85059">
        <ele>279</ele>
        <time>2018-09-20T09:54:01Z</time>
      </trkpt>
      <trkpt lat="45.97235" lon="4.8505">
        <ele>279</ele>
        <time>2018-09-20T09:54:02Z</time>
      </trkpt>
      <trkpt lat="45.97237" lon="4.85043">
        <ele>279</ele>
        <time>2018-09-20T09:54:03Z</time>
      </trkpt>
      <trkpt lat="45.97239" lon="4.85037">
        <ele>279</ele>
        <time>2018-09-20T09:54:04Z</time>
      </trkpt>
      <trkpt lat="45.97242" lon="4.8503">
        <ele>279</ele>
        <time>2018-09-20T09:54:05Z</time>
      </trkpt>
      <trkpt lat="45.97248" lon="4.8502">
        <ele>279</ele>
        <time>2018-09-20T09:54:07Z</time>
      </trkpt>
      <trkpt lat="45.9725" lon="4.85013">
        <ele>279</ele>
        <time>2018-09-20T09:54:08Z</time>
      </trkpt>
      <trkpt lat="45.97254" lon="4.85005">
        <ele>279</ele>
        <time>2018-09-20T09:54:09Z</time>
      </trkpt>
      <trkpt lat="45.97257" lon="4.84999">
        <ele>279</ele>
        <time>2018-09-20T09:54:10Z</time>
      </trkpt>
      <trkpt lat="45.97261" lon="4.84994">
        <ele>279</ele>
        <time>2018-09-20T09:54:11Z</time>
      </trkpt>
      <trkpt lat="45.97264" lon="4.84988">
        <ele>279</ele>
        <time>2018-09-20T09:54:12Z</time>
      </trkpt>
      <trkpt lat="45.97267" lon="4.84981">
        <ele>279</ele>
        <time>2018-09-20T09:54:13Z</time>
      </trkpt>
      <trkpt lat="45.97269" lon="4.84973">
        <ele>279</ele>
        <time>2018-09-20T09:54:14Z</time>
      </trkpt>
      <trkpt lat="45.97272" lon="4.84967">
        <ele>278</ele>
        <time>2018-09-20T09:54:15Z</time>
      </trkpt>
      <trkpt lat="45.97275" lon="4.84962">
        <ele>278</ele>
        <time>2018-09-20T09:54:16Z</time>
      </trkpt>
      <trkpt lat="45.97278" lon="4.84955">
        <ele>278</ele>
        <time>2018-09-20T09:54:17Z</time>
      </trkpt>
      <trkpt lat="45.97281" lon="4.84949">
        <ele>278</ele>
        <time>2018-09-20T09:54:18Z</time>
      </trkpt>
      <trkpt lat="45.97284" lon="4.84943">
        <ele>278</ele>
        <time>2018-09-20T09:54:19Z</time>
      </trkpt>
      <trkpt lat="45.97288" lon="4.84938">
        <ele>278</ele>
        <time>2018-09-20T09:54:20Z</time>
      </trkpt>
      <trkpt lat="45.97292" lon="4.84931">
        <ele>278</ele>
        <time>2018-09-20T09:54:21Z</time>
      </trkpt>
      <trkpt lat="45.97296" lon="4.84924">
        <ele>278</ele>
        <time>2018-09-20T09:54:22Z</time>
      </trkpt>
      <trkpt lat="45.973" lon="4.84918">
        <ele>278</ele>
        <time>2018-09-20T09:54:23Z</time>
      </trkpt>
      <trkpt lat="45.97304" lon="4.84912">
        <ele>278</ele>
        <time>2018-09-20T09:54:24Z</time>
      </trkpt>
      <trkpt lat="45.97307" lon="4.84903">
        <ele>278</ele>
        <time>2018-09-20T09:54:25Z</time>
      </trkpt>
      <trkpt lat="45.9731" lon="4.84898">
        <ele>278</ele>
        <time>2018-09-20T09:54:26Z</time>
      </trkpt>
      <trkpt lat="45.97314" lon="4.84893">
        <ele>278</ele>
        <time>2018-09-20T09:54:27Z</time>
      </trkpt>
      <trkpt lat="45.97317" lon="4.84888">
        <ele>278</ele>
        <time>2018-09-20T09:54:28Z</time>
      </trkpt>
      <trkpt lat="45.97321" lon="4.84882">
        <ele>278</ele>
        <time>2018-09-20T09:54:29Z</time>
      </trkpt>
      <trkpt lat="45.97324" lon="4.84877">
        <ele>278</ele>
        <time>2018-09-20T09:54:30Z</time>
      </trkpt>
      <trkpt lat="45.97328" lon="4.84871">
        <ele>278</ele>
        <time>2018-09-20T09:54:31Z</time>
      </trkpt>
      <trkpt lat="45.97331" lon="4.84865">
        <ele>278</ele>
        <time>2018-09-20T09:54:32Z</time>
      </trkpt>
      <trkpt lat="45.97334" lon="4.84861">
        <ele>277</ele>
        <time>2018-09-20T09:54:33Z</time>
      </trkpt>
      <trkpt lat="45.97338" lon="4.84855">
        <ele>277</ele>
        <time>2018-09-20T09:54:34Z</time>
      </trkpt>
      <trkpt lat="45.97341" lon="4.84848">
        <ele>277</ele>
        <time>2018-09-20T09:54:35Z</time>
      </trkpt>
      <trkpt lat="45.97343" lon="4.84842">
        <ele>277</ele>
        <time>2018-09-20T09:54:36Z</time>
      </trkpt>
      <trkpt lat="45.97347" lon="4.84836">
        <ele>277</ele>
        <time>2018-09-20T09:54:37Z</time>
      </trkpt>
      <trkpt lat="45.97351" lon="4.84829">
        <ele>278</ele>
        <time>2018-09-20T09:54:38Z</time>
      </trkpt>
      <trkpt lat="45.97354" lon="4.84821">
        <ele>278</ele>
        <time>2018-09-20T09:54:39Z</time>
      </trkpt>
      <trkpt lat="45.97357" lon="4.84814">
        <ele>278</ele>
        <time>2018-09-20T09:54:40Z</time>
      </trkpt>
      <trkpt lat="45.9736" lon="4.84804">
        <ele>278</ele>
        <time>2018-09-20T09:54:41Z</time>
      </trkpt>
      <trkpt lat="45.97363" lon="4.84798">
        <ele>278</ele>
        <time>2018-09-20T09:54:42Z</time>
      </trkpt>
      <trkpt lat="45.97366" lon="4.84788">
        <ele>278</ele>
        <time>2018-09-20T09:54:43Z</time>
      </trkpt>
      <trkpt lat="45.97369" lon="4.84781">
        <ele>278</ele>
        <time>2018-09-20T09:54:44Z</time>
      </trkpt>
      <trkpt lat="45.97371" lon="4.84773">
        <ele>278</ele>
        <time>2018-09-20T09:54:45Z</time>
      </trkpt>
      <trkpt lat="45.97373" lon="4.84766">
        <ele>278</ele>
        <time>2018-09-20T09:54:46Z</time>
      </trkpt>
      <trkpt lat="45.97376" lon="4.84759">
        <ele>278</ele>
        <time>2018-09-20T09:54:47Z</time>
      </trkpt>
      <trkpt lat="45.97377" lon="4.84752">
        <ele>278</ele>
        <time>2018-09-20T09:54:48Z</time>
      </trkpt>
      <trkpt lat="45.9738" lon="4.84746">
        <ele>278</ele>
        <time>2018-09-20T09:54:49Z</time>
      </trkpt>
      <trkpt lat="45.97384" lon="4.84739">
        <ele>278</ele>
        <time>2018-09-20T09:54:50Z</time>
      </trkpt>
      <trkpt lat="45.97387" lon="4.84734">
        <ele>278</ele>
        <time>2018-09-20T09:54:51Z</time>
      </trkpt>
      <trkpt lat="45.97392" lon="4.84729">
        <ele>278</ele>
        <time>2018-09-20T09:54:52Z</time>
      </trkpt>
      <trkpt lat="45.97396" lon="4.84725">
        <ele>278</ele>
        <time>2018-09-20T09:54:53Z</time>
      </trkpt>
      <trkpt lat="45.974" lon="4.84721">
        <ele>278</ele>
        <time>2018-09-20T09:54:54Z</time>
      </trkpt>
      <trkpt lat="45.97404" lon="4.84716">
        <ele>278</ele>
        <time>2018-09-20T09:54:55Z</time>
      </trkpt>
      <trkpt lat="45.97409" lon="4.84714">
        <ele>278</ele>
        <time>2018-09-20T09:54:56Z</time>
      </trkpt>
      <trkpt lat="45.97414" lon="4.84711">
        <ele>278</ele>
        <time>2018-09-20T09:54:57Z</time>
      </trkpt>
      <trkpt lat="45.97418" lon="4.84706">
        <ele>276</ele>
        <time>2018-09-20T09:54:58Z</time>
      </trkpt>
      <trkpt lat="45.97424" lon="4.84702">
        <ele>276</ele>
        <time>2018-09-20T09:54:59Z</time>
      </trkpt>
      <trkpt lat="45.97429" lon="4.84698">
        <ele>276</ele>
        <time>2018-09-20T09:55:00Z</time>
      </trkpt>
      <trkpt lat="45.97435" lon="4.84694">
        <ele>276</ele>
        <time>2018-09-20T09:55:01Z</time>
      </trkpt>
      <trkpt lat="45.97441" lon="4.8469">
        <ele>276</ele>
        <time>2018-09-20T09:55:02Z</time>
      </trkpt>
      <trkpt lat="45.97446" lon="4.84687">
        <ele>276</ele>
        <time>2018-09-20T09:55:03Z</time>
      </trkpt>
      <trkpt lat="45.97451" lon="4.84684">
        <ele>276</ele>
        <time>2018-09-20T09:55:04Z</time>
      </trkpt>
      <trkpt lat="45.97455" lon="4.84682">
        <ele>276</ele>
        <time>2018-09-20T09:55:05Z</time>
      </trkpt>
      <trkpt lat="45.9746" lon="4.84678">
        <ele>276</ele>
        <time>2018-09-20T09:55:06Z</time>
      </trkpt>
      <trkpt lat="45.97465" lon="4.84676">
        <ele>276</ele>
        <time>2018-09-20T09:55:07Z</time>
      </trkpt>
      <trkpt lat="45.9747" lon="4.84674">
        <ele>276</ele>
        <time>2018-09-20T09:55:08Z</time>
      </trkpt>
      <trkpt lat="45.97477" lon="4.84668">
        <ele>276</ele>
        <time>2018-09-20T09:55:10Z</time>
      </trkpt>
      <trkpt lat="45.97481" lon="4.84665">
        <ele>276</ele>
        <time>2018-09-20T09:55:11Z</time>
      </trkpt>
      <trkpt lat="45.97486" lon="4.84661">
        <ele>275</ele>
        <time>2018-09-20T09:55:12Z</time>
      </trkpt>
      <trkpt lat="45.9749" lon="4.84659">
        <ele>275</ele>
        <time>2018-09-20T09:55:13Z</time>
      </trkpt>
      <trkpt lat="45.97494" lon="4.84655">
        <ele>275</ele>
        <time>2018-09-20T09:55:14Z</time>
      </trkpt>
      <trkpt lat="45.97499" lon="4.84652">
        <ele>275</ele>
        <time>2018-09-20T09:55:15Z</time>
      </trkpt>
      <trkpt lat="45.97504" lon="4.8465">
        <ele>275</ele>
        <time>2018-09-20T09:55:16Z</time>
      </trkpt>
      <trkpt lat="45.97508" lon="4.84647">
        <ele>275</ele>
        <time>2018-09-20T09:55:17Z</time>
      </trkpt>
      <trkpt lat="45.97514" lon="4.84642">
        <ele>275</ele>
        <time>2018-09-20T09:55:18Z</time>
      </trkpt>
      <trkpt lat="45.97519" lon="4.84639">
        <ele>275</ele>
        <time>2018-09-20T09:55:19Z</time>
      </trkpt>
      <trkpt lat="45.97524" lon="4.84634">
        <ele>275</ele>
        <time>2018-09-20T09:55:20Z</time>
      </trkpt>
      <trkpt lat="45.9753" lon="4.84631">
        <ele>275</ele>
        <time>2018-09-20T09:55:21Z</time>
      </trkpt>
      <trkpt lat="45.97535" lon="4.84626">
        <ele>275</ele>
        <time>2018-09-20T09:55:22Z</time>
      </trkpt>
      <trkpt lat="45.97541" lon="4.84621">
        <ele>275</ele>
        <time>2018-09-20T09:55:23Z</time>
      </trkpt>
      <trkpt lat="45.97545" lon="4.84616">
        <ele>274</ele>
        <time>2018-09-20T09:55:24Z</time>
      </trkpt>
      <trkpt lat="45.9755" lon="4.84612">
        <ele>274</ele>
        <time>2018-09-20T09:55:25Z</time>
      </trkpt>
      <trkpt lat="45.97554" lon="4.84607">
        <ele>274</ele>
        <time>2018-09-20T09:55:26Z</time>
      </trkpt>
      <trkpt lat="45.97558" lon="4.84603">
        <ele>274</ele>
        <time>2018-09-20T09:55:27Z</time>
      </trkpt>
      <trkpt lat="45.97563" lon="4.84598">
        <ele>274</ele>
        <time>2018-09-20T09:55:28Z</time>
      </trkpt>
      <trkpt lat="45.97568" lon="4.84594">
        <ele>274</ele>
        <time>2018-09-20T09:55:29Z</time>
      </trkpt>
      <trkpt lat="45.97572" lon="4.84588">
        <ele>274</ele>
        <time>2018-09-20T09:55:30Z</time>
      </trkpt>
      <trkpt lat="45.97576" lon="4.84584">
        <ele>274</ele>
        <time>2018-09-20T09:55:31Z</time>
      </trkpt>
      <trkpt lat="45.97581" lon="4.84579">
        <ele>274</ele>
        <time>2018-09-20T09:55:32Z</time>
      </trkpt>
      <trkpt lat="45.97584" lon="4.84575">
        <ele>274</ele>
        <time>2018-09-20T09:55:33Z</time>
      </trkpt>
      <trkpt lat="45.97588" lon="4.84569">
        <ele>274</ele>
        <time>2018-09-20T09:55:34Z</time>
      </trkpt>
      <trkpt lat="45.97591" lon="4.84563">
        <ele>274</ele>
        <time>2018-09-20T09:55:35Z</time>
      </trkpt>
      <trkpt lat="45.97594" lon="4.84559">
        <ele>275</ele>
        <time>2018-09-20T09:55:36Z</time>
      </trkpt>
      <trkpt lat="45.97598" lon="4.84554">
        <ele>275</ele>
        <time>2018-09-20T09:55:37Z</time>
      </trkpt>
      <trkpt lat="45.97603" lon="4.84549">
        <ele>275</ele>
        <time>2018-09-20T09:55:38Z</time>
      </trkpt>
      <trkpt lat="45.97609" lon="4.84542">
        <ele>275</ele>
        <time>2018-09-20T09:55:39Z</time>
      </trkpt>
      <trkpt lat="45.97613" lon="4.84538">
        <ele>275</ele>
        <time>2018-09-20T09:55:40Z</time>
      </trkpt>
      <trkpt lat="45.97617" lon="4.84532">
        <ele>275</ele>
        <time>2018-09-20T09:55:41Z</time>
      </trkpt>
      <trkpt lat="45.97621" lon="4.84527">
        <ele>275</ele>
        <time>2018-09-20T09:55:42Z</time>
      </trkpt>
      <trkpt lat="45.97625" lon="4.84521">
        <ele>275</ele>
        <time>2018-09-20T09:55:43Z</time>
      </trkpt>
      <trkpt lat="45.97629" lon="4.84516">
        <ele>275</ele>
        <time>2018-09-20T09:55:44Z</time>
      </trkpt>
      <trkpt lat="45.97633" lon="4.84512">
        <ele>275</ele>
        <time>2018-09-20T09:55:45Z</time>
      </trkpt>
      <trkpt lat="45.97636" lon="4.84505">
        <ele>275</ele>
        <time>2018-09-20T09:55:46Z</time>
      </trkpt>
      <trkpt lat="45.9764" lon="4.84501">
        <ele>275</ele>
        <time>2018-09-20T09:55:47Z</time>
      </trkpt>
      <trkpt lat="45.97647" lon="4.84494">
        <ele>275</ele>
        <time>2018-09-20T09:55:49Z</time>
      </trkpt>
      <trkpt lat="45.97651" lon="4.84489">
        <ele>275</ele>
        <time>2018-09-20T09:55:50Z</time>
      </trkpt>
      <trkpt lat="45.97656" lon="4.84485">
        <ele>275</ele>
        <time>2018-09-20T09:55:51Z</time>
      </trkpt>
      <trkpt lat="45.9766" lon="4.84481">
        <ele>276</ele>
        <time>2018-09-20T09:55:52Z</time>
      </trkpt>
      <trkpt lat="45.97665" lon="4.84477">
        <ele>276</ele>
        <time>2018-09-20T09:55:53Z</time>
      </trkpt>
      <trkpt lat="45.97669" lon="4.84475">
        <ele>276</ele>
        <time>2018-09-20T09:55:54Z</time>
      </trkpt>
      <trkpt lat="45.97673" lon="4.84473">
        <ele>276</ele>
        <time>2018-09-20T09:55:55Z</time>
      </trkpt>
      <trkpt lat="45.97678" lon="4.84469">
        <ele>277</ele>
        <time>2018-09-20T09:55:56Z</time>
      </trkpt>
      <trkpt lat="45.97682" lon="4.84467">
        <ele>277</ele>
        <time>2018-09-20T09:55:57Z</time>
      </trkpt>
      <trkpt lat="45.97687" lon="4.84465">
        <ele>277</ele>
        <time>2018-09-20T09:55:58Z</time>
      </trkpt>
      <trkpt lat="45.97692" lon="4.84462">
        <ele>277</ele>
        <time>2018-09-20T09:55:59Z</time>
      </trkpt>
      <trkpt lat="45.97696" lon="4.84459">
        <ele>277</ele>
        <time>2018-09-20T09:56:00Z</time>
      </trkpt>
      <trkpt lat="45.97701" lon="4.84455">
        <ele>277</ele>
        <time>2018-09-20T09:56:01Z</time>
      </trkpt>
      <trkpt lat="45.97705" lon="4.84452">
        <ele>277</ele>
        <time>2018-09-20T09:56:02Z</time>
      </trkpt>
      <trkpt lat="45.9771" lon="4.84451">
        <ele>277</ele>
        <time>2018-09-20T09:56:03Z</time>
      </trkpt>
      <trkpt lat="45.97715" lon="4.84449">
        <ele>277</ele>
        <time>2018-09-20T09:56:04Z</time>
      </trkpt>
      <trkpt lat="45.9772" lon="4.84447">
        <ele>277</ele>
        <time>2018-09-20T09:56:05Z</time>
      </trkpt>
      <trkpt lat="45.97725" lon="4.84445">
        <ele>277</ele>
        <time>2018-09-20T09:56:06Z</time>
      </trkpt>
      <trkpt lat="45.9773" lon="4.84443">
        <ele>277</ele>
        <time>2018-09-20T09:56:07Z</time>
      </trkpt>
      <trkpt lat="45.97735" lon="4.84441">
        <ele>277</ele>
        <time>2018-09-20T09:56:08Z</time>
      </trkpt>
      <trkpt lat="45.9774" lon="4.84439">
        <ele>277</ele>
        <time>2018-09-20T09:56:09Z</time>
      </trkpt>
      <trkpt lat="45.97745" lon="4.84438">
        <ele>277</ele>
        <time>2018-09-20T09:56:10Z</time>
      </trkpt>
      <trkpt lat="45.9775" lon="4.84436">
        <ele>277</ele>
        <time>2018-09-20T09:56:11Z</time>
      </trkpt>
      <trkpt lat="45.97755" lon="4.84435">
        <ele>277</ele>
        <time>2018-09-20T09:56:12Z</time>
      </trkpt>
      <trkpt lat="45.97762" lon="4.84432">
        <ele>277</ele>
        <time>2018-09-20T09:56:14Z</time>
      </trkpt>
      <trkpt lat="45.97766" lon="4.84432">
        <ele>277</ele>
        <time>2018-09-20T09:56:15Z</time>
      </trkpt>
      <trkpt lat="45.97774" lon="4.84432">
        <ele>277</ele>
        <time>2018-09-20T09:56:17Z</time>
      </trkpt>
      <trkpt lat="45.97779" lon="4.84429">
        <ele>277</ele>
        <time>2018-09-20T09:56:18Z</time>
      </trkpt>
      <trkpt lat="45.97783" lon="4.84428">
        <ele>277</ele>
        <time>2018-09-20T09:56:19Z</time>
      </trkpt>
      <trkpt lat="45.97788" lon="4.84426">
        <ele>277</ele>
        <time>2018-09-20T09:56:20Z</time>
      </trkpt>
      <trkpt lat="45.97793" lon="4.8442">
        <ele>277</ele>
        <time>2018-09-20T09:56:21Z</time>
      </trkpt>
      <trkpt lat="45.97798" lon="4.84418">
        <ele>277</ele>
        <time>2018-09-20T09:56:22Z</time>
      </trkpt>
      <trkpt lat="45.97803" lon="4.84416">
        <ele>277</ele>
        <time>2018-09-20T09:56:23Z</time>
      </trkpt>
      <trkpt lat="45.97807" lon="4.84413">
        <ele>277</ele>
        <time>2018-09-20T09:56:24Z</time>
      </trkpt>
      <trkpt lat="45.97812" lon="4.8441">
        <ele>277</ele>
        <time>2018-09-20T09:56:25Z</time>
      </trkpt>
      <trkpt lat="45.97817" lon="4.84406">
        <ele>276</ele>
        <time>2018-09-20T09:56:26Z</time>
      </trkpt>
      <trkpt lat="45.97821" lon="4.84402">
        <ele>276</ele>
        <time>2018-09-20T09:56:27Z</time>
      </trkpt>
      <trkpt lat="45.97825" lon="4.84398">
        <ele>276</ele>
        <time>2018-09-20T09:56:28Z</time>
      </trkpt>
      <trkpt lat="45.9783" lon="4.84395">
        <ele>276</ele>
        <time>2018-09-20T09:56:29Z</time>
      </trkpt>
      <trkpt lat="45.97834" lon="4.84391">
        <ele>276</ele>
        <time>2018-09-20T09:56:30Z</time>
      </trkpt>
      <trkpt lat="45.97841" lon="4.84384">
        <ele>276</ele>
        <time>2018-09-20T09:56:32Z</time>
      </trkpt>
      <trkpt lat="45.97844" lon="4.8438">
        <ele>276</ele>
        <time>2018-09-20T09:56:33Z</time>
      </trkpt>
      <trkpt lat="45.97848" lon="4.84376">
        <ele>276</ele>
        <time>2018-09-20T09:56:34Z</time>
      </trkpt>
      <trkpt lat="45.97851" lon="4.84372">
        <ele>276</ele>
        <time>2018-09-20T09:56:35Z</time>
      </trkpt>
      <trkpt lat="45.97856" lon="4.84366">
        <ele>276</ele>
        <time>2018-09-20T09:56:36Z</time>
      </trkpt>
      <trkpt lat="45.9786" lon="4.84364">
        <ele>276</ele>
        <time>2018-09-20T09:56:37Z</time>
      </trkpt>
      <trkpt lat="45.97863" lon="4.84359">
        <ele>276</ele>
        <time>2018-09-20T09:56:38Z</time>
      </trkpt>
      <trkpt lat="45.97866" lon="4.84354">
        <ele>276</ele>
        <time>2018-09-20T09:56:39Z</time>
      </trkpt>
      <trkpt lat="45.9787" lon="4.84348">
        <ele>276</ele>
        <time>2018-09-20T09:56:40Z</time>
      </trkpt>
      <trkpt lat="45.97873" lon="4.84343">
        <ele>276</ele>
        <time>2018-09-20T09:56:41Z</time>
      </trkpt>
      <trkpt lat="45.97876" lon="4.84337">
        <ele>275</ele>
        <time>2018-09-20T09:56:42Z</time>
      </trkpt>
      <trkpt lat="45.97881" lon="4.84331">
        <ele>275</ele>
        <time>2018-09-20T09:56:43Z</time>
      </trkpt>
      <trkpt lat="45.97885" lon="4.84325">
        <ele>275</ele>
        <time>2018-09-20T09:56:44Z</time>
      </trkpt>
      <trkpt lat="45.97889" lon="4.84319">
        <ele>275</ele>
        <time>2018-09-20T09:56:45Z</time>
      </trkpt>
      <trkpt lat="45.97893" lon="4.84313">
        <ele>275</ele>
        <time>2018-09-20T09:56:46Z</time>
      </trkpt>
      <trkpt lat="45.97896" lon="4.84308">
        <ele>275</ele>
        <time>2018-09-20T09:56:47Z</time>
      </trkpt>
      <trkpt lat="45.97899" lon="4.84304">
        <ele>275</ele>
        <time>2018-09-20T09:56:48Z</time>
      </trkpt>
      <trkpt lat="45.97903" lon="4.84299">
        <ele>275</ele>
        <time>2018-09-20T09:56:49Z</time>
      </trkpt>
      <trkpt lat="45.97907" lon="4.84294">
        <ele>275</ele>
        <time>2018-09-20T09:56:50Z</time>
      </trkpt>
      <trkpt lat="45.9791" lon="4.84288">
        <ele>275</ele>
        <time>2018-09-20T09:56:51Z</time>
      </trkpt>
      <trkpt lat="45.97913" lon="4.84282">
        <ele>275</ele>
        <time>2018-09-20T09:56:52Z</time>
      </trkpt>
      <trkpt lat="45.97917" lon="4.84276">
        <ele>275</ele>
        <time>2018-09-20T09:56:53Z</time>
      </trkpt>
      <trkpt lat="45.97921" lon="4.84271">
        <ele>275</ele>
        <time>2018-09-20T09:56:54Z</time>
      </trkpt>
      <trkpt lat="45.97926" lon="4.84266">
        <ele>275</ele>
        <time>2018-09-20T09:56:55Z</time>
      </trkpt>
      <trkpt lat="45.97929" lon="4.84263">
        <ele>275</ele>
        <time>2018-09-20T09:56:56Z</time>
      </trkpt>
      <trkpt lat="45.97934" lon="4.84259">
        <ele>275</ele>
        <time>2018-09-20T09:56:57Z</time>
      </trkpt>
      <trkpt lat="45.97939" lon="4.84254">
        <ele>275</ele>
        <time>2018-09-20T09:56:58Z</time>
      </trkpt>
      <trkpt lat="45.97944" lon="4.8425">
        <ele>275</ele>
        <time>2018-09-20T09:56:59Z</time>
      </trkpt>
      <trkpt lat="45.97948" lon="4.84245">
        <ele>275</ele>
        <time>2018-09-20T09:57:00Z</time>
      </trkpt>
      <trkpt lat="45.97953" lon="4.84241">
        <ele>275</ele>
        <time>2018-09-20T09:57:01Z</time>
      </trkpt>
      <trkpt lat="45.97957" lon="4.84237">
        <ele>275</ele>
        <time>2018-09-20T09:57:02Z</time>
      </trkpt>
      <trkpt lat="45.97962" lon="4.84233">
        <ele>274</ele>
        <time>2018-09-20T09:57:03Z</time>
      </trkpt>
      <trkpt lat="45.97966" lon="4.84229">
        <ele>274</ele>
        <time>2018-09-20T09:57:04Z</time>
      </trkpt>
      <trkpt lat="45.97971" lon="4.84225">
        <ele>274</ele>
        <time>2018-09-20T09:57:05Z</time>
      </trkpt>
      <trkpt lat="45.97976" lon="4.84221">
        <ele>274</ele>
        <time>2018-09-20T09:57:06Z</time>
      </trkpt>
      <trkpt lat="45.97981" lon="4.84218">
        <ele>274</ele>
        <time>2018-09-20T09:57:07Z</time>
      </trkpt>
      <trkpt lat="45.97986" lon="4.84214">
        <ele>274</ele>
        <time>2018-09-20T09:57:08Z</time>
      </trkpt>
      <trkpt lat="45.97991" lon="4.8421">
        <ele>274</ele>
        <time>2018-09-20T09:57:09Z</time>
      </trkpt>
      <trkpt lat="45.97995" lon="4.84206">
        <ele>274</ele>
        <time>2018-09-20T09:57:10Z</time>
      </trkpt>
      <trkpt lat="45.97999" lon="4.84203">
        <ele>274</ele>
        <time>2018-09-20T09:57:11Z</time>
      </trkpt>
      <trkpt lat="45.98003" lon="4.84199">
        <ele>274</ele>
        <time>2018-09-20T09:57:12Z</time>
      </trkpt>
      <trkpt lat="45.98007" lon="4.84195">
        <ele>274</ele>
        <time>2018-09-20T09:57:13Z</time>
      </trkpt>
      <trkpt lat="45.98011" lon="4.8419">
        <ele>274</ele>
        <time>2018-09-20T09:57:14Z</time>
      </trkpt>
      <trkpt lat="45.98015" lon="4.84185">
        <ele>274</ele>
        <time>2018-09-20T09:57:15Z</time>
      </trkpt>
      <trkpt lat="45.98019" lon="4.84181">
        <ele>274</ele>
        <time>2018-09-20T09:57:16Z</time>
      </trkpt>
      <trkpt lat="45.98024" lon="4.84177">
        <ele>274</ele>
        <time>2018-09-20T09:57:17Z</time>
      </trkpt>
      <trkpt lat="45.98028" lon="4.84172">
        <ele>274</ele>
        <time>2018-09-20T09:57:18Z</time>
      </trkpt>
      <trkpt lat="45.98032" lon="4.84168">
        <ele>273</ele>
        <time>2018-09-20T09:57:19Z</time>
      </trkpt>
      <trkpt lat="45.98037" lon="4.84164">
        <ele>273</ele>
        <time>2018-09-20T09:57:20Z</time>
      </trkpt>
      <trkpt lat="45.98041" lon="4.8416">
        <ele>273</ele>
        <time>2018-09-20T09:57:21Z</time>
      </trkpt>
      <trkpt lat="45.98047" lon="4.84154">
        <ele>273</ele>
        <time>2018-09-20T09:57:22Z</time>
      </trkpt>
      <trkpt lat="45.98052" lon="4.84149">
        <ele>273</ele>
        <time>2018-09-20T09:57:23Z</time>
      </trkpt>
      <trkpt lat="45.98057" lon="4.84145">
        <ele>273</ele>
        <time>2018-09-20T09:57:24Z</time>
      </trkpt>
      <trkpt lat="45.98061" lon="4.84141">
        <ele>273</ele>
        <time>2018-09-20T09:57:25Z</time>
      </trkpt>
      <trkpt lat="45.98065" lon="4.84137">
        <ele>273</ele>
        <time>2018-09-20T09:57:26Z</time>
      </trkpt>
      <trkpt lat="45.9807" lon="4.84133">
        <ele>273</ele>
        <time>2018-09-20T09:57:27Z</time>
      </trkpt>
      <trkpt lat="45.98074" lon="4.84129">
        <ele>273</ele>
        <time>2018-09-20T09:57:28Z</time>
      </trkpt>
      <trkpt lat="45.98079" lon="4.84125">
        <ele>273</ele>
        <time>2018-09-20T09:57:29Z</time>
      </trkpt>
      <trkpt lat="45.98083" lon="4.84122">
        <ele>273</ele>
        <time>2018-09-20T09:57:30Z</time>
      </trkpt>
      <trkpt lat="45.98088" lon="4.84118">
        <ele>273</ele>
        <time>2018-09-20T09:57:31Z</time>
      </trkpt>
      <trkpt lat="45.98093" lon="4.84114">
        <ele>273</ele>
        <time>2018-09-20T09:57:32Z</time>
      </trkpt>
      <trkpt lat="45.98097" lon="4.84109">
        <ele>273</ele>
        <time>2018-09-20T09:57:33Z</time>
      </trkpt>
      <trkpt lat="45.98101" lon="4.84105">
        <ele>273</ele>
        <time>2018-09-20T09:57:34Z</time>
      </trkpt>
      <trkpt lat="45.98106" lon="4.84102">
        <ele>273</ele>
        <time>2018-09-20T09:57:35Z</time>
      </trkpt>
      <trkpt lat="45.98109" lon="4.84099">
        <ele>273</ele>
        <time>2018-09-20T09:57:36Z</time>
      </trkpt>
      <trkpt lat="45.98114" lon="4.84094">
        <ele>273</ele>
        <time>2018-09-20T09:57:37Z</time>
      </trkpt>
      <trkpt lat="45.98118" lon="4.84088">
        <ele>273</ele>
        <time>2018-09-20T09:57:38Z</time>
      </trkpt>
      <trkpt lat="45.98122" lon="4.84084">
        <ele>273</ele>
        <time>2018-09-20T09:57:39Z</time>
      </trkpt>
      <trkpt lat="45.98126" lon="4.8408">
        <ele>273</ele>
        <time>2018-09-20T09:57:40Z</time>
      </trkpt>
      <trkpt lat="45.98131" lon="4.84074">
        <ele>273</ele>
        <time>2018-09-20T09:57:41Z</time>
      </trkpt>
      <trkpt lat="45.98135" lon="4.84069">
        <ele>273</ele>
        <time>2018-09-20T09:57:42Z</time>
      </trkpt>
      <trkpt lat="45.98139" lon="4.84064">
        <ele>273</ele>
        <time>2018-09-20T09:57:43Z</time>
      </trkpt>
      <trkpt lat="45.98143" lon="4.84058">
        <ele>273</ele>
        <time>2018-09-20T09:57:44Z</time>
      </trkpt>
      <trkpt lat="45.98146" lon="4.84053">
        <ele>273</ele>
        <time>2018-09-20T09:57:45Z</time>
      </trkpt>
      <trkpt lat="45.9815" lon="4.84048">
        <ele>273</ele>
        <time>2018-09-20T09:57:46Z</time>
      </trkpt>
      <trkpt lat="45.98154" lon="4.84042">
        <ele>273</ele>
        <time>2018-09-20T09:57:47Z</time>
      </trkpt>
      <trkpt lat="45.98157" lon="4.84037">
        <ele>273</ele>
        <time>2018-09-20T09:57:48Z</time>
      </trkpt>
      <trkpt lat="45.98159" lon="4.84032">
        <ele>273</ele>
        <time>2018-09-20T09:57:49Z</time>
      </trkpt>
      <trkpt lat="45.98162" lon="4.84026">
        <ele>273</ele>
        <time>2018-09-20T09:57:50Z</time>
      </trkpt>
      <trkpt lat="45.98166" lon="4.8402">
        <ele>273</ele>
        <time>2018-09-20T09:57:51Z</time>
      </trkpt>
      <trkpt lat="45.98169" lon="4.84014">
        <ele>273</ele>
        <time>2018-09-20T09:57:52Z</time>
      </trkpt>
      <trkpt lat="45.98172" lon="4.84007">
        <ele>273</ele>
        <time>2018-09-20T09:57:53Z</time>
      </trkpt>
      <trkpt lat="45.98176" lon="4.84001">
        <ele>273</ele>
        <time>2018-09-20T09:57:54Z</time>
      </trkpt>
      <trkpt lat="45.98179" lon="4.83994">
        <ele>273</ele>
        <time>2018-09-20T09:57:55Z</time>
      </trkpt>
      <trkpt lat="45.98181" lon="4.83987">
        <ele>273</ele>
        <time>2018-09-20T09:57:56Z</time>
      </trkpt>
      <trkpt lat="45.98184" lon="4.83981">
        <ele>273</ele>
        <time>2018-09-20T09:57:57Z</time>
      </trkpt>
      <trkpt lat="45.98187" lon="4.83973">
        <ele>273</ele>
        <time>2018-09-20T09:57:58Z</time>
      </trkpt>
      <trkpt lat="45.9819" lon="4.83967">
        <ele>273</ele>
        <time>2018-09-20T09:57:59Z</time>
      </trkpt>
      <trkpt lat="45.98192" lon="4.8396">
        <ele>273</ele>
        <time>2018-09-20T09:58:00Z</time>
      </trkpt>
      <trkpt lat="45.98195" lon="4.83954">
        <ele>273</ele>
        <time>2018-09-20T09:58:01Z</time>
      </trkpt>
      <trkpt lat="45.98197" lon="4.83947">
        <ele>273</ele>
        <time>2018-09-20T09:58:02Z</time>
      </trkpt>
      <trkpt lat="45.982" lon="4.8394">
        <ele>273</ele>
        <time>2018-09-20T09:58:03Z</time>
      </trkpt>
      <trkpt lat="45.98202" lon="4.83934">
        <ele>273</ele>
        <time>2018-09-20T09:58:04Z</time>
      </trkpt>
      <trkpt lat="45.98205" lon="4.83926">
        <ele>273</ele>
        <time>2018-09-20T09:58:05Z</time>
      </trkpt>
      <trkpt lat="45.98207" lon="4.8392">
        <ele>273</ele>
        <time>2018-09-20T09:58:06Z</time>
      </trkpt>
      <trkpt lat="45.98209" lon="4.83913">
        <ele>273</ele>
        <time>2018-09-20T09:58:07Z</time>
      </trkpt>
      <trkpt lat="45.98212" lon="4.83906">
        <ele>273</ele>
        <time>2018-09-20T09:58:08Z</time>
      </trkpt>
      <trkpt lat="45.98214" lon="4.839">
        <ele>273</ele>
        <time>2018-09-20T09:58:09Z</time>
      </trkpt>
      <trkpt lat="45.98216" lon="4.83893">
        <ele>273</ele>
        <time>2018-09-20T09:58:10Z</time>
      </trkpt>
      <trkpt lat="45.98218" lon="4.83887">
        <ele>272</ele>
        <time>2018-09-20T09:58:11Z</time>
      </trkpt>
      <trkpt lat="45.9822" lon="4.83881">
        <ele>272</ele>
        <time>2018-09-20T09:58:12Z</time>
      </trkpt>
      <trkpt lat="45.98222" lon="4.83875">
        <ele>272</ele>
        <time>2018-09-20T09:58:13Z</time>
      </trkpt>
      <trkpt lat="45.98225" lon="4.83869">
        <ele>272</ele>
        <time>2018-09-20T09:58:14Z</time>
      </trkpt>
      <trkpt lat="45.98227" lon="4.83863">
        <ele>272</ele>
        <time>2018-09-20T09:58:15Z</time>
      </trkpt>
      <trkpt lat="45.98229" lon="4.83857">
        <ele>272</ele>
        <time>2018-09-20T09:58:16Z</time>
      </trkpt>
      <trkpt lat="45.98231" lon="4.83851">
        <ele>272</ele>
        <time>2018-09-20T09:58:17Z</time>
      </trkpt>
      <trkpt lat="45.98233" lon="4.83844">
        <ele>272</ele>
        <time>2018-09-20T09:58:18Z</time>
      </trkpt>
      <trkpt lat="45.98235" lon="4.83837">
        <ele>272</ele>
        <time>2018-09-20T09:58:19Z</time>
      </trkpt>
      <trkpt lat="45.98238" lon="4.8383">
        <ele>272</ele>
        <time>2018-09-20T09:58:20Z</time>
      </trkpt>
      <trkpt lat="45.98241" lon="4.83823">
        <ele>272</ele>
        <time>2018-09-20T09:58:21Z</time>
      </trkpt>
      <trkpt lat="45.98243" lon="4.83816">
        <ele>272</ele>
        <time>2018-09-20T09:58:22Z</time>
      </trkpt>
      <trkpt lat="45.98245" lon="4.83809">
        <ele>272</ele>
        <time>2018-09-20T09:58:23Z</time>
      </trkpt>
      <trkpt lat="45.98247" lon="4.83802">
        <ele>272</ele>
        <time>2018-09-20T09:58:24Z</time>
      </trkpt>
      <trkpt lat="45.98249" lon="4.83796">
        <ele>272</ele>
        <time>2018-09-20T09:58:25Z</time>
      </trkpt>
      <trkpt lat="45.98251" lon="4.83789">
        <ele>272</ele>
        <time>2018-09-20T09:58:26Z</time>
      </trkpt>
      <trkpt lat="45.98254" lon="4.83782">
        <ele>272</ele>
        <time>2018-09-20T09:58:27Z</time>
      </trkpt>
      <trkpt lat="45.98258" lon="4.83771">
        <ele>272</ele>
        <time>2018-09-20T09:58:29Z</time>
      </trkpt>
      <trkpt lat="45.9826" lon="4.83765">
        <ele>272</ele>
        <time>2018-09-20T09:58:30Z</time>
      </trkpt>
      <trkpt lat="45.98264" lon="4.83758">
        <ele>272</ele>
        <time>2018-09-20T09:58:31Z</time>
      </trkpt>
      <trkpt lat="45.98266" lon="4.8375">
        <ele>272</ele>
        <time>2018-09-20T09:58:32Z</time>
      </trkpt>
      <trkpt lat="45.98268" lon="4.83744">
        <ele>272</ele>
        <time>2018-09-20T09:58:33Z</time>
      </trkpt>
      <trkpt lat="45.9827" lon="4.83737">
        <ele>272</ele>
        <time>2018-09-20T09:58:34Z</time>
      </trkpt>
      <trkpt lat="45.98275" lon="4.83727">
        <ele>272</ele>
        <time>2018-09-20T09:58:35Z</time>
      </trkpt>
      <trkpt lat="45.98277" lon="4.8372">
        <ele>272</ele>
        <time>2018-09-20T09:58:36Z</time>
      </trkpt>
      <trkpt lat="45.98279" lon="4.83713">
        <ele>272</ele>
        <time>2018-09-20T09:58:37Z</time>
      </trkpt>
      <trkpt lat="45.98282" lon="4.83707">
        <ele>272</ele>
        <time>2018-09-20T09:58:38Z</time>
      </trkpt>
      <trkpt lat="45.98284" lon="4.83701">
        <ele>272</ele>
        <time>2018-09-20T09:58:39Z</time>
      </trkpt>
      <trkpt lat="45.98287" lon="4.83694">
        <ele>272</ele>
        <time>2018-09-20T09:58:40Z</time>
      </trkpt>
      <trkpt lat="45.9829" lon="4.83687">
        <ele>272</ele>
        <time>2018-09-20T09:58:41Z</time>
      </trkpt>
      <trkpt lat="45.98293" lon="4.83681">
        <ele>272</ele>
        <time>2018-09-20T09:58:42Z</time>
      </trkpt>
      <trkpt lat="45.98295" lon="4.83674">
        <ele>272</ele>
        <time>2018-09-20T09:58:43Z</time>
      </trkpt>
      <trkpt lat="45.98298" lon="4.83668">
        <ele>272</ele>
        <time>2018-09-20T09:58:44Z</time>
      </trkpt>
      <trkpt lat="45.98302" lon="4.8366">
        <ele>271</ele>
        <time>2018-09-20T09:58:45Z</time>
      </trkpt>
      <trkpt lat="45.98305" lon="4.83653">
        <ele>271</ele>
        <time>2018-09-20T09:58:46Z</time>
      </trkpt>
      <trkpt lat="45.98308" lon="4.83646">
        <ele>271</ele>
        <time>2018-09-20T09:58:47Z</time>
      </trkpt>
      <trkpt lat="45.98312" lon="4.83638">
        <ele>271</ele>
        <time>2018-09-20T09:58:48Z</time>
      </trkpt>
      <trkpt lat="45.98315" lon="4.83631">
        <ele>271</ele>
        <time>2018-09-20T09:58:49Z</time>
      </trkpt>
      <trkpt lat="45.98319" lon="4.83624">
        <ele>271</ele>
        <time>2018-09-20T09:58:50Z</time>
      </trkpt>
      <trkpt lat="45.98322" lon="4.83617">
        <ele>271</ele>
        <time>2018-09-20T09:58:51Z</time>
      </trkpt>
      <trkpt lat="45.98326" lon="4.83611">
        <ele>271</ele>
        <time>2018-09-20T09:58:52Z</time>
      </trkpt>
      <trkpt lat="45.9833" lon="4.83605">
        <ele>271</ele>
        <time>2018-09-20T09:58:53Z</time>
      </trkpt>
      <trkpt lat="45.98334" lon="4.83599">
        <ele>270</ele>
        <time>2018-09-20T09:58:54Z</time>
      </trkpt>
      <trkpt lat="45.98338" lon="4.83592">
        <ele>270</ele>
        <time>2018-09-20T09:58:55Z</time>
      </trkpt>
      <trkpt lat="45.98343" lon="4.83586">
        <ele>270</ele>
        <time>2018-09-20T09:58:56Z</time>
      </trkpt>
      <trkpt lat="45.98347" lon="4.8358">
        <ele>270</ele>
        <time>2018-09-20T09:58:57Z</time>
      </trkpt>
      <trkpt lat="45.98351" lon="4.83574">
        <ele>269</ele>
        <time>2018-09-20T09:58:58Z</time>
      </trkpt>
      <trkpt lat="45.98355" lon="4.83569">
        <ele>269</ele>
        <time>2018-09-20T09:58:59Z</time>
      </trkpt>
      <trkpt lat="45.98359" lon="4.83564">
        <ele>269</ele>
        <time>2018-09-20T09:59:00Z</time>
      </trkpt>
      <trkpt lat="45.98363" lon="4.83559">
        <ele>269</ele>
        <time>2018-09-20T09:59:01Z</time>
      </trkpt>
      <trkpt lat="45.98367" lon="4.83552">
        <ele>269</ele>
        <time>2018-09-20T09:59:02Z</time>
      </trkpt>
      <trkpt lat="45.98371" lon="4.83546">
        <ele>269</ele>
        <time>2018-09-20T09:59:03Z</time>
      </trkpt>
      <trkpt lat="45.98375" lon="4.83539">
        <ele>269</ele>
        <time>2018-09-20T09:59:04Z</time>
      </trkpt>
      <trkpt lat="45.9838" lon="4.83533">
        <ele>269</ele>
        <time>2018-09-20T09:59:05Z</time>
      </trkpt>
      <trkpt lat="45.98385" lon="4.83527">
        <ele>269</ele>
        <time>2018-09-20T09:59:06Z</time>
      </trkpt>
      <trkpt lat="45.9839" lon="4.83519">
        <ele>269</ele>
        <time>2018-09-20T09:59:07Z</time>
      </trkpt>
      <trkpt lat="45.98395" lon="4.83514">
        <ele>269</ele>
        <time>2018-09-20T09:59:08Z</time>
      </trkpt>
      <trkpt lat="45.984" lon="4.83509">
        <ele>269</ele>
        <time>2018-09-20T09:59:09Z</time>
      </trkpt>
      <trkpt lat="45.98404" lon="4.83503">
        <ele>268</ele>
        <time>2018-09-20T09:59:10Z</time>
      </trkpt>
      <trkpt lat="45.98408" lon="4.83498">
        <ele>268</ele>
        <time>2018-09-20T09:59:11Z</time>
      </trkpt>
      <trkpt lat="45.98412" lon="4.83493">
        <ele>268</ele>
        <time>2018-09-20T09:59:12Z</time>
      </trkpt>
      <trkpt lat="45.98417" lon="4.83488">
        <ele>268</ele>
        <time>2018-09-20T09:59:13Z</time>
      </trkpt>
      <trkpt lat="45.98421" lon="4.83482">
        <ele>268</ele>
        <time>2018-09-20T09:59:14Z</time>
      </trkpt>
      <trkpt lat="45.98425" lon="4.83476">
        <ele>268</ele>
        <time>2018-09-20T09:59:15Z</time>
      </trkpt>
      <trkpt lat="45.98429" lon="4.8347">
        <ele>268</ele>
        <time>2018-09-20T09:59:16Z</time>
      </trkpt>
      <trkpt lat="45.98434" lon="4.83463">
        <ele>268</ele>
        <time>2018-09-20T09:59:17Z</time>
      </trkpt>
      <trkpt lat="45.98439" lon="4.83457">
        <ele>268</ele>
        <time>2018-09-20T09:59:18Z</time>
      </trkpt>
      <trkpt lat="45.98443" lon="4.83451">
        <ele>268</ele>
        <time>2018-09-20T09:59:19Z</time>
      </trkpt>
      <trkpt lat="45.98448" lon="4.83444">
        <ele>268</ele>
        <time>2018-09-20T09:59:20Z</time>
      </trkpt>
      <trkpt lat="45.98452" lon="4.83438">
        <ele>268</ele>
        <time>2018-09-20T09:59:21Z</time>
      </trkpt>
      <trkpt lat="45.98457" lon="4.83434">
        <ele>268</ele>
        <time>2018-09-20T09:59:22Z</time>
      </trkpt>
      <trkpt lat="45.98461" lon="4.83428">
        <ele>268</ele>
        <time>2018-09-20T09:59:23Z</time>
      </trkpt>
      <trkpt lat="45.98465" lon="4.83423">
        <ele>269</ele>
        <time>2018-09-20T09:59:24Z</time>
      </trkpt>
      <trkpt lat="45.98469" lon="4.83419">
        <ele>269</ele>
        <time>2018-09-20T09:59:25Z</time>
      </trkpt>
      <trkpt lat="45.98472" lon="4.83414">
        <ele>269</ele>
        <time>2018-09-20T09:59:26Z</time>
      </trkpt>
      <trkpt lat="45.98477" lon="4.83407">
        <ele>269</ele>
        <time>2018-09-20T09:59:27Z</time>
      </trkpt>
      <trkpt lat="45.98481" lon="4.83401">
        <ele>269</ele>
        <time>2018-09-20T09:59:28Z</time>
      </trkpt>
      <trkpt lat="45.98485" lon="4.83394">
        <ele>269</ele>
        <time>2018-09-20T09:59:29Z</time>
      </trkpt>
      <trkpt lat="45.98489" lon="4.83389">
        <ele>269</ele>
        <time>2018-09-20T09:59:30Z</time>
      </trkpt>
      <trkpt lat="45.98493" lon="4.83383">
        <ele>269</ele>
        <time>2018-09-20T09:59:31Z</time>
      </trkpt>
      <trkpt lat="45.98496" lon="4.83378">
        <ele>269</ele>
        <time>2018-09-20T09:59:32Z</time>
      </trkpt>
      <trkpt lat="45.985" lon="4.83372">
        <ele>269</ele>
        <time>2018-09-20T09:59:33Z</time>
      </trkpt>
      <trkpt lat="45.98504" lon="4.83368">
        <ele>269</ele>
        <time>2018-09-20T09:59:34Z</time>
      </trkpt>
      <trkpt lat="45.98507" lon="4.83363">
        <ele>269</ele>
        <time>2018-09-20T09:59:35Z</time>
      </trkpt>
      <trkpt lat="45.9851" lon="4.83358">
        <ele>269</ele>
        <time>2018-09-20T09:59:36Z</time>
      </trkpt>
      <trkpt lat="45.98516" lon="4.83349">
        <ele>270</ele>
        <time>2018-09-20T09:59:38Z</time>
      </trkpt>
      <trkpt lat="45.9852" lon="4.83343">
        <ele>270</ele>
        <time>2018-09-20T09:59:39Z</time>
      </trkpt>
      <trkpt lat="45.98523" lon="4.83339">
        <ele>270</ele>
        <time>2018-09-20T09:59:40Z</time>
      </trkpt>
      <trkpt lat="45.98527" lon="4.83333">
        <ele>270</ele>
        <time>2018-09-20T09:59:41Z</time>
      </trkpt>
      <trkpt lat="45.98531" lon="4.83327">
        <ele>269</ele>
        <time>2018-09-20T09:59:42Z</time>
      </trkpt>
      <trkpt lat="45.98535" lon="4.83321">
        <ele>269</ele>
        <time>2018-09-20T09:59:43Z</time>
      </trkpt>
      <trkpt lat="45.98539" lon="4.83316">
        <ele>269</ele>
        <time>2018-09-20T09:59:44Z</time>
      </trkpt>
      <trkpt lat="45.98544" lon="4.8331">
        <ele>269</ele>
        <time>2018-09-20T09:59:45Z</time>
      </trkpt>
      <trkpt lat="45.98548" lon="4.83305">
        <ele>269</ele>
        <time>2018-09-20T09:59:46Z</time>
      </trkpt>
      <trkpt lat="45.98553" lon="4.83299">
        <ele>269</ele>
        <time>2018-09-20T09:59:47Z</time>
      </trkpt>
      <trkpt lat="45.98558" lon="4.83294">
        <ele>269</ele>
        <time>2018-09-20T09:59:48Z</time>
      </trkpt>
      <trkpt lat="45.98562" lon="4.83289">
        <ele>269</ele>
        <time>2018-09-20T09:59:49Z</time>
      </trkpt>
      <trkpt lat="45.98566" lon="4.83283">
        <ele>269</ele>
        <time>2018-09-20T09:59:50Z</time>
      </trkpt>
      <trkpt lat="45.9857" lon="4.83279">
        <ele>269</ele>
        <time>2018-09-20T09:59:51Z</time>
      </trkpt>
      <trkpt lat="45.98575" lon="4.83269">
        <ele>269</ele>
        <time>2018-09-20T09:59:53Z</time>
      </trkpt>
      <trkpt lat="45.98578" lon="4.83263">
        <ele>269</ele>
        <time>2018-09-20T09:59:54Z</time>
      </trkpt>
      <trkpt lat="45.98582" lon="4.83259">
        <ele>268</ele>
        <time>2018-09-20T09:59:55Z</time>
      </trkpt>
      <trkpt lat="45.98584" lon="4.83254">
        <ele>268</ele>
        <time>2018-09-20T09:59:56Z</time>
      </trkpt>
      <trkpt lat="45.98591" lon="4.83245">
        <ele>268</ele>
        <time>2018-09-20T09:59:58Z</time>
      </trkpt>
      <trkpt lat="45.98595" lon="4.8324">
        <ele>268</ele>
        <time>2018-09-20T09:59:59Z</time>
      </trkpt>
      <trkpt lat="45.98599" lon="4.83235">
        <ele>268</ele>
        <time>2018-09-20T10:00:00Z</time>
      </trkpt>
      <trkpt lat="45.98603" lon="4.8323">
        <ele>268</ele>
        <time>2018-09-20T10:00:01Z</time>
      </trkpt>
      <trkpt lat="45.98607" lon="4.83225">
        <ele>267</ele>
        <time>2018-09-20T10:00:02Z</time>
      </trkpt>
      <trkpt lat="45.9861" lon="4.83221">
        <ele>267</ele>
        <time>2018-09-20T10:00:03Z</time>
      </trkpt>
      <trkpt lat="45.98614" lon="4.83216">
        <ele>267</ele>
        <time>2018-09-20T10:00:04Z</time>
      </trkpt>
      <trkpt lat="45.98618" lon="4.83212">
        <ele>267</ele>
        <time>2018-09-20T10:00:05Z</time>
      </trkpt>
      <trkpt lat="45.98622" lon="4.83206">
        <ele>267</ele>
        <time>2018-09-20T10:00:06Z</time>
      </trkpt>
      <trkpt lat="45.98626" lon="4.832">
        <ele>267</ele>
        <time>2018-09-20T10:00:07Z</time>
      </trkpt>
      <trkpt lat="45.9863" lon="4.83195">
        <ele>267</ele>
        <time>2018-09-20T10:00:08Z</time>
      </trkpt>
      <trkpt lat="45.98635" lon="4.83189">
        <ele>267</ele>
        <time>2018-09-20T10:00:09Z</time>
      </trkpt>
      <trkpt lat="45.9864" lon="4.83184">
        <ele>267</ele>
        <time>2018-09-20T10:00:10Z</time>
      </trkpt>
      <trkpt lat="45.98644" lon="4.8318">
        <ele>267</ele>
        <time>2018-09-20T10:00:11Z</time>
      </trkpt>
      <trkpt lat="45.9865" lon="4.83175">
        <ele>267</ele>
        <time>2018-09-20T10:00:12Z</time>
      </trkpt>
      <trkpt lat="45.98654" lon="4.83171">
        <ele>267</ele>
        <time>2018-09-20T10:00:13Z</time>
      </trkpt>
      <trkpt lat="45.98659" lon="4.83166">
        <ele>266</ele>
        <time>2018-09-20T10:00:14Z</time>
      </trkpt>
      <trkpt lat="45.98665" lon="4.83162">
        <ele>266</ele>
        <time>2018-09-20T10:00:15Z</time>
      </trkpt>
      <trkpt lat="45.9867" lon="4.83158">
        <ele>266</ele>
        <time>2018-09-20T10:00:16Z</time>
      </trkpt>
      <trkpt lat="45.98674" lon="4.83154">
        <ele>266</ele>
        <time>2018-09-20T10:00:17Z</time>
      </trkpt>
      <trkpt lat="45.9868" lon="4.83151">
        <ele>266</ele>
        <time>2018-09-20T10:00:18Z</time>
      </trkpt>
      <trkpt lat="45.98686" lon="4.83146">
        <ele>266</ele>
        <time>2018-09-20T10:00:19Z</time>
      </trkpt>
      <trkpt lat="45.9869" lon="4.83141">
        <ele>266</ele>
        <time>2018-09-20T10:00:20Z</time>
      </trkpt>
      <trkpt lat="45.98695" lon="4.83136">
        <ele>266</ele>
        <time>2018-09-20T10:00:21Z</time>
      </trkpt>
      <trkpt lat="45.987" lon="4.83133">
        <ele>266</ele>
        <time>2018-09-20T10:00:22Z</time>
      </trkpt>
      <trkpt lat="45.98705" lon="4.83129">
        <ele>266</ele>
        <time>2018-09-20T10:00:23Z</time>
      </trkpt>
      <trkpt lat="45.9871" lon="4.83125">
        <ele>266</ele>
        <time>2018-09-20T10:00:24Z</time>
      </trkpt>
      <trkpt lat="45.98716" lon="4.83122">
        <ele>266</ele>
        <time>2018-09-20T10:00:25Z</time>
      </trkpt>
      <trkpt lat="45.98721" lon="4.83118">
        <ele>267</ele>
        <time>2018-09-20T10:00:26Z</time>
      </trkpt>
      <trkpt lat="45.98726" lon="4.83114">
        <ele>267</ele>
        <time>2018-09-20T10:00:27Z</time>
      </trkpt>
      <trkpt lat="45.9873" lon="4.8311">
        <ele>267</ele>
        <time>2018-09-20T10:00:28Z</time>
      </trkpt>
      <trkpt lat="45.98736" lon="4.83105">
        <ele>267</ele>
        <time>2018-09-20T10:00:29Z</time>
      </trkpt>
      <trkpt lat="45.98741" lon="4.83102">
        <ele>267</ele>
        <time>2018-09-20T10:00:30Z</time>
      </trkpt>
      <trkpt lat="45.98746" lon="4.83098">
        <ele>267</ele>
        <time>2018-09-20T10:00:31Z</time>
      </trkpt>
      <trkpt lat="45.98751" lon="4.83093">
        <ele>266</ele>
        <time>2018-09-20T10:00:32Z</time>
      </trkpt>
      <trkpt lat="45.98756" lon="4.83088">
        <ele>266</ele>
        <time>2018-09-20T10:00:33Z</time>
      </trkpt>
      <trkpt lat="45.98762" lon="4.83084">
        <ele>266</ele>
        <time>2018-09-20T10:00:34Z</time>
      </trkpt>
      <trkpt lat="45.98767" lon="4.83079">
        <ele>266</ele>
        <time>2018-09-20T10:00:35Z</time>
      </trkpt>
      <trkpt lat="45.98773" lon="4.83074">
        <ele>265</ele>
        <time>2018-09-20T10:00:36Z</time>
      </trkpt>
      <trkpt lat="45.98778" lon="4.8307">
        <ele>265</ele>
        <time>2018-09-20T10:00:37Z</time>
      </trkpt>
      <trkpt lat="45.98783" lon="4.83065">
        <ele>265</ele>
        <time>2018-09-20T10:00:38Z</time>
      </trkpt>
      <trkpt lat="45.98789" lon="4.8306">
        <ele>265</ele>
        <time>2018-09-20T10:00:39Z</time>
      </trkpt>
      <trkpt lat="45.98794" lon="4.83056">
        <ele>265</ele>
        <time>2018-09-20T10:00:40Z</time>
      </trkpt>
      <trkpt lat="45.988" lon="4.83051">
        <ele>264</ele>
        <time>2018-09-20T10:00:41Z</time>
      </trkpt>
      <trkpt lat="45.98806" lon="4.83046">
        <ele>264</ele>
        <time>2018-09-20T10:00:42Z</time>
      </trkpt>
      <trkpt lat="45.98812" lon="4.83041">
        <ele>264</ele>
        <time>2018-09-20T10:00:43Z</time>
      </trkpt>
      <trkpt lat="45.98818" lon="4.83036">
        <ele>264</ele>
        <time>2018-09-20T10:00:44Z</time>
      </trkpt>
      <trkpt lat="45.98825" lon="4.83031">
        <ele>264</ele>
        <time>2018-09-20T10:00:45Z</time>
      </trkpt>
      <trkpt lat="45.98831" lon="4.83026">
        <ele>264</ele>
        <time>2018-09-20T10:00:46Z</time>
      </trkpt>
      <trkpt lat="45.98838" lon="4.83021">
        <ele>261</ele>
        <time>2018-09-20T10:00:47Z</time>
      </trkpt>
      <trkpt lat="45.98844" lon="4.83017">
        <ele>261</ele>
        <time>2018-09-20T10:00:48Z</time>
      </trkpt>
      <trkpt lat="45.98852" lon="4.83011">
        <ele>261</ele>
        <time>2018-09-20T10:00:49Z</time>
      </trkpt>
      <trkpt lat="45.9886" lon="4.83006">
        <ele>261</ele>
        <time>2018-09-20T10:00:50Z</time>
      </trkpt>
      <trkpt lat="45.98868" lon="4.83">
        <ele>260</ele>
        <time>2018-09-20T10:00:51Z</time>
      </trkpt>
      <trkpt lat="45.98876" lon="4.82994">
        <ele>260</ele>
        <time>2018-09-20T10:00:52Z</time>
      </trkpt>
      <trkpt lat="45.98885" lon="4.82988">
        <ele>259</ele>
        <time>2018-09-20T10:00:53Z</time>
      </trkpt>
      <trkpt lat="45.98893" lon="4.82982">
        <ele>259</ele>
        <time>2018-09-20T10:00:54Z</time>
      </trkpt>
      <trkpt lat="45.98901" lon="4.82975">
        <ele>259</ele>
        <time>2018-09-20T10:00:55Z</time>
      </trkpt>
      <trkpt lat="45.9891" lon="4.82966">
        <ele>259</ele>
        <time>2018-09-20T10:00:56Z</time>
      </trkpt>
      <trkpt lat="45.98917" lon="4.82957">
        <ele>255</ele>
        <time>2018-09-20T10:00:57Z</time>
      </trkpt>
      <trkpt lat="45.98923" lon="4.82943">
        <ele>255</ele>
        <time>2018-09-20T10:00:58Z</time>
      </trkpt>
      <trkpt lat="45.98929" lon="4.82931">
        <ele>255</ele>
        <time>2018-09-20T10:00:59Z</time>
      </trkpt>
      <trkpt lat="45.98935" lon="4.82918">
        <ele>255</ele>
        <time>2018-09-20T10:01:00Z</time>
      </trkpt>
      <trkpt lat="45.9894" lon="4.82904">
        <ele>253</ele>
        <time>2018-09-20T10:01:01Z</time>
      </trkpt>
      <trkpt lat="45.98946" lon="4.8289">
        <ele>253</ele>
        <time>2018-09-20T10:01:02Z</time>
      </trkpt>
      <trkpt lat="45.98952" lon="4.82876">
        <ele>253</ele>
        <time>2018-09-20T10:01:03Z</time>
      </trkpt>
      <trkpt lat="45.98958" lon="4.82861">
        <ele>252</ele>
        <time>2018-09-20T10:01:04Z</time>
      </trkpt>
      <trkpt lat="45.98964" lon="4.82847">
        <ele>252</ele>
        <time>2018-09-20T10:01:05Z</time>
      </trkpt>
      <trkpt lat="45.98971" lon="4.82833">
        <ele>249</ele>
        <time>2018-09-20T10:01:06Z</time>
      </trkpt>
      <trkpt lat="45.98977" lon="4.82819">
        <ele>248</ele>
        <time>2018-09-20T10:01:07Z</time>
      </trkpt>
      <trkpt lat="45.98984" lon="4.82803">
        <ele>248</ele>
        <time>2018-09-20T10:01:08Z</time>
      </trkpt>
      <trkpt lat="45.98991" lon="4.82788">
        <ele>247</ele>
        <time>2018-09-20T10:01:09Z</time>
      </trkpt>
      <trkpt lat="45.98998" lon="4.82772">
        <ele>245</ele>
        <time>2018-09-20T10:01:10Z</time>
      </trkpt>
      <trkpt lat="45.99005" lon="4.82756">
        <ele>241</ele>
        <time>2018-09-20T10:01:11Z</time>
      </trkpt>
      <trkpt lat="45.99012" lon="4.8274">
        <ele>240</ele>
        <time>2018-09-20T10:01:12Z</time>
      </trkpt>
      <trkpt lat="45.9902" lon="4.82723">
        <ele>239</ele>
        <time>2018-09-20T10:01:13Z</time>
      </trkpt>
      <trkpt lat="45.99027" lon="4.82708">
        <ele>238</ele>
        <time>2018-09-20T10:01:14Z</time>
      </trkpt>
      <trkpt lat="45.99033" lon="4.82693">
        <ele>238</ele>
        <time>2018-09-20T10:01:15Z</time>
      </trkpt>
      <trkpt lat="45.99039" lon="4.82679">
        <ele>238</ele>
        <time>2018-09-20T10:01:16Z</time>
      </trkpt>
      <trkpt lat="45.99044" lon="4.82665">
        <ele>236</ele>
        <time>2018-09-20T10:01:17Z</time>
      </trkpt>
      <trkpt lat="45.9905" lon="4.82652">
        <ele>236</ele>
        <time>2018-09-20T10:01:18Z</time>
      </trkpt>
      <trkpt lat="45.99055" lon="4.8264">
        <ele>236</ele>
        <time>2018-09-20T10:01:19Z</time>
      </trkpt>
      <trkpt lat="45.9906" lon="4.82629">
        <ele>236</ele>
        <time>2018-09-20T10:01:20Z</time>
      </trkpt>
      <trkpt lat="45.99064" lon="4.82618">
        <ele>236</ele>
        <time>2018-09-20T10:01:21Z</time>
      </trkpt>
      <trkpt lat="45.99067" lon="4.82611">
        <ele>236</ele>
        <time>2018-09-20T10:01:22Z</time>
      </trkpt>
      <trkpt lat="45.9907" lon="4.82604">
        <ele>236</ele>
        <time>2018-09-20T10:01:23Z</time>
      </trkpt>
      <trkpt lat="45.99075" lon="4.82593">
        <ele>235</ele>
        <time>2018-09-20T10:01:25Z</time>
      </trkpt>
      <trkpt lat="45.99076" lon="4.82588">
        <ele>235</ele>
        <time>2018-09-20T10:01:26Z</time>
      </trkpt>
      <trkpt lat="45.99075" lon="4.82576">
        <ele>235</ele>
        <time>2018-09-20T10:01:28Z</time>
      </trkpt>
      <trkpt lat="45.99072" lon="4.82571">
        <ele>235</ele>
        <time>2018-09-20T10:01:29Z</time>
      </trkpt>
      <trkpt lat="45.99068" lon="4.82567">
        <ele>235</ele>
        <time>2018-09-20T10:01:30Z</time>
      </trkpt>
      <trkpt lat="45.99064" lon="4.82565">
        <ele>235</ele>
        <time>2018-09-20T10:01:31Z</time>
      </trkpt>
      <trkpt lat="45.99059" lon="4.82563">
        <ele>235</ele>
        <time>2018-09-20T10:01:32Z</time>
      </trkpt>
      <trkpt lat="45.99054" lon="4.82562">
        <ele>235</ele>
        <time>2018-09-20T10:01:33Z</time>
      </trkpt>
      <trkpt lat="45.99046" lon="4.82558">
        <ele>235</ele>
        <time>2018-09-20T10:01:35Z</time>
      </trkpt>
      <trkpt lat="45.9904" lon="4.82557">
        <ele>235</ele>
        <time>2018-09-20T10:01:36Z</time>
      </trkpt>
      <trkpt lat="45.99036" lon="4.82554">
        <ele>235</ele>
        <time>2018-09-20T10:01:37Z</time>
      </trkpt>
      <trkpt lat="45.99033" lon="4.82548">
        <ele>235</ele>
        <time>2018-09-20T10:01:38Z</time>
      </trkpt>
      <trkpt lat="45.99026" lon="4.82541">
        <ele>235</ele>
        <time>2018-09-20T10:01:40Z</time>
      </trkpt>
      <trkpt lat="45.99023" lon="4.82538">
        <ele>235</ele>
        <time>2018-09-20T10:01:41Z</time>
      </trkpt>
      <trkpt lat="45.99019" lon="4.82534">
        <ele>235</ele>
        <time>2018-09-20T10:01:42Z</time>
      </trkpt>
      <trkpt lat="45.99016" lon="4.8253">
        <ele>235</ele>
        <time>2018-09-20T10:01:43Z</time>
      </trkpt>
      <trkpt lat="45.99011" lon="4.82519">
        <ele>235</ele>
        <time>2018-09-20T10:01:45Z</time>
      </trkpt>
      <trkpt lat="45.99009" lon="4.82514">
        <ele>235</ele>
        <time>2018-09-20T10:01:46Z</time>
      </trkpt>
      <trkpt lat="45.99004" lon="4.82504">
        <ele>235</ele>
        <time>2018-09-20T10:01:48Z</time>
      </trkpt>
      <trkpt lat="45.99001" lon="4.82499">
        <ele>235</ele>
        <time>2018-09-20T10:01:49Z</time>
      </trkpt>
      <trkpt lat="45.98997" lon="4.82489">
        <ele>236</ele>
        <time>2018-09-20T10:01:51Z</time>
      </trkpt>
      <trkpt lat="45.98994" lon="4.82483">
        <ele>236</ele>
        <time>2018-09-20T10:01:52Z</time>
      </trkpt>
      <trkpt lat="45.9899" lon="4.82472">
        <ele>236</ele>
        <time>2018-09-20T10:01:54Z</time>
      </trkpt>
      <trkpt lat="45.98989" lon="4.82465">
        <ele>236</ele>
        <time>2018-09-20T10:01:55Z</time>
      </trkpt>
      <trkpt lat="45.98985" lon="4.82454">
        <ele>236</ele>
        <time>2018-09-20T10:01:57Z</time>
      </trkpt>
      <trkpt lat="45.98984" lon="4.82449">
        <ele>236</ele>
        <time>2018-09-20T10:01:58Z</time>
      </trkpt>
      <trkpt lat="45.98982" lon="4.82438">
        <ele>236</ele>
        <time>2018-09-20T10:02:00Z</time>
      </trkpt>
      <trkpt lat="45.9898" lon="4.82432">
        <ele>236</ele>
        <time>2018-09-20T10:02:01Z</time>
      </trkpt>
      <trkpt lat="45.98978" lon="4.82424">
        <ele>236</ele>
        <time>2018-09-20T10:02:02Z</time>
      </trkpt>
      <trkpt lat="45.98977" lon="4.82417">
        <ele>236</ele>
        <time>2018-09-20T10:02:03Z</time>
      </trkpt>
      <trkpt lat="45.98976" lon="4.8241">
        <ele>235</ele>
        <time>2018-09-20T10:02:04Z</time>
      </trkpt>
      <trkpt lat="45.98975" lon="4.82403">
        <ele>235</ele>
        <time>2018-09-20T10:02:05Z</time>
      </trkpt>
      <trkpt lat="45.98973" lon="4.82397">
        <ele>235</ele>
        <time>2018-09-20T10:02:06Z</time>
      </trkpt>
      <trkpt lat="45.98972" lon="4.82391">
        <ele>235</ele>
        <time>2018-09-20T10:02:07Z</time>
      </trkpt>
      <trkpt lat="45.9897" lon="4.82383">
        <ele>235</ele>
        <time>2018-09-20T10:02:08Z</time>
      </trkpt>
      <trkpt lat="45.98968" lon="4.82378">
        <ele>235</ele>
        <time>2018-09-20T10:02:09Z</time>
      </trkpt>
      <trkpt lat="45.98966" lon="4.82371">
        <ele>235</ele>
        <time>2018-09-20T10:02:10Z</time>
      </trkpt>
      <trkpt lat="45.98965" lon="4.82365">
        <ele>235</ele>
        <time>2018-09-20T10:02:11Z</time>
      </trkpt>
      <trkpt lat="45.98963" lon="4.82359">
        <ele>235</ele>
        <time>2018-09-20T10:02:12Z</time>
      </trkpt>
      <trkpt lat="45.98961" lon="4.82353">
        <ele>235</ele>
        <time>2018-09-20T10:02:13Z</time>
      </trkpt>
      <trkpt lat="45.98957" lon="4.82342">
        <ele>235</ele>
        <time>2018-09-20T10:02:15Z</time>
      </trkpt>
      <trkpt lat="45.98954" lon="4.82337">
        <ele>235</ele>
        <time>2018-09-20T10:02:16Z</time>
      </trkpt>
      <trkpt lat="45.98951" lon="4.82331">
        <ele>234</ele>
        <time>2018-09-20T10:02:17Z</time>
      </trkpt>
      <trkpt lat="45.98948" lon="4.82327">
        <ele>234</ele>
        <time>2018-09-20T10:02:18Z</time>
      </trkpt>
      <trkpt lat="45.98944" lon="4.82322">
        <ele>234</ele>
        <time>2018-09-20T10:02:19Z</time>
      </trkpt>
      <trkpt lat="45.98941" lon="4.82318">
        <ele>234</ele>
        <time>2018-09-20T10:02:20Z</time>
      </trkpt>
      <trkpt lat="45.98934" lon="4.82309">
        <ele>234</ele>
        <time>2018-09-20T10:02:22Z</time>
      </trkpt>
      <trkpt lat="45.98931" lon="4.82304">
        <ele>234</ele>
        <time>2018-09-20T10:02:23Z</time>
      </trkpt>
      <trkpt lat="45.98928" lon="4.823">
        <ele>234</ele>
        <time>2018-09-20T10:02:24Z</time>
      </trkpt>
      <trkpt lat="45.98923" lon="4.82296">
        <ele>234</ele>
        <time>2018-09-20T10:02:25Z</time>
      </trkpt>
      <trkpt lat="45.98918" lon="4.82292">
        <ele>234</ele>
        <time>2018-09-20T10:02:26Z</time>
      </trkpt>
      <trkpt lat="45.98914" lon="4.82287">
        <ele>236</ele>
        <time>2018-09-20T10:02:27Z</time>
      </trkpt>
      <trkpt lat="45.9891" lon="4.82283">
        <ele>236</ele>
        <time>2018-09-20T10:02:28Z</time>
      </trkpt>
      <trkpt lat="45.98907" lon="4.82279">
        <ele>236</ele>
        <time>2018-09-20T10:02:29Z</time>
      </trkpt>
      <trkpt lat="45.98904" lon="4.82274">
        <ele>236</ele>
        <time>2018-09-20T10:02:30Z</time>
      </trkpt>
      <trkpt lat="45.989" lon="4.82269">
        <ele>236</ele>
        <time>2018-09-20T10:02:31Z</time>
      </trkpt>
      <trkpt lat="45.98897" lon="4.82264">
        <ele>236</ele>
        <time>2018-09-20T10:02:32Z</time>
      </trkpt>
      <trkpt lat="45.98894" lon="4.82259">
        <ele>236</ele>
        <time>2018-09-20T10:02:33Z</time>
      </trkpt>
      <trkpt lat="45.9889" lon="4.82253">
        <ele>236</ele>
        <time>2018-09-20T10:02:34Z</time>
      </trkpt>
      <trkpt lat="45.98887" lon="4.82248">
        <ele>235</ele>
        <time>2018-09-20T10:02:35Z</time>
      </trkpt>
      <trkpt lat="45.98883" lon="4.82242">
        <ele>236</ele>
        <time>2018-09-20T10:02:36Z</time>
      </trkpt>
      <trkpt lat="45.98879" lon="4.82235">
        <ele>236</ele>
        <time>2018-09-20T10:02:37Z</time>
      </trkpt>
      <trkpt lat="45.98877" lon="4.82229">
        <ele>236</ele>
        <time>2018-09-20T10:02:38Z</time>
      </trkpt>
      <trkpt lat="45.98874" lon="4.82222">
        <ele>236</ele>
        <time>2018-09-20T10:02:39Z</time>
      </trkpt>
      <trkpt lat="45.9887" lon="4.82216">
        <ele>236</ele>
        <time>2018-09-20T10:02:40Z</time>
      </trkpt>
      <trkpt lat="45.98868" lon="4.82209">
        <ele>236</ele>
        <time>2018-09-20T10:02:41Z</time>
      </trkpt>
      <trkpt lat="45.98865" lon="4.82203">
        <ele>236</ele>
        <time>2018-09-20T10:02:42Z</time>
      </trkpt>
      <trkpt lat="45.98862" lon="4.82197">
        <ele>236</ele>
        <time>2018-09-20T10:02:43Z</time>
      </trkpt>
      <trkpt lat="45.9886" lon="4.82191">
        <ele>236</ele>
        <time>2018-09-20T10:02:44Z</time>
      </trkpt>
      <trkpt lat="45.98858" lon="4.82185">
        <ele>236</ele>
        <time>2018-09-20T10:02:45Z</time>
      </trkpt>
      <trkpt lat="45.98855" lon="4.82178">
        <ele>236</ele>
        <time>2018-09-20T10:02:46Z</time>
      </trkpt>
      <trkpt lat="45.98853" lon="4.82172">
        <ele>236</ele>
        <time>2018-09-20T10:02:47Z</time>
      </trkpt>
      <trkpt lat="45.98851" lon="4.82167">
        <ele>236</ele>
        <time>2018-09-20T10:02:48Z</time>
      </trkpt>
      <trkpt lat="45.9885" lon="4.8216">
        <ele>236</ele>
        <time>2018-09-20T10:02:49Z</time>
      </trkpt>
      <trkpt lat="45.98847" lon="4.82155">
        <ele>236</ele>
        <time>2018-09-20T10:02:50Z</time>
      </trkpt>
      <trkpt lat="45.98846" lon="4.82148">
        <ele>236</ele>
        <time>2018-09-20T10:02:51Z</time>
      </trkpt>
      <trkpt lat="45.98845" lon="4.82141">
        <ele>236</ele>
        <time>2018-09-20T10:02:52Z</time>
      </trkpt>
      <trkpt lat="45.98843" lon="4.82133">
        <ele>236</ele>
        <time>2018-09-20T10:02:53Z</time>
      </trkpt>
      <trkpt lat="45.98842" lon="4.82126">
        <ele>236</ele>
        <time>2018-09-20T10:02:54Z</time>
      </trkpt>
      <trkpt lat="45.98841" lon="4.82118">
        <ele>235</ele>
        <time>2018-09-20T10:02:55Z</time>
      </trkpt>
      <trkpt lat="45.98839" lon="4.82111">
        <ele>235</ele>
        <time>2018-09-20T10:02:56Z</time>
      </trkpt>
      <trkpt lat="45.98837" lon="4.82103">
        <ele>236</ele>
        <time>2018-09-20T10:02:57Z</time>
      </trkpt>
      <trkpt lat="45.98837" lon="4.82096">
        <ele>236</ele>
        <time>2018-09-20T10:02:58Z</time>
      </trkpt>
      <trkpt lat="45.98836" lon="4.82089">
        <ele>236</ele>
        <time>2018-09-20T10:02:59Z</time>
      </trkpt>
      <trkpt lat="45.98834" lon="4.82083">
        <ele>236</ele>
        <time>2018-09-20T10:03:00Z</time>
      </trkpt>
      <trkpt lat="45.98833" lon="4.82077">
        <ele>236</ele>
        <time>2018-09-20T10:03:01Z</time>
      </trkpt>
      <trkpt lat="45.98831" lon="4.8207">
        <ele>237</ele>
        <time>2018-09-20T10:03:02Z</time>
      </trkpt>
      <trkpt lat="45.9883" lon="4.82064">
        <ele>237</ele>
        <time>2018-09-20T10:03:03Z</time>
      </trkpt>
      <trkpt lat="45.9883" lon="4.82057">
        <ele>237</ele>
        <time>2018-09-20T10:03:04Z</time>
      </trkpt>
      <trkpt lat="45.98829" lon="4.82051">
        <ele>237</ele>
        <time>2018-09-20T10:03:05Z</time>
      </trkpt>
      <trkpt lat="45.98828" lon="4.82044">
        <ele>238</ele>
        <time>2018-09-20T10:03:06Z</time>
      </trkpt>
      <trkpt lat="45.98827" lon="4.82037">
        <ele>238</ele>
        <time>2018-09-20T10:03:07Z</time>
      </trkpt>
      <trkpt lat="45.98826" lon="4.82029">
        <ele>238</ele>
        <time>2018-09-20T10:03:08Z</time>
      </trkpt>
      <trkpt lat="45.98825" lon="4.82023">
        <ele>238</ele>
        <time>2018-09-20T10:03:09Z</time>
      </trkpt>
      <trkpt lat="45.98824" lon="4.82016">
        <ele>238</ele>
        <time>2018-09-20T10:03:10Z</time>
      </trkpt>
      <trkpt lat="45.98823" lon="4.8201">
        <ele>238</ele>
        <time>2018-09-20T10:03:11Z</time>
      </trkpt>
      <trkpt lat="45.98821" lon="4.81998">
        <ele>238</ele>
        <time>2018-09-20T10:03:13Z</time>
      </trkpt>
      <trkpt lat="45.98822" lon="4.81993">
        <ele>238</ele>
        <time>2018-09-20T10:03:14Z</time>
      </trkpt>
      <trkpt lat="45.98821" lon="4.81987">
        <ele>238</ele>
        <time>2018-09-20T10:03:15Z</time>
      </trkpt>
      <trkpt lat="45.98819" lon="4.8198">
        <ele>238</ele>
        <time>2018-09-20T10:03:16Z</time>
      </trkpt>
      <trkpt lat="45.98817" lon="4.81969">
        <ele>239</ele>
        <time>2018-09-20T10:03:18Z</time>
      </trkpt>
      <trkpt lat="45.98816" lon="4.81961">
        <ele>239</ele>
        <time>2018-09-20T10:03:19Z</time>
      </trkpt>
      <trkpt lat="45.98815" lon="4.81954">
        <ele>239</ele>
        <time>2018-09-20T10:03:20Z</time>
      </trkpt>
      <trkpt lat="45.98814" lon="4.81945">
        <ele>239</ele>
        <time>2018-09-20T10:03:21Z</time>
      </trkpt>
      <trkpt lat="45.98813" lon="4.81939">
        <ele>239</ele>
        <time>2018-09-20T10:03:22Z</time>
      </trkpt>
      <trkpt lat="45.98811" lon="4.81932">
        <ele>239</ele>
        <time>2018-09-20T10:03:23Z</time>
      </trkpt>
      <trkpt lat="45.9881" lon="4.81924">
        <ele>239</ele>
        <time>2018-09-20T10:03:24Z</time>
      </trkpt>
      <trkpt lat="45.98809" lon="4.81918">
        <ele>239</ele>
        <time>2018-09-20T10:03:25Z</time>
      </trkpt>
      <trkpt lat="45.98808" lon="4.81911">
        <ele>239</ele>
        <time>2018-09-20T10:03:26Z</time>
      </trkpt>
      <trkpt lat="45.98806" lon="4.81905">
        <ele>239</ele>
        <time>2018-09-20T10:03:27Z</time>
      </trkpt>
      <trkpt lat="45.98805" lon="4.81898">
        <ele>239</ele>
        <time>2018-09-20T10:03:28Z</time>
      </trkpt>
      <trkpt lat="45.98804" lon="4.81892">
        <ele>239</ele>
        <time>2018-09-20T10:03:29Z</time>
      </trkpt>
      <trkpt lat="45.988" lon="4.8188">
        <ele>239</ele>
        <time>2018-09-20T10:03:31Z</time>
      </trkpt>
      <trkpt lat="45.98799" lon="4.81874">
        <ele>239</ele>
        <time>2018-09-20T10:03:32Z</time>
      </trkpt>
      <trkpt lat="45.98796" lon="4.81868">
        <ele>239</ele>
        <time>2018-09-20T10:03:33Z</time>
      </trkpt>
      <trkpt lat="45.98794" lon="4.81862">
        <ele>239</ele>
        <time>2018-09-20T10:03:34Z</time>
      </trkpt>
      <trkpt lat="45.98789" lon="4.81852">
        <ele>239</ele>
        <time>2018-09-20T10:03:36Z</time>
      </trkpt>
      <trkpt lat="45.98788" lon="4.81845">
        <ele>239</ele>
        <time>2018-09-20T10:03:37Z</time>
      </trkpt>
      <trkpt lat="45.98786" lon="4.8184">
        <ele>239</ele>
        <time>2018-09-20T10:03:38Z</time>
      </trkpt>
      <trkpt lat="45.98783" lon="4.81834">
        <ele>239</ele>
        <time>2018-09-20T10:03:39Z</time>
      </trkpt>
      <trkpt lat="45.9878" lon="4.81823">
        <ele>240</ele>
        <time>2018-09-20T10:03:40Z</time>
      </trkpt>
      <trkpt lat="45.98777" lon="4.81818">
        <ele>240</ele>
        <time>2018-09-20T10:03:41Z</time>
      </trkpt>
      <trkpt lat="45.98773" lon="4.8181">
        <ele>240</ele>
        <time>2018-09-20T10:03:42Z</time>
      </trkpt>
      <trkpt lat="45.9877" lon="4.81805">
        <ele>240</ele>
        <time>2018-09-20T10:03:43Z</time>
      </trkpt>
      <trkpt lat="45.98763" lon="4.81796">
        <ele>240</ele>
        <time>2018-09-20T10:03:45Z</time>
      </trkpt>
      <trkpt lat="45.98761" lon="4.81791">
        <ele>241</ele>
        <time>2018-09-20T10:03:46Z</time>
      </trkpt>
      <trkpt lat="45.98757" lon="4.81782">
        <ele>241</ele>
        <time>2018-09-20T10:03:48Z</time>
      </trkpt>
      <trkpt lat="45.98755" lon="4.8178">
        <ele>241</ele>
        <time>2018-09-20T10:03:49Z</time>
      </trkpt>
      <trkpt lat="45.98753" lon="4.81774">
        <ele>241</ele>
        <time>2018-09-20T10:03:51Z</time>
      </trkpt>
      <trkpt lat="45.98749" lon="4.81765">
        <ele>240</ele>
        <time>2018-09-20T10:03:52Z</time>
      </trkpt>
      <trkpt lat="45.98745" lon="4.81755">
        <ele>241</ele>
        <time>2018-09-20T10:03:54Z</time>
      </trkpt>
      <trkpt lat="45.98742" lon="4.81751">
        <ele>240</ele>
        <time>2018-09-20T10:03:55Z</time>
      </trkpt>
      <trkpt lat="45.98739" lon="4.81745">
        <ele>240</ele>
        <time>2018-09-20T10:03:56Z</time>
      </trkpt>
      <trkpt lat="45.98737" lon="4.81737">
        <ele>240</ele>
        <time>2018-09-20T10:03:57Z</time>
      </trkpt>
      <trkpt lat="45.98731" lon="4.8173">
        <ele>239</ele>
        <time>2018-09-20T10:03:59Z</time>
      </trkpt>
      <trkpt lat="45.98731" lon="4.81727">
        <ele>239</ele>
        <time>2018-09-20T10:04:00Z</time>
      </trkpt>
      <trkpt lat="45.98727" lon="4.81723">
        <ele>239</ele>
        <time>2018-09-20T10:04:01Z</time>
      </trkpt>
      <trkpt lat="45.98722" lon="4.81723">
        <ele>239</ele>
        <time>2018-09-20T10:04:02Z</time>
      </trkpt>
      <trkpt lat="45.98714" lon="4.81724">
        <ele>239</ele>
        <time>2018-09-20T10:04:04Z</time>
      </trkpt>
      <trkpt lat="45.98707" lon="4.81726">
        <ele>239</ele>
        <time>2018-09-20T10:04:05Z</time>
      </trkpt>
      <trkpt lat="45.98701" lon="4.81728">
        <ele>239</ele>
        <time>2018-09-20T10:04:06Z</time>
      </trkpt>
      <trkpt lat="45.98696" lon="4.81729">
        <ele>238</ele>
        <time>2018-09-20T10:04:07Z</time>
      </trkpt>
      <trkpt lat="45.98693" lon="4.8173">
        <ele>238</ele>
        <time>2018-09-20T10:04:08Z</time>
      </trkpt>
      <trkpt lat="45.98687" lon="4.81732">
        <ele>238</ele>
        <time>2018-09-20T10:04:09Z</time>
      </trkpt>
      <trkpt lat="45.98682" lon="4.81732">
        <ele>238</ele>
        <time>2018-09-20T10:04:10Z</time>
      </trkpt>
      <trkpt lat="45.98677" lon="4.81734">
        <ele>238</ele>
        <time>2018-09-20T10:04:11Z</time>
      </trkpt>
      <trkpt lat="45.98669" lon="4.81738">
        <ele>238</ele>
        <time>2018-09-20T10:04:13Z</time>
      </trkpt>
      <trkpt lat="45.98663" lon="4.81738">
        <ele>237</ele>
        <time>2018-09-20T10:04:14Z</time>
      </trkpt>
      <trkpt lat="45.98654" lon="4.81742">
        <ele>237</ele>
        <time>2018-09-20T10:04:16Z</time>
      </trkpt>
      <trkpt lat="45.98649" lon="4.81744">
        <ele>237</ele>
        <time>2018-09-20T10:04:17Z</time>
      </trkpt>
      <trkpt lat="45.98644" lon="4.81746">
        <ele>237</ele>
        <time>2018-09-20T10:04:18Z</time>
      </trkpt>
      <trkpt lat="45.98638" lon="4.81748">
        <ele>237</ele>
        <time>2018-09-20T10:04:19Z</time>
      </trkpt>
      <trkpt lat="45.98632" lon="4.8175">
        <ele>237</ele>
        <time>2018-09-20T10:04:20Z</time>
      </trkpt>
      <trkpt lat="45.98627" lon="4.81751">
        <ele>238</ele>
        <time>2018-09-20T10:04:21Z</time>
      </trkpt>
      <trkpt lat="45.98622" lon="4.81752">
        <ele>238</ele>
        <time>2018-09-20T10:04:22Z</time>
      </trkpt>
      <trkpt lat="45.98617" lon="4.81754">
        <ele>238</ele>
        <time>2018-09-20T10:04:23Z</time>
      </trkpt>
      <trkpt lat="45.98612" lon="4.81755">
        <ele>238</ele>
        <time>2018-09-20T10:04:24Z</time>
      </trkpt>
      <trkpt lat="45.98607" lon="4.81756">
        <ele>238</ele>
        <time>2018-09-20T10:04:25Z</time>
      </trkpt>
      <trkpt lat="45.98601" lon="4.81758">
        <ele>238</ele>
        <time>2018-09-20T10:04:26Z</time>
      </trkpt>
      <trkpt lat="45.98598" lon="4.8176">
        <ele>238</ele>
        <time>2018-09-20T10:04:27Z</time>
      </trkpt>
      <trkpt lat="45.98592" lon="4.81763">
        <ele>237</ele>
        <time>2018-09-20T10:04:28Z</time>
      </trkpt>
      <trkpt lat="45.98587" lon="4.81766">
        <ele>237</ele>
        <time>2018-09-20T10:04:29Z</time>
      </trkpt>
      <trkpt lat="45.98582" lon="4.81771">
        <ele>237</ele>
        <time>2018-09-20T10:04:30Z</time>
      </trkpt>
      <trkpt lat="45.98579" lon="4.81777">
        <ele>238</ele>
        <time>2018-09-20T10:04:31Z</time>
      </trkpt>
      <trkpt lat="45.98573" lon="4.81782">
        <ele>238</ele>
        <time>2018-09-20T10:04:32Z</time>
      </trkpt>
      <trkpt lat="45.98569" lon="4.81787">
        <ele>238</ele>
        <time>2018-09-20T10:04:33Z</time>
      </trkpt>
      <trkpt lat="45.98564" lon="4.81792">
        <ele>238</ele>
        <time>2018-09-20T10:04:34Z</time>
      </trkpt>
      <trkpt lat="45.9856" lon="4.81797">
        <ele>238</ele>
        <time>2018-09-20T10:04:35Z</time>
      </trkpt>
      <trkpt lat="45.98554" lon="4.81802">
        <ele>238</ele>
        <time>2018-09-20T10:04:37Z</time>
      </trkpt>
      <trkpt lat="45.9855" lon="4.81806">
        <ele>238</ele>
        <time>2018-09-20T10:04:38Z</time>
      </trkpt>
      <trkpt lat="45.98542" lon="4.81803">
        <ele>238</ele>
        <time>2018-09-20T10:04:40Z</time>
      </trkpt>
      <trkpt lat="45.98537" lon="4.81799">
        <ele>238</ele>
        <time>2018-09-20T10:04:41Z</time>
      </trkpt>
      <trkpt lat="45.98533" lon="4.81793">
        <ele>238</ele>
        <time>2018-09-20T10:04:42Z</time>
      </trkpt>
      <trkpt lat="45.98529" lon="4.81788">
        <ele>238</ele>
        <time>2018-09-20T10:04:43Z</time>
      </trkpt>
      <trkpt lat="45.98525" lon="4.81782">
        <ele>238</ele>
        <time>2018-09-20T10:04:44Z</time>
      </trkpt>
      <trkpt lat="45.98522" lon="4.81778">
        <ele>238</ele>
        <time>2018-09-20T10:04:45Z</time>
      </trkpt>
      <trkpt lat="45.98517" lon="4.81769">
        <ele>238</ele>
        <time>2018-09-20T10:04:47Z</time>
      </trkpt>
      <trkpt lat="45.98514" lon="4.81765">
        <ele>237</ele>
        <time>2018-09-20T10:04:48Z</time>
      </trkpt>
      <trkpt lat="45.9851" lon="4.81761">
        <ele>237</ele>
        <time>2018-09-20T10:04:49Z</time>
      </trkpt>
      <trkpt lat="45.98507" lon="4.81757">
        <ele>237</ele>
        <time>2018-09-20T10:04:50Z</time>
      </trkpt>
      <trkpt lat="45.985" lon="4.81749">
        <ele>237</ele>
        <time>2018-09-20T10:04:52Z</time>
      </trkpt>
      <trkpt lat="45.98497" lon="4.81746">
        <ele>237</ele>
        <time>2018-09-20T10:04:53Z</time>
      </trkpt>
      <trkpt lat="45.98489" lon="4.8174">
        <ele>238</ele>
        <time>2018-09-20T10:04:55Z</time>
      </trkpt>
      <trkpt lat="45.98485" lon="4.81737">
        <ele>238</ele>
        <time>2018-09-20T10:04:56Z</time>
      </trkpt>
      <trkpt lat="45.98477" lon="4.8173">
        <ele>238</ele>
        <time>2018-09-20T10:04:58Z</time>
      </trkpt>
      <trkpt lat="45.98473" lon="4.81726">
        <ele>239</ele>
        <time>2018-09-20T10:04:59Z</time>
      </trkpt>
      <trkpt lat="45.98468" lon="4.81718">
        <ele>239</ele>
        <time>2018-09-20T10:05:01Z</time>
      </trkpt>
      <trkpt lat="45.98466" lon="4.81713">
        <ele>239</ele>
        <time>2018-09-20T10:05:02Z</time>
      </trkpt>
      <trkpt lat="45.9846" lon="4.81705">
        <ele>239</ele>
        <time>2018-09-20T10:05:04Z</time>
      </trkpt>
      <trkpt lat="45.98456" lon="4.81701">
        <ele>239</ele>
        <time>2018-09-20T10:05:05Z</time>
      </trkpt>
      <trkpt lat="45.98452" lon="4.81693">
        <ele>239</ele>
        <time>2018-09-20T10:05:07Z</time>
      </trkpt>
      <trkpt lat="45.98451" lon="4.81688">
        <ele>239</ele>
        <time>2018-09-20T10:05:08Z</time>
      </trkpt>
      <trkpt lat="45.98445" lon="4.81679">
        <ele>239</ele>
        <time>2018-09-20T10:05:10Z</time>
      </trkpt>
      <trkpt lat="45.98441" lon="4.81675">
        <ele>240</ele>
        <time>2018-09-20T10:05:11Z</time>
      </trkpt>
      <trkpt lat="45.98434" lon="4.81669">
        <ele>240</ele>
        <time>2018-09-20T10:05:13Z</time>
      </trkpt>
      <trkpt lat="45.98431" lon="4.81666">
        <ele>239</ele>
        <time>2018-09-20T10:05:14Z</time>
      </trkpt>
      <trkpt lat="45.98423" lon="4.81663">
        <ele>240</ele>
        <time>2018-09-20T10:05:16Z</time>
      </trkpt>
      <trkpt lat="45.98419" lon="4.81662">
        <ele>240</ele>
        <time>2018-09-20T10:05:17Z</time>
      </trkpt>
      <trkpt lat="45.98414" lon="4.81662">
        <ele>241</ele>
        <time>2018-09-20T10:05:18Z</time>
      </trkpt>
      <trkpt lat="45.98409" lon="4.81663">
        <ele>241</ele>
        <time>2018-09-20T10:05:19Z</time>
      </trkpt>
      <trkpt lat="45.98404" lon="4.81664">
        <ele>241</ele>
        <time>2018-09-20T10:05:20Z</time>
      </trkpt>
      <trkpt lat="45.98399" lon="4.81666">
        <ele>242</ele>
        <time>2018-09-20T10:05:21Z</time>
      </trkpt>
      <trkpt lat="45.98391" lon="4.81669">
        <ele>243</ele>
        <time>2018-09-20T10:05:23Z</time>
      </trkpt>
      <trkpt lat="45.98387" lon="4.8167">
        <ele>243</ele>
        <time>2018-09-20T10:05:24Z</time>
      </trkpt>
      <trkpt lat="45.98379" lon="4.8167">
        <ele>244</ele>
        <time>2018-09-20T10:05:26Z</time>
      </trkpt>
      <trkpt lat="45.98375" lon="4.81671">
        <ele>244</ele>
        <time>2018-09-20T10:05:27Z</time>
      </trkpt>
      <trkpt lat="45.98367" lon="4.81673">
        <ele>244</ele>
        <time>2018-09-20T10:05:29Z</time>
      </trkpt>
      <trkpt lat="45.98362" lon="4.81674">
        <ele>244</ele>
        <time>2018-09-20T10:05:30Z</time>
      </trkpt>
      <trkpt lat="45.98357" lon="4.81674">
        <ele>245</ele>
        <time>2018-09-20T10:05:31Z</time>
      </trkpt>
      <trkpt lat="45.98353" lon="4.81673">
        <ele>245</ele>
        <time>2018-09-20T10:05:32Z</time>
      </trkpt>
      <trkpt lat="45.98348" lon="4.81672">
        <ele>245</ele>
        <time>2018-09-20T10:05:33Z</time>
      </trkpt>
      <trkpt lat="45.98344" lon="4.81671">
        <ele>245</ele>
        <time>2018-09-20T10:05:34Z</time>
      </trkpt>
      <trkpt lat="45.98339" lon="4.81669">
        <ele>246</ele>
        <time>2018-09-20T10:05:35Z</time>
      </trkpt>
      <trkpt lat="45.98334" lon="4.81668">
        <ele>246</ele>
        <time>2018-09-20T10:05:36Z</time>
      </trkpt>
      <trkpt lat="45.98328" lon="4.81664">
        <ele>246</ele>
        <time>2018-09-20T10:05:38Z</time>
      </trkpt>
      <trkpt lat="45.98322" lon="4.81661">
        <ele>246</ele>
        <time>2018-09-20T10:05:39Z</time>
      </trkpt>
      <trkpt lat="45.98316" lon="4.81656">
        <ele>246</ele>
        <time>2018-09-20T10:05:41Z</time>
      </trkpt>
      <trkpt lat="45.98312" lon="4.81652">
        <ele>246</ele>
        <time>2018-09-20T10:05:42Z</time>
      </trkpt>
      <trkpt lat="45.98305" lon="4.81646">
        <ele>246</ele>
        <time>2018-09-20T10:05:44Z</time>
      </trkpt>
      <trkpt lat="45.98301" lon="4.81643">
        <ele>246</ele>
        <time>2018-09-20T10:05:45Z</time>
      </trkpt>
      <trkpt lat="45.98298" lon="4.8164">
        <ele>247</ele>
        <time>2018-09-20T10:05:46Z</time>
      </trkpt>
      <trkpt lat="45.98294" lon="4.81635">
        <ele>247</ele>
        <time>2018-09-20T10:05:47Z</time>
      </trkpt>
      <trkpt lat="45.98291" lon="4.81631">
        <ele>247</ele>
        <time>2018-09-20T10:05:48Z</time>
      </trkpt>
      <trkpt lat="45.98287" lon="4.81626">
        <ele>247</ele>
        <time>2018-09-20T10:05:49Z</time>
      </trkpt>
      <trkpt lat="45.98282" lon="4.81616">
        <ele>247</ele>
        <time>2018-09-20T10:05:51Z</time>
      </trkpt>
      <trkpt lat="45.9828" lon="4.81611">
        <ele>247</ele>
        <time>2018-09-20T10:05:52Z</time>
      </trkpt>
      <trkpt lat="45.98278" lon="4.81605">
        <ele>247</ele>
        <time>2018-09-20T10:05:53Z</time>
      </trkpt>
      <trkpt lat="45.98276" lon="4.81599">
        <ele>247</ele>
        <time>2018-09-20T10:05:54Z</time>
      </trkpt>
      <trkpt lat="45.98273" lon="4.81594">
        <ele>247</ele>
        <time>2018-09-20T10:05:55Z</time>
      </trkpt>
      <trkpt lat="45.98271" lon="4.81588">
        <ele>247</ele>
        <time>2018-09-20T10:05:56Z</time>
      </trkpt>
      <trkpt lat="45.98267" lon="4.81578">
        <ele>247</ele>
        <time>2018-09-20T10:05:58Z</time>
      </trkpt>
      <trkpt lat="45.98265" lon="4.81572">
        <ele>247</ele>
        <time>2018-09-20T10:05:59Z</time>
      </trkpt>
      <trkpt lat="45.98263" lon="4.81565">
        <ele>247</ele>
        <time>2018-09-20T10:06:01Z</time>
      </trkpt>
      <trkpt lat="45.9826" lon="4.81558">
        <ele>247</ele>
        <time>2018-09-20T10:06:02Z</time>
      </trkpt>
      <trkpt lat="45.98257" lon="4.81547">
        <ele>247</ele>
        <time>2018-09-20T10:06:04Z</time>
      </trkpt>
      <trkpt lat="45.98255" lon="4.81542">
        <ele>247</ele>
        <time>2018-09-20T10:06:05Z</time>
      </trkpt>
      <trkpt lat="45.98252" lon="4.8153">
        <ele>247</ele>
        <time>2018-09-20T10:06:07Z</time>
      </trkpt>
      <trkpt lat="45.98251" lon="4.81522">
        <ele>247</ele>
        <time>2018-09-20T10:06:08Z</time>
      </trkpt>
      <trkpt lat="45.98249" lon="4.81516">
        <ele>249</ele>
        <time>2018-09-20T10:06:09Z</time>
      </trkpt>
      <trkpt lat="45.98247" lon="4.81509">
        <ele>249</ele>
        <time>2018-09-20T10:06:10Z</time>
      </trkpt>
      <trkpt lat="45.98246" lon="4.81502">
        <ele>249</ele>
        <time>2018-09-20T10:06:11Z</time>
      </trkpt>
      <trkpt lat="45.98243" lon="4.81496">
        <ele>249</ele>
        <time>2018-09-20T10:06:12Z</time>
      </trkpt>
      <trkpt lat="45.98239" lon="4.81484">
        <ele>249</ele>
        <time>2018-09-20T10:06:15Z</time>
      </trkpt>
      <trkpt lat="45.98236" lon="4.81475">
        <ele>249</ele>
        <time>2018-09-20T10:06:16Z</time>
      </trkpt>
      <trkpt lat="45.98233" lon="4.81464">
        <ele>249</ele>
        <time>2018-09-20T10:06:18Z</time>
      </trkpt>
      <trkpt lat="45.98232" lon="4.81459">
        <ele>249</ele>
        <time>2018-09-20T10:06:19Z</time>
      </trkpt>
      <trkpt lat="45.98228" lon="4.81447">
        <ele>249</ele>
        <time>2018-09-20T10:06:21Z</time>
      </trkpt>
      <trkpt lat="45.98226" lon="4.81441">
        <ele>249</ele>
        <time>2018-09-20T10:06:22Z</time>
      </trkpt>
      <trkpt lat="45.98223" lon="4.8143">
        <ele>249</ele>
        <time>2018-09-20T10:06:24Z</time>
      </trkpt>
      <trkpt lat="45.98221" lon="4.81425">
        <ele>249</ele>
        <time>2018-09-20T10:06:25Z</time>
      </trkpt>
      <trkpt lat="45.98218" lon="4.81414">
        <ele>248</ele>
        <time>2018-09-20T10:06:27Z</time>
      </trkpt>
      <trkpt lat="45.98217" lon="4.81409">
        <ele>248</ele>
        <time>2018-09-20T10:06:28Z</time>
      </trkpt>
      <trkpt lat="45.98213" lon="4.81399">
        <ele>248</ele>
        <time>2018-09-20T10:06:30Z</time>
      </trkpt>
      <trkpt lat="45.98211" lon="4.81394">
        <ele>248</ele>
        <time>2018-09-20T10:06:31Z</time>
      </trkpt>
      <trkpt lat="45.98209" lon="4.81388">
        <ele>248</ele>
        <time>2018-09-20T10:06:32Z</time>
      </trkpt>
      <trkpt lat="45.98207" lon="4.81381">
        <ele>248</ele>
        <time>2018-09-20T10:06:33Z</time>
      </trkpt>
      <trkpt lat="45.98205" lon="4.81375">
        <ele>248</ele>
        <time>2018-09-20T10:06:34Z</time>
      </trkpt>
      <trkpt lat="45.98204" lon="4.81369">
        <ele>248</ele>
        <time>2018-09-20T10:06:35Z</time>
      </trkpt>
      <trkpt lat="45.98202" lon="4.81361">
        <ele>248</ele>
        <time>2018-09-20T10:06:36Z</time>
      </trkpt>
      <trkpt lat="45.982" lon="4.81353">
        <ele>248</ele>
        <time>2018-09-20T10:06:37Z</time>
      </trkpt>
      <trkpt lat="45.98198" lon="4.81346">
        <ele>248</ele>
        <time>2018-09-20T10:06:38Z</time>
      </trkpt>
      <trkpt lat="45.98196" lon="4.81338">
        <ele>248</ele>
        <time>2018-09-20T10:06:39Z</time>
      </trkpt>
      <trkpt lat="45.98195" lon="4.81329">
        <ele>247</ele>
        <time>2018-09-20T10:06:40Z</time>
      </trkpt>
      <trkpt lat="45.98194" lon="4.81322">
        <ele>247</ele>
        <time>2018-09-20T10:06:41Z</time>
      </trkpt>
      <trkpt lat="45.98192" lon="4.81314">
        <ele>247</ele>
        <time>2018-09-20T10:06:42Z</time>
      </trkpt>
      <trkpt lat="45.98191" lon="4.81305">
        <ele>247</ele>
        <time>2018-09-20T10:06:43Z</time>
      </trkpt>
      <trkpt lat="45.98189" lon="4.81298">
        <ele>247</ele>
        <time>2018-09-20T10:06:44Z</time>
      </trkpt>
      <trkpt lat="45.98187" lon="4.8129">
        <ele>247</ele>
        <time>2018-09-20T10:06:45Z</time>
      </trkpt>
      <trkpt lat="45.98185" lon="4.81282">
        <ele>247</ele>
        <time>2018-09-20T10:06:46Z</time>
      </trkpt>
      <trkpt lat="45.98184" lon="4.81274">
        <ele>247</ele>
        <time>2018-09-20T10:06:47Z</time>
      </trkpt>
      <trkpt lat="45.98181" lon="4.81266">
        <ele>247</ele>
        <time>2018-09-20T10:06:48Z</time>
      </trkpt>
      <trkpt lat="45.9818" lon="4.81258">
        <ele>247</ele>
        <time>2018-09-20T10:06:49Z</time>
      </trkpt>
      <trkpt lat="45.98179" lon="4.81253">
        <ele>247</ele>
        <time>2018-09-20T10:06:50Z</time>
      </trkpt>
      <trkpt lat="45.98177" lon="4.81245">
        <ele>247</ele>
        <time>2018-09-20T10:06:51Z</time>
      </trkpt>
      <trkpt lat="45.98175" lon="4.81237">
        <ele>247</ele>
        <time>2018-09-20T10:06:52Z</time>
      </trkpt>
      <trkpt lat="45.98175" lon="4.81229">
        <ele>246</ele>
        <time>2018-09-20T10:06:53Z</time>
      </trkpt>
      <trkpt lat="45.98173" lon="4.81222">
        <ele>246</ele>
        <time>2018-09-20T10:06:54Z</time>
      </trkpt>
      <trkpt lat="45.98172" lon="4.81214">
        <ele>246</ele>
        <time>2018-09-20T10:06:55Z</time>
      </trkpt>
      <trkpt lat="45.98172" lon="4.81205">
        <ele>245</ele>
        <time>2018-09-20T10:06:56Z</time>
      </trkpt>
      <trkpt lat="45.98171" lon="4.81197">
        <ele>245</ele>
        <time>2018-09-20T10:06:57Z</time>
      </trkpt>
      <trkpt lat="45.98169" lon="4.8119">
        <ele>245</ele>
        <time>2018-09-20T10:06:58Z</time>
      </trkpt>
      <trkpt lat="45.98169" lon="4.81181">
        <ele>245</ele>
        <time>2018-09-20T10:06:59Z</time>
      </trkpt>
      <trkpt lat="45.98166" lon="4.81173">
        <ele>245</ele>
        <time>2018-09-20T10:07:00Z</time>
      </trkpt>
      <trkpt lat="45.98165" lon="4.81165">
        <ele>245</ele>
        <time>2018-09-20T10:07:01Z</time>
      </trkpt>
      <trkpt lat="45.98163" lon="4.81157">
        <ele>245</ele>
        <time>2018-09-20T10:07:02Z</time>
      </trkpt>
      <trkpt lat="45.98159" lon="4.81149">
        <ele>245</ele>
        <time>2018-09-20T10:07:03Z</time>
      </trkpt>
      <trkpt lat="45.98156" lon="4.81141">
        <ele>245</ele>
        <time>2018-09-20T10:07:04Z</time>
      </trkpt>
      <trkpt lat="45.98154" lon="4.81135">
        <ele>245</ele>
        <time>2018-09-20T10:07:05Z</time>
      </trkpt>
      <trkpt lat="45.98151" lon="4.81126">
        <ele>245</ele>
        <time>2018-09-20T10:07:06Z</time>
      </trkpt>
      <trkpt lat="45.98147" lon="4.81118">
        <ele>245</ele>
        <time>2018-09-20T10:07:07Z</time>
      </trkpt>
      <trkpt lat="45.98145" lon="4.81111">
        <ele>245</ele>
        <time>2018-09-20T10:07:08Z</time>
      </trkpt>
      <trkpt lat="45.98142" lon="4.81104">
        <ele>245</ele>
        <time>2018-09-20T10:07:09Z</time>
      </trkpt>
      <trkpt lat="45.98139" lon="4.81097">
        <ele>245</ele>
        <time>2018-09-20T10:07:10Z</time>
      </trkpt>
      <trkpt lat="45.98136" lon="4.8109">
        <ele>245</ele>
        <time>2018-09-20T10:07:11Z</time>
      </trkpt>
      <trkpt lat="45.98134" lon="4.81082">
        <ele>243</ele>
        <time>2018-09-20T10:07:12Z</time>
      </trkpt>
      <trkpt lat="45.98132" lon="4.81075">
        <ele>243</ele>
        <time>2018-09-20T10:07:13Z</time>
      </trkpt>
      <trkpt lat="45.98129" lon="4.81067">
        <ele>243</ele>
        <time>2018-09-20T10:07:14Z</time>
      </trkpt>
      <trkpt lat="45.98126" lon="4.81061">
        <ele>243</ele>
        <time>2018-09-20T10:07:15Z</time>
      </trkpt>
      <trkpt lat="45.98122" lon="4.81052">
        <ele>243</ele>
        <time>2018-09-20T10:07:16Z</time>
      </trkpt>
      <trkpt lat="45.98119" lon="4.81045">
        <ele>242</ele>
        <time>2018-09-20T10:07:17Z</time>
      </trkpt>
      <trkpt lat="45.98116" lon="4.81037">
        <ele>242</ele>
        <time>2018-09-20T10:07:18Z</time>
      </trkpt>
      <trkpt lat="45.98114" lon="4.8103">
        <ele>242</ele>
        <time>2018-09-20T10:07:19Z</time>
      </trkpt>
      <trkpt lat="45.98112" lon="4.81023">
        <ele>242</ele>
        <time>2018-09-20T10:07:20Z</time>
      </trkpt>
      <trkpt lat="45.98109" lon="4.81016">
        <ele>242</ele>
        <time>2018-09-20T10:07:21Z</time>
      </trkpt>
      <trkpt lat="45.98107" lon="4.81007">
        <ele>242</ele>
        <time>2018-09-20T10:07:22Z</time>
      </trkpt>
      <trkpt lat="45.98104" lon="4.81">
        <ele>240</ele>
        <time>2018-09-20T10:07:23Z</time>
      </trkpt>
      <trkpt lat="45.98101" lon="4.80993">
        <ele>240</ele>
        <time>2018-09-20T10:07:24Z</time>
      </trkpt>
      <trkpt lat="45.98099" lon="4.80987">
        <ele>240</ele>
        <time>2018-09-20T10:07:25Z</time>
      </trkpt>
      <trkpt lat="45.98097" lon="4.8098">
        <ele>239</ele>
        <time>2018-09-20T10:07:26Z</time>
      </trkpt>
      <trkpt lat="45.98096" lon="4.80973">
        <ele>239</ele>
        <time>2018-09-20T10:07:27Z</time>
      </trkpt>
      <trkpt lat="45.98093" lon="4.80966">
        <ele>239</ele>
        <time>2018-09-20T10:07:28Z</time>
      </trkpt>
      <trkpt lat="45.9809" lon="4.80956">
        <ele>238</ele>
        <time>2018-09-20T10:07:29Z</time>
      </trkpt>
      <trkpt lat="45.98088" lon="4.80947">
        <ele>238</ele>
        <time>2018-09-20T10:07:30Z</time>
      </trkpt>
      <trkpt lat="45.98084" lon="4.80937">
        <ele>238</ele>
        <time>2018-09-20T10:07:31Z</time>
      </trkpt>
      <trkpt lat="45.98083" lon="4.80926">
        <ele>240</ele>
        <time>2018-09-20T10:07:32Z</time>
      </trkpt>
      <trkpt lat="45.98081" lon="4.80915">
        <ele>239</ele>
        <time>2018-09-20T10:07:33Z</time>
      </trkpt>
      <trkpt lat="45.98079" lon="4.80903">
        <ele>238</ele>
        <time>2018-09-20T10:07:34Z</time>
      </trkpt>
      <trkpt lat="45.98076" lon="4.80891">
        <ele>238</ele>
        <time>2018-09-20T10:07:35Z</time>
      </trkpt>
      <trkpt lat="45.98074" lon="4.80879">
        <ele>237</ele>
        <time>2018-09-20T10:07:36Z</time>
      </trkpt>
      <trkpt lat="45.9807" lon="4.80866">
        <ele>237</ele>
        <time>2018-09-20T10:07:37Z</time>
      </trkpt>
      <trkpt lat="45.98067" lon="4.80854">
        <ele>236</ele>
        <time>2018-09-20T10:07:38Z</time>
      </trkpt>
      <trkpt lat="45.98064" lon="4.80843">
        <ele>236</ele>
        <time>2018-09-20T10:07:39Z</time>
      </trkpt>
      <trkpt lat="45.9806" lon="4.80832">
        <ele>234</ele>
        <time>2018-09-20T10:07:40Z</time>
      </trkpt>
      <trkpt lat="45.98059" lon="4.80821">
        <ele>234</ele>
        <time>2018-09-20T10:07:41Z</time>
      </trkpt>
      <trkpt lat="45.98057" lon="4.80809">
        <ele>234</ele>
        <time>2018-09-20T10:07:42Z</time>
      </trkpt>
      <trkpt lat="45.98054" lon="4.80799">
        <ele>233</ele>
        <time>2018-09-20T10:07:43Z</time>
      </trkpt>
      <trkpt lat="45.98052" lon="4.80789">
        <ele>233</ele>
        <time>2018-09-20T10:07:44Z</time>
      </trkpt>
      <trkpt lat="45.9805" lon="4.8078">
        <ele>233</ele>
        <time>2018-09-20T10:07:45Z</time>
      </trkpt>
      <trkpt lat="45.98048" lon="4.80772">
        <ele>233</ele>
        <time>2018-09-20T10:07:46Z</time>
      </trkpt>
      <trkpt lat="45.98045" lon="4.80763">
        <ele>233</ele>
        <time>2018-09-20T10:07:47Z</time>
      </trkpt>
      <trkpt lat="45.98043" lon="4.80757">
        <ele>233</ele>
        <time>2018-09-20T10:07:48Z</time>
      </trkpt>
      <trkpt lat="45.98041" lon="4.8075">
        <ele>231</ele>
        <time>2018-09-20T10:07:49Z</time>
      </trkpt>
      <trkpt lat="45.98039" lon="4.80743">
        <ele>231</ele>
        <time>2018-09-20T10:07:50Z</time>
      </trkpt>
      <trkpt lat="45.98038" lon="4.80737">
        <ele>231</ele>
        <time>2018-09-20T10:07:51Z</time>
      </trkpt>
      <trkpt lat="45.98036" lon="4.80728">
        <ele>231</ele>
        <time>2018-09-20T10:07:53Z</time>
      </trkpt>
      <trkpt lat="45.98033" lon="4.80719">
        <ele>231</ele>
        <time>2018-09-20T10:07:54Z</time>
      </trkpt>
      <trkpt lat="45.9803" lon="4.80707">
        <ele>231</ele>
        <time>2018-09-20T10:07:56Z</time>
      </trkpt>
      <trkpt lat="45.98032" lon="4.80702">
        <ele>230</ele>
        <time>2018-09-20T10:07:57Z</time>
      </trkpt>
      <trkpt lat="45.9804" lon="4.80697">
        <ele>230</ele>
        <time>2018-09-20T10:07:59Z</time>
      </trkpt>
      <trkpt lat="45.98044" lon="4.80695">
        <ele>230</ele>
        <time>2018-09-20T10:08:00Z</time>
      </trkpt>
      <trkpt lat="45.9805" lon="4.80696">
        <ele>230</ele>
        <time>2018-09-20T10:08:01Z</time>
      </trkpt>
      <trkpt lat="45.98056" lon="4.80696">
        <ele>230</ele>
        <time>2018-09-20T10:08:02Z</time>
      </trkpt>
      <trkpt lat="45.98061" lon="4.80695">
        <ele>230</ele>
        <time>2018-09-20T10:08:03Z</time>
      </trkpt>
      <trkpt lat="45.98068" lon="4.80695">
        <ele>230</ele>
        <time>2018-09-20T10:08:04Z</time>
      </trkpt>
      <trkpt lat="45.98074" lon="4.80697">
        <ele>230</ele>
        <time>2018-09-20T10:08:05Z</time>
      </trkpt>
      <trkpt lat="45.9808" lon="4.80697">
        <ele>230</ele>
        <time>2018-09-20T10:08:06Z</time>
      </trkpt>
      <trkpt lat="45.98087" lon="4.80697">
        <ele>228</ele>
        <time>2018-09-20T10:08:07Z</time>
      </trkpt>
      <trkpt lat="45.98095" lon="4.80695">
        <ele>228</ele>
        <time>2018-09-20T10:08:08Z</time>
      </trkpt>
      <trkpt lat="45.98102" lon="4.80695">
        <ele>228</ele>
        <time>2018-09-20T10:08:09Z</time>
      </trkpt>
      <trkpt lat="45.98108" lon="4.80696">
        <ele>228</ele>
        <time>2018-09-20T10:08:10Z</time>
      </trkpt>
      <trkpt lat="45.98116" lon="4.80693">
        <ele>228</ele>
        <time>2018-09-20T10:08:11Z</time>
      </trkpt>
      <trkpt lat="45.98124" lon="4.80693">
        <ele>228</ele>
        <time>2018-09-20T10:08:12Z</time>
      </trkpt>
      <trkpt lat="45.9813" lon="4.80694">
        <ele>228</ele>
        <time>2018-09-20T10:08:13Z</time>
      </trkpt>
      <trkpt lat="45.98137" lon="4.80694">
        <ele>228</ele>
        <time>2018-09-20T10:08:14Z</time>
      </trkpt>
      <trkpt lat="45.98144" lon="4.80694">
        <ele>228</ele>
        <time>2018-09-20T10:08:15Z</time>
      </trkpt>
      <trkpt lat="45.98151" lon="4.80694">
        <ele>228</ele>
        <time>2018-09-20T10:08:16Z</time>
      </trkpt>
      <trkpt lat="45.98158" lon="4.80693">
        <ele>227</ele>
        <time>2018-09-20T10:08:17Z</time>
      </trkpt>
      <trkpt lat="45.98165" lon="4.80691">
        <ele>227</ele>
        <time>2018-09-20T10:08:18Z</time>
      </trkpt>
      <trkpt lat="45.98172" lon="4.8069">
        <ele>225</ele>
        <time>2018-09-20T10:08:19Z</time>
      </trkpt>
      <trkpt lat="45.9818" lon="4.80687">
        <ele>225</ele>
        <time>2018-09-20T10:08:20Z</time>
      </trkpt>
      <trkpt lat="45.98186" lon="4.80685">
        <ele>225</ele>
        <time>2018-09-20T10:08:21Z</time>
      </trkpt>
      <trkpt lat="45.98193" lon="4.80684">
        <ele>225</ele>
        <time>2018-09-20T10:08:22Z</time>
      </trkpt>
      <trkpt lat="45.98199" lon="4.80682">
        <ele>225</ele>
        <time>2018-09-20T10:08:23Z</time>
      </trkpt>
      <trkpt lat="45.98206" lon="4.80678">
        <ele>224</ele>
        <time>2018-09-20T10:08:24Z</time>
      </trkpt>
      <trkpt lat="45.98213" lon="4.80674">
        <ele>224</ele>
        <time>2018-09-20T10:08:25Z</time>
      </trkpt>
      <trkpt lat="45.98218" lon="4.80671">
        <ele>224</ele>
        <time>2018-09-20T10:08:26Z</time>
      </trkpt>
      <trkpt lat="45.98225" lon="4.80666">
        <ele>223</ele>
        <time>2018-09-20T10:08:27Z</time>
      </trkpt>
      <trkpt lat="45.98229" lon="4.80659">
        <ele>223</ele>
        <time>2018-09-20T10:08:28Z</time>
      </trkpt>
      <trkpt lat="45.98233" lon="4.8065">
        <ele>223</ele>
        <time>2018-09-20T10:08:29Z</time>
      </trkpt>
      <trkpt lat="45.98236" lon="4.80641">
        <ele>223</ele>
        <time>2018-09-20T10:08:30Z</time>
      </trkpt>
      <trkpt lat="45.98239" lon="4.80632">
        <ele>224</ele>
        <time>2018-09-20T10:08:31Z</time>
      </trkpt>
      <trkpt lat="45.98242" lon="4.80623">
        <ele>224</ele>
        <time>2018-09-20T10:08:32Z</time>
      </trkpt>
      <trkpt lat="45.98245" lon="4.80613">
        <ele>224</ele>
        <time>2018-09-20T10:08:33Z</time>
      </trkpt>
      <trkpt lat="45.98248" lon="4.80604">
        <ele>224</ele>
        <time>2018-09-20T10:08:34Z</time>
      </trkpt>
      <trkpt lat="45.9825" lon="4.80595">
        <ele>224</ele>
        <time>2018-09-20T10:08:35Z</time>
      </trkpt>
      <trkpt lat="45.98252" lon="4.80586">
        <ele>224</ele>
        <time>2018-09-20T10:08:36Z</time>
      </trkpt>
      <trkpt lat="45.98255" lon="4.80577">
        <ele>224</ele>
        <time>2018-09-20T10:08:37Z</time>
      </trkpt>
      <trkpt lat="45.98258" lon="4.80568">
        <ele>224</ele>
        <time>2018-09-20T10:08:38Z</time>
      </trkpt>
      <trkpt lat="45.98259" lon="4.80561">
        <ele>224</ele>
        <time>2018-09-20T10:08:39Z</time>
      </trkpt>
      <trkpt lat="45.98261" lon="4.80552">
        <ele>224</ele>
        <time>2018-09-20T10:08:40Z</time>
      </trkpt>
      <trkpt lat="45.98263" lon="4.80545">
        <ele>224</ele>
        <time>2018-09-20T10:08:41Z</time>
      </trkpt>
      <trkpt lat="45.98266" lon="4.80538">
        <ele>224</ele>
        <time>2018-09-20T10:08:42Z</time>
      </trkpt>
      <trkpt lat="45.98269" lon="4.80531">
        <ele>224</ele>
        <time>2018-09-20T10:08:43Z</time>
      </trkpt>
      <trkpt lat="45.98272" lon="4.80524">
        <ele>224</ele>
        <time>2018-09-20T10:08:44Z</time>
      </trkpt>
      <trkpt lat="45.98273" lon="4.80516">
        <ele>224</ele>
        <time>2018-09-20T10:08:45Z</time>
      </trkpt>
      <trkpt lat="45.98274" lon="4.80509">
        <ele>223</ele>
        <time>2018-09-20T10:08:46Z</time>
      </trkpt>
      <trkpt lat="45.98276" lon="4.80502">
        <ele>223</ele>
        <time>2018-09-20T10:08:47Z</time>
      </trkpt>
      <trkpt lat="45.98277" lon="4.80494">
        <ele>223</ele>
        <time>2018-09-20T10:08:48Z</time>
      </trkpt>
      <trkpt lat="45.98279" lon="4.80487">
        <ele>223</ele>
        <time>2018-09-20T10:08:49Z</time>
      </trkpt>
      <trkpt lat="45.98281" lon="4.80478">
        <ele>223</ele>
        <time>2018-09-20T10:08:50Z</time>
      </trkpt>
      <trkpt lat="45.98283" lon="4.80471">
        <ele>223</ele>
        <time>2018-09-20T10:08:51Z</time>
      </trkpt>
      <trkpt lat="45.98285" lon="4.80463">
        <ele>224</ele>
        <time>2018-09-20T10:08:52Z</time>
      </trkpt>
      <trkpt lat="45.98286" lon="4.80454">
        <ele>224</ele>
        <time>2018-09-20T10:08:53Z</time>
      </trkpt>
      <trkpt lat="45.98287" lon="4.80447">
        <ele>224</ele>
        <time>2018-09-20T10:08:54Z</time>
      </trkpt>
      <trkpt lat="45.98289" lon="4.8044">
        <ele>224</ele>
        <time>2018-09-20T10:08:55Z</time>
      </trkpt>
      <trkpt lat="45.9829" lon="4.80433">
        <ele>224</ele>
        <time>2018-09-20T10:08:56Z</time>
      </trkpt>
      <trkpt lat="45.98289" lon="4.80425">
        <ele>224</ele>
        <time>2018-09-20T10:08:57Z</time>
      </trkpt>
      <trkpt lat="45.9829" lon="4.80419">
        <ele>224</ele>
        <time>2018-09-20T10:08:58Z</time>
      </trkpt>
      <trkpt lat="45.98291" lon="4.80409">
        <ele>224</ele>
        <time>2018-09-20T10:09:00Z</time>
      </trkpt>
      <trkpt lat="45.98292" lon="4.80403">
        <ele>224</ele>
        <time>2018-09-20T10:09:01Z</time>
      </trkpt>
      <trkpt lat="45.98293" lon="4.80395">
        <ele>224</ele>
        <time>2018-09-20T10:09:02Z</time>
      </trkpt>
      <trkpt lat="45.98295" lon="4.8039">
        <ele>224</ele>
        <time>2018-09-20T10:09:03Z</time>
      </trkpt>
      <trkpt lat="45.98296" lon="4.80377">
        <ele>225</ele>
        <time>2018-09-20T10:09:05Z</time>
      </trkpt>
      <trkpt lat="45.98299" lon="4.8037">
        <ele>225</ele>
        <time>2018-09-20T10:09:06Z</time>
      </trkpt>
      <trkpt lat="45.98301" lon="4.80362">
        <ele>225</ele>
        <time>2018-09-20T10:09:07Z</time>
      </trkpt>
      <trkpt lat="45.98302" lon="4.80355">
        <ele>225</ele>
        <time>2018-09-20T10:09:08Z</time>
      </trkpt>
      <trkpt lat="45.98306" lon="4.80346">
        <ele>226</ele>
        <time>2018-09-20T10:09:10Z</time>
      </trkpt>
      <trkpt lat="45.98307" lon="4.8034">
        <ele>226</ele>
        <time>2018-09-20T10:09:11Z</time>
      </trkpt>
      <trkpt lat="45.98309" lon="4.8033">
        <ele>226</ele>
        <time>2018-09-20T10:09:13Z</time>
      </trkpt>
      <trkpt lat="45.98309" lon="4.80327">
        <ele>226</ele>
        <time>2018-09-20T10:09:14Z</time>
      </trkpt>
      <trkpt lat="45.98309" lon="4.80321">
        <ele>226</ele>
        <time>2018-09-20T10:09:15Z</time>
      </trkpt>
      <trkpt lat="45.98311" lon="4.80314">
        <ele>226</ele>
        <time>2018-09-20T10:09:16Z</time>
      </trkpt>
      <trkpt lat="45.98313" lon="4.80306">
        <ele>226</ele>
        <time>2018-09-20T10:09:17Z</time>
      </trkpt>
      <trkpt lat="45.98314" lon="4.80301">
        <ele>226</ele>
        <time>2018-09-20T10:09:18Z</time>
      </trkpt>
      <trkpt lat="45.98316" lon="4.80295">
        <ele>226</ele>
        <time>2018-09-20T10:09:19Z</time>
      </trkpt>
      <trkpt lat="45.98317" lon="4.80288">
        <ele>226</ele>
        <time>2018-09-20T10:09:20Z</time>
      </trkpt>
      <trkpt lat="45.98321" lon="4.80277">
        <ele>227</ele>
        <time>2018-09-20T10:09:22Z</time>
      </trkpt>
      <trkpt lat="45.98323" lon="4.80272">
        <ele>227</ele>
        <time>2018-09-20T10:09:23Z</time>
      </trkpt>
      <trkpt lat="45.98325" lon="4.80263">
        <ele>228</ele>
        <time>2018-09-20T10:09:25Z</time>
      </trkpt>
      <trkpt lat="45.98326" lon="4.80257">
        <ele>228</ele>
        <time>2018-09-20T10:09:26Z</time>
      </trkpt>
      <trkpt lat="45.98328" lon="4.8025">
        <ele>229</ele>
        <time>2018-09-20T10:09:28Z</time>
      </trkpt>
      <trkpt lat="45.98331" lon="4.80243">
        <ele>229</ele>
        <time>2018-09-20T10:09:29Z</time>
      </trkpt>
      <trkpt lat="45.98335" lon="4.80235">
        <ele>230</ele>
        <time>2018-09-20T10:09:32Z</time>
      </trkpt>
      <trkpt lat="45.98336" lon="4.80231">
        <ele>230</ele>
        <time>2018-09-20T10:09:33Z</time>
      </trkpt>
      <trkpt lat="45.98339" lon="4.80221">
        <ele>230</ele>
        <time>2018-09-20T10:09:34Z</time>
      </trkpt>
      <trkpt lat="45.98339" lon="4.80216">
        <ele>230</ele>
        <time>2018-09-20T10:09:35Z</time>
      </trkpt>
      <trkpt lat="45.98338" lon="4.80208">
        <ele>230</ele>
        <time>2018-09-20T10:09:37Z</time>
      </trkpt>
      <trkpt lat="45.98335" lon="4.80202">
        <ele>230</ele>
        <time>2018-09-20T10:09:38Z</time>
      </trkpt>
      <trkpt lat="45.98332" lon="4.80192">
        <ele>227</ele>
        <time>2018-09-20T10:09:40Z</time>
      </trkpt>
      <trkpt lat="45.98331" lon="4.80187">
        <ele>227</ele>
        <time>2018-09-20T10:09:41Z</time>
      </trkpt>
      <trkpt lat="45.98326" lon="4.80179">
        <ele>227</ele>
        <time>2018-09-20T10:09:43Z</time>
      </trkpt>
      <trkpt lat="45.98324" lon="4.80174">
        <ele>227</ele>
        <time>2018-09-20T10:09:44Z</time>
      </trkpt>
      <trkpt lat="45.98321" lon="4.80165">
        <ele>228</ele>
        <time>2018-09-20T10:09:46Z</time>
      </trkpt>
      <trkpt lat="45.9832" lon="4.8016">
        <ele>228</ele>
        <time>2018-09-20T10:09:47Z</time>
      </trkpt>
      <trkpt lat="45.98316" lon="4.80149">
        <ele>228</ele>
        <time>2018-09-20T10:09:49Z</time>
      </trkpt>
      <trkpt lat="45.98313" lon="4.80144">
        <ele>228</ele>
        <time>2018-09-20T10:09:50Z</time>
      </trkpt>
      <trkpt lat="45.98311" lon="4.80138">
        <ele>228</ele>
        <time>2018-09-20T10:09:51Z</time>
      </trkpt>
      <trkpt lat="45.98309" lon="4.80132">
        <ele>228</ele>
        <time>2018-09-20T10:09:52Z</time>
      </trkpt>
      <trkpt lat="45.98307" lon="4.80125">
        <ele>228</ele>
        <time>2018-09-20T10:09:53Z</time>
      </trkpt>
      <trkpt lat="45.98305" lon="4.80119">
        <ele>228</ele>
        <time>2018-09-20T10:09:54Z</time>
      </trkpt>
      <trkpt lat="45.98302" lon="4.80112">
        <ele>228</ele>
        <time>2018-09-20T10:09:55Z</time>
      </trkpt>
      <trkpt lat="45.98301" lon="4.80105">
        <ele>228</ele>
        <time>2018-09-20T10:09:56Z</time>
      </trkpt>
      <trkpt lat="45.98299" lon="4.80096">
        <ele>228</ele>
        <time>2018-09-20T10:09:58Z</time>
      </trkpt>
      <trkpt lat="45.98297" lon="4.80089">
        <ele>228</ele>
        <time>2018-09-20T10:09:59Z</time>
      </trkpt>
      <trkpt lat="45.98294" lon="4.80083">
        <ele>229</ele>
        <time>2018-09-20T10:10:00Z</time>
      </trkpt>
      <trkpt lat="45.98292" lon="4.80077">
        <ele>229</ele>
        <time>2018-09-20T10:10:01Z</time>
      </trkpt>
      <trkpt lat="45.98289" lon="4.80071">
        <ele>229</ele>
        <time>2018-09-20T10:10:02Z</time>
      </trkpt>
      <trkpt lat="45.98287" lon="4.80065">
        <ele>229</ele>
        <time>2018-09-20T10:10:03Z</time>
      </trkpt>
      <trkpt lat="45.98284" lon="4.8006">
        <ele>229</ele>
        <time>2018-09-20T10:10:04Z</time>
      </trkpt>
      <trkpt lat="45.98281" lon="4.80054">
        <ele>229</ele>
        <time>2018-09-20T10:10:05Z</time>
      </trkpt>
      <trkpt lat="45.98279" lon="4.80048">
        <ele>229</ele>
        <time>2018-09-20T10:10:06Z</time>
      </trkpt>
      <trkpt lat="45.98277" lon="4.80042">
        <ele>229</ele>
        <time>2018-09-20T10:10:07Z</time>
      </trkpt>
      <trkpt lat="45.98276" lon="4.80036">
        <ele>229</ele>
        <time>2018-09-20T10:10:08Z</time>
      </trkpt>
      <trkpt lat="45.98273" lon="4.8003">
        <ele>229</ele>
        <time>2018-09-20T10:10:09Z</time>
      </trkpt>
      <trkpt lat="45.98269" lon="4.80019">
        <ele>228</ele>
        <time>2018-09-20T10:10:11Z</time>
      </trkpt>
      <trkpt lat="45.98267" lon="4.80012">
        <ele>228</ele>
        <time>2018-09-20T10:10:12Z</time>
      </trkpt>
      <trkpt lat="45.98265" lon="4.80005">
        <ele>228</ele>
        <time>2018-09-20T10:10:13Z</time>
      </trkpt>
      <trkpt lat="45.98261" lon="4.79999">
        <ele>227</ele>
        <time>2018-09-20T10:10:14Z</time>
      </trkpt>
      <trkpt lat="45.9826" lon="4.79992">
        <ele>228</ele>
        <time>2018-09-20T10:10:15Z</time>
      </trkpt>
      <trkpt lat="45.98258" lon="4.79985">
        <ele>228</ele>
        <time>2018-09-20T10:10:16Z</time>
      </trkpt>
      <trkpt lat="45.98254" lon="4.79974">
        <ele>228</ele>
        <time>2018-09-20T10:10:18Z</time>
      </trkpt>
      <trkpt lat="45.98251" lon="4.79969">
        <ele>228</ele>
        <time>2018-09-20T10:10:19Z</time>
      </trkpt>
      <trkpt lat="45.9825" lon="4.79964">
        <ele>225</ele>
        <time>2018-09-20T10:10:20Z</time>
      </trkpt>
      <trkpt lat="45.98247" lon="4.79957">
        <ele>225</ele>
        <time>2018-09-20T10:10:21Z</time>
      </trkpt>
      <trkpt lat="45.98245" lon="4.79952">
        <ele>225</ele>
        <time>2018-09-20T10:10:22Z</time>
      </trkpt>
      <trkpt lat="45.98242" lon="4.79946">
        <ele>225</ele>
        <time>2018-09-20T10:10:23Z</time>
      </trkpt>
      <trkpt lat="45.98238" lon="4.79936">
        <ele>225</ele>
        <time>2018-09-20T10:10:25Z</time>
      </trkpt>
      <trkpt lat="45.98236" lon="4.7993">
        <ele>225</ele>
        <time>2018-09-20T10:10:26Z</time>
      </trkpt>
      <trkpt lat="45.98234" lon="4.79924">
        <ele>225</ele>
        <time>2018-09-20T10:10:27Z</time>
      </trkpt>
      <trkpt lat="45.98231" lon="4.79918">
        <ele>225</ele>
        <time>2018-09-20T10:10:28Z</time>
      </trkpt>
      <trkpt lat="45.98229" lon="4.79912">
        <ele>225</ele>
        <time>2018-09-20T10:10:29Z</time>
      </trkpt>
      <trkpt lat="45.98228" lon="4.79905">
        <ele>225</ele>
        <time>2018-09-20T10:10:30Z</time>
      </trkpt>
      <trkpt lat="45.98226" lon="4.79897">
        <ele>225</ele>
        <time>2018-09-20T10:10:32Z</time>
      </trkpt>
      <trkpt lat="45.98223" lon="4.79888">
        <ele>225</ele>
        <time>2018-09-20T10:10:33Z</time>
      </trkpt>
      <trkpt lat="45.98218" lon="4.79878">
        <ele>225</ele>
        <time>2018-09-20T10:10:35Z</time>
      </trkpt>
      <trkpt lat="45.98216" lon="4.79872">
        <ele>225</ele>
        <time>2018-09-20T10:10:36Z</time>
      </trkpt>
      <trkpt lat="45.98211" lon="4.79865">
        <ele>225</ele>
        <time>2018-09-20T10:10:37Z</time>
      </trkpt>
      <trkpt lat="45.9821" lon="4.79858">
        <ele>225</ele>
        <time>2018-09-20T10:10:38Z</time>
      </trkpt>
      <trkpt lat="45.98207" lon="4.79852">
        <ele>225</ele>
        <time>2018-09-20T10:10:39Z</time>
      </trkpt>
      <trkpt lat="45.98205" lon="4.79846">
        <ele>225</ele>
        <time>2018-09-20T10:10:40Z</time>
      </trkpt>
      <trkpt lat="45.98202" lon="4.7984">
        <ele>225</ele>
        <time>2018-09-20T10:10:41Z</time>
      </trkpt>
      <trkpt lat="45.98199" lon="4.79834">
        <ele>225</ele>
        <time>2018-09-20T10:10:42Z</time>
      </trkpt>
      <trkpt lat="45.98197" lon="4.79827">
        <ele>225</ele>
        <time>2018-09-20T10:10:43Z</time>
      </trkpt>
      <trkpt lat="45.98194" lon="4.79822">
        <ele>225</ele>
        <time>2018-09-20T10:10:44Z</time>
      </trkpt>
      <trkpt lat="45.98191" lon="4.7981">
        <ele>226</ele>
        <time>2018-09-20T10:10:47Z</time>
      </trkpt>
      <trkpt lat="45.9819" lon="4.79807">
        <ele>226</ele>
        <time>2018-09-20T10:10:48Z</time>
      </trkpt>
      <trkpt lat="45.98187" lon="4.79795">
        <ele>226</ele>
        <time>2018-09-20T10:10:49Z</time>
      </trkpt>
      <trkpt lat="45.98187" lon="4.79792">
        <ele>226</ele>
        <time>2018-09-20T10:10:50Z</time>
      </trkpt>
      <trkpt lat="45.98187" lon="4.79781">
        <ele>226</ele>
        <time>2018-09-20T10:10:53Z</time>
      </trkpt>
      <trkpt lat="45.98187" lon="4.79778">
        <ele>226</ele>
        <time>2018-09-20T10:10:54Z</time>
      </trkpt>
      <trkpt lat="45.9819" lon="4.79767">
        <ele>226</ele>
        <time>2018-09-20T10:10:57Z</time>
      </trkpt>
      <trkpt lat="45.98192" lon="4.79763">
        <ele>226</ele>
        <time>2018-09-20T10:10:58Z</time>
      </trkpt>
      <trkpt lat="45.98197" lon="4.79757">
        <ele>226</ele>
        <time>2018-09-20T10:11:00Z</time>
      </trkpt>
      <trkpt lat="45.982" lon="4.79755">
        <ele>226</ele>
        <time>2018-09-20T10:11:01Z</time>
      </trkpt>
      <trkpt lat="45.98206" lon="4.79753">
        <ele>226</ele>
        <time>2018-09-20T10:11:03Z</time>
      </trkpt>
      <trkpt lat="45.98209" lon="4.79752">
        <ele>226</ele>
        <time>2018-09-20T10:11:04Z</time>
      </trkpt>
      <trkpt lat="45.98215" lon="4.7975">
        <ele>227</ele>
        <time>2018-09-20T10:11:06Z</time>
      </trkpt>
      <trkpt lat="45.98218" lon="4.7975">
        <ele>228</ele>
        <time>2018-09-20T10:11:07Z</time>
      </trkpt>
      <trkpt lat="45.98224" lon="4.79749">
        <ele>228</ele>
        <time>2018-09-20T10:11:09Z</time>
      </trkpt>
      <trkpt lat="45.98227" lon="4.79748">
        <ele>228</ele>
        <time>2018-09-20T10:11:10Z</time>
      </trkpt>
      <trkpt lat="45.98233" lon="4.79748">
        <ele>228</ele>
        <time>2018-09-20T10:11:12Z</time>
      </trkpt>
      <trkpt lat="45.98236" lon="4.79747">
        <ele>228</ele>
        <time>2018-09-20T10:11:13Z</time>
      </trkpt>
      <trkpt lat="45.98245" lon="4.79747">
        <ele>228</ele>
        <time>2018-09-20T10:11:16Z</time>
      </trkpt>
      <trkpt lat="45.98248" lon="4.79746">
        <ele>228</ele>
        <time>2018-09-20T10:11:17Z</time>
      </trkpt>
      <trkpt lat="45.98254" lon="4.79745">
        <ele>230</ele>
        <time>2018-09-20T10:11:19Z</time>
      </trkpt>
      <trkpt lat="45.98257" lon="4.79745">
        <ele>230</ele>
        <time>2018-09-20T10:11:20Z</time>
      </trkpt>
      <trkpt lat="45.98263" lon="4.79743">
        <ele>231</ele>
        <time>2018-09-20T10:11:22Z</time>
      </trkpt>
      <trkpt lat="45.98272" lon="4.79742">
        <ele>232</ele>
        <time>2018-09-20T10:11:23Z</time>
      </trkpt>
      <trkpt lat="45.98279" lon="4.79742">
        <ele>233</ele>
        <time>2018-09-20T10:11:27Z</time>
      </trkpt>
      <trkpt lat="45.98281" lon="4.79742">
        <ele>233</ele>
        <time>2018-09-20T10:11:28Z</time>
      </trkpt>
      <trkpt lat="45.98288" lon="4.79741">
        <ele>234</ele>
        <time>2018-09-20T10:11:31Z</time>
      </trkpt>
      <trkpt lat="45.98291" lon="4.79741">
        <ele>234</ele>
        <time>2018-09-20T10:11:32Z</time>
      </trkpt>
      <trkpt lat="45.98298" lon="4.7974">
        <ele>235</ele>
        <time>2018-09-20T10:11:33Z</time>
      </trkpt>
      <trkpt lat="45.983" lon="4.7974">
        <ele>235</ele>
        <time>2018-09-20T10:11:34Z</time>
      </trkpt>
      <trkpt lat="45.98308" lon="4.7974">
        <ele>235</ele>
        <time>2018-09-20T10:11:38Z</time>
      </trkpt>
      <trkpt lat="45.98311" lon="4.7974">
        <ele>236</ele>
        <time>2018-09-20T10:11:39Z</time>
      </trkpt>
      <trkpt lat="45.9832" lon="4.79739">
        <ele>236</ele>
        <time>2018-09-20T10:11:42Z</time>
      </trkpt>
      <trkpt lat="45.98323" lon="4.79738">
        <ele>236</ele>
        <time>2018-09-20T10:11:43Z</time>
      </trkpt>
      <trkpt lat="45.98329" lon="4.79737">
        <ele>236</ele>
        <time>2018-09-20T10:11:45Z</time>
      </trkpt>
      <trkpt lat="45.98333" lon="4.79737">
        <ele>236</ele>
        <time>2018-09-20T10:11:46Z</time>
      </trkpt>
      <trkpt lat="45.98339" lon="4.79736">
        <ele>239</ele>
        <time>2018-09-20T10:11:48Z</time>
      </trkpt>
      <trkpt lat="45.98343" lon="4.79735">
        <ele>239</ele>
        <time>2018-09-20T10:11:49Z</time>
      </trkpt>
      <trkpt lat="45.98352" lon="4.79734">
        <ele>240</ele>
        <time>2018-09-20T10:11:50Z</time>
      </trkpt>
      <trkpt lat="45.98361" lon="4.79733">
        <ele>240</ele>
        <time>2018-09-20T10:11:54Z</time>
      </trkpt>
      <trkpt lat="45.98363" lon="4.79732">
        <ele>240</ele>
        <time>2018-09-20T10:11:55Z</time>
      </trkpt>
      <trkpt lat="45.98372" lon="4.7973">
        <ele>240</ele>
        <time>2018-09-20T10:11:58Z</time>
      </trkpt>
      <trkpt lat="45.98374" lon="4.7973">
        <ele>241</ele>
        <time>2018-09-20T10:11:59Z</time>
      </trkpt>
      <trkpt lat="45.98383" lon="4.79728">
        <ele>241</ele>
        <time>2018-09-20T10:12:02Z</time>
      </trkpt>
      <trkpt lat="45.98386" lon="4.79728">
        <ele>241</ele>
        <time>2018-09-20T10:12:03Z</time>
      </trkpt>
      <trkpt lat="45.98394" lon="4.79727">
        <ele>241</ele>
        <time>2018-09-20T10:12:06Z</time>
      </trkpt>
      <trkpt lat="45.98397" lon="4.79727">
        <ele>241</ele>
        <time>2018-09-20T10:12:07Z</time>
      </trkpt>
      <trkpt lat="45.98405" lon="4.79726">
        <ele>241</ele>
        <time>2018-09-20T10:12:10Z</time>
      </trkpt>
      <trkpt lat="45.98408" lon="4.79726">
        <ele>241</ele>
        <time>2018-09-20T10:12:11Z</time>
      </trkpt>
      <trkpt lat="45.98416" lon="4.79724">
        <ele>241</ele>
        <time>2018-09-20T10:12:14Z</time>
      </trkpt>
      <trkpt lat="45.98418" lon="4.79724">
        <ele>242</ele>
        <time>2018-09-20T10:12:15Z</time>
      </trkpt>
      <trkpt lat="45.98426" lon="4.79723">
        <ele>242</ele>
        <time>2018-09-20T10:12:18Z</time>
      </trkpt>
      <trkpt lat="45.98428" lon="4.79723">
        <ele>242</ele>
        <time>2018-09-20T10:12:19Z</time>
      </trkpt>
      <trkpt lat="45.98436" lon="4.79723">
        <ele>242</ele>
        <time>2018-09-20T10:12:22Z</time>
      </trkpt>
      <trkpt lat="45.98438" lon="4.79722">
        <ele>242</ele>
        <time>2018-09-20T10:12:23Z</time>
      </trkpt>
      <trkpt lat="45.98446" lon="4.79722">
        <ele>242</ele>
        <time>2018-09-20T10:12:26Z</time>
      </trkpt>
      <trkpt lat="45.98449" lon="4.79723">
        <ele>243</ele>
        <time>2018-09-20T10:12:27Z</time>
      </trkpt>
      <trkpt lat="45.98458" lon="4.79723">
        <ele>243</ele>
        <time>2018-09-20T10:12:30Z</time>
      </trkpt>
      <trkpt lat="45.9846" lon="4.79723">
        <ele>243</ele>
        <time>2018-09-20T10:12:31Z</time>
      </trkpt>
      <trkpt lat="45.98469" lon="4.79723">
        <ele>243</ele>
        <time>2018-09-20T10:12:34Z</time>
      </trkpt>
      <trkpt lat="45.98471" lon="4.79724">
        <ele>243</ele>
        <time>2018-09-20T10:12:35Z</time>
      </trkpt>
      <trkpt lat="45.9848" lon="4.79725">
        <ele>243</ele>
        <time>2018-09-20T10:12:38Z</time>
      </trkpt>
      <trkpt lat="45.98482" lon="4.79726">
        <ele>243</ele>
        <time>2018-09-20T10:12:39Z</time>
      </trkpt>
      <trkpt lat="45.98488" lon="4.79726">
        <ele>243</ele>
        <time>2018-09-20T10:12:41Z</time>
      </trkpt>
      <trkpt lat="45.98498" lon="4.79727">
        <ele>243</ele>
        <time>2018-09-20T10:12:42Z</time>
      </trkpt>
      <trkpt lat="45.98505" lon="4.79727">
        <ele>244</ele>
        <time>2018-09-20T10:12:45Z</time>
      </trkpt>
      <trkpt lat="45.98507" lon="4.79727">
        <ele>244</ele>
        <time>2018-09-20T10:12:46Z</time>
      </trkpt>
      <trkpt lat="45.98516" lon="4.79726">
        <ele>244</ele>
        <time>2018-09-20T10:12:49Z</time>
      </trkpt>
      <trkpt lat="45.98525" lon="4.79723">
        <ele>244</ele>
        <time>2018-09-20T10:12:50Z</time>
      </trkpt>
      <trkpt lat="45.98532" lon="4.7972">
        <ele>244</ele>
        <time>2018-09-20T10:12:53Z</time>
      </trkpt>
      <trkpt lat="45.98534" lon="4.79718">
        <ele>244</ele>
        <time>2018-09-20T10:12:54Z</time>
      </trkpt>
      <trkpt lat="45.98542" lon="4.79713">
        <ele>244</ele>
        <time>2018-09-20T10:12:55Z</time>
      </trkpt>
      <trkpt lat="45.98543" lon="4.79712">
        <ele>244</ele>
        <time>2018-09-20T10:12:56Z</time>
      </trkpt>
      <trkpt lat="45.9855" lon="4.79706">
        <ele>244</ele>
        <time>2018-09-20T10:12:59Z</time>
      </trkpt>
      <trkpt lat="45.98557" lon="4.797">
        <ele>244</ele>
        <time>2018-09-20T10:13:00Z</time>
      </trkpt>
      <trkpt lat="45.9856" lon="4.79696">
        <ele>244</ele>
        <time>2018-09-20T10:13:02Z</time>
      </trkpt>
      <trkpt lat="45.98566" lon="4.7969">
        <ele>244</ele>
        <time>2018-09-20T10:13:03Z</time>
      </trkpt>
      <trkpt lat="45.98571" lon="4.79684">
        <ele>244</ele>
        <time>2018-09-20T10:13:05Z</time>
      </trkpt>
      <trkpt lat="45.98574" lon="4.7968">
        <ele>245</ele>
        <time>2018-09-20T10:13:06Z</time>
      </trkpt>
      <trkpt lat="45.98579" lon="4.7967">
        <ele>245</ele>
        <time>2018-09-20T10:13:10Z</time>
      </trkpt>
      <trkpt lat="45.98583" lon="4.79661">
        <ele>245</ele>
        <time>2018-09-20T10:13:11Z</time>
      </trkpt>
      <trkpt lat="45.98585" lon="4.79656">
        <ele>245</ele>
        <time>2018-09-20T10:13:13Z</time>
      </trkpt>
      <trkpt lat="45.9859" lon="4.79649">
        <ele>245</ele>
        <time>2018-09-20T10:13:14Z</time>
      </trkpt>
      <trkpt lat="45.98596" lon="4.79641">
        <ele>245</ele>
        <time>2018-09-20T10:13:18Z</time>
      </trkpt>
      <trkpt lat="45.98598" lon="4.79639">
        <ele>245</ele>
        <time>2018-09-20T10:13:19Z</time>
      </trkpt>
      <trkpt lat="45.98606" lon="4.79635">
        <ele>245</ele>
        <time>2018-09-20T10:13:22Z</time>
      </trkpt>
      <trkpt lat="45.98609" lon="4.79634">
        <ele>245</ele>
        <time>2018-09-20T10:13:23Z</time>
      </trkpt>
      <trkpt lat="45.98618" lon="4.79631">
        <ele>245</ele>
        <time>2018-09-20T10:13:24Z</time>
      </trkpt>
      <trkpt lat="45.98625" lon="4.79627">
        <ele>245</ele>
        <time>2018-09-20T10:13:26Z</time>
      </trkpt>
      <trkpt lat="45.98627" lon="4.79623">
        <ele>245</ele>
        <time>2018-09-20T10:13:27Z</time>
      </trkpt>
      <trkpt lat="45.98631" lon="4.79612">
        <ele>245</ele>
        <time>2018-09-20T10:13:29Z</time>
      </trkpt>
      <trkpt lat="45.98632" lon="4.79606">
        <ele>245</ele>
        <time>2018-09-20T10:13:30Z</time>
      </trkpt>
      <trkpt lat="45.9863" lon="4.79594">
        <ele>245</ele>
        <time>2018-09-20T10:13:32Z</time>
      </trkpt>
      <trkpt lat="45.98628" lon="4.79588">
        <ele>245</ele>
        <time>2018-09-20T10:13:33Z</time>
      </trkpt>
      <trkpt lat="45.98625" lon="4.79584">
        <ele>245</ele>
        <time>2018-09-20T10:13:34Z</time>
      </trkpt>
      <trkpt lat="45.98618" lon="4.79581">
        <ele>245</ele>
        <time>2018-09-20T10:13:35Z</time>
      </trkpt>
      <trkpt lat="45.98614" lon="4.79579">
        <ele>245</ele>
        <time>2018-09-20T10:13:36Z</time>
      </trkpt>
      <trkpt lat="45.98609" lon="4.79579">
        <ele>245</ele>
        <time>2018-09-20T10:13:37Z</time>
      </trkpt>
      <trkpt lat="45.98601" lon="4.79581">
        <ele>245</ele>
        <time>2018-09-20T10:13:39Z</time>
      </trkpt>
      <trkpt lat="45.98596" lon="4.79583">
        <ele>245</ele>
        <time>2018-09-20T10:13:40Z</time>
      </trkpt>
      <trkpt lat="45.98588" lon="4.79584">
        <ele>245</ele>
        <time>2018-09-20T10:13:42Z</time>
      </trkpt>
      <trkpt lat="45.98584" lon="4.79583">
        <ele>245</ele>
        <time>2018-09-20T10:13:43Z</time>
      </trkpt>
      <trkpt lat="45.9858" lon="4.79581">
        <ele>245</ele>
        <time>2018-09-20T10:13:44Z</time>
      </trkpt>
      <trkpt lat="45.98575" lon="4.79579">
        <ele>245</ele>
        <time>2018-09-20T10:13:45Z</time>
      </trkpt>
      <trkpt lat="45.9857" lon="4.79575">
        <ele>245</ele>
        <time>2018-09-20T10:13:46Z</time>
      </trkpt>
      <trkpt lat="45.98566" lon="4.79572">
        <ele>244</ele>
        <time>2018-09-20T10:13:47Z</time>
      </trkpt>
      <trkpt lat="45.98562" lon="4.79568">
        <ele>244</ele>
        <time>2018-09-20T10:13:48Z</time>
      </trkpt>
      <trkpt lat="45.98558" lon="4.79563">
        <ele>244</ele>
        <time>2018-09-20T10:13:49Z</time>
      </trkpt>
      <trkpt lat="45.98554" lon="4.79558">
        <ele>244</ele>
        <time>2018-09-20T10:13:50Z</time>
      </trkpt>
      <trkpt lat="45.98551" lon="4.79552">
        <ele>244</ele>
        <time>2018-09-20T10:13:51Z</time>
      </trkpt>
      <trkpt lat="45.98548" lon="4.79546">
        <ele>244</ele>
        <time>2018-09-20T10:13:52Z</time>
      </trkpt>
      <trkpt lat="45.98544" lon="4.79541">
        <ele>244</ele>
        <time>2018-09-20T10:13:53Z</time>
      </trkpt>
      <trkpt lat="45.98541" lon="4.79535">
        <ele>244</ele>
        <time>2018-09-20T10:13:54Z</time>
      </trkpt>
      <trkpt lat="45.98538" lon="4.79529">
        <ele>244</ele>
        <time>2018-09-20T10:13:55Z</time>
      </trkpt>
      <trkpt lat="45.98536" lon="4.79522">
        <ele>244</ele>
        <time>2018-09-20T10:13:56Z</time>
      </trkpt>
      <trkpt lat="45.98533" lon="4.79516">
        <ele>244</ele>
        <time>2018-09-20T10:13:57Z</time>
      </trkpt>
      <trkpt lat="45.98532" lon="4.79509">
        <ele>244</ele>
        <time>2018-09-20T10:13:58Z</time>
      </trkpt>
      <trkpt lat="45.9853" lon="4.79503">
        <ele>244</ele>
        <time>2018-09-20T10:13:59Z</time>
      </trkpt>
      <trkpt lat="45.98529" lon="4.79496">
        <ele>244</ele>
        <time>2018-09-20T10:14:00Z</time>
      </trkpt>
      <trkpt lat="45.98529" lon="4.7949">
        <ele>244</ele>
        <time>2018-09-20T10:14:01Z</time>
      </trkpt>
      <trkpt lat="45.98528" lon="4.79483">
        <ele>244</ele>
        <time>2018-09-20T10:14:02Z</time>
      </trkpt>
      <trkpt lat="45.98527" lon="4.79477">
        <ele>244</ele>
        <time>2018-09-20T10:14:03Z</time>
      </trkpt>
      <trkpt lat="45.98526" lon="4.79465">
        <ele>244</ele>
        <time>2018-09-20T10:14:05Z</time>
      </trkpt>
      <trkpt lat="45.98525" lon="4.79458">
        <ele>244</ele>
        <time>2018-09-20T10:14:06Z</time>
      </trkpt>
      <trkpt lat="45.98525" lon="4.79447">
        <ele>244</ele>
        <time>2018-09-20T10:14:08Z</time>
      </trkpt>
      <trkpt lat="45.98524" lon="4.7944">
        <ele>244</ele>
        <time>2018-09-20T10:14:09Z</time>
      </trkpt>
      <trkpt lat="45.98524" lon="4.79433">
        <ele>244</ele>
        <time>2018-09-20T10:14:10Z</time>
      </trkpt>
      <trkpt lat="45.98523" lon="4.79426">
        <ele>244</ele>
        <time>2018-09-20T10:14:11Z</time>
      </trkpt>
      <trkpt lat="45.98523" lon="4.7942">
        <ele>244</ele>
        <time>2018-09-20T10:14:12Z</time>
      </trkpt>
      <trkpt lat="45.98522" lon="4.79412">
        <ele>244</ele>
        <time>2018-09-20T10:14:13Z</time>
      </trkpt>
      <trkpt lat="45.98521" lon="4.79405">
        <ele>244</ele>
        <time>2018-09-20T10:14:14Z</time>
      </trkpt>
      <trkpt lat="45.9852" lon="4.79398">
        <ele>244</ele>
        <time>2018-09-20T10:14:15Z</time>
      </trkpt>
      <trkpt lat="45.98519" lon="4.79391">
        <ele>244</ele>
        <time>2018-09-20T10:14:16Z</time>
      </trkpt>
      <trkpt lat="45.98518" lon="4.79384">
        <ele>244</ele>
        <time>2018-09-20T10:14:17Z</time>
      </trkpt>
      <trkpt lat="45.98516" lon="4.79377">
        <ele>244</ele>
        <time>2018-09-20T10:14:18Z</time>
      </trkpt>
      <trkpt lat="45.98515" lon="4.79371">
        <ele>243</ele>
        <time>2018-09-20T10:14:19Z</time>
      </trkpt>
      <trkpt lat="45.98513" lon="4.79358">
        <ele>243</ele>
        <time>2018-09-20T10:14:21Z</time>
      </trkpt>
      <trkpt lat="45.98513" lon="4.79352">
        <ele>243</ele>
        <time>2018-09-20T10:14:22Z</time>
      </trkpt>
      <trkpt lat="45.98511" lon="4.79344">
        <ele>243</ele>
        <time>2018-09-20T10:14:23Z</time>
      </trkpt>
      <trkpt lat="45.98509" lon="4.79338">
        <ele>243</ele>
        <time>2018-09-20T10:14:24Z</time>
      </trkpt>
      <trkpt lat="45.98508" lon="4.79331">
        <ele>243</ele>
        <time>2018-09-20T10:14:25Z</time>
      </trkpt>
      <trkpt lat="45.98505" lon="4.79324">
        <ele>243</ele>
        <time>2018-09-20T10:14:26Z</time>
      </trkpt>
      <trkpt lat="45.98503" lon="4.79319">
        <ele>243</ele>
        <time>2018-09-20T10:14:27Z</time>
      </trkpt>
      <trkpt lat="45.98501" lon="4.79313">
        <ele>243</ele>
        <time>2018-09-20T10:14:28Z</time>
      </trkpt>
      <trkpt lat="45.98498" lon="4.79308">
        <ele>243</ele>
        <time>2018-09-20T10:14:29Z</time>
      </trkpt>
      <trkpt lat="45.98495" lon="4.79301">
        <ele>243</ele>
        <time>2018-09-20T10:14:30Z</time>
      </trkpt>
      <trkpt lat="45.98491" lon="4.79295">
        <ele>243</ele>
        <time>2018-09-20T10:14:31Z</time>
      </trkpt>
      <trkpt lat="45.98488" lon="4.79287">
        <ele>243</ele>
        <time>2018-09-20T10:14:32Z</time>
      </trkpt>
      <trkpt lat="45.98485" lon="4.7928">
        <ele>243</ele>
        <time>2018-09-20T10:14:33Z</time>
      </trkpt>
      <trkpt lat="45.98482" lon="4.79274">
        <ele>243</ele>
        <time>2018-09-20T10:14:34Z</time>
      </trkpt>
      <trkpt lat="45.98479" lon="4.79267">
        <ele>243</ele>
        <time>2018-09-20T10:14:35Z</time>
      </trkpt>
      <trkpt lat="45.98476" lon="4.79261">
        <ele>243</ele>
        <time>2018-09-20T10:14:36Z</time>
      </trkpt>
      <trkpt lat="45.98472" lon="4.79255">
        <ele>243</ele>
        <time>2018-09-20T10:14:37Z</time>
      </trkpt>
      <trkpt lat="45.98469" lon="4.79248">
        <ele>243</ele>
        <time>2018-09-20T10:14:38Z</time>
      </trkpt>
      <trkpt lat="45.98465" lon="4.79244">
        <ele>243</ele>
        <time>2018-09-20T10:14:39Z</time>
      </trkpt>
      <trkpt lat="45.98462" lon="4.79238">
        <ele>243</ele>
        <time>2018-09-20T10:14:40Z</time>
      </trkpt>
      <trkpt lat="45.98458" lon="4.79232">
        <ele>243</ele>
        <time>2018-09-20T10:14:41Z</time>
      </trkpt>
      <trkpt lat="45.98454" lon="4.79225">
        <ele>243</ele>
        <time>2018-09-20T10:14:42Z</time>
      </trkpt>
      <trkpt lat="45.98451" lon="4.7922">
        <ele>243</ele>
        <time>2018-09-20T10:14:43Z</time>
      </trkpt>
      <trkpt lat="45.98449" lon="4.79214">
        <ele>242</ele>
        <time>2018-09-20T10:14:44Z</time>
      </trkpt>
      <trkpt lat="45.98446" lon="4.79206">
        <ele>242</ele>
        <time>2018-09-20T10:14:45Z</time>
      </trkpt>
      <trkpt lat="45.98443" lon="4.79199">
        <ele>242</ele>
        <time>2018-09-20T10:14:46Z</time>
      </trkpt>
      <trkpt lat="45.98438" lon="4.79193">
        <ele>242</ele>
        <time>2018-09-20T10:14:47Z</time>
      </trkpt>
      <trkpt lat="45.98435" lon="4.79186">
        <ele>242</ele>
        <time>2018-09-20T10:14:48Z</time>
      </trkpt>
      <trkpt lat="45.98431" lon="4.7918">
        <ele>242</ele>
        <time>2018-09-20T10:14:49Z</time>
      </trkpt>
      <trkpt lat="45.98427" lon="4.79173">
        <ele>242</ele>
        <time>2018-09-20T10:14:50Z</time>
      </trkpt>
      <trkpt lat="45.98424" lon="4.79167">
        <ele>242</ele>
        <time>2018-09-20T10:14:51Z</time>
      </trkpt>
      <trkpt lat="45.98421" lon="4.79161">
        <ele>242</ele>
        <time>2018-09-20T10:14:52Z</time>
      </trkpt>
      <trkpt lat="45.98417" lon="4.79155">
        <ele>242</ele>
        <time>2018-09-20T10:14:53Z</time>
      </trkpt>
      <trkpt lat="45.98414" lon="4.79149">
        <ele>242</ele>
        <time>2018-09-20T10:14:54Z</time>
      </trkpt>
      <trkpt lat="45.98409" lon="4.79144">
        <ele>242</ele>
        <time>2018-09-20T10:14:55Z</time>
      </trkpt>
      <trkpt lat="45.98406" lon="4.79138">
        <ele>242</ele>
        <time>2018-09-20T10:14:56Z</time>
      </trkpt>
      <trkpt lat="45.98402" lon="4.79132">
        <ele>242</ele>
        <time>2018-09-20T10:14:57Z</time>
      </trkpt>
      <trkpt lat="45.98402" lon="4.79125">
        <ele>242</ele>
        <time>2018-09-20T10:14:58Z</time>
      </trkpt>
      <trkpt lat="45.98399" lon="4.79118">
        <ele>242</ele>
        <time>2018-09-20T10:14:59Z</time>
      </trkpt>
      <trkpt lat="45.98396" lon="4.79111">
        <ele>242</ele>
        <time>2018-09-20T10:15:00Z</time>
      </trkpt>
      <trkpt lat="45.98392" lon="4.79104">
        <ele>242</ele>
        <time>2018-09-20T10:15:01Z</time>
      </trkpt>
      <trkpt lat="45.9839" lon="4.79097">
        <ele>242</ele>
        <time>2018-09-20T10:15:02Z</time>
      </trkpt>
      <trkpt lat="45.98386" lon="4.7909">
        <ele>242</ele>
        <time>2018-09-20T10:15:03Z</time>
      </trkpt>
      <trkpt lat="45.98382" lon="4.79082">
        <ele>242</ele>
        <time>2018-09-20T10:15:04Z</time>
      </trkpt>
      <trkpt lat="45.98379" lon="4.79075">
        <ele>242</ele>
        <time>2018-09-20T10:15:05Z</time>
      </trkpt>
      <trkpt lat="45.98376" lon="4.79068">
        <ele>242</ele>
        <time>2018-09-20T10:15:06Z</time>
      </trkpt>
      <trkpt lat="45.98373" lon="4.79062">
        <ele>242</ele>
        <time>2018-09-20T10:15:07Z</time>
      </trkpt>
      <trkpt lat="45.98369" lon="4.79056">
        <ele>242</ele>
        <time>2018-09-20T10:15:08Z</time>
      </trkpt>
      <trkpt lat="45.98365" lon="4.7905">
        <ele>242</ele>
        <time>2018-09-20T10:15:09Z</time>
      </trkpt>
      <trkpt lat="45.98361" lon="4.79045">
        <ele>242</ele>
        <time>2018-09-20T10:15:10Z</time>
      </trkpt>
      <trkpt lat="45.98357" lon="4.7904">
        <ele>242</ele>
        <time>2018-09-20T10:15:11Z</time>
      </trkpt>
      <trkpt lat="45.98354" lon="4.79034">
        <ele>242</ele>
        <time>2018-09-20T10:15:12Z</time>
      </trkpt>
      <trkpt lat="45.9835" lon="4.79029">
        <ele>242</ele>
        <time>2018-09-20T10:15:13Z</time>
      </trkpt>
      <trkpt lat="45.98346" lon="4.79025">
        <ele>242</ele>
        <time>2018-09-20T10:15:14Z</time>
      </trkpt>
      <trkpt lat="45.98341" lon="4.7902">
        <ele>242</ele>
        <time>2018-09-20T10:15:15Z</time>
      </trkpt>
      <trkpt lat="45.98336" lon="4.79017">
        <ele>242</ele>
        <time>2018-09-20T10:15:16Z</time>
      </trkpt>
      <trkpt lat="45.98332" lon="4.79014">
        <ele>242</ele>
        <time>2018-09-20T10:15:17Z</time>
      </trkpt>
      <trkpt lat="45.98327" lon="4.7901">
        <ele>242</ele>
        <time>2018-09-20T10:15:18Z</time>
      </trkpt>
      <trkpt lat="45.98321" lon="4.79007">
        <ele>242</ele>
        <time>2018-09-20T10:15:19Z</time>
      </trkpt>
      <trkpt lat="45.98316" lon="4.79002">
        <ele>242</ele>
        <time>2018-09-20T10:15:20Z</time>
      </trkpt>
      <trkpt lat="45.9831" lon="4.78998">
        <ele>241</ele>
        <time>2018-09-20T10:15:21Z</time>
      </trkpt>
      <trkpt lat="45.98304" lon="4.78995">
        <ele>241</ele>
        <time>2018-09-20T10:15:22Z</time>
      </trkpt>
      <trkpt lat="45.98297" lon="4.78991">
        <ele>241</ele>
        <time>2018-09-20T10:15:23Z</time>
      </trkpt>
      <trkpt lat="45.98291" lon="4.78988">
        <ele>241</ele>
        <time>2018-09-20T10:15:24Z</time>
      </trkpt>
      <trkpt lat="45.98285" lon="4.78985">
        <ele>241</ele>
        <time>2018-09-20T10:15:25Z</time>
      </trkpt>
      <trkpt lat="45.98279" lon="4.78982">
        <ele>241</ele>
        <time>2018-09-20T10:15:26Z</time>
      </trkpt>
      <trkpt lat="45.98274" lon="4.78978">
        <ele>241</ele>
        <time>2018-09-20T10:15:27Z</time>
      </trkpt>
      <trkpt lat="45.98269" lon="4.78974">
        <ele>241</ele>
        <time>2018-09-20T10:15:28Z</time>
      </trkpt>
      <trkpt lat="45.98264" lon="4.78971">
        <ele>241</ele>
        <time>2018-09-20T10:15:29Z</time>
      </trkpt>
      <trkpt lat="45.98258" lon="4.78968">
        <ele>241</ele>
        <time>2018-09-20T10:15:30Z</time>
      </trkpt>
      <trkpt lat="45.98253" lon="4.78965">
        <ele>241</ele>
        <time>2018-09-20T10:15:31Z</time>
      </trkpt>
      <trkpt lat="45.98247" lon="4.78962">
        <ele>241</ele>
        <time>2018-09-20T10:15:32Z</time>
      </trkpt>
      <trkpt lat="45.98241" lon="4.78959">
        <ele>241</ele>
        <time>2018-09-20T10:15:33Z</time>
      </trkpt>
      <trkpt lat="45.98235" lon="4.78957">
        <ele>241</ele>
        <time>2018-09-20T10:15:34Z</time>
      </trkpt>
      <trkpt lat="45.98231" lon="4.78955">
        <ele>241</ele>
        <time>2018-09-20T10:15:35Z</time>
      </trkpt>
      <trkpt lat="45.98224" lon="4.78953">
        <ele>241</ele>
        <time>2018-09-20T10:15:36Z</time>
      </trkpt>
      <trkpt lat="45.98219" lon="4.78949">
        <ele>241</ele>
        <time>2018-09-20T10:15:37Z</time>
      </trkpt>
      <trkpt lat="45.98214" lon="4.78946">
        <ele>241</ele>
        <time>2018-09-20T10:15:38Z</time>
      </trkpt>
      <trkpt lat="45.98209" lon="4.78943">
        <ele>241</ele>
        <time>2018-09-20T10:15:39Z</time>
      </trkpt>
      <trkpt lat="45.98204" lon="4.78941">
        <ele>241</ele>
        <time>2018-09-20T10:15:40Z</time>
      </trkpt>
      <trkpt lat="45.98199" lon="4.78937">
        <ele>241</ele>
        <time>2018-09-20T10:15:41Z</time>
      </trkpt>
      <trkpt lat="45.98193" lon="4.78934">
        <ele>241</ele>
        <time>2018-09-20T10:15:42Z</time>
      </trkpt>
      <trkpt lat="45.98187" lon="4.78932">
        <ele>241</ele>
        <time>2018-09-20T10:15:43Z</time>
      </trkpt>
      <trkpt lat="45.98179" lon="4.78928">
        <ele>240</ele>
        <time>2018-09-20T10:15:44Z</time>
      </trkpt>
      <trkpt lat="45.98173" lon="4.78925">
        <ele>240</ele>
        <time>2018-09-20T10:15:45Z</time>
      </trkpt>
      <trkpt lat="45.98168" lon="4.78922">
        <ele>240</ele>
        <time>2018-09-20T10:15:46Z</time>
      </trkpt>
      <trkpt lat="45.98162" lon="4.78919">
        <ele>240</ele>
        <time>2018-09-20T10:15:47Z</time>
      </trkpt>
      <trkpt lat="45.98155" lon="4.78916">
        <ele>240</ele>
        <time>2018-09-20T10:15:48Z</time>
      </trkpt>
      <trkpt lat="45.98149" lon="4.78912">
        <ele>240</ele>
        <time>2018-09-20T10:15:49Z</time>
      </trkpt>
      <trkpt lat="45.98145" lon="4.78909">
        <ele>240</ele>
        <time>2018-09-20T10:15:50Z</time>
      </trkpt>
      <trkpt lat="45.9814" lon="4.78907">
        <ele>240</ele>
        <time>2018-09-20T10:15:51Z</time>
      </trkpt>
      <trkpt lat="45.98137" lon="4.78904">
        <ele>240</ele>
        <time>2018-09-20T10:15:52Z</time>
      </trkpt>
      <trkpt lat="45.9813" lon="4.789">
        <ele>240</ele>
        <time>2018-09-20T10:15:53Z</time>
      </trkpt>
      <trkpt lat="45.98125" lon="4.78897">
        <ele>240</ele>
        <time>2018-09-20T10:15:54Z</time>
      </trkpt>
      <trkpt lat="45.9812" lon="4.78894">
        <ele>240</ele>
        <time>2018-09-20T10:15:55Z</time>
      </trkpt>
      <trkpt lat="45.98112" lon="4.7889">
        <ele>240</ele>
        <time>2018-09-20T10:15:56Z</time>
      </trkpt>
      <trkpt lat="45.98106" lon="4.78887">
        <ele>240</ele>
        <time>2018-09-20T10:15:57Z</time>
      </trkpt>
      <trkpt lat="45.98101" lon="4.78884">
        <ele>240</ele>
        <time>2018-09-20T10:15:58Z</time>
      </trkpt>
      <trkpt lat="45.98095" lon="4.78879">
        <ele>240</ele>
        <time>2018-09-20T10:15:59Z</time>
      </trkpt>
      <trkpt lat="45.9809" lon="4.78875">
        <ele>239</ele>
        <time>2018-09-20T10:16:00Z</time>
      </trkpt>
      <trkpt lat="45.98085" lon="4.78871">
        <ele>239</ele>
        <time>2018-09-20T10:16:01Z</time>
      </trkpt>
      <trkpt lat="45.98078" lon="4.78866">
        <ele>239</ele>
        <time>2018-09-20T10:16:02Z</time>
      </trkpt>
      <trkpt lat="45.98073" lon="4.78862">
        <ele>239</ele>
        <time>2018-09-20T10:16:03Z</time>
      </trkpt>
      <trkpt lat="45.98067" lon="4.78859">
        <ele>239</ele>
        <time>2018-09-20T10:16:04Z</time>
      </trkpt>
      <trkpt lat="45.98062" lon="4.78855">
        <ele>239</ele>
        <time>2018-09-20T10:16:05Z</time>
      </trkpt>
      <trkpt lat="45.98057" lon="4.78852">
        <ele>239</ele>
        <time>2018-09-20T10:16:06Z</time>
      </trkpt>
      <trkpt lat="45.98051" lon="4.78846">
        <ele>239</ele>
        <time>2018-09-20T10:16:07Z</time>
      </trkpt>
      <trkpt lat="45.98044" lon="4.78843">
        <ele>239</ele>
        <time>2018-09-20T10:16:08Z</time>
      </trkpt>
      <trkpt lat="45.98038" lon="4.78839">
        <ele>238</ele>
        <time>2018-09-20T10:16:09Z</time>
      </trkpt>
      <trkpt lat="45.98031" lon="4.78834">
        <ele>238</ele>
        <time>2018-09-20T10:16:10Z</time>
      </trkpt>
      <trkpt lat="45.98026" lon="4.7883">
        <ele>238</ele>
        <time>2018-09-20T10:16:11Z</time>
      </trkpt>
      <trkpt lat="45.9802" lon="4.78826">
        <ele>238</ele>
        <time>2018-09-20T10:16:12Z</time>
      </trkpt>
      <trkpt lat="45.98015" lon="4.78821">
        <ele>238</ele>
        <time>2018-09-20T10:16:13Z</time>
      </trkpt>
      <trkpt lat="45.9801" lon="4.78816">
        <ele>238</ele>
        <time>2018-09-20T10:16:14Z</time>
      </trkpt>
      <trkpt lat="45.98004" lon="4.78812">
        <ele>238</ele>
        <time>2018-09-20T10:16:15Z</time>
      </trkpt>
      <trkpt lat="45.97999" lon="4.78807">
        <ele>238</ele>
        <time>2018-09-20T10:16:16Z</time>
      </trkpt>
      <trkpt lat="45.97994" lon="4.78804">
        <ele>238</ele>
        <time>2018-09-20T10:16:17Z</time>
      </trkpt>
      <trkpt lat="45.97988" lon="4.788">
        <ele>238</ele>
        <time>2018-09-20T10:16:18Z</time>
      </trkpt>
      <trkpt lat="45.97984" lon="4.78796">
        <ele>238</ele>
        <time>2018-09-20T10:16:19Z</time>
      </trkpt>
      <trkpt lat="45.97979" lon="4.78792">
        <ele>238</ele>
        <time>2018-09-20T10:16:20Z</time>
      </trkpt>
      <trkpt lat="45.97974" lon="4.78788">
        <ele>238</ele>
        <time>2018-09-20T10:16:21Z</time>
      </trkpt>
      <trkpt lat="45.97969" lon="4.78785">
        <ele>238</ele>
        <time>2018-09-20T10:16:22Z</time>
      </trkpt>
      <trkpt lat="45.97964" lon="4.78782">
        <ele>238</ele>
        <time>2018-09-20T10:16:23Z</time>
      </trkpt>
      <trkpt lat="45.9796" lon="4.78778">
        <ele>238</ele>
        <time>2018-09-20T10:16:24Z</time>
      </trkpt>
      <trkpt lat="45.97956" lon="4.78773">
        <ele>238</ele>
        <time>2018-09-20T10:16:25Z</time>
      </trkpt>
      <trkpt lat="45.9795" lon="4.7877">
        <ele>238</ele>
        <time>2018-09-20T10:16:26Z</time>
      </trkpt>
      <trkpt lat="45.97944" lon="4.78767">
        <ele>238</ele>
        <time>2018-09-20T10:16:27Z</time>
      </trkpt>
      <trkpt lat="45.97939" lon="4.78765">
        <ele>238</ele>
        <time>2018-09-20T10:16:28Z</time>
      </trkpt>
      <trkpt lat="45.97933" lon="4.7876">
        <ele>238</ele>
        <time>2018-09-20T10:16:29Z</time>
      </trkpt>
      <trkpt lat="45.97928" lon="4.78756">
        <ele>237</ele>
        <time>2018-09-20T10:16:30Z</time>
      </trkpt>
      <trkpt lat="45.97922" lon="4.78752">
        <ele>237</ele>
        <time>2018-09-20T10:16:31Z</time>
      </trkpt>
      <trkpt lat="45.97916" lon="4.78748">
        <ele>237</ele>
        <time>2018-09-20T10:16:32Z</time>
      </trkpt>
      <trkpt lat="45.97912" lon="4.78744">
        <ele>237</ele>
        <time>2018-09-20T10:16:33Z</time>
      </trkpt>
      <trkpt lat="45.97906" lon="4.78741">
        <ele>237</ele>
        <time>2018-09-20T10:16:34Z</time>
      </trkpt>
      <trkpt lat="45.97901" lon="4.78736">
        <ele>237</ele>
        <time>2018-09-20T10:16:35Z</time>
      </trkpt>
      <trkpt lat="45.97895" lon="4.78731">
        <ele>237</ele>
        <time>2018-09-20T10:16:36Z</time>
      </trkpt>
      <trkpt lat="45.97889" lon="4.78726">
        <ele>236</ele>
        <time>2018-09-20T10:16:37Z</time>
      </trkpt>
      <trkpt lat="45.97884" lon="4.78723">
        <ele>236</ele>
        <time>2018-09-20T10:16:38Z</time>
      </trkpt>
      <trkpt lat="45.97877" lon="4.78718">
        <ele>236</ele>
        <time>2018-09-20T10:16:39Z</time>
      </trkpt>
      <trkpt lat="45.97871" lon="4.78714">
        <ele>236</ele>
        <time>2018-09-20T10:16:40Z</time>
      </trkpt>
      <trkpt lat="45.97864" lon="4.7871">
        <ele>236</ele>
        <time>2018-09-20T10:16:41Z</time>
      </trkpt>
      <trkpt lat="45.97858" lon="4.78706">
        <ele>236</ele>
        <time>2018-09-20T10:16:42Z</time>
      </trkpt>
      <trkpt lat="45.97852" lon="4.78703">
        <ele>236</ele>
        <time>2018-09-20T10:16:43Z</time>
      </trkpt>
      <trkpt lat="45.97846" lon="4.78699">
        <ele>236</ele>
        <time>2018-09-20T10:16:44Z</time>
      </trkpt>
      <trkpt lat="45.9784" lon="4.78696">
        <ele>236</ele>
        <time>2018-09-20T10:16:45Z</time>
      </trkpt>
      <trkpt lat="45.97834" lon="4.78693">
        <ele>236</ele>
        <time>2018-09-20T10:16:46Z</time>
      </trkpt>
      <trkpt lat="45.97829" lon="4.78689">
        <ele>235</ele>
        <time>2018-09-20T10:16:47Z</time>
      </trkpt>
      <trkpt lat="45.97824" lon="4.78686">
        <ele>235</ele>
        <time>2018-09-20T10:16:48Z</time>
      </trkpt>
      <trkpt lat="45.97817" lon="4.78683">
        <ele>235</ele>
        <time>2018-09-20T10:16:49Z</time>
      </trkpt>
      <trkpt lat="45.97811" lon="4.7868">
        <ele>235</ele>
        <time>2018-09-20T10:16:50Z</time>
      </trkpt>
      <trkpt lat="45.97806" lon="4.78677">
        <ele>235</ele>
        <time>2018-09-20T10:16:51Z</time>
      </trkpt>
      <trkpt lat="45.97801" lon="4.78674">
        <ele>235</ele>
        <time>2018-09-20T10:16:52Z</time>
      </trkpt>
      <trkpt lat="45.97794" lon="4.78671">
        <ele>235</ele>
        <time>2018-09-20T10:16:53Z</time>
      </trkpt>
      <trkpt lat="45.97786" lon="4.78669">
        <ele>235</ele>
        <time>2018-09-20T10:16:54Z</time>
      </trkpt>
      <trkpt lat="45.97781" lon="4.78666">
        <ele>235</ele>
        <time>2018-09-20T10:16:55Z</time>
      </trkpt>
      <trkpt lat="45.97774" lon="4.78664">
        <ele>235</ele>
        <time>2018-09-20T10:16:56Z</time>
      </trkpt>
      <trkpt lat="45.97768" lon="4.78661">
        <ele>235</ele>
        <time>2018-09-20T10:16:57Z</time>
      </trkpt>
      <trkpt lat="45.97762" lon="4.78658">
        <ele>235</ele>
        <time>2018-09-20T10:16:58Z</time>
      </trkpt>
      <trkpt lat="45.97756" lon="4.78655">
        <ele>235</ele>
        <time>2018-09-20T10:16:59Z</time>
      </trkpt>
      <trkpt lat="45.9775" lon="4.78652">
        <ele>234</ele>
        <time>2018-09-20T10:17:00Z</time>
      </trkpt>
      <trkpt lat="45.97743" lon="4.78649">
        <ele>234</ele>
        <time>2018-09-20T10:17:01Z</time>
      </trkpt>
      <trkpt lat="45.97737" lon="4.78646">
        <ele>234</ele>
        <time>2018-09-20T10:17:02Z</time>
      </trkpt>
      <trkpt lat="45.97731" lon="4.78642">
        <ele>234</ele>
        <time>2018-09-20T10:17:03Z</time>
      </trkpt>
      <trkpt lat="45.97725" lon="4.7864">
        <ele>234</ele>
        <time>2018-09-20T10:17:04Z</time>
      </trkpt>
      <trkpt lat="45.97719" lon="4.78637">
        <ele>234</ele>
        <time>2018-09-20T10:17:05Z</time>
      </trkpt>
      <trkpt lat="45.97714" lon="4.78634">
        <ele>234</ele>
        <time>2018-09-20T10:17:06Z</time>
      </trkpt>
      <trkpt lat="45.97708" lon="4.78632">
        <ele>234</ele>
        <time>2018-09-20T10:17:07Z</time>
      </trkpt>
      <trkpt lat="45.97702" lon="4.7863">
        <ele>234</ele>
        <time>2018-09-20T10:17:08Z</time>
      </trkpt>
      <trkpt lat="45.97697" lon="4.78628">
        <ele>234</ele>
        <time>2018-09-20T10:17:09Z</time>
      </trkpt>
      <trkpt lat="45.97692" lon="4.78624">
        <ele>234</ele>
        <time>2018-09-20T10:17:10Z</time>
      </trkpt>
      <trkpt lat="45.97687" lon="4.78622">
        <ele>234</ele>
        <time>2018-09-20T10:17:11Z</time>
      </trkpt>
      <trkpt lat="45.97681" lon="4.7862">
        <ele>234</ele>
        <time>2018-09-20T10:17:12Z</time>
      </trkpt>
      <trkpt lat="45.97676" lon="4.78618">
        <ele>234</ele>
        <time>2018-09-20T10:17:13Z</time>
      </trkpt>
      <trkpt lat="45.97669" lon="4.78615">
        <ele>234</ele>
        <time>2018-09-20T10:17:14Z</time>
      </trkpt>
      <trkpt lat="45.97662" lon="4.78613">
        <ele>233</ele>
        <time>2018-09-20T10:17:15Z</time>
      </trkpt>
      <trkpt lat="45.97656" lon="4.78612">
        <ele>233</ele>
        <time>2018-09-20T10:17:16Z</time>
      </trkpt>
      <trkpt lat="45.97648" lon="4.78612">
        <ele>233</ele>
        <time>2018-09-20T10:17:17Z</time>
      </trkpt>
      <trkpt lat="45.97643" lon="4.78609">
        <ele>233</ele>
        <time>2018-09-20T10:17:18Z</time>
      </trkpt>
      <trkpt lat="45.97637" lon="4.78606">
        <ele>233</ele>
        <time>2018-09-20T10:17:19Z</time>
      </trkpt>
      <trkpt lat="45.97631" lon="4.78603">
        <ele>233</ele>
        <time>2018-09-20T10:17:20Z</time>
      </trkpt>
      <trkpt lat="45.97625" lon="4.786">
        <ele>233</ele>
        <time>2018-09-20T10:17:21Z</time>
      </trkpt>
      <trkpt lat="45.97619" lon="4.78598">
        <ele>233</ele>
        <time>2018-09-20T10:17:22Z</time>
      </trkpt>
      <trkpt lat="45.97613" lon="4.78596">
        <ele>233</ele>
        <time>2018-09-20T10:17:23Z</time>
      </trkpt>
      <trkpt lat="45.97608" lon="4.78594">
        <ele>233</ele>
        <time>2018-09-20T10:17:24Z</time>
      </trkpt>
      <trkpt lat="45.97603" lon="4.78591">
        <ele>233</ele>
        <time>2018-09-20T10:17:25Z</time>
      </trkpt>
      <trkpt lat="45.97597" lon="4.78589">
        <ele>233</ele>
        <time>2018-09-20T10:17:26Z</time>
      </trkpt>
      <trkpt lat="45.97592" lon="4.78587">
        <ele>233</ele>
        <time>2018-09-20T10:17:27Z</time>
      </trkpt>
      <trkpt lat="45.97588" lon="4.78585">
        <ele>233</ele>
        <time>2018-09-20T10:17:28Z</time>
      </trkpt>
      <trkpt lat="45.97583" lon="4.78583">
        <ele>233</ele>
        <time>2018-09-20T10:17:29Z</time>
      </trkpt>
      <trkpt lat="45.97577" lon="4.78581">
        <ele>233</ele>
        <time>2018-09-20T10:17:30Z</time>
      </trkpt>
      <trkpt lat="45.97572" lon="4.78582">
        <ele>233</ele>
        <time>2018-09-20T10:17:31Z</time>
      </trkpt>
      <trkpt lat="45.97567" lon="4.78579">
        <ele>233</ele>
        <time>2018-09-20T10:17:32Z</time>
      </trkpt>
      <trkpt lat="45.9756" lon="4.78577">
        <ele>233</ele>
        <time>2018-09-20T10:17:33Z</time>
      </trkpt>
      <trkpt lat="45.97554" lon="4.78576">
        <ele>233</ele>
        <time>2018-09-20T10:17:34Z</time>
      </trkpt>
      <trkpt lat="45.97548" lon="4.78573">
        <ele>234</ele>
        <time>2018-09-20T10:17:35Z</time>
      </trkpt>
      <trkpt lat="45.97543" lon="4.7857">
        <ele>234</ele>
        <time>2018-09-20T10:17:36Z</time>
      </trkpt>
      <trkpt lat="45.97536" lon="4.78568">
        <ele>234</ele>
        <time>2018-09-20T10:17:37Z</time>
      </trkpt>
      <trkpt lat="45.97529" lon="4.78564">
        <ele>234</ele>
        <time>2018-09-20T10:17:38Z</time>
      </trkpt>
      <trkpt lat="45.97522" lon="4.78562">
        <ele>234</ele>
        <time>2018-09-20T10:17:39Z</time>
      </trkpt>
      <trkpt lat="45.97516" lon="4.78559">
        <ele>234</ele>
        <time>2018-09-20T10:17:40Z</time>
      </trkpt>
      <trkpt lat="45.97511" lon="4.78555">
        <ele>234</ele>
        <time>2018-09-20T10:17:41Z</time>
      </trkpt>
      <trkpt lat="45.97503" lon="4.78551">
        <ele>234</ele>
        <time>2018-09-20T10:17:42Z</time>
      </trkpt>
      <trkpt lat="45.97498" lon="4.78546">
        <ele>233</ele>
        <time>2018-09-20T10:17:43Z</time>
      </trkpt>
      <trkpt lat="45.97492" lon="4.78542">
        <ele>233</ele>
        <time>2018-09-20T10:17:44Z</time>
      </trkpt>
      <trkpt lat="45.97486" lon="4.78538">
        <ele>233</ele>
        <time>2018-09-20T10:17:45Z</time>
      </trkpt>
      <trkpt lat="45.97481" lon="4.78534">
        <ele>233</ele>
        <time>2018-09-20T10:17:46Z</time>
      </trkpt>
      <trkpt lat="45.97475" lon="4.78529">
        <ele>233</ele>
        <time>2018-09-20T10:17:47Z</time>
      </trkpt>
      <trkpt lat="45.9747" lon="4.78525">
        <ele>233</ele>
        <time>2018-09-20T10:17:48Z</time>
      </trkpt>
      <trkpt lat="45.97465" lon="4.78521">
        <ele>233</ele>
        <time>2018-09-20T10:17:49Z</time>
      </trkpt>
      <trkpt lat="45.97461" lon="4.78517">
        <ele>233</ele>
        <time>2018-09-20T10:17:50Z</time>
      </trkpt>
      <trkpt lat="45.97456" lon="4.78512">
        <ele>233</ele>
        <time>2018-09-20T10:17:51Z</time>
      </trkpt>
      <trkpt lat="45.97451" lon="4.78509">
        <ele>234</ele>
        <time>2018-09-20T10:17:52Z</time>
      </trkpt>
      <trkpt lat="45.97446" lon="4.78505">
        <ele>234</ele>
        <time>2018-09-20T10:17:53Z</time>
      </trkpt>
      <trkpt lat="45.97441" lon="4.78498">
        <ele>234</ele>
        <time>2018-09-20T10:17:54Z</time>
      </trkpt>
      <trkpt lat="45.97436" lon="4.78494">
        <ele>234</ele>
        <time>2018-09-20T10:17:55Z</time>
      </trkpt>
      <trkpt lat="45.9743" lon="4.7849">
        <ele>234</ele>
        <time>2018-09-20T10:17:56Z</time>
      </trkpt>
      <trkpt lat="45.97424" lon="4.78486">
        <ele>234</ele>
        <time>2018-09-20T10:17:57Z</time>
      </trkpt>
      <trkpt lat="45.97419" lon="4.7848">
        <ele>234</ele>
        <time>2018-09-20T10:17:58Z</time>
      </trkpt>
      <trkpt lat="45.97413" lon="4.78475">
        <ele>233</ele>
        <time>2018-09-20T10:17:59Z</time>
      </trkpt>
      <trkpt lat="45.97408" lon="4.78468">
        <ele>233</ele>
        <time>2018-09-20T10:18:00Z</time>
      </trkpt>
      <trkpt lat="45.97402" lon="4.78464">
        <ele>233</ele>
        <time>2018-09-20T10:18:01Z</time>
      </trkpt>
      <trkpt lat="45.97397" lon="4.78459">
        <ele>233</ele>
        <time>2018-09-20T10:18:02Z</time>
      </trkpt>
      <trkpt lat="45.97391" lon="4.78453">
        <ele>233</ele>
        <time>2018-09-20T10:18:03Z</time>
      </trkpt>
      <trkpt lat="45.97386" lon="4.78447">
        <ele>233</ele>
        <time>2018-09-20T10:18:04Z</time>
      </trkpt>
      <trkpt lat="45.9738" lon="4.78444">
        <ele>233</ele>
        <time>2018-09-20T10:18:05Z</time>
      </trkpt>
      <trkpt lat="45.97375" lon="4.7844">
        <ele>233</ele>
        <time>2018-09-20T10:18:06Z</time>
      </trkpt>
      <trkpt lat="45.9737" lon="4.78435">
        <ele>233</ele>
        <time>2018-09-20T10:18:07Z</time>
      </trkpt>
      <trkpt lat="45.97365" lon="4.78429">
        <ele>233</ele>
        <time>2018-09-20T10:18:08Z</time>
      </trkpt>
      <trkpt lat="45.97361" lon="4.78425">
        <ele>233</ele>
        <time>2018-09-20T10:18:09Z</time>
      </trkpt>
      <trkpt lat="45.97357" lon="4.78419">
        <ele>233</ele>
        <time>2018-09-20T10:18:10Z</time>
      </trkpt>
      <trkpt lat="45.97352" lon="4.78415">
        <ele>232</ele>
        <time>2018-09-20T10:18:11Z</time>
      </trkpt>
      <trkpt lat="45.97348" lon="4.7841">
        <ele>232</ele>
        <time>2018-09-20T10:18:12Z</time>
      </trkpt>
      <trkpt lat="45.97345" lon="4.78405">
        <ele>232</ele>
        <time>2018-09-20T10:18:13Z</time>
      </trkpt>
      <trkpt lat="45.9734" lon="4.784">
        <ele>232</ele>
        <time>2018-09-20T10:18:14Z</time>
      </trkpt>
      <trkpt lat="45.97336" lon="4.78395">
        <ele>232</ele>
        <time>2018-09-20T10:18:15Z</time>
      </trkpt>
      <trkpt lat="45.97332" lon="4.7839">
        <ele>232</ele>
        <time>2018-09-20T10:18:16Z</time>
      </trkpt>
      <trkpt lat="45.97327" lon="4.78385">
        <ele>232</ele>
        <time>2018-09-20T10:18:17Z</time>
      </trkpt>
      <trkpt lat="45.97323" lon="4.78379">
        <ele>232</ele>
        <time>2018-09-20T10:18:18Z</time>
      </trkpt>
      <trkpt lat="45.97317" lon="4.78375">
        <ele>232</ele>
        <time>2018-09-20T10:18:19Z</time>
      </trkpt>
      <trkpt lat="45.97313" lon="4.78368">
        <ele>232</ele>
        <time>2018-09-20T10:18:20Z</time>
      </trkpt>
      <trkpt lat="45.97308" lon="4.78363">
        <ele>232</ele>
        <time>2018-09-20T10:18:21Z</time>
      </trkpt>
      <trkpt lat="45.97303" lon="4.78356">
        <ele>232</ele>
        <time>2018-09-20T10:18:22Z</time>
      </trkpt>
      <trkpt lat="45.97299" lon="4.7835">
        <ele>232</ele>
        <time>2018-09-20T10:18:23Z</time>
      </trkpt>
      <trkpt lat="45.97294" lon="4.78343">
        <ele>232</ele>
        <time>2018-09-20T10:18:24Z</time>
      </trkpt>
      <trkpt lat="45.9729" lon="4.78338">
        <ele>232</ele>
        <time>2018-09-20T10:18:25Z</time>
      </trkpt>
      <trkpt lat="45.97286" lon="4.78332">
        <ele>232</ele>
        <time>2018-09-20T10:18:26Z</time>
      </trkpt>
      <trkpt lat="45.97283" lon="4.78326">
        <ele>232</ele>
        <time>2018-09-20T10:18:27Z</time>
      </trkpt>
      <trkpt lat="45.97279" lon="4.7832">
        <ele>232</ele>
        <time>2018-09-20T10:18:28Z</time>
      </trkpt>
      <trkpt lat="45.97274" lon="4.78315">
        <ele>232</ele>
        <time>2018-09-20T10:18:29Z</time>
      </trkpt>
      <trkpt lat="45.9727" lon="4.78308">
        <ele>232</ele>
        <time>2018-09-20T10:18:30Z</time>
      </trkpt>
      <trkpt lat="45.97267" lon="4.78302">
        <ele>232</ele>
        <time>2018-09-20T10:18:31Z</time>
      </trkpt>
      <trkpt lat="45.97263" lon="4.78295">
        <ele>232</ele>
        <time>2018-09-20T10:18:32Z</time>
      </trkpt>
      <trkpt lat="45.97258" lon="4.78289">
        <ele>232</ele>
        <time>2018-09-20T10:18:33Z</time>
      </trkpt>
      <trkpt lat="45.97253" lon="4.78283">
        <ele>232</ele>
        <time>2018-09-20T10:18:34Z</time>
      </trkpt>
      <trkpt lat="45.97249" lon="4.78277">
        <ele>231</ele>
        <time>2018-09-20T10:18:35Z</time>
      </trkpt>
      <trkpt lat="45.97245" lon="4.78269">
        <ele>231</ele>
        <time>2018-09-20T10:18:36Z</time>
      </trkpt>
      <trkpt lat="45.9724" lon="4.78262">
        <ele>231</ele>
        <time>2018-09-20T10:18:37Z</time>
      </trkpt>
      <trkpt lat="45.97236" lon="4.78255">
        <ele>231</ele>
        <time>2018-09-20T10:18:38Z</time>
      </trkpt>
      <trkpt lat="45.97232" lon="4.78248">
        <ele>231</ele>
        <time>2018-09-20T10:18:39Z</time>
      </trkpt>
      <trkpt lat="45.97228" lon="4.78241">
        <ele>231</ele>
        <time>2018-09-20T10:18:40Z</time>
      </trkpt>
      <trkpt lat="45.97225" lon="4.78234">
        <ele>231</ele>
        <time>2018-09-20T10:18:41Z</time>
      </trkpt>
      <trkpt lat="45.9722" lon="4.78228">
        <ele>231</ele>
        <time>2018-09-20T10:18:42Z</time>
      </trkpt>
      <trkpt lat="45.97216" lon="4.78221">
        <ele>231</ele>
        <time>2018-09-20T10:18:43Z</time>
      </trkpt>
      <trkpt lat="45.97213" lon="4.78214">
        <ele>231</ele>
        <time>2018-09-20T10:18:44Z</time>
      </trkpt>
      <trkpt lat="45.97209" lon="4.78207">
        <ele>231</ele>
        <time>2018-09-20T10:18:45Z</time>
      </trkpt>
      <trkpt lat="45.97205" lon="4.78199">
        <ele>231</ele>
        <time>2018-09-20T10:18:46Z</time>
      </trkpt>
      <trkpt lat="45.97202" lon="4.78192">
        <ele>231</ele>
        <time>2018-09-20T10:18:47Z</time>
      </trkpt>
      <trkpt lat="45.97198" lon="4.78184">
        <ele>231</ele>
        <time>2018-09-20T10:18:48Z</time>
      </trkpt>
      <trkpt lat="45.97194" lon="4.78177">
        <ele>231</ele>
        <time>2018-09-20T10:18:49Z</time>
      </trkpt>
      <trkpt lat="45.9719" lon="4.7817">
        <ele>231</ele>
        <time>2018-09-20T10:18:50Z</time>
      </trkpt>
      <trkpt lat="45.97186" lon="4.78163">
        <ele>231</ele>
        <time>2018-09-20T10:18:51Z</time>
      </trkpt>
      <trkpt lat="45.97182" lon="4.78156">
        <ele>231</ele>
        <time>2018-09-20T10:18:52Z</time>
      </trkpt>
      <trkpt lat="45.97179" lon="4.7815">
        <ele>231</ele>
        <time>2018-09-20T10:18:53Z</time>
      </trkpt>
      <trkpt lat="45.97175" lon="4.78144">
        <ele>231</ele>
        <time>2018-09-20T10:18:54Z</time>
      </trkpt>
      <trkpt lat="45.97172" lon="4.78137">
        <ele>231</ele>
        <time>2018-09-20T10:18:55Z</time>
      </trkpt>
      <trkpt lat="45.97168" lon="4.78133">
        <ele>231</ele>
        <time>2018-09-20T10:18:56Z</time>
      </trkpt>
      <trkpt lat="45.97165" lon="4.78125">
        <ele>230</ele>
        <time>2018-09-20T10:18:57Z</time>
      </trkpt>
      <trkpt lat="45.9716" lon="4.7812">
        <ele>230</ele>
        <time>2018-09-20T10:18:58Z</time>
      </trkpt>
      <trkpt lat="45.97155" lon="4.78113">
        <ele>230</ele>
        <time>2018-09-20T10:18:59Z</time>
      </trkpt>
      <trkpt lat="45.97151" lon="4.78107">
        <ele>230</ele>
        <time>2018-09-20T10:19:00Z</time>
      </trkpt>
      <trkpt lat="45.97147" lon="4.781">
        <ele>230</ele>
        <time>2018-09-20T10:19:01Z</time>
      </trkpt>
      <trkpt lat="45.97144" lon="4.78093">
        <ele>230</ele>
        <time>2018-09-20T10:19:02Z</time>
      </trkpt>
      <trkpt lat="45.9714" lon="4.78085">
        <ele>230</ele>
        <time>2018-09-20T10:19:03Z</time>
      </trkpt>
      <trkpt lat="45.97136" lon="4.7808">
        <ele>230</ele>
        <time>2018-09-20T10:19:04Z</time>
      </trkpt>
      <trkpt lat="45.97131" lon="4.78074">
        <ele>230</ele>
        <time>2018-09-20T10:19:05Z</time>
      </trkpt>
      <trkpt lat="45.97127" lon="4.78068">
        <ele>230</ele>
        <time>2018-09-20T10:19:06Z</time>
      </trkpt>
      <trkpt lat="45.97122" lon="4.78062">
        <ele>229</ele>
        <time>2018-09-20T10:19:07Z</time>
      </trkpt>
      <trkpt lat="45.97116" lon="4.78057">
        <ele>229</ele>
        <time>2018-09-20T10:19:08Z</time>
      </trkpt>
      <trkpt lat="45.97111" lon="4.78051">
        <ele>229</ele>
        <time>2018-09-20T10:19:09Z</time>
      </trkpt>
      <trkpt lat="45.97107" lon="4.78046">
        <ele>229</ele>
        <time>2018-09-20T10:19:10Z</time>
      </trkpt>
      <trkpt lat="45.97103" lon="4.78042">
        <ele>229</ele>
        <time>2018-09-20T10:19:11Z</time>
      </trkpt>
      <trkpt lat="45.97098" lon="4.78038">
        <ele>229</ele>
        <time>2018-09-20T10:19:12Z</time>
      </trkpt>
      <trkpt lat="45.97092" lon="4.78035">
        <ele>229</ele>
        <time>2018-09-20T10:19:13Z</time>
      </trkpt>
      <trkpt lat="45.97087" lon="4.7803">
        <ele>229</ele>
        <time>2018-09-20T10:19:14Z</time>
      </trkpt>
      <trkpt lat="45.97082" lon="4.78025">
        <ele>229</ele>
        <time>2018-09-20T10:19:15Z</time>
      </trkpt>
      <trkpt lat="45.97076" lon="4.7802">
        <ele>229</ele>
        <time>2018-09-20T10:19:16Z</time>
      </trkpt>
      <trkpt lat="45.97071" lon="4.78014">
        <ele>229</ele>
        <time>2018-09-20T10:19:17Z</time>
      </trkpt>
      <trkpt lat="45.97066" lon="4.78009">
        <ele>229</ele>
        <time>2018-09-20T10:19:18Z</time>
      </trkpt>
      <trkpt lat="45.97061" lon="4.78004">
        <ele>229</ele>
        <time>2018-09-20T10:19:19Z</time>
      </trkpt>
      <trkpt lat="45.97056" lon="4.77999">
        <ele>229</ele>
        <time>2018-09-20T10:19:20Z</time>
      </trkpt>
      <trkpt lat="45.97052" lon="4.77994">
        <ele>229</ele>
        <time>2018-09-20T10:19:21Z</time>
      </trkpt>
      <trkpt lat="45.97047" lon="4.7799">
        <ele>229</ele>
        <time>2018-09-20T10:19:22Z</time>
      </trkpt>
      <trkpt lat="45.97042" lon="4.77984">
        <ele>229</ele>
        <time>2018-09-20T10:19:23Z</time>
      </trkpt>
      <trkpt lat="45.97038" lon="4.77979">
        <ele>229</ele>
        <time>2018-09-20T10:19:24Z</time>
      </trkpt>
      <trkpt lat="45.97033" lon="4.77974">
        <ele>229</ele>
        <time>2018-09-20T10:19:25Z</time>
      </trkpt>
      <trkpt lat="45.97029" lon="4.77969">
        <ele>229</ele>
        <time>2018-09-20T10:19:26Z</time>
      </trkpt>
      <trkpt lat="45.97025" lon="4.77963">
        <ele>228</ele>
        <time>2018-09-20T10:19:27Z</time>
      </trkpt>
      <trkpt lat="45.9702" lon="4.77958">
        <ele>228</ele>
        <time>2018-09-20T10:19:28Z</time>
      </trkpt>
      <trkpt lat="45.97016" lon="4.77953">
        <ele>228</ele>
        <time>2018-09-20T10:19:29Z</time>
      </trkpt>
      <trkpt lat="45.97013" lon="4.77949">
        <ele>228</ele>
        <time>2018-09-20T10:19:30Z</time>
      </trkpt>
      <trkpt lat="45.97008" lon="4.77944">
        <ele>228</ele>
        <time>2018-09-20T10:19:31Z</time>
      </trkpt>
      <trkpt lat="45.97005" lon="4.77937">
        <ele>228</ele>
        <time>2018-09-20T10:19:32Z</time>
      </trkpt>
      <trkpt lat="45.96999" lon="4.77932">
        <ele>227</ele>
        <time>2018-09-20T10:19:33Z</time>
      </trkpt>
      <trkpt lat="45.96995" lon="4.77926">
        <ele>227</ele>
        <time>2018-09-20T10:19:34Z</time>
      </trkpt>
      <trkpt lat="45.96991" lon="4.77921">
        <ele>227</ele>
        <time>2018-09-20T10:19:35Z</time>
      </trkpt>
      <trkpt lat="45.96985" lon="4.77914">
        <ele>227</ele>
        <time>2018-09-20T10:19:36Z</time>
      </trkpt>
      <trkpt lat="45.9698" lon="4.77907">
        <ele>227</ele>
        <time>2018-09-20T10:19:37Z</time>
      </trkpt>
      <trkpt lat="45.96976" lon="4.77902">
        <ele>228</ele>
        <time>2018-09-20T10:19:38Z</time>
      </trkpt>
      <trkpt lat="45.96971" lon="4.77896">
        <ele>228</ele>
        <time>2018-09-20T10:19:39Z</time>
      </trkpt>
      <trkpt lat="45.96967" lon="4.7789">
        <ele>228</ele>
        <time>2018-09-20T10:19:40Z</time>
      </trkpt>
      <trkpt lat="45.96963" lon="4.77885">
        <ele>228</ele>
        <time>2018-09-20T10:19:41Z</time>
      </trkpt>
      <trkpt lat="45.96958" lon="4.77879">
        <ele>228</ele>
        <time>2018-09-20T10:19:42Z</time>
      </trkpt>
      <trkpt lat="45.96953" lon="4.77873">
        <ele>228</ele>
        <time>2018-09-20T10:19:43Z</time>
      </trkpt>
      <trkpt lat="45.96947" lon="4.77867">
        <ele>228</ele>
        <time>2018-09-20T10:19:44Z</time>
      </trkpt>
      <trkpt lat="45.96942" lon="4.77861">
        <ele>228</ele>
        <time>2018-09-20T10:19:45Z</time>
      </trkpt>
      <trkpt lat="45.96936" lon="4.77855">
        <ele>228</ele>
        <time>2018-09-20T10:19:46Z</time>
      </trkpt>
      <trkpt lat="45.9693" lon="4.7785">
        <ele>228</ele>
        <time>2018-09-20T10:19:47Z</time>
      </trkpt>
      <trkpt lat="45.96925" lon="4.77844">
        <ele>228</ele>
        <time>2018-09-20T10:19:48Z</time>
      </trkpt>
      <trkpt lat="45.9692" lon="4.77837">
        <ele>228</ele>
        <time>2018-09-20T10:19:49Z</time>
      </trkpt>
      <trkpt lat="45.96914" lon="4.77831">
        <ele>228</ele>
        <time>2018-09-20T10:19:50Z</time>
      </trkpt>
      <trkpt lat="45.96909" lon="4.77826">
        <ele>228</ele>
        <time>2018-09-20T10:19:51Z</time>
      </trkpt>
      <trkpt lat="45.96904" lon="4.7782">
        <ele>228</ele>
        <time>2018-09-20T10:19:52Z</time>
      </trkpt>
      <trkpt lat="45.96899" lon="4.77815">
        <ele>228</ele>
        <time>2018-09-20T10:19:53Z</time>
      </trkpt>
      <trkpt lat="45.96894" lon="4.77809">
        <ele>228</ele>
        <time>2018-09-20T10:19:54Z</time>
      </trkpt>
      <trkpt lat="45.96889" lon="4.77804">
        <ele>228</ele>
        <time>2018-09-20T10:19:55Z</time>
      </trkpt>
      <trkpt lat="45.96884" lon="4.77798">
        <ele>228</ele>
        <time>2018-09-20T10:19:56Z</time>
      </trkpt>
      <trkpt lat="45.96878" lon="4.77795">
        <ele>228</ele>
        <time>2018-09-20T10:19:57Z</time>
      </trkpt>
      <trkpt lat="45.96873" lon="4.7779">
        <ele>228</ele>
        <time>2018-09-20T10:19:58Z</time>
      </trkpt>
      <trkpt lat="45.96868" lon="4.77785">
        <ele>228</ele>
        <time>2018-09-20T10:19:59Z</time>
      </trkpt>
      <trkpt lat="45.96863" lon="4.77781">
        <ele>228</ele>
        <time>2018-09-20T10:20:00Z</time>
      </trkpt>
      <trkpt lat="45.96858" lon="4.77775">
        <ele>228</ele>
        <time>2018-09-20T10:20:01Z</time>
      </trkpt>
      <trkpt lat="45.96854" lon="4.7777">
        <ele>228</ele>
        <time>2018-09-20T10:20:02Z</time>
      </trkpt>
      <trkpt lat="45.96849" lon="4.77764">
        <ele>228</ele>
        <time>2018-09-20T10:20:03Z</time>
      </trkpt>
      <trkpt lat="45.96844" lon="4.77759">
        <ele>228</ele>
        <time>2018-09-20T10:20:04Z</time>
      </trkpt>
      <trkpt lat="45.96839" lon="4.77752">
        <ele>228</ele>
        <time>2018-09-20T10:20:05Z</time>
      </trkpt>
      <trkpt lat="45.96832" lon="4.77748">
        <ele>228</ele>
        <time>2018-09-20T10:20:06Z</time>
      </trkpt>
      <trkpt lat="45.96828" lon="4.77743">
        <ele>228</ele>
        <time>2018-09-20T10:20:07Z</time>
      </trkpt>
      <trkpt lat="45.96825" lon="4.77737">
        <ele>228</ele>
        <time>2018-09-20T10:20:08Z</time>
      </trkpt>
      <trkpt lat="45.96818" lon="4.77732">
        <ele>228</ele>
        <time>2018-09-20T10:20:09Z</time>
      </trkpt>
      <trkpt lat="45.96813" lon="4.77727">
        <ele>228</ele>
        <time>2018-09-20T10:20:10Z</time>
      </trkpt>
      <trkpt lat="45.96808" lon="4.77721">
        <ele>228</ele>
        <time>2018-09-20T10:20:11Z</time>
      </trkpt>
      <trkpt lat="45.96803" lon="4.77716">
        <ele>228</ele>
        <time>2018-09-20T10:20:12Z</time>
      </trkpt>
      <trkpt lat="45.96799" lon="4.7771">
        <ele>228</ele>
        <time>2018-09-20T10:20:13Z</time>
      </trkpt>
      <trkpt lat="45.96794" lon="4.77704">
        <ele>228</ele>
        <time>2018-09-20T10:20:14Z</time>
      </trkpt>
      <trkpt lat="45.96788" lon="4.77698">
        <ele>227</ele>
        <time>2018-09-20T10:20:15Z</time>
      </trkpt>
      <trkpt lat="45.96783" lon="4.77692">
        <ele>227</ele>
        <time>2018-09-20T10:20:16Z</time>
      </trkpt>
      <trkpt lat="45.96777" lon="4.77689">
        <ele>227</ele>
        <time>2018-09-20T10:20:17Z</time>
      </trkpt>
      <trkpt lat="45.9677" lon="4.77683">
        <ele>227</ele>
        <time>2018-09-20T10:20:18Z</time>
      </trkpt>
      <trkpt lat="45.96765" lon="4.77677">
        <ele>227</ele>
        <time>2018-09-20T10:20:19Z</time>
      </trkpt>
      <trkpt lat="45.9676" lon="4.77671">
        <ele>227</ele>
        <time>2018-09-20T10:20:20Z</time>
      </trkpt>
      <trkpt lat="45.96755" lon="4.77665">
        <ele>227</ele>
        <time>2018-09-20T10:20:21Z</time>
      </trkpt>
      <trkpt lat="45.9675" lon="4.77658">
        <ele>227</ele>
        <time>2018-09-20T10:20:22Z</time>
      </trkpt>
      <trkpt lat="45.96745" lon="4.77652">
        <ele>227</ele>
        <time>2018-09-20T10:20:23Z</time>
      </trkpt>
      <trkpt lat="45.9674" lon="4.77646">
        <ele>227</ele>
        <time>2018-09-20T10:20:24Z</time>
      </trkpt>
      <trkpt lat="45.96736" lon="4.7764">
        <ele>227</ele>
        <time>2018-09-20T10:20:25Z</time>
      </trkpt>
      <trkpt lat="45.96732" lon="4.77634">
        <ele>226</ele>
        <time>2018-09-20T10:20:26Z</time>
      </trkpt>
      <trkpt lat="45.96727" lon="4.77628">
        <ele>226</ele>
        <time>2018-09-20T10:20:27Z</time>
      </trkpt>
      <trkpt lat="45.96722" lon="4.77622">
        <ele>226</ele>
        <time>2018-09-20T10:20:28Z</time>
      </trkpt>
      <trkpt lat="45.96717" lon="4.77617">
        <ele>226</ele>
        <time>2018-09-20T10:20:29Z</time>
      </trkpt>
      <trkpt lat="45.96713" lon="4.77611">
        <ele>226</ele>
        <time>2018-09-20T10:20:30Z</time>
      </trkpt>
      <trkpt lat="45.96708" lon="4.77605">
        <ele>226</ele>
        <time>2018-09-20T10:20:31Z</time>
      </trkpt>
      <trkpt lat="45.96704" lon="4.77599">
        <ele>226</ele>
        <time>2018-09-20T10:20:32Z</time>
      </trkpt>
      <trkpt lat="45.96699" lon="4.77594">
        <ele>226</ele>
        <time>2018-09-20T10:20:33Z</time>
      </trkpt>
      <trkpt lat="45.96695" lon="4.77588">
        <ele>226</ele>
        <time>2018-09-20T10:20:34Z</time>
      </trkpt>
      <trkpt lat="45.96691" lon="4.77582">
        <ele>225</ele>
        <time>2018-09-20T10:20:35Z</time>
      </trkpt>
      <trkpt lat="45.96687" lon="4.77577">
        <ele>225</ele>
        <time>2018-09-20T10:20:36Z</time>
      </trkpt>
      <trkpt lat="45.96681" lon="4.77575">
        <ele>225</ele>
        <time>2018-09-20T10:20:37Z</time>
      </trkpt>
      <trkpt lat="45.96677" lon="4.7757">
        <ele>225</ele>
        <time>2018-09-20T10:20:38Z</time>
      </trkpt>
      <trkpt lat="45.96672" lon="4.77566">
        <ele>225</ele>
        <time>2018-09-20T10:20:39Z</time>
      </trkpt>
      <trkpt lat="45.96666" lon="4.77562">
        <ele>225</ele>
        <time>2018-09-20T10:20:40Z</time>
      </trkpt>
      <trkpt lat="45.9666" lon="4.77557">
        <ele>224</ele>
        <time>2018-09-20T10:20:41Z</time>
      </trkpt>
      <trkpt lat="45.96654" lon="4.77552">
        <ele>224</ele>
        <time>2018-09-20T10:20:42Z</time>
      </trkpt>
      <trkpt lat="45.96649" lon="4.77548">
        <ele>224</ele>
        <time>2018-09-20T10:20:43Z</time>
      </trkpt>
      <trkpt lat="45.96644" lon="4.77543">
        <ele>224</ele>
        <time>2018-09-20T10:20:44Z</time>
      </trkpt>
      <trkpt lat="45.96638" lon="4.77539">
        <ele>224</ele>
        <time>2018-09-20T10:20:45Z</time>
      </trkpt>
      <trkpt lat="45.96631" lon="4.77536">
        <ele>224</ele>
        <time>2018-09-20T10:20:46Z</time>
      </trkpt>
      <trkpt lat="45.96625" lon="4.77533">
        <ele>224</ele>
        <time>2018-09-20T10:20:47Z</time>
      </trkpt>
      <trkpt lat="45.96617" lon="4.77529">
        <ele>224</ele>
        <time>2018-09-20T10:20:48Z</time>
      </trkpt>
      <trkpt lat="45.96608" lon="4.77524">
        <ele>224</ele>
        <time>2018-09-20T10:20:49Z</time>
      </trkpt>
      <trkpt lat="45.966" lon="4.77518">
        <ele>224</ele>
        <time>2018-09-20T10:20:50Z</time>
      </trkpt>
      <trkpt lat="45.96595" lon="4.77514">
        <ele>224</ele>
        <time>2018-09-20T10:20:51Z</time>
      </trkpt>
      <trkpt lat="45.96588" lon="4.7751">
        <ele>224</ele>
        <time>2018-09-20T10:20:52Z</time>
      </trkpt>
      <trkpt lat="45.9658" lon="4.77507">
        <ele>224</ele>
        <time>2018-09-20T10:20:53Z</time>
      </trkpt>
      <trkpt lat="45.96572" lon="4.77501">
        <ele>224</ele>
        <time>2018-09-20T10:20:54Z</time>
      </trkpt>
      <trkpt lat="45.96565" lon="4.77498">
        <ele>224</ele>
        <time>2018-09-20T10:20:55Z</time>
      </trkpt>
      <trkpt lat="45.96559" lon="4.77493">
        <ele>224</ele>
        <time>2018-09-20T10:20:56Z</time>
      </trkpt>
      <trkpt lat="45.96553" lon="4.77489">
        <ele>223</ele>
        <time>2018-09-20T10:20:57Z</time>
      </trkpt>
      <trkpt lat="45.96546" lon="4.77485">
        <ele>223</ele>
        <time>2018-09-20T10:20:58Z</time>
      </trkpt>
      <trkpt lat="45.9654" lon="4.77482">
        <ele>223</ele>
        <time>2018-09-20T10:20:59Z</time>
      </trkpt>
      <trkpt lat="45.96533" lon="4.77477">
        <ele>223</ele>
        <time>2018-09-20T10:21:00Z</time>
      </trkpt>
      <trkpt lat="45.96527" lon="4.77472">
        <ele>223</ele>
        <time>2018-09-20T10:21:01Z</time>
      </trkpt>
      <trkpt lat="45.96521" lon="4.77468">
        <ele>223</ele>
        <time>2018-09-20T10:21:02Z</time>
      </trkpt>
      <trkpt lat="45.96515" lon="4.77464">
        <ele>223</ele>
        <time>2018-09-20T10:21:03Z</time>
      </trkpt>
      <trkpt lat="45.96508" lon="4.7746">
        <ele>223</ele>
        <time>2018-09-20T10:21:04Z</time>
      </trkpt>
      <trkpt lat="45.96501" lon="4.77455">
        <ele>223</ele>
        <time>2018-09-20T10:21:05Z</time>
      </trkpt>
      <trkpt lat="45.96494" lon="4.7745">
        <ele>221</ele>
        <time>2018-09-20T10:21:06Z</time>
      </trkpt>
      <trkpt lat="45.96488" lon="4.77445">
        <ele>221</ele>
        <time>2018-09-20T10:21:07Z</time>
      </trkpt>
      <trkpt lat="45.96481" lon="4.77441">
        <ele>221</ele>
        <time>2018-09-20T10:21:08Z</time>
      </trkpt>
      <trkpt lat="45.96476" lon="4.77436">
        <ele>221</ele>
        <time>2018-09-20T10:21:09Z</time>
      </trkpt>
      <trkpt lat="45.96471" lon="4.77432">
        <ele>221</ele>
        <time>2018-09-20T10:21:10Z</time>
      </trkpt>
      <trkpt lat="45.96464" lon="4.77428">
        <ele>221</ele>
        <time>2018-09-20T10:21:11Z</time>
      </trkpt>
      <trkpt lat="45.96457" lon="4.77423">
        <ele>221</ele>
        <time>2018-09-20T10:21:12Z</time>
      </trkpt>
      <trkpt lat="45.96451" lon="4.77418">
        <ele>221</ele>
        <time>2018-09-20T10:21:13Z</time>
      </trkpt>
      <trkpt lat="45.96444" lon="4.77414">
        <ele>222</ele>
        <time>2018-09-20T10:21:14Z</time>
      </trkpt>
      <trkpt lat="45.96437" lon="4.7741">
        <ele>222</ele>
        <time>2018-09-20T10:21:15Z</time>
      </trkpt>
      <trkpt lat="45.9643" lon="4.77406">
        <ele>222</ele>
        <time>2018-09-20T10:21:16Z</time>
      </trkpt>
      <trkpt lat="45.96423" lon="4.77401">
        <ele>222</ele>
        <time>2018-09-20T10:21:17Z</time>
      </trkpt>
      <trkpt lat="45.96416" lon="4.77396">
        <ele>220</ele>
        <time>2018-09-20T10:21:18Z</time>
      </trkpt>
      <trkpt lat="45.96409" lon="4.77393">
        <ele>220</ele>
        <time>2018-09-20T10:21:19Z</time>
      </trkpt>
      <trkpt lat="45.96401" lon="4.77389">
        <ele>220</ele>
        <time>2018-09-20T10:21:20Z</time>
      </trkpt>
      <trkpt lat="45.96394" lon="4.77386">
        <ele>220</ele>
        <time>2018-09-20T10:21:21Z</time>
      </trkpt>
      <trkpt lat="45.96386" lon="4.77382">
        <ele>220</ele>
        <time>2018-09-20T10:21:22Z</time>
      </trkpt>
      <trkpt lat="45.9638" lon="4.77377">
        <ele>220</ele>
        <time>2018-09-20T10:21:23Z</time>
      </trkpt>
      <trkpt lat="45.96373" lon="4.77373">
        <ele>219</ele>
        <time>2018-09-20T10:21:24Z</time>
      </trkpt>
      <trkpt lat="45.96366" lon="4.77369">
        <ele>219</ele>
        <time>2018-09-20T10:21:25Z</time>
      </trkpt>
      <trkpt lat="45.96358" lon="4.77364">
        <ele>219</ele>
        <time>2018-09-20T10:21:26Z</time>
      </trkpt>
      <trkpt lat="45.96351" lon="4.77359">
        <ele>219</ele>
        <time>2018-09-20T10:21:27Z</time>
      </trkpt>
      <trkpt lat="45.96344" lon="4.77355">
        <ele>219</ele>
        <time>2018-09-20T10:21:28Z</time>
      </trkpt>
      <trkpt lat="45.96337" lon="4.77351">
        <ele>220</ele>
        <time>2018-09-20T10:21:29Z</time>
      </trkpt>
      <trkpt lat="45.9633" lon="4.77347">
        <ele>218</ele>
        <time>2018-09-20T10:21:30Z</time>
      </trkpt>
      <trkpt lat="45.96323" lon="4.77342">
        <ele>218</ele>
        <time>2018-09-20T10:21:31Z</time>
      </trkpt>
      <trkpt lat="45.96316" lon="4.77338">
        <ele>218</ele>
        <time>2018-09-20T10:21:32Z</time>
      </trkpt>
      <trkpt lat="45.96309" lon="4.77334">
        <ele>217</ele>
        <time>2018-09-20T10:21:33Z</time>
      </trkpt>
      <trkpt lat="45.96301" lon="4.77332">
        <ele>219</ele>
        <time>2018-09-20T10:21:34Z</time>
      </trkpt>
      <trkpt lat="45.96294" lon="4.77328">
        <ele>219</ele>
        <time>2018-09-20T10:21:35Z</time>
      </trkpt>
      <trkpt lat="45.96287" lon="4.77324">
        <ele>219</ele>
        <time>2018-09-20T10:21:36Z</time>
      </trkpt>
      <trkpt lat="45.9628" lon="4.7732">
        <ele>219</ele>
        <time>2018-09-20T10:21:37Z</time>
      </trkpt>
      <trkpt lat="45.96273" lon="4.77315">
        <ele>219</ele>
        <time>2018-09-20T10:21:38Z</time>
      </trkpt>
      <trkpt lat="45.96266" lon="4.77313">
        <ele>218</ele>
        <time>2018-09-20T10:21:39Z</time>
      </trkpt>
      <trkpt lat="45.96259" lon="4.7731">
        <ele>218</ele>
        <time>2018-09-20T10:21:40Z</time>
      </trkpt>
      <trkpt lat="45.96252" lon="4.77306">
        <ele>218</ele>
        <time>2018-09-20T10:21:41Z</time>
      </trkpt>
      <trkpt lat="45.96246" lon="4.77302">
        <ele>217</ele>
        <time>2018-09-20T10:21:42Z</time>
      </trkpt>
      <trkpt lat="45.9624" lon="4.77298">
        <ele>217</ele>
        <time>2018-09-20T10:21:43Z</time>
      </trkpt>
      <trkpt lat="45.96233" lon="4.77294">
        <ele>217</ele>
        <time>2018-09-20T10:21:44Z</time>
      </trkpt>
      <trkpt lat="45.96226" lon="4.77291">
        <ele>217</ele>
        <time>2018-09-20T10:21:45Z</time>
      </trkpt>
      <trkpt lat="45.96219" lon="4.77286">
        <ele>217</ele>
        <time>2018-09-20T10:21:46Z</time>
      </trkpt>
      <trkpt lat="45.96212" lon="4.77282">
        <ele>217</ele>
        <time>2018-09-20T10:21:47Z</time>
      </trkpt>
      <trkpt lat="45.96205" lon="4.77279">
        <ele>216</ele>
        <time>2018-09-20T10:21:48Z</time>
      </trkpt>
      <trkpt lat="45.96199" lon="4.77276">
        <ele>216</ele>
        <time>2018-09-20T10:21:49Z</time>
      </trkpt>
      <trkpt lat="45.96191" lon="4.77272">
        <ele>216</ele>
        <time>2018-09-20T10:21:50Z</time>
      </trkpt>
      <trkpt lat="45.96184" lon="4.77268">
        <ele>216</ele>
        <time>2018-09-20T10:21:51Z</time>
      </trkpt>
      <trkpt lat="45.96178" lon="4.77264">
        <ele>216</ele>
        <time>2018-09-20T10:21:52Z</time>
      </trkpt>
      <trkpt lat="45.96172" lon="4.77261">
        <ele>216</ele>
        <time>2018-09-20T10:21:53Z</time>
      </trkpt>
      <trkpt lat="45.96167" lon="4.77256">
        <ele>216</ele>
        <time>2018-09-20T10:21:54Z</time>
      </trkpt>
      <trkpt lat="45.96162" lon="4.77252">
        <ele>215</ele>
        <time>2018-09-20T10:21:55Z</time>
      </trkpt>
      <trkpt lat="45.96155" lon="4.77249">
        <ele>216</ele>
        <time>2018-09-20T10:21:56Z</time>
      </trkpt>
      <trkpt lat="45.96149" lon="4.77247">
        <ele>215</ele>
        <time>2018-09-20T10:21:57Z</time>
      </trkpt>
      <trkpt lat="45.96142" lon="4.77244">
        <ele>215</ele>
        <time>2018-09-20T10:21:58Z</time>
      </trkpt>
      <trkpt lat="45.96136" lon="4.77242">
        <ele>215</ele>
        <time>2018-09-20T10:21:59Z</time>
      </trkpt>
      <trkpt lat="45.9613" lon="4.7724">
        <ele>215</ele>
        <time>2018-09-20T10:22:00Z</time>
      </trkpt>
      <trkpt lat="45.96123" lon="4.77238">
        <ele>214</ele>
        <time>2018-09-20T10:22:01Z</time>
      </trkpt>
      <trkpt lat="45.96116" lon="4.77238">
        <ele>214</ele>
        <time>2018-09-20T10:22:02Z</time>
      </trkpt>
      <trkpt lat="45.96109" lon="4.77238">
        <ele>214</ele>
        <time>2018-09-20T10:22:03Z</time>
      </trkpt>
      <trkpt lat="45.96104" lon="4.77239">
        <ele>213</ele>
        <time>2018-09-20T10:22:04Z</time>
      </trkpt>
      <trkpt lat="45.96097" lon="4.7724">
        <ele>212</ele>
        <time>2018-09-20T10:22:05Z</time>
      </trkpt>
      <trkpt lat="45.96089" lon="4.77241">
        <ele>212</ele>
        <time>2018-09-20T10:22:06Z</time>
      </trkpt>
      <trkpt lat="45.96081" lon="4.77241">
        <ele>210</ele>
        <time>2018-09-20T10:22:07Z</time>
      </trkpt>
      <trkpt lat="45.96072" lon="4.77242">
        <ele>210</ele>
        <time>2018-09-20T10:22:08Z</time>
      </trkpt>
      <trkpt lat="45.96064" lon="4.77244">
        <ele>209</ele>
        <time>2018-09-20T10:22:09Z</time>
      </trkpt>
      <trkpt lat="45.96057" lon="4.77245">
        <ele>209</ele>
        <time>2018-09-20T10:22:10Z</time>
      </trkpt>
      <trkpt lat="45.96048" lon="4.77245">
        <ele>209</ele>
        <time>2018-09-20T10:22:11Z</time>
      </trkpt>
      <trkpt lat="45.96041" lon="4.77246">
        <ele>208</ele>
        <time>2018-09-20T10:22:12Z</time>
      </trkpt>
      <trkpt lat="45.96033" lon="4.77246">
        <ele>208</ele>
        <time>2018-09-20T10:22:13Z</time>
      </trkpt>
      <trkpt lat="45.96026" lon="4.77247">
        <ele>207</ele>
        <time>2018-09-20T10:22:14Z</time>
      </trkpt>
      <trkpt lat="45.96017" lon="4.77247">
        <ele>206</ele>
        <time>2018-09-20T10:22:15Z</time>
      </trkpt>
      <trkpt lat="45.96009" lon="4.77246">
        <ele>205</ele>
        <time>2018-09-20T10:22:16Z</time>
      </trkpt>
      <trkpt lat="45.96" lon="4.77245">
        <ele>204</ele>
        <time>2018-09-20T10:22:17Z</time>
      </trkpt>
      <trkpt lat="45.95992" lon="4.77241">
        <ele>202</ele>
        <time>2018-09-20T10:22:18Z</time>
      </trkpt>
      <trkpt lat="45.95983" lon="4.77234">
        <ele>202</ele>
        <time>2018-09-20T10:22:19Z</time>
      </trkpt>
      <trkpt lat="45.95975" lon="4.77227">
        <ele>202</ele>
        <time>2018-09-20T10:22:20Z</time>
      </trkpt>
      <trkpt lat="45.95968" lon="4.77221">
        <ele>202</ele>
        <time>2018-09-20T10:22:21Z</time>
      </trkpt>
      <trkpt lat="45.95961" lon="4.77213">
        <ele>201</ele>
        <time>2018-09-20T10:22:22Z</time>
      </trkpt>
      <trkpt lat="45.95956" lon="4.77204">
        <ele>201</ele>
        <time>2018-09-20T10:22:23Z</time>
      </trkpt>
      <trkpt lat="45.95951" lon="4.77194">
        <ele>201</ele>
        <time>2018-09-20T10:22:24Z</time>
      </trkpt>
      <trkpt lat="45.95949" lon="4.77181">
        <ele>201</ele>
        <time>2018-09-20T10:22:25Z</time>
      </trkpt>
      <trkpt lat="45.95946" lon="4.77169">
        <ele>200</ele>
        <time>2018-09-20T10:22:26Z</time>
      </trkpt>
      <trkpt lat="45.95943" lon="4.77157">
        <ele>201</ele>
        <time>2018-09-20T10:22:27Z</time>
      </trkpt>
      <trkpt lat="45.95941" lon="4.77145">
        <ele>201</ele>
        <time>2018-09-20T10:22:28Z</time>
      </trkpt>
      <trkpt lat="45.95941" lon="4.77132">
        <ele>201</ele>
        <time>2018-09-20T10:22:29Z</time>
      </trkpt>
      <trkpt lat="45.95941" lon="4.7712">
        <ele>201</ele>
        <time>2018-09-20T10:22:30Z</time>
      </trkpt>
      <trkpt lat="45.95942" lon="4.77108">
        <ele>201</ele>
        <time>2018-09-20T10:22:31Z</time>
      </trkpt>
      <trkpt lat="45.95943" lon="4.77096">
        <ele>201</ele>
        <time>2018-09-20T10:22:32Z</time>
      </trkpt>
      <trkpt lat="45.95946" lon="4.77084">
        <ele>201</ele>
        <time>2018-09-20T10:22:33Z</time>
      </trkpt>
      <trkpt lat="45.95949" lon="4.77072">
        <ele>200</ele>
        <time>2018-09-20T10:22:34Z</time>
      </trkpt>
      <trkpt lat="45.95953" lon="4.77061">
        <ele>200</ele>
        <time>2018-09-20T10:22:35Z</time>
      </trkpt>
      <trkpt lat="45.95957" lon="4.7705">
        <ele>200</ele>
        <time>2018-09-20T10:22:36Z</time>
      </trkpt>
      <trkpt lat="45.9596" lon="4.77038">
        <ele>200</ele>
        <time>2018-09-20T10:22:37Z</time>
      </trkpt>
      <trkpt lat="45.95964" lon="4.77027">
        <ele>200</ele>
        <time>2018-09-20T10:22:38Z</time>
      </trkpt>
      <trkpt lat="45.95968" lon="4.77016">
        <ele>200</ele>
        <time>2018-09-20T10:22:39Z</time>
      </trkpt>
      <trkpt lat="45.95973" lon="4.77006">
        <ele>200</ele>
        <time>2018-09-20T10:22:40Z</time>
      </trkpt>
      <trkpt lat="45.95976" lon="4.76994">
        <ele>198</ele>
        <time>2018-09-20T10:22:41Z</time>
      </trkpt>
      <trkpt lat="45.9598" lon="4.76984">
        <ele>197</ele>
        <time>2018-09-20T10:22:42Z</time>
      </trkpt>
      <trkpt lat="45.95981" lon="4.7697">
        <ele>197</ele>
        <time>2018-09-20T10:22:43Z</time>
      </trkpt>
      <trkpt lat="45.9598" lon="4.76959">
        <ele>196</ele>
        <time>2018-09-20T10:22:44Z</time>
      </trkpt>
      <trkpt lat="45.95976" lon="4.76946">
        <ele>196</ele>
        <time>2018-09-20T10:22:45Z</time>
      </trkpt>
      <trkpt lat="45.95971" lon="4.76936">
        <ele>195</ele>
        <time>2018-09-20T10:22:46Z</time>
      </trkpt>
      <trkpt lat="45.95964" lon="4.76926">
        <ele>195</ele>
        <time>2018-09-20T10:22:47Z</time>
      </trkpt>
      <trkpt lat="45.95956" lon="4.76919">
        <ele>195</ele>
        <time>2018-09-20T10:22:48Z</time>
      </trkpt>
      <trkpt lat="45.95948" lon="4.76911">
        <ele>193</ele>
        <time>2018-09-20T10:22:49Z</time>
      </trkpt>
      <trkpt lat="45.95941" lon="4.76903">
        <ele>192</ele>
        <time>2018-09-20T10:22:50Z</time>
      </trkpt>
      <trkpt lat="45.95934" lon="4.76894">
        <ele>192</ele>
        <time>2018-09-20T10:22:51Z</time>
      </trkpt>
      <trkpt lat="45.95927" lon="4.76886">
        <ele>192</ele>
        <time>2018-09-20T10:22:52Z</time>
      </trkpt>
      <trkpt lat="45.95919" lon="4.76878">
        <ele>192</ele>
        <time>2018-09-20T10:22:53Z</time>
      </trkpt>
      <trkpt lat="45.95911" lon="4.7687">
        <ele>191</ele>
        <time>2018-09-20T10:22:54Z</time>
      </trkpt>
      <trkpt lat="45.95904" lon="4.76861">
        <ele>191</ele>
        <time>2018-09-20T10:22:55Z</time>
      </trkpt>
      <trkpt lat="45.95897" lon="4.76853">
        <ele>191</ele>
        <time>2018-09-20T10:22:56Z</time>
      </trkpt>
      <trkpt lat="45.95889" lon="4.76846">
        <ele>191</ele>
        <time>2018-09-20T10:22:57Z</time>
      </trkpt>
      <trkpt lat="45.95882" lon="4.76837">
        <ele>191</ele>
        <time>2018-09-20T10:22:58Z</time>
      </trkpt>
      <trkpt lat="45.95874" lon="4.76829">
        <ele>191</ele>
        <time>2018-09-20T10:22:59Z</time>
      </trkpt>
      <trkpt lat="45.95867" lon="4.76821">
        <ele>191</ele>
        <time>2018-09-20T10:23:00Z</time>
      </trkpt>
      <trkpt lat="45.9586" lon="4.76813">
        <ele>191</ele>
        <time>2018-09-20T10:23:01Z</time>
      </trkpt>
      <trkpt lat="45.95854" lon="4.76805">
        <ele>191</ele>
        <time>2018-09-20T10:23:02Z</time>
      </trkpt>
      <trkpt lat="45.95847" lon="4.76798">
        <ele>191</ele>
        <time>2018-09-20T10:23:03Z</time>
      </trkpt>
      <trkpt lat="45.95841" lon="4.76791">
        <ele>191</ele>
        <time>2018-09-20T10:23:04Z</time>
      </trkpt>
      <trkpt lat="45.95836" lon="4.76783">
        <ele>191</ele>
        <time>2018-09-20T10:23:05Z</time>
      </trkpt>
      <trkpt lat="45.95831" lon="4.76773">
        <ele>190</ele>
        <time>2018-09-20T10:23:06Z</time>
      </trkpt>
      <trkpt lat="45.95826" lon="4.76763">
        <ele>190</ele>
        <time>2018-09-20T10:23:07Z</time>
      </trkpt>
      <trkpt lat="45.95826" lon="4.76752">
        <ele>191</ele>
        <time>2018-09-20T10:23:08Z</time>
      </trkpt>
      <trkpt lat="45.95824" lon="4.76742">
        <ele>190</ele>
        <time>2018-09-20T10:23:09Z</time>
      </trkpt>
      <trkpt lat="45.95824" lon="4.76731">
        <ele>190</ele>
        <time>2018-09-20T10:23:10Z</time>
      </trkpt>
      <trkpt lat="45.95823" lon="4.76721">
        <ele>189</ele>
        <time>2018-09-20T10:23:11Z</time>
      </trkpt>
      <trkpt lat="45.95821" lon="4.76711">
        <ele>189</ele>
        <time>2018-09-20T10:23:12Z</time>
      </trkpt>
      <trkpt lat="45.9582" lon="4.76702">
        <ele>189</ele>
        <time>2018-09-20T10:23:13Z</time>
      </trkpt>
      <trkpt lat="45.95817" lon="4.76691">
        <ele>189</ele>
        <time>2018-09-20T10:23:14Z</time>
      </trkpt>
      <trkpt lat="45.95815" lon="4.76682">
        <ele>189</ele>
        <time>2018-09-20T10:23:15Z</time>
      </trkpt>
      <trkpt lat="45.95814" lon="4.76673">
        <ele>189</ele>
        <time>2018-09-20T10:23:16Z</time>
      </trkpt>
      <trkpt lat="45.95813" lon="4.76663">
        <ele>188</ele>
        <time>2018-09-20T10:23:17Z</time>
      </trkpt>
      <trkpt lat="45.95811" lon="4.76654">
        <ele>188</ele>
        <time>2018-09-20T10:23:18Z</time>
      </trkpt>
      <trkpt lat="45.9581" lon="4.76645">
        <ele>188</ele>
        <time>2018-09-20T10:23:19Z</time>
      </trkpt>
      <trkpt lat="45.95809" lon="4.76637">
        <ele>188</ele>
        <time>2018-09-20T10:23:20Z</time>
      </trkpt>
      <trkpt lat="45.95807" lon="4.7663">
        <ele>188</ele>
        <time>2018-09-20T10:23:21Z</time>
      </trkpt>
      <trkpt lat="45.95807" lon="4.76623">
        <ele>188</ele>
        <time>2018-09-20T10:23:22Z</time>
      </trkpt>
      <trkpt lat="45.95805" lon="4.76616">
        <ele>188</ele>
        <time>2018-09-20T10:23:23Z</time>
      </trkpt>
      <trkpt lat="45.95804" lon="4.7661">
        <ele>188</ele>
        <time>2018-09-20T10:23:24Z</time>
      </trkpt>
      <trkpt lat="45.95803" lon="4.76602">
        <ele>188</ele>
        <time>2018-09-20T10:23:25Z</time>
      </trkpt>
      <trkpt lat="45.95802" lon="4.76593">
        <ele>187</ele>
        <time>2018-09-20T10:23:26Z</time>
      </trkpt>
      <trkpt lat="45.958" lon="4.76585">
        <ele>187</ele>
        <time>2018-09-20T10:23:27Z</time>
      </trkpt>
      <trkpt lat="45.958" lon="4.76577">
        <ele>187</ele>
        <time>2018-09-20T10:23:28Z</time>
      </trkpt>
      <trkpt lat="45.95798" lon="4.76569">
        <ele>187</ele>
        <time>2018-09-20T10:23:29Z</time>
      </trkpt>
      <trkpt lat="45.95797" lon="4.7656">
        <ele>187</ele>
        <time>2018-09-20T10:23:30Z</time>
      </trkpt>
      <trkpt lat="45.95797" lon="4.76553">
        <ele>187</ele>
        <time>2018-09-20T10:23:31Z</time>
      </trkpt>
      <trkpt lat="45.95796" lon="4.76544">
        <ele>187</ele>
        <time>2018-09-20T10:23:32Z</time>
      </trkpt>
      <trkpt lat="45.95795" lon="4.76537">
        <ele>187</ele>
        <time>2018-09-20T10:23:33Z</time>
      </trkpt>
      <trkpt lat="45.95794" lon="4.7653">
        <ele>187</ele>
        <time>2018-09-20T10:23:34Z</time>
      </trkpt>
      <trkpt lat="45.95792" lon="4.76522">
        <ele>187</ele>
        <time>2018-09-20T10:23:35Z</time>
      </trkpt>
      <trkpt lat="45.95791" lon="4.76514">
        <ele>187</ele>
        <time>2018-09-20T10:23:36Z</time>
      </trkpt>
      <trkpt lat="45.9579" lon="4.76506">
        <ele>187</ele>
        <time>2018-09-20T10:23:37Z</time>
      </trkpt>
      <trkpt lat="45.95789" lon="4.76499">
        <ele>186</ele>
        <time>2018-09-20T10:23:38Z</time>
      </trkpt>
      <trkpt lat="45.95789" lon="4.76491">
        <ele>186</ele>
        <time>2018-09-20T10:23:39Z</time>
      </trkpt>
      <trkpt lat="45.95786" lon="4.76484">
        <ele>186</ele>
        <time>2018-09-20T10:23:40Z</time>
      </trkpt>
      <trkpt lat="45.95785" lon="4.76476">
        <ele>186</ele>
        <time>2018-09-20T10:23:41Z</time>
      </trkpt>
      <trkpt lat="45.95784" lon="4.76468">
        <ele>186</ele>
        <time>2018-09-20T10:23:42Z</time>
      </trkpt>
      <trkpt lat="45.95783" lon="4.7646">
        <ele>186</ele>
        <time>2018-09-20T10:23:43Z</time>
      </trkpt>
      <trkpt lat="45.95781" lon="4.76454">
        <ele>186</ele>
        <time>2018-09-20T10:23:44Z</time>
      </trkpt>
      <trkpt lat="45.9578" lon="4.76447">
        <ele>186</ele>
        <time>2018-09-20T10:23:45Z</time>
      </trkpt>
      <trkpt lat="45.95778" lon="4.76439">
        <ele>186</ele>
        <time>2018-09-20T10:23:46Z</time>
      </trkpt>
      <trkpt lat="45.95778" lon="4.76432">
        <ele>186</ele>
        <time>2018-09-20T10:23:47Z</time>
      </trkpt>
      <trkpt lat="45.95777" lon="4.76424">
        <ele>186</ele>
        <time>2018-09-20T10:23:48Z</time>
      </trkpt>
      <trkpt lat="45.95777" lon="4.76418">
        <ele>186</ele>
        <time>2018-09-20T10:23:49Z</time>
      </trkpt>
      <trkpt lat="45.95777" lon="4.76409">
        <ele>186</ele>
        <time>2018-09-20T10:23:50Z</time>
      </trkpt>
      <trkpt lat="45.95775" lon="4.764">
        <ele>186</ele>
        <time>2018-09-20T10:23:51Z</time>
      </trkpt>
      <trkpt lat="45.95774" lon="4.76392">
        <ele>186</ele>
        <time>2018-09-20T10:23:52Z</time>
      </trkpt>
      <trkpt lat="45.95774" lon="4.76384">
        <ele>186</ele>
        <time>2018-09-20T10:23:53Z</time>
      </trkpt>
      <trkpt lat="45.95774" lon="4.76376">
        <ele>186</ele>
        <time>2018-09-20T10:23:54Z</time>
      </trkpt>
      <trkpt lat="45.95773" lon="4.76369">
        <ele>186</ele>
        <time>2018-09-20T10:23:55Z</time>
      </trkpt>
      <trkpt lat="45.95772" lon="4.7636">
        <ele>186</ele>
        <time>2018-09-20T10:23:56Z</time>
      </trkpt>
      <trkpt lat="45.95772" lon="4.76353">
        <ele>186</ele>
        <time>2018-09-20T10:23:57Z</time>
      </trkpt>
      <trkpt lat="45.95772" lon="4.76346">
        <ele>186</ele>
        <time>2018-09-20T10:23:58Z</time>
      </trkpt>
      <trkpt lat="45.95771" lon="4.76338">
        <ele>186</ele>
        <time>2018-09-20T10:23:59Z</time>
      </trkpt>
      <trkpt lat="45.95771" lon="4.76331">
        <ele>185</ele>
        <time>2018-09-20T10:24:00Z</time>
      </trkpt>
      <trkpt lat="45.9577" lon="4.76323">
        <ele>185</ele>
        <time>2018-09-20T10:24:01Z</time>
      </trkpt>
      <trkpt lat="45.95771" lon="4.76314">
        <ele>185</ele>
        <time>2018-09-20T10:24:02Z</time>
      </trkpt>
      <trkpt lat="45.9577" lon="4.76306">
        <ele>186</ele>
        <time>2018-09-20T10:24:03Z</time>
      </trkpt>
      <trkpt lat="45.9577" lon="4.76298">
        <ele>186</ele>
        <time>2018-09-20T10:24:04Z</time>
      </trkpt>
      <trkpt lat="45.95769" lon="4.7629">
        <ele>186</ele>
        <time>2018-09-20T10:24:05Z</time>
      </trkpt>
      <trkpt lat="45.95768" lon="4.76282">
        <ele>186</ele>
        <time>2018-09-20T10:24:06Z</time>
      </trkpt>
      <trkpt lat="45.95767" lon="4.76275">
        <ele>186</ele>
        <time>2018-09-20T10:24:07Z</time>
      </trkpt>
      <trkpt lat="45.95766" lon="4.76267">
        <ele>185</ele>
        <time>2018-09-20T10:24:08Z</time>
      </trkpt>
      <trkpt lat="45.95765" lon="4.76261">
        <ele>185</ele>
        <time>2018-09-20T10:24:09Z</time>
      </trkpt>
      <trkpt lat="45.95764" lon="4.76254">
        <ele>185</ele>
        <time>2018-09-20T10:24:10Z</time>
      </trkpt>
      <trkpt lat="45.95763" lon="4.76243">
        <ele>185</ele>
        <time>2018-09-20T10:24:12Z</time>
      </trkpt>
      <trkpt lat="45.95762" lon="4.76237">
        <ele>186</ele>
        <time>2018-09-20T10:24:13Z</time>
      </trkpt>
      <trkpt lat="45.95762" lon="4.76229">
        <ele>186</ele>
        <time>2018-09-20T10:24:14Z</time>
      </trkpt>
      <trkpt lat="45.95763" lon="4.76222">
        <ele>186</ele>
        <time>2018-09-20T10:24:15Z</time>
      </trkpt>
      <trkpt lat="45.95761" lon="4.76215">
        <ele>186</ele>
        <time>2018-09-20T10:24:16Z</time>
      </trkpt>
      <trkpt lat="45.95761" lon="4.76208">
        <ele>186</ele>
        <time>2018-09-20T10:24:17Z</time>
      </trkpt>
      <trkpt lat="45.95761" lon="4.76198">
        <ele>186</ele>
        <time>2018-09-20T10:24:18Z</time>
      </trkpt>
      <trkpt lat="45.95761" lon="4.76191">
        <ele>186</ele>
        <time>2018-09-20T10:24:19Z</time>
      </trkpt>
      <trkpt lat="45.95762" lon="4.76185">
        <ele>186</ele>
        <time>2018-09-20T10:24:20Z</time>
      </trkpt>
      <trkpt lat="45.95762" lon="4.76178">
        <ele>185</ele>
        <time>2018-09-20T10:24:21Z</time>
      </trkpt>
      <trkpt lat="45.95763" lon="4.7617">
        <ele>185</ele>
        <time>2018-09-20T10:24:22Z</time>
      </trkpt>
      <trkpt lat="45.95762" lon="4.76163">
        <ele>186</ele>
        <time>2018-09-20T10:24:23Z</time>
      </trkpt>
      <trkpt lat="45.95763" lon="4.76156">
        <ele>186</ele>
        <time>2018-09-20T10:24:24Z</time>
      </trkpt>
      <trkpt lat="45.95762" lon="4.76148">
        <ele>186</ele>
        <time>2018-09-20T10:24:25Z</time>
      </trkpt>
      <trkpt lat="45.95761" lon="4.7614">
        <ele>186</ele>
        <time>2018-09-20T10:24:26Z</time>
      </trkpt>
      <trkpt lat="45.9576" lon="4.76131">
        <ele>186</ele>
        <time>2018-09-20T10:24:27Z</time>
      </trkpt>
      <trkpt lat="45.9576" lon="4.76123">
        <ele>186</ele>
        <time>2018-09-20T10:24:28Z</time>
      </trkpt>
      <trkpt lat="45.95759" lon="4.76117">
        <ele>186</ele>
        <time>2018-09-20T10:24:29Z</time>
      </trkpt>
      <trkpt lat="45.95757" lon="4.76111">
        <ele>186</ele>
        <time>2018-09-20T10:24:30Z</time>
      </trkpt>
      <trkpt lat="45.95755" lon="4.76104">
        <ele>186</ele>
        <time>2018-09-20T10:24:31Z</time>
      </trkpt>
      <trkpt lat="45.95754" lon="4.76097">
        <ele>186</ele>
        <time>2018-09-20T10:24:32Z</time>
      </trkpt>
      <trkpt lat="45.95752" lon="4.7609">
        <ele>185</ele>
        <time>2018-09-20T10:24:33Z</time>
      </trkpt>
      <trkpt lat="45.95749" lon="4.76082">
        <ele>185</ele>
        <time>2018-09-20T10:24:34Z</time>
      </trkpt>
      <trkpt lat="45.95747" lon="4.76075">
        <ele>185</ele>
        <time>2018-09-20T10:24:35Z</time>
      </trkpt>
      <trkpt lat="45.95745" lon="4.7607">
        <ele>185</ele>
        <time>2018-09-20T10:24:36Z</time>
      </trkpt>
      <trkpt lat="45.95741" lon="4.76062">
        <ele>184</ele>
        <time>2018-09-20T10:24:37Z</time>
      </trkpt>
      <trkpt lat="45.95737" lon="4.76055">
        <ele>184</ele>
        <time>2018-09-20T10:24:38Z</time>
      </trkpt>
      <trkpt lat="45.95734" lon="4.76049">
        <ele>184</ele>
        <time>2018-09-20T10:24:39Z</time>
      </trkpt>
      <trkpt lat="45.95731" lon="4.76042">
        <ele>184</ele>
        <time>2018-09-20T10:24:40Z</time>
      </trkpt>
      <trkpt lat="45.95727" lon="4.76035">
        <ele>184</ele>
        <time>2018-09-20T10:24:41Z</time>
      </trkpt>
      <trkpt lat="45.95724" lon="4.76028">
        <ele>184</ele>
        <time>2018-09-20T10:24:42Z</time>
      </trkpt>
      <trkpt lat="45.95721" lon="4.76023">
        <ele>184</ele>
        <time>2018-09-20T10:24:43Z</time>
      </trkpt>
      <trkpt lat="45.95719" lon="4.76017">
        <ele>184</ele>
        <time>2018-09-20T10:24:44Z</time>
      </trkpt>
      <trkpt lat="45.95716" lon="4.7601">
        <ele>184</ele>
        <time>2018-09-20T10:24:45Z</time>
      </trkpt>
      <trkpt lat="45.95713" lon="4.76004">
        <ele>184</ele>
        <time>2018-09-20T10:24:46Z</time>
      </trkpt>
      <trkpt lat="45.95709" lon="4.75997">
        <ele>185</ele>
        <time>2018-09-20T10:24:47Z</time>
      </trkpt>
      <trkpt lat="45.95707" lon="4.75991">
        <ele>185</ele>
        <time>2018-09-20T10:24:48Z</time>
      </trkpt>
      <trkpt lat="45.95704" lon="4.75985">
        <ele>185</ele>
        <time>2018-09-20T10:24:49Z</time>
      </trkpt>
      <trkpt lat="45.957" lon="4.7598">
        <ele>185</ele>
        <time>2018-09-20T10:24:50Z</time>
      </trkpt>
      <trkpt lat="45.95697" lon="4.75973">
        <ele>185</ele>
        <time>2018-09-20T10:24:51Z</time>
      </trkpt>
      <trkpt lat="45.95693" lon="4.75966">
        <ele>185</ele>
        <time>2018-09-20T10:24:52Z</time>
      </trkpt>
      <trkpt lat="45.9569" lon="4.75959">
        <ele>185</ele>
        <time>2018-09-20T10:24:53Z</time>
      </trkpt>
      <trkpt lat="45.95687" lon="4.75953">
        <ele>185</ele>
        <time>2018-09-20T10:24:54Z</time>
      </trkpt>
      <trkpt lat="45.95684" lon="4.75947">
        <ele>185</ele>
        <time>2018-09-20T10:24:55Z</time>
      </trkpt>
      <trkpt lat="45.95682" lon="4.7594">
        <ele>185</ele>
        <time>2018-09-20T10:24:56Z</time>
      </trkpt>
      <trkpt lat="45.95679" lon="4.75935">
        <ele>185</ele>
        <time>2018-09-20T10:24:57Z</time>
      </trkpt>
      <trkpt lat="45.95677" lon="4.75928">
        <ele>185</ele>
        <time>2018-09-20T10:24:58Z</time>
      </trkpt>
      <trkpt lat="45.95674" lon="4.75921">
        <ele>184</ele>
        <time>2018-09-20T10:24:59Z</time>
      </trkpt>
      <trkpt lat="45.95672" lon="4.75913">
        <ele>185</ele>
        <time>2018-09-20T10:25:00Z</time>
      </trkpt>
      <trkpt lat="45.9567" lon="4.75906">
        <ele>185</ele>
        <time>2018-09-20T10:25:01Z</time>
      </trkpt>
      <trkpt lat="45.95668" lon="4.75898">
        <ele>185</ele>
        <time>2018-09-20T10:25:02Z</time>
      </trkpt>
      <trkpt lat="45.95667" lon="4.75891">
        <ele>186</ele>
        <time>2018-09-20T10:25:03Z</time>
      </trkpt>
      <trkpt lat="45.95664" lon="4.75883">
        <ele>184</ele>
        <time>2018-09-20T10:25:04Z</time>
      </trkpt>
      <trkpt lat="45.95662" lon="4.75875">
        <ele>184</ele>
        <time>2018-09-20T10:25:05Z</time>
      </trkpt>
      <trkpt lat="45.95659" lon="4.75868">
        <ele>184</ele>
        <time>2018-09-20T10:25:06Z</time>
      </trkpt>
      <trkpt lat="45.95657" lon="4.75861">
        <ele>184</ele>
        <time>2018-09-20T10:25:07Z</time>
      </trkpt>
      <trkpt lat="45.95655" lon="4.75855">
        <ele>184</ele>
        <time>2018-09-20T10:25:08Z</time>
      </trkpt>
      <trkpt lat="45.95653" lon="4.75849">
        <ele>185</ele>
        <time>2018-09-20T10:25:09Z</time>
      </trkpt>
      <trkpt lat="45.9565" lon="4.75838">
        <ele>185</ele>
        <time>2018-09-20T10:25:11Z</time>
      </trkpt>
      <trkpt lat="45.95648" lon="4.75831">
        <ele>185</ele>
        <time>2018-09-20T10:25:12Z</time>
      </trkpt>
      <trkpt lat="45.95648" lon="4.75823">
        <ele>185</ele>
        <time>2018-09-20T10:25:13Z</time>
      </trkpt>
      <trkpt lat="45.95646" lon="4.75817">
        <ele>185</ele>
        <time>2018-09-20T10:25:14Z</time>
      </trkpt>
      <trkpt lat="45.95645" lon="4.75811">
        <ele>185</ele>
        <time>2018-09-20T10:25:15Z</time>
      </trkpt>
      <trkpt lat="45.95643" lon="4.75804">
        <ele>185</ele>
        <time>2018-09-20T10:25:16Z</time>
      </trkpt>
      <trkpt lat="45.95642" lon="4.75796">
        <ele>185</ele>
        <time>2018-09-20T10:25:17Z</time>
      </trkpt>
      <trkpt lat="45.9564" lon="4.75789">
        <ele>185</ele>
        <time>2018-09-20T10:25:18Z</time>
      </trkpt>
      <trkpt lat="45.95639" lon="4.75782">
        <ele>185</ele>
        <time>2018-09-20T10:25:19Z</time>
      </trkpt>
      <trkpt lat="45.95638" lon="4.75776">
        <ele>186</ele>
        <time>2018-09-20T10:25:20Z</time>
      </trkpt>
      <trkpt lat="45.95636" lon="4.75769">
        <ele>186</ele>
        <time>2018-09-20T10:25:21Z</time>
      </trkpt>
      <trkpt lat="45.95635" lon="4.75762">
        <ele>186</ele>
        <time>2018-09-20T10:25:22Z</time>
      </trkpt>
      <trkpt lat="45.95633" lon="4.75756">
        <ele>186</ele>
        <time>2018-09-20T10:25:23Z</time>
      </trkpt>
      <trkpt lat="45.95632" lon="4.7575">
        <ele>187</ele>
        <time>2018-09-20T10:25:24Z</time>
      </trkpt>
      <trkpt lat="45.95631" lon="4.75744">
        <ele>187</ele>
        <time>2018-09-20T10:25:25Z</time>
      </trkpt>
      <trkpt lat="45.9563" lon="4.75737">
        <ele>187</ele>
        <time>2018-09-20T10:25:26Z</time>
      </trkpt>
      <trkpt lat="45.95631" lon="4.75731">
        <ele>187</ele>
        <time>2018-09-20T10:25:27Z</time>
      </trkpt>
      <trkpt lat="45.95631" lon="4.75723">
        <ele>187</ele>
        <time>2018-09-20T10:25:28Z</time>
      </trkpt>
      <trkpt lat="45.95629" lon="4.75711">
        <ele>187</ele>
        <time>2018-09-20T10:25:30Z</time>
      </trkpt>
      <trkpt lat="45.95627" lon="4.75705">
        <ele>187</ele>
        <time>2018-09-20T10:25:31Z</time>
      </trkpt>
      <trkpt lat="45.95625" lon="4.75697">
        <ele>187</ele>
        <time>2018-09-20T10:25:32Z</time>
      </trkpt>
      <trkpt lat="45.95625" lon="4.75691">
        <ele>187</ele>
        <time>2018-09-20T10:25:33Z</time>
      </trkpt>
      <trkpt lat="45.95623" lon="4.75684">
        <ele>187</ele>
        <time>2018-09-20T10:25:34Z</time>
      </trkpt>
      <trkpt lat="45.95622" lon="4.75677">
        <ele>187</ele>
        <time>2018-09-20T10:25:35Z</time>
      </trkpt>
      <trkpt lat="45.95621" lon="4.7567">
        <ele>187</ele>
        <time>2018-09-20T10:25:36Z</time>
      </trkpt>
      <trkpt lat="45.9562" lon="4.75664">
        <ele>188</ele>
        <time>2018-09-20T10:25:37Z</time>
      </trkpt>
      <trkpt lat="45.95618" lon="4.75651">
        <ele>188</ele>
        <time>2018-09-20T10:25:39Z</time>
      </trkpt>
      <trkpt lat="45.95616" lon="4.75645">
        <ele>188</ele>
        <time>2018-09-20T10:25:40Z</time>
      </trkpt>
      <trkpt lat="45.95613" lon="4.75633">
        <ele>188</ele>
        <time>2018-09-20T10:25:42Z</time>
      </trkpt>
      <trkpt lat="45.9561" lon="4.75626">
        <ele>188</ele>
        <time>2018-09-20T10:25:43Z</time>
      </trkpt>
      <trkpt lat="45.95609" lon="4.75619">
        <ele>188</ele>
        <time>2018-09-20T10:25:44Z</time>
      </trkpt>
      <trkpt lat="45.95606" lon="4.75612">
        <ele>188</ele>
        <time>2018-09-20T10:25:45Z</time>
      </trkpt>
      <trkpt lat="45.95603" lon="4.75607">
        <ele>187</ele>
        <time>2018-09-20T10:25:46Z</time>
      </trkpt>
      <trkpt lat="45.956" lon="4.75601">
        <ele>187</ele>
        <time>2018-09-20T10:25:47Z</time>
      </trkpt>
      <trkpt lat="45.95598" lon="4.75595">
        <ele>187</ele>
        <time>2018-09-20T10:25:48Z</time>
      </trkpt>
      <trkpt lat="45.95595" lon="4.75588">
        <ele>187</ele>
        <time>2018-09-20T10:25:49Z</time>
      </trkpt>
      <trkpt lat="45.95593" lon="4.75582">
        <ele>187</ele>
        <time>2018-09-20T10:25:50Z</time>
      </trkpt>
      <trkpt lat="45.95591" lon="4.75577">
        <ele>187</ele>
        <time>2018-09-20T10:25:51Z</time>
      </trkpt>
      <trkpt lat="45.95589" lon="4.75571">
        <ele>187</ele>
        <time>2018-09-20T10:25:52Z</time>
      </trkpt>
      <trkpt lat="45.95586" lon="4.75565">
        <ele>188</ele>
        <time>2018-09-20T10:25:53Z</time>
      </trkpt>
      <trkpt lat="45.95583" lon="4.75558">
        <ele>188</ele>
        <time>2018-09-20T10:25:54Z</time>
      </trkpt>
      <trkpt lat="45.95579" lon="4.75553">
        <ele>186</ele>
        <time>2018-09-20T10:25:55Z</time>
      </trkpt>
      <trkpt lat="45.95576" lon="4.75547">
        <ele>186</ele>
        <time>2018-09-20T10:25:56Z</time>
      </trkpt>
      <trkpt lat="45.95572" lon="4.75542">
        <ele>186</ele>
        <time>2018-09-20T10:25:57Z</time>
      </trkpt>
      <trkpt lat="45.95568" lon="4.75537">
        <ele>186</ele>
        <time>2018-09-20T10:25:58Z</time>
      </trkpt>
      <trkpt lat="45.95564" lon="4.75532">
        <ele>186</ele>
        <time>2018-09-20T10:25:59Z</time>
      </trkpt>
      <trkpt lat="45.9556" lon="4.75526">
        <ele>186</ele>
        <time>2018-09-20T10:26:00Z</time>
      </trkpt>
      <trkpt lat="45.95556" lon="4.7552">
        <ele>186</ele>
        <time>2018-09-20T10:26:01Z</time>
      </trkpt>
      <trkpt lat="45.95553" lon="4.75514">
        <ele>186</ele>
        <time>2018-09-20T10:26:02Z</time>
      </trkpt>
      <trkpt lat="45.9555" lon="4.75508">
        <ele>186</ele>
        <time>2018-09-20T10:26:03Z</time>
      </trkpt>
      <trkpt lat="45.95545" lon="4.75504">
        <ele>186</ele>
        <time>2018-09-20T10:26:04Z</time>
      </trkpt>
      <trkpt lat="45.95543" lon="4.75498">
        <ele>187</ele>
        <time>2018-09-20T10:26:05Z</time>
      </trkpt>
      <trkpt lat="45.9554" lon="4.7549">
        <ele>187</ele>
        <time>2018-09-20T10:26:06Z</time>
      </trkpt>
      <trkpt lat="45.9554" lon="4.75484">
        <ele>187</ele>
        <time>2018-09-20T10:26:07Z</time>
      </trkpt>
      <trkpt lat="45.95539" lon="4.75478">
        <ele>187</ele>
        <time>2018-09-20T10:26:08Z</time>
      </trkpt>
      <trkpt lat="45.95538" lon="4.75471">
        <ele>187</ele>
        <time>2018-09-20T10:26:09Z</time>
      </trkpt>
      <trkpt lat="45.95537" lon="4.75463">
        <ele>187</ele>
        <time>2018-09-20T10:26:10Z</time>
      </trkpt>
      <trkpt lat="45.95535" lon="4.75457">
        <ele>187</ele>
        <time>2018-09-20T10:26:11Z</time>
      </trkpt>
      <trkpt lat="45.95531" lon="4.75452">
        <ele>187</ele>
        <time>2018-09-20T10:26:12Z</time>
      </trkpt>
      <trkpt lat="45.95526" lon="4.75446">
        <ele>187</ele>
        <time>2018-09-20T10:26:13Z</time>
      </trkpt>
      <trkpt lat="45.95521" lon="4.7544">
        <ele>187</ele>
        <time>2018-09-20T10:26:14Z</time>
      </trkpt>
      <trkpt lat="45.95517" lon="4.75436">
        <ele>187</ele>
        <time>2018-09-20T10:26:15Z</time>
      </trkpt>
      <trkpt lat="45.95515" lon="4.75429">
        <ele>186</ele>
        <time>2018-09-20T10:26:16Z</time>
      </trkpt>
      <trkpt lat="45.95512" lon="4.7542">
        <ele>186</ele>
        <time>2018-09-20T10:26:17Z</time>
      </trkpt>
      <trkpt lat="45.95511" lon="4.75412">
        <ele>187</ele>
        <time>2018-09-20T10:26:18Z</time>
      </trkpt>
      <trkpt lat="45.95508" lon="4.75405">
        <ele>187</ele>
        <time>2018-09-20T10:26:19Z</time>
      </trkpt>
      <trkpt lat="45.95506" lon="4.75398">
        <ele>187</ele>
        <time>2018-09-20T10:26:20Z</time>
      </trkpt>
      <trkpt lat="45.95503" lon="4.75392">
        <ele>188</ele>
        <time>2018-09-20T10:26:21Z</time>
      </trkpt>
      <trkpt lat="45.95498" lon="4.75381">
        <ele>185</ele>
        <time>2018-09-20T10:26:23Z</time>
      </trkpt>
      <trkpt lat="45.95497" lon="4.75373">
        <ele>185</ele>
        <time>2018-09-20T10:26:24Z</time>
      </trkpt>
      <trkpt lat="45.95493" lon="4.75366">
        <ele>186</ele>
        <time>2018-09-20T10:26:25Z</time>
      </trkpt>
      <trkpt lat="45.9549" lon="4.75358">
        <ele>186</ele>
        <time>2018-09-20T10:26:26Z</time>
      </trkpt>
      <trkpt lat="45.95486" lon="4.75351">
        <ele>186</ele>
        <time>2018-09-20T10:26:27Z</time>
      </trkpt>
      <trkpt lat="45.95483" lon="4.75345">
        <ele>186</ele>
        <time>2018-09-20T10:26:28Z</time>
      </trkpt>
      <trkpt lat="45.9548" lon="4.75339">
        <ele>186</ele>
        <time>2018-09-20T10:26:29Z</time>
      </trkpt>
      <trkpt lat="45.95477" lon="4.75333">
        <ele>188</ele>
        <time>2018-09-20T10:26:30Z</time>
      </trkpt>
      <trkpt lat="45.95473" lon="4.75323">
        <ele>188</ele>
        <time>2018-09-20T10:26:32Z</time>
      </trkpt>
      <trkpt lat="45.9547" lon="4.75319">
        <ele>188</ele>
        <time>2018-09-20T10:26:33Z</time>
      </trkpt>
      <trkpt lat="45.95464" lon="4.75309">
        <ele>188</ele>
        <time>2018-09-20T10:26:35Z</time>
      </trkpt>
      <trkpt lat="45.9546" lon="4.75304">
        <ele>188</ele>
        <time>2018-09-20T10:26:36Z</time>
      </trkpt>
      <trkpt lat="45.95458" lon="4.75298">
        <ele>188</ele>
        <time>2018-09-20T10:26:37Z</time>
      </trkpt>
      <trkpt lat="45.95454" lon="4.75293">
        <ele>188</ele>
        <time>2018-09-20T10:26:38Z</time>
      </trkpt>
      <trkpt lat="45.9545" lon="4.75289">
        <ele>188</ele>
        <time>2018-09-20T10:26:39Z</time>
      </trkpt>
      <trkpt lat="45.95447" lon="4.75284">
        <ele>188</ele>
        <time>2018-09-20T10:26:40Z</time>
      </trkpt>
      <trkpt lat="45.95444" lon="4.75279">
        <ele>188</ele>
        <time>2018-09-20T10:26:41Z</time>
      </trkpt>
      <trkpt lat="45.95441" lon="4.75274">
        <ele>189</ele>
        <time>2018-09-20T10:26:42Z</time>
      </trkpt>
      <trkpt lat="45.95438" lon="4.75267">
        <ele>189</ele>
        <time>2018-09-20T10:26:43Z</time>
      </trkpt>
      <trkpt lat="45.95435" lon="4.75261">
        <ele>189</ele>
        <time>2018-09-20T10:26:44Z</time>
      </trkpt>
      <trkpt lat="45.95431" lon="4.75256">
        <ele>189</ele>
        <time>2018-09-20T10:26:45Z</time>
      </trkpt>
      <trkpt lat="45.95428" lon="4.75251">
        <ele>189</ele>
        <time>2018-09-20T10:26:46Z</time>
      </trkpt>
      <trkpt lat="45.95424" lon="4.75244">
        <ele>190</ele>
        <time>2018-09-20T10:26:47Z</time>
      </trkpt>
      <trkpt lat="45.95421" lon="4.75238">
        <ele>190</ele>
        <time>2018-09-20T10:26:48Z</time>
      </trkpt>
      <trkpt lat="45.95417" lon="4.75232">
        <ele>190</ele>
        <time>2018-09-20T10:26:49Z</time>
      </trkpt>
      <trkpt lat="45.95414" lon="4.75226">
        <ele>189</ele>
        <time>2018-09-20T10:26:50Z</time>
      </trkpt>
      <trkpt lat="45.95412" lon="4.75221">
        <ele>189</ele>
        <time>2018-09-20T10:26:51Z</time>
      </trkpt>
      <trkpt lat="45.95409" lon="4.75215">
        <ele>189</ele>
        <time>2018-09-20T10:26:52Z</time>
      </trkpt>
      <trkpt lat="45.95407" lon="4.7521">
        <ele>189</ele>
        <time>2018-09-20T10:26:53Z</time>
      </trkpt>
      <trkpt lat="45.95403" lon="4.75204">
        <ele>189</ele>
        <time>2018-09-20T10:26:54Z</time>
      </trkpt>
      <trkpt lat="45.95399" lon="4.75194">
        <ele>189</ele>
        <time>2018-09-20T10:26:56Z</time>
      </trkpt>
      <trkpt lat="45.95397" lon="4.75189">
        <ele>189</ele>
        <time>2018-09-20T10:26:57Z</time>
      </trkpt>
      <trkpt lat="45.95393" lon="4.75184">
        <ele>189</ele>
        <time>2018-09-20T10:26:58Z</time>
      </trkpt>
      <trkpt lat="45.9539" lon="4.75179">
        <ele>189</ele>
        <time>2018-09-20T10:26:59Z</time>
      </trkpt>
      <trkpt lat="45.95385" lon="4.75169">
        <ele>189</ele>
        <time>2018-09-20T10:27:01Z</time>
      </trkpt>
      <trkpt lat="45.95381" lon="4.75164">
        <ele>191</ele>
        <time>2018-09-20T10:27:02Z</time>
      </trkpt>
      <trkpt lat="45.95375" lon="4.75156">
        <ele>191</ele>
        <time>2018-09-20T10:27:04Z</time>
      </trkpt>
      <trkpt lat="45.95372" lon="4.7515">
        <ele>191</ele>
        <time>2018-09-20T10:27:05Z</time>
      </trkpt>
      <trkpt lat="45.95368" lon="4.75143">
        <ele>191</ele>
        <time>2018-09-20T10:27:06Z</time>
      </trkpt>
      <trkpt lat="45.95366" lon="4.75138">
        <ele>191</ele>
        <time>2018-09-20T10:27:07Z</time>
      </trkpt>
      <trkpt lat="45.95363" lon="4.75132">
        <ele>191</ele>
        <time>2018-09-20T10:27:08Z</time>
      </trkpt>
      <trkpt lat="45.95359" lon="4.75125">
        <ele>191</ele>
        <time>2018-09-20T10:27:09Z</time>
      </trkpt>
      <trkpt lat="45.95356" lon="4.7512">
        <ele>191</ele>
        <time>2018-09-20T10:27:10Z</time>
      </trkpt>
      <trkpt lat="45.95353" lon="4.75114">
        <ele>192</ele>
        <time>2018-09-20T10:27:11Z</time>
      </trkpt>
      <trkpt lat="45.95349" lon="4.75109">
        <ele>192</ele>
        <time>2018-09-20T10:27:12Z</time>
      </trkpt>
      <trkpt lat="45.95346" lon="4.75104">
        <ele>192</ele>
        <time>2018-09-20T10:27:13Z</time>
      </trkpt>
      <trkpt lat="45.95339" lon="4.75096">
        <ele>192</ele>
        <time>2018-09-20T10:27:15Z</time>
      </trkpt>
      <trkpt lat="45.95335" lon="4.75092">
        <ele>193</ele>
        <time>2018-09-20T10:27:16Z</time>
      </trkpt>
      <trkpt lat="45.95333" lon="4.75087">
        <ele>192</ele>
        <time>2018-09-20T10:27:17Z</time>
      </trkpt>
      <trkpt lat="45.9533" lon="4.75081">
        <ele>193</ele>
        <time>2018-09-20T10:27:18Z</time>
      </trkpt>
      <trkpt lat="45.95326" lon="4.75075">
        <ele>192</ele>
        <time>2018-09-20T10:27:19Z</time>
      </trkpt>
      <trkpt lat="45.95324" lon="4.75071">
        <ele>192</ele>
        <time>2018-09-20T10:27:20Z</time>
      </trkpt>
      <trkpt lat="45.9532" lon="4.75066">
        <ele>192</ele>
        <time>2018-09-20T10:27:21Z</time>
      </trkpt>
      <trkpt lat="45.95317" lon="4.75061">
        <ele>192</ele>
        <time>2018-09-20T10:27:22Z</time>
      </trkpt>
      <trkpt lat="45.9531" lon="4.75052">
        <ele>192</ele>
        <time>2018-09-20T10:27:24Z</time>
      </trkpt>
      <trkpt lat="45.95307" lon="4.75047">
        <ele>192</ele>
        <time>2018-09-20T10:27:25Z</time>
      </trkpt>
      <trkpt lat="45.95302" lon="4.75038">
        <ele>191</ele>
        <time>2018-09-20T10:27:27Z</time>
      </trkpt>
      <trkpt lat="45.95301" lon="4.75036">
        <ele>191</ele>
        <time>2018-09-20T10:27:28Z</time>
      </trkpt>
      <trkpt lat="45.95297" lon="4.7503">
        <ele>191</ele>
        <time>2018-09-20T10:27:29Z</time>
      </trkpt>
      <trkpt lat="45.95294" lon="4.75026">
        <ele>191</ele>
        <time>2018-09-20T10:27:30Z</time>
      </trkpt>
      <trkpt lat="45.95289" lon="4.75016">
        <ele>191</ele>
        <time>2018-09-20T10:27:32Z</time>
      </trkpt>
      <trkpt lat="45.95286" lon="4.75011">
        <ele>191</ele>
        <time>2018-09-20T10:27:33Z</time>
      </trkpt>
      <trkpt lat="45.95282" lon="4.75006">
        <ele>191</ele>
        <time>2018-09-20T10:27:34Z</time>
      </trkpt>
      <trkpt lat="45.95279" lon="4.75">
        <ele>192</ele>
        <time>2018-09-20T10:27:35Z</time>
      </trkpt>
      <trkpt lat="45.95276" lon="4.74994">
        <ele>192</ele>
        <time>2018-09-20T10:27:36Z</time>
      </trkpt>
      <trkpt lat="45.95273" lon="4.74989">
        <ele>192</ele>
        <time>2018-09-20T10:27:37Z</time>
      </trkpt>
      <trkpt lat="45.9527" lon="4.74984">
        <ele>192</ele>
        <time>2018-09-20T10:27:38Z</time>
      </trkpt>
      <trkpt lat="45.95266" lon="4.74977">
        <ele>192</ele>
        <time>2018-09-20T10:27:39Z</time>
      </trkpt>
      <trkpt lat="45.95262" lon="4.74971">
        <ele>192</ele>
        <time>2018-09-20T10:27:40Z</time>
      </trkpt>
      <trkpt lat="45.95258" lon="4.74965">
        <ele>192</ele>
        <time>2018-09-20T10:27:41Z</time>
      </trkpt>
      <trkpt lat="45.95254" lon="4.7496">
        <ele>192</ele>
        <time>2018-09-20T10:27:42Z</time>
      </trkpt>
      <trkpt lat="45.95251" lon="4.74954">
        <ele>192</ele>
        <time>2018-09-20T10:27:43Z</time>
      </trkpt>
      <trkpt lat="45.95247" lon="4.74951">
        <ele>192</ele>
        <time>2018-09-20T10:27:44Z</time>
      </trkpt>
      <trkpt lat="45.95243" lon="4.74945">
        <ele>192</ele>
        <time>2018-09-20T10:27:45Z</time>
      </trkpt>
      <trkpt lat="45.9524" lon="4.7494">
        <ele>192</ele>
        <time>2018-09-20T10:27:46Z</time>
      </trkpt>
      <trkpt lat="45.95237" lon="4.74935">
        <ele>192</ele>
        <time>2018-09-20T10:27:47Z</time>
      </trkpt>
      <trkpt lat="45.95234" lon="4.7493">
        <ele>192</ele>
        <time>2018-09-20T10:27:48Z</time>
      </trkpt>
      <trkpt lat="45.95231" lon="4.74925">
        <ele>192</ele>
        <time>2018-09-20T10:27:49Z</time>
      </trkpt>
      <trkpt lat="45.95227" lon="4.74919">
        <ele>192</ele>
        <time>2018-09-20T10:27:50Z</time>
      </trkpt>
      <trkpt lat="45.95225" lon="4.74914">
        <ele>193</ele>
        <time>2018-09-20T10:27:51Z</time>
      </trkpt>
      <trkpt lat="45.95221" lon="4.74909">
        <ele>193</ele>
        <time>2018-09-20T10:27:52Z</time>
      </trkpt>
      <trkpt lat="45.95218" lon="4.74902">
        <ele>193</ele>
        <time>2018-09-20T10:27:53Z</time>
      </trkpt>
      <trkpt lat="45.95215" lon="4.74897">
        <ele>193</ele>
        <time>2018-09-20T10:27:54Z</time>
      </trkpt>
      <trkpt lat="45.95211" lon="4.74892">
        <ele>193</ele>
        <time>2018-09-20T10:27:55Z</time>
      </trkpt>
      <trkpt lat="45.95208" lon="4.74886">
        <ele>194</ele>
        <time>2018-09-20T10:27:56Z</time>
      </trkpt>
      <trkpt lat="45.95205" lon="4.74881">
        <ele>194</ele>
        <time>2018-09-20T10:27:57Z</time>
      </trkpt>
      <trkpt lat="45.95201" lon="4.74875">
        <ele>194</ele>
        <time>2018-09-20T10:27:58Z</time>
      </trkpt>
      <trkpt lat="45.95197" lon="4.74869">
        <ele>194</ele>
        <time>2018-09-20T10:27:59Z</time>
      </trkpt>
      <trkpt lat="45.95193" lon="4.74863">
        <ele>194</ele>
        <time>2018-09-20T10:28:00Z</time>
      </trkpt>
      <trkpt lat="45.95189" lon="4.74856">
        <ele>194</ele>
        <time>2018-09-20T10:28:01Z</time>
      </trkpt>
      <trkpt lat="45.95185" lon="4.7485">
        <ele>194</ele>
        <time>2018-09-20T10:28:02Z</time>
      </trkpt>
      <trkpt lat="45.95181" lon="4.74842">
        <ele>194</ele>
        <time>2018-09-20T10:28:03Z</time>
      </trkpt>
      <trkpt lat="45.95177" lon="4.74836">
        <ele>194</ele>
        <time>2018-09-20T10:28:04Z</time>
      </trkpt>
      <trkpt lat="45.95172" lon="4.7483">
        <ele>194</ele>
        <time>2018-09-20T10:28:05Z</time>
      </trkpt>
      <trkpt lat="45.95169" lon="4.74824">
        <ele>194</ele>
        <time>2018-09-20T10:28:06Z</time>
      </trkpt>
      <trkpt lat="45.95163" lon="4.74816">
        <ele>194</ele>
        <time>2018-09-20T10:28:07Z</time>
      </trkpt>
      <trkpt lat="45.95159" lon="4.7481">
        <ele>194</ele>
        <time>2018-09-20T10:28:08Z</time>
      </trkpt>
      <trkpt lat="45.95157" lon="4.74804">
        <ele>194</ele>
        <time>2018-09-20T10:28:09Z</time>
      </trkpt>
      <trkpt lat="45.95151" lon="4.74798">
        <ele>194</ele>
        <time>2018-09-20T10:28:10Z</time>
      </trkpt>
      <trkpt lat="45.95148" lon="4.74792">
        <ele>194</ele>
        <time>2018-09-20T10:28:11Z</time>
      </trkpt>
      <trkpt lat="45.95145" lon="4.74787">
        <ele>194</ele>
        <time>2018-09-20T10:28:12Z</time>
      </trkpt>
      <trkpt lat="45.95142" lon="4.74782">
        <ele>194</ele>
        <time>2018-09-20T10:28:13Z</time>
      </trkpt>
      <trkpt lat="45.95138" lon="4.74771">
        <ele>194</ele>
        <time>2018-09-20T10:28:15Z</time>
      </trkpt>
      <trkpt lat="45.95133" lon="4.74765">
        <ele>194</ele>
        <time>2018-09-20T10:28:16Z</time>
      </trkpt>
      <trkpt lat="45.95129" lon="4.74759">
        <ele>194</ele>
        <time>2018-09-20T10:28:17Z</time>
      </trkpt>
      <trkpt lat="45.95126" lon="4.74752">
        <ele>194</ele>
        <time>2018-09-20T10:28:18Z</time>
      </trkpt>
      <trkpt lat="45.95122" lon="4.74746">
        <ele>194</ele>
        <time>2018-09-20T10:28:19Z</time>
      </trkpt>
      <trkpt lat="45.95118" lon="4.74739">
        <ele>194</ele>
        <time>2018-09-20T10:28:20Z</time>
      </trkpt>
      <trkpt lat="45.95114" lon="4.74733">
        <ele>194</ele>
        <time>2018-09-20T10:28:21Z</time>
      </trkpt>
      <trkpt lat="45.95111" lon="4.74726">
        <ele>194</ele>
        <time>2018-09-20T10:28:22Z</time>
      </trkpt>
      <trkpt lat="45.95107" lon="4.7472">
        <ele>194</ele>
        <time>2018-09-20T10:28:23Z</time>
      </trkpt>
      <trkpt lat="45.95102" lon="4.74715">
        <ele>194</ele>
        <time>2018-09-20T10:28:24Z</time>
      </trkpt>
      <trkpt lat="45.95098" lon="4.74708">
        <ele>194</ele>
        <time>2018-09-20T10:28:25Z</time>
      </trkpt>
      <trkpt lat="45.95095" lon="4.74703">
        <ele>194</ele>
        <time>2018-09-20T10:28:26Z</time>
      </trkpt>
      <trkpt lat="45.95091" lon="4.74697">
        <ele>194</ele>
        <time>2018-09-20T10:28:27Z</time>
      </trkpt>
      <trkpt lat="45.95089" lon="4.74692">
        <ele>194</ele>
        <time>2018-09-20T10:28:28Z</time>
      </trkpt>
      <trkpt lat="45.95086" lon="4.74686">
        <ele>195</ele>
        <time>2018-09-20T10:28:29Z</time>
      </trkpt>
      <trkpt lat="45.95082" lon="4.74682">
        <ele>194</ele>
        <time>2018-09-20T10:28:30Z</time>
      </trkpt>
      <trkpt lat="45.95079" lon="4.74675">
        <ele>195</ele>
        <time>2018-09-20T10:28:31Z</time>
      </trkpt>
      <trkpt lat="45.95075" lon="4.74668">
        <ele>195</ele>
        <time>2018-09-20T10:28:32Z</time>
      </trkpt>
      <trkpt lat="45.95071" lon="4.74661">
        <ele>195</ele>
        <time>2018-09-20T10:28:33Z</time>
      </trkpt>
      <trkpt lat="45.95068" lon="4.74654">
        <ele>195</ele>
        <time>2018-09-20T10:28:34Z</time>
      </trkpt>
      <trkpt lat="45.95065" lon="4.74648">
        <ele>195</ele>
        <time>2018-09-20T10:28:35Z</time>
      </trkpt>
      <trkpt lat="45.95062" lon="4.74642">
        <ele>194</ele>
        <time>2018-09-20T10:28:36Z</time>
      </trkpt>
      <trkpt lat="45.95059" lon="4.74636">
        <ele>194</ele>
        <time>2018-09-20T10:28:37Z</time>
      </trkpt>
      <trkpt lat="45.95057" lon="4.74631">
        <ele>194</ele>
        <time>2018-09-20T10:28:38Z</time>
      </trkpt>
      <trkpt lat="45.95054" lon="4.74625">
        <ele>194</ele>
        <time>2018-09-20T10:28:39Z</time>
      </trkpt>
      <trkpt lat="45.9505" lon="4.74621">
        <ele>194</ele>
        <time>2018-09-20T10:28:40Z</time>
      </trkpt>
      <trkpt lat="45.95045" lon="4.74611">
        <ele>194</ele>
        <time>2018-09-20T10:28:42Z</time>
      </trkpt>
      <trkpt lat="45.95042" lon="4.74605">
        <ele>194</ele>
        <time>2018-09-20T10:28:43Z</time>
      </trkpt>
      <trkpt lat="45.95038" lon="4.74601">
        <ele>194</ele>
        <time>2018-09-20T10:28:44Z</time>
      </trkpt>
      <trkpt lat="45.95035" lon="4.74595">
        <ele>194</ele>
        <time>2018-09-20T10:28:45Z</time>
      </trkpt>
      <trkpt lat="45.9503" lon="4.74588">
        <ele>194</ele>
        <time>2018-09-20T10:28:46Z</time>
      </trkpt>
      <trkpt lat="45.95027" lon="4.74583">
        <ele>194</ele>
        <time>2018-09-20T10:28:47Z</time>
      </trkpt>
      <trkpt lat="45.95025" lon="4.74576">
        <ele>194</ele>
        <time>2018-09-20T10:28:48Z</time>
      </trkpt>
      <trkpt lat="45.95021" lon="4.74569">
        <ele>194</ele>
        <time>2018-09-20T10:28:49Z</time>
      </trkpt>
      <trkpt lat="45.95017" lon="4.74562">
        <ele>194</ele>
        <time>2018-09-20T10:28:50Z</time>
      </trkpt>
      <trkpt lat="45.95014" lon="4.74554">
        <ele>194</ele>
        <time>2018-09-20T10:28:51Z</time>
      </trkpt>
      <trkpt lat="45.9501" lon="4.74548">
        <ele>194</ele>
        <time>2018-09-20T10:28:52Z</time>
      </trkpt>
      <trkpt lat="45.95006" lon="4.74541">
        <ele>194</ele>
        <time>2018-09-20T10:28:53Z</time>
      </trkpt>
      <trkpt lat="45.95002" lon="4.74535">
        <ele>194</ele>
        <time>2018-09-20T10:28:54Z</time>
      </trkpt>
      <trkpt lat="45.94999" lon="4.74528">
        <ele>193</ele>
        <time>2018-09-20T10:28:55Z</time>
      </trkpt>
      <trkpt lat="45.94995" lon="4.74521">
        <ele>193</ele>
        <time>2018-09-20T10:28:56Z</time>
      </trkpt>
      <trkpt lat="45.94991" lon="4.74514">
        <ele>193</ele>
        <time>2018-09-20T10:28:57Z</time>
      </trkpt>
      <trkpt lat="45.94988" lon="4.74507">
        <ele>193</ele>
        <time>2018-09-20T10:28:58Z</time>
      </trkpt>
      <trkpt lat="45.94985" lon="4.745">
        <ele>193</ele>
        <time>2018-09-20T10:28:59Z</time>
      </trkpt>
      <trkpt lat="45.9498" lon="4.74492">
        <ele>193</ele>
        <time>2018-09-20T10:29:00Z</time>
      </trkpt>
      <trkpt lat="45.94975" lon="4.74486">
        <ele>193</ele>
        <time>2018-09-20T10:29:01Z</time>
      </trkpt>
      <trkpt lat="45.94972" lon="4.74479">
        <ele>193</ele>
        <time>2018-09-20T10:29:02Z</time>
      </trkpt>
      <trkpt lat="45.94968" lon="4.74472">
        <ele>193</ele>
        <time>2018-09-20T10:29:03Z</time>
      </trkpt>
      <trkpt lat="45.94965" lon="4.74465">
        <ele>193</ele>
        <time>2018-09-20T10:29:04Z</time>
      </trkpt>
      <trkpt lat="45.94961" lon="4.74457">
        <ele>192</ele>
        <time>2018-09-20T10:29:05Z</time>
      </trkpt>
      <trkpt lat="45.94954" lon="4.7445">
        <ele>192</ele>
        <time>2018-09-20T10:29:06Z</time>
      </trkpt>
      <trkpt lat="45.94951" lon="4.74441">
        <ele>192</ele>
        <time>2018-09-20T10:29:07Z</time>
      </trkpt>
      <trkpt lat="45.94946" lon="4.74433">
        <ele>192</ele>
        <time>2018-09-20T10:29:08Z</time>
      </trkpt>
      <trkpt lat="45.94941" lon="4.74425">
        <ele>192</ele>
        <time>2018-09-20T10:29:09Z</time>
      </trkpt>
      <trkpt lat="45.94937" lon="4.74416">
        <ele>192</ele>
        <time>2018-09-20T10:29:10Z</time>
      </trkpt>
      <trkpt lat="45.94932" lon="4.74407">
        <ele>192</ele>
        <time>2018-09-20T10:29:11Z</time>
      </trkpt>
      <trkpt lat="45.94928" lon="4.74398">
        <ele>192</ele>
        <time>2018-09-20T10:29:12Z</time>
      </trkpt>
      <trkpt lat="45.94923" lon="4.7439">
        <ele>192</ele>
        <time>2018-09-20T10:29:13Z</time>
      </trkpt>
      <trkpt lat="45.94919" lon="4.74379">
        <ele>192</ele>
        <time>2018-09-20T10:29:14Z</time>
      </trkpt>
      <trkpt lat="45.94915" lon="4.74369">
        <ele>191</ele>
        <time>2018-09-20T10:29:15Z</time>
      </trkpt>
      <trkpt lat="45.94911" lon="4.7436">
        <ele>191</ele>
        <time>2018-09-20T10:29:16Z</time>
      </trkpt>
      <trkpt lat="45.94908" lon="4.7435">
        <ele>191</ele>
        <time>2018-09-20T10:29:17Z</time>
      </trkpt>
      <trkpt lat="45.94904" lon="4.74341">
        <ele>191</ele>
        <time>2018-09-20T10:29:18Z</time>
      </trkpt>
      <trkpt lat="45.949" lon="4.74332">
        <ele>191</ele>
        <time>2018-09-20T10:29:19Z</time>
      </trkpt>
      <trkpt lat="45.94896" lon="4.74325">
        <ele>191</ele>
        <time>2018-09-20T10:29:20Z</time>
      </trkpt>
      <trkpt lat="45.94893" lon="4.74317">
        <ele>191</ele>
        <time>2018-09-20T10:29:21Z</time>
      </trkpt>
      <trkpt lat="45.94889" lon="4.74309">
        <ele>191</ele>
        <time>2018-09-20T10:29:22Z</time>
      </trkpt>
      <trkpt lat="45.94884" lon="4.743">
        <ele>191</ele>
        <time>2018-09-20T10:29:23Z</time>
      </trkpt>
      <trkpt lat="45.9488" lon="4.74293">
        <ele>191</ele>
        <time>2018-09-20T10:29:24Z</time>
      </trkpt>
      <trkpt lat="45.94875" lon="4.74286">
        <ele>191</ele>
        <time>2018-09-20T10:29:25Z</time>
      </trkpt>
      <trkpt lat="45.94871" lon="4.74279">
        <ele>191</ele>
        <time>2018-09-20T10:29:26Z</time>
      </trkpt>
      <trkpt lat="45.94866" lon="4.74271">
        <ele>191</ele>
        <time>2018-09-20T10:29:27Z</time>
      </trkpt>
      <trkpt lat="45.94863" lon="4.74264">
        <ele>190</ele>
        <time>2018-09-20T10:29:28Z</time>
      </trkpt>
      <trkpt lat="45.9486" lon="4.74256">
        <ele>190</ele>
        <time>2018-09-20T10:29:29Z</time>
      </trkpt>
      <trkpt lat="45.94856" lon="4.74248">
        <ele>190</ele>
        <time>2018-09-20T10:29:30Z</time>
      </trkpt>
      <trkpt lat="45.94852" lon="4.74241">
        <ele>190</ele>
        <time>2018-09-20T10:29:31Z</time>
      </trkpt>
      <trkpt lat="45.94849" lon="4.74233">
        <ele>190</ele>
        <time>2018-09-20T10:29:32Z</time>
      </trkpt>
      <trkpt lat="45.94846" lon="4.74226">
        <ele>190</ele>
        <time>2018-09-20T10:29:33Z</time>
      </trkpt>
      <trkpt lat="45.94842" lon="4.7422">
        <ele>190</ele>
        <time>2018-09-20T10:29:34Z</time>
      </trkpt>
      <trkpt lat="45.94839" lon="4.74211">
        <ele>190</ele>
        <time>2018-09-20T10:29:35Z</time>
      </trkpt>
      <trkpt lat="45.94834" lon="4.74206">
        <ele>190</ele>
        <time>2018-09-20T10:29:36Z</time>
      </trkpt>
      <trkpt lat="45.94829" lon="4.74201">
        <ele>189</ele>
        <time>2018-09-20T10:29:37Z</time>
      </trkpt>
      <trkpt lat="45.94823" lon="4.74194">
        <ele>189</ele>
        <time>2018-09-20T10:29:38Z</time>
      </trkpt>
      <trkpt lat="45.94818" lon="4.74187">
        <ele>189</ele>
        <time>2018-09-20T10:29:39Z</time>
      </trkpt>
      <trkpt lat="45.94811" lon="4.74182">
        <ele>189</ele>
        <time>2018-09-20T10:29:40Z</time>
      </trkpt>
      <trkpt lat="45.94807" lon="4.74175">
        <ele>189</ele>
        <time>2018-09-20T10:29:41Z</time>
      </trkpt>
      <trkpt lat="45.94803" lon="4.74166">
        <ele>189</ele>
        <time>2018-09-20T10:29:42Z</time>
      </trkpt>
      <trkpt lat="45.948" lon="4.7416">
        <ele>189</ele>
        <time>2018-09-20T10:29:43Z</time>
      </trkpt>
      <trkpt lat="45.94796" lon="4.74152">
        <ele>189</ele>
        <time>2018-09-20T10:29:44Z</time>
      </trkpt>
      <trkpt lat="45.94792" lon="4.74145">
        <ele>189</ele>
        <time>2018-09-20T10:29:45Z</time>
      </trkpt>
      <trkpt lat="45.94788" lon="4.74137">
        <ele>189</ele>
        <time>2018-09-20T10:29:46Z</time>
      </trkpt>
      <trkpt lat="45.94784" lon="4.7413">
        <ele>189</ele>
        <time>2018-09-20T10:29:47Z</time>
      </trkpt>
      <trkpt lat="45.94779" lon="4.74122">
        <ele>189</ele>
        <time>2018-09-20T10:29:48Z</time>
      </trkpt>
      <trkpt lat="45.94775" lon="4.74115">
        <ele>189</ele>
        <time>2018-09-20T10:29:49Z</time>
      </trkpt>
      <trkpt lat="45.9477" lon="4.74108">
        <ele>189</ele>
        <time>2018-09-20T10:29:50Z</time>
      </trkpt>
      <trkpt lat="45.94764" lon="4.74102">
        <ele>189</ele>
        <time>2018-09-20T10:29:51Z</time>
      </trkpt>
      <trkpt lat="45.94758" lon="4.74095">
        <ele>189</ele>
        <time>2018-09-20T10:29:52Z</time>
      </trkpt>
      <trkpt lat="45.94753" lon="4.74088">
        <ele>189</ele>
        <time>2018-09-20T10:29:53Z</time>
      </trkpt>
      <trkpt lat="45.9475" lon="4.74082">
        <ele>189</ele>
        <time>2018-09-20T10:29:54Z</time>
      </trkpt>
      <trkpt lat="45.94745" lon="4.74076">
        <ele>188</ele>
        <time>2018-09-20T10:29:55Z</time>
      </trkpt>
      <trkpt lat="45.9474" lon="4.7407">
        <ele>188</ele>
        <time>2018-09-20T10:29:56Z</time>
      </trkpt>
      <trkpt lat="45.94734" lon="4.74065">
        <ele>188</ele>
        <time>2018-09-20T10:29:57Z</time>
      </trkpt>
      <trkpt lat="45.9473" lon="4.74059">
        <ele>188</ele>
        <time>2018-09-20T10:29:58Z</time>
      </trkpt>
      <trkpt lat="45.94725" lon="4.74053">
        <ele>188</ele>
        <time>2018-09-20T10:29:59Z</time>
      </trkpt>
      <trkpt lat="45.94721" lon="4.74046">
        <ele>187</ele>
        <time>2018-09-20T10:30:00Z</time>
      </trkpt>
      <trkpt lat="45.94716" lon="4.74041">
        <ele>187</ele>
        <time>2018-09-20T10:30:01Z</time>
      </trkpt>
      <trkpt lat="45.94712" lon="4.74036">
        <ele>187</ele>
        <time>2018-09-20T10:30:02Z</time>
      </trkpt>
      <trkpt lat="45.94708" lon="4.7403">
        <ele>187</ele>
        <time>2018-09-20T10:30:03Z</time>
      </trkpt>
      <trkpt lat="45.94704" lon="4.74025">
        <ele>187</ele>
        <time>2018-09-20T10:30:04Z</time>
      </trkpt>
      <trkpt lat="45.94701" lon="4.74018">
        <ele>187</ele>
        <time>2018-09-20T10:30:05Z</time>
      </trkpt>
      <trkpt lat="45.94698" lon="4.74011">
        <ele>187</ele>
        <time>2018-09-20T10:30:06Z</time>
      </trkpt>
      <trkpt lat="45.94694" lon="4.74006">
        <ele>187</ele>
        <time>2018-09-20T10:30:07Z</time>
      </trkpt>
      <trkpt lat="45.9469" lon="4.74">
        <ele>187</ele>
        <time>2018-09-20T10:30:08Z</time>
      </trkpt>
      <trkpt lat="45.94685" lon="4.73996">
        <ele>187</ele>
        <time>2018-09-20T10:30:09Z</time>
      </trkpt>
      <trkpt lat="45.94683" lon="4.73989">
        <ele>187</ele>
        <time>2018-09-20T10:30:10Z</time>
      </trkpt>
      <trkpt lat="45.94679" lon="4.73984">
        <ele>187</ele>
        <time>2018-09-20T10:30:11Z</time>
      </trkpt>
      <trkpt lat="45.94675" lon="4.73977">
        <ele>187</ele>
        <time>2018-09-20T10:30:12Z</time>
      </trkpt>
      <trkpt lat="45.94672" lon="4.73972">
        <ele>187</ele>
        <time>2018-09-20T10:30:13Z</time>
      </trkpt>
      <trkpt lat="45.94667" lon="4.73966">
        <ele>187</ele>
        <time>2018-09-20T10:30:14Z</time>
      </trkpt>
      <trkpt lat="45.94663" lon="4.7396">
        <ele>187</ele>
        <time>2018-09-20T10:30:15Z</time>
      </trkpt>
      <trkpt lat="45.94658" lon="4.73954">
        <ele>187</ele>
        <time>2018-09-20T10:30:16Z</time>
      </trkpt>
      <trkpt lat="45.94654" lon="4.73949">
        <ele>187</ele>
        <time>2018-09-20T10:30:17Z</time>
      </trkpt>
      <trkpt lat="45.9465" lon="4.73943">
        <ele>187</ele>
        <time>2018-09-20T10:30:18Z</time>
      </trkpt>
      <trkpt lat="45.94645" lon="4.73938">
        <ele>187</ele>
        <time>2018-09-20T10:30:19Z</time>
      </trkpt>
      <trkpt lat="45.94641" lon="4.73932">
        <ele>187</ele>
        <time>2018-09-20T10:30:20Z</time>
      </trkpt>
      <trkpt lat="45.94637" lon="4.73927">
        <ele>187</ele>
        <time>2018-09-20T10:30:21Z</time>
      </trkpt>
      <trkpt lat="45.94632" lon="4.73921">
        <ele>187</ele>
        <time>2018-09-20T10:30:22Z</time>
      </trkpt>
      <trkpt lat="45.94627" lon="4.73915">
        <ele>187</ele>
        <time>2018-09-20T10:30:23Z</time>
      </trkpt>
      <trkpt lat="45.94623" lon="4.73909">
        <ele>187</ele>
        <time>2018-09-20T10:30:24Z</time>
      </trkpt>
      <trkpt lat="45.94618" lon="4.73904">
        <ele>187</ele>
        <time>2018-09-20T10:30:25Z</time>
      </trkpt>
      <trkpt lat="45.94614" lon="4.73898">
        <ele>187</ele>
        <time>2018-09-20T10:30:26Z</time>
      </trkpt>
      <trkpt lat="45.94611" lon="4.73892">
        <ele>187</ele>
        <time>2018-09-20T10:30:27Z</time>
      </trkpt>
      <trkpt lat="45.94605" lon="4.73887">
        <ele>187</ele>
        <time>2018-09-20T10:30:28Z</time>
      </trkpt>
      <trkpt lat="45.94601" lon="4.73882">
        <ele>187</ele>
        <time>2018-09-20T10:30:29Z</time>
      </trkpt>
      <trkpt lat="45.94596" lon="4.73876">
        <ele>187</ele>
        <time>2018-09-20T10:30:30Z</time>
      </trkpt>
      <trkpt lat="45.94592" lon="4.73872">
        <ele>187</ele>
        <time>2018-09-20T10:30:31Z</time>
      </trkpt>
      <trkpt lat="45.94587" lon="4.73866">
        <ele>187</ele>
        <time>2018-09-20T10:30:32Z</time>
      </trkpt>
      <trkpt lat="45.94582" lon="4.73861">
        <ele>186</ele>
        <time>2018-09-20T10:30:33Z</time>
      </trkpt>
      <trkpt lat="45.94578" lon="4.73856">
        <ele>186</ele>
        <time>2018-09-20T10:30:34Z</time>
      </trkpt>
      <trkpt lat="45.94573" lon="4.7385">
        <ele>186</ele>
        <time>2018-09-20T10:30:35Z</time>
      </trkpt>
      <trkpt lat="45.94568" lon="4.73845">
        <ele>186</ele>
        <time>2018-09-20T10:30:36Z</time>
      </trkpt>
      <trkpt lat="45.94562" lon="4.7384">
        <ele>186</ele>
        <time>2018-09-20T10:30:37Z</time>
      </trkpt>
      <trkpt lat="45.94557" lon="4.73835">
        <ele>186</ele>
        <time>2018-09-20T10:30:38Z</time>
      </trkpt>
      <trkpt lat="45.94551" lon="4.7383">
        <ele>186</ele>
        <time>2018-09-20T10:30:39Z</time>
      </trkpt>
      <trkpt lat="45.94546" lon="4.73825">
        <ele>186</ele>
        <time>2018-09-20T10:30:40Z</time>
      </trkpt>
      <trkpt lat="45.94541" lon="4.7382">
        <ele>186</ele>
        <time>2018-09-20T10:30:41Z</time>
      </trkpt>
      <trkpt lat="45.94536" lon="4.73814">
        <ele>186</ele>
        <time>2018-09-20T10:30:42Z</time>
      </trkpt>
      <trkpt lat="45.94531" lon="4.73809">
        <ele>186</ele>
        <time>2018-09-20T10:30:43Z</time>
      </trkpt>
      <trkpt lat="45.94525" lon="4.73804">
        <ele>186</ele>
        <time>2018-09-20T10:30:44Z</time>
      </trkpt>
      <trkpt lat="45.94521" lon="4.73799">
        <ele>186</ele>
        <time>2018-09-20T10:30:45Z</time>
      </trkpt>
      <trkpt lat="45.94516" lon="4.73794">
        <ele>186</ele>
        <time>2018-09-20T10:30:46Z</time>
      </trkpt>
      <trkpt lat="45.94512" lon="4.73788">
        <ele>186</ele>
        <time>2018-09-20T10:30:47Z</time>
      </trkpt>
      <trkpt lat="45.94508" lon="4.73784">
        <ele>186</ele>
        <time>2018-09-20T10:30:48Z</time>
      </trkpt>
      <trkpt lat="45.94503" lon="4.73778">
        <ele>186</ele>
        <time>2018-09-20T10:30:49Z</time>
      </trkpt>
      <trkpt lat="45.945" lon="4.73773">
        <ele>186</ele>
        <time>2018-09-20T10:30:50Z</time>
      </trkpt>
      <trkpt lat="45.94495" lon="4.73767">
        <ele>186</ele>
        <time>2018-09-20T10:30:51Z</time>
      </trkpt>
      <trkpt lat="45.94492" lon="4.73761">
        <ele>186</ele>
        <time>2018-09-20T10:30:52Z</time>
      </trkpt>
      <trkpt lat="45.9449" lon="4.73755">
        <ele>186</ele>
        <time>2018-09-20T10:30:53Z</time>
      </trkpt>
      <trkpt lat="45.94487" lon="4.7375">
        <ele>186</ele>
        <time>2018-09-20T10:30:54Z</time>
      </trkpt>
      <trkpt lat="45.94487" lon="4.73743">
        <ele>186</ele>
        <time>2018-09-20T10:30:55Z</time>
      </trkpt>
      <trkpt lat="45.94487" lon="4.73736">
        <ele>186</ele>
        <time>2018-09-20T10:30:56Z</time>
      </trkpt>
      <trkpt lat="45.94487" lon="4.73728">
        <ele>186</ele>
        <time>2018-09-20T10:30:57Z</time>
      </trkpt>
      <trkpt lat="45.94488" lon="4.7372">
        <ele>186</ele>
        <time>2018-09-20T10:30:58Z</time>
      </trkpt>
      <trkpt lat="45.9449" lon="4.73712">
        <ele>186</ele>
        <time>2018-09-20T10:30:59Z</time>
      </trkpt>
      <trkpt lat="45.9449" lon="4.73704">
        <ele>186</ele>
        <time>2018-09-20T10:31:00Z</time>
      </trkpt>
      <trkpt lat="45.94492" lon="4.73696">
        <ele>186</ele>
        <time>2018-09-20T10:31:01Z</time>
      </trkpt>
      <trkpt lat="45.94494" lon="4.73687">
        <ele>186</ele>
        <time>2018-09-20T10:31:02Z</time>
      </trkpt>
      <trkpt lat="45.94495" lon="4.73678">
        <ele>185</ele>
        <time>2018-09-20T10:31:03Z</time>
      </trkpt>
      <trkpt lat="45.94497" lon="4.7367">
        <ele>185</ele>
        <time>2018-09-20T10:31:04Z</time>
      </trkpt>
      <trkpt lat="45.94498" lon="4.73661">
        <ele>185</ele>
        <time>2018-09-20T10:31:05Z</time>
      </trkpt>
      <trkpt lat="45.94499" lon="4.73652">
        <ele>185</ele>
        <time>2018-09-20T10:31:06Z</time>
      </trkpt>
      <trkpt lat="45.945" lon="4.73643">
        <ele>184</ele>
        <time>2018-09-20T10:31:07Z</time>
      </trkpt>
      <trkpt lat="45.94502" lon="4.73634">
        <ele>184</ele>
        <time>2018-09-20T10:31:08Z</time>
      </trkpt>
      <trkpt lat="45.94503" lon="4.73625">
        <ele>184</ele>
        <time>2018-09-20T10:31:09Z</time>
      </trkpt>
      <trkpt lat="45.94504" lon="4.73616">
        <ele>184</ele>
        <time>2018-09-20T10:31:10Z</time>
      </trkpt>
      <trkpt lat="45.94505" lon="4.73606">
        <ele>184</ele>
        <time>2018-09-20T10:31:11Z</time>
      </trkpt>
      <trkpt lat="45.94505" lon="4.73596">
        <ele>184</ele>
        <time>2018-09-20T10:31:12Z</time>
      </trkpt>
      <trkpt lat="45.94506" lon="4.73587">
        <ele>185</ele>
        <time>2018-09-20T10:31:13Z</time>
      </trkpt>
      <trkpt lat="45.94506" lon="4.73577">
        <ele>184</ele>
        <time>2018-09-20T10:31:14Z</time>
      </trkpt>
      <trkpt lat="45.94507" lon="4.73566">
        <ele>184</ele>
        <time>2018-09-20T10:31:15Z</time>
      </trkpt>
      <trkpt lat="45.94507" lon="4.73556">
        <ele>183</ele>
        <time>2018-09-20T10:31:16Z</time>
      </trkpt>
      <trkpt lat="45.94507" lon="4.73546">
        <ele>183</ele>
        <time>2018-09-20T10:31:17Z</time>
      </trkpt>
      <trkpt lat="45.94507" lon="4.73537">
        <ele>183</ele>
        <time>2018-09-20T10:31:18Z</time>
      </trkpt>
      <trkpt lat="45.94508" lon="4.73527">
        <ele>183</ele>
        <time>2018-09-20T10:31:19Z</time>
      </trkpt>
      <trkpt lat="45.94508" lon="4.73516">
        <ele>183</ele>
        <time>2018-09-20T10:31:20Z</time>
      </trkpt>
      <trkpt lat="45.94508" lon="4.73506">
        <ele>183</ele>
        <time>2018-09-20T10:31:21Z</time>
      </trkpt>
      <trkpt lat="45.94508" lon="4.73496">
        <ele>182</ele>
        <time>2018-09-20T10:31:22Z</time>
      </trkpt>
      <trkpt lat="45.94507" lon="4.73485">
        <ele>182</ele>
        <time>2018-09-20T10:31:23Z</time>
      </trkpt>
      <trkpt lat="45.94508" lon="4.73475">
        <ele>182</ele>
        <time>2018-09-20T10:31:24Z</time>
      </trkpt>
      <trkpt lat="45.94508" lon="4.73465">
        <ele>181</ele>
        <time>2018-09-20T10:31:25Z</time>
      </trkpt>
      <trkpt lat="45.94509" lon="4.73453">
        <ele>181</ele>
        <time>2018-09-20T10:31:26Z</time>
      </trkpt>
      <trkpt lat="45.94508" lon="4.73442">
        <ele>181</ele>
        <time>2018-09-20T10:31:27Z</time>
      </trkpt>
      <trkpt lat="45.94507" lon="4.7343">
        <ele>180</ele>
        <time>2018-09-20T10:31:28Z</time>
      </trkpt>
      <trkpt lat="45.94506" lon="4.73419">
        <ele>180</ele>
        <time>2018-09-20T10:31:29Z</time>
      </trkpt>
      <trkpt lat="45.94506" lon="4.73407">
        <ele>179</ele>
        <time>2018-09-20T10:31:30Z</time>
      </trkpt>
      <trkpt lat="45.94506" lon="4.73397">
        <ele>179</ele>
        <time>2018-09-20T10:31:31Z</time>
      </trkpt>
      <trkpt lat="45.94504" lon="4.73386">
        <ele>179</ele>
        <time>2018-09-20T10:31:32Z</time>
      </trkpt>
      <trkpt lat="45.94504" lon="4.73376">
        <ele>178</ele>
        <time>2018-09-20T10:31:33Z</time>
      </trkpt>
      <trkpt lat="45.94502" lon="4.73365">
        <ele>178</ele>
        <time>2018-09-20T10:31:34Z</time>
      </trkpt>
      <trkpt lat="45.94501" lon="4.73355">
        <ele>178</ele>
        <time>2018-09-20T10:31:35Z</time>
      </trkpt>
      <trkpt lat="45.94501" lon="4.73343">
        <ele>177</ele>
        <time>2018-09-20T10:31:36Z</time>
      </trkpt>
      <trkpt lat="45.94499" lon="4.73332">
        <ele>177</ele>
        <time>2018-09-20T10:31:37Z</time>
      </trkpt>
      <trkpt lat="45.94498" lon="4.73321">
        <ele>177</ele>
        <time>2018-09-20T10:31:38Z</time>
      </trkpt>
      <trkpt lat="45.94496" lon="4.73309">
        <ele>177</ele>
        <time>2018-09-20T10:31:39Z</time>
      </trkpt>
      <trkpt lat="45.94494" lon="4.73298">
        <ele>177</ele>
        <time>2018-09-20T10:31:40Z</time>
      </trkpt>
      <trkpt lat="45.94493" lon="4.73286">
        <ele>177</ele>
        <time>2018-09-20T10:31:41Z</time>
      </trkpt>
      <trkpt lat="45.94491" lon="4.73274">
        <ele>177</ele>
        <time>2018-09-20T10:31:42Z</time>
      </trkpt>
      <trkpt lat="45.94489" lon="4.73263">
        <ele>176</ele>
        <time>2018-09-20T10:31:43Z</time>
      </trkpt>
      <trkpt lat="45.94488" lon="4.73251">
        <ele>176</ele>
        <time>2018-09-20T10:31:44Z</time>
      </trkpt>
      <trkpt lat="45.94485" lon="4.73239">
        <ele>175</ele>
        <time>2018-09-20T10:31:45Z</time>
      </trkpt>
      <trkpt lat="45.94484" lon="4.73228">
        <ele>175</ele>
        <time>2018-09-20T10:31:46Z</time>
      </trkpt>
      <trkpt lat="45.94481" lon="4.73216">
        <ele>175</ele>
        <time>2018-09-20T10:31:47Z</time>
      </trkpt>
      <trkpt lat="45.9448" lon="4.73205">
        <ele>175</ele>
        <time>2018-09-20T10:31:48Z</time>
      </trkpt>
      <trkpt lat="45.94479" lon="4.73193">
        <ele>174</ele>
        <time>2018-09-20T10:31:49Z</time>
      </trkpt>
      <trkpt lat="45.94478" lon="4.73181">
        <ele>174</ele>
        <time>2018-09-20T10:31:50Z</time>
      </trkpt>
      <trkpt lat="45.94477" lon="4.7317">
        <ele>174</ele>
        <time>2018-09-20T10:31:51Z</time>
      </trkpt>
      <trkpt lat="45.94475" lon="4.73159">
        <ele>173</ele>
        <time>2018-09-20T10:31:52Z</time>
      </trkpt>
      <trkpt lat="45.94474" lon="4.73147">
        <ele>172</ele>
        <time>2018-09-20T10:31:53Z</time>
      </trkpt>
      <trkpt lat="45.94473" lon="4.73137">
        <ele>172</ele>
        <time>2018-09-20T10:31:54Z</time>
      </trkpt>
      <trkpt lat="45.94471" lon="4.73126">
        <ele>172</ele>
        <time>2018-09-20T10:31:55Z</time>
      </trkpt>
      <trkpt lat="45.94471" lon="4.73115">
        <ele>172</ele>
        <time>2018-09-20T10:31:56Z</time>
      </trkpt>
      <trkpt lat="45.94469" lon="4.73105">
        <ele>172</ele>
        <time>2018-09-20T10:31:57Z</time>
      </trkpt>
      <trkpt lat="45.94468" lon="4.73096">
        <ele>172</ele>
        <time>2018-09-20T10:31:58Z</time>
      </trkpt>
      <trkpt lat="45.94466" lon="4.73088">
        <ele>171</ele>
        <time>2018-09-20T10:31:59Z</time>
      </trkpt>
      <trkpt lat="45.94465" lon="4.73078">
        <ele>170</ele>
        <time>2018-09-20T10:32:00Z</time>
      </trkpt>
      <trkpt lat="45.94463" lon="4.73069">
        <ele>170</ele>
        <time>2018-09-20T10:32:01Z</time>
      </trkpt>
      <trkpt lat="45.94462" lon="4.73061">
        <ele>170</ele>
        <time>2018-09-20T10:32:02Z</time>
      </trkpt>
      <trkpt lat="45.9446" lon="4.73053">
        <ele>170</ele>
        <time>2018-09-20T10:32:03Z</time>
      </trkpt>
      <trkpt lat="45.94459" lon="4.73045">
        <ele>170</ele>
        <time>2018-09-20T10:32:04Z</time>
      </trkpt>
      <trkpt lat="45.94458" lon="4.73038">
        <ele>169</ele>
        <time>2018-09-20T10:32:05Z</time>
      </trkpt>
      <trkpt lat="45.94456" lon="4.73027">
        <ele>169</ele>
        <time>2018-09-20T10:32:07Z</time>
      </trkpt>
      <trkpt lat="45.94456" lon="4.73024">
        <ele>169</ele>
        <time>2018-09-20T10:32:08Z</time>
      </trkpt>
      <trkpt lat="45.94454" lon="4.73015">
        <ele>169</ele>
        <time>2018-09-20T10:32:11Z</time>
      </trkpt>
      <trkpt lat="45.94453" lon="4.73012">
        <ele>169</ele>
        <time>2018-09-20T10:32:12Z</time>
      </trkpt>
      <trkpt lat="45.94452" lon="4.73002">
        <ele>169</ele>
        <time>2018-09-20T10:32:15Z</time>
      </trkpt>
      <trkpt lat="45.94452" lon="4.72998">
        <ele>167</ele>
        <time>2018-09-20T10:32:16Z</time>
      </trkpt>
      <trkpt lat="45.9445" lon="4.72986">
        <ele>167</ele>
        <time>2018-09-20T10:32:20Z</time>
      </trkpt>
      <trkpt lat="45.94449" lon="4.72983">
        <ele>167</ele>
        <time>2018-09-20T10:32:21Z</time>
      </trkpt>
      <trkpt lat="45.94448" lon="4.7297">
        <ele>167</ele>
        <time>2018-09-20T10:32:25Z</time>
      </trkpt>
      <trkpt lat="45.94448" lon="4.72967">
        <ele>167</ele>
        <time>2018-09-20T10:32:26Z</time>
      </trkpt>
      <trkpt lat="45.94447" lon="4.7296">
        <ele>167</ele>
        <time>2018-09-20T10:32:34Z</time>
      </trkpt>
      <trkpt lat="45.94447" lon="4.7296">
        <ele>167</ele>
        <time>2018-09-20T10:32:35Z</time>
      </trkpt>
      <trkpt lat="45.94447" lon="4.72959">
        <ele>167</ele>
        <time>2018-09-20T10:32:38Z</time>
      </trkpt>
      <trkpt lat="45.94447" lon="4.72959">
        <ele>167</ele>
        <time>2018-09-20T10:32:39Z</time>
      </trkpt>
      <trkpt lat="45.94448" lon="4.72958">
        <ele>167</ele>
        <time>2018-09-20T10:32:42Z</time>
      </trkpt>
      <trkpt lat="45.94448" lon="4.72957">
        <ele>167</ele>
        <time>2018-09-20T10:32:43Z</time>
      </trkpt>
      <trkpt lat="45.94448" lon="4.72957">
        <ele>167</ele>
        <time>2018-09-20T10:32:45Z</time>
      </trkpt>
      <trkpt lat="45.94448" lon="4.72957">
        <ele>167</ele>
        <time>2018-09-20T10:32:46Z</time>
      </trkpt>
      <trkpt lat="45.94448" lon="4.72956">
        <ele>167</ele>
        <time>2018-09-20T10:32:47Z</time>
      </trkpt>
      <trkpt lat="45.94448" lon="4.72956">
        <ele>167</ele>
        <time>2018-09-20T10:32:48Z</time>
      </trkpt>
      <trkpt lat="45.94445" lon="4.72945">
        <ele>167</ele>
        <time>2018-09-20T10:34:14Z</time>
      </trkpt>
      <trkpt lat="45.94445" lon="4.72943">
        <ele>167</ele>
        <time>2018-09-20T10:34:15Z</time>
      </trkpt>
      <trkpt lat="45.94443" lon="4.72933">
        <ele>167</ele>
        <time>2018-09-20T10:34:19Z</time>
      </trkpt>
      <trkpt lat="45.94442" lon="4.7293">
        <ele>167</ele>
        <time>2018-09-20T10:34:20Z</time>
      </trkpt>
      <trkpt lat="45.94441" lon="4.7292">
        <ele>167</ele>
        <time>2018-09-20T10:34:23Z</time>
      </trkpt>
      <trkpt lat="45.94441" lon="4.72916">
        <ele>166</ele>
        <time>2018-09-20T10:34:24Z</time>
      </trkpt>
      <trkpt lat="45.9444" lon="4.72904">
        <ele>166</ele>
        <time>2018-09-20T10:34:27Z</time>
      </trkpt>
      <trkpt lat="45.94439" lon="4.729">
        <ele>166</ele>
        <time>2018-09-20T10:34:28Z</time>
      </trkpt>
      <trkpt lat="45.94437" lon="4.72887">
        <ele>166</ele>
        <time>2018-09-20T10:34:29Z</time>
      </trkpt>
      <trkpt lat="45.94436" lon="4.72877">
        <ele>166</ele>
        <time>2018-09-20T10:34:31Z</time>
      </trkpt>
      <trkpt lat="45.94435" lon="4.72872">
        <ele>166</ele>
        <time>2018-09-20T10:34:32Z</time>
      </trkpt>
      <trkpt lat="45.94434" lon="4.7286">
        <ele>166</ele>
        <time>2018-09-20T10:34:34Z</time>
      </trkpt>
      <trkpt lat="45.94432" lon="4.72853">
        <ele>166</ele>
        <time>2018-09-20T10:34:35Z</time>
      </trkpt>
      <trkpt lat="45.94432" lon="4.7284">
        <ele>166</ele>
        <time>2018-09-20T10:34:37Z</time>
      </trkpt>
      <trkpt lat="45.94431" lon="4.72833">
        <ele>167</ele>
        <time>2018-09-20T10:34:38Z</time>
      </trkpt>
      <trkpt lat="45.9443" lon="4.72827">
        <ele>167</ele>
        <time>2018-09-20T10:34:39Z</time>
      </trkpt>
      <trkpt lat="45.94429" lon="4.72818">
        <ele>167</ele>
        <time>2018-09-20T10:34:40Z</time>
      </trkpt>
      <trkpt lat="45.94426" lon="4.72811">
        <ele>167</ele>
        <time>2018-09-20T10:34:41Z</time>
      </trkpt>
      <trkpt lat="45.94424" lon="4.72803">
        <ele>167</ele>
        <time>2018-09-20T10:34:42Z</time>
      </trkpt>
      <trkpt lat="45.94423" lon="4.72795">
        <ele>168</ele>
        <time>2018-09-20T10:34:43Z</time>
      </trkpt>
      <trkpt lat="45.94422" lon="4.72785">
        <ele>168</ele>
        <time>2018-09-20T10:34:44Z</time>
      </trkpt>
      <trkpt lat="45.94421" lon="4.72775">
        <ele>168</ele>
        <time>2018-09-20T10:34:45Z</time>
      </trkpt>
      <trkpt lat="45.9442" lon="4.72766">
        <ele>169</ele>
        <time>2018-09-20T10:34:46Z</time>
      </trkpt>
      <trkpt lat="45.94418" lon="4.72756">
        <ele>170</ele>
        <time>2018-09-20T10:34:47Z</time>
      </trkpt>
      <trkpt lat="45.94417" lon="4.72746">
        <ele>171</ele>
        <time>2018-09-20T10:34:48Z</time>
      </trkpt>
      <trkpt lat="45.94415" lon="4.72735">
        <ele>172</ele>
        <time>2018-09-20T10:34:49Z</time>
      </trkpt>
      <trkpt lat="45.94414" lon="4.72724">
        <ele>172</ele>
        <time>2018-09-20T10:34:50Z</time>
      </trkpt>
      <trkpt lat="45.94413" lon="4.72714">
        <ele>172</ele>
        <time>2018-09-20T10:34:51Z</time>
      </trkpt>
      <trkpt lat="45.94413" lon="4.72704">
        <ele>172</ele>
        <time>2018-09-20T10:34:52Z</time>
      </trkpt>
      <trkpt lat="45.94411" lon="4.72693">
        <ele>173</ele>
        <time>2018-09-20T10:34:53Z</time>
      </trkpt>
      <trkpt lat="45.9441" lon="4.72684">
        <ele>173</ele>
        <time>2018-09-20T10:34:54Z</time>
      </trkpt>
      <trkpt lat="45.94408" lon="4.72674">
        <ele>173</ele>
        <time>2018-09-20T10:34:55Z</time>
      </trkpt>
      <trkpt lat="45.9441" lon="4.72664">
        <ele>174</ele>
        <time>2018-09-20T10:34:56Z</time>
      </trkpt>
      <trkpt lat="45.94407" lon="4.72653">
        <ele>174</ele>
        <time>2018-09-20T10:34:57Z</time>
      </trkpt>
      <trkpt lat="45.94405" lon="4.72643">
        <ele>174</ele>
        <time>2018-09-20T10:34:58Z</time>
      </trkpt>
      <trkpt lat="45.94404" lon="4.72635">
        <ele>174</ele>
        <time>2018-09-20T10:34:59Z</time>
      </trkpt>
      <trkpt lat="45.94403" lon="4.72625">
        <ele>174</ele>
        <time>2018-09-20T10:35:00Z</time>
      </trkpt>
      <trkpt lat="45.94401" lon="4.72616">
        <ele>173</ele>
        <time>2018-09-20T10:35:01Z</time>
      </trkpt>
      <trkpt lat="45.94402" lon="4.72608">
        <ele>173</ele>
        <time>2018-09-20T10:35:02Z</time>
      </trkpt>
      <trkpt lat="45.94401" lon="4.72599">
        <ele>173</ele>
        <time>2018-09-20T10:35:03Z</time>
      </trkpt>
      <trkpt lat="45.944" lon="4.72592">
        <ele>173</ele>
        <time>2018-09-20T10:35:04Z</time>
      </trkpt>
      <trkpt lat="45.94398" lon="4.72584">
        <ele>173</ele>
        <time>2018-09-20T10:35:05Z</time>
      </trkpt>
      <trkpt lat="45.94397" lon="4.72575">
        <ele>173</ele>
        <time>2018-09-20T10:35:06Z</time>
      </trkpt>
      <trkpt lat="45.94397" lon="4.72567">
        <ele>173</ele>
        <time>2018-09-20T10:35:07Z</time>
      </trkpt>
      <trkpt lat="45.94396" lon="4.72559">
        <ele>173</ele>
        <time>2018-09-20T10:35:08Z</time>
      </trkpt>
      <trkpt lat="45.94394" lon="4.72553">
        <ele>173</ele>
        <time>2018-09-20T10:35:09Z</time>
      </trkpt>
      <trkpt lat="45.94392" lon="4.72546">
        <ele>173</ele>
        <time>2018-09-20T10:35:10Z</time>
      </trkpt>
      <trkpt lat="45.9439" lon="4.72538">
        <ele>174</ele>
        <time>2018-09-20T10:35:11Z</time>
      </trkpt>
      <trkpt lat="45.9439" lon="4.72531">
        <ele>174</ele>
        <time>2018-09-20T10:35:12Z</time>
      </trkpt>
      <trkpt lat="45.94388" lon="4.72524">
        <ele>174</ele>
        <time>2018-09-20T10:35:13Z</time>
      </trkpt>
      <trkpt lat="45.94386" lon="4.72516">
        <ele>174</ele>
        <time>2018-09-20T10:35:14Z</time>
      </trkpt>
      <trkpt lat="45.94384" lon="4.7251">
        <ele>174</ele>
        <time>2018-09-20T10:35:15Z</time>
      </trkpt>
      <trkpt lat="45.94382" lon="4.72503">
        <ele>174</ele>
        <time>2018-09-20T10:35:16Z</time>
      </trkpt>
      <trkpt lat="45.9438" lon="4.72497">
        <ele>173</ele>
        <time>2018-09-20T10:35:17Z</time>
      </trkpt>
      <trkpt lat="45.94378" lon="4.7249">
        <ele>173</ele>
        <time>2018-09-20T10:35:18Z</time>
      </trkpt>
      <trkpt lat="45.94376" lon="4.72484">
        <ele>173</ele>
        <time>2018-09-20T10:35:19Z</time>
      </trkpt>
      <trkpt lat="45.94375" lon="4.72478">
        <ele>173</ele>
        <time>2018-09-20T10:35:20Z</time>
      </trkpt>
      <trkpt lat="45.94372" lon="4.72471">
        <ele>173</ele>
        <time>2018-09-20T10:35:21Z</time>
      </trkpt>
      <trkpt lat="45.94368" lon="4.72465">
        <ele>173</ele>
        <time>2018-09-20T10:35:22Z</time>
      </trkpt>
      <trkpt lat="45.94365" lon="4.7246">
        <ele>173</ele>
        <time>2018-09-20T10:35:23Z</time>
      </trkpt>
      <trkpt lat="45.94362" lon="4.72455">
        <ele>173</ele>
        <time>2018-09-20T10:35:24Z</time>
      </trkpt>
      <trkpt lat="45.94358" lon="4.72449">
        <ele>173</ele>
        <time>2018-09-20T10:35:25Z</time>
      </trkpt>
      <trkpt lat="45.94356" lon="4.72442">
        <ele>173</ele>
        <time>2018-09-20T10:35:26Z</time>
      </trkpt>
      <trkpt lat="45.94353" lon="4.72435">
        <ele>173</ele>
        <time>2018-09-20T10:35:27Z</time>
      </trkpt>
      <trkpt lat="45.94349" lon="4.72426">
        <ele>173</ele>
        <time>2018-09-20T10:35:28Z</time>
      </trkpt>
      <trkpt lat="45.94346" lon="4.72419">
        <ele>173</ele>
        <time>2018-09-20T10:35:29Z</time>
      </trkpt>
      <trkpt lat="45.94343" lon="4.72413">
        <ele>173</ele>
        <time>2018-09-20T10:35:30Z</time>
      </trkpt>
      <trkpt lat="45.9434" lon="4.72406">
        <ele>173</ele>
        <time>2018-09-20T10:35:31Z</time>
      </trkpt>
      <trkpt lat="45.94337" lon="4.72401">
        <ele>173</ele>
        <time>2018-09-20T10:35:32Z</time>
      </trkpt>
      <trkpt lat="45.94333" lon="4.72393">
        <ele>172</ele>
        <time>2018-09-20T10:35:33Z</time>
      </trkpt>
      <trkpt lat="45.94329" lon="4.72387">
        <ele>172</ele>
        <time>2018-09-20T10:35:34Z</time>
      </trkpt>
      <trkpt lat="45.94328" lon="4.72382">
        <ele>172</ele>
        <time>2018-09-20T10:35:35Z</time>
      </trkpt>
      <trkpt lat="45.94325" lon="4.72376">
        <ele>172</ele>
        <time>2018-09-20T10:35:36Z</time>
      </trkpt>
      <trkpt lat="45.94322" lon="4.7237">
        <ele>172</ele>
        <time>2018-09-20T10:35:37Z</time>
      </trkpt>
      <trkpt lat="45.94319" lon="4.72364">
        <ele>172</ele>
        <time>2018-09-20T10:35:38Z</time>
      </trkpt>
      <trkpt lat="45.94315" lon="4.72355">
        <ele>172</ele>
        <time>2018-09-20T10:35:40Z</time>
      </trkpt>
      <trkpt lat="45.94312" lon="4.72348">
        <ele>172</ele>
        <time>2018-09-20T10:35:41Z</time>
      </trkpt>
      <trkpt lat="45.94309" lon="4.72343">
        <ele>172</ele>
        <time>2018-09-20T10:35:42Z</time>
      </trkpt>
      <trkpt lat="45.94308" lon="4.72336">
        <ele>172</ele>
        <time>2018-09-20T10:35:43Z</time>
      </trkpt>
      <trkpt lat="45.94305" lon="4.72325">
        <ele>171</ele>
        <time>2018-09-20T10:35:45Z</time>
      </trkpt>
      <trkpt lat="45.94302" lon="4.72316">
        <ele>171</ele>
        <time>2018-09-20T10:35:46Z</time>
      </trkpt>
      <trkpt lat="45.94297" lon="4.7231">
        <ele>171</ele>
        <time>2018-09-20T10:35:47Z</time>
      </trkpt>
      <trkpt lat="45.94294" lon="4.72302">
        <ele>171</ele>
        <time>2018-09-20T10:35:48Z</time>
      </trkpt>
      <trkpt lat="45.94291" lon="4.72295">
        <ele>171</ele>
        <time>2018-09-20T10:35:49Z</time>
      </trkpt>
      <trkpt lat="45.94288" lon="4.7229">
        <ele>171</ele>
        <time>2018-09-20T10:35:50Z</time>
      </trkpt>
      <trkpt lat="45.94285" lon="4.72283">
        <ele>171</ele>
        <time>2018-09-20T10:35:51Z</time>
      </trkpt>
      <trkpt lat="45.94281" lon="4.72277">
        <ele>171</ele>
        <time>2018-09-20T10:35:52Z</time>
      </trkpt>
      <trkpt lat="45.94276" lon="4.72272">
        <ele>171</ele>
        <time>2018-09-20T10:35:53Z</time>
      </trkpt>
      <trkpt lat="45.94272" lon="4.72269">
        <ele>171</ele>
        <time>2018-09-20T10:35:54Z</time>
      </trkpt>
      <trkpt lat="45.94267" lon="4.72269">
        <ele>171</ele>
        <time>2018-09-20T10:35:55Z</time>
      </trkpt>
      <trkpt lat="45.94261" lon="4.72271">
        <ele>171</ele>
        <time>2018-09-20T10:35:56Z</time>
      </trkpt>
      <trkpt lat="45.94257" lon="4.72273">
        <ele>171</ele>
        <time>2018-09-20T10:35:57Z</time>
      </trkpt>
      <trkpt lat="45.94252" lon="4.72275">
        <ele>171</ele>
        <time>2018-09-20T10:35:58Z</time>
      </trkpt>
      <trkpt lat="45.94248" lon="4.72277">
        <ele>171</ele>
        <time>2018-09-20T10:35:59Z</time>
      </trkpt>
      <trkpt lat="45.94243" lon="4.7228">
        <ele>171</ele>
        <time>2018-09-20T10:36:00Z</time>
      </trkpt>
      <trkpt lat="45.94238" lon="4.72282">
        <ele>171</ele>
        <time>2018-09-20T10:36:01Z</time>
      </trkpt>
      <trkpt lat="45.94233" lon="4.72284">
        <ele>171</ele>
        <time>2018-09-20T10:36:02Z</time>
      </trkpt>
      <trkpt lat="45.94228" lon="4.72287">
        <ele>171</ele>
        <time>2018-09-20T10:36:03Z</time>
      </trkpt>
      <trkpt lat="45.94222" lon="4.72289">
        <ele>171</ele>
        <time>2018-09-20T10:36:04Z</time>
      </trkpt>
      <trkpt lat="45.94217" lon="4.72288">
        <ele>171</ele>
        <time>2018-09-20T10:36:05Z</time>
      </trkpt>
      <trkpt lat="45.94213" lon="4.72288">
        <ele>171</ele>
        <time>2018-09-20T10:36:06Z</time>
      </trkpt>
      <trkpt lat="45.94208" lon="4.72288">
        <ele>171</ele>
        <time>2018-09-20T10:36:07Z</time>
      </trkpt>
      <trkpt lat="45.94203" lon="4.72289">
        <ele>171</ele>
        <time>2018-09-20T10:36:08Z</time>
      </trkpt>
      <trkpt lat="45.94198" lon="4.7229">
        <ele>171</ele>
        <time>2018-09-20T10:36:09Z</time>
      </trkpt>
      <trkpt lat="45.94193" lon="4.72289">
        <ele>171</ele>
        <time>2018-09-20T10:36:10Z</time>
      </trkpt>
      <trkpt lat="45.94185" lon="4.72291">
        <ele>171</ele>
        <time>2018-09-20T10:36:12Z</time>
      </trkpt>
      <trkpt lat="45.94181" lon="4.72291">
        <ele>171</ele>
        <time>2018-09-20T10:36:13Z</time>
      </trkpt>
      <trkpt lat="45.94173" lon="4.72291">
        <ele>171</ele>
        <time>2018-09-20T10:36:15Z</time>
      </trkpt>
      <trkpt lat="45.94168" lon="4.72291">
        <ele>171</ele>
        <time>2018-09-20T10:36:16Z</time>
      </trkpt>
      <trkpt lat="45.9416" lon="4.72289">
        <ele>171</ele>
        <time>2018-09-20T10:36:18Z</time>
      </trkpt>
      <trkpt lat="45.94156" lon="4.72287">
        <ele>171</ele>
        <time>2018-09-20T10:36:19Z</time>
      </trkpt>
      <trkpt lat="45.94148" lon="4.72284">
        <ele>171</ele>
        <time>2018-09-20T10:36:21Z</time>
      </trkpt>
      <trkpt lat="45.94143" lon="4.72281">
        <ele>171</ele>
        <time>2018-09-20T10:36:22Z</time>
      </trkpt>
      <trkpt lat="45.94138" lon="4.72281">
        <ele>171</ele>
        <time>2018-09-20T10:36:23Z</time>
      </trkpt>
      <trkpt lat="45.94134" lon="4.72278">
        <ele>171</ele>
        <time>2018-09-20T10:36:24Z</time>
      </trkpt>
      <trkpt lat="45.94127" lon="4.72275">
        <ele>171</ele>
        <time>2018-09-20T10:36:26Z</time>
      </trkpt>
      <trkpt lat="45.94123" lon="4.72272">
        <ele>171</ele>
        <time>2018-09-20T10:36:27Z</time>
      </trkpt>
      <trkpt lat="45.94119" lon="4.72269">
        <ele>171</ele>
        <time>2018-09-20T10:36:28Z</time>
      </trkpt>
      <trkpt lat="45.94114" lon="4.72269">
        <ele>171</ele>
        <time>2018-09-20T10:36:29Z</time>
      </trkpt>
      <trkpt lat="45.94109" lon="4.72268">
        <ele>171</ele>
        <time>2018-09-20T10:36:30Z</time>
      </trkpt>
      <trkpt lat="45.94103" lon="4.72267">
        <ele>171</ele>
        <time>2018-09-20T10:36:31Z</time>
      </trkpt>
      <trkpt lat="45.94098" lon="4.72268">
        <ele>171</ele>
        <time>2018-09-20T10:36:32Z</time>
      </trkpt>
      <trkpt lat="45.94092" lon="4.72269">
        <ele>171</ele>
        <time>2018-09-20T10:36:33Z</time>
      </trkpt>
      <trkpt lat="45.94087" lon="4.72269">
        <ele>171</ele>
        <time>2018-09-20T10:36:34Z</time>
      </trkpt>
      <trkpt lat="45.94082" lon="4.72272">
        <ele>171</ele>
        <time>2018-09-20T10:36:35Z</time>
      </trkpt>
      <trkpt lat="45.94078" lon="4.72277">
        <ele>171</ele>
        <time>2018-09-20T10:36:36Z</time>
      </trkpt>
      <trkpt lat="45.94073" lon="4.7228">
        <ele>171</ele>
        <time>2018-09-20T10:36:37Z</time>
      </trkpt>
      <trkpt lat="45.94069" lon="4.72284">
        <ele>171</ele>
        <time>2018-09-20T10:36:38Z</time>
      </trkpt>
      <trkpt lat="45.94065" lon="4.72289">
        <ele>171</ele>
        <time>2018-09-20T10:36:39Z</time>
      </trkpt>
      <trkpt lat="45.9406" lon="4.72293">
        <ele>171</ele>
        <time>2018-09-20T10:36:40Z</time>
      </trkpt>
      <trkpt lat="45.94056" lon="4.72298">
        <ele>171</ele>
        <time>2018-09-20T10:36:41Z</time>
      </trkpt>
      <trkpt lat="45.94051" lon="4.72304">
        <ele>171</ele>
        <time>2018-09-20T10:36:42Z</time>
      </trkpt>
      <trkpt lat="45.94047" lon="4.7231">
        <ele>171</ele>
        <time>2018-09-20T10:36:43Z</time>
      </trkpt>
      <trkpt lat="45.94042" lon="4.72315">
        <ele>171</ele>
        <time>2018-09-20T10:36:44Z</time>
      </trkpt>
      <trkpt lat="45.94038" lon="4.72322">
        <ele>171</ele>
        <time>2018-09-20T10:36:45Z</time>
      </trkpt>
      <trkpt lat="45.94034" lon="4.72328">
        <ele>171</ele>
        <time>2018-09-20T10:36:46Z</time>
      </trkpt>
      <trkpt lat="45.9403" lon="4.72333">
        <ele>171</ele>
        <time>2018-09-20T10:36:47Z</time>
      </trkpt>
      <trkpt lat="45.94025" lon="4.72338">
        <ele>171</ele>
        <time>2018-09-20T10:36:48Z</time>
      </trkpt>
      <trkpt lat="45.94021" lon="4.72343">
        <ele>171</ele>
        <time>2018-09-20T10:36:49Z</time>
      </trkpt>
      <trkpt lat="45.94017" lon="4.72349">
        <ele>171</ele>
        <time>2018-09-20T10:36:50Z</time>
      </trkpt>
      <trkpt lat="45.94013" lon="4.72354">
        <ele>171</ele>
        <time>2018-09-20T10:36:51Z</time>
      </trkpt>
      <trkpt lat="45.94009" lon="4.72359">
        <ele>171</ele>
        <time>2018-09-20T10:36:52Z</time>
      </trkpt>
      <trkpt lat="45.94004" lon="4.72365">
        <ele>171</ele>
        <time>2018-09-20T10:36:53Z</time>
      </trkpt>
      <trkpt lat="45.94" lon="4.72369">
        <ele>171</ele>
        <time>2018-09-20T10:36:54Z</time>
      </trkpt>
      <trkpt lat="45.93996" lon="4.72374">
        <ele>171</ele>
        <time>2018-09-20T10:36:55Z</time>
      </trkpt>
      <trkpt lat="45.93992" lon="4.72379">
        <ele>171</ele>
        <time>2018-09-20T10:36:56Z</time>
      </trkpt>
      <trkpt lat="45.93988" lon="4.72383">
        <ele>171</ele>
        <time>2018-09-20T10:36:57Z</time>
      </trkpt>
      <trkpt lat="45.93984" lon="4.72388">
        <ele>171</ele>
        <time>2018-09-20T10:36:58Z</time>
      </trkpt>
      <trkpt lat="45.9398" lon="4.72393">
        <ele>171</ele>
        <time>2018-09-20T10:36:59Z</time>
      </trkpt>
      <trkpt lat="45.93975" lon="4.72398">
        <ele>171</ele>
        <time>2018-09-20T10:37:00Z</time>
      </trkpt>
      <trkpt lat="45.93971" lon="4.72404">
        <ele>171</ele>
        <time>2018-09-20T10:37:01Z</time>
      </trkpt>
      <trkpt lat="45.93968" lon="4.7241">
        <ele>171</ele>
        <time>2018-09-20T10:37:02Z</time>
      </trkpt>
      <trkpt lat="45.93963" lon="4.72415">
        <ele>171</ele>
        <time>2018-09-20T10:37:03Z</time>
      </trkpt>
      <trkpt lat="45.93958" lon="4.72421">
        <ele>171</ele>
        <time>2018-09-20T10:37:04Z</time>
      </trkpt>
      <trkpt lat="45.93954" lon="4.72426">
        <ele>171</ele>
        <time>2018-09-20T10:37:05Z</time>
      </trkpt>
      <trkpt lat="45.9395" lon="4.72432">
        <ele>171</ele>
        <time>2018-09-20T10:37:06Z</time>
      </trkpt>
      <trkpt lat="45.93945" lon="4.72436">
        <ele>171</ele>
        <time>2018-09-20T10:37:07Z</time>
      </trkpt>
      <trkpt lat="45.93941" lon="4.72443">
        <ele>171</ele>
        <time>2018-09-20T10:37:08Z</time>
      </trkpt>
      <trkpt lat="45.93937" lon="4.72448">
        <ele>171</ele>
        <time>2018-09-20T10:37:09Z</time>
      </trkpt>
      <trkpt lat="45.93932" lon="4.72453">
        <ele>171</ele>
        <time>2018-09-20T10:37:10Z</time>
      </trkpt>
      <trkpt lat="45.93928" lon="4.72458">
        <ele>171</ele>
        <time>2018-09-20T10:37:11Z</time>
      </trkpt>
      <trkpt lat="45.93925" lon="4.72464">
        <ele>171</ele>
        <time>2018-09-20T10:37:12Z</time>
      </trkpt>
      <trkpt lat="45.93919" lon="4.72468">
        <ele>171</ele>
        <time>2018-09-20T10:37:13Z</time>
      </trkpt>
      <trkpt lat="45.93916" lon="4.72472">
        <ele>172</ele>
        <time>2018-09-20T10:37:14Z</time>
      </trkpt>
      <trkpt lat="45.93912" lon="4.72479">
        <ele>172</ele>
        <time>2018-09-20T10:37:15Z</time>
      </trkpt>
      <trkpt lat="45.93908" lon="4.72483">
        <ele>172</ele>
        <time>2018-09-20T10:37:16Z</time>
      </trkpt>
      <trkpt lat="45.93904" lon="4.72487">
        <ele>172</ele>
        <time>2018-09-20T10:37:17Z</time>
      </trkpt>
      <trkpt lat="45.939" lon="4.72492">
        <ele>172</ele>
        <time>2018-09-20T10:37:18Z</time>
      </trkpt>
      <trkpt lat="45.93896" lon="4.72497">
        <ele>172</ele>
        <time>2018-09-20T10:37:19Z</time>
      </trkpt>
      <trkpt lat="45.93892" lon="4.72502">
        <ele>172</ele>
        <time>2018-09-20T10:37:20Z</time>
      </trkpt>
      <trkpt lat="45.93889" lon="4.72506">
        <ele>173</ele>
        <time>2018-09-20T10:37:21Z</time>
      </trkpt>
      <trkpt lat="45.93882" lon="4.72513">
        <ele>173</ele>
        <time>2018-09-20T10:37:23Z</time>
      </trkpt>
      <trkpt lat="45.93878" lon="4.72516">
        <ele>173</ele>
        <time>2018-09-20T10:37:24Z</time>
      </trkpt>
      <trkpt lat="45.9387" lon="4.72517">
        <ele>173</ele>
        <time>2018-09-20T10:37:26Z</time>
      </trkpt>
      <trkpt lat="45.93865" lon="4.72518">
        <ele>173</ele>
        <time>2018-09-20T10:37:27Z</time>
      </trkpt>
      <trkpt lat="45.9386" lon="4.72514">
        <ele>173</ele>
        <time>2018-09-20T10:37:28Z</time>
      </trkpt>
      <trkpt lat="45.93858" lon="4.72511">
        <ele>173</ele>
        <time>2018-09-20T10:37:29Z</time>
      </trkpt>
      <trkpt lat="45.93851" lon="4.72505">
        <ele>174</ele>
        <time>2018-09-20T10:37:31Z</time>
      </trkpt>
      <trkpt lat="45.93848" lon="4.72503">
        <ele>174</ele>
        <time>2018-09-20T10:37:32Z</time>
      </trkpt>
      <trkpt lat="45.93841" lon="4.72498">
        <ele>173</ele>
        <time>2018-09-20T10:37:34Z</time>
      </trkpt>
      <trkpt lat="45.93837" lon="4.72494">
        <ele>174</ele>
        <time>2018-09-20T10:37:35Z</time>
      </trkpt>
      <trkpt lat="45.93832" lon="4.72476">
        <ele>173</ele>
        <time>2018-09-20T10:37:36Z</time>
      </trkpt>
      <trkpt lat="45.93824" lon="4.7247">
        <ele>172</ele>
        <time>2018-09-20T10:37:37Z</time>
      </trkpt>
      <trkpt lat="45.93816" lon="4.72464">
        <ele>172</ele>
        <time>2018-09-20T10:37:39Z</time>
      </trkpt>
      <trkpt lat="45.93813" lon="4.72461">
        <ele>172</ele>
        <time>2018-09-20T10:37:40Z</time>
      </trkpt>
      <trkpt lat="45.9381" lon="4.72458">
        <ele>172</ele>
        <time>2018-09-20T10:37:41Z</time>
      </trkpt>
      <trkpt lat="45.93804" lon="4.72452">
        <ele>172</ele>
        <time>2018-09-20T10:37:42Z</time>
      </trkpt>
      <trkpt lat="45.93799" lon="4.72448">
        <ele>172</ele>
        <time>2018-09-20T10:37:43Z</time>
      </trkpt>
      <trkpt lat="45.93795" lon="4.72444">
        <ele>172</ele>
        <time>2018-09-20T10:37:44Z</time>
      </trkpt>
      <trkpt lat="45.93789" lon="4.72442">
        <ele>172</ele>
        <time>2018-09-20T10:37:45Z</time>
      </trkpt>
      <trkpt lat="45.93784" lon="4.72438">
        <ele>172</ele>
        <time>2018-09-20T10:37:46Z</time>
      </trkpt>
      <trkpt lat="45.9378" lon="4.72433">
        <ele>172</ele>
        <time>2018-09-20T10:37:47Z</time>
      </trkpt>
      <trkpt lat="45.93776" lon="4.72431">
        <ele>171</ele>
        <time>2018-09-20T10:37:48Z</time>
      </trkpt>
      <trkpt lat="45.9377" lon="4.72423">
        <ele>171</ele>
        <time>2018-09-20T10:37:50Z</time>
      </trkpt>
      <trkpt lat="45.93765" lon="4.72418">
        <ele>171</ele>
        <time>2018-09-20T10:37:51Z</time>
      </trkpt>
      <trkpt lat="45.93761" lon="4.72415">
        <ele>171</ele>
        <time>2018-09-20T10:37:52Z</time>
      </trkpt>
      <trkpt lat="45.93757" lon="4.72411">
        <ele>171</ele>
        <time>2018-09-20T10:37:53Z</time>
      </trkpt>
      <trkpt lat="45.93753" lon="4.72407">
        <ele>171</ele>
        <time>2018-09-20T10:37:54Z</time>
      </trkpt>
      <trkpt lat="45.93748" lon="4.72403">
        <ele>171</ele>
        <time>2018-09-20T10:37:55Z</time>
      </trkpt>
      <trkpt lat="45.93744" lon="4.72399">
        <ele>171</ele>
        <time>2018-09-20T10:37:56Z</time>
      </trkpt>
      <trkpt lat="45.93741" lon="4.72395">
        <ele>171</ele>
        <time>2018-09-20T10:37:57Z</time>
      </trkpt>
      <trkpt lat="45.93736" lon="4.72392">
        <ele>171</ele>
        <time>2018-09-20T10:37:58Z</time>
      </trkpt>
      <trkpt lat="45.93732" lon="4.72389">
        <ele>171</ele>
        <time>2018-09-20T10:37:59Z</time>
      </trkpt>
      <trkpt lat="45.93725" lon="4.72382">
        <ele>171</ele>
        <time>2018-09-20T10:38:01Z</time>
      </trkpt>
      <trkpt lat="45.93722" lon="4.72378">
        <ele>171</ele>
        <time>2018-09-20T10:38:02Z</time>
      </trkpt>
      <trkpt lat="45.93718" lon="4.72374">
        <ele>172</ele>
        <time>2018-09-20T10:38:03Z</time>
      </trkpt>
      <trkpt lat="45.93715" lon="4.7237">
        <ele>172</ele>
        <time>2018-09-20T10:38:04Z</time>
      </trkpt>
      <trkpt lat="45.9371" lon="4.72366">
        <ele>172</ele>
        <time>2018-09-20T10:38:05Z</time>
      </trkpt>
      <trkpt lat="45.93705" lon="4.72362">
        <ele>171</ele>
        <time>2018-09-20T10:38:06Z</time>
      </trkpt>
      <trkpt lat="45.93701" lon="4.72358">
        <ele>171</ele>
        <time>2018-09-20T10:38:07Z</time>
      </trkpt>
      <trkpt lat="45.93697" lon="4.72355">
        <ele>171</ele>
        <time>2018-09-20T10:38:08Z</time>
      </trkpt>
      <trkpt lat="45.93693" lon="4.72351">
        <ele>171</ele>
        <time>2018-09-20T10:38:09Z</time>
      </trkpt>
      <trkpt lat="45.93681" lon="4.72339">
        <ele>171</ele>
        <time>2018-09-20T10:38:12Z</time>
      </trkpt>
      <trkpt lat="45.93673" lon="4.72334">
        <ele>171</ele>
        <time>2018-09-20T10:38:14Z</time>
      </trkpt>
      <trkpt lat="45.9367" lon="4.72329">
        <ele>171</ele>
        <time>2018-09-20T10:38:15Z</time>
      </trkpt>
      <trkpt lat="45.93663" lon="4.72322">
        <ele>171</ele>
        <time>2018-09-20T10:38:17Z</time>
      </trkpt>
      <trkpt lat="45.9366" lon="4.72318">
        <ele>172</ele>
        <time>2018-09-20T10:38:18Z</time>
      </trkpt>
      <trkpt lat="45.93657" lon="4.72311">
        <ele>172</ele>
        <time>2018-09-20T10:38:19Z</time>
      </trkpt>
      <trkpt lat="45.93653" lon="4.72307">
        <ele>172</ele>
        <time>2018-09-20T10:38:20Z</time>
      </trkpt>
      <trkpt lat="45.93645" lon="4.723">
        <ele>172</ele>
        <time>2018-09-20T10:38:22Z</time>
      </trkpt>
      <trkpt lat="45.9364" lon="4.72296">
        <ele>172</ele>
        <time>2018-09-20T10:38:23Z</time>
      </trkpt>
      <trkpt lat="45.93636" lon="4.72292">
        <ele>172</ele>
        <time>2018-09-20T10:38:24Z</time>
      </trkpt>
      <trkpt lat="45.93632" lon="4.72289">
        <ele>172</ele>
        <time>2018-09-20T10:38:25Z</time>
      </trkpt>
      <trkpt lat="45.93628" lon="4.72284">
        <ele>172</ele>
        <time>2018-09-20T10:38:26Z</time>
      </trkpt>
      <trkpt lat="45.93625" lon="4.72279">
        <ele>172</ele>
        <time>2018-09-20T10:38:27Z</time>
      </trkpt>
      <trkpt lat="45.93619" lon="4.72272">
        <ele>172</ele>
        <time>2018-09-20T10:38:29Z</time>
      </trkpt>
      <trkpt lat="45.93618" lon="4.7227">
        <ele>172</ele>
        <time>2018-09-20T10:38:30Z</time>
      </trkpt>
      <trkpt lat="45.93614" lon="4.72266">
        <ele>172</ele>
        <time>2018-09-20T10:38:32Z</time>
      </trkpt>
      <trkpt lat="45.93605" lon="4.7226">
        <ele>173</ele>
        <time>2018-09-20T10:38:33Z</time>
      </trkpt>
      <trkpt lat="45.93601" lon="4.72255">
        <ele>173</ele>
        <time>2018-09-20T10:38:34Z</time>
      </trkpt>
      <trkpt lat="45.93598" lon="4.72252">
        <ele>173</ele>
        <time>2018-09-20T10:38:35Z</time>
      </trkpt>
      <trkpt lat="45.93592" lon="4.72247">
        <ele>173</ele>
        <time>2018-09-20T10:38:36Z</time>
      </trkpt>
      <trkpt lat="45.93588" lon="4.72243">
        <ele>173</ele>
        <time>2018-09-20T10:38:37Z</time>
      </trkpt>
      <trkpt lat="45.93584" lon="4.72238">
        <ele>173</ele>
        <time>2018-09-20T10:38:39Z</time>
      </trkpt>
      <trkpt lat="45.93579" lon="4.72233">
        <ele>173</ele>
        <time>2018-09-20T10:38:40Z</time>
      </trkpt>
      <trkpt lat="45.93574" lon="4.72231">
        <ele>173</ele>
        <time>2018-09-20T10:38:41Z</time>
      </trkpt>
      <trkpt lat="45.9357" lon="4.72227">
        <ele>173</ele>
        <time>2018-09-20T10:38:42Z</time>
      </trkpt>
      <trkpt lat="45.93565" lon="4.72222">
        <ele>173</ele>
        <time>2018-09-20T10:38:45Z</time>
      </trkpt>
      <trkpt lat="45.93562" lon="4.72221">
        <ele>173</ele>
        <time>2018-09-20T10:38:46Z</time>
      </trkpt>
      <trkpt lat="45.93555" lon="4.72217">
        <ele>173</ele>
        <time>2018-09-20T10:38:50Z</time>
      </trkpt>
      <trkpt lat="45.93547" lon="4.72218">
        <ele>172</ele>
        <time>2018-09-20T10:38:51Z</time>
      </trkpt>
      <trkpt lat="45.93543" lon="4.72225">
        <ele>172</ele>
        <time>2018-09-20T10:38:54Z</time>
      </trkpt>
      <trkpt lat="45.9354" lon="4.72234">
        <ele>172</ele>
        <time>2018-09-20T10:38:55Z</time>
      </trkpt>
      <trkpt lat="45.93537" lon="4.72243">
        <ele>172</ele>
        <time>2018-09-20T10:38:58Z</time>
      </trkpt>
      <trkpt lat="45.93533" lon="4.72253">
        <ele>172</ele>
        <time>2018-09-20T10:38:59Z</time>
      </trkpt>
      <trkpt lat="45.93529" lon="4.72263">
        <ele>172</ele>
        <time>2018-09-20T10:39:01Z</time>
      </trkpt>
      <trkpt lat="45.93527" lon="4.72269">
        <ele>172</ele>
        <time>2018-09-20T10:39:02Z</time>
      </trkpt>
      <trkpt lat="45.93523" lon="4.72279">
        <ele>172</ele>
        <time>2018-09-20T10:39:04Z</time>
      </trkpt>
      <trkpt lat="45.93521" lon="4.72285">
        <ele>172</ele>
        <time>2018-09-20T10:39:05Z</time>
      </trkpt>
      <trkpt lat="45.93518" lon="4.7229">
        <ele>172</ele>
        <time>2018-09-20T10:39:06Z</time>
      </trkpt>
      <trkpt lat="45.93516" lon="4.72296">
        <ele>172</ele>
        <time>2018-09-20T10:39:07Z</time>
      </trkpt>
      <trkpt lat="45.93513" lon="4.723">
        <ele>172</ele>
        <time>2018-09-20T10:39:08Z</time>
      </trkpt>
      <trkpt lat="45.93509" lon="4.72305">
        <ele>173</ele>
        <time>2018-09-20T10:39:09Z</time>
      </trkpt>
      <trkpt lat="45.93506" lon="4.7231">
        <ele>173</ele>
        <time>2018-09-20T10:39:10Z</time>
      </trkpt>
      <trkpt lat="45.93502" lon="4.72315">
        <ele>173</ele>
        <time>2018-09-20T10:39:11Z</time>
      </trkpt>
      <trkpt lat="45.93498" lon="4.72319">
        <ele>173</ele>
        <time>2018-09-20T10:39:12Z</time>
      </trkpt>
      <trkpt lat="45.93495" lon="4.72323">
        <ele>173</ele>
        <time>2018-09-20T10:39:13Z</time>
      </trkpt>
      <trkpt lat="45.93491" lon="4.7233">
        <ele>173</ele>
        <time>2018-09-20T10:39:14Z</time>
      </trkpt>
      <trkpt lat="45.93487" lon="4.72335">
        <ele>173</ele>
        <time>2018-09-20T10:39:15Z</time>
      </trkpt>
      <trkpt lat="45.93483" lon="4.72341">
        <ele>173</ele>
        <time>2018-09-20T10:39:16Z</time>
      </trkpt>
      <trkpt lat="45.9348" lon="4.72347">
        <ele>173</ele>
        <time>2018-09-20T10:39:17Z</time>
      </trkpt>
      <trkpt lat="45.93477" lon="4.72352">
        <ele>173</ele>
        <time>2018-09-20T10:39:18Z</time>
      </trkpt>
      <trkpt lat="45.93473" lon="4.72356">
        <ele>173</ele>
        <time>2018-09-20T10:39:19Z</time>
      </trkpt>
      <trkpt lat="45.93469" lon="4.72361">
        <ele>173</ele>
        <time>2018-09-20T10:39:20Z</time>
      </trkpt>
      <trkpt lat="45.93465" lon="4.72367">
        <ele>173</ele>
        <time>2018-09-20T10:39:21Z</time>
      </trkpt>
      <trkpt lat="45.93462" lon="4.72373">
        <ele>173</ele>
        <time>2018-09-20T10:39:22Z</time>
      </trkpt>
      <trkpt lat="45.93458" lon="4.72377">
        <ele>173</ele>
        <time>2018-09-20T10:39:23Z</time>
      </trkpt>
      <trkpt lat="45.93453" lon="4.72383">
        <ele>173</ele>
        <time>2018-09-20T10:39:24Z</time>
      </trkpt>
      <trkpt lat="45.93448" lon="4.72388">
        <ele>173</ele>
        <time>2018-09-20T10:39:25Z</time>
      </trkpt>
      <trkpt lat="45.93442" lon="4.72391">
        <ele>173</ele>
        <time>2018-09-20T10:39:26Z</time>
      </trkpt>
      <trkpt lat="45.93438" lon="4.72397">
        <ele>173</ele>
        <time>2018-09-20T10:39:27Z</time>
      </trkpt>
      <trkpt lat="45.93434" lon="4.72399">
        <ele>174</ele>
        <time>2018-09-20T10:39:28Z</time>
      </trkpt>
      <trkpt lat="45.93428" lon="4.72399">
        <ele>174</ele>
        <time>2018-09-20T10:39:29Z</time>
      </trkpt>
      <trkpt lat="45.93424" lon="4.72404">
        <ele>174</ele>
        <time>2018-09-20T10:39:30Z</time>
      </trkpt>
      <trkpt lat="45.93419" lon="4.72404">
        <ele>174</ele>
        <time>2018-09-20T10:39:31Z</time>
      </trkpt>
      <trkpt lat="45.93414" lon="4.72406">
        <ele>174</ele>
        <time>2018-09-20T10:39:32Z</time>
      </trkpt>
      <trkpt lat="45.9341" lon="4.72406">
        <ele>174</ele>
        <time>2018-09-20T10:39:33Z</time>
      </trkpt>
      <trkpt lat="45.93402" lon="4.72403">
        <ele>174</ele>
        <time>2018-09-20T10:39:35Z</time>
      </trkpt>
      <trkpt lat="45.93397" lon="4.72403">
        <ele>174</ele>
        <time>2018-09-20T10:39:36Z</time>
      </trkpt>
      <trkpt lat="45.93393" lon="4.72404">
        <ele>174</ele>
        <time>2018-09-20T10:39:37Z</time>
      </trkpt>
      <trkpt lat="45.93388" lon="4.72408">
        <ele>174</ele>
        <time>2018-09-20T10:39:38Z</time>
      </trkpt>
      <trkpt lat="45.93385" lon="4.72414">
        <ele>174</ele>
        <time>2018-09-20T10:39:39Z</time>
      </trkpt>
      <trkpt lat="45.93383" lon="4.72422">
        <ele>173</ele>
        <time>2018-09-20T10:39:40Z</time>
      </trkpt>
      <trkpt lat="45.93384" lon="4.72428">
        <ele>173</ele>
        <time>2018-09-20T10:39:41Z</time>
      </trkpt>
      <trkpt lat="45.93386" lon="4.72435">
        <ele>173</ele>
        <time>2018-09-20T10:39:42Z</time>
      </trkpt>
      <trkpt lat="45.93388" lon="4.72441">
        <ele>173</ele>
        <time>2018-09-20T10:39:43Z</time>
      </trkpt>
      <trkpt lat="45.93388" lon="4.72449">
        <ele>173</ele>
        <time>2018-09-20T10:39:44Z</time>
      </trkpt>
      <trkpt lat="45.93387" lon="4.72456">
        <ele>173</ele>
        <time>2018-09-20T10:39:45Z</time>
      </trkpt>
      <trkpt lat="45.93386" lon="4.72462">
        <ele>173</ele>
        <time>2018-09-20T10:39:46Z</time>
      </trkpt>
      <trkpt lat="45.93383" lon="4.72468">
        <ele>173</ele>
        <time>2018-09-20T10:39:47Z</time>
      </trkpt>
      <trkpt lat="45.9338" lon="4.72474">
        <ele>173</ele>
        <time>2018-09-20T10:39:48Z</time>
      </trkpt>
      <trkpt lat="45.93376" lon="4.72479">
        <ele>173</ele>
        <time>2018-09-20T10:39:49Z</time>
      </trkpt>
      <trkpt lat="45.93371" lon="4.72484">
        <ele>173</ele>
        <time>2018-09-20T10:39:50Z</time>
      </trkpt>
      <trkpt lat="45.93366" lon="4.72489">
        <ele>173</ele>
        <time>2018-09-20T10:39:51Z</time>
      </trkpt>
      <trkpt lat="45.93362" lon="4.72494">
        <ele>173</ele>
        <time>2018-09-20T10:39:52Z</time>
      </trkpt>
      <trkpt lat="45.93357" lon="4.72499">
        <ele>173</ele>
        <time>2018-09-20T10:39:53Z</time>
      </trkpt>
      <trkpt lat="45.93353" lon="4.72505">
        <ele>172</ele>
        <time>2018-09-20T10:39:54Z</time>
      </trkpt>
      <trkpt lat="45.93348" lon="4.72509">
        <ele>172</ele>
        <time>2018-09-20T10:39:55Z</time>
      </trkpt>
      <trkpt lat="45.93344" lon="4.72513">
        <ele>172</ele>
        <time>2018-09-20T10:39:56Z</time>
      </trkpt>
      <trkpt lat="45.9334" lon="4.72518">
        <ele>172</ele>
        <time>2018-09-20T10:39:57Z</time>
      </trkpt>
      <trkpt lat="45.93336" lon="4.72524">
        <ele>172</ele>
        <time>2018-09-20T10:39:58Z</time>
      </trkpt>
      <trkpt lat="45.93331" lon="4.72531">
        <ele>172</ele>
        <time>2018-09-20T10:39:59Z</time>
      </trkpt>
      <trkpt lat="45.93327" lon="4.72536">
        <ele>172</ele>
        <time>2018-09-20T10:40:00Z</time>
      </trkpt>
      <trkpt lat="45.93323" lon="4.72542">
        <ele>172</ele>
        <time>2018-09-20T10:40:01Z</time>
      </trkpt>
      <trkpt lat="45.93318" lon="4.72548">
        <ele>172</ele>
        <time>2018-09-20T10:40:02Z</time>
      </trkpt>
      <trkpt lat="45.93314" lon="4.72553">
        <ele>172</ele>
        <time>2018-09-20T10:40:03Z</time>
      </trkpt>
      <trkpt lat="45.9331" lon="4.72559">
        <ele>172</ele>
        <time>2018-09-20T10:40:04Z</time>
      </trkpt>
      <trkpt lat="45.93306" lon="4.72565">
        <ele>171</ele>
        <time>2018-09-20T10:40:05Z</time>
      </trkpt>
      <trkpt lat="45.93302" lon="4.7257">
        <ele>171</ele>
        <time>2018-09-20T10:40:06Z</time>
      </trkpt>
      <trkpt lat="45.93297" lon="4.72575">
        <ele>171</ele>
        <time>2018-09-20T10:40:07Z</time>
      </trkpt>
      <trkpt lat="45.93292" lon="4.72581">
        <ele>171</ele>
        <time>2018-09-20T10:40:08Z</time>
      </trkpt>
      <trkpt lat="45.93288" lon="4.72586">
        <ele>170</ele>
        <time>2018-09-20T10:40:09Z</time>
      </trkpt>
      <trkpt lat="45.93283" lon="4.72592">
        <ele>170</ele>
        <time>2018-09-20T10:40:10Z</time>
      </trkpt>
      <trkpt lat="45.93279" lon="4.72597">
        <ele>170</ele>
        <time>2018-09-20T10:40:11Z</time>
      </trkpt>
      <trkpt lat="45.93274" lon="4.72601">
        <ele>170</ele>
        <time>2018-09-20T10:40:12Z</time>
      </trkpt>
      <trkpt lat="45.9327" lon="4.72605">
        <ele>170</ele>
        <time>2018-09-20T10:40:13Z</time>
      </trkpt>
      <trkpt lat="45.93266" lon="4.7261">
        <ele>170</ele>
        <time>2018-09-20T10:40:14Z</time>
      </trkpt>
      <trkpt lat="45.93262" lon="4.72612">
        <ele>170</ele>
        <time>2018-09-20T10:40:15Z</time>
      </trkpt>
      <trkpt lat="45.93257" lon="4.72618">
        <ele>170</ele>
        <time>2018-09-20T10:40:16Z</time>
      </trkpt>
      <trkpt lat="45.93254" lon="4.72622">
        <ele>170</ele>
        <time>2018-09-20T10:40:17Z</time>
      </trkpt>
      <trkpt lat="45.93249" lon="4.72626">
        <ele>170</ele>
        <time>2018-09-20T10:40:18Z</time>
      </trkpt>
      <trkpt lat="45.93245" lon="4.7263">
        <ele>170</ele>
        <time>2018-09-20T10:40:19Z</time>
      </trkpt>
      <trkpt lat="45.93242" lon="4.72637">
        <ele>170</ele>
        <time>2018-09-20T10:40:20Z</time>
      </trkpt>
      <trkpt lat="45.93238" lon="4.7264">
        <ele>170</ele>
        <time>2018-09-20T10:40:21Z</time>
      </trkpt>
      <trkpt lat="45.93234" lon="4.72645">
        <ele>170</ele>
        <time>2018-09-20T10:40:22Z</time>
      </trkpt>
      <trkpt lat="45.93229" lon="4.72652">
        <ele>170</ele>
        <time>2018-09-20T10:40:23Z</time>
      </trkpt>
      <trkpt lat="45.93224" lon="4.72656">
        <ele>170</ele>
        <time>2018-09-20T10:40:24Z</time>
      </trkpt>
      <trkpt lat="45.9322" lon="4.72662">
        <ele>170</ele>
        <time>2018-09-20T10:40:25Z</time>
      </trkpt>
      <trkpt lat="45.93216" lon="4.72667">
        <ele>169</ele>
        <time>2018-09-20T10:40:26Z</time>
      </trkpt>
      <trkpt lat="45.93212" lon="4.72672">
        <ele>169</ele>
        <time>2018-09-20T10:40:27Z</time>
      </trkpt>
      <trkpt lat="45.93207" lon="4.72673">
        <ele>169</ele>
        <time>2018-09-20T10:40:28Z</time>
      </trkpt>
      <trkpt lat="45.93203" lon="4.72677">
        <ele>169</ele>
        <time>2018-09-20T10:40:29Z</time>
      </trkpt>
      <trkpt lat="45.932" lon="4.72682">
        <ele>169</ele>
        <time>2018-09-20T10:40:30Z</time>
      </trkpt>
      <trkpt lat="45.93198" lon="4.72685">
        <ele>169</ele>
        <time>2018-09-20T10:40:31Z</time>
      </trkpt>
      <trkpt lat="45.93192" lon="4.72692">
        <ele>169</ele>
        <time>2018-09-20T10:40:32Z</time>
      </trkpt>
      <trkpt lat="45.9319" lon="4.72697">
        <ele>169</ele>
        <time>2018-09-20T10:40:33Z</time>
      </trkpt>
      <trkpt lat="45.93186" lon="4.72702">
        <ele>169</ele>
        <time>2018-09-20T10:40:34Z</time>
      </trkpt>
      <trkpt lat="45.93183" lon="4.72707">
        <ele>169</ele>
        <time>2018-09-20T10:40:35Z</time>
      </trkpt>
      <trkpt lat="45.93178" lon="4.72712">
        <ele>169</ele>
        <time>2018-09-20T10:40:36Z</time>
      </trkpt>
      <trkpt lat="45.93174" lon="4.72716">
        <ele>170</ele>
        <time>2018-09-20T10:40:37Z</time>
      </trkpt>
      <trkpt lat="45.9317" lon="4.72721">
        <ele>170</ele>
        <time>2018-09-20T10:40:38Z</time>
      </trkpt>
      <trkpt lat="45.93165" lon="4.72725">
        <ele>170</ele>
        <time>2018-09-20T10:40:39Z</time>
      </trkpt>
      <trkpt lat="45.93161" lon="4.7273">
        <ele>170</ele>
        <time>2018-09-20T10:40:40Z</time>
      </trkpt>
      <trkpt lat="45.93157" lon="4.72735">
        <ele>170</ele>
        <time>2018-09-20T10:40:41Z</time>
      </trkpt>
      <trkpt lat="45.93152" lon="4.72739">
        <ele>170</ele>
        <time>2018-09-20T10:40:42Z</time>
      </trkpt>
      <trkpt lat="45.93149" lon="4.72745">
        <ele>170</ele>
        <time>2018-09-20T10:40:43Z</time>
      </trkpt>
      <trkpt lat="45.93145" lon="4.7275">
        <ele>170</ele>
        <time>2018-09-20T10:40:44Z</time>
      </trkpt>
      <trkpt lat="45.93141" lon="4.72757">
        <ele>171</ele>
        <time>2018-09-20T10:40:45Z</time>
      </trkpt>
      <trkpt lat="45.93137" lon="4.72763">
        <ele>171</ele>
        <time>2018-09-20T10:40:46Z</time>
      </trkpt>
      <trkpt lat="45.93133" lon="4.72768">
        <ele>171</ele>
        <time>2018-09-20T10:40:47Z</time>
      </trkpt>
      <trkpt lat="45.93128" lon="4.72773">
        <ele>171</ele>
        <time>2018-09-20T10:40:48Z</time>
      </trkpt>
      <trkpt lat="45.93124" lon="4.72778">
        <ele>171</ele>
        <time>2018-09-20T10:40:49Z</time>
      </trkpt>
      <trkpt lat="45.9312" lon="4.72783">
        <ele>171</ele>
        <time>2018-09-20T10:40:50Z</time>
      </trkpt>
      <trkpt lat="45.93116" lon="4.72788">
        <ele>171</ele>
        <time>2018-09-20T10:40:51Z</time>
      </trkpt>
      <trkpt lat="45.93112" lon="4.72792">
        <ele>171</ele>
        <time>2018-09-20T10:40:52Z</time>
      </trkpt>
      <trkpt lat="45.93108" lon="4.72797">
        <ele>171</ele>
        <time>2018-09-20T10:40:53Z</time>
      </trkpt>
      <trkpt lat="45.93104" lon="4.72802">
        <ele>171</ele>
        <time>2018-09-20T10:40:54Z</time>
      </trkpt>
      <trkpt lat="45.93101" lon="4.72806">
        <ele>171</ele>
        <time>2018-09-20T10:40:55Z</time>
      </trkpt>
      <trkpt lat="45.93097" lon="4.72811">
        <ele>172</ele>
        <time>2018-09-20T10:40:56Z</time>
      </trkpt>
      <trkpt lat="45.93093" lon="4.72816">
        <ele>172</ele>
        <time>2018-09-20T10:40:57Z</time>
      </trkpt>
      <trkpt lat="45.93088" lon="4.7282">
        <ele>172</ele>
        <time>2018-09-20T10:40:58Z</time>
      </trkpt>
      <trkpt lat="45.93086" lon="4.72826">
        <ele>172</ele>
        <time>2018-09-20T10:40:59Z</time>
      </trkpt>
      <trkpt lat="45.93082" lon="4.7283">
        <ele>173</ele>
        <time>2018-09-20T10:41:00Z</time>
      </trkpt>
      <trkpt lat="45.93079" lon="4.72836">
        <ele>173</ele>
        <time>2018-09-20T10:41:01Z</time>
      </trkpt>
      <trkpt lat="45.93046" lon="4.72851">
        <ele>172</ele>
        <time>2018-09-20T10:41:07Z</time>
      </trkpt>
      <trkpt lat="45.93045" lon="4.72861">
        <ele>172</ele>
        <time>2018-09-20T10:41:08Z</time>
      </trkpt>
      <trkpt lat="45.9304" lon="4.72865">
        <ele>172</ele>
        <time>2018-09-20T10:41:09Z</time>
      </trkpt>
      <trkpt lat="45.93035" lon="4.72871">
        <ele>172</ele>
        <time>2018-09-20T10:41:10Z</time>
      </trkpt>
      <trkpt lat="45.93033" lon="4.72877">
        <ele>172</ele>
        <time>2018-09-20T10:41:11Z</time>
      </trkpt>
      <trkpt lat="45.93027" lon="4.7288">
        <ele>172</ele>
        <time>2018-09-20T10:41:12Z</time>
      </trkpt>
      <trkpt lat="45.93024" lon="4.72884">
        <ele>172</ele>
        <time>2018-09-20T10:41:13Z</time>
      </trkpt>
      <trkpt lat="45.93021" lon="4.7289">
        <ele>172</ele>
        <time>2018-09-20T10:41:14Z</time>
      </trkpt>
      <trkpt lat="45.93018" lon="4.72895">
        <ele>172</ele>
        <time>2018-09-20T10:41:15Z</time>
      </trkpt>
      <trkpt lat="45.93015" lon="4.72901">
        <ele>172</ele>
        <time>2018-09-20T10:41:16Z</time>
      </trkpt>
      <trkpt lat="45.93012" lon="4.72906">
        <ele>171</ele>
        <time>2018-09-20T10:41:17Z</time>
      </trkpt>
      <trkpt lat="45.93008" lon="4.72911">
        <ele>171</ele>
        <time>2018-09-20T10:41:18Z</time>
      </trkpt>
      <trkpt lat="45.93005" lon="4.72918">
        <ele>171</ele>
        <time>2018-09-20T10:41:19Z</time>
      </trkpt>
      <trkpt lat="45.93001" lon="4.72922">
        <ele>171</ele>
        <time>2018-09-20T10:41:20Z</time>
      </trkpt>
      <trkpt lat="45.92997" lon="4.72928">
        <ele>171</ele>
        <time>2018-09-20T10:41:21Z</time>
      </trkpt>
      <trkpt lat="45.92993" lon="4.72933">
        <ele>171</ele>
        <time>2018-09-20T10:41:22Z</time>
      </trkpt>
      <trkpt lat="45.9299" lon="4.72938">
        <ele>171</ele>
        <time>2018-09-20T10:41:23Z</time>
      </trkpt>
      <trkpt lat="45.92985" lon="4.72942">
        <ele>171</ele>
        <time>2018-09-20T10:41:24Z</time>
      </trkpt>
      <trkpt lat="45.92981" lon="4.72947">
        <ele>171</ele>
        <time>2018-09-20T10:41:25Z</time>
      </trkpt>
      <trkpt lat="45.92977" lon="4.72951">
        <ele>171</ele>
        <time>2018-09-20T10:41:26Z</time>
      </trkpt>
      <trkpt lat="45.92973" lon="4.72957">
        <ele>171</ele>
        <time>2018-09-20T10:41:27Z</time>
      </trkpt>
      <trkpt lat="45.92969" lon="4.72963">
        <ele>171</ele>
        <time>2018-09-20T10:41:28Z</time>
      </trkpt>
      <trkpt lat="45.92964" lon="4.72966">
        <ele>171</ele>
        <time>2018-09-20T10:41:29Z</time>
      </trkpt>
      <trkpt lat="45.9296" lon="4.72972">
        <ele>171</ele>
        <time>2018-09-20T10:41:30Z</time>
      </trkpt>
      <trkpt lat="45.92956" lon="4.72976">
        <ele>171</ele>
        <time>2018-09-20T10:41:31Z</time>
      </trkpt>
      <trkpt lat="45.92951" lon="4.72981">
        <ele>171</ele>
        <time>2018-09-20T10:41:32Z</time>
      </trkpt>
      <trkpt lat="45.92947" lon="4.72987">
        <ele>171</ele>
        <time>2018-09-20T10:41:33Z</time>
      </trkpt>
      <trkpt lat="45.92942" lon="4.72992">
        <ele>171</ele>
        <time>2018-09-20T10:41:34Z</time>
      </trkpt>
      <trkpt lat="45.92938" lon="4.72997">
        <ele>171</ele>
        <time>2018-09-20T10:41:35Z</time>
      </trkpt>
      <trkpt lat="45.92933" lon="4.73002">
        <ele>171</ele>
        <time>2018-09-20T10:41:36Z</time>
      </trkpt>
      <trkpt lat="45.92929" lon="4.73007">
        <ele>172</ele>
        <time>2018-09-20T10:41:37Z</time>
      </trkpt>
      <trkpt lat="45.92926" lon="4.73012">
        <ele>172</ele>
        <time>2018-09-20T10:41:38Z</time>
      </trkpt>
      <trkpt lat="45.92921" lon="4.73016">
        <ele>172</ele>
        <time>2018-09-20T10:41:39Z</time>
      </trkpt>
      <trkpt lat="45.92916" lon="4.73021">
        <ele>172</ele>
        <time>2018-09-20T10:41:40Z</time>
      </trkpt>
      <trkpt lat="45.92913" lon="4.73026">
        <ele>172</ele>
        <time>2018-09-20T10:41:41Z</time>
      </trkpt>
      <trkpt lat="45.92909" lon="4.73031">
        <ele>172</ele>
        <time>2018-09-20T10:41:42Z</time>
      </trkpt>
      <trkpt lat="45.92905" lon="4.73036">
        <ele>172</ele>
        <time>2018-09-20T10:41:43Z</time>
      </trkpt>
      <trkpt lat="45.92902" lon="4.73041">
        <ele>172</ele>
        <time>2018-09-20T10:41:44Z</time>
      </trkpt>
      <trkpt lat="45.92899" lon="4.73046">
        <ele>172</ele>
        <time>2018-09-20T10:41:45Z</time>
      </trkpt>
      <trkpt lat="45.92896" lon="4.73051">
        <ele>172</ele>
        <time>2018-09-20T10:41:46Z</time>
      </trkpt>
      <trkpt lat="45.92893" lon="4.73056">
        <ele>172</ele>
        <time>2018-09-20T10:41:47Z</time>
      </trkpt>
      <trkpt lat="45.92886" lon="4.73065">
        <ele>172</ele>
        <time>2018-09-20T10:41:49Z</time>
      </trkpt>
      <trkpt lat="45.92883" lon="4.7307">
        <ele>172</ele>
        <time>2018-09-20T10:41:50Z</time>
      </trkpt>
      <trkpt lat="45.92876" lon="4.73077">
        <ele>172</ele>
        <time>2018-09-20T10:41:52Z</time>
      </trkpt>
      <trkpt lat="45.92874" lon="4.73083">
        <ele>172</ele>
        <time>2018-09-20T10:41:53Z</time>
      </trkpt>
      <trkpt lat="45.9287" lon="4.73087">
        <ele>172</ele>
        <time>2018-09-20T10:41:54Z</time>
      </trkpt>
      <trkpt lat="45.92867" lon="4.73091">
        <ele>172</ele>
        <time>2018-09-20T10:41:55Z</time>
      </trkpt>
      <trkpt lat="45.9286" lon="4.731">
        <ele>171</ele>
        <time>2018-09-20T10:41:57Z</time>
      </trkpt>
      <trkpt lat="45.92857" lon="4.73103">
        <ele>171</ele>
        <time>2018-09-20T10:41:58Z</time>
      </trkpt>
      <trkpt lat="45.9285" lon="4.73099">
        <ele>171</ele>
        <time>2018-09-20T10:42:00Z</time>
      </trkpt>
      <trkpt lat="45.92848" lon="4.73093">
        <ele>171</ele>
        <time>2018-09-20T10:42:01Z</time>
      </trkpt>
      <trkpt lat="45.92846" lon="4.73087">
        <ele>171</ele>
        <time>2018-09-20T10:42:02Z</time>
      </trkpt>
      <trkpt lat="45.92845" lon="4.7308">
        <ele>171</ele>
        <time>2018-09-20T10:42:03Z</time>
      </trkpt>
      <trkpt lat="45.92845" lon="4.73073">
        <ele>171</ele>
        <time>2018-09-20T10:42:04Z</time>
      </trkpt>
      <trkpt lat="45.92845" lon="4.73065">
        <ele>171</ele>
        <time>2018-09-20T10:42:05Z</time>
      </trkpt>
      <trkpt lat="45.92843" lon="4.73059">
        <ele>171</ele>
        <time>2018-09-20T10:42:06Z</time>
      </trkpt>
      <trkpt lat="45.92842" lon="4.73051">
        <ele>171</ele>
        <time>2018-09-20T10:42:07Z</time>
      </trkpt>
      <trkpt lat="45.9284" lon="4.73044">
        <ele>171</ele>
        <time>2018-09-20T10:42:08Z</time>
      </trkpt>
      <trkpt lat="45.92838" lon="4.73038">
        <ele>171</ele>
        <time>2018-09-20T10:42:09Z</time>
      </trkpt>
      <trkpt lat="45.92837" lon="4.73031">
        <ele>171</ele>
        <time>2018-09-20T10:42:10Z</time>
      </trkpt>
      <trkpt lat="45.92836" lon="4.73025">
        <ele>171</ele>
        <time>2018-09-20T10:42:11Z</time>
      </trkpt>
      <trkpt lat="45.92834" lon="4.73012">
        <ele>171</ele>
        <time>2018-09-20T10:42:13Z</time>
      </trkpt>
      <trkpt lat="45.92833" lon="4.73005">
        <ele>170</ele>
        <time>2018-09-20T10:42:14Z</time>
      </trkpt>
      <trkpt lat="45.92832" lon="4.72997">
        <ele>170</ele>
        <time>2018-09-20T10:42:15Z</time>
      </trkpt>
      <trkpt lat="45.92833" lon="4.72989">
        <ele>170</ele>
        <time>2018-09-20T10:42:16Z</time>
      </trkpt>
      <trkpt lat="45.92832" lon="4.72982">
        <ele>170</ele>
        <time>2018-09-20T10:42:17Z</time>
      </trkpt>
      <trkpt lat="45.92832" lon="4.72974">
        <ele>170</ele>
        <time>2018-09-20T10:42:18Z</time>
      </trkpt>
      <trkpt lat="45.92831" lon="4.72966">
        <ele>170</ele>
        <time>2018-09-20T10:42:19Z</time>
      </trkpt>
      <trkpt lat="45.9283" lon="4.72959">
        <ele>170</ele>
        <time>2018-09-20T10:42:20Z</time>
      </trkpt>
      <trkpt lat="45.9283" lon="4.72951">
        <ele>170</ele>
        <time>2018-09-20T10:42:21Z</time>
      </trkpt>
      <trkpt lat="45.92829" lon="4.72944">
        <ele>170</ele>
        <time>2018-09-20T10:42:22Z</time>
      </trkpt>
      <trkpt lat="45.92828" lon="4.72936">
        <ele>170</ele>
        <time>2018-09-20T10:42:23Z</time>
      </trkpt>
      <trkpt lat="45.92826" lon="4.7293">
        <ele>170</ele>
        <time>2018-09-20T10:42:24Z</time>
      </trkpt>
      <trkpt lat="45.92826" lon="4.72922">
        <ele>170</ele>
        <time>2018-09-20T10:42:25Z</time>
      </trkpt>
      <trkpt lat="45.92825" lon="4.72914">
        <ele>170</ele>
        <time>2018-09-20T10:42:26Z</time>
      </trkpt>
      <trkpt lat="45.92824" lon="4.72907">
        <ele>170</ele>
        <time>2018-09-20T10:42:27Z</time>
      </trkpt>
      <trkpt lat="45.92824" lon="4.729">
        <ele>170</ele>
        <time>2018-09-20T10:42:28Z</time>
      </trkpt>
      <trkpt lat="45.92822" lon="4.72894">
        <ele>170</ele>
        <time>2018-09-20T10:42:29Z</time>
      </trkpt>
      <trkpt lat="45.92822" lon="4.72887">
        <ele>170</ele>
        <time>2018-09-20T10:42:30Z</time>
      </trkpt>
      <trkpt lat="45.9282" lon="4.72875">
        <ele>170</ele>
        <time>2018-09-20T10:42:32Z</time>
      </trkpt>
      <trkpt lat="45.92819" lon="4.72869">
        <ele>170</ele>
        <time>2018-09-20T10:42:33Z</time>
      </trkpt>
      <trkpt lat="45.92817" lon="4.72856">
        <ele>170</ele>
        <time>2018-09-20T10:42:35Z</time>
      </trkpt>
      <trkpt lat="45.92817" lon="4.72852">
        <ele>170</ele>
        <time>2018-09-20T10:42:36Z</time>
      </trkpt>
      <trkpt lat="45.92813" lon="4.72843">
        <ele>170</ele>
        <time>2018-09-20T10:42:38Z</time>
      </trkpt>
      <trkpt lat="45.92813" lon="4.72837">
        <ele>170</ele>
        <time>2018-09-20T10:42:39Z</time>
      </trkpt>
      <trkpt lat="45.92812" lon="4.7283">
        <ele>171</ele>
        <time>2018-09-20T10:42:40Z</time>
      </trkpt>
      <trkpt lat="45.92811" lon="4.72824">
        <ele>171</ele>
        <time>2018-09-20T10:42:41Z</time>
      </trkpt>
      <trkpt lat="45.9281" lon="4.72812">
        <ele>171</ele>
        <time>2018-09-20T10:42:43Z</time>
      </trkpt>
      <trkpt lat="45.92808" lon="4.72806">
        <ele>171</ele>
        <time>2018-09-20T10:42:44Z</time>
      </trkpt>
      <trkpt lat="45.92805" lon="4.72795">
        <ele>171</ele>
        <time>2018-09-20T10:42:46Z</time>
      </trkpt>
      <trkpt lat="45.92804" lon="4.7279">
        <ele>171</ele>
        <time>2018-09-20T10:42:47Z</time>
      </trkpt>
      <trkpt lat="45.92798" lon="4.72785">
        <ele>171</ele>
        <time>2018-09-20T10:42:49Z</time>
      </trkpt>
      <trkpt lat="45.92795" lon="4.72786">
        <ele>171</ele>
        <time>2018-09-20T10:42:50Z</time>
      </trkpt>
      <trkpt lat="45.92791" lon="4.72788">
        <ele>171</ele>
        <time>2018-09-20T10:42:51Z</time>
      </trkpt>
      <trkpt lat="45.92786" lon="4.72796">
        <ele>170</ele>
        <time>2018-09-20T10:42:52Z</time>
      </trkpt>
      <trkpt lat="45.9278" lon="4.72797">
        <ele>170</ele>
        <time>2018-09-20T10:42:53Z</time>
      </trkpt>
      <trkpt lat="45.92776" lon="4.728">
        <ele>170</ele>
        <time>2018-09-20T10:42:54Z</time>
      </trkpt>
      <trkpt lat="45.92771" lon="4.72803">
        <ele>170</ele>
        <time>2018-09-20T10:42:55Z</time>
      </trkpt>
      <trkpt lat="45.92767" lon="4.72806">
        <ele>170</ele>
        <time>2018-09-20T10:42:56Z</time>
      </trkpt>
      <trkpt lat="45.92763" lon="4.7281">
        <ele>170</ele>
        <time>2018-09-20T10:42:57Z</time>
      </trkpt>
      <trkpt lat="45.92757" lon="4.72814">
        <ele>170</ele>
        <time>2018-09-20T10:42:58Z</time>
      </trkpt>
      <trkpt lat="45.92753" lon="4.72818">
        <ele>170</ele>
        <time>2018-09-20T10:42:59Z</time>
      </trkpt>
      <trkpt lat="45.92748" lon="4.72821">
        <ele>169</ele>
        <time>2018-09-20T10:43:00Z</time>
      </trkpt>
      <trkpt lat="45.92743" lon="4.72824">
        <ele>169</ele>
        <time>2018-09-20T10:43:01Z</time>
      </trkpt>
      <trkpt lat="45.92738" lon="4.72828">
        <ele>169</ele>
        <time>2018-09-20T10:43:02Z</time>
      </trkpt>
      <trkpt lat="45.92732" lon="4.72835">
        <ele>169</ele>
        <time>2018-09-20T10:43:03Z</time>
      </trkpt>
      <trkpt lat="45.92727" lon="4.72839">
        <ele>169</ele>
        <time>2018-09-20T10:43:04Z</time>
      </trkpt>
      <trkpt lat="45.92722" lon="4.72843">
        <ele>169</ele>
        <time>2018-09-20T10:43:05Z</time>
      </trkpt>
      <trkpt lat="45.92717" lon="4.72848">
        <ele>169</ele>
        <time>2018-09-20T10:43:06Z</time>
      </trkpt>
      <trkpt lat="45.92711" lon="4.72852">
        <ele>169</ele>
        <time>2018-09-20T10:43:07Z</time>
      </trkpt>
      <trkpt lat="45.92705" lon="4.72856">
        <ele>169</ele>
        <time>2018-09-20T10:43:08Z</time>
      </trkpt>
      <trkpt lat="45.92701" lon="4.7286">
        <ele>169</ele>
        <time>2018-09-20T10:43:09Z</time>
      </trkpt>
      <trkpt lat="45.92696" lon="4.72864">
        <ele>169</ele>
        <time>2018-09-20T10:43:10Z</time>
      </trkpt>
      <trkpt lat="45.92691" lon="4.72868">
        <ele>169</ele>
        <time>2018-09-20T10:43:11Z</time>
      </trkpt>
      <trkpt lat="45.92687" lon="4.72872">
        <ele>169</ele>
        <time>2018-09-20T10:43:12Z</time>
      </trkpt>
      <trkpt lat="45.92682" lon="4.72875">
        <ele>170</ele>
        <time>2018-09-20T10:43:13Z</time>
      </trkpt>
      <trkpt lat="45.92679" lon="4.72878">
        <ele>170</ele>
        <time>2018-09-20T10:43:14Z</time>
      </trkpt>
      <trkpt lat="45.92674" lon="4.72881">
        <ele>170</ele>
        <time>2018-09-20T10:43:15Z</time>
      </trkpt>
      <trkpt lat="45.92669" lon="4.72884">
        <ele>170</ele>
        <time>2018-09-20T10:43:16Z</time>
      </trkpt>
      <trkpt lat="45.92665" lon="4.72889">
        <ele>169</ele>
        <time>2018-09-20T10:43:17Z</time>
      </trkpt>
      <trkpt lat="45.9266" lon="4.72892">
        <ele>169</ele>
        <time>2018-09-20T10:43:18Z</time>
      </trkpt>
      <trkpt lat="45.92654" lon="4.72897">
        <ele>170</ele>
        <time>2018-09-20T10:43:19Z</time>
      </trkpt>
      <trkpt lat="45.92649" lon="4.72901">
        <ele>170</ele>
        <time>2018-09-20T10:43:20Z</time>
      </trkpt>
      <trkpt lat="45.92644" lon="4.72906">
        <ele>169</ele>
        <time>2018-09-20T10:43:21Z</time>
      </trkpt>
      <trkpt lat="45.92639" lon="4.7291">
        <ele>169</ele>
        <time>2018-09-20T10:43:22Z</time>
      </trkpt>
      <trkpt lat="45.92633" lon="4.72912">
        <ele>169</ele>
        <time>2018-09-20T10:43:23Z</time>
      </trkpt>
      <trkpt lat="45.92628" lon="4.72915">
        <ele>169</ele>
        <time>2018-09-20T10:43:24Z</time>
      </trkpt>
      <trkpt lat="45.92622" lon="4.72919">
        <ele>169</ele>
        <time>2018-09-20T10:43:25Z</time>
      </trkpt>
      <trkpt lat="45.92618" lon="4.72923">
        <ele>169</ele>
        <time>2018-09-20T10:43:26Z</time>
      </trkpt>
      <trkpt lat="45.92613" lon="4.72928">
        <ele>169</ele>
        <time>2018-09-20T10:43:27Z</time>
      </trkpt>
      <trkpt lat="45.92608" lon="4.72934">
        <ele>169</ele>
        <time>2018-09-20T10:43:28Z</time>
      </trkpt>
      <trkpt lat="45.92603" lon="4.72939">
        <ele>169</ele>
        <time>2018-09-20T10:43:29Z</time>
      </trkpt>
      <trkpt lat="45.92598" lon="4.72945">
        <ele>169</ele>
        <time>2018-09-20T10:43:30Z</time>
      </trkpt>
      <trkpt lat="45.92593" lon="4.7295">
        <ele>169</ele>
        <time>2018-09-20T10:43:31Z</time>
      </trkpt>
      <trkpt lat="45.92589" lon="4.72956">
        <ele>169</ele>
        <time>2018-09-20T10:43:32Z</time>
      </trkpt>
      <trkpt lat="45.92584" lon="4.72961">
        <ele>169</ele>
        <time>2018-09-20T10:43:33Z</time>
      </trkpt>
      <trkpt lat="45.9258" lon="4.72966">
        <ele>169</ele>
        <time>2018-09-20T10:43:34Z</time>
      </trkpt>
      <trkpt lat="45.92576" lon="4.72972">
        <ele>169</ele>
        <time>2018-09-20T10:43:35Z</time>
      </trkpt>
      <trkpt lat="45.92572" lon="4.72976">
        <ele>169</ele>
        <time>2018-09-20T10:43:36Z</time>
      </trkpt>
      <trkpt lat="45.92569" lon="4.7298">
        <ele>169</ele>
        <time>2018-09-20T10:43:37Z</time>
      </trkpt>
      <trkpt lat="45.92565" lon="4.72985">
        <ele>169</ele>
        <time>2018-09-20T10:43:38Z</time>
      </trkpt>
      <trkpt lat="45.9256" lon="4.7299">
        <ele>169</ele>
        <time>2018-09-20T10:43:39Z</time>
      </trkpt>
      <trkpt lat="45.92554" lon="4.72995">
        <ele>169</ele>
        <time>2018-09-20T10:43:40Z</time>
      </trkpt>
      <trkpt lat="45.92549" lon="4.73">
        <ele>169</ele>
        <time>2018-09-20T10:43:41Z</time>
      </trkpt>
      <trkpt lat="45.92545" lon="4.73004">
        <ele>169</ele>
        <time>2018-09-20T10:43:42Z</time>
      </trkpt>
      <trkpt lat="45.9254" lon="4.73009">
        <ele>169</ele>
        <time>2018-09-20T10:43:43Z</time>
      </trkpt>
      <trkpt lat="45.92536" lon="4.73013">
        <ele>169</ele>
        <time>2018-09-20T10:43:44Z</time>
      </trkpt>
      <trkpt lat="45.92531" lon="4.73018">
        <ele>169</ele>
        <time>2018-09-20T10:43:45Z</time>
      </trkpt>
      <trkpt lat="45.92526" lon="4.73022">
        <ele>169</ele>
        <time>2018-09-20T10:43:46Z</time>
      </trkpt>
      <trkpt lat="45.9252" lon="4.73028">
        <ele>169</ele>
        <time>2018-09-20T10:43:47Z</time>
      </trkpt>
      <trkpt lat="45.92515" lon="4.73033">
        <ele>169</ele>
        <time>2018-09-20T10:43:48Z</time>
      </trkpt>
      <trkpt lat="45.92509" lon="4.73037">
        <ele>169</ele>
        <time>2018-09-20T10:43:49Z</time>
      </trkpt>
      <trkpt lat="45.92503" lon="4.73043">
        <ele>170</ele>
        <time>2018-09-20T10:43:50Z</time>
      </trkpt>
      <trkpt lat="45.92499" lon="4.73049">
        <ele>170</ele>
        <time>2018-09-20T10:43:51Z</time>
      </trkpt>
      <trkpt lat="45.92493" lon="4.73054">
        <ele>170</ele>
        <time>2018-09-20T10:43:52Z</time>
      </trkpt>
      <trkpt lat="45.92487" lon="4.73058">
        <ele>170</ele>
        <time>2018-09-20T10:43:53Z</time>
      </trkpt>
      <trkpt lat="45.92482" lon="4.73063">
        <ele>170</ele>
        <time>2018-09-20T10:43:54Z</time>
      </trkpt>
      <trkpt lat="45.92477" lon="4.73066">
        <ele>170</ele>
        <time>2018-09-20T10:43:55Z</time>
      </trkpt>
      <trkpt lat="45.92471" lon="4.7307">
        <ele>170</ele>
        <time>2018-09-20T10:43:56Z</time>
      </trkpt>
      <trkpt lat="45.92466" lon="4.73074">
        <ele>170</ele>
        <time>2018-09-20T10:43:57Z</time>
      </trkpt>
      <trkpt lat="45.92462" lon="4.73079">
        <ele>170</ele>
        <time>2018-09-20T10:43:58Z</time>
      </trkpt>
      <trkpt lat="45.92457" lon="4.73083">
        <ele>170</ele>
        <time>2018-09-20T10:43:59Z</time>
      </trkpt>
      <trkpt lat="45.92452" lon="4.73087">
        <ele>170</ele>
        <time>2018-09-20T10:44:00Z</time>
      </trkpt>
      <trkpt lat="45.92448" lon="4.7309">
        <ele>170</ele>
        <time>2018-09-20T10:44:01Z</time>
      </trkpt>
      <trkpt lat="45.92444" lon="4.73094">
        <ele>170</ele>
        <time>2018-09-20T10:44:02Z</time>
      </trkpt>
      <trkpt lat="45.92439" lon="4.73098">
        <ele>170</ele>
        <time>2018-09-20T10:44:03Z</time>
      </trkpt>
      <trkpt lat="45.92435" lon="4.73103">
        <ele>170</ele>
        <time>2018-09-20T10:44:04Z</time>
      </trkpt>
      <trkpt lat="45.92431" lon="4.73105">
        <ele>170</ele>
        <time>2018-09-20T10:44:05Z</time>
      </trkpt>
      <trkpt lat="45.92426" lon="4.73108">
        <ele>170</ele>
        <time>2018-09-20T10:44:06Z</time>
      </trkpt>
      <trkpt lat="45.92419" lon="4.73115">
        <ele>170</ele>
        <time>2018-09-20T10:44:08Z</time>
      </trkpt>
      <trkpt lat="45.92416" lon="4.7312">
        <ele>171</ele>
        <time>2018-09-20T10:44:09Z</time>
      </trkpt>
      <trkpt lat="45.92413" lon="4.73126">
        <ele>171</ele>
        <time>2018-09-20T10:44:10Z</time>
      </trkpt>
      <trkpt lat="45.92411" lon="4.73131">
        <ele>171</ele>
        <time>2018-09-20T10:44:11Z</time>
      </trkpt>
      <trkpt lat="45.9241" lon="4.73139">
        <ele>171</ele>
        <time>2018-09-20T10:44:12Z</time>
      </trkpt>
      <trkpt lat="45.92409" lon="4.73147">
        <ele>171</ele>
        <time>2018-09-20T10:44:13Z</time>
      </trkpt>
      <trkpt lat="45.92409" lon="4.73154">
        <ele>170</ele>
        <time>2018-09-20T10:44:14Z</time>
      </trkpt>
      <trkpt lat="45.92409" lon="4.73162">
        <ele>170</ele>
        <time>2018-09-20T10:44:15Z</time>
      </trkpt>
      <trkpt lat="45.92409" lon="4.7317">
        <ele>170</ele>
        <time>2018-09-20T10:44:16Z</time>
      </trkpt>
      <trkpt lat="45.92409" lon="4.73179">
        <ele>171</ele>
        <time>2018-09-20T10:44:17Z</time>
      </trkpt>
      <trkpt lat="45.92408" lon="4.73189">
        <ele>171</ele>
        <time>2018-09-20T10:44:18Z</time>
      </trkpt>
      <trkpt lat="45.92409" lon="4.73197">
        <ele>171</ele>
        <time>2018-09-20T10:44:19Z</time>
      </trkpt>
      <trkpt lat="45.92409" lon="4.73204">
        <ele>171</ele>
        <time>2018-09-20T10:44:20Z</time>
      </trkpt>
      <trkpt lat="45.9241" lon="4.73212">
        <ele>171</ele>
        <time>2018-09-20T10:44:21Z</time>
      </trkpt>
      <trkpt lat="45.9241" lon="4.73219">
        <ele>171</ele>
        <time>2018-09-20T10:44:22Z</time>
      </trkpt>
      <trkpt lat="45.9241" lon="4.73226">
        <ele>171</ele>
        <time>2018-09-20T10:44:23Z</time>
      </trkpt>
      <trkpt lat="45.9241" lon="4.73233">
        <ele>171</ele>
        <time>2018-09-20T10:44:24Z</time>
      </trkpt>
      <trkpt lat="45.92411" lon="4.7324">
        <ele>171</ele>
        <time>2018-09-20T10:44:25Z</time>
      </trkpt>
      <trkpt lat="45.92412" lon="4.73247">
        <ele>171</ele>
        <time>2018-09-20T10:44:26Z</time>
      </trkpt>
      <trkpt lat="45.92412" lon="4.73253">
        <ele>171</ele>
        <time>2018-09-20T10:44:27Z</time>
      </trkpt>
      <trkpt lat="45.92411" lon="4.73261">
        <ele>171</ele>
        <time>2018-09-20T10:44:28Z</time>
      </trkpt>
      <trkpt lat="45.92411" lon="4.73268">
        <ele>171</ele>
        <time>2018-09-20T10:44:29Z</time>
      </trkpt>
      <trkpt lat="45.92412" lon="4.73275">
        <ele>171</ele>
        <time>2018-09-20T10:44:30Z</time>
      </trkpt>
      <trkpt lat="45.92412" lon="4.73282">
        <ele>171</ele>
        <time>2018-09-20T10:44:31Z</time>
      </trkpt>
      <trkpt lat="45.92412" lon="4.73288">
        <ele>171</ele>
        <time>2018-09-20T10:44:32Z</time>
      </trkpt>
      <trkpt lat="45.92413" lon="4.73295">
        <ele>171</ele>
        <time>2018-09-20T10:44:33Z</time>
      </trkpt>
      <trkpt lat="45.92416" lon="4.73301">
        <ele>171</ele>
        <time>2018-09-20T10:44:34Z</time>
      </trkpt>
      <trkpt lat="45.92416" lon="4.73307">
        <ele>171</ele>
        <time>2018-09-20T10:44:35Z</time>
      </trkpt>
      <trkpt lat="45.92417" lon="4.73319">
        <ele>171</ele>
        <time>2018-09-20T10:44:37Z</time>
      </trkpt>
      <trkpt lat="45.92416" lon="4.73326">
        <ele>171</ele>
        <time>2018-09-20T10:44:38Z</time>
      </trkpt>
      <trkpt lat="45.92417" lon="4.73333">
        <ele>171</ele>
        <time>2018-09-20T10:44:39Z</time>
      </trkpt>
      <trkpt lat="45.92418" lon="4.73341">
        <ele>171</ele>
        <time>2018-09-20T10:44:40Z</time>
      </trkpt>
      <trkpt lat="45.92419" lon="4.73347">
        <ele>171</ele>
        <time>2018-09-20T10:44:41Z</time>
      </trkpt>
      <trkpt lat="45.9242" lon="4.73354">
        <ele>171</ele>
        <time>2018-09-20T10:44:42Z</time>
      </trkpt>
      <trkpt lat="45.92421" lon="4.7336">
        <ele>172</ele>
        <time>2018-09-20T10:44:43Z</time>
      </trkpt>
      <trkpt lat="45.92422" lon="4.73366">
        <ele>172</ele>
        <time>2018-09-20T10:44:44Z</time>
      </trkpt>
      <trkpt lat="45.92423" lon="4.73373">
        <ele>172</ele>
        <time>2018-09-20T10:44:45Z</time>
      </trkpt>
      <trkpt lat="45.92426" lon="4.7338">
        <ele>172</ele>
        <time>2018-09-20T10:44:46Z</time>
      </trkpt>
      <trkpt lat="45.92429" lon="4.73387">
        <ele>172</ele>
        <time>2018-09-20T10:44:47Z</time>
      </trkpt>
      <trkpt lat="45.92431" lon="4.73394">
        <ele>172</ele>
        <time>2018-09-20T10:44:48Z</time>
      </trkpt>
      <trkpt lat="45.92433" lon="4.734">
        <ele>172</ele>
        <time>2018-09-20T10:44:49Z</time>
      </trkpt>
      <trkpt lat="45.92436" lon="4.73406">
        <ele>172</ele>
        <time>2018-09-20T10:44:50Z</time>
      </trkpt>
      <trkpt lat="45.92441" lon="4.73414">
        <ele>172</ele>
        <time>2018-09-20T10:44:52Z</time>
      </trkpt>
      <trkpt lat="45.92444" lon="4.73417">
        <ele>172</ele>
        <time>2018-09-20T10:44:53Z</time>
      </trkpt>
      <trkpt lat="45.92449" lon="4.7342">
        <ele>173</ele>
        <time>2018-09-20T10:44:55Z</time>
      </trkpt>
      <trkpt lat="45.92452" lon="4.73424">
        <ele>173</ele>
        <time>2018-09-20T10:44:56Z</time>
      </trkpt>
      <trkpt lat="45.9246" lon="4.73429">
        <ele>173</ele>
        <time>2018-09-20T10:44:58Z</time>
      </trkpt>
      <trkpt lat="45.92463" lon="4.73435">
        <ele>173</ele>
        <time>2018-09-20T10:44:59Z</time>
      </trkpt>
      <trkpt lat="45.92467" lon="4.73446">
        <ele>173</ele>
        <time>2018-09-20T10:45:01Z</time>
      </trkpt>
      <trkpt lat="45.92469" lon="4.73453">
        <ele>173</ele>
        <time>2018-09-20T10:45:02Z</time>
      </trkpt>
      <trkpt lat="45.9247" lon="4.7346">
        <ele>173</ele>
        <time>2018-09-20T10:45:03Z</time>
      </trkpt>
      <trkpt lat="45.9247" lon="4.73468">
        <ele>173</ele>
        <time>2018-09-20T10:45:04Z</time>
      </trkpt>
      <trkpt lat="45.92471" lon="4.73475">
        <ele>173</ele>
        <time>2018-09-20T10:45:05Z</time>
      </trkpt>
      <trkpt lat="45.92472" lon="4.73483">
        <ele>173</ele>
        <time>2018-09-20T10:45:06Z</time>
      </trkpt>
      <trkpt lat="45.92472" lon="4.73491">
        <ele>173</ele>
        <time>2018-09-20T10:45:07Z</time>
      </trkpt>
      <trkpt lat="45.92472" lon="4.73497">
        <ele>173</ele>
        <time>2018-09-20T10:45:08Z</time>
      </trkpt>
      <trkpt lat="45.92471" lon="4.73509">
        <ele>174</ele>
        <time>2018-09-20T10:45:10Z</time>
      </trkpt>
      <trkpt lat="45.92476" lon="4.73515">
        <ele>174</ele>
        <time>2018-09-20T10:45:11Z</time>
      </trkpt>
      <trkpt lat="45.92474" lon="4.73527">
        <ele>174</ele>
        <time>2018-09-20T10:45:13Z</time>
      </trkpt>
      <trkpt lat="45.92472" lon="4.73533">
        <ele>174</ele>
        <time>2018-09-20T10:45:14Z</time>
      </trkpt>
      <trkpt lat="45.92474" lon="4.73544">
        <ele>173</ele>
        <time>2018-09-20T10:45:16Z</time>
      </trkpt>
      <trkpt lat="45.92473" lon="4.73549">
        <ele>173</ele>
        <time>2018-09-20T10:45:17Z</time>
      </trkpt>
      <trkpt lat="45.92473" lon="4.7356">
        <ele>173</ele>
        <time>2018-09-20T10:45:19Z</time>
      </trkpt>
      <trkpt lat="45.92474" lon="4.73566">
        <ele>173</ele>
        <time>2018-09-20T10:45:20Z</time>
      </trkpt>
      <trkpt lat="45.92475" lon="4.73574">
        <ele>173</ele>
        <time>2018-09-20T10:45:21Z</time>
      </trkpt>
      <trkpt lat="45.92476" lon="4.73582">
        <ele>173</ele>
        <time>2018-09-20T10:45:22Z</time>
      </trkpt>
      <trkpt lat="45.92476" lon="4.73588">
        <ele>174</ele>
        <time>2018-09-20T10:45:23Z</time>
      </trkpt>
      <trkpt lat="45.92477" lon="4.73595">
        <ele>174</ele>
        <time>2018-09-20T10:45:24Z</time>
      </trkpt>
      <trkpt lat="45.92476" lon="4.73602">
        <ele>174</ele>
        <time>2018-09-20T10:45:25Z</time>
      </trkpt>
      <trkpt lat="45.92476" lon="4.73608">
        <ele>174</ele>
        <time>2018-09-20T10:45:26Z</time>
      </trkpt>
      <trkpt lat="45.92477" lon="4.73616">
        <ele>174</ele>
        <time>2018-09-20T10:45:27Z</time>
      </trkpt>
      <trkpt lat="45.92478" lon="4.73623">
        <ele>174</ele>
        <time>2018-09-20T10:45:28Z</time>
      </trkpt>
      <trkpt lat="45.92477" lon="4.7363">
        <ele>174</ele>
        <time>2018-09-20T10:45:29Z</time>
      </trkpt>
      <trkpt lat="45.92477" lon="4.73638">
        <ele>174</ele>
        <time>2018-09-20T10:45:30Z</time>
      </trkpt>
      <trkpt lat="45.92478" lon="4.73646">
        <ele>174</ele>
        <time>2018-09-20T10:45:31Z</time>
      </trkpt>
      <trkpt lat="45.92478" lon="4.73652">
        <ele>174</ele>
        <time>2018-09-20T10:45:32Z</time>
      </trkpt>
      <trkpt lat="45.92476" lon="4.73664">
        <ele>174</ele>
        <time>2018-09-20T10:45:34Z</time>
      </trkpt>
      <trkpt lat="45.92474" lon="4.73671">
        <ele>174</ele>
        <time>2018-09-20T10:45:35Z</time>
      </trkpt>
      <trkpt lat="45.92475" lon="4.73679">
        <ele>174</ele>
        <time>2018-09-20T10:45:36Z</time>
      </trkpt>
      <trkpt lat="45.92474" lon="4.73686">
        <ele>174</ele>
        <time>2018-09-20T10:45:37Z</time>
      </trkpt>
      <trkpt lat="45.92474" lon="4.73693">
        <ele>174</ele>
        <time>2018-09-20T10:45:38Z</time>
      </trkpt>
      <trkpt lat="45.92474" lon="4.73699">
        <ele>174</ele>
        <time>2018-09-20T10:45:39Z</time>
      </trkpt>
      <trkpt lat="45.92473" lon="4.73711">
        <ele>174</ele>
        <time>2018-09-20T10:45:44Z</time>
      </trkpt>
      <trkpt lat="45.92473" lon="4.73713">
        <ele>174</ele>
        <time>2018-09-20T10:45:45Z</time>
      </trkpt>
      <trkpt lat="45.92468" lon="4.73712">
        <ele>174</ele>
        <time>2018-09-20T10:46:31.903Z</time>
      </trkpt>
    </trkseg>
  </trk>
</gpx>